<?xml version="1.0" encoding="UTF-8"?>
<gpx version="1.1" creator="https://www.youtrack.es" xsi:schemaLocation="http://www.topografix.com/GPX/1/1 http://www.topografix.com/GPX/1/1/gpx.xsd http://www.garmin.com/xmlschemas/GpxExtensions/v3 http://www.garmin.com/xmlschemas/GpxExtensionsv3.xsd http://www.garmin.com/xmlschemas/TrackPointExtension/v1 http://www.garmin.com/xmlschemas/TrackPointExtensionv1.xsd" xmlns:gpxtpx="http://www.garmin.com/xmlschemas/TrackPointExtension/v1" xmlns:gpxx="http://www.garmin.com/xmlschemas/GpxExtensions/v3" xmlns:xsi="http://www.w3.org/2001/XMLSchema-instance">
  <metadata>
    <link href="https://www.youtrack.es">
      <text>YouTrack.es</text>
    </link>
    <time>2026-05-08T05:07:35Z</time>
  </metadata>
  <trk>
    <src>https://www.youtrack.es</src>
    <link href="https://www.youtrack.es/ruta/15785-vilvestre-general">
      <text>YouTrack.es</text>
    </link>
    <trkseg>
      <trkpt lat="41.102713" lon="-6.743947">
        <ele>273.8</ele>
        <time>1970-01-01T00:00:00.000Z</time>
      </trkpt>
      <trkpt lat="41.102713" lon="-6.743947">
        <ele>273.8</ele>
        <time>1970-01-01T00:00:01.000Z</time>
      </trkpt>
      <trkpt lat="41.102704" lon="-6.7439">
        <ele>273.8</ele>
        <time>1970-01-01T00:00:02.000Z</time>
      </trkpt>
      <trkpt lat="41.102695" lon="-6.743849">
        <ele>274</ele>
        <time>1970-01-01T00:00:03.000Z</time>
      </trkpt>
      <trkpt lat="41.102685" lon="-6.743795">
        <ele>274.1</ele>
        <time>1970-01-01T00:00:04.000Z</time>
      </trkpt>
      <trkpt lat="41.102676" lon="-6.743752">
        <ele>274.2</ele>
        <time>1970-01-01T00:00:05.000Z</time>
      </trkpt>
      <trkpt lat="41.102665" lon="-6.743719">
        <ele>274.3</ele>
        <time>1970-01-01T00:00:06.000Z</time>
      </trkpt>
      <trkpt lat="41.102651" lon="-6.743697">
        <ele>274.7</ele>
        <time>1970-01-01T00:00:07.000Z</time>
      </trkpt>
      <trkpt lat="41.102635" lon="-6.743681">
        <ele>275.1</ele>
        <time>1970-01-01T00:00:08.000Z</time>
      </trkpt>
      <trkpt lat="41.102617" lon="-6.743668">
        <ele>275.4</ele>
        <time>1970-01-01T00:00:09.000Z</time>
      </trkpt>
      <trkpt lat="41.102597" lon="-6.743653">
        <ele>275.7</ele>
        <time>1970-01-01T00:00:10.000Z</time>
      </trkpt>
      <trkpt lat="41.102575" lon="-6.743636">
        <ele>275.7</ele>
        <time>1970-01-01T00:00:11.000Z</time>
      </trkpt>
      <trkpt lat="41.102554" lon="-6.743619">
        <ele>275.5</ele>
        <time>1970-01-01T00:00:12.000Z</time>
      </trkpt>
      <trkpt lat="41.102531" lon="-6.743606">
        <ele>275.1</ele>
        <time>1970-01-01T00:00:13.000Z</time>
      </trkpt>
      <trkpt lat="41.102507" lon="-6.743596">
        <ele>274.7</ele>
        <time>1970-01-01T00:00:14.000Z</time>
      </trkpt>
      <trkpt lat="41.102481" lon="-6.743587">
        <ele>274.7</ele>
        <time>1970-01-01T00:00:15.000Z</time>
      </trkpt>
      <trkpt lat="41.102455" lon="-6.743579">
        <ele>274.8</ele>
        <time>1970-01-01T00:00:16.000Z</time>
      </trkpt>
      <trkpt lat="41.102428" lon="-6.743572">
        <ele>274.9</ele>
        <time>1970-01-01T00:00:17.000Z</time>
      </trkpt>
      <trkpt lat="41.102402" lon="-6.743564">
        <ele>275</ele>
        <time>1970-01-01T00:00:18.000Z</time>
      </trkpt>
      <trkpt lat="41.102377" lon="-6.743554">
        <ele>275.1</ele>
        <time>1970-01-01T00:00:19.000Z</time>
      </trkpt>
      <trkpt lat="41.102353" lon="-6.743544">
        <ele>275.3</ele>
        <time>1970-01-01T00:00:20.000Z</time>
      </trkpt>
      <trkpt lat="41.102333" lon="-6.743533">
        <ele>275.4</ele>
        <time>1970-01-01T00:00:21.000Z</time>
      </trkpt>
      <trkpt lat="41.102313" lon="-6.743521">
        <ele>275.5</ele>
        <time>1970-01-01T00:00:22.000Z</time>
      </trkpt>
      <trkpt lat="41.102294" lon="-6.74351">
        <ele>275.7</ele>
        <time>1970-01-01T00:00:23.000Z</time>
      </trkpt>
      <trkpt lat="41.102276" lon="-6.743498">
        <ele>275.8</ele>
        <time>1970-01-01T00:00:24.000Z</time>
      </trkpt>
      <trkpt lat="41.102258" lon="-6.743484">
        <ele>275.9</ele>
        <time>1970-01-01T00:00:25.000Z</time>
      </trkpt>
      <trkpt lat="41.102239" lon="-6.743469">
        <ele>276.1</ele>
        <time>1970-01-01T00:00:26.000Z</time>
      </trkpt>
      <trkpt lat="41.102221" lon="-6.743453">
        <ele>276.2</ele>
        <time>1970-01-01T00:00:27.000Z</time>
      </trkpt>
      <trkpt lat="41.102203" lon="-6.743437">
        <ele>276.4</ele>
        <time>1970-01-01T00:00:28.000Z</time>
      </trkpt>
      <trkpt lat="41.102186" lon="-6.743422">
        <ele>276.5</ele>
        <time>1970-01-01T00:00:29.000Z</time>
      </trkpt>
      <trkpt lat="41.102168" lon="-6.743407">
        <ele>276.7</ele>
        <time>1970-01-01T00:00:30.000Z</time>
      </trkpt>
      <trkpt lat="41.102151" lon="-6.743392">
        <ele>276.9</ele>
        <time>1970-01-01T00:00:31.000Z</time>
      </trkpt>
      <trkpt lat="41.102135" lon="-6.743378">
        <ele>277</ele>
        <time>1970-01-01T00:00:32.000Z</time>
      </trkpt>
      <trkpt lat="41.102118" lon="-6.743365">
        <ele>277.2</ele>
        <time>1970-01-01T00:00:33.000Z</time>
      </trkpt>
      <trkpt lat="41.102103" lon="-6.743352">
        <ele>277.3</ele>
        <time>1970-01-01T00:00:34.000Z</time>
      </trkpt>
      <trkpt lat="41.102088" lon="-6.743338">
        <ele>277.5</ele>
        <time>1970-01-01T00:00:35.000Z</time>
      </trkpt>
      <trkpt lat="41.102074" lon="-6.743323">
        <ele>277.7</ele>
        <time>1970-01-01T00:00:36.000Z</time>
      </trkpt>
      <trkpt lat="41.10206" lon="-6.743308">
        <ele>277.9</ele>
        <time>1970-01-01T00:00:37.000Z</time>
      </trkpt>
      <trkpt lat="41.102046" lon="-6.743292">
        <ele>278.1</ele>
        <time>1970-01-01T00:00:38.000Z</time>
      </trkpt>
      <trkpt lat="41.102033" lon="-6.743276">
        <ele>278.3</ele>
        <time>1970-01-01T00:00:39.000Z</time>
      </trkpt>
      <trkpt lat="41.10202" lon="-6.74326">
        <ele>278.5</ele>
        <time>1970-01-01T00:00:40.000Z</time>
      </trkpt>
      <trkpt lat="41.102006" lon="-6.743245">
        <ele>278.7</ele>
        <time>1970-01-01T00:00:41.000Z</time>
      </trkpt>
      <trkpt lat="41.101992" lon="-6.743232">
        <ele>279</ele>
        <time>1970-01-01T00:00:42.000Z</time>
      </trkpt>
      <trkpt lat="41.101976" lon="-6.743221">
        <ele>279.2</ele>
        <time>1970-01-01T00:00:43.000Z</time>
      </trkpt>
      <trkpt lat="41.101961" lon="-6.743209">
        <ele>279.5</ele>
        <time>1970-01-01T00:00:44.000Z</time>
      </trkpt>
      <trkpt lat="41.101947" lon="-6.743194">
        <ele>279.8</ele>
        <time>1970-01-01T00:00:45.000Z</time>
      </trkpt>
      <trkpt lat="41.101934" lon="-6.743177">
        <ele>280</ele>
        <time>1970-01-01T00:00:46.000Z</time>
      </trkpt>
      <trkpt lat="41.101922" lon="-6.74316">
        <ele>280.2</ele>
        <time>1970-01-01T00:00:47.000Z</time>
      </trkpt>
      <trkpt lat="41.101909" lon="-6.743144">
        <ele>280.5</ele>
        <time>1970-01-01T00:00:48.000Z</time>
      </trkpt>
      <trkpt lat="41.101896" lon="-6.743129">
        <ele>280.7</ele>
        <time>1970-01-01T00:00:49.000Z</time>
      </trkpt>
      <trkpt lat="41.101883" lon="-6.743112">
        <ele>280.9</ele>
        <time>1970-01-01T00:00:50.000Z</time>
      </trkpt>
      <trkpt lat="41.10187" lon="-6.743094">
        <ele>281.1</ele>
        <time>1970-01-01T00:00:51.000Z</time>
      </trkpt>
      <trkpt lat="41.101857" lon="-6.743075">
        <ele>281.3</ele>
        <time>1970-01-01T00:00:52.000Z</time>
      </trkpt>
      <trkpt lat="41.101845" lon="-6.743056">
        <ele>281.4</ele>
        <time>1970-01-01T00:00:53.000Z</time>
      </trkpt>
      <trkpt lat="41.101832" lon="-6.743037">
        <ele>281.6</ele>
        <time>1970-01-01T00:00:54.000Z</time>
      </trkpt>
      <trkpt lat="41.101821" lon="-6.743017">
        <ele>281.7</ele>
        <time>1970-01-01T00:00:55.000Z</time>
      </trkpt>
      <trkpt lat="41.10181" lon="-6.742997">
        <ele>281.9</ele>
        <time>1970-01-01T00:00:56.000Z</time>
      </trkpt>
      <trkpt lat="41.1018" lon="-6.742975">
        <ele>282</ele>
        <time>1970-01-01T00:00:57.000Z</time>
      </trkpt>
      <trkpt lat="41.10179" lon="-6.742954">
        <ele>282.2</ele>
        <time>1970-01-01T00:00:58.000Z</time>
      </trkpt>
      <trkpt lat="41.10178" lon="-6.742931">
        <ele>282.4</ele>
        <time>1970-01-01T00:00:59.000Z</time>
      </trkpt>
      <trkpt lat="41.10177" lon="-6.742908">
        <ele>282.5</ele>
        <time>1970-01-01T00:01:00.000Z</time>
      </trkpt>
      <trkpt lat="41.10176" lon="-6.742883">
        <ele>282.7</ele>
        <time>1970-01-01T00:01:01.000Z</time>
      </trkpt>
      <trkpt lat="41.101752" lon="-6.742857">
        <ele>282.8</ele>
        <time>1970-01-01T00:01:02.000Z</time>
      </trkpt>
      <trkpt lat="41.101744" lon="-6.74283">
        <ele>283</ele>
        <time>1970-01-01T00:01:03.000Z</time>
      </trkpt>
      <trkpt lat="41.101737" lon="-6.742804">
        <ele>283.1</ele>
        <time>1970-01-01T00:01:04.000Z</time>
      </trkpt>
      <trkpt lat="41.101729" lon="-6.742778">
        <ele>283.2</ele>
        <time>1970-01-01T00:01:05.000Z</time>
      </trkpt>
      <trkpt lat="41.101718" lon="-6.742753">
        <ele>283.3</ele>
        <time>1970-01-01T00:01:06.000Z</time>
      </trkpt>
      <trkpt lat="41.101707" lon="-6.742728">
        <ele>283.4</ele>
        <time>1970-01-01T00:01:07.000Z</time>
      </trkpt>
      <trkpt lat="41.101695" lon="-6.742704">
        <ele>283.5</ele>
        <time>1970-01-01T00:01:08.000Z</time>
      </trkpt>
      <trkpt lat="41.101682" lon="-6.742681">
        <ele>283.6</ele>
        <time>1970-01-01T00:01:09.000Z</time>
      </trkpt>
      <trkpt lat="41.101668" lon="-6.742658">
        <ele>283.7</ele>
        <time>1970-01-01T00:01:10.000Z</time>
      </trkpt>
      <trkpt lat="41.101655" lon="-6.742637">
        <ele>283.9</ele>
        <time>1970-01-01T00:01:11.000Z</time>
      </trkpt>
      <trkpt lat="41.101641" lon="-6.742617">
        <ele>284</ele>
        <time>1970-01-01T00:01:12.000Z</time>
      </trkpt>
      <trkpt lat="41.101627" lon="-6.742597">
        <ele>284.2</ele>
        <time>1970-01-01T00:01:13.000Z</time>
      </trkpt>
      <trkpt lat="41.101611" lon="-6.742579">
        <ele>284.3</ele>
        <time>1970-01-01T00:01:14.000Z</time>
      </trkpt>
      <trkpt lat="41.101595" lon="-6.742562">
        <ele>284.5</ele>
        <time>1970-01-01T00:01:15.000Z</time>
      </trkpt>
      <trkpt lat="41.101576" lon="-6.742546">
        <ele>284.6</ele>
        <time>1970-01-01T00:01:16.000Z</time>
      </trkpt>
      <trkpt lat="41.101556" lon="-6.742531">
        <ele>284.8</ele>
        <time>1970-01-01T00:01:17.000Z</time>
      </trkpt>
      <trkpt lat="41.101535" lon="-6.742516">
        <ele>285</ele>
        <time>1970-01-01T00:01:18.000Z</time>
      </trkpt>
      <trkpt lat="41.101513" lon="-6.742503">
        <ele>285.1</ele>
        <time>1970-01-01T00:01:19.000Z</time>
      </trkpt>
      <trkpt lat="41.101491" lon="-6.74249">
        <ele>285.3</ele>
        <time>1970-01-01T00:01:20.000Z</time>
      </trkpt>
      <trkpt lat="41.10147" lon="-6.742476">
        <ele>285.4</ele>
        <time>1970-01-01T00:01:21.000Z</time>
      </trkpt>
      <trkpt lat="41.101448" lon="-6.742462">
        <ele>285.6</ele>
        <time>1970-01-01T00:01:22.000Z</time>
      </trkpt>
      <trkpt lat="41.101427" lon="-6.742449">
        <ele>285.7</ele>
        <time>1970-01-01T00:01:23.000Z</time>
      </trkpt>
      <trkpt lat="41.101406" lon="-6.742437">
        <ele>285.8</ele>
        <time>1970-01-01T00:01:24.000Z</time>
      </trkpt>
      <trkpt lat="41.101385" lon="-6.742425">
        <ele>285.9</ele>
        <time>1970-01-01T00:01:25.000Z</time>
      </trkpt>
      <trkpt lat="41.101365" lon="-6.742412">
        <ele>286.1</ele>
        <time>1970-01-01T00:01:26.000Z</time>
      </trkpt>
      <trkpt lat="41.101345" lon="-6.742397">
        <ele>286.2</ele>
        <time>1970-01-01T00:01:27.000Z</time>
      </trkpt>
      <trkpt lat="41.101327" lon="-6.74238">
        <ele>286.3</ele>
        <time>1970-01-01T00:01:28.000Z</time>
      </trkpt>
      <trkpt lat="41.101308" lon="-6.742363">
        <ele>286.4</ele>
        <time>1970-01-01T00:01:29.000Z</time>
      </trkpt>
      <trkpt lat="41.10129" lon="-6.742347">
        <ele>286.5</ele>
        <time>1970-01-01T00:01:30.000Z</time>
      </trkpt>
      <trkpt lat="41.101271" lon="-6.74233">
        <ele>286.6</ele>
        <time>1970-01-01T00:01:31.000Z</time>
      </trkpt>
      <trkpt lat="41.101253" lon="-6.742312">
        <ele>286.8</ele>
        <time>1970-01-01T00:01:32.000Z</time>
      </trkpt>
      <trkpt lat="41.101234" lon="-6.742293">
        <ele>286.9</ele>
        <time>1970-01-01T00:01:33.000Z</time>
      </trkpt>
      <trkpt lat="41.101216" lon="-6.742275">
        <ele>287</ele>
        <time>1970-01-01T00:01:34.000Z</time>
      </trkpt>
      <trkpt lat="41.101198" lon="-6.742256">
        <ele>287.1</ele>
        <time>1970-01-01T00:01:35.000Z</time>
      </trkpt>
      <trkpt lat="41.101181" lon="-6.742237">
        <ele>287.2</ele>
        <time>1970-01-01T00:01:36.000Z</time>
      </trkpt>
      <trkpt lat="41.101164" lon="-6.742217">
        <ele>287.3</ele>
        <time>1970-01-01T00:01:37.000Z</time>
      </trkpt>
      <trkpt lat="41.101148" lon="-6.742197">
        <ele>287.4</ele>
        <time>1970-01-01T00:01:38.000Z</time>
      </trkpt>
      <trkpt lat="41.101133" lon="-6.742178">
        <ele>287.5</ele>
        <time>1970-01-01T00:01:39.000Z</time>
      </trkpt>
      <trkpt lat="41.101118" lon="-6.742159">
        <ele>287.6</ele>
        <time>1970-01-01T00:01:40.000Z</time>
      </trkpt>
      <trkpt lat="41.101103" lon="-6.74214">
        <ele>287.7</ele>
        <time>1970-01-01T00:01:41.000Z</time>
      </trkpt>
      <trkpt lat="41.101087" lon="-6.74212">
        <ele>287.9</ele>
        <time>1970-01-01T00:01:42.000Z</time>
      </trkpt>
      <trkpt lat="41.101072" lon="-6.7421">
        <ele>288</ele>
        <time>1970-01-01T00:01:43.000Z</time>
      </trkpt>
      <trkpt lat="41.101058" lon="-6.742081">
        <ele>288.1</ele>
        <time>1970-01-01T00:01:44.000Z</time>
      </trkpt>
      <trkpt lat="41.101045" lon="-6.742062">
        <ele>288.2</ele>
        <time>1970-01-01T00:01:45.000Z</time>
      </trkpt>
      <trkpt lat="41.101032" lon="-6.742043">
        <ele>288.3</ele>
        <time>1970-01-01T00:01:46.000Z</time>
      </trkpt>
      <trkpt lat="41.101018" lon="-6.742024">
        <ele>288.4</ele>
        <time>1970-01-01T00:01:47.000Z</time>
      </trkpt>
      <trkpt lat="41.101003" lon="-6.742005">
        <ele>288.6</ele>
        <time>1970-01-01T00:01:48.000Z</time>
      </trkpt>
      <trkpt lat="41.100987" lon="-6.741987">
        <ele>288.7</ele>
        <time>1970-01-01T00:01:49.000Z</time>
      </trkpt>
      <trkpt lat="41.100971" lon="-6.741969">
        <ele>288.9</ele>
        <time>1970-01-01T00:01:50.000Z</time>
      </trkpt>
      <trkpt lat="41.100953" lon="-6.741951">
        <ele>289</ele>
        <time>1970-01-01T00:01:51.000Z</time>
      </trkpt>
      <trkpt lat="41.100935" lon="-6.741934">
        <ele>289.2</ele>
        <time>1970-01-01T00:01:52.000Z</time>
      </trkpt>
      <trkpt lat="41.100916" lon="-6.741918">
        <ele>289.4</ele>
        <time>1970-01-01T00:01:53.000Z</time>
      </trkpt>
      <trkpt lat="41.100897" lon="-6.741902">
        <ele>289.6</ele>
        <time>1970-01-01T00:01:54.000Z</time>
      </trkpt>
      <trkpt lat="41.100878" lon="-6.741887">
        <ele>289.8</ele>
        <time>1970-01-01T00:01:55.000Z</time>
      </trkpt>
      <trkpt lat="41.100858" lon="-6.741874">
        <ele>290</ele>
        <time>1970-01-01T00:01:56.000Z</time>
      </trkpt>
      <trkpt lat="41.100839" lon="-6.741861">
        <ele>290.2</ele>
        <time>1970-01-01T00:01:57.000Z</time>
      </trkpt>
      <trkpt lat="41.10082" lon="-6.741848">
        <ele>290.5</ele>
        <time>1970-01-01T00:01:58.000Z</time>
      </trkpt>
      <trkpt lat="41.100802" lon="-6.741835">
        <ele>290.7</ele>
        <time>1970-01-01T00:01:59.000Z</time>
      </trkpt>
      <trkpt lat="41.100784" lon="-6.741822">
        <ele>290.9</ele>
        <time>1970-01-01T00:02:00.000Z</time>
      </trkpt>
      <trkpt lat="41.100765" lon="-6.741809">
        <ele>291.1</ele>
        <time>1970-01-01T00:02:01.000Z</time>
      </trkpt>
      <trkpt lat="41.100746" lon="-6.741796">
        <ele>291.3</ele>
        <time>1970-01-01T00:02:02.000Z</time>
      </trkpt>
      <trkpt lat="41.100728" lon="-6.741781">
        <ele>291.5</ele>
        <time>1970-01-01T00:02:03.000Z</time>
      </trkpt>
      <trkpt lat="41.10071" lon="-6.741766">
        <ele>291.8</ele>
        <time>1970-01-01T00:02:04.000Z</time>
      </trkpt>
      <trkpt lat="41.100692" lon="-6.741751">
        <ele>292</ele>
        <time>1970-01-01T00:02:05.000Z</time>
      </trkpt>
      <trkpt lat="41.100674" lon="-6.741735">
        <ele>292.2</ele>
        <time>1970-01-01T00:02:06.000Z</time>
      </trkpt>
      <trkpt lat="41.100657" lon="-6.74172">
        <ele>292.5</ele>
        <time>1970-01-01T00:02:07.000Z</time>
      </trkpt>
      <trkpt lat="41.10064" lon="-6.741705">
        <ele>292.7</ele>
        <time>1970-01-01T00:02:08.000Z</time>
      </trkpt>
      <trkpt lat="41.100622" lon="-6.741691">
        <ele>292.9</ele>
        <time>1970-01-01T00:02:09.000Z</time>
      </trkpt>
      <trkpt lat="41.100605" lon="-6.741676">
        <ele>293.1</ele>
        <time>1970-01-01T00:02:10.000Z</time>
      </trkpt>
      <trkpt lat="41.100588" lon="-6.741661">
        <ele>293.3</ele>
        <time>1970-01-01T00:02:11.000Z</time>
      </trkpt>
      <trkpt lat="41.100571" lon="-6.741646">
        <ele>293.4</ele>
        <time>1970-01-01T00:02:12.000Z</time>
      </trkpt>
      <trkpt lat="41.100556" lon="-6.74163">
        <ele>293.6</ele>
        <time>1970-01-01T00:02:13.000Z</time>
      </trkpt>
      <trkpt lat="41.100541" lon="-6.741613">
        <ele>293.8</ele>
        <time>1970-01-01T00:02:14.000Z</time>
      </trkpt>
      <trkpt lat="41.100525" lon="-6.741598">
        <ele>294</ele>
        <time>1970-01-01T00:02:15.000Z</time>
      </trkpt>
      <trkpt lat="41.100508" lon="-6.741585">
        <ele>294.1</ele>
        <time>1970-01-01T00:02:16.000Z</time>
      </trkpt>
      <trkpt lat="41.10049" lon="-6.741574">
        <ele>294.3</ele>
        <time>1970-01-01T00:02:17.000Z</time>
      </trkpt>
      <trkpt lat="41.100472" lon="-6.741563">
        <ele>294.5</ele>
        <time>1970-01-01T00:02:18.000Z</time>
      </trkpt>
      <trkpt lat="41.100454" lon="-6.74155">
        <ele>294.7</ele>
        <time>1970-01-01T00:02:19.000Z</time>
      </trkpt>
      <trkpt lat="41.100438" lon="-6.741536">
        <ele>294.9</ele>
        <time>1970-01-01T00:02:20.000Z</time>
      </trkpt>
      <trkpt lat="41.100422" lon="-6.741522">
        <ele>295</ele>
        <time>1970-01-01T00:02:21.000Z</time>
      </trkpt>
      <trkpt lat="41.100406" lon="-6.741508">
        <ele>295.2</ele>
        <time>1970-01-01T00:02:22.000Z</time>
      </trkpt>
      <trkpt lat="41.10039" lon="-6.741495">
        <ele>295.4</ele>
        <time>1970-01-01T00:02:23.000Z</time>
      </trkpt>
      <trkpt lat="41.100375" lon="-6.741481">
        <ele>295.6</ele>
        <time>1970-01-01T00:02:24.000Z</time>
      </trkpt>
      <trkpt lat="41.100361" lon="-6.741467">
        <ele>295.8</ele>
        <time>1970-01-01T00:02:25.000Z</time>
      </trkpt>
      <trkpt lat="41.100347" lon="-6.741453">
        <ele>295.9</ele>
        <time>1970-01-01T00:02:26.000Z</time>
      </trkpt>
      <trkpt lat="41.100334" lon="-6.741439">
        <ele>296.1</ele>
        <time>1970-01-01T00:02:27.000Z</time>
      </trkpt>
      <trkpt lat="41.10032" lon="-6.741425">
        <ele>296.3</ele>
        <time>1970-01-01T00:02:28.000Z</time>
      </trkpt>
      <trkpt lat="41.100306" lon="-6.741412">
        <ele>296.5</ele>
        <time>1970-01-01T00:02:29.000Z</time>
      </trkpt>
      <trkpt lat="41.100292" lon="-6.741399">
        <ele>296.7</ele>
        <time>1970-01-01T00:02:30.000Z</time>
      </trkpt>
      <trkpt lat="41.100279" lon="-6.741386">
        <ele>296.8</ele>
        <time>1970-01-01T00:02:31.000Z</time>
      </trkpt>
      <trkpt lat="41.100267" lon="-6.74137">
        <ele>297</ele>
        <time>1970-01-01T00:02:32.000Z</time>
      </trkpt>
      <trkpt lat="41.100255" lon="-6.741355">
        <ele>297.2</ele>
        <time>1970-01-01T00:02:33.000Z</time>
      </trkpt>
      <trkpt lat="41.100243" lon="-6.741341">
        <ele>297.4</ele>
        <time>1970-01-01T00:02:34.000Z</time>
      </trkpt>
      <trkpt lat="41.100231" lon="-6.741328">
        <ele>297.6</ele>
        <time>1970-01-01T00:02:35.000Z</time>
      </trkpt>
      <trkpt lat="41.100218" lon="-6.741315">
        <ele>297.8</ele>
        <time>1970-01-01T00:02:36.000Z</time>
      </trkpt>
      <trkpt lat="41.100206" lon="-6.741303">
        <ele>297.9</ele>
        <time>1970-01-01T00:02:37.000Z</time>
      </trkpt>
      <trkpt lat="41.100194" lon="-6.741289">
        <ele>298.1</ele>
        <time>1970-01-01T00:02:38.000Z</time>
      </trkpt>
      <trkpt lat="41.100182" lon="-6.741276">
        <ele>298.3</ele>
        <time>1970-01-01T00:02:39.000Z</time>
      </trkpt>
      <trkpt lat="41.10017" lon="-6.741261">
        <ele>298.5</ele>
        <time>1970-01-01T00:02:40.000Z</time>
      </trkpt>
      <trkpt lat="41.100157" lon="-6.741247">
        <ele>298.7</ele>
        <time>1970-01-01T00:02:41.000Z</time>
      </trkpt>
      <trkpt lat="41.100144" lon="-6.741232">
        <ele>298.9</ele>
        <time>1970-01-01T00:02:42.000Z</time>
      </trkpt>
      <trkpt lat="41.100132" lon="-6.741217">
        <ele>299.1</ele>
        <time>1970-01-01T00:02:43.000Z</time>
      </trkpt>
      <trkpt lat="41.100119" lon="-6.741202">
        <ele>299.3</ele>
        <time>1970-01-01T00:02:44.000Z</time>
      </trkpt>
      <trkpt lat="41.100107" lon="-6.741186">
        <ele>299.6</ele>
        <time>1970-01-01T00:02:45.000Z</time>
      </trkpt>
      <trkpt lat="41.100095" lon="-6.74117">
        <ele>299.8</ele>
        <time>1970-01-01T00:02:46.000Z</time>
      </trkpt>
      <trkpt lat="41.100082" lon="-6.741155">
        <ele>300</ele>
        <time>1970-01-01T00:02:47.000Z</time>
      </trkpt>
      <trkpt lat="41.100069" lon="-6.741142">
        <ele>300.2</ele>
        <time>1970-01-01T00:02:48.000Z</time>
      </trkpt>
      <trkpt lat="41.100055" lon="-6.741129">
        <ele>300.4</ele>
        <time>1970-01-01T00:02:49.000Z</time>
      </trkpt>
      <trkpt lat="41.100041" lon="-6.741116">
        <ele>300.6</ele>
        <time>1970-01-01T00:02:50.000Z</time>
      </trkpt>
      <trkpt lat="41.100027" lon="-6.741103">
        <ele>300.9</ele>
        <time>1970-01-01T00:02:51.000Z</time>
      </trkpt>
      <trkpt lat="41.100013" lon="-6.74109">
        <ele>301.1</ele>
        <time>1970-01-01T00:02:52.000Z</time>
      </trkpt>
      <trkpt lat="41.099999" lon="-6.741077">
        <ele>301.4</ele>
        <time>1970-01-01T00:02:53.000Z</time>
      </trkpt>
      <trkpt lat="41.099985" lon="-6.741064">
        <ele>301.6</ele>
        <time>1970-01-01T00:02:54.000Z</time>
      </trkpt>
      <trkpt lat="41.099971" lon="-6.74105">
        <ele>301.9</ele>
        <time>1970-01-01T00:02:55.000Z</time>
      </trkpt>
      <trkpt lat="41.099957" lon="-6.741036">
        <ele>302.1</ele>
        <time>1970-01-01T00:02:56.000Z</time>
      </trkpt>
      <trkpt lat="41.099945" lon="-6.741022">
        <ele>302.3</ele>
        <time>1970-01-01T00:02:57.000Z</time>
      </trkpt>
      <trkpt lat="41.099933" lon="-6.741008">
        <ele>302.6</ele>
        <time>1970-01-01T00:02:58.000Z</time>
      </trkpt>
      <trkpt lat="41.099922" lon="-6.740995">
        <ele>302.8</ele>
        <time>1970-01-01T00:02:59.000Z</time>
      </trkpt>
      <trkpt lat="41.099913" lon="-6.740979">
        <ele>303</ele>
        <time>1970-01-01T00:03:00.000Z</time>
      </trkpt>
      <trkpt lat="41.099902" lon="-6.740963">
        <ele>303.2</ele>
        <time>1970-01-01T00:03:01.000Z</time>
      </trkpt>
      <trkpt lat="41.099889" lon="-6.740948">
        <ele>303.5</ele>
        <time>1970-01-01T00:03:02.000Z</time>
      </trkpt>
      <trkpt lat="41.099873" lon="-6.740935">
        <ele>303.7</ele>
        <time>1970-01-01T00:03:03.000Z</time>
      </trkpt>
      <trkpt lat="41.099858" lon="-6.740925">
        <ele>303.9</ele>
        <time>1970-01-01T00:03:04.000Z</time>
      </trkpt>
      <trkpt lat="41.099841" lon="-6.740916">
        <ele>304.1</ele>
        <time>1970-01-01T00:03:05.000Z</time>
      </trkpt>
      <trkpt lat="41.099824" lon="-6.740908">
        <ele>304.3</ele>
        <time>1970-01-01T00:03:06.000Z</time>
      </trkpt>
      <trkpt lat="41.099807" lon="-6.7409">
        <ele>304.6</ele>
        <time>1970-01-01T00:03:07.000Z</time>
      </trkpt>
      <trkpt lat="41.099791" lon="-6.74089">
        <ele>304.8</ele>
        <time>1970-01-01T00:03:08.000Z</time>
      </trkpt>
      <trkpt lat="41.099776" lon="-6.740879">
        <ele>304.9</ele>
        <time>1970-01-01T00:03:09.000Z</time>
      </trkpt>
      <trkpt lat="41.099762" lon="-6.740865">
        <ele>305.1</ele>
        <time>1970-01-01T00:03:10.000Z</time>
      </trkpt>
      <trkpt lat="41.099748" lon="-6.740851">
        <ele>305.3</ele>
        <time>1970-01-01T00:03:11.000Z</time>
      </trkpt>
      <trkpt lat="41.099735" lon="-6.740837">
        <ele>305.5</ele>
        <time>1970-01-01T00:03:12.000Z</time>
      </trkpt>
      <trkpt lat="41.099721" lon="-6.740823">
        <ele>305.7</ele>
        <time>1970-01-01T00:03:13.000Z</time>
      </trkpt>
      <trkpt lat="41.099707" lon="-6.740809">
        <ele>305.9</ele>
        <time>1970-01-01T00:03:14.000Z</time>
      </trkpt>
      <trkpt lat="41.099692" lon="-6.740796">
        <ele>306.1</ele>
        <time>1970-01-01T00:03:15.000Z</time>
      </trkpt>
      <trkpt lat="41.099677" lon="-6.740782">
        <ele>306.3</ele>
        <time>1970-01-01T00:03:16.000Z</time>
      </trkpt>
      <trkpt lat="41.099662" lon="-6.740767">
        <ele>306.6</ele>
        <time>1970-01-01T00:03:17.000Z</time>
      </trkpt>
      <trkpt lat="41.099648" lon="-6.740752">
        <ele>306.8</ele>
        <time>1970-01-01T00:03:18.000Z</time>
      </trkpt>
      <trkpt lat="41.099633" lon="-6.740737">
        <ele>307</ele>
        <time>1970-01-01T00:03:19.000Z</time>
      </trkpt>
      <trkpt lat="41.099619" lon="-6.740722">
        <ele>307.2</ele>
        <time>1970-01-01T00:03:20.000Z</time>
      </trkpt>
      <trkpt lat="41.099606" lon="-6.740707">
        <ele>307.3</ele>
        <time>1970-01-01T00:03:21.000Z</time>
      </trkpt>
      <trkpt lat="41.099593" lon="-6.740691">
        <ele>307.5</ele>
        <time>1970-01-01T00:03:22.000Z</time>
      </trkpt>
      <trkpt lat="41.09958" lon="-6.740675">
        <ele>307.7</ele>
        <time>1970-01-01T00:03:23.000Z</time>
      </trkpt>
      <trkpt lat="41.099568" lon="-6.740659">
        <ele>307.9</ele>
        <time>1970-01-01T00:03:24.000Z</time>
      </trkpt>
      <trkpt lat="41.099555" lon="-6.740643">
        <ele>308.1</ele>
        <time>1970-01-01T00:03:25.000Z</time>
      </trkpt>
      <trkpt lat="41.099544" lon="-6.740627">
        <ele>308.3</ele>
        <time>1970-01-01T00:03:26.000Z</time>
      </trkpt>
      <trkpt lat="41.099531" lon="-6.740612">
        <ele>308.5</ele>
        <time>1970-01-01T00:03:27.000Z</time>
      </trkpt>
      <trkpt lat="41.09952" lon="-6.740596">
        <ele>308.7</ele>
        <time>1970-01-01T00:03:28.000Z</time>
      </trkpt>
      <trkpt lat="41.099509" lon="-6.740578">
        <ele>308.9</ele>
        <time>1970-01-01T00:03:29.000Z</time>
      </trkpt>
      <trkpt lat="41.099499" lon="-6.74056">
        <ele>309.1</ele>
        <time>1970-01-01T00:03:30.000Z</time>
      </trkpt>
      <trkpt lat="41.099489" lon="-6.74054">
        <ele>309.3</ele>
        <time>1970-01-01T00:03:31.000Z</time>
      </trkpt>
      <trkpt lat="41.099478" lon="-6.740522">
        <ele>309.5</ele>
        <time>1970-01-01T00:03:32.000Z</time>
      </trkpt>
      <trkpt lat="41.099467" lon="-6.740504">
        <ele>309.7</ele>
        <time>1970-01-01T00:03:33.000Z</time>
      </trkpt>
      <trkpt lat="41.099456" lon="-6.740486">
        <ele>309.9</ele>
        <time>1970-01-01T00:03:34.000Z</time>
      </trkpt>
      <trkpt lat="41.099445" lon="-6.740468">
        <ele>310.1</ele>
        <time>1970-01-01T00:03:35.000Z</time>
      </trkpt>
      <trkpt lat="41.099436" lon="-6.74045">
        <ele>310.3</ele>
        <time>1970-01-01T00:03:36.000Z</time>
      </trkpt>
      <trkpt lat="41.099427" lon="-6.740431">
        <ele>310.5</ele>
        <time>1970-01-01T00:03:37.000Z</time>
      </trkpt>
      <trkpt lat="41.099419" lon="-6.740412">
        <ele>310.7</ele>
        <time>1970-01-01T00:03:38.000Z</time>
      </trkpt>
      <trkpt lat="41.09941" lon="-6.740392">
        <ele>310.9</ele>
        <time>1970-01-01T00:03:39.000Z</time>
      </trkpt>
      <trkpt lat="41.099401" lon="-6.740374">
        <ele>311.1</ele>
        <time>1970-01-01T00:03:40.000Z</time>
      </trkpt>
      <trkpt lat="41.09939" lon="-6.740356">
        <ele>311.3</ele>
        <time>1970-01-01T00:03:41.000Z</time>
      </trkpt>
      <trkpt lat="41.099378" lon="-6.74034">
        <ele>311.5</ele>
        <time>1970-01-01T00:03:42.000Z</time>
      </trkpt>
      <trkpt lat="41.099366" lon="-6.740324">
        <ele>311.7</ele>
        <time>1970-01-01T00:03:43.000Z</time>
      </trkpt>
      <trkpt lat="41.099355" lon="-6.740307">
        <ele>311.9</ele>
        <time>1970-01-01T00:03:44.000Z</time>
      </trkpt>
      <trkpt lat="41.099344" lon="-6.740289">
        <ele>312.1</ele>
        <time>1970-01-01T00:03:45.000Z</time>
      </trkpt>
      <trkpt lat="41.099334" lon="-6.740272">
        <ele>312.3</ele>
        <time>1970-01-01T00:03:46.000Z</time>
      </trkpt>
      <trkpt lat="41.099324" lon="-6.740253">
        <ele>312.5</ele>
        <time>1970-01-01T00:03:47.000Z</time>
      </trkpt>
      <trkpt lat="41.099313" lon="-6.740235">
        <ele>312.7</ele>
        <time>1970-01-01T00:03:48.000Z</time>
      </trkpt>
      <trkpt lat="41.099303" lon="-6.740216">
        <ele>312.9</ele>
        <time>1970-01-01T00:03:49.000Z</time>
      </trkpt>
      <trkpt lat="41.099293" lon="-6.740198">
        <ele>313.1</ele>
        <time>1970-01-01T00:03:50.000Z</time>
      </trkpt>
      <trkpt lat="41.099282" lon="-6.74018">
        <ele>313.3</ele>
        <time>1970-01-01T00:03:51.000Z</time>
      </trkpt>
      <trkpt lat="41.099272" lon="-6.740162">
        <ele>313.5</ele>
        <time>1970-01-01T00:03:52.000Z</time>
      </trkpt>
      <trkpt lat="41.099261" lon="-6.740142">
        <ele>313.7</ele>
        <time>1970-01-01T00:03:53.000Z</time>
      </trkpt>
      <trkpt lat="41.099252" lon="-6.740124">
        <ele>313.9</ele>
        <time>1970-01-01T00:03:54.000Z</time>
      </trkpt>
      <trkpt lat="41.099242" lon="-6.740105">
        <ele>314.2</ele>
        <time>1970-01-01T00:03:55.000Z</time>
      </trkpt>
      <trkpt lat="41.099233" lon="-6.740086">
        <ele>314.4</ele>
        <time>1970-01-01T00:03:56.000Z</time>
      </trkpt>
      <trkpt lat="41.099223" lon="-6.740067">
        <ele>314.6</ele>
        <time>1970-01-01T00:03:57.000Z</time>
      </trkpt>
      <trkpt lat="41.099213" lon="-6.740047">
        <ele>314.8</ele>
        <time>1970-01-01T00:03:58.000Z</time>
      </trkpt>
      <trkpt lat="41.099204" lon="-6.740029">
        <ele>315</ele>
        <time>1970-01-01T00:03:59.000Z</time>
      </trkpt>
      <trkpt lat="41.099195" lon="-6.74001">
        <ele>315.2</ele>
        <time>1970-01-01T00:04:00.000Z</time>
      </trkpt>
      <trkpt lat="41.099185" lon="-6.739992">
        <ele>315.4</ele>
        <time>1970-01-01T00:04:01.000Z</time>
      </trkpt>
      <trkpt lat="41.099175" lon="-6.739974">
        <ele>315.6</ele>
        <time>1970-01-01T00:04:02.000Z</time>
      </trkpt>
      <trkpt lat="41.099165" lon="-6.739955">
        <ele>315.8</ele>
        <time>1970-01-01T00:04:03.000Z</time>
      </trkpt>
      <trkpt lat="41.099155" lon="-6.739937">
        <ele>316</ele>
        <time>1970-01-01T00:04:04.000Z</time>
      </trkpt>
      <trkpt lat="41.099145" lon="-6.73992">
        <ele>316.2</ele>
        <time>1970-01-01T00:04:05.000Z</time>
      </trkpt>
      <trkpt lat="41.099135" lon="-6.739902">
        <ele>316.4</ele>
        <time>1970-01-01T00:04:06.000Z</time>
      </trkpt>
      <trkpt lat="41.099125" lon="-6.739884">
        <ele>316.6</ele>
        <time>1970-01-01T00:04:07.000Z</time>
      </trkpt>
      <trkpt lat="41.099116" lon="-6.739866">
        <ele>316.7</ele>
        <time>1970-01-01T00:04:08.000Z</time>
      </trkpt>
      <trkpt lat="41.099105" lon="-6.739847">
        <ele>317</ele>
        <time>1970-01-01T00:04:09.000Z</time>
      </trkpt>
      <trkpt lat="41.099094" lon="-6.739829">
        <ele>317.2</ele>
        <time>1970-01-01T00:04:10.000Z</time>
      </trkpt>
      <trkpt lat="41.099083" lon="-6.739811">
        <ele>317.4</ele>
        <time>1970-01-01T00:04:11.000Z</time>
      </trkpt>
      <trkpt lat="41.099073" lon="-6.739794">
        <ele>317.6</ele>
        <time>1970-01-01T00:04:12.000Z</time>
      </trkpt>
      <trkpt lat="41.099064" lon="-6.739776">
        <ele>317.8</ele>
        <time>1970-01-01T00:04:13.000Z</time>
      </trkpt>
      <trkpt lat="41.099054" lon="-6.739758">
        <ele>318</ele>
        <time>1970-01-01T00:04:14.000Z</time>
      </trkpt>
      <trkpt lat="41.099043" lon="-6.739741">
        <ele>318.2</ele>
        <time>1970-01-01T00:04:15.000Z</time>
      </trkpt>
      <trkpt lat="41.099032" lon="-6.739724">
        <ele>318.4</ele>
        <time>1970-01-01T00:04:16.000Z</time>
      </trkpt>
      <trkpt lat="41.09902" lon="-6.739708">
        <ele>318.6</ele>
        <time>1970-01-01T00:04:17.000Z</time>
      </trkpt>
      <trkpt lat="41.099009" lon="-6.739692">
        <ele>318.8</ele>
        <time>1970-01-01T00:04:18.000Z</time>
      </trkpt>
      <trkpt lat="41.098998" lon="-6.739675">
        <ele>319</ele>
        <time>1970-01-01T00:04:19.000Z</time>
      </trkpt>
      <trkpt lat="41.098986" lon="-6.739658">
        <ele>319.2</ele>
        <time>1970-01-01T00:04:20.000Z</time>
      </trkpt>
      <trkpt lat="41.098975" lon="-6.739643">
        <ele>319.4</ele>
        <time>1970-01-01T00:04:21.000Z</time>
      </trkpt>
      <trkpt lat="41.098964" lon="-6.739627">
        <ele>319.6</ele>
        <time>1970-01-01T00:04:22.000Z</time>
      </trkpt>
      <trkpt lat="41.098954" lon="-6.739611">
        <ele>319.9</ele>
        <time>1970-01-01T00:04:23.000Z</time>
      </trkpt>
      <trkpt lat="41.098945" lon="-6.739593">
        <ele>320.1</ele>
        <time>1970-01-01T00:04:24.000Z</time>
      </trkpt>
      <trkpt lat="41.098936" lon="-6.739575">
        <ele>320.3</ele>
        <time>1970-01-01T00:04:25.000Z</time>
      </trkpt>
      <trkpt lat="41.098926" lon="-6.739558">
        <ele>320.4</ele>
        <time>1970-01-01T00:04:26.000Z</time>
      </trkpt>
      <trkpt lat="41.098916" lon="-6.739541">
        <ele>320.6</ele>
        <time>1970-01-01T00:04:27.000Z</time>
      </trkpt>
      <trkpt lat="41.098906" lon="-6.739524">
        <ele>320.7</ele>
        <time>1970-01-01T00:04:28.000Z</time>
      </trkpt>
      <trkpt lat="41.098897" lon="-6.739507">
        <ele>320.8</ele>
        <time>1970-01-01T00:04:29.000Z</time>
      </trkpt>
      <trkpt lat="41.098887" lon="-6.73949">
        <ele>321</ele>
        <time>1970-01-01T00:04:30.000Z</time>
      </trkpt>
      <trkpt lat="41.098876" lon="-6.739472">
        <ele>321.1</ele>
        <time>1970-01-01T00:04:31.000Z</time>
      </trkpt>
      <trkpt lat="41.098865" lon="-6.739454">
        <ele>321.3</ele>
        <time>1970-01-01T00:04:32.000Z</time>
      </trkpt>
      <trkpt lat="41.098854" lon="-6.739436">
        <ele>321.5</ele>
        <time>1970-01-01T00:04:33.000Z</time>
      </trkpt>
      <trkpt lat="41.098843" lon="-6.739418">
        <ele>321.6</ele>
        <time>1970-01-01T00:04:34.000Z</time>
      </trkpt>
      <trkpt lat="41.098831" lon="-6.739401">
        <ele>321.8</ele>
        <time>1970-01-01T00:04:35.000Z</time>
      </trkpt>
      <trkpt lat="41.098819" lon="-6.739384">
        <ele>322</ele>
        <time>1970-01-01T00:04:36.000Z</time>
      </trkpt>
      <trkpt lat="41.098808" lon="-6.739367">
        <ele>322.1</ele>
        <time>1970-01-01T00:04:37.000Z</time>
      </trkpt>
      <trkpt lat="41.098798" lon="-6.739349">
        <ele>322.3</ele>
        <time>1970-01-01T00:04:38.000Z</time>
      </trkpt>
      <trkpt lat="41.098788" lon="-6.73933">
        <ele>322.5</ele>
        <time>1970-01-01T00:04:39.000Z</time>
      </trkpt>
      <trkpt lat="41.098777" lon="-6.739311">
        <ele>322.7</ele>
        <time>1970-01-01T00:04:40.000Z</time>
      </trkpt>
      <trkpt lat="41.098767" lon="-6.739291">
        <ele>322.9</ele>
        <time>1970-01-01T00:04:41.000Z</time>
      </trkpt>
      <trkpt lat="41.098758" lon="-6.739272">
        <ele>323</ele>
        <time>1970-01-01T00:04:42.000Z</time>
      </trkpt>
      <trkpt lat="41.098748" lon="-6.739252">
        <ele>323.2</ele>
        <time>1970-01-01T00:04:43.000Z</time>
      </trkpt>
      <trkpt lat="41.098737" lon="-6.739233">
        <ele>323.4</ele>
        <time>1970-01-01T00:04:44.000Z</time>
      </trkpt>
      <trkpt lat="41.098726" lon="-6.739214">
        <ele>323.6</ele>
        <time>1970-01-01T00:04:45.000Z</time>
      </trkpt>
      <trkpt lat="41.098715" lon="-6.739195">
        <ele>323.8</ele>
        <time>1970-01-01T00:04:46.000Z</time>
      </trkpt>
      <trkpt lat="41.098704" lon="-6.739177">
        <ele>324</ele>
        <time>1970-01-01T00:04:47.000Z</time>
      </trkpt>
      <trkpt lat="41.098694" lon="-6.739159">
        <ele>324.2</ele>
        <time>1970-01-01T00:04:48.000Z</time>
      </trkpt>
      <trkpt lat="41.098685" lon="-6.73914">
        <ele>324.3</ele>
        <time>1970-01-01T00:04:49.000Z</time>
      </trkpt>
      <trkpt lat="41.098677" lon="-6.739121">
        <ele>324.5</ele>
        <time>1970-01-01T00:04:50.000Z</time>
      </trkpt>
      <trkpt lat="41.098669" lon="-6.739102">
        <ele>324.6</ele>
        <time>1970-01-01T00:04:51.000Z</time>
      </trkpt>
      <trkpt lat="41.098662" lon="-6.739084">
        <ele>324.8</ele>
        <time>1970-01-01T00:04:52.000Z</time>
      </trkpt>
      <trkpt lat="41.098653" lon="-6.739067">
        <ele>324.9</ele>
        <time>1970-01-01T00:04:53.000Z</time>
      </trkpt>
      <trkpt lat="41.098643" lon="-6.739051">
        <ele>325</ele>
        <time>1970-01-01T00:04:54.000Z</time>
      </trkpt>
      <trkpt lat="41.098632" lon="-6.739034">
        <ele>325.2</ele>
        <time>1970-01-01T00:04:55.000Z</time>
      </trkpt>
      <trkpt lat="41.098621" lon="-6.739014">
        <ele>325.4</ele>
        <time>1970-01-01T00:04:56.000Z</time>
      </trkpt>
      <trkpt lat="41.098612" lon="-6.738994">
        <ele>325.5</ele>
        <time>1970-01-01T00:04:57.000Z</time>
      </trkpt>
      <trkpt lat="41.098604" lon="-6.738972">
        <ele>325.7</ele>
        <time>1970-01-01T00:04:58.000Z</time>
      </trkpt>
      <trkpt lat="41.098597" lon="-6.738951">
        <ele>325.8</ele>
        <time>1970-01-01T00:04:59.000Z</time>
      </trkpt>
      <trkpt lat="41.098589" lon="-6.73893">
        <ele>326</ele>
        <time>1970-01-01T00:05:00.000Z</time>
      </trkpt>
      <trkpt lat="41.09858" lon="-6.73891">
        <ele>326.1</ele>
        <time>1970-01-01T00:05:01.000Z</time>
      </trkpt>
      <trkpt lat="41.098571" lon="-6.738893">
        <ele>326.3</ele>
        <time>1970-01-01T00:05:02.000Z</time>
      </trkpt>
      <trkpt lat="41.098561" lon="-6.738875">
        <ele>326.4</ele>
        <time>1970-01-01T00:05:03.000Z</time>
      </trkpt>
      <trkpt lat="41.098548" lon="-6.738858">
        <ele>326.6</ele>
        <time>1970-01-01T00:05:04.000Z</time>
      </trkpt>
      <trkpt lat="41.098533" lon="-6.73884">
        <ele>326.8</ele>
        <time>1970-01-01T00:05:05.000Z</time>
      </trkpt>
      <trkpt lat="41.098518" lon="-6.738824">
        <ele>326.9</ele>
        <time>1970-01-01T00:05:06.000Z</time>
      </trkpt>
      <trkpt lat="41.098504" lon="-6.738807">
        <ele>327.1</ele>
        <time>1970-01-01T00:05:07.000Z</time>
      </trkpt>
      <trkpt lat="41.098492" lon="-6.73879">
        <ele>327.3</ele>
        <time>1970-01-01T00:05:08.000Z</time>
      </trkpt>
      <trkpt lat="41.098479" lon="-6.738772">
        <ele>327.5</ele>
        <time>1970-01-01T00:05:09.000Z</time>
      </trkpt>
      <trkpt lat="41.098467" lon="-6.738754">
        <ele>327.6</ele>
        <time>1970-01-01T00:05:10.000Z</time>
      </trkpt>
      <trkpt lat="41.098455" lon="-6.738736">
        <ele>327.8</ele>
        <time>1970-01-01T00:05:11.000Z</time>
      </trkpt>
      <trkpt lat="41.098444" lon="-6.738717">
        <ele>327.9</ele>
        <time>1970-01-01T00:05:12.000Z</time>
      </trkpt>
      <trkpt lat="41.098434" lon="-6.7387">
        <ele>328.1</ele>
        <time>1970-01-01T00:05:13.000Z</time>
      </trkpt>
      <trkpt lat="41.098424" lon="-6.738682">
        <ele>328.2</ele>
        <time>1970-01-01T00:05:14.000Z</time>
      </trkpt>
      <trkpt lat="41.098411" lon="-6.738667">
        <ele>328.3</ele>
        <time>1970-01-01T00:05:15.000Z</time>
      </trkpt>
      <trkpt lat="41.098397" lon="-6.738652">
        <ele>328.4</ele>
        <time>1970-01-01T00:05:16.000Z</time>
      </trkpt>
      <trkpt lat="41.098381" lon="-6.738639">
        <ele>328.6</ele>
        <time>1970-01-01T00:05:17.000Z</time>
      </trkpt>
      <trkpt lat="41.098365" lon="-6.738628">
        <ele>328.7</ele>
        <time>1970-01-01T00:05:18.000Z</time>
      </trkpt>
      <trkpt lat="41.098348" lon="-6.738617">
        <ele>328.8</ele>
        <time>1970-01-01T00:05:19.000Z</time>
      </trkpt>
      <trkpt lat="41.098332" lon="-6.738606">
        <ele>329</ele>
        <time>1970-01-01T00:05:20.000Z</time>
      </trkpt>
      <trkpt lat="41.098316" lon="-6.738593">
        <ele>329.1</ele>
        <time>1970-01-01T00:05:21.000Z</time>
      </trkpt>
      <trkpt lat="41.098301" lon="-6.738578">
        <ele>329.2</ele>
        <time>1970-01-01T00:05:22.000Z</time>
      </trkpt>
      <trkpt lat="41.098287" lon="-6.738563">
        <ele>329.3</ele>
        <time>1970-01-01T00:05:23.000Z</time>
      </trkpt>
      <trkpt lat="41.098273" lon="-6.738548">
        <ele>329.5</ele>
        <time>1970-01-01T00:05:24.000Z</time>
      </trkpt>
      <trkpt lat="41.09826" lon="-6.738532">
        <ele>329.6</ele>
        <time>1970-01-01T00:05:25.000Z</time>
      </trkpt>
      <trkpt lat="41.098246" lon="-6.738517">
        <ele>329.7</ele>
        <time>1970-01-01T00:05:26.000Z</time>
      </trkpt>
      <trkpt lat="41.098232" lon="-6.738502">
        <ele>329.9</ele>
        <time>1970-01-01T00:05:27.000Z</time>
      </trkpt>
      <trkpt lat="41.098217" lon="-6.738488">
        <ele>330</ele>
        <time>1970-01-01T00:05:28.000Z</time>
      </trkpt>
      <trkpt lat="41.098202" lon="-6.738475">
        <ele>330.1</ele>
        <time>1970-01-01T00:05:29.000Z</time>
      </trkpt>
      <trkpt lat="41.098188" lon="-6.738462">
        <ele>330.3</ele>
        <time>1970-01-01T00:05:30.000Z</time>
      </trkpt>
      <trkpt lat="41.098174" lon="-6.738446">
        <ele>330.4</ele>
        <time>1970-01-01T00:05:31.000Z</time>
      </trkpt>
      <trkpt lat="41.098162" lon="-6.73843">
        <ele>330.6</ele>
        <time>1970-01-01T00:05:32.000Z</time>
      </trkpt>
      <trkpt lat="41.098149" lon="-6.738412">
        <ele>330.7</ele>
        <time>1970-01-01T00:05:33.000Z</time>
      </trkpt>
      <trkpt lat="41.098134" lon="-6.738396">
        <ele>330.9</ele>
        <time>1970-01-01T00:05:34.000Z</time>
      </trkpt>
      <trkpt lat="41.098117" lon="-6.73838">
        <ele>331</ele>
        <time>1970-01-01T00:05:35.000Z</time>
      </trkpt>
      <trkpt lat="41.098099" lon="-6.738363">
        <ele>331.2</ele>
        <time>1970-01-01T00:05:36.000Z</time>
      </trkpt>
      <trkpt lat="41.09808" lon="-6.738346">
        <ele>331.4</ele>
        <time>1970-01-01T00:05:37.000Z</time>
      </trkpt>
      <trkpt lat="41.098062" lon="-6.73833">
        <ele>331.6</ele>
        <time>1970-01-01T00:05:38.000Z</time>
      </trkpt>
      <trkpt lat="41.098047" lon="-6.738317">
        <ele>331.8</ele>
        <time>1970-01-01T00:05:39.000Z</time>
      </trkpt>
      <trkpt lat="41.098036" lon="-6.738308">
        <ele>331.9</ele>
        <time>1970-01-01T00:05:40.000Z</time>
      </trkpt>
      <trkpt lat="41.09803" lon="-6.738303">
        <ele>332</ele>
        <time>1970-01-01T00:05:41.000Z</time>
      </trkpt>
      <trkpt lat="41.098026" lon="-6.738301">
        <ele>332</ele>
        <time>1970-01-01T00:05:42.000Z</time>
      </trkpt>
      <trkpt lat="41.098022" lon="-6.7383">
        <ele>332.1</ele>
        <time>1970-01-01T00:05:43.000Z</time>
      </trkpt>
      <trkpt lat="41.098019" lon="-6.738301">
        <ele>332.1</ele>
        <time>1970-01-01T00:05:44.000Z</time>
      </trkpt>
      <trkpt lat="41.098019" lon="-6.738301">
        <ele>332.1</ele>
        <time>1970-01-01T00:05:45.000Z</time>
      </trkpt>
      <trkpt lat="41.098018" lon="-6.738301">
        <ele>332.1</ele>
        <time>1970-01-01T00:05:46.000Z</time>
      </trkpt>
      <trkpt lat="41.098018" lon="-6.738301">
        <ele>332.1</ele>
        <time>1970-01-01T00:05:47.000Z</time>
      </trkpt>
      <trkpt lat="41.098017" lon="-6.7383">
        <ele>332.1</ele>
        <time>1970-01-01T00:05:48.000Z</time>
      </trkpt>
      <trkpt lat="41.098018" lon="-6.738299">
        <ele>332.1</ele>
        <time>1970-01-01T00:05:49.000Z</time>
      </trkpt>
      <trkpt lat="41.098019" lon="-6.738298">
        <ele>332.1</ele>
        <time>1970-01-01T00:05:50.000Z</time>
      </trkpt>
      <trkpt lat="41.09799" lon="-6.738293">
        <ele>332.4</ele>
        <time>1970-01-01T00:05:51.000Z</time>
      </trkpt>
      <trkpt lat="41.097984" lon="-6.738292">
        <ele>332.3</ele>
        <time>1970-01-01T00:05:52.000Z</time>
      </trkpt>
      <trkpt lat="41.097981" lon="-6.738291">
        <ele>332.3</ele>
        <time>1970-01-01T00:06:02.000Z</time>
      </trkpt>
      <trkpt lat="41.097978" lon="-6.738289">
        <ele>332.2</ele>
        <time>1970-01-01T00:06:03.000Z</time>
      </trkpt>
      <trkpt lat="41.097978" lon="-6.738287">
        <ele>332.2</ele>
        <time>1970-01-01T00:06:04.000Z</time>
      </trkpt>
      <trkpt lat="41.097975" lon="-6.738287">
        <ele>332.2</ele>
        <time>1970-01-01T00:06:05.000Z</time>
      </trkpt>
      <trkpt lat="41.09797" lon="-6.738289">
        <ele>332.1</ele>
        <time>1970-01-01T00:06:06.000Z</time>
      </trkpt>
      <trkpt lat="41.097958" lon="-6.738291">
        <ele>331.9</ele>
        <time>1970-01-01T00:06:07.000Z</time>
      </trkpt>
      <trkpt lat="41.097943" lon="-6.738293">
        <ele>331.7</ele>
        <time>1970-01-01T00:06:08.000Z</time>
      </trkpt>
      <trkpt lat="41.097923" lon="-6.738295">
        <ele>331.4</ele>
        <time>1970-01-01T00:06:09.000Z</time>
      </trkpt>
      <trkpt lat="41.097899" lon="-6.738295">
        <ele>331.1</ele>
        <time>1970-01-01T00:06:10.000Z</time>
      </trkpt>
      <trkpt lat="41.097872" lon="-6.738298">
        <ele>330.7</ele>
        <time>1970-01-01T00:06:11.000Z</time>
      </trkpt>
      <trkpt lat="41.097837" lon="-6.738303">
        <ele>330.1</ele>
        <time>1970-01-01T00:06:12.000Z</time>
      </trkpt>
      <trkpt lat="41.097795" lon="-6.738312">
        <ele>329.5</ele>
        <time>1970-01-01T00:06:13.000Z</time>
      </trkpt>
      <trkpt lat="41.097747" lon="-6.738321">
        <ele>328.8</ele>
        <time>1970-01-01T00:06:14.000Z</time>
      </trkpt>
      <trkpt lat="41.097694" lon="-6.73833">
        <ele>328</ele>
        <time>1970-01-01T00:06:15.000Z</time>
      </trkpt>
      <trkpt lat="41.097636" lon="-6.738339">
        <ele>327.2</ele>
        <time>1970-01-01T00:06:16.000Z</time>
      </trkpt>
      <trkpt lat="41.097572" lon="-6.738346">
        <ele>326.3</ele>
        <time>1970-01-01T00:06:17.000Z</time>
      </trkpt>
      <trkpt lat="41.097504" lon="-6.738351">
        <ele>325.3</ele>
        <time>1970-01-01T00:06:18.000Z</time>
      </trkpt>
      <trkpt lat="41.097434" lon="-6.738358">
        <ele>324.2</ele>
        <time>1970-01-01T00:06:19.000Z</time>
      </trkpt>
      <trkpt lat="41.097366" lon="-6.738373">
        <ele>323.2</ele>
        <time>1970-01-01T00:06:20.000Z</time>
      </trkpt>
      <trkpt lat="41.097301" lon="-6.738401">
        <ele>322.2</ele>
        <time>1970-01-01T00:06:21.000Z</time>
      </trkpt>
      <trkpt lat="41.097238" lon="-6.738443">
        <ele>321.2</ele>
        <time>1970-01-01T00:06:22.000Z</time>
      </trkpt>
      <trkpt lat="41.097178" lon="-6.738489">
        <ele>320.2</ele>
        <time>1970-01-01T00:06:23.000Z</time>
      </trkpt>
      <trkpt lat="41.097114" lon="-6.73853">
        <ele>319.2</ele>
        <time>1970-01-01T00:06:24.000Z</time>
      </trkpt>
      <trkpt lat="41.097044" lon="-6.738563">
        <ele>318.1</ele>
        <time>1970-01-01T00:06:25.000Z</time>
      </trkpt>
      <trkpt lat="41.096965" lon="-6.73859">
        <ele>316.9</ele>
        <time>1970-01-01T00:06:26.000Z</time>
      </trkpt>
      <trkpt lat="41.096878" lon="-6.738621">
        <ele>315.6</ele>
        <time>1970-01-01T00:06:27.000Z</time>
      </trkpt>
      <trkpt lat="41.096785" lon="-6.738663">
        <ele>314.2</ele>
        <time>1970-01-01T00:06:28.000Z</time>
      </trkpt>
      <trkpt lat="41.096693" lon="-6.738713">
        <ele>312.7</ele>
        <time>1970-01-01T00:06:29.000Z</time>
      </trkpt>
      <trkpt lat="41.096609" lon="-6.738765">
        <ele>312</ele>
        <time>1970-01-01T00:06:30.000Z</time>
      </trkpt>
      <trkpt lat="41.09654" lon="-6.738815">
        <ele>312.6</ele>
        <time>1970-01-01T00:06:31.000Z</time>
      </trkpt>
      <trkpt lat="41.096487" lon="-6.738866">
        <ele>313.5</ele>
        <time>1970-01-01T00:06:32.000Z</time>
      </trkpt>
      <trkpt lat="41.096448" lon="-6.738918">
        <ele>318.4</ele>
        <time>1970-01-01T00:06:33.000Z</time>
      </trkpt>
      <trkpt lat="41.096423" lon="-6.738963">
        <ele>319.1</ele>
        <time>1970-01-01T00:06:34.000Z</time>
      </trkpt>
      <trkpt lat="41.096408" lon="-6.738995">
        <ele>319.5</ele>
        <time>1970-01-01T00:06:35.000Z</time>
      </trkpt>
      <trkpt lat="41.096402" lon="-6.739017">
        <ele>319.7</ele>
        <time>1970-01-01T00:06:36.000Z</time>
      </trkpt>
      <trkpt lat="41.096396" lon="-6.739048">
        <ele>320.1</ele>
        <time>1970-01-01T00:06:37.000Z</time>
      </trkpt>
      <trkpt lat="41.096394" lon="-6.739062">
        <ele>320.2</ele>
        <time>1970-01-01T00:06:38.000Z</time>
      </trkpt>
      <trkpt lat="41.096392" lon="-6.739075">
        <ele>320.4</ele>
        <time>1970-01-01T00:06:39.000Z</time>
      </trkpt>
      <trkpt lat="41.096388" lon="-6.739095">
        <ele>320.6</ele>
        <time>1970-01-01T00:06:40.000Z</time>
      </trkpt>
      <trkpt lat="41.096385" lon="-6.739115">
        <ele>320.8</ele>
        <time>1970-01-01T00:06:41.000Z</time>
      </trkpt>
      <trkpt lat="41.096383" lon="-6.739133">
        <ele>321</ele>
        <time>1970-01-01T00:06:42.000Z</time>
      </trkpt>
      <trkpt lat="41.096383" lon="-6.739152">
        <ele>321.2</ele>
        <time>1970-01-01T00:06:43.000Z</time>
      </trkpt>
      <trkpt lat="41.096384" lon="-6.73917">
        <ele>321.4</ele>
        <time>1970-01-01T00:06:44.000Z</time>
      </trkpt>
      <trkpt lat="41.096385" lon="-6.739191">
        <ele>321.7</ele>
        <time>1970-01-01T00:06:45.000Z</time>
      </trkpt>
      <trkpt lat="41.096387" lon="-6.739212">
        <ele>321.9</ele>
        <time>1970-01-01T00:06:46.000Z</time>
      </trkpt>
      <trkpt lat="41.096391" lon="-6.739233">
        <ele>322.1</ele>
        <time>1970-01-01T00:06:47.000Z</time>
      </trkpt>
      <trkpt lat="41.096397" lon="-6.739253">
        <ele>322.4</ele>
        <time>1970-01-01T00:06:48.000Z</time>
      </trkpt>
      <trkpt lat="41.096405" lon="-6.73927">
        <ele>322.6</ele>
        <time>1970-01-01T00:06:49.000Z</time>
      </trkpt>
      <trkpt lat="41.096415" lon="-6.739288">
        <ele>322.8</ele>
        <time>1970-01-01T00:06:50.000Z</time>
      </trkpt>
      <trkpt lat="41.096425" lon="-6.739305">
        <ele>323.1</ele>
        <time>1970-01-01T00:06:51.000Z</time>
      </trkpt>
      <trkpt lat="41.096436" lon="-6.739323">
        <ele>323.3</ele>
        <time>1970-01-01T00:06:52.000Z</time>
      </trkpt>
      <trkpt lat="41.096448" lon="-6.73934">
        <ele>323.6</ele>
        <time>1970-01-01T00:06:53.000Z</time>
      </trkpt>
      <trkpt lat="41.096459" lon="-6.739357">
        <ele>323.8</ele>
        <time>1970-01-01T00:06:54.000Z</time>
      </trkpt>
      <trkpt lat="41.096469" lon="-6.739375">
        <ele>324</ele>
        <time>1970-01-01T00:06:55.000Z</time>
      </trkpt>
      <trkpt lat="41.096479" lon="-6.739393">
        <ele>324.3</ele>
        <time>1970-01-01T00:06:56.000Z</time>
      </trkpt>
      <trkpt lat="41.096489" lon="-6.739412">
        <ele>324.5</ele>
        <time>1970-01-01T00:06:57.000Z</time>
      </trkpt>
      <trkpt lat="41.096498" lon="-6.73943">
        <ele>324.8</ele>
        <time>1970-01-01T00:06:58.000Z</time>
      </trkpt>
      <trkpt lat="41.096508" lon="-6.739447">
        <ele>325</ele>
        <time>1970-01-01T00:06:59.000Z</time>
      </trkpt>
      <trkpt lat="41.096516" lon="-6.739466">
        <ele>325.3</ele>
        <time>1970-01-01T00:07:00.000Z</time>
      </trkpt>
      <trkpt lat="41.096524" lon="-6.739486">
        <ele>325.5</ele>
        <time>1970-01-01T00:07:01.000Z</time>
      </trkpt>
      <trkpt lat="41.096531" lon="-6.739507">
        <ele>325.8</ele>
        <time>1970-01-01T00:07:02.000Z</time>
      </trkpt>
      <trkpt lat="41.096539" lon="-6.739528">
        <ele>326</ele>
        <time>1970-01-01T00:07:03.000Z</time>
      </trkpt>
      <trkpt lat="41.096546" lon="-6.73955">
        <ele>326.3</ele>
        <time>1970-01-01T00:07:04.000Z</time>
      </trkpt>
      <trkpt lat="41.096553" lon="-6.73957">
        <ele>326.5</ele>
        <time>1970-01-01T00:07:05.000Z</time>
      </trkpt>
      <trkpt lat="41.096561" lon="-6.739591">
        <ele>326.8</ele>
        <time>1970-01-01T00:07:06.000Z</time>
      </trkpt>
      <trkpt lat="41.096568" lon="-6.739612">
        <ele>327</ele>
        <time>1970-01-01T00:07:07.000Z</time>
      </trkpt>
      <trkpt lat="41.096574" lon="-6.739634">
        <ele>327.3</ele>
        <time>1970-01-01T00:07:08.000Z</time>
      </trkpt>
      <trkpt lat="41.096579" lon="-6.739655">
        <ele>327.5</ele>
        <time>1970-01-01T00:07:09.000Z</time>
      </trkpt>
      <trkpt lat="41.096585" lon="-6.739676">
        <ele>327.8</ele>
        <time>1970-01-01T00:07:10.000Z</time>
      </trkpt>
      <trkpt lat="41.096592" lon="-6.739698">
        <ele>328</ele>
        <time>1970-01-01T00:07:11.000Z</time>
      </trkpt>
      <trkpt lat="41.096598" lon="-6.739719">
        <ele>328.3</ele>
        <time>1970-01-01T00:07:12.000Z</time>
      </trkpt>
      <trkpt lat="41.096604" lon="-6.73974">
        <ele>328.5</ele>
        <time>1970-01-01T00:07:13.000Z</time>
      </trkpt>
      <trkpt lat="41.096608" lon="-6.739762">
        <ele>328.8</ele>
        <time>1970-01-01T00:07:14.000Z</time>
      </trkpt>
      <trkpt lat="41.096613" lon="-6.739783">
        <ele>329</ele>
        <time>1970-01-01T00:07:15.000Z</time>
      </trkpt>
      <trkpt lat="41.096617" lon="-6.739804">
        <ele>329.2</ele>
        <time>1970-01-01T00:07:16.000Z</time>
      </trkpt>
      <trkpt lat="41.096621" lon="-6.739824">
        <ele>329.5</ele>
        <time>1970-01-01T00:07:17.000Z</time>
      </trkpt>
      <trkpt lat="41.096626" lon="-6.739844">
        <ele>329.7</ele>
        <time>1970-01-01T00:07:18.000Z</time>
      </trkpt>
      <trkpt lat="41.09663" lon="-6.739864">
        <ele>329.9</ele>
        <time>1970-01-01T00:07:19.000Z</time>
      </trkpt>
      <trkpt lat="41.096634" lon="-6.739884">
        <ele>330.1</ele>
        <time>1970-01-01T00:07:20.000Z</time>
      </trkpt>
      <trkpt lat="41.096638" lon="-6.739904">
        <ele>330.4</ele>
        <time>1970-01-01T00:07:21.000Z</time>
      </trkpt>
      <trkpt lat="41.096641" lon="-6.739924">
        <ele>330.6</ele>
        <time>1970-01-01T00:07:22.000Z</time>
      </trkpt>
      <trkpt lat="41.096642" lon="-6.739945">
        <ele>330.8</ele>
        <time>1970-01-01T00:07:23.000Z</time>
      </trkpt>
      <trkpt lat="41.096643" lon="-6.739964">
        <ele>331</ele>
        <time>1970-01-01T00:07:24.000Z</time>
      </trkpt>
      <trkpt lat="41.096644" lon="-6.739985">
        <ele>331.3</ele>
        <time>1970-01-01T00:07:25.000Z</time>
      </trkpt>
      <trkpt lat="41.096644" lon="-6.740006">
        <ele>331.5</ele>
        <time>1970-01-01T00:07:26.000Z</time>
      </trkpt>
      <trkpt lat="41.096646" lon="-6.740027">
        <ele>331.7</ele>
        <time>1970-01-01T00:07:27.000Z</time>
      </trkpt>
      <trkpt lat="41.096647" lon="-6.740048">
        <ele>331.9</ele>
        <time>1970-01-01T00:07:28.000Z</time>
      </trkpt>
      <trkpt lat="41.096649" lon="-6.74007">
        <ele>332.2</ele>
        <time>1970-01-01T00:07:29.000Z</time>
      </trkpt>
      <trkpt lat="41.09665" lon="-6.74009">
        <ele>332.4</ele>
        <time>1970-01-01T00:07:30.000Z</time>
      </trkpt>
      <trkpt lat="41.096651" lon="-6.740112">
        <ele>332.7</ele>
        <time>1970-01-01T00:07:31.000Z</time>
      </trkpt>
      <trkpt lat="41.096651" lon="-6.740133">
        <ele>332.9</ele>
        <time>1970-01-01T00:07:32.000Z</time>
      </trkpt>
      <trkpt lat="41.096653" lon="-6.740155">
        <ele>333.1</ele>
        <time>1970-01-01T00:07:33.000Z</time>
      </trkpt>
      <trkpt lat="41.096655" lon="-6.740177">
        <ele>333.4</ele>
        <time>1970-01-01T00:07:34.000Z</time>
      </trkpt>
      <trkpt lat="41.096657" lon="-6.740198">
        <ele>333.6</ele>
        <time>1970-01-01T00:07:35.000Z</time>
      </trkpt>
      <trkpt lat="41.096658" lon="-6.740218">
        <ele>333.8</ele>
        <time>1970-01-01T00:07:36.000Z</time>
      </trkpt>
      <trkpt lat="41.096659" lon="-6.740239">
        <ele>334</ele>
        <time>1970-01-01T00:07:37.000Z</time>
      </trkpt>
      <trkpt lat="41.09666" lon="-6.74026">
        <ele>334.3</ele>
        <time>1970-01-01T00:07:38.000Z</time>
      </trkpt>
      <trkpt lat="41.09666" lon="-6.74028">
        <ele>334.5</ele>
        <time>1970-01-01T00:07:39.000Z</time>
      </trkpt>
      <trkpt lat="41.096661" lon="-6.740301">
        <ele>334.7</ele>
        <time>1970-01-01T00:07:40.000Z</time>
      </trkpt>
      <trkpt lat="41.096662" lon="-6.74032">
        <ele>334.9</ele>
        <time>1970-01-01T00:07:41.000Z</time>
      </trkpt>
      <trkpt lat="41.096663" lon="-6.740341">
        <ele>335.2</ele>
        <time>1970-01-01T00:07:42.000Z</time>
      </trkpt>
      <trkpt lat="41.096664" lon="-6.740361">
        <ele>335.4</ele>
        <time>1970-01-01T00:07:43.000Z</time>
      </trkpt>
      <trkpt lat="41.096665" lon="-6.740381">
        <ele>335.6</ele>
        <time>1970-01-01T00:07:44.000Z</time>
      </trkpt>
      <trkpt lat="41.096666" lon="-6.740401">
        <ele>335.8</ele>
        <time>1970-01-01T00:07:45.000Z</time>
      </trkpt>
      <trkpt lat="41.096666" lon="-6.740421">
        <ele>336</ele>
        <time>1970-01-01T00:07:46.000Z</time>
      </trkpt>
      <trkpt lat="41.096666" lon="-6.740443">
        <ele>336.3</ele>
        <time>1970-01-01T00:07:47.000Z</time>
      </trkpt>
      <trkpt lat="41.096666" lon="-6.740465">
        <ele>336.5</ele>
        <time>1970-01-01T00:07:48.000Z</time>
      </trkpt>
      <trkpt lat="41.096667" lon="-6.740488">
        <ele>336.8</ele>
        <time>1970-01-01T00:07:49.000Z</time>
      </trkpt>
      <trkpt lat="41.096667" lon="-6.74051">
        <ele>337</ele>
        <time>1970-01-01T00:07:50.000Z</time>
      </trkpt>
      <trkpt lat="41.096666" lon="-6.740531">
        <ele>337.2</ele>
        <time>1970-01-01T00:07:51.000Z</time>
      </trkpt>
      <trkpt lat="41.096665" lon="-6.740554">
        <ele>337.5</ele>
        <time>1970-01-01T00:07:52.000Z</time>
      </trkpt>
      <trkpt lat="41.096663" lon="-6.740577">
        <ele>337.7</ele>
        <time>1970-01-01T00:07:53.000Z</time>
      </trkpt>
      <trkpt lat="41.096662" lon="-6.7406">
        <ele>338</ele>
        <time>1970-01-01T00:07:54.000Z</time>
      </trkpt>
      <trkpt lat="41.096661" lon="-6.740624">
        <ele>338.3</ele>
        <time>1970-01-01T00:07:55.000Z</time>
      </trkpt>
      <trkpt lat="41.096661" lon="-6.740647">
        <ele>338.5</ele>
        <time>1970-01-01T00:07:56.000Z</time>
      </trkpt>
      <trkpt lat="41.096662" lon="-6.740671">
        <ele>338.8</ele>
        <time>1970-01-01T00:07:57.000Z</time>
      </trkpt>
      <trkpt lat="41.096664" lon="-6.740694">
        <ele>339</ele>
        <time>1970-01-01T00:07:58.000Z</time>
      </trkpt>
      <trkpt lat="41.096665" lon="-6.740718">
        <ele>339.3</ele>
        <time>1970-01-01T00:07:59.000Z</time>
      </trkpt>
      <trkpt lat="41.096665" lon="-6.740741">
        <ele>339.5</ele>
        <time>1970-01-01T00:08:00.000Z</time>
      </trkpt>
      <trkpt lat="41.096667" lon="-6.740763">
        <ele>339.8</ele>
        <time>1970-01-01T00:08:01.000Z</time>
      </trkpt>
      <trkpt lat="41.096669" lon="-6.740784">
        <ele>340</ele>
        <time>1970-01-01T00:08:02.000Z</time>
      </trkpt>
      <trkpt lat="41.096671" lon="-6.740805">
        <ele>340.2</ele>
        <time>1970-01-01T00:08:03.000Z</time>
      </trkpt>
      <trkpt lat="41.096674" lon="-6.740826">
        <ele>340.5</ele>
        <time>1970-01-01T00:08:04.000Z</time>
      </trkpt>
      <trkpt lat="41.096676" lon="-6.740847">
        <ele>340.7</ele>
        <time>1970-01-01T00:08:05.000Z</time>
      </trkpt>
      <trkpt lat="41.096678" lon="-6.740868">
        <ele>340.9</ele>
        <time>1970-01-01T00:08:06.000Z</time>
      </trkpt>
      <trkpt lat="41.096681" lon="-6.74089">
        <ele>341.2</ele>
        <time>1970-01-01T00:08:07.000Z</time>
      </trkpt>
      <trkpt lat="41.096685" lon="-6.740911">
        <ele>341.4</ele>
        <time>1970-01-01T00:08:08.000Z</time>
      </trkpt>
      <trkpt lat="41.09669" lon="-6.74093">
        <ele>341.6</ele>
        <time>1970-01-01T00:08:09.000Z</time>
      </trkpt>
      <trkpt lat="41.096695" lon="-6.740949">
        <ele>341.9</ele>
        <time>1970-01-01T00:08:10.000Z</time>
      </trkpt>
      <trkpt lat="41.096701" lon="-6.740967">
        <ele>342.1</ele>
        <time>1970-01-01T00:08:11.000Z</time>
      </trkpt>
      <trkpt lat="41.096705" lon="-6.740985">
        <ele>342.3</ele>
        <time>1970-01-01T00:08:12.000Z</time>
      </trkpt>
      <trkpt lat="41.09671" lon="-6.741001">
        <ele>342.5</ele>
        <time>1970-01-01T00:08:13.000Z</time>
      </trkpt>
      <trkpt lat="41.096716" lon="-6.741016">
        <ele>342.6</ele>
        <time>1970-01-01T00:08:14.000Z</time>
      </trkpt>
      <trkpt lat="41.096724" lon="-6.741029">
        <ele>342.8</ele>
        <time>1970-01-01T00:08:15.000Z</time>
      </trkpt>
      <trkpt lat="41.096733" lon="-6.741042">
        <ele>343</ele>
        <time>1970-01-01T00:08:16.000Z</time>
      </trkpt>
      <trkpt lat="41.096742" lon="-6.741056">
        <ele>343.2</ele>
        <time>1970-01-01T00:08:17.000Z</time>
      </trkpt>
      <trkpt lat="41.09675" lon="-6.741072">
        <ele>343.4</ele>
        <time>1970-01-01T00:08:18.000Z</time>
      </trkpt>
      <trkpt lat="41.096757" lon="-6.741088">
        <ele>343.6</ele>
        <time>1970-01-01T00:08:19.000Z</time>
      </trkpt>
      <trkpt lat="41.096764" lon="-6.741105">
        <ele>343.8</ele>
        <time>1970-01-01T00:08:20.000Z</time>
      </trkpt>
      <trkpt lat="41.096771" lon="-6.741122">
        <ele>344.1</ele>
        <time>1970-01-01T00:08:21.000Z</time>
      </trkpt>
      <trkpt lat="41.096778" lon="-6.741138">
        <ele>344.3</ele>
        <time>1970-01-01T00:08:22.000Z</time>
      </trkpt>
      <trkpt lat="41.096786" lon="-6.741154">
        <ele>344.5</ele>
        <time>1970-01-01T00:08:23.000Z</time>
      </trkpt>
      <trkpt lat="41.096793" lon="-6.74117">
        <ele>344.7</ele>
        <time>1970-01-01T00:08:24.000Z</time>
      </trkpt>
      <trkpt lat="41.096799" lon="-6.741186">
        <ele>344.9</ele>
        <time>1970-01-01T00:08:25.000Z</time>
      </trkpt>
      <trkpt lat="41.096806" lon="-6.741204">
        <ele>345.1</ele>
        <time>1970-01-01T00:08:26.000Z</time>
      </trkpt>
      <trkpt lat="41.096813" lon="-6.741222">
        <ele>345.3</ele>
        <time>1970-01-01T00:08:27.000Z</time>
      </trkpt>
      <trkpt lat="41.096821" lon="-6.74124">
        <ele>345.5</ele>
        <time>1970-01-01T00:08:28.000Z</time>
      </trkpt>
      <trkpt lat="41.096829" lon="-6.741257">
        <ele>345.8</ele>
        <time>1970-01-01T00:08:29.000Z</time>
      </trkpt>
      <trkpt lat="41.096837" lon="-6.741274">
        <ele>346</ele>
        <time>1970-01-01T00:08:30.000Z</time>
      </trkpt>
      <trkpt lat="41.096844" lon="-6.741291">
        <ele>346.2</ele>
        <time>1970-01-01T00:08:31.000Z</time>
      </trkpt>
      <trkpt lat="41.096851" lon="-6.74131">
        <ele>346.4</ele>
        <time>1970-01-01T00:08:32.000Z</time>
      </trkpt>
      <trkpt lat="41.096857" lon="-6.741329">
        <ele>346.6</ele>
        <time>1970-01-01T00:08:33.000Z</time>
      </trkpt>
      <trkpt lat="41.096865" lon="-6.741347">
        <ele>346.9</ele>
        <time>1970-01-01T00:08:34.000Z</time>
      </trkpt>
      <trkpt lat="41.096873" lon="-6.741365">
        <ele>347.1</ele>
        <time>1970-01-01T00:08:35.000Z</time>
      </trkpt>
      <trkpt lat="41.09688" lon="-6.741383">
        <ele>347.3</ele>
        <time>1970-01-01T00:08:36.000Z</time>
      </trkpt>
      <trkpt lat="41.096886" lon="-6.741402">
        <ele>347.5</ele>
        <time>1970-01-01T00:08:37.000Z</time>
      </trkpt>
      <trkpt lat="41.096893" lon="-6.741422">
        <ele>347.8</ele>
        <time>1970-01-01T00:08:38.000Z</time>
      </trkpt>
      <trkpt lat="41.0969" lon="-6.741441">
        <ele>348</ele>
        <time>1970-01-01T00:08:39.000Z</time>
      </trkpt>
      <trkpt lat="41.096908" lon="-6.741459">
        <ele>348.2</ele>
        <time>1970-01-01T00:08:40.000Z</time>
      </trkpt>
      <trkpt lat="41.096915" lon="-6.741478">
        <ele>348.5</ele>
        <time>1970-01-01T00:08:41.000Z</time>
      </trkpt>
      <trkpt lat="41.096923" lon="-6.741496">
        <ele>348.7</ele>
        <time>1970-01-01T00:08:42.000Z</time>
      </trkpt>
      <trkpt lat="41.09693" lon="-6.741513">
        <ele>348.9</ele>
        <time>1970-01-01T00:08:43.000Z</time>
      </trkpt>
      <trkpt lat="41.096937" lon="-6.74153">
        <ele>349.1</ele>
        <time>1970-01-01T00:08:44.000Z</time>
      </trkpt>
      <trkpt lat="41.096944" lon="-6.741548">
        <ele>349.4</ele>
        <time>1970-01-01T00:08:45.000Z</time>
      </trkpt>
      <trkpt lat="41.09695" lon="-6.741567">
        <ele>349.6</ele>
        <time>1970-01-01T00:08:46.000Z</time>
      </trkpt>
      <trkpt lat="41.096956" lon="-6.741587">
        <ele>349.8</ele>
        <time>1970-01-01T00:08:47.000Z</time>
      </trkpt>
      <trkpt lat="41.096962" lon="-6.741606">
        <ele>350</ele>
        <time>1970-01-01T00:08:48.000Z</time>
      </trkpt>
      <trkpt lat="41.096969" lon="-6.741624">
        <ele>350.3</ele>
        <time>1970-01-01T00:08:49.000Z</time>
      </trkpt>
      <trkpt lat="41.096977" lon="-6.741641">
        <ele>350.5</ele>
        <time>1970-01-01T00:08:50.000Z</time>
      </trkpt>
      <trkpt lat="41.096985" lon="-6.741657">
        <ele>350.7</ele>
        <time>1970-01-01T00:08:51.000Z</time>
      </trkpt>
      <trkpt lat="41.096993" lon="-6.741673">
        <ele>350.9</ele>
        <time>1970-01-01T00:08:52.000Z</time>
      </trkpt>
      <trkpt lat="41.097002" lon="-6.741688">
        <ele>351.1</ele>
        <time>1970-01-01T00:08:53.000Z</time>
      </trkpt>
      <trkpt lat="41.097012" lon="-6.741704">
        <ele>351.3</ele>
        <time>1970-01-01T00:08:54.000Z</time>
      </trkpt>
      <trkpt lat="41.097022" lon="-6.74172">
        <ele>351.6</ele>
        <time>1970-01-01T00:08:55.000Z</time>
      </trkpt>
      <trkpt lat="41.097032" lon="-6.741736">
        <ele>351.8</ele>
        <time>1970-01-01T00:08:56.000Z</time>
      </trkpt>
      <trkpt lat="41.097041" lon="-6.74175">
        <ele>352</ele>
        <time>1970-01-01T00:08:57.000Z</time>
      </trkpt>
      <trkpt lat="41.097051" lon="-6.741763">
        <ele>352.2</ele>
        <time>1970-01-01T00:08:58.000Z</time>
      </trkpt>
      <trkpt lat="41.097061" lon="-6.741777">
        <ele>352.4</ele>
        <time>1970-01-01T00:08:59.000Z</time>
      </trkpt>
      <trkpt lat="41.097071" lon="-6.741791">
        <ele>352.6</ele>
        <time>1970-01-01T00:09:00.000Z</time>
      </trkpt>
      <trkpt lat="41.097081" lon="-6.741807">
        <ele>352.8</ele>
        <time>1970-01-01T00:09:01.000Z</time>
      </trkpt>
      <trkpt lat="41.097091" lon="-6.741825">
        <ele>353.1</ele>
        <time>1970-01-01T00:09:02.000Z</time>
      </trkpt>
      <trkpt lat="41.097101" lon="-6.741845">
        <ele>353.3</ele>
        <time>1970-01-01T00:09:03.000Z</time>
      </trkpt>
      <trkpt lat="41.097111" lon="-6.741864">
        <ele>353.6</ele>
        <time>1970-01-01T00:09:04.000Z</time>
      </trkpt>
      <trkpt lat="41.09712" lon="-6.741883">
        <ele>353.8</ele>
        <time>1970-01-01T00:09:05.000Z</time>
      </trkpt>
      <trkpt lat="41.09713" lon="-6.741901">
        <ele>354.1</ele>
        <time>1970-01-01T00:09:06.000Z</time>
      </trkpt>
      <trkpt lat="41.09714" lon="-6.741919">
        <ele>354.3</ele>
        <time>1970-01-01T00:09:07.000Z</time>
      </trkpt>
      <trkpt lat="41.097149" lon="-6.741936">
        <ele>354.6</ele>
        <time>1970-01-01T00:09:08.000Z</time>
      </trkpt>
      <trkpt lat="41.097157" lon="-6.741956">
        <ele>354.8</ele>
        <time>1970-01-01T00:09:09.000Z</time>
      </trkpt>
      <trkpt lat="41.097165" lon="-6.741976">
        <ele>355.1</ele>
        <time>1970-01-01T00:09:10.000Z</time>
      </trkpt>
      <trkpt lat="41.097173" lon="-6.741997">
        <ele>355.3</ele>
        <time>1970-01-01T00:09:11.000Z</time>
      </trkpt>
      <trkpt lat="41.097181" lon="-6.742017">
        <ele>355.6</ele>
        <time>1970-01-01T00:09:12.000Z</time>
      </trkpt>
      <trkpt lat="41.097188" lon="-6.742038">
        <ele>355.8</ele>
        <time>1970-01-01T00:09:13.000Z</time>
      </trkpt>
      <trkpt lat="41.097194" lon="-6.742059">
        <ele>356.1</ele>
        <time>1970-01-01T00:09:14.000Z</time>
      </trkpt>
      <trkpt lat="41.097199" lon="-6.74208">
        <ele>356.3</ele>
        <time>1970-01-01T00:09:15.000Z</time>
      </trkpt>
      <trkpt lat="41.097204" lon="-6.742102">
        <ele>356.5</ele>
        <time>1970-01-01T00:09:16.000Z</time>
      </trkpt>
      <trkpt lat="41.097208" lon="-6.742124">
        <ele>356.8</ele>
        <time>1970-01-01T00:09:17.000Z</time>
      </trkpt>
      <trkpt lat="41.097213" lon="-6.742146">
        <ele>357</ele>
        <time>1970-01-01T00:09:18.000Z</time>
      </trkpt>
      <trkpt lat="41.097217" lon="-6.742169">
        <ele>357.3</ele>
        <time>1970-01-01T00:09:19.000Z</time>
      </trkpt>
      <trkpt lat="41.097221" lon="-6.742193">
        <ele>357.6</ele>
        <time>1970-01-01T00:09:20.000Z</time>
      </trkpt>
      <trkpt lat="41.097223" lon="-6.742217">
        <ele>357.8</ele>
        <time>1970-01-01T00:09:21.000Z</time>
      </trkpt>
      <trkpt lat="41.097226" lon="-6.742241">
        <ele>358.1</ele>
        <time>1970-01-01T00:09:22.000Z</time>
      </trkpt>
      <trkpt lat="41.097226" lon="-6.742264">
        <ele>358.3</ele>
        <time>1970-01-01T00:09:23.000Z</time>
      </trkpt>
      <trkpt lat="41.097226" lon="-6.742287">
        <ele>358.6</ele>
        <time>1970-01-01T00:09:24.000Z</time>
      </trkpt>
      <trkpt lat="41.097226" lon="-6.74231">
        <ele>358.8</ele>
        <time>1970-01-01T00:09:25.000Z</time>
      </trkpt>
      <trkpt lat="41.097226" lon="-6.742332">
        <ele>359.1</ele>
        <time>1970-01-01T00:09:26.000Z</time>
      </trkpt>
      <trkpt lat="41.097226" lon="-6.742355">
        <ele>359.3</ele>
        <time>1970-01-01T00:09:27.000Z</time>
      </trkpt>
      <trkpt lat="41.097226" lon="-6.742377">
        <ele>359.6</ele>
        <time>1970-01-01T00:09:28.000Z</time>
      </trkpt>
      <trkpt lat="41.097227" lon="-6.742401">
        <ele>359.8</ele>
        <time>1970-01-01T00:09:29.000Z</time>
      </trkpt>
      <trkpt lat="41.097229" lon="-6.742425">
        <ele>360.1</ele>
        <time>1970-01-01T00:09:30.000Z</time>
      </trkpt>
      <trkpt lat="41.097231" lon="-6.742449">
        <ele>360.4</ele>
        <time>1970-01-01T00:09:31.000Z</time>
      </trkpt>
      <trkpt lat="41.097232" lon="-6.742472">
        <ele>360.6</ele>
        <time>1970-01-01T00:09:32.000Z</time>
      </trkpt>
      <trkpt lat="41.097234" lon="-6.742496">
        <ele>360.9</ele>
        <time>1970-01-01T00:09:33.000Z</time>
      </trkpt>
      <trkpt lat="41.097236" lon="-6.742519">
        <ele>361.1</ele>
        <time>1970-01-01T00:09:34.000Z</time>
      </trkpt>
      <trkpt lat="41.09724" lon="-6.742543">
        <ele>361.4</ele>
        <time>1970-01-01T00:09:35.000Z</time>
      </trkpt>
      <trkpt lat="41.097244" lon="-6.742566">
        <ele>361.7</ele>
        <time>1970-01-01T00:09:36.000Z</time>
      </trkpt>
      <trkpt lat="41.097249" lon="-6.742589">
        <ele>361.9</ele>
        <time>1970-01-01T00:09:37.000Z</time>
      </trkpt>
      <trkpt lat="41.097254" lon="-6.742612">
        <ele>362.2</ele>
        <time>1970-01-01T00:09:38.000Z</time>
      </trkpt>
      <trkpt lat="41.09726" lon="-6.742634">
        <ele>362.4</ele>
        <time>1970-01-01T00:09:39.000Z</time>
      </trkpt>
      <trkpt lat="41.097266" lon="-6.742655">
        <ele>362.7</ele>
        <time>1970-01-01T00:09:40.000Z</time>
      </trkpt>
      <trkpt lat="41.097273" lon="-6.742675">
        <ele>362.9</ele>
        <time>1970-01-01T00:09:41.000Z</time>
      </trkpt>
      <trkpt lat="41.097281" lon="-6.742694">
        <ele>363.2</ele>
        <time>1970-01-01T00:09:42.000Z</time>
      </trkpt>
      <trkpt lat="41.097288" lon="-6.742713">
        <ele>363.4</ele>
        <time>1970-01-01T00:09:43.000Z</time>
      </trkpt>
      <trkpt lat="41.097296" lon="-6.742732">
        <ele>363.6</ele>
        <time>1970-01-01T00:09:44.000Z</time>
      </trkpt>
      <trkpt lat="41.097304" lon="-6.742749">
        <ele>363.9</ele>
        <time>1970-01-01T00:09:45.000Z</time>
      </trkpt>
      <trkpt lat="41.097312" lon="-6.742767">
        <ele>364.1</ele>
        <time>1970-01-01T00:09:46.000Z</time>
      </trkpt>
      <trkpt lat="41.097321" lon="-6.742786">
        <ele>364.3</ele>
        <time>1970-01-01T00:09:47.000Z</time>
      </trkpt>
      <trkpt lat="41.097329" lon="-6.742806">
        <ele>364.6</ele>
        <time>1970-01-01T00:09:48.000Z</time>
      </trkpt>
      <trkpt lat="41.097338" lon="-6.742827">
        <ele>364.8</ele>
        <time>1970-01-01T00:09:49.000Z</time>
      </trkpt>
      <trkpt lat="41.097347" lon="-6.742845">
        <ele>365.1</ele>
        <time>1970-01-01T00:09:50.000Z</time>
      </trkpt>
      <trkpt lat="41.097356" lon="-6.742863">
        <ele>365.3</ele>
        <time>1970-01-01T00:09:51.000Z</time>
      </trkpt>
      <trkpt lat="41.097365" lon="-6.74288">
        <ele>365.5</ele>
        <time>1970-01-01T00:09:52.000Z</time>
      </trkpt>
      <trkpt lat="41.097373" lon="-6.742898">
        <ele>365.8</ele>
        <time>1970-01-01T00:09:53.000Z</time>
      </trkpt>
      <trkpt lat="41.097381" lon="-6.742917">
        <ele>366</ele>
        <time>1970-01-01T00:09:54.000Z</time>
      </trkpt>
      <trkpt lat="41.09739" lon="-6.742935">
        <ele>366.2</ele>
        <time>1970-01-01T00:09:55.000Z</time>
      </trkpt>
      <trkpt lat="41.097399" lon="-6.742952">
        <ele>366.5</ele>
        <time>1970-01-01T00:09:56.000Z</time>
      </trkpt>
      <trkpt lat="41.097408" lon="-6.74297">
        <ele>366.7</ele>
        <time>1970-01-01T00:09:57.000Z</time>
      </trkpt>
      <trkpt lat="41.097417" lon="-6.742987">
        <ele>366.9</ele>
        <time>1970-01-01T00:09:58.000Z</time>
      </trkpt>
      <trkpt lat="41.097425" lon="-6.743005">
        <ele>367.2</ele>
        <time>1970-01-01T00:09:59.000Z</time>
      </trkpt>
      <trkpt lat="41.097434" lon="-6.743022">
        <ele>367.4</ele>
        <time>1970-01-01T00:10:00.000Z</time>
      </trkpt>
      <trkpt lat="41.097443" lon="-6.743039">
        <ele>367.6</ele>
        <time>1970-01-01T00:10:01.000Z</time>
      </trkpt>
      <trkpt lat="41.097451" lon="-6.743055">
        <ele>367.8</ele>
        <time>1970-01-01T00:10:02.000Z</time>
      </trkpt>
      <trkpt lat="41.097459" lon="-6.743071">
        <ele>368</ele>
        <time>1970-01-01T00:10:03.000Z</time>
      </trkpt>
      <trkpt lat="41.097466" lon="-6.743085">
        <ele>368.2</ele>
        <time>1970-01-01T00:10:04.000Z</time>
      </trkpt>
      <trkpt lat="41.097473" lon="-6.743097">
        <ele>368.4</ele>
        <time>1970-01-01T00:10:05.000Z</time>
      </trkpt>
      <trkpt lat="41.09748" lon="-6.743109">
        <ele>368.5</ele>
        <time>1970-01-01T00:10:06.000Z</time>
      </trkpt>
      <trkpt lat="41.097487" lon="-6.74312">
        <ele>368.7</ele>
        <time>1970-01-01T00:10:07.000Z</time>
      </trkpt>
      <trkpt lat="41.097494" lon="-6.743133">
        <ele>368.9</ele>
        <time>1970-01-01T00:10:08.000Z</time>
      </trkpt>
      <trkpt lat="41.0975" lon="-6.743146">
        <ele>369</ele>
        <time>1970-01-01T00:10:09.000Z</time>
      </trkpt>
      <trkpt lat="41.097507" lon="-6.74316">
        <ele>369.2</ele>
        <time>1970-01-01T00:10:10.000Z</time>
      </trkpt>
      <trkpt lat="41.097517" lon="-6.743176">
        <ele>369.5</ele>
        <time>1970-01-01T00:10:11.000Z</time>
      </trkpt>
      <trkpt lat="41.097528" lon="-6.743192">
        <ele>369.7</ele>
        <time>1970-01-01T00:10:12.000Z</time>
      </trkpt>
      <trkpt lat="41.09754" lon="-6.743207">
        <ele>369.9</ele>
        <time>1970-01-01T00:10:13.000Z</time>
      </trkpt>
      <trkpt lat="41.097552" lon="-6.743221">
        <ele>370.2</ele>
        <time>1970-01-01T00:10:14.000Z</time>
      </trkpt>
      <trkpt lat="41.097564" lon="-6.743235">
        <ele>370.4</ele>
        <time>1970-01-01T00:10:15.000Z</time>
      </trkpt>
      <trkpt lat="41.097578" lon="-6.74325">
        <ele>370.7</ele>
        <time>1970-01-01T00:10:16.000Z</time>
      </trkpt>
      <trkpt lat="41.097592" lon="-6.743266">
        <ele>370.9</ele>
        <time>1970-01-01T00:10:17.000Z</time>
      </trkpt>
      <trkpt lat="41.097606" lon="-6.743281">
        <ele>371.2</ele>
        <time>1970-01-01T00:10:18.000Z</time>
      </trkpt>
      <trkpt lat="41.097621" lon="-6.743295">
        <ele>371.4</ele>
        <time>1970-01-01T00:10:19.000Z</time>
      </trkpt>
      <trkpt lat="41.097635" lon="-6.743309">
        <ele>371.7</ele>
        <time>1970-01-01T00:10:20.000Z</time>
      </trkpt>
      <trkpt lat="41.09765" lon="-6.743321">
        <ele>372</ele>
        <time>1970-01-01T00:10:21.000Z</time>
      </trkpt>
      <trkpt lat="41.097664" lon="-6.743333">
        <ele>372.2</ele>
        <time>1970-01-01T00:10:22.000Z</time>
      </trkpt>
      <trkpt lat="41.097679" lon="-6.743346">
        <ele>372.5</ele>
        <time>1970-01-01T00:10:23.000Z</time>
      </trkpt>
      <trkpt lat="41.097693" lon="-6.743358">
        <ele>372.7</ele>
        <time>1970-01-01T00:10:24.000Z</time>
      </trkpt>
      <trkpt lat="41.097708" lon="-6.743371">
        <ele>373</ele>
        <time>1970-01-01T00:10:25.000Z</time>
      </trkpt>
      <trkpt lat="41.097722" lon="-6.743384">
        <ele>373.2</ele>
        <time>1970-01-01T00:10:26.000Z</time>
      </trkpt>
      <trkpt lat="41.097736" lon="-6.743398">
        <ele>373.5</ele>
        <time>1970-01-01T00:10:27.000Z</time>
      </trkpt>
      <trkpt lat="41.097751" lon="-6.743412">
        <ele>373.7</ele>
        <time>1970-01-01T00:10:28.000Z</time>
      </trkpt>
      <trkpt lat="41.097766" lon="-6.743425">
        <ele>374</ele>
        <time>1970-01-01T00:10:29.000Z</time>
      </trkpt>
      <trkpt lat="41.097782" lon="-6.743438">
        <ele>374.3</ele>
        <time>1970-01-01T00:10:30.000Z</time>
      </trkpt>
      <trkpt lat="41.097799" lon="-6.74345">
        <ele>374.5</ele>
        <time>1970-01-01T00:10:31.000Z</time>
      </trkpt>
      <trkpt lat="41.097815" lon="-6.743462">
        <ele>374.8</ele>
        <time>1970-01-01T00:10:32.000Z</time>
      </trkpt>
      <trkpt lat="41.097829" lon="-6.743474">
        <ele>375</ele>
        <time>1970-01-01T00:10:33.000Z</time>
      </trkpt>
      <trkpt lat="41.097844" lon="-6.743487">
        <ele>375.3</ele>
        <time>1970-01-01T00:10:34.000Z</time>
      </trkpt>
      <trkpt lat="41.097858" lon="-6.743499">
        <ele>375.5</ele>
        <time>1970-01-01T00:10:35.000Z</time>
      </trkpt>
      <trkpt lat="41.097874" lon="-6.743511">
        <ele>375.8</ele>
        <time>1970-01-01T00:10:36.000Z</time>
      </trkpt>
      <trkpt lat="41.097889" lon="-6.743521">
        <ele>376.1</ele>
        <time>1970-01-01T00:10:37.000Z</time>
      </trkpt>
      <trkpt lat="41.097905" lon="-6.743532">
        <ele>376.3</ele>
        <time>1970-01-01T00:10:38.000Z</time>
      </trkpt>
      <trkpt lat="41.09792" lon="-6.743543">
        <ele>376.6</ele>
        <time>1970-01-01T00:10:39.000Z</time>
      </trkpt>
      <trkpt lat="41.097936" lon="-6.743555">
        <ele>376.8</ele>
        <time>1970-01-01T00:10:40.000Z</time>
      </trkpt>
      <trkpt lat="41.097952" lon="-6.743566">
        <ele>377.1</ele>
        <time>1970-01-01T00:10:41.000Z</time>
      </trkpt>
      <trkpt lat="41.097967" lon="-6.743578">
        <ele>377.3</ele>
        <time>1970-01-01T00:10:42.000Z</time>
      </trkpt>
      <trkpt lat="41.097983" lon="-6.743589">
        <ele>377.6</ele>
        <time>1970-01-01T00:10:43.000Z</time>
      </trkpt>
      <trkpt lat="41.097998" lon="-6.7436">
        <ele>377.9</ele>
        <time>1970-01-01T00:10:44.000Z</time>
      </trkpt>
      <trkpt lat="41.098014" lon="-6.74361">
        <ele>378.1</ele>
        <time>1970-01-01T00:10:45.000Z</time>
      </trkpt>
      <trkpt lat="41.098029" lon="-6.74362">
        <ele>378.4</ele>
        <time>1970-01-01T00:10:46.000Z</time>
      </trkpt>
      <trkpt lat="41.098045" lon="-6.743628">
        <ele>378.6</ele>
        <time>1970-01-01T00:10:47.000Z</time>
      </trkpt>
      <trkpt lat="41.098061" lon="-6.743637">
        <ele>378.9</ele>
        <time>1970-01-01T00:10:48.000Z</time>
      </trkpt>
      <trkpt lat="41.098077" lon="-6.743645">
        <ele>379.1</ele>
        <time>1970-01-01T00:10:49.000Z</time>
      </trkpt>
      <trkpt lat="41.098092" lon="-6.743656">
        <ele>379.3</ele>
        <time>1970-01-01T00:10:50.000Z</time>
      </trkpt>
      <trkpt lat="41.098108" lon="-6.743667">
        <ele>379.6</ele>
        <time>1970-01-01T00:10:51.000Z</time>
      </trkpt>
      <trkpt lat="41.098124" lon="-6.743678">
        <ele>379.9</ele>
        <time>1970-01-01T00:10:52.000Z</time>
      </trkpt>
      <trkpt lat="41.098139" lon="-6.743691">
        <ele>380.1</ele>
        <time>1970-01-01T00:10:53.000Z</time>
      </trkpt>
      <trkpt lat="41.098154" lon="-6.743703">
        <ele>380.4</ele>
        <time>1970-01-01T00:10:54.000Z</time>
      </trkpt>
      <trkpt lat="41.098168" lon="-6.743716">
        <ele>380.6</ele>
        <time>1970-01-01T00:10:55.000Z</time>
      </trkpt>
      <trkpt lat="41.098183" lon="-6.743728">
        <ele>380.9</ele>
        <time>1970-01-01T00:10:56.000Z</time>
      </trkpt>
      <trkpt lat="41.098199" lon="-6.743739">
        <ele>381.1</ele>
        <time>1970-01-01T00:10:57.000Z</time>
      </trkpt>
      <trkpt lat="41.098215" lon="-6.74375">
        <ele>381.4</ele>
        <time>1970-01-01T00:10:58.000Z</time>
      </trkpt>
      <trkpt lat="41.098231" lon="-6.743763">
        <ele>381.7</ele>
        <time>1970-01-01T00:10:59.000Z</time>
      </trkpt>
      <trkpt lat="41.098247" lon="-6.743776">
        <ele>381.9</ele>
        <time>1970-01-01T00:11:00.000Z</time>
      </trkpt>
      <trkpt lat="41.098263" lon="-6.743789">
        <ele>382.2</ele>
        <time>1970-01-01T00:11:01.000Z</time>
      </trkpt>
      <trkpt lat="41.098279" lon="-6.743801">
        <ele>382.5</ele>
        <time>1970-01-01T00:11:02.000Z</time>
      </trkpt>
      <trkpt lat="41.098295" lon="-6.743811">
        <ele>382.7</ele>
        <time>1970-01-01T00:11:03.000Z</time>
      </trkpt>
      <trkpt lat="41.09831" lon="-6.743822">
        <ele>383</ele>
        <time>1970-01-01T00:11:04.000Z</time>
      </trkpt>
      <trkpt lat="41.098325" lon="-6.743834">
        <ele>383.2</ele>
        <time>1970-01-01T00:11:05.000Z</time>
      </trkpt>
      <trkpt lat="41.09834" lon="-6.743847">
        <ele>383.5</ele>
        <time>1970-01-01T00:11:06.000Z</time>
      </trkpt>
      <trkpt lat="41.098355" lon="-6.74386">
        <ele>383.8</ele>
        <time>1970-01-01T00:11:07.000Z</time>
      </trkpt>
      <trkpt lat="41.098369" lon="-6.743873">
        <ele>384</ele>
        <time>1970-01-01T00:11:08.000Z</time>
      </trkpt>
      <trkpt lat="41.098383" lon="-6.743886">
        <ele>384.3</ele>
        <time>1970-01-01T00:11:09.000Z</time>
      </trkpt>
      <trkpt lat="41.098398" lon="-6.743899">
        <ele>384.5</ele>
        <time>1970-01-01T00:11:10.000Z</time>
      </trkpt>
      <trkpt lat="41.098413" lon="-6.743911">
        <ele>384.8</ele>
        <time>1970-01-01T00:11:11.000Z</time>
      </trkpt>
      <trkpt lat="41.098427" lon="-6.743924">
        <ele>385</ele>
        <time>1970-01-01T00:11:12.000Z</time>
      </trkpt>
      <trkpt lat="41.098442" lon="-6.743936">
        <ele>385.3</ele>
        <time>1970-01-01T00:11:13.000Z</time>
      </trkpt>
      <trkpt lat="41.098457" lon="-6.74395">
        <ele>385.5</ele>
        <time>1970-01-01T00:11:14.000Z</time>
      </trkpt>
      <trkpt lat="41.098472" lon="-6.743963">
        <ele>385.8</ele>
        <time>1970-01-01T00:11:15.000Z</time>
      </trkpt>
      <trkpt lat="41.098486" lon="-6.743976">
        <ele>386</ele>
        <time>1970-01-01T00:11:16.000Z</time>
      </trkpt>
      <trkpt lat="41.098501" lon="-6.74399">
        <ele>386.3</ele>
        <time>1970-01-01T00:11:17.000Z</time>
      </trkpt>
      <trkpt lat="41.098515" lon="-6.744004">
        <ele>386.6</ele>
        <time>1970-01-01T00:11:18.000Z</time>
      </trkpt>
      <trkpt lat="41.098529" lon="-6.744019">
        <ele>386.8</ele>
        <time>1970-01-01T00:11:19.000Z</time>
      </trkpt>
      <trkpt lat="41.098543" lon="-6.744034">
        <ele>387.1</ele>
        <time>1970-01-01T00:11:20.000Z</time>
      </trkpt>
      <trkpt lat="41.098557" lon="-6.74405">
        <ele>387.4</ele>
        <time>1970-01-01T00:11:21.000Z</time>
      </trkpt>
      <trkpt lat="41.098571" lon="-6.744068">
        <ele>387.6</ele>
        <time>1970-01-01T00:11:22.000Z</time>
      </trkpt>
      <trkpt lat="41.098586" lon="-6.744086">
        <ele>387.9</ele>
        <time>1970-01-01T00:11:23.000Z</time>
      </trkpt>
      <trkpt lat="41.0986" lon="-6.744104">
        <ele>388.2</ele>
        <time>1970-01-01T00:11:24.000Z</time>
      </trkpt>
      <trkpt lat="41.098613" lon="-6.744121">
        <ele>388.5</ele>
        <time>1970-01-01T00:11:25.000Z</time>
      </trkpt>
      <trkpt lat="41.098626" lon="-6.744138">
        <ele>388.7</ele>
        <time>1970-01-01T00:11:26.000Z</time>
      </trkpt>
      <trkpt lat="41.098639" lon="-6.744155">
        <ele>389</ele>
        <time>1970-01-01T00:11:27.000Z</time>
      </trkpt>
      <trkpt lat="41.098652" lon="-6.744173">
        <ele>389.3</ele>
        <time>1970-01-01T00:11:28.000Z</time>
      </trkpt>
      <trkpt lat="41.098665" lon="-6.744191">
        <ele>389.6</ele>
        <time>1970-01-01T00:11:29.000Z</time>
      </trkpt>
      <trkpt lat="41.098679" lon="-6.74421">
        <ele>389.8</ele>
        <time>1970-01-01T00:11:30.000Z</time>
      </trkpt>
      <trkpt lat="41.098694" lon="-6.74423">
        <ele>390.2</ele>
        <time>1970-01-01T00:11:31.000Z</time>
      </trkpt>
      <trkpt lat="41.098709" lon="-6.744248">
        <ele>390.9</ele>
        <time>1970-01-01T00:11:32.000Z</time>
      </trkpt>
      <trkpt lat="41.098725" lon="-6.744267">
        <ele>391</ele>
        <time>1970-01-01T00:11:33.000Z</time>
      </trkpt>
      <trkpt lat="41.098743" lon="-6.744284">
        <ele>391.4</ele>
        <time>1970-01-01T00:11:34.000Z</time>
      </trkpt>
      <trkpt lat="41.098761" lon="-6.744301">
        <ele>391.2</ele>
        <time>1970-01-01T00:11:35.000Z</time>
      </trkpt>
      <trkpt lat="41.098779" lon="-6.744318">
        <ele>391.3</ele>
        <time>1970-01-01T00:11:36.000Z</time>
      </trkpt>
      <trkpt lat="41.098798" lon="-6.744336">
        <ele>391.6</ele>
        <time>1970-01-01T00:11:37.000Z</time>
      </trkpt>
      <trkpt lat="41.098817" lon="-6.744353">
        <ele>391.7</ele>
        <time>1970-01-01T00:11:38.000Z</time>
      </trkpt>
      <trkpt lat="41.098838" lon="-6.744369">
        <ele>392</ele>
        <time>1970-01-01T00:11:39.000Z</time>
      </trkpt>
      <trkpt lat="41.09886" lon="-6.744385">
        <ele>391.8</ele>
        <time>1970-01-01T00:11:40.000Z</time>
      </trkpt>
      <trkpt lat="41.098884" lon="-6.744401">
        <ele>391.9</ele>
        <time>1970-01-01T00:11:41.000Z</time>
      </trkpt>
      <trkpt lat="41.098908" lon="-6.744417">
        <ele>392.1</ele>
        <time>1970-01-01T00:11:42.000Z</time>
      </trkpt>
      <trkpt lat="41.098931" lon="-6.744435">
        <ele>391.9</ele>
        <time>1970-01-01T00:11:43.000Z</time>
      </trkpt>
      <trkpt lat="41.098955" lon="-6.744452">
        <ele>392.1</ele>
        <time>1970-01-01T00:11:44.000Z</time>
      </trkpt>
      <trkpt lat="41.098981" lon="-6.744468">
        <ele>392.2</ele>
        <time>1970-01-01T00:11:45.000Z</time>
      </trkpt>
      <trkpt lat="41.099007" lon="-6.744482">
        <ele>392</ele>
        <time>1970-01-01T00:11:46.000Z</time>
      </trkpt>
      <trkpt lat="41.099034" lon="-6.744496">
        <ele>392.1</ele>
        <time>1970-01-01T00:11:47.000Z</time>
      </trkpt>
      <trkpt lat="41.09906" lon="-6.74451">
        <ele>391.7</ele>
        <time>1970-01-01T00:11:48.000Z</time>
      </trkpt>
      <trkpt lat="41.099087" lon="-6.744525">
        <ele>391.2</ele>
        <time>1970-01-01T00:11:49.000Z</time>
      </trkpt>
      <trkpt lat="41.099115" lon="-6.744539">
        <ele>391</ele>
        <time>1970-01-01T00:11:50.000Z</time>
      </trkpt>
      <trkpt lat="41.099142" lon="-6.744552">
        <ele>391.1</ele>
        <time>1970-01-01T00:11:51.000Z</time>
      </trkpt>
      <trkpt lat="41.099172" lon="-6.744563">
        <ele>390.5</ele>
        <time>1970-01-01T00:11:52.000Z</time>
      </trkpt>
      <trkpt lat="41.099203" lon="-6.744575">
        <ele>389.8</ele>
        <time>1970-01-01T00:11:53.000Z</time>
      </trkpt>
      <trkpt lat="41.099236" lon="-6.744587">
        <ele>389.6</ele>
        <time>1970-01-01T00:11:54.000Z</time>
      </trkpt>
      <trkpt lat="41.09927" lon="-6.744599">
        <ele>389</ele>
        <time>1970-01-01T00:11:55.000Z</time>
      </trkpt>
      <trkpt lat="41.099303" lon="-6.744613">
        <ele>388.4</ele>
        <time>1970-01-01T00:11:56.000Z</time>
      </trkpt>
      <trkpt lat="41.099335" lon="-6.744628">
        <ele>388.3</ele>
        <time>1970-01-01T00:11:57.000Z</time>
      </trkpt>
      <trkpt lat="41.099367" lon="-6.744646">
        <ele>387.7</ele>
        <time>1970-01-01T00:11:58.000Z</time>
      </trkpt>
      <trkpt lat="41.099399" lon="-6.744663">
        <ele>387.5</ele>
        <time>1970-01-01T00:11:59.000Z</time>
      </trkpt>
      <trkpt lat="41.09943" lon="-6.744682">
        <ele>386.8</ele>
        <time>1970-01-01T00:12:00.000Z</time>
      </trkpt>
      <trkpt lat="41.099459" lon="-6.744702">
        <ele>386.1</ele>
        <time>1970-01-01T00:12:01.000Z</time>
      </trkpt>
      <trkpt lat="41.099489" lon="-6.744723">
        <ele>386</ele>
        <time>1970-01-01T00:12:02.000Z</time>
      </trkpt>
      <trkpt lat="41.099518" lon="-6.744745">
        <ele>385.3</ele>
        <time>1970-01-01T00:12:03.000Z</time>
      </trkpt>
      <trkpt lat="41.099547" lon="-6.744771">
        <ele>385.1</ele>
        <time>1970-01-01T00:12:04.000Z</time>
      </trkpt>
      <trkpt lat="41.099577" lon="-6.7448">
        <ele>384.9</ele>
        <time>1970-01-01T00:12:05.000Z</time>
      </trkpt>
      <trkpt lat="41.099607" lon="-6.744834">
        <ele>384.5</ele>
        <time>1970-01-01T00:12:06.000Z</time>
      </trkpt>
      <trkpt lat="41.099638" lon="-6.744871">
        <ele>383.5</ele>
        <time>1970-01-01T00:12:07.000Z</time>
      </trkpt>
      <trkpt lat="41.099667" lon="-6.744912">
        <ele>382.9</ele>
        <time>1970-01-01T00:12:08.000Z</time>
      </trkpt>
      <trkpt lat="41.099694" lon="-6.744958">
        <ele>383.4</ele>
        <time>1970-01-01T00:12:09.000Z</time>
      </trkpt>
      <trkpt lat="41.099716" lon="-6.745005">
        <ele>382.9</ele>
        <time>1970-01-01T00:12:10.000Z</time>
      </trkpt>
      <trkpt lat="41.099735" lon="-6.745054">
        <ele>382</ele>
        <time>1970-01-01T00:12:11.000Z</time>
      </trkpt>
      <trkpt lat="41.09975" lon="-6.745102">
        <ele>382.3</ele>
        <time>1970-01-01T00:12:12.000Z</time>
      </trkpt>
      <trkpt lat="41.099764" lon="-6.745151">
        <ele>381.4</ele>
        <time>1970-01-01T00:12:13.000Z</time>
      </trkpt>
      <trkpt lat="41.099776" lon="-6.745201">
        <ele>381.6</ele>
        <time>1970-01-01T00:12:14.000Z</time>
      </trkpt>
      <trkpt lat="41.099786" lon="-6.745252">
        <ele>381.8</ele>
        <time>1970-01-01T00:12:15.000Z</time>
      </trkpt>
      <trkpt lat="41.099794" lon="-6.745305">
        <ele>380.8</ele>
        <time>1970-01-01T00:12:16.000Z</time>
      </trkpt>
      <trkpt lat="41.099801" lon="-6.74536">
        <ele>380.9</ele>
        <time>1970-01-01T00:12:17.000Z</time>
      </trkpt>
      <trkpt lat="41.099803" lon="-6.745416">
        <ele>381</ele>
        <time>1970-01-01T00:12:18.000Z</time>
      </trkpt>
      <trkpt lat="41.099802" lon="-6.745472">
        <ele>381</ele>
        <time>1970-01-01T00:12:19.000Z</time>
      </trkpt>
      <trkpt lat="41.099799" lon="-6.745528">
        <ele>380.9</ele>
        <time>1970-01-01T00:12:20.000Z</time>
      </trkpt>
      <trkpt lat="41.099794" lon="-6.745582">
        <ele>380.9</ele>
        <time>1970-01-01T00:12:21.000Z</time>
      </trkpt>
      <trkpt lat="41.099789" lon="-6.745633">
        <ele>381.6</ele>
        <time>1970-01-01T00:12:22.000Z</time>
      </trkpt>
      <trkpt lat="41.099785" lon="-6.745681">
        <ele>381.4</ele>
        <time>1970-01-01T00:12:23.000Z</time>
      </trkpt>
      <trkpt lat="41.099783" lon="-6.745726">
        <ele>381.2</ele>
        <time>1970-01-01T00:12:24.000Z</time>
      </trkpt>
      <trkpt lat="41.09978" lon="-6.745769">
        <ele>380.9</ele>
        <time>1970-01-01T00:12:25.000Z</time>
      </trkpt>
      <trkpt lat="41.099773" lon="-6.745812">
        <ele>380.7</ele>
        <time>1970-01-01T00:12:26.000Z</time>
      </trkpt>
      <trkpt lat="41.099763" lon="-6.745853">
        <ele>380.4</ele>
        <time>1970-01-01T00:12:27.000Z</time>
      </trkpt>
      <trkpt lat="41.099747" lon="-6.74589">
        <ele>380.7</ele>
        <time>1970-01-01T00:12:28.000Z</time>
      </trkpt>
      <trkpt lat="41.099724" lon="-6.745919">
        <ele>381</ele>
        <time>1970-01-01T00:12:29.000Z</time>
      </trkpt>
      <trkpt lat="41.099693" lon="-6.745937">
        <ele>381.7</ele>
        <time>1970-01-01T00:12:30.000Z</time>
      </trkpt>
      <trkpt lat="41.099659" lon="-6.745941">
        <ele>382.3</ele>
        <time>1970-01-01T00:12:31.000Z</time>
      </trkpt>
      <trkpt lat="41.099625" lon="-6.745932">
        <ele>382.8</ele>
        <time>1970-01-01T00:12:32.000Z</time>
      </trkpt>
      <trkpt lat="41.099592" lon="-6.745914">
        <ele>383.3</ele>
        <time>1970-01-01T00:12:33.000Z</time>
      </trkpt>
      <trkpt lat="41.099557" lon="-6.745893">
        <ele>384.3</ele>
        <time>1970-01-01T00:12:34.000Z</time>
      </trkpt>
      <trkpt lat="41.099523" lon="-6.745871">
        <ele>384.7</ele>
        <time>1970-01-01T00:12:35.000Z</time>
      </trkpt>
      <trkpt lat="41.09949" lon="-6.745848">
        <ele>385.6</ele>
        <time>1970-01-01T00:12:36.000Z</time>
      </trkpt>
      <trkpt lat="41.099458" lon="-6.745826">
        <ele>385.9</ele>
        <time>1970-01-01T00:12:37.000Z</time>
      </trkpt>
      <trkpt lat="41.099427" lon="-6.745806">
        <ele>386.9</ele>
        <time>1970-01-01T00:12:38.000Z</time>
      </trkpt>
      <trkpt lat="41.099395" lon="-6.745787">
        <ele>387.2</ele>
        <time>1970-01-01T00:12:39.000Z</time>
      </trkpt>
      <trkpt lat="41.099365" lon="-6.745768">
        <ele>388.1</ele>
        <time>1970-01-01T00:12:40.000Z</time>
      </trkpt>
      <trkpt lat="41.099333" lon="-6.74575">
        <ele>388.3</ele>
        <time>1970-01-01T00:12:41.000Z</time>
      </trkpt>
      <trkpt lat="41.099301" lon="-6.745734">
        <ele>389.1</ele>
        <time>1970-01-01T00:12:42.000Z</time>
      </trkpt>
      <trkpt lat="41.099269" lon="-6.745718">
        <ele>389.2</ele>
        <time>1970-01-01T00:12:43.000Z</time>
      </trkpt>
      <trkpt lat="41.099238" lon="-6.745703">
        <ele>389.2</ele>
        <time>1970-01-01T00:12:44.000Z</time>
      </trkpt>
      <trkpt lat="41.099208" lon="-6.745685">
        <ele>389.9</ele>
        <time>1970-01-01T00:12:45.000Z</time>
      </trkpt>
      <trkpt lat="41.099177" lon="-6.745667">
        <ele>389.8</ele>
        <time>1970-01-01T00:12:46.000Z</time>
      </trkpt>
      <trkpt lat="41.099147" lon="-6.745649">
        <ele>389.9</ele>
        <time>1970-01-01T00:12:47.000Z</time>
      </trkpt>
      <trkpt lat="41.099118" lon="-6.74563">
        <ele>390.6</ele>
        <time>1970-01-01T00:12:48.000Z</time>
      </trkpt>
      <trkpt lat="41.099089" lon="-6.745612">
        <ele>390.5</ele>
        <time>1970-01-01T00:12:49.000Z</time>
      </trkpt>
      <trkpt lat="41.099059" lon="-6.745593">
        <ele>391.6</ele>
        <time>1970-01-01T00:12:50.000Z</time>
      </trkpt>
      <trkpt lat="41.099031" lon="-6.745574">
        <ele>391.4</ele>
        <time>1970-01-01T00:12:51.000Z</time>
      </trkpt>
      <trkpt lat="41.099002" lon="-6.745554">
        <ele>391.9</ele>
        <time>1970-01-01T00:12:52.000Z</time>
      </trkpt>
      <trkpt lat="41.098975" lon="-6.745534">
        <ele>391.6</ele>
        <time>1970-01-01T00:12:53.000Z</time>
      </trkpt>
      <trkpt lat="41.098949" lon="-6.745513">
        <ele>392.1</ele>
        <time>1970-01-01T00:12:54.000Z</time>
      </trkpt>
      <trkpt lat="41.098925" lon="-6.745492">
        <ele>392.2</ele>
        <time>1970-01-01T00:12:55.000Z</time>
      </trkpt>
      <trkpt lat="41.098902" lon="-6.745472">
        <ele>392.6</ele>
        <time>1970-01-01T00:12:56.000Z</time>
      </trkpt>
      <trkpt lat="41.09888" lon="-6.745452">
        <ele>392.3</ele>
        <time>1970-01-01T00:12:57.000Z</time>
      </trkpt>
      <trkpt lat="41.098858" lon="-6.745433">
        <ele>393.1</ele>
        <time>1970-01-01T00:12:58.000Z</time>
      </trkpt>
      <trkpt lat="41.098837" lon="-6.745412">
        <ele>392.8</ele>
        <time>1970-01-01T00:12:59.000Z</time>
      </trkpt>
      <trkpt lat="41.098816" lon="-6.74539">
        <ele>393.3</ele>
        <time>1970-01-01T00:13:00.000Z</time>
      </trkpt>
      <trkpt lat="41.098795" lon="-6.74537">
        <ele>393.4</ele>
        <time>1970-01-01T00:13:01.000Z</time>
      </trkpt>
      <trkpt lat="41.098774" lon="-6.74535">
        <ele>393.1</ele>
        <time>1970-01-01T00:13:02.000Z</time>
      </trkpt>
      <trkpt lat="41.098753" lon="-6.745331">
        <ele>393.7</ele>
        <time>1970-01-01T00:13:03.000Z</time>
      </trkpt>
      <trkpt lat="41.098732" lon="-6.745311">
        <ele>393.8</ele>
        <time>1970-01-01T00:13:04.000Z</time>
      </trkpt>
      <trkpt lat="41.09871" lon="-6.745291">
        <ele>394.4</ele>
        <time>1970-01-01T00:13:05.000Z</time>
      </trkpt>
      <trkpt lat="41.098688" lon="-6.745271">
        <ele>394.1</ele>
        <time>1970-01-01T00:13:06.000Z</time>
      </trkpt>
      <trkpt lat="41.098667" lon="-6.74525">
        <ele>395</ele>
        <time>1970-01-01T00:13:07.000Z</time>
      </trkpt>
      <trkpt lat="41.098646" lon="-6.74523">
        <ele>394.7</ele>
        <time>1970-01-01T00:13:08.000Z</time>
      </trkpt>
      <trkpt lat="41.098625" lon="-6.745211">
        <ele>395.3</ele>
        <time>1970-01-01T00:13:09.000Z</time>
      </trkpt>
      <trkpt lat="41.098604" lon="-6.745194">
        <ele>395.4</ele>
        <time>1970-01-01T00:13:10.000Z</time>
      </trkpt>
      <trkpt lat="41.098582" lon="-6.745177">
        <ele>395.1</ele>
        <time>1970-01-01T00:13:11.000Z</time>
      </trkpt>
      <trkpt lat="41.098561" lon="-6.745162">
        <ele>395.6</ele>
        <time>1970-01-01T00:13:12.000Z</time>
      </trkpt>
      <trkpt lat="41.098541" lon="-6.745147">
        <ele>395.7</ele>
        <time>1970-01-01T00:13:13.000Z</time>
      </trkpt>
      <trkpt lat="41.098521" lon="-6.745132">
        <ele>396.2</ele>
        <time>1970-01-01T00:13:14.000Z</time>
      </trkpt>
      <trkpt lat="41.098502" lon="-6.745117">
        <ele>396.3</ele>
        <time>1970-01-01T00:13:15.000Z</time>
      </trkpt>
      <trkpt lat="41.098482" lon="-6.745102">
        <ele>396.1</ele>
        <time>1970-01-01T00:13:16.000Z</time>
      </trkpt>
      <trkpt lat="41.098461" lon="-6.745087">
        <ele>396.6</ele>
        <time>1970-01-01T00:13:17.000Z</time>
      </trkpt>
      <trkpt lat="41.098441" lon="-6.745072">
        <ele>396.7</ele>
        <time>1970-01-01T00:13:18.000Z</time>
      </trkpt>
      <trkpt lat="41.098421" lon="-6.745057">
        <ele>396.5</ele>
        <time>1970-01-01T00:13:19.000Z</time>
      </trkpt>
      <trkpt lat="41.098401" lon="-6.745043">
        <ele>397.1</ele>
        <time>1970-01-01T00:13:20.000Z</time>
      </trkpt>
      <trkpt lat="41.098381" lon="-6.745029">
        <ele>397.2</ele>
        <time>1970-01-01T00:13:21.000Z</time>
      </trkpt>
      <trkpt lat="41.098361" lon="-6.745016">
        <ele>396.9</ele>
        <time>1970-01-01T00:13:22.000Z</time>
      </trkpt>
      <trkpt lat="41.09834" lon="-6.745003">
        <ele>397.9</ele>
        <time>1970-01-01T00:13:23.000Z</time>
      </trkpt>
      <trkpt lat="41.098319" lon="-6.74499">
        <ele>397.7</ele>
        <time>1970-01-01T00:13:24.000Z</time>
      </trkpt>
      <trkpt lat="41.098298" lon="-6.744978">
        <ele>397.5</ele>
        <time>1970-01-01T00:13:25.000Z</time>
      </trkpt>
      <trkpt lat="41.098278" lon="-6.744966">
        <ele>397.6</ele>
        <time>1970-01-01T00:13:26.000Z</time>
      </trkpt>
      <trkpt lat="41.098257" lon="-6.744953">
        <ele>398.3</ele>
        <time>1970-01-01T00:13:27.000Z</time>
      </trkpt>
      <trkpt lat="41.098236" lon="-6.744941">
        <ele>398.1</ele>
        <time>1970-01-01T00:13:28.000Z</time>
      </trkpt>
      <trkpt lat="41.098214" lon="-6.744929">
        <ele>398.2</ele>
        <time>1970-01-01T00:13:29.000Z</time>
      </trkpt>
      <trkpt lat="41.098191" lon="-6.744917">
        <ele>398.9</ele>
        <time>1970-01-01T00:13:30.000Z</time>
      </trkpt>
      <trkpt lat="41.098169" lon="-6.744905">
        <ele>398.7</ele>
        <time>1970-01-01T00:13:31.000Z</time>
      </trkpt>
      <trkpt lat="41.098147" lon="-6.744894">
        <ele>398.8</ele>
        <time>1970-01-01T00:13:32.000Z</time>
      </trkpt>
      <trkpt lat="41.098124" lon="-6.744882">
        <ele>398.6</ele>
        <time>1970-01-01T00:13:33.000Z</time>
      </trkpt>
      <trkpt lat="41.098102" lon="-6.744871">
        <ele>399.3</ele>
        <time>1970-01-01T00:13:34.000Z</time>
      </trkpt>
      <trkpt lat="41.098079" lon="-6.74486">
        <ele>399.4</ele>
        <time>1970-01-01T00:13:35.000Z</time>
      </trkpt>
      <trkpt lat="41.098057" lon="-6.744849">
        <ele>399.3</ele>
        <time>1970-01-01T00:13:36.000Z</time>
      </trkpt>
      <trkpt lat="41.098035" lon="-6.744838">
        <ele>399.2</ele>
        <time>1970-01-01T00:13:37.000Z</time>
      </trkpt>
      <trkpt lat="41.098014" lon="-6.744826">
        <ele>400</ele>
        <time>1970-01-01T00:13:38.000Z</time>
      </trkpt>
      <trkpt lat="41.097992" lon="-6.744814">
        <ele>400.1</ele>
        <time>1970-01-01T00:13:39.000Z</time>
      </trkpt>
      <trkpt lat="41.09797" lon="-6.744801">
        <ele>400</ele>
        <time>1970-01-01T00:13:40.000Z</time>
      </trkpt>
      <trkpt lat="41.097948" lon="-6.744789">
        <ele>400.8</ele>
        <time>1970-01-01T00:13:41.000Z</time>
      </trkpt>
      <trkpt lat="41.097926" lon="-6.744776">
        <ele>400.9</ele>
        <time>1970-01-01T00:13:42.000Z</time>
      </trkpt>
      <trkpt lat="41.097903" lon="-6.744764">
        <ele>400.8</ele>
        <time>1970-01-01T00:13:43.000Z</time>
      </trkpt>
      <trkpt lat="41.09788" lon="-6.744752">
        <ele>401.2</ele>
        <time>1970-01-01T00:13:44.000Z</time>
      </trkpt>
      <trkpt lat="41.097857" lon="-6.74474">
        <ele>401.5</ele>
        <time>1970-01-01T00:13:45.000Z</time>
      </trkpt>
      <trkpt lat="41.097834" lon="-6.744728">
        <ele>401.8</ele>
        <time>1970-01-01T00:13:46.000Z</time>
      </trkpt>
      <trkpt lat="41.097812" lon="-6.744715">
        <ele>402.1</ele>
        <time>1970-01-01T00:13:47.000Z</time>
      </trkpt>
      <trkpt lat="41.097791" lon="-6.7447">
        <ele>402.4</ele>
        <time>1970-01-01T00:13:48.000Z</time>
      </trkpt>
      <trkpt lat="41.09777" lon="-6.744685">
        <ele>402.7</ele>
        <time>1970-01-01T00:13:49.000Z</time>
      </trkpt>
      <trkpt lat="41.097749" lon="-6.744669">
        <ele>403</ele>
        <time>1970-01-01T00:13:50.000Z</time>
      </trkpt>
      <trkpt lat="41.097729" lon="-6.744652">
        <ele>403.3</ele>
        <time>1970-01-01T00:13:51.000Z</time>
      </trkpt>
      <trkpt lat="41.097708" lon="-6.744632">
        <ele>403.6</ele>
        <time>1970-01-01T00:13:52.000Z</time>
      </trkpt>
      <trkpt lat="41.097688" lon="-6.744612">
        <ele>404</ele>
        <time>1970-01-01T00:13:53.000Z</time>
      </trkpt>
      <trkpt lat="41.097667" lon="-6.744593">
        <ele>404.3</ele>
        <time>1970-01-01T00:13:54.000Z</time>
      </trkpt>
      <trkpt lat="41.097648" lon="-6.744573">
        <ele>404.6</ele>
        <time>1970-01-01T00:13:55.000Z</time>
      </trkpt>
      <trkpt lat="41.097629" lon="-6.744552">
        <ele>404.9</ele>
        <time>1970-01-01T00:13:56.000Z</time>
      </trkpt>
      <trkpt lat="41.097611" lon="-6.744532">
        <ele>405.2</ele>
        <time>1970-01-01T00:13:57.000Z</time>
      </trkpt>
      <trkpt lat="41.097593" lon="-6.74451">
        <ele>405.5</ele>
        <time>1970-01-01T00:13:58.000Z</time>
      </trkpt>
      <trkpt lat="41.097577" lon="-6.744488">
        <ele>405.8</ele>
        <time>1970-01-01T00:13:59.000Z</time>
      </trkpt>
      <trkpt lat="41.097561" lon="-6.744466">
        <ele>406.1</ele>
        <time>1970-01-01T00:14:00.000Z</time>
      </trkpt>
      <trkpt lat="41.097544" lon="-6.744445">
        <ele>406.4</ele>
        <time>1970-01-01T00:14:01.000Z</time>
      </trkpt>
      <trkpt lat="41.097526" lon="-6.744424">
        <ele>406.7</ele>
        <time>1970-01-01T00:14:02.000Z</time>
      </trkpt>
      <trkpt lat="41.097508" lon="-6.744404">
        <ele>407</ele>
        <time>1970-01-01T00:14:03.000Z</time>
      </trkpt>
      <trkpt lat="41.09749" lon="-6.744384">
        <ele>407.3</ele>
        <time>1970-01-01T00:14:04.000Z</time>
      </trkpt>
      <trkpt lat="41.097471" lon="-6.744364">
        <ele>408.1</ele>
        <time>1970-01-01T00:14:05.000Z</time>
      </trkpt>
      <trkpt lat="41.097451" lon="-6.744345">
        <ele>408.5</ele>
        <time>1970-01-01T00:14:06.000Z</time>
      </trkpt>
      <trkpt lat="41.097431" lon="-6.744327">
        <ele>408.8</ele>
        <time>1970-01-01T00:14:07.000Z</time>
      </trkpt>
      <trkpt lat="41.09741" lon="-6.744311">
        <ele>409.1</ele>
        <time>1970-01-01T00:14:08.000Z</time>
      </trkpt>
      <trkpt lat="41.097388" lon="-6.744295">
        <ele>409.5</ele>
        <time>1970-01-01T00:14:09.000Z</time>
      </trkpt>
      <trkpt lat="41.097366" lon="-6.74428">
        <ele>409.8</ele>
        <time>1970-01-01T00:14:10.000Z</time>
      </trkpt>
      <trkpt lat="41.097344" lon="-6.744265">
        <ele>410.1</ele>
        <time>1970-01-01T00:14:11.000Z</time>
      </trkpt>
      <trkpt lat="41.097322" lon="-6.744252">
        <ele>410.5</ele>
        <time>1970-01-01T00:14:12.000Z</time>
      </trkpt>
      <trkpt lat="41.0973" lon="-6.744241">
        <ele>410.8</ele>
        <time>1970-01-01T00:14:13.000Z</time>
      </trkpt>
      <trkpt lat="41.097279" lon="-6.74423">
        <ele>411.1</ele>
        <time>1970-01-01T00:14:14.000Z</time>
      </trkpt>
      <trkpt lat="41.097259" lon="-6.744221">
        <ele>411.4</ele>
        <time>1970-01-01T00:14:15.000Z</time>
      </trkpt>
      <trkpt lat="41.097239" lon="-6.744213">
        <ele>411.7</ele>
        <time>1970-01-01T00:14:16.000Z</time>
      </trkpt>
      <trkpt lat="41.097218" lon="-6.744206">
        <ele>412</ele>
        <time>1970-01-01T00:14:17.000Z</time>
      </trkpt>
      <trkpt lat="41.097199" lon="-6.744201">
        <ele>412.2</ele>
        <time>1970-01-01T00:14:18.000Z</time>
      </trkpt>
      <trkpt lat="41.097179" lon="-6.744196">
        <ele>412.5</ele>
        <time>1970-01-01T00:14:19.000Z</time>
      </trkpt>
      <trkpt lat="41.097161" lon="-6.744192">
        <ele>412.8</ele>
        <time>1970-01-01T00:14:20.000Z</time>
      </trkpt>
      <trkpt lat="41.097143" lon="-6.744187">
        <ele>413</ele>
        <time>1970-01-01T00:14:21.000Z</time>
      </trkpt>
      <trkpt lat="41.097126" lon="-6.744181">
        <ele>413.3</ele>
        <time>1970-01-01T00:14:22.000Z</time>
      </trkpt>
      <trkpt lat="41.097108" lon="-6.744176">
        <ele>413.5</ele>
        <time>1970-01-01T00:14:23.000Z</time>
      </trkpt>
      <trkpt lat="41.09709" lon="-6.744171">
        <ele>413.8</ele>
        <time>1970-01-01T00:14:24.000Z</time>
      </trkpt>
      <trkpt lat="41.097072" lon="-6.744166">
        <ele>414</ele>
        <time>1970-01-01T00:14:25.000Z</time>
      </trkpt>
      <trkpt lat="41.097055" lon="-6.744162">
        <ele>414.3</ele>
        <time>1970-01-01T00:14:26.000Z</time>
      </trkpt>
      <trkpt lat="41.097037" lon="-6.744157">
        <ele>414.5</ele>
        <time>1970-01-01T00:14:27.000Z</time>
      </trkpt>
      <trkpt lat="41.09702" lon="-6.744152">
        <ele>414.7</ele>
        <time>1970-01-01T00:14:28.000Z</time>
      </trkpt>
      <trkpt lat="41.097002" lon="-6.744147">
        <ele>415</ele>
        <time>1970-01-01T00:14:29.000Z</time>
      </trkpt>
      <trkpt lat="41.096985" lon="-6.744141">
        <ele>415.2</ele>
        <time>1970-01-01T00:14:30.000Z</time>
      </trkpt>
      <trkpt lat="41.096967" lon="-6.744135">
        <ele>415.5</ele>
        <time>1970-01-01T00:14:31.000Z</time>
      </trkpt>
      <trkpt lat="41.09695" lon="-6.74413">
        <ele>415.7</ele>
        <time>1970-01-01T00:14:32.000Z</time>
      </trkpt>
      <trkpt lat="41.096932" lon="-6.744124">
        <ele>416</ele>
        <time>1970-01-01T00:14:33.000Z</time>
      </trkpt>
      <trkpt lat="41.096914" lon="-6.744118">
        <ele>416.2</ele>
        <time>1970-01-01T00:14:34.000Z</time>
      </trkpt>
      <trkpt lat="41.096896" lon="-6.744113">
        <ele>416.5</ele>
        <time>1970-01-01T00:14:35.000Z</time>
      </trkpt>
      <trkpt lat="41.096878" lon="-6.744109">
        <ele>416.7</ele>
        <time>1970-01-01T00:14:36.000Z</time>
      </trkpt>
      <trkpt lat="41.09686" lon="-6.744106">
        <ele>417</ele>
        <time>1970-01-01T00:14:37.000Z</time>
      </trkpt>
      <trkpt lat="41.096843" lon="-6.744103">
        <ele>417.2</ele>
        <time>1970-01-01T00:14:38.000Z</time>
      </trkpt>
      <trkpt lat="41.096826" lon="-6.744098">
        <ele>417.5</ele>
        <time>1970-01-01T00:14:39.000Z</time>
      </trkpt>
      <trkpt lat="41.096809" lon="-6.744093">
        <ele>417.7</ele>
        <time>1970-01-01T00:14:40.000Z</time>
      </trkpt>
      <trkpt lat="41.096792" lon="-6.744087">
        <ele>417.9</ele>
        <time>1970-01-01T00:14:41.000Z</time>
      </trkpt>
      <trkpt lat="41.096775" lon="-6.744082">
        <ele>418.2</ele>
        <time>1970-01-01T00:14:42.000Z</time>
      </trkpt>
      <trkpt lat="41.096759" lon="-6.744076">
        <ele>418.4</ele>
        <time>1970-01-01T00:14:43.000Z</time>
      </trkpt>
      <trkpt lat="41.096742" lon="-6.744071">
        <ele>418.7</ele>
        <time>1970-01-01T00:14:44.000Z</time>
      </trkpt>
      <trkpt lat="41.096725" lon="-6.744066">
        <ele>418.9</ele>
        <time>1970-01-01T00:14:45.000Z</time>
      </trkpt>
      <trkpt lat="41.096708" lon="-6.744062">
        <ele>419.1</ele>
        <time>1970-01-01T00:14:46.000Z</time>
      </trkpt>
      <trkpt lat="41.09669" lon="-6.744059">
        <ele>419.4</ele>
        <time>1970-01-01T00:14:47.000Z</time>
      </trkpt>
      <trkpt lat="41.096672" lon="-6.744055">
        <ele>419.6</ele>
        <time>1970-01-01T00:14:48.000Z</time>
      </trkpt>
      <trkpt lat="41.096654" lon="-6.744049">
        <ele>419.9</ele>
        <time>1970-01-01T00:14:49.000Z</time>
      </trkpt>
      <trkpt lat="41.096636" lon="-6.744044">
        <ele>420.1</ele>
        <time>1970-01-01T00:14:50.000Z</time>
      </trkpt>
      <trkpt lat="41.096619" lon="-6.744039">
        <ele>420.4</ele>
        <time>1970-01-01T00:14:51.000Z</time>
      </trkpt>
      <trkpt lat="41.096602" lon="-6.744036">
        <ele>420.6</ele>
        <time>1970-01-01T00:14:52.000Z</time>
      </trkpt>
      <trkpt lat="41.096584" lon="-6.744033">
        <ele>420.9</ele>
        <time>1970-01-01T00:14:53.000Z</time>
      </trkpt>
      <trkpt lat="41.096567" lon="-6.744031">
        <ele>421.1</ele>
        <time>1970-01-01T00:14:54.000Z</time>
      </trkpt>
      <trkpt lat="41.096549" lon="-6.744029">
        <ele>421.3</ele>
        <time>1970-01-01T00:14:55.000Z</time>
      </trkpt>
      <trkpt lat="41.096532" lon="-6.744026">
        <ele>421.6</ele>
        <time>1970-01-01T00:14:56.000Z</time>
      </trkpt>
      <trkpt lat="41.096515" lon="-6.744024">
        <ele>421.8</ele>
        <time>1970-01-01T00:14:57.000Z</time>
      </trkpt>
      <trkpt lat="41.096497" lon="-6.744024">
        <ele>422.1</ele>
        <time>1970-01-01T00:14:58.000Z</time>
      </trkpt>
      <trkpt lat="41.096478" lon="-6.744023">
        <ele>422.3</ele>
        <time>1970-01-01T00:14:59.000Z</time>
      </trkpt>
      <trkpt lat="41.09646" lon="-6.744022">
        <ele>422.6</ele>
        <time>1970-01-01T00:15:00.000Z</time>
      </trkpt>
      <trkpt lat="41.096442" lon="-6.744018">
        <ele>422.8</ele>
        <time>1970-01-01T00:15:01.000Z</time>
      </trkpt>
      <trkpt lat="41.096424" lon="-6.744014">
        <ele>423.1</ele>
        <time>1970-01-01T00:15:02.000Z</time>
      </trkpt>
      <trkpt lat="41.096406" lon="-6.744011">
        <ele>423.3</ele>
        <time>1970-01-01T00:15:03.000Z</time>
      </trkpt>
      <trkpt lat="41.096387" lon="-6.744008">
        <ele>423.6</ele>
        <time>1970-01-01T00:15:04.000Z</time>
      </trkpt>
      <trkpt lat="41.096368" lon="-6.744005">
        <ele>423.8</ele>
        <time>1970-01-01T00:15:05.000Z</time>
      </trkpt>
      <trkpt lat="41.096349" lon="-6.744004">
        <ele>424.1</ele>
        <time>1970-01-01T00:15:06.000Z</time>
      </trkpt>
      <trkpt lat="41.096331" lon="-6.744002">
        <ele>424.3</ele>
        <time>1970-01-01T00:15:07.000Z</time>
      </trkpt>
      <trkpt lat="41.096312" lon="-6.744001">
        <ele>424.6</ele>
        <time>1970-01-01T00:15:08.000Z</time>
      </trkpt>
      <trkpt lat="41.096294" lon="-6.743997">
        <ele>424.9</ele>
        <time>1970-01-01T00:15:09.000Z</time>
      </trkpt>
      <trkpt lat="41.096277" lon="-6.74399">
        <ele>425.1</ele>
        <time>1970-01-01T00:15:10.000Z</time>
      </trkpt>
      <trkpt lat="41.096259" lon="-6.743983">
        <ele>425.4</ele>
        <time>1970-01-01T00:15:11.000Z</time>
      </trkpt>
      <trkpt lat="41.096241" lon="-6.743975">
        <ele>425.6</ele>
        <time>1970-01-01T00:15:12.000Z</time>
      </trkpt>
      <trkpt lat="41.096222" lon="-6.743967">
        <ele>425.9</ele>
        <time>1970-01-01T00:15:13.000Z</time>
      </trkpt>
      <trkpt lat="41.096204" lon="-6.743959">
        <ele>426.1</ele>
        <time>1970-01-01T00:15:14.000Z</time>
      </trkpt>
      <trkpt lat="41.096186" lon="-6.74395">
        <ele>426.4</ele>
        <time>1970-01-01T00:15:15.000Z</time>
      </trkpt>
      <trkpt lat="41.096169" lon="-6.74394">
        <ele>426.7</ele>
        <time>1970-01-01T00:15:16.000Z</time>
      </trkpt>
      <trkpt lat="41.096152" lon="-6.743928">
        <ele>426.9</ele>
        <time>1970-01-01T00:15:17.000Z</time>
      </trkpt>
      <trkpt lat="41.096135" lon="-6.743915">
        <ele>427.2</ele>
        <time>1970-01-01T00:15:18.000Z</time>
      </trkpt>
      <trkpt lat="41.096119" lon="-6.743903">
        <ele>427.5</ele>
        <time>1970-01-01T00:15:19.000Z</time>
      </trkpt>
      <trkpt lat="41.096103" lon="-6.743891">
        <ele>427.7</ele>
        <time>1970-01-01T00:15:20.000Z</time>
      </trkpt>
      <trkpt lat="41.096087" lon="-6.743878">
        <ele>428</ele>
        <time>1970-01-01T00:15:21.000Z</time>
      </trkpt>
      <trkpt lat="41.096071" lon="-6.743863">
        <ele>428.2</ele>
        <time>1970-01-01T00:15:22.000Z</time>
      </trkpt>
      <trkpt lat="41.096055" lon="-6.743849">
        <ele>428.5</ele>
        <time>1970-01-01T00:15:23.000Z</time>
      </trkpt>
      <trkpt lat="41.09604" lon="-6.743834">
        <ele>428.7</ele>
        <time>1970-01-01T00:15:24.000Z</time>
      </trkpt>
      <trkpt lat="41.096024" lon="-6.743821">
        <ele>429</ele>
        <time>1970-01-01T00:15:25.000Z</time>
      </trkpt>
      <trkpt lat="41.096008" lon="-6.743808">
        <ele>429.3</ele>
        <time>1970-01-01T00:15:26.000Z</time>
      </trkpt>
      <trkpt lat="41.095993" lon="-6.743795">
        <ele>429.5</ele>
        <time>1970-01-01T00:15:27.000Z</time>
      </trkpt>
      <trkpt lat="41.095977" lon="-6.743783">
        <ele>429.8</ele>
        <time>1970-01-01T00:15:28.000Z</time>
      </trkpt>
      <trkpt lat="41.09596" lon="-6.743772">
        <ele>430</ele>
        <time>1970-01-01T00:15:29.000Z</time>
      </trkpt>
      <trkpt lat="41.095943" lon="-6.743762">
        <ele>430.3</ele>
        <time>1970-01-01T00:15:30.000Z</time>
      </trkpt>
      <trkpt lat="41.095926" lon="-6.743753">
        <ele>430.5</ele>
        <time>1970-01-01T00:15:31.000Z</time>
      </trkpt>
      <trkpt lat="41.095909" lon="-6.743745">
        <ele>430.8</ele>
        <time>1970-01-01T00:15:32.000Z</time>
      </trkpt>
      <trkpt lat="41.095891" lon="-6.743739">
        <ele>431</ele>
        <time>1970-01-01T00:15:33.000Z</time>
      </trkpt>
      <trkpt lat="41.095873" lon="-6.743733">
        <ele>431.3</ele>
        <time>1970-01-01T00:15:34.000Z</time>
      </trkpt>
      <trkpt lat="41.095855" lon="-6.743729">
        <ele>431.5</ele>
        <time>1970-01-01T00:15:35.000Z</time>
      </trkpt>
      <trkpt lat="41.095837" lon="-6.743726">
        <ele>431.8</ele>
        <time>1970-01-01T00:15:36.000Z</time>
      </trkpt>
      <trkpt lat="41.095819" lon="-6.743724">
        <ele>432</ele>
        <time>1970-01-01T00:15:37.000Z</time>
      </trkpt>
      <trkpt lat="41.095801" lon="-6.743722">
        <ele>432.3</ele>
        <time>1970-01-01T00:15:38.000Z</time>
      </trkpt>
      <trkpt lat="41.095782" lon="-6.74372">
        <ele>432.5</ele>
        <time>1970-01-01T00:15:39.000Z</time>
      </trkpt>
      <trkpt lat="41.095763" lon="-6.743719">
        <ele>432.8</ele>
        <time>1970-01-01T00:15:40.000Z</time>
      </trkpt>
      <trkpt lat="41.095744" lon="-6.743719">
        <ele>433.1</ele>
        <time>1970-01-01T00:15:41.000Z</time>
      </trkpt>
      <trkpt lat="41.095725" lon="-6.743719">
        <ele>433.3</ele>
        <time>1970-01-01T00:15:42.000Z</time>
      </trkpt>
      <trkpt lat="41.095705" lon="-6.743721">
        <ele>433.6</ele>
        <time>1970-01-01T00:15:43.000Z</time>
      </trkpt>
      <trkpt lat="41.095686" lon="-6.743724">
        <ele>433.9</ele>
        <time>1970-01-01T00:15:44.000Z</time>
      </trkpt>
      <trkpt lat="41.095666" lon="-6.743729">
        <ele>434.1</ele>
        <time>1970-01-01T00:15:45.000Z</time>
      </trkpt>
      <trkpt lat="41.095646" lon="-6.743733">
        <ele>434.4</ele>
        <time>1970-01-01T00:15:46.000Z</time>
      </trkpt>
      <trkpt lat="41.095626" lon="-6.743737">
        <ele>434.7</ele>
        <time>1970-01-01T00:15:47.000Z</time>
      </trkpt>
      <trkpt lat="41.095605" lon="-6.74374">
        <ele>435</ele>
        <time>1970-01-01T00:15:48.000Z</time>
      </trkpt>
      <trkpt lat="41.095583" lon="-6.743742">
        <ele>435.3</ele>
        <time>1970-01-01T00:15:49.000Z</time>
      </trkpt>
      <trkpt lat="41.095562" lon="-6.743746">
        <ele>435.6</ele>
        <time>1970-01-01T00:15:50.000Z</time>
      </trkpt>
      <trkpt lat="41.095541" lon="-6.74375">
        <ele>435.9</ele>
        <time>1970-01-01T00:15:51.000Z</time>
      </trkpt>
      <trkpt lat="41.095519" lon="-6.743754">
        <ele>436.2</ele>
        <time>1970-01-01T00:15:52.000Z</time>
      </trkpt>
      <trkpt lat="41.095497" lon="-6.743759">
        <ele>436.5</ele>
        <time>1970-01-01T00:15:53.000Z</time>
      </trkpt>
      <trkpt lat="41.095473" lon="-6.743763">
        <ele>436.8</ele>
        <time>1970-01-01T00:15:54.000Z</time>
      </trkpt>
      <trkpt lat="41.09545" lon="-6.743769">
        <ele>437.1</ele>
        <time>1970-01-01T00:15:55.000Z</time>
      </trkpt>
      <trkpt lat="41.095426" lon="-6.743775">
        <ele>437.5</ele>
        <time>1970-01-01T00:15:56.000Z</time>
      </trkpt>
      <trkpt lat="41.095402" lon="-6.74378">
        <ele>437.8</ele>
        <time>1970-01-01T00:15:57.000Z</time>
      </trkpt>
      <trkpt lat="41.095378" lon="-6.743785">
        <ele>438.1</ele>
        <time>1970-01-01T00:15:58.000Z</time>
      </trkpt>
      <trkpt lat="41.095354" lon="-6.74379">
        <ele>438.5</ele>
        <time>1970-01-01T00:15:59.000Z</time>
      </trkpt>
      <trkpt lat="41.095329" lon="-6.743794">
        <ele>438.8</ele>
        <time>1970-01-01T00:16:00.000Z</time>
      </trkpt>
      <trkpt lat="41.095305" lon="-6.743799">
        <ele>439.1</ele>
        <time>1970-01-01T00:16:01.000Z</time>
      </trkpt>
      <trkpt lat="41.095282" lon="-6.743804">
        <ele>439.5</ele>
        <time>1970-01-01T00:16:02.000Z</time>
      </trkpt>
      <trkpt lat="41.095259" lon="-6.74381">
        <ele>439.8</ele>
        <time>1970-01-01T00:16:03.000Z</time>
      </trkpt>
      <trkpt lat="41.095235" lon="-6.743814">
        <ele>440.1</ele>
        <time>1970-01-01T00:16:04.000Z</time>
      </trkpt>
      <trkpt lat="41.095211" lon="-6.743817">
        <ele>440.4</ele>
        <time>1970-01-01T00:16:05.000Z</time>
      </trkpt>
      <trkpt lat="41.095187" lon="-6.74382">
        <ele>440.8</ele>
        <time>1970-01-01T00:16:06.000Z</time>
      </trkpt>
      <trkpt lat="41.095163" lon="-6.743822">
        <ele>441.1</ele>
        <time>1970-01-01T00:16:07.000Z</time>
      </trkpt>
      <trkpt lat="41.095139" lon="-6.743823">
        <ele>441.4</ele>
        <time>1970-01-01T00:16:08.000Z</time>
      </trkpt>
      <trkpt lat="41.095116" lon="-6.743823">
        <ele>441.7</ele>
        <time>1970-01-01T00:16:09.000Z</time>
      </trkpt>
      <trkpt lat="41.095093" lon="-6.743822">
        <ele>442.1</ele>
        <time>1970-01-01T00:16:10.000Z</time>
      </trkpt>
      <trkpt lat="41.095071" lon="-6.743819">
        <ele>442.4</ele>
        <time>1970-01-01T00:16:11.000Z</time>
      </trkpt>
      <trkpt lat="41.09505" lon="-6.743813">
        <ele>442.7</ele>
        <time>1970-01-01T00:16:12.000Z</time>
      </trkpt>
      <trkpt lat="41.095031" lon="-6.743805">
        <ele>442.9</ele>
        <time>1970-01-01T00:16:13.000Z</time>
      </trkpt>
      <trkpt lat="41.095012" lon="-6.743798">
        <ele>443.2</ele>
        <time>1970-01-01T00:16:14.000Z</time>
      </trkpt>
      <trkpt lat="41.094992" lon="-6.743791">
        <ele>443.5</ele>
        <time>1970-01-01T00:16:15.000Z</time>
      </trkpt>
      <trkpt lat="41.094973" lon="-6.743783">
        <ele>443.8</ele>
        <time>1970-01-01T00:16:16.000Z</time>
      </trkpt>
      <trkpt lat="41.094954" lon="-6.743773">
        <ele>444</ele>
        <time>1970-01-01T00:16:17.000Z</time>
      </trkpt>
      <trkpt lat="41.094935" lon="-6.743761">
        <ele>444.3</ele>
        <time>1970-01-01T00:16:18.000Z</time>
      </trkpt>
      <trkpt lat="41.094916" lon="-6.743749">
        <ele>444.6</ele>
        <time>1970-01-01T00:16:19.000Z</time>
      </trkpt>
      <trkpt lat="41.094898" lon="-6.743735">
        <ele>444.9</ele>
        <time>1970-01-01T00:16:20.000Z</time>
      </trkpt>
      <trkpt lat="41.09488" lon="-6.743722">
        <ele>445.2</ele>
        <time>1970-01-01T00:16:21.000Z</time>
      </trkpt>
      <trkpt lat="41.094863" lon="-6.743709">
        <ele>445.4</ele>
        <time>1970-01-01T00:16:22.000Z</time>
      </trkpt>
      <trkpt lat="41.094845" lon="-6.743696">
        <ele>445.7</ele>
        <time>1970-01-01T00:16:23.000Z</time>
      </trkpt>
      <trkpt lat="41.094828" lon="-6.743681">
        <ele>446</ele>
        <time>1970-01-01T00:16:24.000Z</time>
      </trkpt>
      <trkpt lat="41.094811" lon="-6.743667">
        <ele>446.3</ele>
        <time>1970-01-01T00:16:25.000Z</time>
      </trkpt>
      <trkpt lat="41.094794" lon="-6.743651">
        <ele>446.6</ele>
        <time>1970-01-01T00:16:26.000Z</time>
      </trkpt>
      <trkpt lat="41.094778" lon="-6.743635">
        <ele>446.8</ele>
        <time>1970-01-01T00:16:27.000Z</time>
      </trkpt>
      <trkpt lat="41.094762" lon="-6.743618">
        <ele>447.1</ele>
        <time>1970-01-01T00:16:28.000Z</time>
      </trkpt>
      <trkpt lat="41.094746" lon="-6.743601">
        <ele>447.4</ele>
        <time>1970-01-01T00:16:29.000Z</time>
      </trkpt>
      <trkpt lat="41.09473" lon="-6.743584">
        <ele>447.7</ele>
        <time>1970-01-01T00:16:30.000Z</time>
      </trkpt>
      <trkpt lat="41.094715" lon="-6.743566">
        <ele>448</ele>
        <time>1970-01-01T00:16:31.000Z</time>
      </trkpt>
      <trkpt lat="41.0947" lon="-6.743547">
        <ele>448.2</ele>
        <time>1970-01-01T00:16:32.000Z</time>
      </trkpt>
      <trkpt lat="41.094686" lon="-6.743528">
        <ele>448.5</ele>
        <time>1970-01-01T00:16:33.000Z</time>
      </trkpt>
      <trkpt lat="41.094673" lon="-6.74351">
        <ele>448.8</ele>
        <time>1970-01-01T00:16:34.000Z</time>
      </trkpt>
      <trkpt lat="41.094661" lon="-6.743492">
        <ele>449</ele>
        <time>1970-01-01T00:16:35.000Z</time>
      </trkpt>
      <trkpt lat="41.094648" lon="-6.743474">
        <ele>449.3</ele>
        <time>1970-01-01T00:16:36.000Z</time>
      </trkpt>
      <trkpt lat="41.094636" lon="-6.743458">
        <ele>449.5</ele>
        <time>1970-01-01T00:16:37.000Z</time>
      </trkpt>
      <trkpt lat="41.094623" lon="-6.743442">
        <ele>449.8</ele>
        <time>1970-01-01T00:16:38.000Z</time>
      </trkpt>
      <trkpt lat="41.094611" lon="-6.743425">
        <ele>450</ele>
        <time>1970-01-01T00:16:39.000Z</time>
      </trkpt>
      <trkpt lat="41.0946" lon="-6.743406">
        <ele>450.3</ele>
        <time>1970-01-01T00:16:40.000Z</time>
      </trkpt>
      <trkpt lat="41.09459" lon="-6.743387">
        <ele>450.5</ele>
        <time>1970-01-01T00:16:41.000Z</time>
      </trkpt>
      <trkpt lat="41.094579" lon="-6.743367">
        <ele>450.7</ele>
        <time>1970-01-01T00:16:42.000Z</time>
      </trkpt>
      <trkpt lat="41.094569" lon="-6.743347">
        <ele>451</ele>
        <time>1970-01-01T00:16:43.000Z</time>
      </trkpt>
      <trkpt lat="41.094559" lon="-6.743327">
        <ele>451.2</ele>
        <time>1970-01-01T00:16:44.000Z</time>
      </trkpt>
      <trkpt lat="41.094548" lon="-6.743308">
        <ele>451.5</ele>
        <time>1970-01-01T00:16:45.000Z</time>
      </trkpt>
      <trkpt lat="41.094537" lon="-6.743289">
        <ele>451.7</ele>
        <time>1970-01-01T00:16:46.000Z</time>
      </trkpt>
      <trkpt lat="41.094526" lon="-6.743269">
        <ele>452</ele>
        <time>1970-01-01T00:16:47.000Z</time>
      </trkpt>
      <trkpt lat="41.094516" lon="-6.743249">
        <ele>452.2</ele>
        <time>1970-01-01T00:16:48.000Z</time>
      </trkpt>
      <trkpt lat="41.094506" lon="-6.743227">
        <ele>452.5</ele>
        <time>1970-01-01T00:16:49.000Z</time>
      </trkpt>
      <trkpt lat="41.094496" lon="-6.743206">
        <ele>452.8</ele>
        <time>1970-01-01T00:16:50.000Z</time>
      </trkpt>
      <trkpt lat="41.094486" lon="-6.743185">
        <ele>453</ele>
        <time>1970-01-01T00:16:51.000Z</time>
      </trkpt>
      <trkpt lat="41.094474" lon="-6.743164">
        <ele>453.3</ele>
        <time>1970-01-01T00:16:52.000Z</time>
      </trkpt>
      <trkpt lat="41.094463" lon="-6.743143">
        <ele>453.6</ele>
        <time>1970-01-01T00:16:53.000Z</time>
      </trkpt>
      <trkpt lat="41.094452" lon="-6.743123">
        <ele>453.8</ele>
        <time>1970-01-01T00:16:54.000Z</time>
      </trkpt>
      <trkpt lat="41.09444" lon="-6.743102">
        <ele>454.1</ele>
        <time>1970-01-01T00:16:55.000Z</time>
      </trkpt>
      <trkpt lat="41.094429" lon="-6.743079">
        <ele>454.4</ele>
        <time>1970-01-01T00:16:56.000Z</time>
      </trkpt>
      <trkpt lat="41.094419" lon="-6.743056">
        <ele>454.6</ele>
        <time>1970-01-01T00:16:57.000Z</time>
      </trkpt>
      <trkpt lat="41.094407" lon="-6.743032">
        <ele>454.9</ele>
        <time>1970-01-01T00:16:58.000Z</time>
      </trkpt>
      <trkpt lat="41.094395" lon="-6.743007">
        <ele>455.2</ele>
        <time>1970-01-01T00:16:59.000Z</time>
      </trkpt>
      <trkpt lat="41.094384" lon="-6.742984">
        <ele>455.5</ele>
        <time>1970-01-01T00:17:00.000Z</time>
      </trkpt>
      <trkpt lat="41.094372" lon="-6.74296">
        <ele>455.8</ele>
        <time>1970-01-01T00:17:01.000Z</time>
      </trkpt>
      <trkpt lat="41.094361" lon="-6.742937">
        <ele>456.1</ele>
        <time>1970-01-01T00:17:02.000Z</time>
      </trkpt>
      <trkpt lat="41.094349" lon="-6.742914">
        <ele>456.4</ele>
        <time>1970-01-01T00:17:03.000Z</time>
      </trkpt>
      <trkpt lat="41.094338" lon="-6.742891">
        <ele>456.7</ele>
        <time>1970-01-01T00:17:04.000Z</time>
      </trkpt>
      <trkpt lat="41.094326" lon="-6.742867">
        <ele>457</ele>
        <time>1970-01-01T00:17:05.000Z</time>
      </trkpt>
      <trkpt lat="41.094314" lon="-6.742844">
        <ele>457.3</ele>
        <time>1970-01-01T00:17:06.000Z</time>
      </trkpt>
      <trkpt lat="41.094302" lon="-6.742821">
        <ele>457.5</ele>
        <time>1970-01-01T00:17:07.000Z</time>
      </trkpt>
      <trkpt lat="41.09429" lon="-6.742798">
        <ele>457.8</ele>
        <time>1970-01-01T00:17:08.000Z</time>
      </trkpt>
      <trkpt lat="41.094277" lon="-6.742776">
        <ele>458.1</ele>
        <time>1970-01-01T00:17:09.000Z</time>
      </trkpt>
      <trkpt lat="41.094263" lon="-6.742755">
        <ele>458.4</ele>
        <time>1970-01-01T00:17:10.000Z</time>
      </trkpt>
      <trkpt lat="41.094248" lon="-6.742734">
        <ele>458.7</ele>
        <time>1970-01-01T00:17:11.000Z</time>
      </trkpt>
      <trkpt lat="41.094232" lon="-6.742715">
        <ele>459</ele>
        <time>1970-01-01T00:17:12.000Z</time>
      </trkpt>
      <trkpt lat="41.094216" lon="-6.742695">
        <ele>459.3</ele>
        <time>1970-01-01T00:17:13.000Z</time>
      </trkpt>
      <trkpt lat="41.094199" lon="-6.742676">
        <ele>459.6</ele>
        <time>1970-01-01T00:17:14.000Z</time>
      </trkpt>
      <trkpt lat="41.094182" lon="-6.742658">
        <ele>459.9</ele>
        <time>1970-01-01T00:17:15.000Z</time>
      </trkpt>
      <trkpt lat="41.094164" lon="-6.742641">
        <ele>460.2</ele>
        <time>1970-01-01T00:17:16.000Z</time>
      </trkpt>
      <trkpt lat="41.094146" lon="-6.742624">
        <ele>460.5</ele>
        <time>1970-01-01T00:17:17.000Z</time>
      </trkpt>
      <trkpt lat="41.094128" lon="-6.742608">
        <ele>460.8</ele>
        <time>1970-01-01T00:17:18.000Z</time>
      </trkpt>
      <trkpt lat="41.094108" lon="-6.742594">
        <ele>461.1</ele>
        <time>1970-01-01T00:17:19.000Z</time>
      </trkpt>
      <trkpt lat="41.094088" lon="-6.742581">
        <ele>461.4</ele>
        <time>1970-01-01T00:17:20.000Z</time>
      </trkpt>
      <trkpt lat="41.094068" lon="-6.742568">
        <ele>461.7</ele>
        <time>1970-01-01T00:17:21.000Z</time>
      </trkpt>
      <trkpt lat="41.094048" lon="-6.742555">
        <ele>462</ele>
        <time>1970-01-01T00:17:22.000Z</time>
      </trkpt>
      <trkpt lat="41.094028" lon="-6.74254">
        <ele>462.4</ele>
        <time>1970-01-01T00:17:23.000Z</time>
      </trkpt>
      <trkpt lat="41.094009" lon="-6.742526">
        <ele>462.7</ele>
        <time>1970-01-01T00:17:24.000Z</time>
      </trkpt>
      <trkpt lat="41.09399" lon="-6.742513">
        <ele>462.9</ele>
        <time>1970-01-01T00:17:25.000Z</time>
      </trkpt>
      <trkpt lat="41.093972" lon="-6.742501">
        <ele>463.2</ele>
        <time>1970-01-01T00:17:26.000Z</time>
      </trkpt>
      <trkpt lat="41.093954" lon="-6.742489">
        <ele>463.5</ele>
        <time>1970-01-01T00:17:27.000Z</time>
      </trkpt>
      <trkpt lat="41.093935" lon="-6.742476">
        <ele>463.8</ele>
        <time>1970-01-01T00:17:28.000Z</time>
      </trkpt>
      <trkpt lat="41.093916" lon="-6.742463">
        <ele>464.1</ele>
        <time>1970-01-01T00:17:29.000Z</time>
      </trkpt>
      <trkpt lat="41.093898" lon="-6.742449">
        <ele>464.4</ele>
        <time>1970-01-01T00:17:30.000Z</time>
      </trkpt>
      <trkpt lat="41.093879" lon="-6.742435">
        <ele>464.7</ele>
        <time>1970-01-01T00:17:31.000Z</time>
      </trkpt>
      <trkpt lat="41.093861" lon="-6.74242">
        <ele>465</ele>
        <time>1970-01-01T00:17:32.000Z</time>
      </trkpt>
      <trkpt lat="41.093843" lon="-6.742405">
        <ele>465.3</ele>
        <time>1970-01-01T00:17:33.000Z</time>
      </trkpt>
      <trkpt lat="41.093826" lon="-6.742389">
        <ele>465.5</ele>
        <time>1970-01-01T00:17:34.000Z</time>
      </trkpt>
      <trkpt lat="41.09381" lon="-6.742374">
        <ele>465.8</ele>
        <time>1970-01-01T00:17:35.000Z</time>
      </trkpt>
      <trkpt lat="41.093795" lon="-6.74236">
        <ele>466.1</ele>
        <time>1970-01-01T00:17:36.000Z</time>
      </trkpt>
      <trkpt lat="41.09378" lon="-6.742347">
        <ele>466.3</ele>
        <time>1970-01-01T00:17:37.000Z</time>
      </trkpt>
      <trkpt lat="41.093766" lon="-6.742333">
        <ele>466.5</ele>
        <time>1970-01-01T00:17:38.000Z</time>
      </trkpt>
      <trkpt lat="41.093751" lon="-6.74232">
        <ele>466.8</ele>
        <time>1970-01-01T00:17:39.000Z</time>
      </trkpt>
      <trkpt lat="41.093737" lon="-6.742305">
        <ele>467</ele>
        <time>1970-01-01T00:17:40.000Z</time>
      </trkpt>
      <trkpt lat="41.093723" lon="-6.742291">
        <ele>467.3</ele>
        <time>1970-01-01T00:17:41.000Z</time>
      </trkpt>
      <trkpt lat="41.093709" lon="-6.742275">
        <ele>467.5</ele>
        <time>1970-01-01T00:17:42.000Z</time>
      </trkpt>
      <trkpt lat="41.093695" lon="-6.74226">
        <ele>467.6</ele>
        <time>1970-01-01T00:17:43.000Z</time>
      </trkpt>
      <trkpt lat="41.093682" lon="-6.742245">
        <ele>467.8</ele>
        <time>1970-01-01T00:17:44.000Z</time>
      </trkpt>
      <trkpt lat="41.093668" lon="-6.74223">
        <ele>468.1</ele>
        <time>1970-01-01T00:17:45.000Z</time>
      </trkpt>
      <trkpt lat="41.093654" lon="-6.742215">
        <ele>468.3</ele>
        <time>1970-01-01T00:17:46.000Z</time>
      </trkpt>
      <trkpt lat="41.093639" lon="-6.742202">
        <ele>468.6</ele>
        <time>1970-01-01T00:17:47.000Z</time>
      </trkpt>
      <trkpt lat="41.093623" lon="-6.742191">
        <ele>468.8</ele>
        <time>1970-01-01T00:17:48.000Z</time>
      </trkpt>
      <trkpt lat="41.093608" lon="-6.74218">
        <ele>469.1</ele>
        <time>1970-01-01T00:17:49.000Z</time>
      </trkpt>
      <trkpt lat="41.093592" lon="-6.742167">
        <ele>469.3</ele>
        <time>1970-01-01T00:17:50.000Z</time>
      </trkpt>
      <trkpt lat="41.093579" lon="-6.742152">
        <ele>469.6</ele>
        <time>1970-01-01T00:17:51.000Z</time>
      </trkpt>
      <trkpt lat="41.093565" lon="-6.742137">
        <ele>469.8</ele>
        <time>1970-01-01T00:17:52.000Z</time>
      </trkpt>
      <trkpt lat="41.093552" lon="-6.742121">
        <ele>470.1</ele>
        <time>1970-01-01T00:17:53.000Z</time>
      </trkpt>
      <trkpt lat="41.09354" lon="-6.742106">
        <ele>470.3</ele>
        <time>1970-01-01T00:17:54.000Z</time>
      </trkpt>
      <trkpt lat="41.093527" lon="-6.74209">
        <ele>470.6</ele>
        <time>1970-01-01T00:17:55.000Z</time>
      </trkpt>
      <trkpt lat="41.093514" lon="-6.742075">
        <ele>470.8</ele>
        <time>1970-01-01T00:17:56.000Z</time>
      </trkpt>
      <trkpt lat="41.093502" lon="-6.742059">
        <ele>471.1</ele>
        <time>1970-01-01T00:17:57.000Z</time>
      </trkpt>
      <trkpt lat="41.093489" lon="-6.742044">
        <ele>471.3</ele>
        <time>1970-01-01T00:17:58.000Z</time>
      </trkpt>
      <trkpt lat="41.093476" lon="-6.742029">
        <ele>471.6</ele>
        <time>1970-01-01T00:17:59.000Z</time>
      </trkpt>
      <trkpt lat="41.093463" lon="-6.742014">
        <ele>471.8</ele>
        <time>1970-01-01T00:18:00.000Z</time>
      </trkpt>
      <trkpt lat="41.093451" lon="-6.742">
        <ele>472</ele>
        <time>1970-01-01T00:18:01.000Z</time>
      </trkpt>
      <trkpt lat="41.093437" lon="-6.741987">
        <ele>472.3</ele>
        <time>1970-01-01T00:18:02.000Z</time>
      </trkpt>
      <trkpt lat="41.093424" lon="-6.741974">
        <ele>472.5</ele>
        <time>1970-01-01T00:18:03.000Z</time>
      </trkpt>
      <trkpt lat="41.093412" lon="-6.741959">
        <ele>472.7</ele>
        <time>1970-01-01T00:18:04.000Z</time>
      </trkpt>
      <trkpt lat="41.093402" lon="-6.741944">
        <ele>473</ele>
        <time>1970-01-01T00:18:05.000Z</time>
      </trkpt>
      <trkpt lat="41.093391" lon="-6.74193">
        <ele>473.2</ele>
        <time>1970-01-01T00:18:06.000Z</time>
      </trkpt>
      <trkpt lat="41.093378" lon="-6.741917">
        <ele>473.4</ele>
        <time>1970-01-01T00:18:07.000Z</time>
      </trkpt>
      <trkpt lat="41.093364" lon="-6.741905">
        <ele>473.6</ele>
        <time>1970-01-01T00:18:08.000Z</time>
      </trkpt>
      <trkpt lat="41.093352" lon="-6.741892">
        <ele>473.9</ele>
        <time>1970-01-01T00:18:09.000Z</time>
      </trkpt>
      <trkpt lat="41.09334" lon="-6.741877">
        <ele>474.1</ele>
        <time>1970-01-01T00:18:10.000Z</time>
      </trkpt>
      <trkpt lat="41.093327" lon="-6.741863">
        <ele>474.3</ele>
        <time>1970-01-01T00:18:11.000Z</time>
      </trkpt>
      <trkpt lat="41.093312" lon="-6.74185">
        <ele>474.6</ele>
        <time>1970-01-01T00:18:12.000Z</time>
      </trkpt>
      <trkpt lat="41.093298" lon="-6.741838">
        <ele>474.8</ele>
        <time>1970-01-01T00:18:13.000Z</time>
      </trkpt>
      <trkpt lat="41.093284" lon="-6.741827">
        <ele>475.1</ele>
        <time>1970-01-01T00:18:14.000Z</time>
      </trkpt>
      <trkpt lat="41.093268" lon="-6.741815">
        <ele>475.3</ele>
        <time>1970-01-01T00:18:15.000Z</time>
      </trkpt>
      <trkpt lat="41.093252" lon="-6.741806">
        <ele>475.6</ele>
        <time>1970-01-01T00:18:16.000Z</time>
      </trkpt>
      <trkpt lat="41.093235" lon="-6.741797">
        <ele>475.8</ele>
        <time>1970-01-01T00:18:17.000Z</time>
      </trkpt>
      <trkpt lat="41.093218" lon="-6.741789">
        <ele>476.1</ele>
        <time>1970-01-01T00:18:18.000Z</time>
      </trkpt>
      <trkpt lat="41.093199" lon="-6.741784">
        <ele>476.4</ele>
        <time>1970-01-01T00:18:19.000Z</time>
      </trkpt>
      <trkpt lat="41.093181" lon="-6.741781">
        <ele>476.6</ele>
        <time>1970-01-01T00:18:20.000Z</time>
      </trkpt>
      <trkpt lat="41.093162" lon="-6.741781">
        <ele>476.9</ele>
        <time>1970-01-01T00:18:21.000Z</time>
      </trkpt>
      <trkpt lat="41.093143" lon="-6.74178">
        <ele>477.2</ele>
        <time>1970-01-01T00:18:22.000Z</time>
      </trkpt>
      <trkpt lat="41.093124" lon="-6.741777">
        <ele>477.4</ele>
        <time>1970-01-01T00:18:23.000Z</time>
      </trkpt>
      <trkpt lat="41.093106" lon="-6.741771">
        <ele>477.7</ele>
        <time>1970-01-01T00:18:24.000Z</time>
      </trkpt>
      <trkpt lat="41.093089" lon="-6.741763">
        <ele>478</ele>
        <time>1970-01-01T00:18:25.000Z</time>
      </trkpt>
      <trkpt lat="41.093072" lon="-6.741754">
        <ele>478.2</ele>
        <time>1970-01-01T00:18:26.000Z</time>
      </trkpt>
      <trkpt lat="41.093055" lon="-6.741743">
        <ele>478.5</ele>
        <time>1970-01-01T00:18:27.000Z</time>
      </trkpt>
      <trkpt lat="41.09304" lon="-6.74173">
        <ele>478.7</ele>
        <time>1970-01-01T00:18:28.000Z</time>
      </trkpt>
      <trkpt lat="41.093026" lon="-6.741714">
        <ele>479</ele>
        <time>1970-01-01T00:18:29.000Z</time>
      </trkpt>
      <trkpt lat="41.093012" lon="-6.741697">
        <ele>479.3</ele>
        <time>1970-01-01T00:18:30.000Z</time>
      </trkpt>
      <trkpt lat="41.092998" lon="-6.74168">
        <ele>479.6</ele>
        <time>1970-01-01T00:18:31.000Z</time>
      </trkpt>
      <trkpt lat="41.092984" lon="-6.741663">
        <ele>479.8</ele>
        <time>1970-01-01T00:18:32.000Z</time>
      </trkpt>
      <trkpt lat="41.092971" lon="-6.741646">
        <ele>480.1</ele>
        <time>1970-01-01T00:18:33.000Z</time>
      </trkpt>
      <trkpt lat="41.092956" lon="-6.741629">
        <ele>480.4</ele>
        <time>1970-01-01T00:18:34.000Z</time>
      </trkpt>
      <trkpt lat="41.092942" lon="-6.741613">
        <ele>480.6</ele>
        <time>1970-01-01T00:18:35.000Z</time>
      </trkpt>
      <trkpt lat="41.092928" lon="-6.741596">
        <ele>480.9</ele>
        <time>1970-01-01T00:18:36.000Z</time>
      </trkpt>
      <trkpt lat="41.092914" lon="-6.74158">
        <ele>481.2</ele>
        <time>1970-01-01T00:18:37.000Z</time>
      </trkpt>
      <trkpt lat="41.092899" lon="-6.741564">
        <ele>481.4</ele>
        <time>1970-01-01T00:18:38.000Z</time>
      </trkpt>
      <trkpt lat="41.092884" lon="-6.74155">
        <ele>481.7</ele>
        <time>1970-01-01T00:18:39.000Z</time>
      </trkpt>
      <trkpt lat="41.092868" lon="-6.741536">
        <ele>482</ele>
        <time>1970-01-01T00:18:40.000Z</time>
      </trkpt>
      <trkpt lat="41.092852" lon="-6.741523">
        <ele>482.2</ele>
        <time>1970-01-01T00:18:41.000Z</time>
      </trkpt>
      <trkpt lat="41.092836" lon="-6.74151">
        <ele>482.5</ele>
        <time>1970-01-01T00:18:42.000Z</time>
      </trkpt>
      <trkpt lat="41.092821" lon="-6.741496">
        <ele>482.8</ele>
        <time>1970-01-01T00:18:43.000Z</time>
      </trkpt>
      <trkpt lat="41.092806" lon="-6.741482">
        <ele>483</ele>
        <time>1970-01-01T00:18:44.000Z</time>
      </trkpt>
      <trkpt lat="41.092791" lon="-6.741468">
        <ele>483.3</ele>
        <time>1970-01-01T00:18:45.000Z</time>
      </trkpt>
      <trkpt lat="41.092775" lon="-6.741455">
        <ele>483.6</ele>
        <time>1970-01-01T00:18:46.000Z</time>
      </trkpt>
      <trkpt lat="41.09276" lon="-6.741442">
        <ele>483.8</ele>
        <time>1970-01-01T00:18:47.000Z</time>
      </trkpt>
      <trkpt lat="41.092744" lon="-6.741429">
        <ele>484.1</ele>
        <time>1970-01-01T00:18:48.000Z</time>
      </trkpt>
      <trkpt lat="41.092728" lon="-6.741416">
        <ele>484.3</ele>
        <time>1970-01-01T00:18:49.000Z</time>
      </trkpt>
      <trkpt lat="41.092713" lon="-6.741403">
        <ele>484.6</ele>
        <time>1970-01-01T00:18:50.000Z</time>
      </trkpt>
      <trkpt lat="41.092698" lon="-6.74139">
        <ele>484.9</ele>
        <time>1970-01-01T00:18:51.000Z</time>
      </trkpt>
      <trkpt lat="41.092683" lon="-6.741378">
        <ele>485.1</ele>
        <time>1970-01-01T00:18:52.000Z</time>
      </trkpt>
      <trkpt lat="41.092667" lon="-6.741366">
        <ele>485.4</ele>
        <time>1970-01-01T00:18:53.000Z</time>
      </trkpt>
      <trkpt lat="41.09265" lon="-6.741355">
        <ele>485.6</ele>
        <time>1970-01-01T00:18:54.000Z</time>
      </trkpt>
      <trkpt lat="41.092634" lon="-6.741343">
        <ele>485.9</ele>
        <time>1970-01-01T00:18:55.000Z</time>
      </trkpt>
      <trkpt lat="41.09262" lon="-6.74133">
        <ele>486.1</ele>
        <time>1970-01-01T00:18:56.000Z</time>
      </trkpt>
      <trkpt lat="41.092606" lon="-6.741318">
        <ele>486.4</ele>
        <time>1970-01-01T00:18:57.000Z</time>
      </trkpt>
      <trkpt lat="41.092591" lon="-6.741305">
        <ele>486.6</ele>
        <time>1970-01-01T00:18:58.000Z</time>
      </trkpt>
      <trkpt lat="41.092576" lon="-6.741294">
        <ele>486.9</ele>
        <time>1970-01-01T00:18:59.000Z</time>
      </trkpt>
      <trkpt lat="41.092561" lon="-6.741283">
        <ele>487.1</ele>
        <time>1970-01-01T00:19:00.000Z</time>
      </trkpt>
      <trkpt lat="41.092544" lon="-6.741273">
        <ele>487.4</ele>
        <time>1970-01-01T00:19:01.000Z</time>
      </trkpt>
      <trkpt lat="41.092528" lon="-6.741262">
        <ele>487.7</ele>
        <time>1970-01-01T00:19:02.000Z</time>
      </trkpt>
      <trkpt lat="41.092512" lon="-6.741251">
        <ele>487.9</ele>
        <time>1970-01-01T00:19:03.000Z</time>
      </trkpt>
      <trkpt lat="41.092495" lon="-6.74124">
        <ele>488.2</ele>
        <time>1970-01-01T00:19:04.000Z</time>
      </trkpt>
      <trkpt lat="41.092479" lon="-6.741228">
        <ele>488.4</ele>
        <time>1970-01-01T00:19:05.000Z</time>
      </trkpt>
      <trkpt lat="41.092462" lon="-6.741218">
        <ele>488.7</ele>
        <time>1970-01-01T00:19:06.000Z</time>
      </trkpt>
      <trkpt lat="41.092446" lon="-6.741208">
        <ele>489</ele>
        <time>1970-01-01T00:19:07.000Z</time>
      </trkpt>
      <trkpt lat="41.09243" lon="-6.741198">
        <ele>489.2</ele>
        <time>1970-01-01T00:19:08.000Z</time>
      </trkpt>
      <trkpt lat="41.092415" lon="-6.741188">
        <ele>489.4</ele>
        <time>1970-01-01T00:19:09.000Z</time>
      </trkpt>
      <trkpt lat="41.0924" lon="-6.741178">
        <ele>489.7</ele>
        <time>1970-01-01T00:19:10.000Z</time>
      </trkpt>
      <trkpt lat="41.092384" lon="-6.741167">
        <ele>489.9</ele>
        <time>1970-01-01T00:19:11.000Z</time>
      </trkpt>
      <trkpt lat="41.092369" lon="-6.741155">
        <ele>490.2</ele>
        <time>1970-01-01T00:19:12.000Z</time>
      </trkpt>
      <trkpt lat="41.092354" lon="-6.741143">
        <ele>490.4</ele>
        <time>1970-01-01T00:19:13.000Z</time>
      </trkpt>
      <trkpt lat="41.092338" lon="-6.741131">
        <ele>490.7</ele>
        <time>1970-01-01T00:19:14.000Z</time>
      </trkpt>
      <trkpt lat="41.092322" lon="-6.74112">
        <ele>491</ele>
        <time>1970-01-01T00:19:15.000Z</time>
      </trkpt>
      <trkpt lat="41.092305" lon="-6.741109">
        <ele>491.2</ele>
        <time>1970-01-01T00:19:16.000Z</time>
      </trkpt>
      <trkpt lat="41.092288" lon="-6.741097">
        <ele>491.5</ele>
        <time>1970-01-01T00:19:17.000Z</time>
      </trkpt>
      <trkpt lat="41.092272" lon="-6.741087">
        <ele>491.8</ele>
        <time>1970-01-01T00:19:18.000Z</time>
      </trkpt>
      <trkpt lat="41.092255" lon="-6.741076">
        <ele>492</ele>
        <time>1970-01-01T00:19:19.000Z</time>
      </trkpt>
      <trkpt lat="41.092238" lon="-6.741065">
        <ele>492.3</ele>
        <time>1970-01-01T00:19:20.000Z</time>
      </trkpt>
      <trkpt lat="41.092222" lon="-6.741055">
        <ele>492.6</ele>
        <time>1970-01-01T00:19:21.000Z</time>
      </trkpt>
      <trkpt lat="41.092205" lon="-6.741043">
        <ele>492.8</ele>
        <time>1970-01-01T00:19:22.000Z</time>
      </trkpt>
      <trkpt lat="41.092188" lon="-6.741032">
        <ele>493.1</ele>
        <time>1970-01-01T00:19:23.000Z</time>
      </trkpt>
      <trkpt lat="41.092172" lon="-6.74102">
        <ele>493.4</ele>
        <time>1970-01-01T00:19:24.000Z</time>
      </trkpt>
      <trkpt lat="41.092155" lon="-6.741009">
        <ele>493.6</ele>
        <time>1970-01-01T00:19:25.000Z</time>
      </trkpt>
      <trkpt lat="41.092138" lon="-6.740997">
        <ele>493.9</ele>
        <time>1970-01-01T00:19:26.000Z</time>
      </trkpt>
      <trkpt lat="41.09212" lon="-6.740986">
        <ele>494.2</ele>
        <time>1970-01-01T00:19:27.000Z</time>
      </trkpt>
      <trkpt lat="41.092104" lon="-6.740974">
        <ele>494.4</ele>
        <time>1970-01-01T00:19:28.000Z</time>
      </trkpt>
      <trkpt lat="41.092087" lon="-6.740961">
        <ele>494.7</ele>
        <time>1970-01-01T00:19:29.000Z</time>
      </trkpt>
      <trkpt lat="41.09207" lon="-6.74095">
        <ele>495</ele>
        <time>1970-01-01T00:19:30.000Z</time>
      </trkpt>
      <trkpt lat="41.092053" lon="-6.740939">
        <ele>495.3</ele>
        <time>1970-01-01T00:19:31.000Z</time>
      </trkpt>
      <trkpt lat="41.092036" lon="-6.74093">
        <ele>495.5</ele>
        <time>1970-01-01T00:19:32.000Z</time>
      </trkpt>
      <trkpt lat="41.092019" lon="-6.74092">
        <ele>495.8</ele>
        <time>1970-01-01T00:19:33.000Z</time>
      </trkpt>
      <trkpt lat="41.092002" lon="-6.740909">
        <ele>496.1</ele>
        <time>1970-01-01T00:19:34.000Z</time>
      </trkpt>
      <trkpt lat="41.091984" lon="-6.7409">
        <ele>496.3</ele>
        <time>1970-01-01T00:19:35.000Z</time>
      </trkpt>
      <trkpt lat="41.091967" lon="-6.740891">
        <ele>496.6</ele>
        <time>1970-01-01T00:19:36.000Z</time>
      </trkpt>
      <trkpt lat="41.091949" lon="-6.740881">
        <ele>496.9</ele>
        <time>1970-01-01T00:19:37.000Z</time>
      </trkpt>
      <trkpt lat="41.091932" lon="-6.740871">
        <ele>497.1</ele>
        <time>1970-01-01T00:19:38.000Z</time>
      </trkpt>
      <trkpt lat="41.091915" lon="-6.740862">
        <ele>497.4</ele>
        <time>1970-01-01T00:19:39.000Z</time>
      </trkpt>
      <trkpt lat="41.091897" lon="-6.740855">
        <ele>497.7</ele>
        <time>1970-01-01T00:19:40.000Z</time>
      </trkpt>
      <trkpt lat="41.09188" lon="-6.740849">
        <ele>497.9</ele>
        <time>1970-01-01T00:19:41.000Z</time>
      </trkpt>
      <trkpt lat="41.091862" lon="-6.740844">
        <ele>498.2</ele>
        <time>1970-01-01T00:19:42.000Z</time>
      </trkpt>
      <trkpt lat="41.091844" lon="-6.740838">
        <ele>498.4</ele>
        <time>1970-01-01T00:19:43.000Z</time>
      </trkpt>
      <trkpt lat="41.091826" lon="-6.740834">
        <ele>498.7</ele>
        <time>1970-01-01T00:19:44.000Z</time>
      </trkpt>
      <trkpt lat="41.091808" lon="-6.74083">
        <ele>499</ele>
        <time>1970-01-01T00:19:45.000Z</time>
      </trkpt>
      <trkpt lat="41.091789" lon="-6.740827">
        <ele>499.2</ele>
        <time>1970-01-01T00:19:46.000Z</time>
      </trkpt>
      <trkpt lat="41.091771" lon="-6.740826">
        <ele>499.5</ele>
        <time>1970-01-01T00:19:47.000Z</time>
      </trkpt>
      <trkpt lat="41.091753" lon="-6.740824">
        <ele>499.8</ele>
        <time>1970-01-01T00:19:48.000Z</time>
      </trkpt>
      <trkpt lat="41.091734" lon="-6.740823">
        <ele>500</ele>
        <time>1970-01-01T00:19:49.000Z</time>
      </trkpt>
      <trkpt lat="41.091716" lon="-6.740824">
        <ele>500.3</ele>
        <time>1970-01-01T00:19:50.000Z</time>
      </trkpt>
      <trkpt lat="41.091698" lon="-6.740826">
        <ele>500.5</ele>
        <time>1970-01-01T00:19:51.000Z</time>
      </trkpt>
      <trkpt lat="41.09168" lon="-6.740827">
        <ele>500.8</ele>
        <time>1970-01-01T00:19:52.000Z</time>
      </trkpt>
      <trkpt lat="41.091662" lon="-6.740828">
        <ele>501.1</ele>
        <time>1970-01-01T00:19:53.000Z</time>
      </trkpt>
      <trkpt lat="41.091644" lon="-6.740828">
        <ele>501.3</ele>
        <time>1970-01-01T00:19:54.000Z</time>
      </trkpt>
      <trkpt lat="41.091626" lon="-6.740829">
        <ele>501.6</ele>
        <time>1970-01-01T00:19:55.000Z</time>
      </trkpt>
      <trkpt lat="41.091608" lon="-6.740833">
        <ele>501.8</ele>
        <time>1970-01-01T00:19:56.000Z</time>
      </trkpt>
      <trkpt lat="41.091591" lon="-6.740838">
        <ele>502.1</ele>
        <time>1970-01-01T00:19:57.000Z</time>
      </trkpt>
      <trkpt lat="41.091574" lon="-6.740844">
        <ele>502.3</ele>
        <time>1970-01-01T00:19:58.000Z</time>
      </trkpt>
      <trkpt lat="41.091557" lon="-6.74085">
        <ele>502.6</ele>
        <time>1970-01-01T00:19:59.000Z</time>
      </trkpt>
      <trkpt lat="41.09154" lon="-6.740857">
        <ele>502.8</ele>
        <time>1970-01-01T00:20:00.000Z</time>
      </trkpt>
      <trkpt lat="41.091523" lon="-6.740865">
        <ele>503.1</ele>
        <time>1970-01-01T00:20:01.000Z</time>
      </trkpt>
      <trkpt lat="41.091505" lon="-6.740874">
        <ele>503.4</ele>
        <time>1970-01-01T00:20:02.000Z</time>
      </trkpt>
      <trkpt lat="41.091488" lon="-6.740883">
        <ele>503.6</ele>
        <time>1970-01-01T00:20:03.000Z</time>
      </trkpt>
      <trkpt lat="41.09147" lon="-6.74089">
        <ele>503.9</ele>
        <time>1970-01-01T00:20:04.000Z</time>
      </trkpt>
      <trkpt lat="41.091454" lon="-6.740894">
        <ele>504.1</ele>
        <time>1970-01-01T00:20:05.000Z</time>
      </trkpt>
      <trkpt lat="41.091437" lon="-6.740896">
        <ele>504.4</ele>
        <time>1970-01-01T00:20:06.000Z</time>
      </trkpt>
      <trkpt lat="41.09142" lon="-6.740896">
        <ele>504.6</ele>
        <time>1970-01-01T00:20:07.000Z</time>
      </trkpt>
      <trkpt lat="41.091402" lon="-6.740894">
        <ele>504.8</ele>
        <time>1970-01-01T00:20:08.000Z</time>
      </trkpt>
      <trkpt lat="41.091385" lon="-6.74089">
        <ele>505</ele>
        <time>1970-01-01T00:20:09.000Z</time>
      </trkpt>
      <trkpt lat="41.091369" lon="-6.740883">
        <ele>505.3</ele>
        <time>1970-01-01T00:20:10.000Z</time>
      </trkpt>
      <trkpt lat="41.091353" lon="-6.740875">
        <ele>505.5</ele>
        <time>1970-01-01T00:20:11.000Z</time>
      </trkpt>
      <trkpt lat="41.091337" lon="-6.740865">
        <ele>505.8</ele>
        <time>1970-01-01T00:20:12.000Z</time>
      </trkpt>
      <trkpt lat="41.091322" lon="-6.740853">
        <ele>506</ele>
        <time>1970-01-01T00:20:13.000Z</time>
      </trkpt>
      <trkpt lat="41.091308" lon="-6.740839">
        <ele>506.3</ele>
        <time>1970-01-01T00:20:14.000Z</time>
      </trkpt>
      <trkpt lat="41.091295" lon="-6.740824">
        <ele>506.5</ele>
        <time>1970-01-01T00:20:15.000Z</time>
      </trkpt>
      <trkpt lat="41.091283" lon="-6.740808">
        <ele>506.7</ele>
        <time>1970-01-01T00:20:16.000Z</time>
      </trkpt>
      <trkpt lat="41.09127" lon="-6.740793">
        <ele>507</ele>
        <time>1970-01-01T00:20:17.000Z</time>
      </trkpt>
      <trkpt lat="41.091257" lon="-6.740778">
        <ele>507.2</ele>
        <time>1970-01-01T00:20:18.000Z</time>
      </trkpt>
      <trkpt lat="41.091243" lon="-6.740763">
        <ele>507.5</ele>
        <time>1970-01-01T00:20:19.000Z</time>
      </trkpt>
      <trkpt lat="41.09123" lon="-6.740747">
        <ele>507.7</ele>
        <time>1970-01-01T00:20:20.000Z</time>
      </trkpt>
      <trkpt lat="41.091217" lon="-6.740731">
        <ele>508</ele>
        <time>1970-01-01T00:20:21.000Z</time>
      </trkpt>
      <trkpt lat="41.091203" lon="-6.740717">
        <ele>508.2</ele>
        <time>1970-01-01T00:20:22.000Z</time>
      </trkpt>
      <trkpt lat="41.091189" lon="-6.740703">
        <ele>508.5</ele>
        <time>1970-01-01T00:20:23.000Z</time>
      </trkpt>
      <trkpt lat="41.091176" lon="-6.74069">
        <ele>508.7</ele>
        <time>1970-01-01T00:20:24.000Z</time>
      </trkpt>
      <trkpt lat="41.091162" lon="-6.740677">
        <ele>509</ele>
        <time>1970-01-01T00:20:25.000Z</time>
      </trkpt>
      <trkpt lat="41.091147" lon="-6.740666">
        <ele>509.2</ele>
        <time>1970-01-01T00:20:26.000Z</time>
      </trkpt>
      <trkpt lat="41.091132" lon="-6.740657">
        <ele>509.4</ele>
        <time>1970-01-01T00:20:27.000Z</time>
      </trkpt>
      <trkpt lat="41.091117" lon="-6.740649">
        <ele>509.7</ele>
        <time>1970-01-01T00:20:28.000Z</time>
      </trkpt>
      <trkpt lat="41.091103" lon="-6.74064">
        <ele>509.9</ele>
        <time>1970-01-01T00:20:29.000Z</time>
      </trkpt>
      <trkpt lat="41.091089" lon="-6.74063">
        <ele>510.1</ele>
        <time>1970-01-01T00:20:30.000Z</time>
      </trkpt>
      <trkpt lat="41.091073" lon="-6.740622">
        <ele>510.3</ele>
        <time>1970-01-01T00:20:31.000Z</time>
      </trkpt>
      <trkpt lat="41.091057" lon="-6.740616">
        <ele>510.6</ele>
        <time>1970-01-01T00:20:32.000Z</time>
      </trkpt>
      <trkpt lat="41.091041" lon="-6.740609">
        <ele>510.8</ele>
        <time>1970-01-01T00:20:33.000Z</time>
      </trkpt>
      <trkpt lat="41.091025" lon="-6.740602">
        <ele>511.1</ele>
        <time>1970-01-01T00:20:34.000Z</time>
      </trkpt>
      <trkpt lat="41.091009" lon="-6.740595">
        <ele>511.3</ele>
        <time>1970-01-01T00:20:35.000Z</time>
      </trkpt>
      <trkpt lat="41.090993" lon="-6.740586">
        <ele>511.5</ele>
        <time>1970-01-01T00:20:36.000Z</time>
      </trkpt>
      <trkpt lat="41.090978" lon="-6.740578">
        <ele>511.8</ele>
        <time>1970-01-01T00:20:37.000Z</time>
      </trkpt>
      <trkpt lat="41.090963" lon="-6.740569">
        <ele>512</ele>
        <time>1970-01-01T00:20:38.000Z</time>
      </trkpt>
      <trkpt lat="41.090946" lon="-6.740562">
        <ele>512.3</ele>
        <time>1970-01-01T00:20:39.000Z</time>
      </trkpt>
      <trkpt lat="41.09093" lon="-6.740557">
        <ele>512.5</ele>
        <time>1970-01-01T00:20:40.000Z</time>
      </trkpt>
      <trkpt lat="41.090914" lon="-6.740551">
        <ele>512.7</ele>
        <time>1970-01-01T00:20:41.000Z</time>
      </trkpt>
      <trkpt lat="41.090898" lon="-6.740545">
        <ele>512.9</ele>
        <time>1970-01-01T00:20:42.000Z</time>
      </trkpt>
      <trkpt lat="41.090881" lon="-6.740541">
        <ele>513.1</ele>
        <time>1970-01-01T00:20:43.000Z</time>
      </trkpt>
      <trkpt lat="41.090863" lon="-6.740541">
        <ele>513.4</ele>
        <time>1970-01-01T00:20:44.000Z</time>
      </trkpt>
      <trkpt lat="41.090846" lon="-6.740545">
        <ele>513.7</ele>
        <time>1970-01-01T00:20:45.000Z</time>
      </trkpt>
      <trkpt lat="41.090829" lon="-6.740552">
        <ele>513.9</ele>
        <time>1970-01-01T00:20:46.000Z</time>
      </trkpt>
      <trkpt lat="41.090812" lon="-6.740562">
        <ele>514.2</ele>
        <time>1970-01-01T00:20:47.000Z</time>
      </trkpt>
      <trkpt lat="41.090796" lon="-6.740574">
        <ele>514.4</ele>
        <time>1970-01-01T00:20:48.000Z</time>
      </trkpt>
      <trkpt lat="41.090781" lon="-6.740588">
        <ele>514.7</ele>
        <time>1970-01-01T00:20:49.000Z</time>
      </trkpt>
      <trkpt lat="41.090766" lon="-6.740602">
        <ele>515</ele>
        <time>1970-01-01T00:20:50.000Z</time>
      </trkpt>
      <trkpt lat="41.090751" lon="-6.740615">
        <ele>515.2</ele>
        <time>1970-01-01T00:20:51.000Z</time>
      </trkpt>
      <trkpt lat="41.090735" lon="-6.740628">
        <ele>515.5</ele>
        <time>1970-01-01T00:20:52.000Z</time>
      </trkpt>
      <trkpt lat="41.090719" lon="-6.740639">
        <ele>515.7</ele>
        <time>1970-01-01T00:20:53.000Z</time>
      </trkpt>
      <trkpt lat="41.090703" lon="-6.740646">
        <ele>515.9</ele>
        <time>1970-01-01T00:20:54.000Z</time>
      </trkpt>
      <trkpt lat="41.090687" lon="-6.74065">
        <ele>516.1</ele>
        <time>1970-01-01T00:20:55.000Z</time>
      </trkpt>
      <trkpt lat="41.09067" lon="-6.74065">
        <ele>516.4</ele>
        <time>1970-01-01T00:20:56.000Z</time>
      </trkpt>
      <trkpt lat="41.090654" lon="-6.740646">
        <ele>516.6</ele>
        <time>1970-01-01T00:20:57.000Z</time>
      </trkpt>
      <trkpt lat="41.090639" lon="-6.740639">
        <ele>516.8</ele>
        <time>1970-01-01T00:20:58.000Z</time>
      </trkpt>
      <trkpt lat="41.090626" lon="-6.740628">
        <ele>517.1</ele>
        <time>1970-01-01T00:20:59.000Z</time>
      </trkpt>
      <trkpt lat="41.090616" lon="-6.740611">
        <ele>517.3</ele>
        <time>1970-01-01T00:21:00.000Z</time>
      </trkpt>
      <trkpt lat="41.090608" lon="-6.740592">
        <ele>517.5</ele>
        <time>1970-01-01T00:21:01.000Z</time>
      </trkpt>
      <trkpt lat="41.090601" lon="-6.740571">
        <ele>517.8</ele>
        <time>1970-01-01T00:21:02.000Z</time>
      </trkpt>
      <trkpt lat="41.090594" lon="-6.74055">
        <ele>518</ele>
        <time>1970-01-01T00:21:03.000Z</time>
      </trkpt>
      <trkpt lat="41.090588" lon="-6.740529">
        <ele>518.2</ele>
        <time>1970-01-01T00:21:04.000Z</time>
      </trkpt>
      <trkpt lat="41.090584" lon="-6.740507">
        <ele>518.5</ele>
        <time>1970-01-01T00:21:05.000Z</time>
      </trkpt>
      <trkpt lat="41.09058" lon="-6.740485">
        <ele>518.7</ele>
        <time>1970-01-01T00:21:06.000Z</time>
      </trkpt>
      <trkpt lat="41.090576" lon="-6.740464">
        <ele>519</ele>
        <time>1970-01-01T00:21:07.000Z</time>
      </trkpt>
      <trkpt lat="41.090572" lon="-6.740442">
        <ele>519.2</ele>
        <time>1970-01-01T00:21:08.000Z</time>
      </trkpt>
      <trkpt lat="41.090568" lon="-6.74042">
        <ele>519.4</ele>
        <time>1970-01-01T00:21:09.000Z</time>
      </trkpt>
      <trkpt lat="41.090564" lon="-6.740397">
        <ele>519.7</ele>
        <time>1970-01-01T00:21:10.000Z</time>
      </trkpt>
      <trkpt lat="41.090559" lon="-6.740375">
        <ele>519.9</ele>
        <time>1970-01-01T00:21:11.000Z</time>
      </trkpt>
      <trkpt lat="41.090553" lon="-6.740352">
        <ele>520.2</ele>
        <time>1970-01-01T00:21:12.000Z</time>
      </trkpt>
      <trkpt lat="41.090548" lon="-6.740329">
        <ele>520.5</ele>
        <time>1970-01-01T00:21:13.000Z</time>
      </trkpt>
      <trkpt lat="41.090542" lon="-6.740307">
        <ele>520.7</ele>
        <time>1970-01-01T00:21:14.000Z</time>
      </trkpt>
      <trkpt lat="41.090536" lon="-6.740285">
        <ele>521</ele>
        <time>1970-01-01T00:21:15.000Z</time>
      </trkpt>
      <trkpt lat="41.09053" lon="-6.740262">
        <ele>521.2</ele>
        <time>1970-01-01T00:21:16.000Z</time>
      </trkpt>
      <trkpt lat="41.090524" lon="-6.740239">
        <ele>521.5</ele>
        <time>1970-01-01T00:21:17.000Z</time>
      </trkpt>
      <trkpt lat="41.090518" lon="-6.740218">
        <ele>521.7</ele>
        <time>1970-01-01T00:21:18.000Z</time>
      </trkpt>
      <trkpt lat="41.09051" lon="-6.740197">
        <ele>521.9</ele>
        <time>1970-01-01T00:21:19.000Z</time>
      </trkpt>
      <trkpt lat="41.090502" lon="-6.740176">
        <ele>522.1</ele>
        <time>1970-01-01T00:21:20.000Z</time>
      </trkpt>
      <trkpt lat="41.090494" lon="-6.740156">
        <ele>522.4</ele>
        <time>1970-01-01T00:21:21.000Z</time>
      </trkpt>
      <trkpt lat="41.090487" lon="-6.740136">
        <ele>522.6</ele>
        <time>1970-01-01T00:21:22.000Z</time>
      </trkpt>
      <trkpt lat="41.090478" lon="-6.740116">
        <ele>522.8</ele>
        <time>1970-01-01T00:21:23.000Z</time>
      </trkpt>
      <trkpt lat="41.090469" lon="-6.740094">
        <ele>523.1</ele>
        <time>1970-01-01T00:21:24.000Z</time>
      </trkpt>
      <trkpt lat="41.090458" lon="-6.740074">
        <ele>523.4</ele>
        <time>1970-01-01T00:21:25.000Z</time>
      </trkpt>
      <trkpt lat="41.090446" lon="-6.740055">
        <ele>523.6</ele>
        <time>1970-01-01T00:21:26.000Z</time>
      </trkpt>
      <trkpt lat="41.090434" lon="-6.740036">
        <ele>523.9</ele>
        <time>1970-01-01T00:21:27.000Z</time>
      </trkpt>
      <trkpt lat="41.090423" lon="-6.740018">
        <ele>524.1</ele>
        <time>1970-01-01T00:21:28.000Z</time>
      </trkpt>
      <trkpt lat="41.090412" lon="-6.739999">
        <ele>524.4</ele>
        <time>1970-01-01T00:21:29.000Z</time>
      </trkpt>
      <trkpt lat="41.090401" lon="-6.739981">
        <ele>524.7</ele>
        <time>1970-01-01T00:21:30.000Z</time>
      </trkpt>
      <trkpt lat="41.09039" lon="-6.739962">
        <ele>524.9</ele>
        <time>1970-01-01T00:21:31.000Z</time>
      </trkpt>
      <trkpt lat="41.09038" lon="-6.739943">
        <ele>525.2</ele>
        <time>1970-01-01T00:21:32.000Z</time>
      </trkpt>
      <trkpt lat="41.09037" lon="-6.739923">
        <ele>525.4</ele>
        <time>1970-01-01T00:21:33.000Z</time>
      </trkpt>
      <trkpt lat="41.09036" lon="-6.739903">
        <ele>525.7</ele>
        <time>1970-01-01T00:21:34.000Z</time>
      </trkpt>
      <trkpt lat="41.090348" lon="-6.739883">
        <ele>525.9</ele>
        <time>1970-01-01T00:21:35.000Z</time>
      </trkpt>
      <trkpt lat="41.090336" lon="-6.739864">
        <ele>526.2</ele>
        <time>1970-01-01T00:21:36.000Z</time>
      </trkpt>
      <trkpt lat="41.090324" lon="-6.739847">
        <ele>526.5</ele>
        <time>1970-01-01T00:21:37.000Z</time>
      </trkpt>
      <trkpt lat="41.090313" lon="-6.73983">
        <ele>526.7</ele>
        <time>1970-01-01T00:21:38.000Z</time>
      </trkpt>
      <trkpt lat="41.090301" lon="-6.739813">
        <ele>526.9</ele>
        <time>1970-01-01T00:21:39.000Z</time>
      </trkpt>
      <trkpt lat="41.090291" lon="-6.739794">
        <ele>527.2</ele>
        <time>1970-01-01T00:21:40.000Z</time>
      </trkpt>
      <trkpt lat="41.090282" lon="-6.739775">
        <ele>527.4</ele>
        <time>1970-01-01T00:21:41.000Z</time>
      </trkpt>
      <trkpt lat="41.090273" lon="-6.739756">
        <ele>527.7</ele>
        <time>1970-01-01T00:21:42.000Z</time>
      </trkpt>
      <trkpt lat="41.090263" lon="-6.739738">
        <ele>527.9</ele>
        <time>1970-01-01T00:21:43.000Z</time>
      </trkpt>
      <trkpt lat="41.090253" lon="-6.739721">
        <ele>528.1</ele>
        <time>1970-01-01T00:21:44.000Z</time>
      </trkpt>
      <trkpt lat="41.090243" lon="-6.739703">
        <ele>528.4</ele>
        <time>1970-01-01T00:21:45.000Z</time>
      </trkpt>
      <trkpt lat="41.090233" lon="-6.739685">
        <ele>528.6</ele>
        <time>1970-01-01T00:21:46.000Z</time>
      </trkpt>
      <trkpt lat="41.090223" lon="-6.739667">
        <ele>528.8</ele>
        <time>1970-01-01T00:21:47.000Z</time>
      </trkpt>
      <trkpt lat="41.090214" lon="-6.739649">
        <ele>529.1</ele>
        <time>1970-01-01T00:21:48.000Z</time>
      </trkpt>
      <trkpt lat="41.090205" lon="-6.73963">
        <ele>529.3</ele>
        <time>1970-01-01T00:21:49.000Z</time>
      </trkpt>
      <trkpt lat="41.090199" lon="-6.739611">
        <ele>529.5</ele>
        <time>1970-01-01T00:21:50.000Z</time>
      </trkpt>
      <trkpt lat="41.090193" lon="-6.739589">
        <ele>529.8</ele>
        <time>1970-01-01T00:21:51.000Z</time>
      </trkpt>
      <trkpt lat="41.090187" lon="-6.739567">
        <ele>530</ele>
        <time>1970-01-01T00:21:52.000Z</time>
      </trkpt>
      <trkpt lat="41.090181" lon="-6.739546">
        <ele>530.3</ele>
        <time>1970-01-01T00:21:53.000Z</time>
      </trkpt>
      <trkpt lat="41.090174" lon="-6.739527">
        <ele>530.5</ele>
        <time>1970-01-01T00:21:54.000Z</time>
      </trkpt>
      <trkpt lat="41.090166" lon="-6.739509">
        <ele>530.7</ele>
        <time>1970-01-01T00:21:55.000Z</time>
      </trkpt>
      <trkpt lat="41.090157" lon="-6.739489">
        <ele>531</ele>
        <time>1970-01-01T00:21:56.000Z</time>
      </trkpt>
      <trkpt lat="41.09015" lon="-6.739469">
        <ele>531.2</ele>
        <time>1970-01-01T00:21:57.000Z</time>
      </trkpt>
      <trkpt lat="41.090145" lon="-6.739448">
        <ele>531.4</ele>
        <time>1970-01-01T00:21:58.000Z</time>
      </trkpt>
      <trkpt lat="41.09014" lon="-6.739427">
        <ele>531.7</ele>
        <time>1970-01-01T00:21:59.000Z</time>
      </trkpt>
      <trkpt lat="41.090136" lon="-6.739405">
        <ele>531.9</ele>
        <time>1970-01-01T00:22:00.000Z</time>
      </trkpt>
      <trkpt lat="41.090131" lon="-6.739382">
        <ele>532.2</ele>
        <time>1970-01-01T00:22:01.000Z</time>
      </trkpt>
      <trkpt lat="41.090127" lon="-6.73936">
        <ele>532.4</ele>
        <time>1970-01-01T00:22:02.000Z</time>
      </trkpt>
      <trkpt lat="41.090121" lon="-6.739337">
        <ele>532.7</ele>
        <time>1970-01-01T00:22:03.000Z</time>
      </trkpt>
      <trkpt lat="41.090115" lon="-6.739313">
        <ele>532.9</ele>
        <time>1970-01-01T00:22:04.000Z</time>
      </trkpt>
      <trkpt lat="41.09011" lon="-6.739289">
        <ele>533.2</ele>
        <time>1970-01-01T00:22:05.000Z</time>
      </trkpt>
      <trkpt lat="41.090105" lon="-6.739264">
        <ele>533.5</ele>
        <time>1970-01-01T00:22:06.000Z</time>
      </trkpt>
      <trkpt lat="41.090101" lon="-6.739239">
        <ele>533.8</ele>
        <time>1970-01-01T00:22:07.000Z</time>
      </trkpt>
      <trkpt lat="41.090098" lon="-6.739214">
        <ele>534</ele>
        <time>1970-01-01T00:22:08.000Z</time>
      </trkpt>
      <trkpt lat="41.090095" lon="-6.739189">
        <ele>534.3</ele>
        <time>1970-01-01T00:22:09.000Z</time>
      </trkpt>
      <trkpt lat="41.090094" lon="-6.739163">
        <ele>534.6</ele>
        <time>1970-01-01T00:22:10.000Z</time>
      </trkpt>
      <trkpt lat="41.090094" lon="-6.739136">
        <ele>534.9</ele>
        <time>1970-01-01T00:22:11.000Z</time>
      </trkpt>
      <trkpt lat="41.090093" lon="-6.739109">
        <ele>535.2</ele>
        <time>1970-01-01T00:22:12.000Z</time>
      </trkpt>
      <trkpt lat="41.090091" lon="-6.739081">
        <ele>535.5</ele>
        <time>1970-01-01T00:22:13.000Z</time>
      </trkpt>
      <trkpt lat="41.090091" lon="-6.739053">
        <ele>535.8</ele>
        <time>1970-01-01T00:22:14.000Z</time>
      </trkpt>
      <trkpt lat="41.090092" lon="-6.739026">
        <ele>536</ele>
        <time>1970-01-01T00:22:15.000Z</time>
      </trkpt>
      <trkpt lat="41.090094" lon="-6.739">
        <ele>536.3</ele>
        <time>1970-01-01T00:22:16.000Z</time>
      </trkpt>
      <trkpt lat="41.090096" lon="-6.738973">
        <ele>536.6</ele>
        <time>1970-01-01T00:22:17.000Z</time>
      </trkpt>
      <trkpt lat="41.090098" lon="-6.738945">
        <ele>536.9</ele>
        <time>1970-01-01T00:22:18.000Z</time>
      </trkpt>
      <trkpt lat="41.0901" lon="-6.738915">
        <ele>537.2</ele>
        <time>1970-01-01T00:22:19.000Z</time>
      </trkpt>
      <trkpt lat="41.090102" lon="-6.738884">
        <ele>537.6</ele>
        <time>1970-01-01T00:22:20.000Z</time>
      </trkpt>
      <trkpt lat="41.090104" lon="-6.738852">
        <ele>537.9</ele>
        <time>1970-01-01T00:22:21.000Z</time>
      </trkpt>
      <trkpt lat="41.090105" lon="-6.738822">
        <ele>538.2</ele>
        <time>1970-01-01T00:22:22.000Z</time>
      </trkpt>
      <trkpt lat="41.090107" lon="-6.738793">
        <ele>538.5</ele>
        <time>1970-01-01T00:22:23.000Z</time>
      </trkpt>
      <trkpt lat="41.090108" lon="-6.738764">
        <ele>538.8</ele>
        <time>1970-01-01T00:22:24.000Z</time>
      </trkpt>
      <trkpt lat="41.09011" lon="-6.738733">
        <ele>539.2</ele>
        <time>1970-01-01T00:22:25.000Z</time>
      </trkpt>
      <trkpt lat="41.090112" lon="-6.7387">
        <ele>539.5</ele>
        <time>1970-01-01T00:22:26.000Z</time>
      </trkpt>
      <trkpt lat="41.090116" lon="-6.738667">
        <ele>539.9</ele>
        <time>1970-01-01T00:22:27.000Z</time>
      </trkpt>
      <trkpt lat="41.090118" lon="-6.738634">
        <ele>540.2</ele>
        <time>1970-01-01T00:22:28.000Z</time>
      </trkpt>
      <trkpt lat="41.09012" lon="-6.738601">
        <ele>540.6</ele>
        <time>1970-01-01T00:22:29.000Z</time>
      </trkpt>
      <trkpt lat="41.090122" lon="-6.738567">
        <ele>541</ele>
        <time>1970-01-01T00:22:30.000Z</time>
      </trkpt>
      <trkpt lat="41.090124" lon="-6.738534">
        <ele>541.3</ele>
        <time>1970-01-01T00:22:31.000Z</time>
      </trkpt>
      <trkpt lat="41.090125" lon="-6.738501">
        <ele>541.7</ele>
        <time>1970-01-01T00:22:32.000Z</time>
      </trkpt>
      <trkpt lat="41.090125" lon="-6.738469">
        <ele>542</ele>
        <time>1970-01-01T00:22:33.000Z</time>
      </trkpt>
      <trkpt lat="41.090126" lon="-6.738436">
        <ele>542.4</ele>
        <time>1970-01-01T00:22:34.000Z</time>
      </trkpt>
      <trkpt lat="41.090127" lon="-6.738402">
        <ele>542.7</ele>
        <time>1970-01-01T00:22:35.000Z</time>
      </trkpt>
      <trkpt lat="41.090129" lon="-6.738365">
        <ele>543.1</ele>
        <time>1970-01-01T00:22:36.000Z</time>
      </trkpt>
      <trkpt lat="41.090131" lon="-6.738329">
        <ele>543.5</ele>
        <time>1970-01-01T00:22:37.000Z</time>
      </trkpt>
      <trkpt lat="41.090132" lon="-6.738294">
        <ele>543.9</ele>
        <time>1970-01-01T00:22:38.000Z</time>
      </trkpt>
      <trkpt lat="41.090132" lon="-6.73826">
        <ele>544.2</ele>
        <time>1970-01-01T00:22:39.000Z</time>
      </trkpt>
      <trkpt lat="41.090133" lon="-6.738225">
        <ele>544.6</ele>
        <time>1970-01-01T00:22:40.000Z</time>
      </trkpt>
      <trkpt lat="41.090135" lon="-6.73819">
        <ele>545</ele>
        <time>1970-01-01T00:22:41.000Z</time>
      </trkpt>
      <trkpt lat="41.090136" lon="-6.738157">
        <ele>545.3</ele>
        <time>1970-01-01T00:22:42.000Z</time>
      </trkpt>
      <trkpt lat="41.090138" lon="-6.738126">
        <ele>545.7</ele>
        <time>1970-01-01T00:22:43.000Z</time>
      </trkpt>
      <trkpt lat="41.090138" lon="-6.738095">
        <ele>546</ele>
        <time>1970-01-01T00:22:44.000Z</time>
      </trkpt>
      <trkpt lat="41.090139" lon="-6.738064">
        <ele>546.3</ele>
        <time>1970-01-01T00:22:45.000Z</time>
      </trkpt>
      <trkpt lat="41.090141" lon="-6.738032">
        <ele>546.7</ele>
        <time>1970-01-01T00:22:46.000Z</time>
      </trkpt>
      <trkpt lat="41.090142" lon="-6.737999">
        <ele>547</ele>
        <time>1970-01-01T00:22:47.000Z</time>
      </trkpt>
      <trkpt lat="41.090144" lon="-6.737965">
        <ele>547.4</ele>
        <time>1970-01-01T00:22:48.000Z</time>
      </trkpt>
      <trkpt lat="41.090144" lon="-6.73793">
        <ele>547.8</ele>
        <time>1970-01-01T00:22:49.000Z</time>
      </trkpt>
      <trkpt lat="41.090143" lon="-6.737894">
        <ele>548.1</ele>
        <time>1970-01-01T00:22:50.000Z</time>
      </trkpt>
      <trkpt lat="41.090138" lon="-6.737858">
        <ele>548.5</ele>
        <time>1970-01-01T00:22:51.000Z</time>
      </trkpt>
      <trkpt lat="41.090128" lon="-6.737823">
        <ele>548.9</ele>
        <time>1970-01-01T00:22:52.000Z</time>
      </trkpt>
      <trkpt lat="41.090112" lon="-6.737791">
        <ele>549.3</ele>
        <time>1970-01-01T00:22:53.000Z</time>
      </trkpt>
      <trkpt lat="41.090091" lon="-6.737762">
        <ele>549.8</ele>
        <time>1970-01-01T00:22:54.000Z</time>
      </trkpt>
      <trkpt lat="41.090066" lon="-6.737738">
        <ele>550.2</ele>
        <time>1970-01-01T00:22:55.000Z</time>
      </trkpt>
      <trkpt lat="41.090036" lon="-6.737717">
        <ele>550.7</ele>
        <time>1970-01-01T00:22:56.000Z</time>
      </trkpt>
      <trkpt lat="41.090003" lon="-6.737698">
        <ele>551.2</ele>
        <time>1970-01-01T00:22:57.000Z</time>
      </trkpt>
      <trkpt lat="41.089967" lon="-6.737682">
        <ele>551.7</ele>
        <time>1970-01-01T00:22:58.000Z</time>
      </trkpt>
      <trkpt lat="41.089928" lon="-6.737671">
        <ele>552.3</ele>
        <time>1970-01-01T00:22:59.000Z</time>
      </trkpt>
      <trkpt lat="41.089886" lon="-6.737663">
        <ele>552.9</ele>
        <time>1970-01-01T00:23:00.000Z</time>
      </trkpt>
      <trkpt lat="41.089847" lon="-6.737657">
        <ele>553.5</ele>
        <time>1970-01-01T00:23:01.000Z</time>
      </trkpt>
      <trkpt lat="41.089811" lon="-6.737647">
        <ele>554</ele>
        <time>1970-01-01T00:23:02.000Z</time>
      </trkpt>
      <trkpt lat="41.089779" lon="-6.737629">
        <ele>554.5</ele>
        <time>1970-01-01T00:23:03.000Z</time>
      </trkpt>
      <trkpt lat="41.089752" lon="-6.737604">
        <ele>554.9</ele>
        <time>1970-01-01T00:23:04.000Z</time>
      </trkpt>
      <trkpt lat="41.089727" lon="-6.737574">
        <ele>555.4</ele>
        <time>1970-01-01T00:23:05.000Z</time>
      </trkpt>
      <trkpt lat="41.089704" lon="-6.737542">
        <ele>555.9</ele>
        <time>1970-01-01T00:23:06.000Z</time>
      </trkpt>
      <trkpt lat="41.089685" lon="-6.737507">
        <ele>556.3</ele>
        <time>1970-01-01T00:23:07.000Z</time>
      </trkpt>
      <trkpt lat="41.08967" lon="-6.737469">
        <ele>556.8</ele>
        <time>1970-01-01T00:23:08.000Z</time>
      </trkpt>
      <trkpt lat="41.08966" lon="-6.737428">
        <ele>557.3</ele>
        <time>1970-01-01T00:23:09.000Z</time>
      </trkpt>
      <trkpt lat="41.089652" lon="-6.737387">
        <ele>557.7</ele>
        <time>1970-01-01T00:23:10.000Z</time>
      </trkpt>
      <trkpt lat="41.089645" lon="-6.737346">
        <ele>558.2</ele>
        <time>1970-01-01T00:23:11.000Z</time>
      </trkpt>
      <trkpt lat="41.089639" lon="-6.737307">
        <ele>558.6</ele>
        <time>1970-01-01T00:23:12.000Z</time>
      </trkpt>
      <trkpt lat="41.08963" lon="-6.73727">
        <ele>559</ele>
        <time>1970-01-01T00:23:13.000Z</time>
      </trkpt>
      <trkpt lat="41.089622" lon="-6.737235">
        <ele>559.4</ele>
        <time>1970-01-01T00:23:14.000Z</time>
      </trkpt>
      <trkpt lat="41.089614" lon="-6.737204">
        <ele>559.7</ele>
        <time>1970-01-01T00:23:15.000Z</time>
      </trkpt>
      <trkpt lat="41.089608" lon="-6.737174">
        <ele>560.1</ele>
        <time>1970-01-01T00:23:16.000Z</time>
      </trkpt>
      <trkpt lat="41.089602" lon="-6.737148">
        <ele>560.4</ele>
        <time>1970-01-01T00:23:17.000Z</time>
      </trkpt>
      <trkpt lat="41.089597" lon="-6.737122">
        <ele>560.6</ele>
        <time>1970-01-01T00:23:18.000Z</time>
      </trkpt>
      <trkpt lat="41.089594" lon="-6.737096">
        <ele>560.9</ele>
        <time>1970-01-01T00:23:19.000Z</time>
      </trkpt>
      <trkpt lat="41.089591" lon="-6.737071">
        <ele>561.2</ele>
        <time>1970-01-01T00:23:20.000Z</time>
      </trkpt>
      <trkpt lat="41.089587" lon="-6.737046">
        <ele>561.5</ele>
        <time>1970-01-01T00:23:21.000Z</time>
      </trkpt>
      <trkpt lat="41.089583" lon="-6.737022">
        <ele>561.7</ele>
        <time>1970-01-01T00:23:22.000Z</time>
      </trkpt>
      <trkpt lat="41.089579" lon="-6.736996">
        <ele>562</ele>
        <time>1970-01-01T00:23:23.000Z</time>
      </trkpt>
      <trkpt lat="41.089575" lon="-6.736968">
        <ele>562.3</ele>
        <time>1970-01-01T00:23:24.000Z</time>
      </trkpt>
      <trkpt lat="41.089572" lon="-6.736939">
        <ele>562.6</ele>
        <time>1970-01-01T00:23:25.000Z</time>
      </trkpt>
      <trkpt lat="41.089571" lon="-6.736911">
        <ele>562.9</ele>
        <time>1970-01-01T00:23:26.000Z</time>
      </trkpt>
      <trkpt lat="41.089568" lon="-6.736883">
        <ele>563.2</ele>
        <time>1970-01-01T00:23:27.000Z</time>
      </trkpt>
      <trkpt lat="41.089566" lon="-6.736856">
        <ele>563.5</ele>
        <time>1970-01-01T00:23:28.000Z</time>
      </trkpt>
      <trkpt lat="41.089566" lon="-6.736829">
        <ele>563.8</ele>
        <time>1970-01-01T00:23:29.000Z</time>
      </trkpt>
      <trkpt lat="41.089566" lon="-6.736803">
        <ele>564.1</ele>
        <time>1970-01-01T00:23:30.000Z</time>
      </trkpt>
      <trkpt lat="41.089567" lon="-6.736775">
        <ele>564.4</ele>
        <time>1970-01-01T00:23:31.000Z</time>
      </trkpt>
      <trkpt lat="41.089567" lon="-6.736748">
        <ele>564.7</ele>
        <time>1970-01-01T00:23:32.000Z</time>
      </trkpt>
      <trkpt lat="41.089568" lon="-6.73672">
        <ele>565</ele>
        <time>1970-01-01T00:23:33.000Z</time>
      </trkpt>
      <trkpt lat="41.089569" lon="-6.736694">
        <ele>565.2</ele>
        <time>1970-01-01T00:23:34.000Z</time>
      </trkpt>
      <trkpt lat="41.089571" lon="-6.736666">
        <ele>565.5</ele>
        <time>1970-01-01T00:23:35.000Z</time>
      </trkpt>
      <trkpt lat="41.089574" lon="-6.73664">
        <ele>565.8</ele>
        <time>1970-01-01T00:23:36.000Z</time>
      </trkpt>
      <trkpt lat="41.089578" lon="-6.736614">
        <ele>566.1</ele>
        <time>1970-01-01T00:23:37.000Z</time>
      </trkpt>
      <trkpt lat="41.089582" lon="-6.736589">
        <ele>566.4</ele>
        <time>1970-01-01T00:23:38.000Z</time>
      </trkpt>
      <trkpt lat="41.089587" lon="-6.736563">
        <ele>566.7</ele>
        <time>1970-01-01T00:23:39.000Z</time>
      </trkpt>
      <trkpt lat="41.089593" lon="-6.736536">
        <ele>567</ele>
        <time>1970-01-01T00:23:40.000Z</time>
      </trkpt>
      <trkpt lat="41.0896" lon="-6.73651">
        <ele>567.3</ele>
        <time>1970-01-01T00:23:41.000Z</time>
      </trkpt>
      <trkpt lat="41.089607" lon="-6.736484">
        <ele>567.6</ele>
        <time>1970-01-01T00:23:42.000Z</time>
      </trkpt>
      <trkpt lat="41.089613" lon="-6.736458">
        <ele>567.9</ele>
        <time>1970-01-01T00:23:43.000Z</time>
      </trkpt>
      <trkpt lat="41.089618" lon="-6.736432">
        <ele>568.1</ele>
        <time>1970-01-01T00:23:44.000Z</time>
      </trkpt>
      <trkpt lat="41.089624" lon="-6.736405">
        <ele>568.4</ele>
        <time>1970-01-01T00:23:45.000Z</time>
      </trkpt>
      <trkpt lat="41.089629" lon="-6.736377">
        <ele>568.7</ele>
        <time>1970-01-01T00:23:46.000Z</time>
      </trkpt>
      <trkpt lat="41.089636" lon="-6.736351">
        <ele>569</ele>
        <time>1970-01-01T00:23:47.000Z</time>
      </trkpt>
      <trkpt lat="41.089643" lon="-6.736325">
        <ele>569.3</ele>
        <time>1970-01-01T00:23:48.000Z</time>
      </trkpt>
      <trkpt lat="41.08965" lon="-6.736299">
        <ele>569.6</ele>
        <time>1970-01-01T00:23:49.000Z</time>
      </trkpt>
      <trkpt lat="41.089657" lon="-6.736272">
        <ele>569.9</ele>
        <time>1970-01-01T00:23:50.000Z</time>
      </trkpt>
      <trkpt lat="41.089664" lon="-6.736247">
        <ele>570.2</ele>
        <time>1970-01-01T00:23:51.000Z</time>
      </trkpt>
      <trkpt lat="41.089671" lon="-6.736221">
        <ele>570.5</ele>
        <time>1970-01-01T00:23:52.000Z</time>
      </trkpt>
      <trkpt lat="41.089677" lon="-6.736197">
        <ele>570.8</ele>
        <time>1970-01-01T00:23:53.000Z</time>
      </trkpt>
      <trkpt lat="41.089681" lon="-6.736173">
        <ele>571</ele>
        <time>1970-01-01T00:23:54.000Z</time>
      </trkpt>
      <trkpt lat="41.089687" lon="-6.73615">
        <ele>571.3</ele>
        <time>1970-01-01T00:23:55.000Z</time>
      </trkpt>
      <trkpt lat="41.089691" lon="-6.736128">
        <ele>571.5</ele>
        <time>1970-01-01T00:23:56.000Z</time>
      </trkpt>
      <trkpt lat="41.089695" lon="-6.736105">
        <ele>571.8</ele>
        <time>1970-01-01T00:23:57.000Z</time>
      </trkpt>
      <trkpt lat="41.089698" lon="-6.736082">
        <ele>572</ele>
        <time>1970-01-01T00:23:58.000Z</time>
      </trkpt>
      <trkpt lat="41.0897" lon="-6.736059">
        <ele>572.3</ele>
        <time>1970-01-01T00:23:59.000Z</time>
      </trkpt>
      <trkpt lat="41.089702" lon="-6.736035">
        <ele>572.5</ele>
        <time>1970-01-01T00:24:00.000Z</time>
      </trkpt>
      <trkpt lat="41.089705" lon="-6.736011">
        <ele>572.8</ele>
        <time>1970-01-01T00:24:01.000Z</time>
      </trkpt>
      <trkpt lat="41.089709" lon="-6.735987">
        <ele>573.1</ele>
        <time>1970-01-01T00:24:02.000Z</time>
      </trkpt>
      <trkpt lat="41.089713" lon="-6.735964">
        <ele>573.3</ele>
        <time>1970-01-01T00:24:03.000Z</time>
      </trkpt>
      <trkpt lat="41.089715" lon="-6.73594">
        <ele>573.6</ele>
        <time>1970-01-01T00:24:04.000Z</time>
      </trkpt>
      <trkpt lat="41.089718" lon="-6.735917">
        <ele>573.8</ele>
        <time>1970-01-01T00:24:05.000Z</time>
      </trkpt>
      <trkpt lat="41.089722" lon="-6.735893">
        <ele>574.1</ele>
        <time>1970-01-01T00:24:06.000Z</time>
      </trkpt>
      <trkpt lat="41.089725" lon="-6.73587">
        <ele>574.3</ele>
        <time>1970-01-01T00:24:07.000Z</time>
      </trkpt>
      <trkpt lat="41.089728" lon="-6.735846">
        <ele>574.6</ele>
        <time>1970-01-01T00:24:08.000Z</time>
      </trkpt>
      <trkpt lat="41.089729" lon="-6.735822">
        <ele>574.9</ele>
        <time>1970-01-01T00:24:09.000Z</time>
      </trkpt>
      <trkpt lat="41.089731" lon="-6.735799">
        <ele>575.1</ele>
        <time>1970-01-01T00:24:10.000Z</time>
      </trkpt>
      <trkpt lat="41.089732" lon="-6.735775">
        <ele>575.4</ele>
        <time>1970-01-01T00:24:11.000Z</time>
      </trkpt>
      <trkpt lat="41.089734" lon="-6.735751">
        <ele>575.6</ele>
        <time>1970-01-01T00:24:12.000Z</time>
      </trkpt>
      <trkpt lat="41.089736" lon="-6.735727">
        <ele>575.9</ele>
        <time>1970-01-01T00:24:13.000Z</time>
      </trkpt>
      <trkpt lat="41.089738" lon="-6.735703">
        <ele>576.1</ele>
        <time>1970-01-01T00:24:14.000Z</time>
      </trkpt>
      <trkpt lat="41.089739" lon="-6.735679">
        <ele>576.4</ele>
        <time>1970-01-01T00:24:15.000Z</time>
      </trkpt>
      <trkpt lat="41.089739" lon="-6.735655">
        <ele>576.6</ele>
        <time>1970-01-01T00:24:16.000Z</time>
      </trkpt>
      <trkpt lat="41.089739" lon="-6.735631">
        <ele>576.9</ele>
        <time>1970-01-01T00:24:17.000Z</time>
      </trkpt>
      <trkpt lat="41.089739" lon="-6.735607">
        <ele>577.2</ele>
        <time>1970-01-01T00:24:18.000Z</time>
      </trkpt>
      <trkpt lat="41.08974" lon="-6.735583">
        <ele>577.4</ele>
        <time>1970-01-01T00:24:19.000Z</time>
      </trkpt>
      <trkpt lat="41.08974" lon="-6.735559">
        <ele>577.7</ele>
        <time>1970-01-01T00:24:20.000Z</time>
      </trkpt>
      <trkpt lat="41.089741" lon="-6.735535">
        <ele>577.9</ele>
        <time>1970-01-01T00:24:21.000Z</time>
      </trkpt>
      <trkpt lat="41.089743" lon="-6.735511">
        <ele>578.2</ele>
        <time>1970-01-01T00:24:22.000Z</time>
      </trkpt>
      <trkpt lat="41.089744" lon="-6.735488">
        <ele>578.4</ele>
        <time>1970-01-01T00:24:23.000Z</time>
      </trkpt>
      <trkpt lat="41.089745" lon="-6.735466">
        <ele>578.7</ele>
        <time>1970-01-01T00:24:24.000Z</time>
      </trkpt>
      <trkpt lat="41.089745" lon="-6.735445">
        <ele>578.9</ele>
        <time>1970-01-01T00:24:25.000Z</time>
      </trkpt>
      <trkpt lat="41.089744" lon="-6.735425">
        <ele>579.1</ele>
        <time>1970-01-01T00:24:26.000Z</time>
      </trkpt>
      <trkpt lat="41.089743" lon="-6.735405">
        <ele>579.3</ele>
        <time>1970-01-01T00:24:27.000Z</time>
      </trkpt>
      <trkpt lat="41.089742" lon="-6.735383">
        <ele>579.6</ele>
        <time>1970-01-01T00:24:28.000Z</time>
      </trkpt>
      <trkpt lat="41.089743" lon="-6.735361">
        <ele>579.8</ele>
        <time>1970-01-01T00:24:29.000Z</time>
      </trkpt>
      <trkpt lat="41.089744" lon="-6.735338">
        <ele>580</ele>
        <time>1970-01-01T00:24:30.000Z</time>
      </trkpt>
      <trkpt lat="41.089744" lon="-6.735315">
        <ele>580.3</ele>
        <time>1970-01-01T00:24:31.000Z</time>
      </trkpt>
      <trkpt lat="41.089742" lon="-6.735291">
        <ele>580.5</ele>
        <time>1970-01-01T00:24:32.000Z</time>
      </trkpt>
      <trkpt lat="41.089739" lon="-6.735268">
        <ele>580.8</ele>
        <time>1970-01-01T00:24:33.000Z</time>
      </trkpt>
      <trkpt lat="41.089738" lon="-6.735243">
        <ele>581.1</ele>
        <time>1970-01-01T00:24:34.000Z</time>
      </trkpt>
      <trkpt lat="41.089738" lon="-6.735218">
        <ele>581.3</ele>
        <time>1970-01-01T00:24:35.000Z</time>
      </trkpt>
      <trkpt lat="41.089741" lon="-6.735194">
        <ele>581.6</ele>
        <time>1970-01-01T00:24:36.000Z</time>
      </trkpt>
      <trkpt lat="41.089742" lon="-6.73517">
        <ele>581.8</ele>
        <time>1970-01-01T00:24:37.000Z</time>
      </trkpt>
      <trkpt lat="41.089744" lon="-6.735147">
        <ele>582.1</ele>
        <time>1970-01-01T00:24:38.000Z</time>
      </trkpt>
      <trkpt lat="41.089744" lon="-6.735123">
        <ele>582.3</ele>
        <time>1970-01-01T00:24:39.000Z</time>
      </trkpt>
      <trkpt lat="41.089745" lon="-6.735101">
        <ele>582.6</ele>
        <time>1970-01-01T00:24:40.000Z</time>
      </trkpt>
      <trkpt lat="41.089746" lon="-6.735078">
        <ele>582.8</ele>
        <time>1970-01-01T00:24:41.000Z</time>
      </trkpt>
      <trkpt lat="41.089747" lon="-6.735056">
        <ele>583.1</ele>
        <time>1970-01-01T00:24:42.000Z</time>
      </trkpt>
      <trkpt lat="41.089746" lon="-6.735034">
        <ele>583.3</ele>
        <time>1970-01-01T00:24:43.000Z</time>
      </trkpt>
      <trkpt lat="41.089746" lon="-6.735012">
        <ele>583.5</ele>
        <time>1970-01-01T00:24:44.000Z</time>
      </trkpt>
      <trkpt lat="41.089744" lon="-6.73499">
        <ele>583.8</ele>
        <time>1970-01-01T00:24:45.000Z</time>
      </trkpt>
      <trkpt lat="41.089744" lon="-6.734967">
        <ele>584</ele>
        <time>1970-01-01T00:24:46.000Z</time>
      </trkpt>
      <trkpt lat="41.089744" lon="-6.734944">
        <ele>584.2</ele>
        <time>1970-01-01T00:24:47.000Z</time>
      </trkpt>
      <trkpt lat="41.089745" lon="-6.734922">
        <ele>584.5</ele>
        <time>1970-01-01T00:24:48.000Z</time>
      </trkpt>
      <trkpt lat="41.089746" lon="-6.734901">
        <ele>584.7</ele>
        <time>1970-01-01T00:24:49.000Z</time>
      </trkpt>
      <trkpt lat="41.089746" lon="-6.734879">
        <ele>584.9</ele>
        <time>1970-01-01T00:24:50.000Z</time>
      </trkpt>
      <trkpt lat="41.089746" lon="-6.734857">
        <ele>585.2</ele>
        <time>1970-01-01T00:24:51.000Z</time>
      </trkpt>
      <trkpt lat="41.089747" lon="-6.734834">
        <ele>585.4</ele>
        <time>1970-01-01T00:24:52.000Z</time>
      </trkpt>
      <trkpt lat="41.08975" lon="-6.734809">
        <ele>585.7</ele>
        <time>1970-01-01T00:24:53.000Z</time>
      </trkpt>
      <trkpt lat="41.089754" lon="-6.734784">
        <ele>586</ele>
        <time>1970-01-01T00:24:54.000Z</time>
      </trkpt>
      <trkpt lat="41.089758" lon="-6.734758">
        <ele>586.2</ele>
        <time>1970-01-01T00:24:55.000Z</time>
      </trkpt>
      <trkpt lat="41.089759" lon="-6.734734">
        <ele>586.5</ele>
        <time>1970-01-01T00:24:56.000Z</time>
      </trkpt>
      <trkpt lat="41.08976" lon="-6.73471">
        <ele>586.8</ele>
        <time>1970-01-01T00:24:57.000Z</time>
      </trkpt>
      <trkpt lat="41.089759" lon="-6.734686">
        <ele>589.9</ele>
        <time>1970-01-01T00:24:58.000Z</time>
      </trkpt>
      <trkpt lat="41.089756" lon="-6.734663">
        <ele>589.9</ele>
        <time>1970-01-01T00:24:59.000Z</time>
      </trkpt>
      <trkpt lat="41.089753" lon="-6.73464">
        <ele>589.9</ele>
        <time>1970-01-01T00:25:00.000Z</time>
      </trkpt>
      <trkpt lat="41.089749" lon="-6.734618">
        <ele>589.9</ele>
        <time>1970-01-01T00:25:01.000Z</time>
      </trkpt>
      <trkpt lat="41.089745" lon="-6.734598">
        <ele>589.9</ele>
        <time>1970-01-01T00:25:02.000Z</time>
      </trkpt>
      <trkpt lat="41.089741" lon="-6.734582">
        <ele>589.9</ele>
        <time>1970-01-01T00:25:03.000Z</time>
      </trkpt>
      <trkpt lat="41.089733" lon="-6.73457">
        <ele>589.9</ele>
        <time>1970-01-01T00:25:04.000Z</time>
      </trkpt>
      <trkpt lat="41.089642" lon="-6.734716">
        <ele>587.6</ele>
        <time>1970-01-01T00:25:05.000Z</time>
      </trkpt>
      <trkpt lat="41.089631" lon="-6.73474">
        <ele>587.5</ele>
        <time>1970-01-01T00:25:06.000Z</time>
      </trkpt>
      <trkpt lat="41.08962" lon="-6.734765">
        <ele>587.3</ele>
        <time>1970-01-01T00:28:07.000Z</time>
      </trkpt>
      <trkpt lat="41.089608" lon="-6.734791">
        <ele>587.2</ele>
        <time>1970-01-01T00:28:08.000Z</time>
      </trkpt>
      <trkpt lat="41.089597" lon="-6.734818">
        <ele>587</ele>
        <time>1970-01-01T00:28:09.000Z</time>
      </trkpt>
      <trkpt lat="41.089587" lon="-6.734844">
        <ele>586.9</ele>
        <time>1970-01-01T00:28:10.000Z</time>
      </trkpt>
      <trkpt lat="41.08958" lon="-6.73487">
        <ele>586.7</ele>
        <time>1970-01-01T00:28:11.000Z</time>
      </trkpt>
      <trkpt lat="41.089574" lon="-6.734896">
        <ele>586.6</ele>
        <time>1970-01-01T00:28:12.000Z</time>
      </trkpt>
      <trkpt lat="41.089568" lon="-6.734921">
        <ele>586.5</ele>
        <time>1970-01-01T00:28:13.000Z</time>
      </trkpt>
      <trkpt lat="41.089561" lon="-6.734947">
        <ele>586.3</ele>
        <time>1970-01-01T00:28:14.000Z</time>
      </trkpt>
      <trkpt lat="41.089552" lon="-6.734974">
        <ele>586.2</ele>
        <time>1970-01-01T00:28:15.000Z</time>
      </trkpt>
      <trkpt lat="41.089543" lon="-6.735002">
        <ele>586.1</ele>
        <time>1970-01-01T00:28:16.000Z</time>
      </trkpt>
      <trkpt lat="41.089535" lon="-6.735028">
        <ele>585.9</ele>
        <time>1970-01-01T00:28:17.000Z</time>
      </trkpt>
      <trkpt lat="41.089528" lon="-6.735052">
        <ele>585.8</ele>
        <time>1970-01-01T00:28:18.000Z</time>
      </trkpt>
      <trkpt lat="41.089523" lon="-6.735073">
        <ele>585.7</ele>
        <time>1970-01-01T00:28:19.000Z</time>
      </trkpt>
      <trkpt lat="41.089516" lon="-6.735097">
        <ele>585.6</ele>
        <time>1970-01-01T00:28:20.000Z</time>
      </trkpt>
      <trkpt lat="41.089507" lon="-6.735125">
        <ele>585.4</ele>
        <time>1970-01-01T00:28:21.000Z</time>
      </trkpt>
      <trkpt lat="41.089495" lon="-6.735158">
        <ele>585.2</ele>
        <time>1970-01-01T00:28:22.000Z</time>
      </trkpt>
      <trkpt lat="41.089483" lon="-6.735192">
        <ele>585</ele>
        <time>1970-01-01T00:28:23.000Z</time>
      </trkpt>
      <trkpt lat="41.089473" lon="-6.735222">
        <ele>584.9</ele>
        <time>1970-01-01T00:28:24.000Z</time>
      </trkpt>
      <trkpt lat="41.089462" lon="-6.735252">
        <ele>584.7</ele>
        <time>1970-01-01T00:28:25.000Z</time>
      </trkpt>
      <trkpt lat="41.089449" lon="-6.735283">
        <ele>584.5</ele>
        <time>1970-01-01T00:28:26.000Z</time>
      </trkpt>
      <trkpt lat="41.089431" lon="-6.735316">
        <ele>584.3</ele>
        <time>1970-01-01T00:28:27.000Z</time>
      </trkpt>
      <trkpt lat="41.089413" lon="-6.735347">
        <ele>584.2</ele>
        <time>1970-01-01T00:28:28.000Z</time>
      </trkpt>
      <trkpt lat="41.089392" lon="-6.735377">
        <ele>584</ele>
        <time>1970-01-01T00:28:29.000Z</time>
      </trkpt>
      <trkpt lat="41.08937" lon="-6.735404">
        <ele>583.8</ele>
        <time>1970-01-01T00:28:30.000Z</time>
      </trkpt>
      <trkpt lat="41.089348" lon="-6.735431">
        <ele>583.6</ele>
        <time>1970-01-01T00:28:31.000Z</time>
      </trkpt>
      <trkpt lat="41.089327" lon="-6.735455">
        <ele>583.4</ele>
        <time>1970-01-01T00:28:32.000Z</time>
      </trkpt>
      <trkpt lat="41.089305" lon="-6.73548">
        <ele>583.2</ele>
        <time>1970-01-01T00:28:33.000Z</time>
      </trkpt>
      <trkpt lat="41.089281" lon="-6.735505">
        <ele>583</ele>
        <time>1970-01-01T00:28:34.000Z</time>
      </trkpt>
      <trkpt lat="41.089254" lon="-6.735532">
        <ele>582.8</ele>
        <time>1970-01-01T00:28:35.000Z</time>
      </trkpt>
      <trkpt lat="41.089227" lon="-6.735557">
        <ele>582.6</ele>
        <time>1970-01-01T00:28:36.000Z</time>
      </trkpt>
      <trkpt lat="41.089203" lon="-6.735582">
        <ele>582.4</ele>
        <time>1970-01-01T00:28:37.000Z</time>
      </trkpt>
      <trkpt lat="41.089179" lon="-6.73561">
        <ele>582.2</ele>
        <time>1970-01-01T00:28:38.000Z</time>
      </trkpt>
      <trkpt lat="41.089152" lon="-6.735643">
        <ele>581.9</ele>
        <time>1970-01-01T00:28:39.000Z</time>
      </trkpt>
      <trkpt lat="41.089123" lon="-6.735678">
        <ele>581.7</ele>
        <time>1970-01-01T00:28:40.000Z</time>
      </trkpt>
      <trkpt lat="41.089094" lon="-6.735712">
        <ele>581.4</ele>
        <time>1970-01-01T00:28:41.000Z</time>
      </trkpt>
      <trkpt lat="41.089067" lon="-6.735743">
        <ele>581.2</ele>
        <time>1970-01-01T00:28:42.000Z</time>
      </trkpt>
      <trkpt lat="41.08904" lon="-6.735777">
        <ele>580.9</ele>
        <time>1970-01-01T00:28:43.000Z</time>
      </trkpt>
      <trkpt lat="41.089014" lon="-6.735813">
        <ele>580.7</ele>
        <time>1970-01-01T00:28:44.000Z</time>
      </trkpt>
      <trkpt lat="41.088989" lon="-6.73585">
        <ele>580.4</ele>
        <time>1970-01-01T00:28:45.000Z</time>
      </trkpt>
      <trkpt lat="41.088963" lon="-6.73589">
        <ele>580.2</ele>
        <time>1970-01-01T00:28:46.000Z</time>
      </trkpt>
      <trkpt lat="41.088937" lon="-6.73593">
        <ele>579.9</ele>
        <time>1970-01-01T00:28:47.000Z</time>
      </trkpt>
      <trkpt lat="41.088909" lon="-6.735972">
        <ele>579.6</ele>
        <time>1970-01-01T00:28:48.000Z</time>
      </trkpt>
      <trkpt lat="41.088882" lon="-6.736013">
        <ele>579.4</ele>
        <time>1970-01-01T00:28:49.000Z</time>
      </trkpt>
      <trkpt lat="41.088854" lon="-6.736054">
        <ele>579.1</ele>
        <time>1970-01-01T00:28:50.000Z</time>
      </trkpt>
      <trkpt lat="41.088824" lon="-6.736097">
        <ele>578.8</ele>
        <time>1970-01-01T00:28:51.000Z</time>
      </trkpt>
      <trkpt lat="41.088794" lon="-6.73614">
        <ele>578.5</ele>
        <time>1970-01-01T00:28:52.000Z</time>
      </trkpt>
      <trkpt lat="41.088763" lon="-6.736184">
        <ele>578.2</ele>
        <time>1970-01-01T00:28:53.000Z</time>
      </trkpt>
      <trkpt lat="41.088731" lon="-6.736227">
        <ele>577.9</ele>
        <time>1970-01-01T00:28:54.000Z</time>
      </trkpt>
      <trkpt lat="41.088699" lon="-6.73627">
        <ele>577.6</ele>
        <time>1970-01-01T00:28:55.000Z</time>
      </trkpt>
      <trkpt lat="41.088666" lon="-6.736314">
        <ele>577.3</ele>
        <time>1970-01-01T00:28:56.000Z</time>
      </trkpt>
      <trkpt lat="41.088635" lon="-6.736358">
        <ele>577</ele>
        <time>1970-01-01T00:28:57.000Z</time>
      </trkpt>
      <trkpt lat="41.088604" lon="-6.736401">
        <ele>576.8</ele>
        <time>1970-01-01T00:28:58.000Z</time>
      </trkpt>
      <trkpt lat="41.088572" lon="-6.736442">
        <ele>576.5</ele>
        <time>1970-01-01T00:28:59.000Z</time>
      </trkpt>
      <trkpt lat="41.088539" lon="-6.736481">
        <ele>576.2</ele>
        <time>1970-01-01T00:29:00.000Z</time>
      </trkpt>
      <trkpt lat="41.088505" lon="-6.73652">
        <ele>575.9</ele>
        <time>1970-01-01T00:29:01.000Z</time>
      </trkpt>
      <trkpt lat="41.088471" lon="-6.736561">
        <ele>575.6</ele>
        <time>1970-01-01T00:29:02.000Z</time>
      </trkpt>
      <trkpt lat="41.088435" lon="-6.736602">
        <ele>575.3</ele>
        <time>1970-01-01T00:29:03.000Z</time>
      </trkpt>
      <trkpt lat="41.088399" lon="-6.736644">
        <ele>575</ele>
        <time>1970-01-01T00:29:04.000Z</time>
      </trkpt>
      <trkpt lat="41.088362" lon="-6.736684">
        <ele>574.7</ele>
        <time>1970-01-01T00:29:05.000Z</time>
      </trkpt>
      <trkpt lat="41.088324" lon="-6.736725">
        <ele>574.3</ele>
        <time>1970-01-01T00:29:06.000Z</time>
      </trkpt>
      <trkpt lat="41.088287" lon="-6.736766">
        <ele>574</ele>
        <time>1970-01-01T00:29:07.000Z</time>
      </trkpt>
      <trkpt lat="41.088251" lon="-6.736805">
        <ele>573.7</ele>
        <time>1970-01-01T00:29:08.000Z</time>
      </trkpt>
      <trkpt lat="41.088215" lon="-6.736845">
        <ele>573.4</ele>
        <time>1970-01-01T00:29:09.000Z</time>
      </trkpt>
      <trkpt lat="41.088178" lon="-6.736886">
        <ele>573.1</ele>
        <time>1970-01-01T00:29:10.000Z</time>
      </trkpt>
      <trkpt lat="41.08814" lon="-6.736927">
        <ele>572.8</ele>
        <time>1970-01-01T00:29:11.000Z</time>
      </trkpt>
      <trkpt lat="41.088101" lon="-6.736969">
        <ele>572.5</ele>
        <time>1970-01-01T00:29:12.000Z</time>
      </trkpt>
      <trkpt lat="41.088064" lon="-6.737012">
        <ele>572.1</ele>
        <time>1970-01-01T00:29:13.000Z</time>
      </trkpt>
      <trkpt lat="41.088028" lon="-6.737059">
        <ele>571.8</ele>
        <time>1970-01-01T00:29:14.000Z</time>
      </trkpt>
      <trkpt lat="41.087992" lon="-6.737109">
        <ele>571.5</ele>
        <time>1970-01-01T00:29:15.000Z</time>
      </trkpt>
      <trkpt lat="41.087952" lon="-6.737167">
        <ele>571.1</ele>
        <time>1970-01-01T00:29:16.000Z</time>
      </trkpt>
      <trkpt lat="41.087912" lon="-6.737229">
        <ele>570.7</ele>
        <time>1970-01-01T00:29:17.000Z</time>
      </trkpt>
      <trkpt lat="41.087874" lon="-6.737291">
        <ele>570.3</ele>
        <time>1970-01-01T00:29:18.000Z</time>
      </trkpt>
      <trkpt lat="41.087837" lon="-6.737354">
        <ele>569.9</ele>
        <time>1970-01-01T00:29:19.000Z</time>
      </trkpt>
      <trkpt lat="41.087801" lon="-6.73742">
        <ele>569.5</ele>
        <time>1970-01-01T00:29:20.000Z</time>
      </trkpt>
      <trkpt lat="41.087766" lon="-6.737489">
        <ele>569.1</ele>
        <time>1970-01-01T00:29:21.000Z</time>
      </trkpt>
      <trkpt lat="41.087731" lon="-6.73756">
        <ele>568.7</ele>
        <time>1970-01-01T00:29:22.000Z</time>
      </trkpt>
      <trkpt lat="41.087701" lon="-6.73763">
        <ele>568.3</ele>
        <time>1970-01-01T00:29:23.000Z</time>
      </trkpt>
      <trkpt lat="41.087674" lon="-6.737701">
        <ele>567.9</ele>
        <time>1970-01-01T00:29:24.000Z</time>
      </trkpt>
      <trkpt lat="41.087653" lon="-6.737775">
        <ele>567.5</ele>
        <time>1970-01-01T00:29:25.000Z</time>
      </trkpt>
      <trkpt lat="41.087633" lon="-6.737852">
        <ele>567.1</ele>
        <time>1970-01-01T00:29:26.000Z</time>
      </trkpt>
      <trkpt lat="41.087618" lon="-6.737927">
        <ele>566.7</ele>
        <time>1970-01-01T00:29:27.000Z</time>
      </trkpt>
      <trkpt lat="41.087611" lon="-6.737996">
        <ele>566.4</ele>
        <time>1970-01-01T00:29:28.000Z</time>
      </trkpt>
      <trkpt lat="41.087612" lon="-6.738063">
        <ele>566</ele>
        <time>1970-01-01T00:29:29.000Z</time>
      </trkpt>
      <trkpt lat="41.087629" lon="-6.738122">
        <ele>565.7</ele>
        <time>1970-01-01T00:29:30.000Z</time>
      </trkpt>
      <trkpt lat="41.087645" lon="-6.738187">
        <ele>565.4</ele>
        <time>1970-01-01T00:29:31.000Z</time>
      </trkpt>
      <trkpt lat="41.087662" lon="-6.738254">
        <ele>565.1</ele>
        <time>1970-01-01T00:29:32.000Z</time>
      </trkpt>
      <trkpt lat="41.087671" lon="-6.738329">
        <ele>564.7</ele>
        <time>1970-01-01T00:29:33.000Z</time>
      </trkpt>
      <trkpt lat="41.087678" lon="-6.738407">
        <ele>564.3</ele>
        <time>1970-01-01T00:29:34.000Z</time>
      </trkpt>
      <trkpt lat="41.087683" lon="-6.73849">
        <ele>563.9</ele>
        <time>1970-01-01T00:29:35.000Z</time>
      </trkpt>
      <trkpt lat="41.087689" lon="-6.738579">
        <ele>563.4</ele>
        <time>1970-01-01T00:29:36.000Z</time>
      </trkpt>
      <trkpt lat="41.087698" lon="-6.738672">
        <ele>563</ele>
        <time>1970-01-01T00:29:37.000Z</time>
      </trkpt>
      <trkpt lat="41.087707" lon="-6.738768">
        <ele>562.5</ele>
        <time>1970-01-01T00:29:38.000Z</time>
      </trkpt>
      <trkpt lat="41.087715" lon="-6.738864">
        <ele>562</ele>
        <time>1970-01-01T00:29:39.000Z</time>
      </trkpt>
      <trkpt lat="41.087721" lon="-6.738958">
        <ele>561.6</ele>
        <time>1970-01-01T00:29:40.000Z</time>
      </trkpt>
      <trkpt lat="41.087722" lon="-6.739047">
        <ele>561.1</ele>
        <time>1970-01-01T00:29:41.000Z</time>
      </trkpt>
      <trkpt lat="41.087719" lon="-6.73913">
        <ele>560.7</ele>
        <time>1970-01-01T00:29:42.000Z</time>
      </trkpt>
      <trkpt lat="41.087713" lon="-6.73921">
        <ele>560.3</ele>
        <time>1970-01-01T00:29:43.000Z</time>
      </trkpt>
      <trkpt lat="41.087705" lon="-6.73929">
        <ele>559.9</ele>
        <time>1970-01-01T00:29:44.000Z</time>
      </trkpt>
      <trkpt lat="41.087696" lon="-6.739374">
        <ele>559.5</ele>
        <time>1970-01-01T00:29:45.000Z</time>
      </trkpt>
      <trkpt lat="41.087683" lon="-6.739459">
        <ele>559.1</ele>
        <time>1970-01-01T00:29:46.000Z</time>
      </trkpt>
      <trkpt lat="41.087668" lon="-6.739544">
        <ele>558.7</ele>
        <time>1970-01-01T00:29:47.000Z</time>
      </trkpt>
      <trkpt lat="41.087651" lon="-6.739625">
        <ele>558.3</ele>
        <time>1970-01-01T00:29:48.000Z</time>
      </trkpt>
      <trkpt lat="41.087631" lon="-6.739704">
        <ele>557.8</ele>
        <time>1970-01-01T00:29:49.000Z</time>
      </trkpt>
      <trkpt lat="41.087605" lon="-6.739782">
        <ele>557.4</ele>
        <time>1970-01-01T00:29:50.000Z</time>
      </trkpt>
      <trkpt lat="41.087567" lon="-6.739858">
        <ele>557</ele>
        <time>1970-01-01T00:29:51.000Z</time>
      </trkpt>
      <trkpt lat="41.087517" lon="-6.739929">
        <ele>556.5</ele>
        <time>1970-01-01T00:29:52.000Z</time>
      </trkpt>
      <trkpt lat="41.087458" lon="-6.739993">
        <ele>556</ele>
        <time>1970-01-01T00:29:53.000Z</time>
      </trkpt>
      <trkpt lat="41.087392" lon="-6.740048">
        <ele>555.5</ele>
        <time>1970-01-01T00:29:54.000Z</time>
      </trkpt>
      <trkpt lat="41.08732" lon="-6.740099">
        <ele>555</ele>
        <time>1970-01-01T00:29:55.000Z</time>
      </trkpt>
      <trkpt lat="41.087238" lon="-6.740147">
        <ele>554.4</ele>
        <time>1970-01-01T00:29:56.000Z</time>
      </trkpt>
      <trkpt lat="41.087147" lon="-6.740198">
        <ele>553.7</ele>
        <time>1970-01-01T00:29:57.000Z</time>
      </trkpt>
      <trkpt lat="41.087052" lon="-6.740253">
        <ele>553.1</ele>
        <time>1970-01-01T00:29:58.000Z</time>
      </trkpt>
      <trkpt lat="41.086959" lon="-6.740313">
        <ele>552.4</ele>
        <time>1970-01-01T00:29:59.000Z</time>
      </trkpt>
      <trkpt lat="41.086873" lon="-6.740374">
        <ele>551.8</ele>
        <time>1970-01-01T00:30:00.000Z</time>
      </trkpt>
      <trkpt lat="41.086797" lon="-6.74043">
        <ele>551.2</ele>
        <time>1970-01-01T00:30:01.000Z</time>
      </trkpt>
      <trkpt lat="41.08673" lon="-6.740479">
        <ele>550.7</ele>
        <time>1970-01-01T00:30:02.000Z</time>
      </trkpt>
      <trkpt lat="41.086675" lon="-6.740528">
        <ele>550.3</ele>
        <time>1970-01-01T00:30:03.000Z</time>
      </trkpt>
      <trkpt lat="41.086626" lon="-6.740584">
        <ele>549.8</ele>
        <time>1970-01-01T00:30:04.000Z</time>
      </trkpt>
      <trkpt lat="41.086583" lon="-6.740654">
        <ele>549.4</ele>
        <time>1970-01-01T00:30:05.000Z</time>
      </trkpt>
      <trkpt lat="41.086548" lon="-6.740732">
        <ele>549</ele>
        <time>1970-01-01T00:30:06.000Z</time>
      </trkpt>
      <trkpt lat="41.086519" lon="-6.740817">
        <ele>548.5</ele>
        <time>1970-01-01T00:30:07.000Z</time>
      </trkpt>
      <trkpt lat="41.086496" lon="-6.740904">
        <ele>548</ele>
        <time>1970-01-01T00:30:08.000Z</time>
      </trkpt>
      <trkpt lat="41.086475" lon="-6.740998">
        <ele>547.6</ele>
        <time>1970-01-01T00:30:09.000Z</time>
      </trkpt>
      <trkpt lat="41.086455" lon="-6.741099">
        <ele>546.4</ele>
        <time>1970-01-01T00:30:10.000Z</time>
      </trkpt>
      <trkpt lat="41.086434" lon="-6.741205">
        <ele>545</ele>
        <time>1970-01-01T00:30:11.000Z</time>
      </trkpt>
      <trkpt lat="41.086413" lon="-6.741314">
        <ele>543.4</ele>
        <time>1970-01-01T00:30:12.000Z</time>
      </trkpt>
      <trkpt lat="41.08639" lon="-6.741427">
        <ele>541.9</ele>
        <time>1970-01-01T00:30:13.000Z</time>
      </trkpt>
      <trkpt lat="41.086368" lon="-6.741546">
        <ele>540.2</ele>
        <time>1970-01-01T00:30:14.000Z</time>
      </trkpt>
      <trkpt lat="41.086347" lon="-6.741668">
        <ele>538.6</ele>
        <time>1970-01-01T00:30:15.000Z</time>
      </trkpt>
      <trkpt lat="41.086328" lon="-6.741793">
        <ele>536.9</ele>
        <time>1970-01-01T00:30:16.000Z</time>
      </trkpt>
      <trkpt lat="41.086313" lon="-6.741921">
        <ele>535.1</ele>
        <time>1970-01-01T00:30:17.000Z</time>
      </trkpt>
      <trkpt lat="41.086306" lon="-6.742053">
        <ele>533.4</ele>
        <time>1970-01-01T00:30:18.000Z</time>
      </trkpt>
      <trkpt lat="41.086306" lon="-6.742183">
        <ele>531.6</ele>
        <time>1970-01-01T00:30:19.000Z</time>
      </trkpt>
      <trkpt lat="41.08631" lon="-6.74231">
        <ele>529.9</ele>
        <time>1970-01-01T00:30:20.000Z</time>
      </trkpt>
      <trkpt lat="41.086314" lon="-6.742436">
        <ele>528.2</ele>
        <time>1970-01-01T00:30:21.000Z</time>
      </trkpt>
      <trkpt lat="41.086318" lon="-6.742563">
        <ele>526.5</ele>
        <time>1970-01-01T00:30:22.000Z</time>
      </trkpt>
      <trkpt lat="41.086323" lon="-6.742689">
        <ele>524.8</ele>
        <time>1970-01-01T00:30:23.000Z</time>
      </trkpt>
      <trkpt lat="41.08633" lon="-6.742809">
        <ele>523.2</ele>
        <time>1970-01-01T00:30:24.000Z</time>
      </trkpt>
      <trkpt lat="41.086337" lon="-6.742921">
        <ele>521.7</ele>
        <time>1970-01-01T00:30:25.000Z</time>
      </trkpt>
      <trkpt lat="41.086339" lon="-6.743027">
        <ele>520.3</ele>
        <time>1970-01-01T00:30:26.000Z</time>
      </trkpt>
      <trkpt lat="41.086332" lon="-6.743128">
        <ele>518.9</ele>
        <time>1970-01-01T00:30:27.000Z</time>
      </trkpt>
      <trkpt lat="41.086312" lon="-6.743223">
        <ele>517.6</ele>
        <time>1970-01-01T00:30:28.000Z</time>
      </trkpt>
      <trkpt lat="41.086277" lon="-6.74331">
        <ele>516.3</ele>
        <time>1970-01-01T00:30:29.000Z</time>
      </trkpt>
      <trkpt lat="41.08623" lon="-6.743386">
        <ele>515</ele>
        <time>1970-01-01T00:30:30.000Z</time>
      </trkpt>
      <trkpt lat="41.086175" lon="-6.743453">
        <ele>515.5</ele>
        <time>1970-01-01T00:30:31.000Z</time>
      </trkpt>
      <trkpt lat="41.086111" lon="-6.743514">
        <ele>515.1</ele>
        <time>1970-01-01T00:30:32.000Z</time>
      </trkpt>
      <trkpt lat="41.086041" lon="-6.743574">
        <ele>515.2</ele>
        <time>1970-01-01T00:30:33.000Z</time>
      </trkpt>
      <trkpt lat="41.085966" lon="-6.743635">
        <ele>514.2</ele>
        <time>1970-01-01T00:30:34.000Z</time>
      </trkpt>
      <trkpt lat="41.085889" lon="-6.743699">
        <ele>513.8</ele>
        <time>1970-01-01T00:30:35.000Z</time>
      </trkpt>
      <trkpt lat="41.085809" lon="-6.743769">
        <ele>512.6</ele>
        <time>1970-01-01T00:30:36.000Z</time>
      </trkpt>
      <trkpt lat="41.085726" lon="-6.743842">
        <ele>511.8</ele>
        <time>1970-01-01T00:30:37.000Z</time>
      </trkpt>
      <trkpt lat="41.08564" lon="-6.743922">
        <ele>509.3</ele>
        <time>1970-01-01T00:30:38.000Z</time>
      </trkpt>
      <trkpt lat="41.085553" lon="-6.744001">
        <ele>506.9</ele>
        <time>1970-01-01T00:30:39.000Z</time>
      </trkpt>
      <trkpt lat="41.085465" lon="-6.744079">
        <ele>504.5</ele>
        <time>1970-01-01T00:30:40.000Z</time>
      </trkpt>
      <trkpt lat="41.085378" lon="-6.744155">
        <ele>502.1</ele>
        <time>1970-01-01T00:30:41.000Z</time>
      </trkpt>
      <trkpt lat="41.085291" lon="-6.74423">
        <ele>501.1</ele>
        <time>1970-01-01T00:30:42.000Z</time>
      </trkpt>
      <trkpt lat="41.085207" lon="-6.744304">
        <ele>498.2</ele>
        <time>1970-01-01T00:30:43.000Z</time>
      </trkpt>
      <trkpt lat="41.085124" lon="-6.744378">
        <ele>495.5</ele>
        <time>1970-01-01T00:30:44.000Z</time>
      </trkpt>
      <trkpt lat="41.08504" lon="-6.74445">
        <ele>493.3</ele>
        <time>1970-01-01T00:30:45.000Z</time>
      </trkpt>
      <trkpt lat="41.084946" lon="-6.744515">
        <ele>493</ele>
        <time>1970-01-01T00:30:46.000Z</time>
      </trkpt>
      <trkpt lat="41.084842" lon="-6.74457">
        <ele>492.8</ele>
        <time>1970-01-01T00:30:47.000Z</time>
      </trkpt>
      <trkpt lat="41.084732" lon="-6.74462">
        <ele>491.3</ele>
        <time>1970-01-01T00:30:48.000Z</time>
      </trkpt>
      <trkpt lat="41.084623" lon="-6.744675">
        <ele>492</ele>
        <time>1970-01-01T00:30:49.000Z</time>
      </trkpt>
      <trkpt lat="41.084516" lon="-6.744739">
        <ele>491.8</ele>
        <time>1970-01-01T00:30:50.000Z</time>
      </trkpt>
      <trkpt lat="41.084414" lon="-6.744815">
        <ele>490.1</ele>
        <time>1970-01-01T00:30:51.000Z</time>
      </trkpt>
      <trkpt lat="41.08432" lon="-6.7449">
        <ele>488.7</ele>
        <time>1970-01-01T00:30:52.000Z</time>
      </trkpt>
      <trkpt lat="41.084235" lon="-6.744991">
        <ele>487.7</ele>
        <time>1970-01-01T00:30:53.000Z</time>
      </trkpt>
      <trkpt lat="41.084162" lon="-6.745083">
        <ele>486.4</ele>
        <time>1970-01-01T00:30:54.000Z</time>
      </trkpt>
      <trkpt lat="41.084098" lon="-6.745174">
        <ele>485.2</ele>
        <time>1970-01-01T00:30:55.000Z</time>
      </trkpt>
      <trkpt lat="41.084039" lon="-6.745261">
        <ele>483.7</ele>
        <time>1970-01-01T00:30:56.000Z</time>
      </trkpt>
      <trkpt lat="41.083978" lon="-6.745343">
        <ele>481.5</ele>
        <time>1970-01-01T00:30:57.000Z</time>
      </trkpt>
      <trkpt lat="41.083918" lon="-6.745417">
        <ele>480.1</ele>
        <time>1970-01-01T00:30:58.000Z</time>
      </trkpt>
      <trkpt lat="41.083862" lon="-6.745482">
        <ele>479.1</ele>
        <time>1970-01-01T00:30:59.000Z</time>
      </trkpt>
      <trkpt lat="41.083813" lon="-6.74554">
        <ele>479.2</ele>
        <time>1970-01-01T00:31:00.000Z</time>
      </trkpt>
      <trkpt lat="41.083772" lon="-6.745594">
        <ele>478.6</ele>
        <time>1970-01-01T00:31:01.000Z</time>
      </trkpt>
      <trkpt lat="41.083741" lon="-6.745644">
        <ele>477.4</ele>
        <time>1970-01-01T00:31:02.000Z</time>
      </trkpt>
      <trkpt lat="41.083724" lon="-6.745687">
        <ele>476.3</ele>
        <time>1970-01-01T00:31:03.000Z</time>
      </trkpt>
      <trkpt lat="41.083712" lon="-6.745723">
        <ele>475.7</ele>
        <time>1970-01-01T00:31:04.000Z</time>
      </trkpt>
      <trkpt lat="41.083702" lon="-6.745748">
        <ele>474.6</ele>
        <time>1970-01-01T00:31:05.000Z</time>
      </trkpt>
      <trkpt lat="41.083682" lon="-6.745763">
        <ele>475.1</ele>
        <time>1970-01-01T00:31:06.000Z</time>
      </trkpt>
      <trkpt lat="41.083656" lon="-6.745765">
        <ele>475.1</ele>
        <time>1970-01-01T00:31:07.000Z</time>
      </trkpt>
      <trkpt lat="41.083621" lon="-6.745758">
        <ele>475.9</ele>
        <time>1970-01-01T00:31:08.000Z</time>
      </trkpt>
      <trkpt lat="41.083579" lon="-6.74575">
        <ele>476.2</ele>
        <time>1970-01-01T00:31:09.000Z</time>
      </trkpt>
      <trkpt lat="41.083527" lon="-6.745744">
        <ele>476.5</ele>
        <time>1970-01-01T00:31:10.000Z</time>
      </trkpt>
      <trkpt lat="41.083471" lon="-6.745739">
        <ele>476.8</ele>
        <time>1970-01-01T00:31:11.000Z</time>
      </trkpt>
      <trkpt lat="41.083412" lon="-6.745734">
        <ele>478.2</ele>
        <time>1970-01-01T00:31:12.000Z</time>
      </trkpt>
      <trkpt lat="41.083354" lon="-6.745728">
        <ele>478.3</ele>
        <time>1970-01-01T00:31:13.000Z</time>
      </trkpt>
      <trkpt lat="41.083295" lon="-6.745725">
        <ele>478.3</ele>
        <time>1970-01-01T00:31:14.000Z</time>
      </trkpt>
      <trkpt lat="41.083235" lon="-6.745725">
        <ele>478.3</ele>
        <time>1970-01-01T00:31:15.000Z</time>
      </trkpt>
      <trkpt lat="41.083173" lon="-6.745726">
        <ele>478.1</ele>
        <time>1970-01-01T00:31:16.000Z</time>
      </trkpt>
      <trkpt lat="41.083109" lon="-6.745727">
        <ele>477.8</ele>
        <time>1970-01-01T00:31:17.000Z</time>
      </trkpt>
      <trkpt lat="41.083043" lon="-6.745727">
        <ele>477.4</ele>
        <time>1970-01-01T00:31:18.000Z</time>
      </trkpt>
      <trkpt lat="41.082974" lon="-6.745728">
        <ele>476.7</ele>
        <time>1970-01-01T00:31:19.000Z</time>
      </trkpt>
      <trkpt lat="41.082901" lon="-6.74573">
        <ele>476.2</ele>
        <time>1970-01-01T00:31:20.000Z</time>
      </trkpt>
      <trkpt lat="41.082825" lon="-6.745734">
        <ele>475.5</ele>
        <time>1970-01-01T00:31:21.000Z</time>
      </trkpt>
      <trkpt lat="41.082747" lon="-6.745741">
        <ele>473.5</ele>
        <time>1970-01-01T00:31:22.000Z</time>
      </trkpt>
      <trkpt lat="41.08267" lon="-6.745751">
        <ele>472.8</ele>
        <time>1970-01-01T00:31:23.000Z</time>
      </trkpt>
      <trkpt lat="41.082593" lon="-6.745764">
        <ele>472.1</ele>
        <time>1970-01-01T00:31:24.000Z</time>
      </trkpt>
      <trkpt lat="41.082519" lon="-6.745776">
        <ele>471</ele>
        <time>1970-01-01T00:31:25.000Z</time>
      </trkpt>
      <trkpt lat="41.082447" lon="-6.745784">
        <ele>469.4</ele>
        <time>1970-01-01T00:31:26.000Z</time>
      </trkpt>
      <trkpt lat="41.082379" lon="-6.745784">
        <ele>468.9</ele>
        <time>1970-01-01T00:31:27.000Z</time>
      </trkpt>
      <trkpt lat="41.082313" lon="-6.745775">
        <ele>469.2</ele>
        <time>1970-01-01T00:31:28.000Z</time>
      </trkpt>
      <trkpt lat="41.082252" lon="-6.745759">
        <ele>468.8</ele>
        <time>1970-01-01T00:31:29.000Z</time>
      </trkpt>
      <trkpt lat="41.082197" lon="-6.745738">
        <ele>468.4</ele>
        <time>1970-01-01T00:31:30.000Z</time>
      </trkpt>
      <trkpt lat="41.082149" lon="-6.745713">
        <ele>469.1</ele>
        <time>1970-01-01T00:31:31.000Z</time>
      </trkpt>
      <trkpt lat="41.082105" lon="-6.745689">
        <ele>469.8</ele>
        <time>1970-01-01T00:31:32.000Z</time>
      </trkpt>
      <trkpt lat="41.082062" lon="-6.745666">
        <ele>469.5</ele>
        <time>1970-01-01T00:31:33.000Z</time>
      </trkpt>
      <trkpt lat="41.08202" lon="-6.745644">
        <ele>470.4</ele>
        <time>1970-01-01T00:31:34.000Z</time>
      </trkpt>
      <trkpt lat="41.081978" lon="-6.745626">
        <ele>470.2</ele>
        <time>1970-01-01T00:31:35.000Z</time>
      </trkpt>
      <trkpt lat="41.081936" lon="-6.745608">
        <ele>469.7</ele>
        <time>1970-01-01T00:31:36.000Z</time>
      </trkpt>
      <trkpt lat="41.081894" lon="-6.745589">
        <ele>471.3</ele>
        <time>1970-01-01T00:31:37.000Z</time>
      </trkpt>
      <trkpt lat="41.081853" lon="-6.745567">
        <ele>471.1</ele>
        <time>1970-01-01T00:31:38.000Z</time>
      </trkpt>
      <trkpt lat="41.081811" lon="-6.745542">
        <ele>472.1</ele>
        <time>1970-01-01T00:31:39.000Z</time>
      </trkpt>
      <trkpt lat="41.081769" lon="-6.745514">
        <ele>472.7</ele>
        <time>1970-01-01T00:31:40.000Z</time>
      </trkpt>
      <trkpt lat="41.081728" lon="-6.745483">
        <ele>472.4</ele>
        <time>1970-01-01T00:31:41.000Z</time>
      </trkpt>
      <trkpt lat="41.08169" lon="-6.74545">
        <ele>473.2</ele>
        <time>1970-01-01T00:31:42.000Z</time>
      </trkpt>
      <trkpt lat="41.081654" lon="-6.745417">
        <ele>474</ele>
        <time>1970-01-01T00:31:43.000Z</time>
      </trkpt>
      <trkpt lat="41.081621" lon="-6.745385">
        <ele>474.8</ele>
        <time>1970-01-01T00:31:44.000Z</time>
      </trkpt>
      <trkpt lat="41.08159" lon="-6.745353">
        <ele>474.4</ele>
        <time>1970-01-01T00:31:45.000Z</time>
      </trkpt>
      <trkpt lat="41.08156" lon="-6.74532">
        <ele>475.3</ele>
        <time>1970-01-01T00:31:46.000Z</time>
      </trkpt>
      <trkpt lat="41.08153" lon="-6.745289">
        <ele>476.3</ele>
        <time>1970-01-01T00:31:47.000Z</time>
      </trkpt>
      <trkpt lat="41.0815" lon="-6.745258">
        <ele>477.2</ele>
        <time>1970-01-01T00:31:48.000Z</time>
      </trkpt>
      <trkpt lat="41.08147" lon="-6.745229">
        <ele>476.8</ele>
        <time>1970-01-01T00:31:49.000Z</time>
      </trkpt>
      <trkpt lat="41.081441" lon="-6.745201">
        <ele>477.7</ele>
        <time>1970-01-01T00:31:50.000Z</time>
      </trkpt>
      <trkpt lat="41.081414" lon="-6.745172">
        <ele>478.5</ele>
        <time>1970-01-01T00:31:51.000Z</time>
      </trkpt>
      <trkpt lat="41.081388" lon="-6.745141">
        <ele>477.9</ele>
        <time>1970-01-01T00:31:52.000Z</time>
      </trkpt>
      <trkpt lat="41.081363" lon="-6.745108">
        <ele>479.2</ele>
        <time>1970-01-01T00:31:53.000Z</time>
      </trkpt>
      <trkpt lat="41.081337" lon="-6.745077">
        <ele>479.9</ele>
        <time>1970-01-01T00:31:54.000Z</time>
      </trkpt>
      <trkpt lat="41.08131" lon="-6.745046">
        <ele>480.5</ele>
        <time>1970-01-01T00:31:55.000Z</time>
      </trkpt>
      <trkpt lat="41.081282" lon="-6.745015">
        <ele>479.9</ele>
        <time>1970-01-01T00:31:56.000Z</time>
      </trkpt>
      <trkpt lat="41.081254" lon="-6.744982">
        <ele>480.4</ele>
        <time>1970-01-01T00:31:57.000Z</time>
      </trkpt>
      <trkpt lat="41.081226" lon="-6.744949">
        <ele>481</ele>
        <time>1970-01-01T00:31:58.000Z</time>
      </trkpt>
      <trkpt lat="41.081198" lon="-6.744915">
        <ele>482.2</ele>
        <time>1970-01-01T00:31:59.000Z</time>
      </trkpt>
      <trkpt lat="41.081171" lon="-6.744881">
        <ele>481.5</ele>
        <time>1970-01-01T00:32:00.000Z</time>
      </trkpt>
      <trkpt lat="41.081144" lon="-6.744847">
        <ele>481.9</ele>
        <time>1970-01-01T00:32:01.000Z</time>
      </trkpt>
      <trkpt lat="41.081119" lon="-6.744813">
        <ele>482.3</ele>
        <time>1970-01-01T00:32:02.000Z</time>
      </trkpt>
      <trkpt lat="41.081094" lon="-6.744778">
        <ele>482.6</ele>
        <time>1970-01-01T00:32:03.000Z</time>
      </trkpt>
      <trkpt lat="41.081071" lon="-6.744744">
        <ele>483.8</ele>
        <time>1970-01-01T00:32:04.000Z</time>
      </trkpt>
      <trkpt lat="41.081048" lon="-6.744711">
        <ele>482.9</ele>
        <time>1970-01-01T00:32:05.000Z</time>
      </trkpt>
      <trkpt lat="41.081028" lon="-6.744678">
        <ele>483.1</ele>
        <time>1970-01-01T00:32:06.000Z</time>
      </trkpt>
      <trkpt lat="41.081009" lon="-6.744646">
        <ele>484.1</ele>
        <time>1970-01-01T00:32:07.000Z</time>
      </trkpt>
      <trkpt lat="41.080992" lon="-6.744614">
        <ele>484.1</ele>
        <time>1970-01-01T00:32:08.000Z</time>
      </trkpt>
      <trkpt lat="41.080975" lon="-6.744582">
        <ele>484.1</ele>
        <time>1970-01-01T00:32:09.000Z</time>
      </trkpt>
      <trkpt lat="41.08096" lon="-6.74455">
        <ele>484.1</ele>
        <time>1970-01-01T00:32:10.000Z</time>
      </trkpt>
      <trkpt lat="41.080945" lon="-6.744518">
        <ele>485</ele>
        <time>1970-01-01T00:32:11.000Z</time>
      </trkpt>
      <trkpt lat="41.080931" lon="-6.744485">
        <ele>484.9</ele>
        <time>1970-01-01T00:32:12.000Z</time>
      </trkpt>
      <trkpt lat="41.080917" lon="-6.744453">
        <ele>485</ele>
        <time>1970-01-01T00:32:13.000Z</time>
      </trkpt>
      <trkpt lat="41.080904" lon="-6.744419">
        <ele>486</ele>
        <time>1970-01-01T00:32:14.000Z</time>
      </trkpt>
      <trkpt lat="41.08089" lon="-6.744385">
        <ele>485.9</ele>
        <time>1970-01-01T00:32:15.000Z</time>
      </trkpt>
      <trkpt lat="41.080878" lon="-6.74435">
        <ele>486.9</ele>
        <time>1970-01-01T00:32:16.000Z</time>
      </trkpt>
      <trkpt lat="41.080865" lon="-6.744315">
        <ele>486.7</ele>
        <time>1970-01-01T00:32:17.000Z</time>
      </trkpt>
      <trkpt lat="41.080855" lon="-6.744281">
        <ele>486.7</ele>
        <time>1970-01-01T00:32:18.000Z</time>
      </trkpt>
      <trkpt lat="41.080845" lon="-6.744246">
        <ele>487.7</ele>
        <time>1970-01-01T00:32:19.000Z</time>
      </trkpt>
      <trkpt lat="41.080836" lon="-6.74421">
        <ele>487.4</ele>
        <time>1970-01-01T00:32:20.000Z</time>
      </trkpt>
      <trkpt lat="41.080827" lon="-6.744174">
        <ele>488.4</ele>
        <time>1970-01-01T00:32:21.000Z</time>
      </trkpt>
      <trkpt lat="41.080819" lon="-6.744138">
        <ele>489.3</ele>
        <time>1970-01-01T00:32:22.000Z</time>
      </trkpt>
      <trkpt lat="41.080812" lon="-6.744103">
        <ele>490.2</ele>
        <time>1970-01-01T00:32:23.000Z</time>
      </trkpt>
      <trkpt lat="41.080805" lon="-6.744068">
        <ele>488.9</ele>
        <time>1970-01-01T00:32:24.000Z</time>
      </trkpt>
      <trkpt lat="41.080798" lon="-6.744034">
        <ele>489.8</ele>
        <time>1970-01-01T00:32:25.000Z</time>
      </trkpt>
      <trkpt lat="41.08079" lon="-6.744001">
        <ele>490.8</ele>
        <time>1970-01-01T00:32:26.000Z</time>
      </trkpt>
      <trkpt lat="41.080781" lon="-6.743966">
        <ele>491.8</ele>
        <time>1970-01-01T00:32:27.000Z</time>
      </trkpt>
      <trkpt lat="41.080772" lon="-6.74393">
        <ele>491.4</ele>
        <time>1970-01-01T00:32:28.000Z</time>
      </trkpt>
      <trkpt lat="41.080762" lon="-6.743892">
        <ele>491.4</ele>
        <time>1970-01-01T00:32:29.000Z</time>
      </trkpt>
      <trkpt lat="41.080752" lon="-6.743856">
        <ele>492.5</ele>
        <time>1970-01-01T00:32:30.000Z</time>
      </trkpt>
      <trkpt lat="41.080742" lon="-6.743821">
        <ele>492.1</ele>
        <time>1970-01-01T00:32:31.000Z</time>
      </trkpt>
      <trkpt lat="41.080732" lon="-6.743787">
        <ele>493.1</ele>
        <time>1970-01-01T00:32:32.000Z</time>
      </trkpt>
      <trkpt lat="41.080722" lon="-6.743753">
        <ele>494.2</ele>
        <time>1970-01-01T00:32:33.000Z</time>
      </trkpt>
      <trkpt lat="41.08071" lon="-6.743719">
        <ele>494.2</ele>
        <time>1970-01-01T00:32:34.000Z</time>
      </trkpt>
      <trkpt lat="41.080698" lon="-6.743684">
        <ele>493.6</ele>
        <time>1970-01-01T00:32:35.000Z</time>
      </trkpt>
      <trkpt lat="41.080684" lon="-6.743648">
        <ele>494.7</ele>
        <time>1970-01-01T00:32:36.000Z</time>
      </trkpt>
      <trkpt lat="41.080669" lon="-6.74361">
        <ele>494.2</ele>
        <time>1970-01-01T00:32:37.000Z</time>
      </trkpt>
      <trkpt lat="41.080654" lon="-6.74357">
        <ele>495.2</ele>
        <time>1970-01-01T00:32:38.000Z</time>
      </trkpt>
      <trkpt lat="41.080639" lon="-6.743528">
        <ele>494.8</ele>
        <time>1970-01-01T00:32:39.000Z</time>
      </trkpt>
      <trkpt lat="41.080623" lon="-6.743483">
        <ele>495.9</ele>
        <time>1970-01-01T00:32:40.000Z</time>
      </trkpt>
      <trkpt lat="41.080606" lon="-6.743436">
        <ele>495.4</ele>
        <time>1970-01-01T00:32:41.000Z</time>
      </trkpt>
      <trkpt lat="41.080589" lon="-6.743388">
        <ele>496.5</ele>
        <time>1970-01-01T00:32:42.000Z</time>
      </trkpt>
      <trkpt lat="41.080571" lon="-6.743337">
        <ele>496</ele>
        <time>1970-01-01T00:32:43.000Z</time>
      </trkpt>
      <trkpt lat="41.080552" lon="-6.743286">
        <ele>498</ele>
        <time>1970-01-01T00:32:44.000Z</time>
      </trkpt>
      <trkpt lat="41.080534" lon="-6.743235">
        <ele>497.3</ele>
        <time>1970-01-01T00:32:45.000Z</time>
      </trkpt>
      <trkpt lat="41.080517" lon="-6.743186">
        <ele>498.3</ele>
        <time>1970-01-01T00:32:46.000Z</time>
      </trkpt>
      <trkpt lat="41.0805" lon="-6.743134">
        <ele>497.6</ele>
        <time>1970-01-01T00:32:47.000Z</time>
      </trkpt>
      <trkpt lat="41.080482" lon="-6.74308">
        <ele>497.1</ele>
        <time>1970-01-01T00:32:48.000Z</time>
      </trkpt>
      <trkpt lat="41.080463" lon="-6.743022">
        <ele>499.1</ele>
        <time>1970-01-01T00:32:49.000Z</time>
      </trkpt>
      <trkpt lat="41.080439" lon="-6.742962">
        <ele>498.6</ele>
        <time>1970-01-01T00:32:50.000Z</time>
      </trkpt>
      <trkpt lat="41.080412" lon="-6.742902">
        <ele>498.2</ele>
        <time>1970-01-01T00:32:51.000Z</time>
      </trkpt>
      <trkpt lat="41.080379" lon="-6.742844">
        <ele>498.7</ele>
        <time>1970-01-01T00:32:52.000Z</time>
      </trkpt>
      <trkpt lat="41.080344" lon="-6.742789">
        <ele>498.3</ele>
        <time>1970-01-01T00:32:53.000Z</time>
      </trkpt>
      <trkpt lat="41.080308" lon="-6.742738">
        <ele>497.9</ele>
        <time>1970-01-01T00:32:54.000Z</time>
      </trkpt>
      <trkpt lat="41.080271" lon="-6.742689">
        <ele>497.4</ele>
        <time>1970-01-01T00:32:55.000Z</time>
      </trkpt>
      <trkpt lat="41.080235" lon="-6.742641">
        <ele>497.6</ele>
        <time>1970-01-01T00:32:56.000Z</time>
      </trkpt>
      <trkpt lat="41.0802" lon="-6.742591">
        <ele>497.1</ele>
        <time>1970-01-01T00:32:57.000Z</time>
      </trkpt>
      <trkpt lat="41.080166" lon="-6.742541">
        <ele>496.7</ele>
        <time>1970-01-01T00:32:58.000Z</time>
      </trkpt>
      <trkpt lat="41.080134" lon="-6.74249">
        <ele>496.4</ele>
        <time>1970-01-01T00:32:59.000Z</time>
      </trkpt>
      <trkpt lat="41.080105" lon="-6.742438">
        <ele>496.1</ele>
        <time>1970-01-01T00:33:00.000Z</time>
      </trkpt>
      <trkpt lat="41.080078" lon="-6.742383">
        <ele>496.4</ele>
        <time>1970-01-01T00:33:01.000Z</time>
      </trkpt>
      <trkpt lat="41.080054" lon="-6.742326">
        <ele>495.9</ele>
        <time>1970-01-01T00:33:02.000Z</time>
      </trkpt>
      <trkpt lat="41.080036" lon="-6.742263">
        <ele>496.6</ele>
        <time>1970-01-01T00:33:03.000Z</time>
      </trkpt>
      <trkpt lat="41.080024" lon="-6.742197">
        <ele>496.7</ele>
        <time>1970-01-01T00:33:04.000Z</time>
      </trkpt>
      <trkpt lat="41.080015" lon="-6.742128">
        <ele>497.9</ele>
        <time>1970-01-01T00:33:05.000Z</time>
      </trkpt>
      <trkpt lat="41.080008" lon="-6.74206">
        <ele>498.5</ele>
        <time>1970-01-01T00:33:06.000Z</time>
      </trkpt>
      <trkpt lat="41.080001" lon="-6.741994">
        <ele>499.5</ele>
        <time>1970-01-01T00:33:07.000Z</time>
      </trkpt>
      <trkpt lat="41.079991" lon="-6.741933">
        <ele>498.6</ele>
        <time>1970-01-01T00:33:08.000Z</time>
      </trkpt>
      <trkpt lat="41.079979" lon="-6.741878">
        <ele>499</ele>
        <time>1970-01-01T00:33:09.000Z</time>
      </trkpt>
      <trkpt lat="41.079966" lon="-6.741828">
        <ele>499.8</ele>
        <time>1970-01-01T00:33:10.000Z</time>
      </trkpt>
      <trkpt lat="41.079954" lon="-6.741781">
        <ele>498.9</ele>
        <time>1970-01-01T00:33:11.000Z</time>
      </trkpt>
      <trkpt lat="41.079944" lon="-6.741736">
        <ele>499.4</ele>
        <time>1970-01-01T00:33:12.000Z</time>
      </trkpt>
      <trkpt lat="41.079935" lon="-6.741693">
        <ele>499.9</ele>
        <time>1970-01-01T00:33:13.000Z</time>
      </trkpt>
      <trkpt lat="41.079927" lon="-6.741652">
        <ele>499.1</ele>
        <time>1970-01-01T00:33:14.000Z</time>
      </trkpt>
      <trkpt lat="41.079921" lon="-6.741614">
        <ele>499.5</ele>
        <time>1970-01-01T00:33:15.000Z</time>
      </trkpt>
      <trkpt lat="41.079915" lon="-6.741575">
        <ele>499.5</ele>
        <time>1970-01-01T00:33:16.000Z</time>
      </trkpt>
      <trkpt lat="41.079909" lon="-6.741537">
        <ele>500</ele>
        <time>1970-01-01T00:33:17.000Z</time>
      </trkpt>
      <trkpt lat="41.079901" lon="-6.7415">
        <ele>499.1</ele>
        <time>1970-01-01T00:33:18.000Z</time>
      </trkpt>
      <trkpt lat="41.079892" lon="-6.741464">
        <ele>499.5</ele>
        <time>1970-01-01T00:33:19.000Z</time>
      </trkpt>
      <trkpt lat="41.079883" lon="-6.74143">
        <ele>499.8</ele>
        <time>1970-01-01T00:33:20.000Z</time>
      </trkpt>
      <trkpt lat="41.079871" lon="-6.741397">
        <ele>500.1</ele>
        <time>1970-01-01T00:33:21.000Z</time>
      </trkpt>
      <trkpt lat="41.07986" lon="-6.741365">
        <ele>498.9</ele>
        <time>1970-01-01T00:33:22.000Z</time>
      </trkpt>
      <trkpt lat="41.079848" lon="-6.741334">
        <ele>499.2</ele>
        <time>1970-01-01T00:33:23.000Z</time>
      </trkpt>
      <trkpt lat="41.079836" lon="-6.741302">
        <ele>498.3</ele>
        <time>1970-01-01T00:33:24.000Z</time>
      </trkpt>
      <trkpt lat="41.079824" lon="-6.741269">
        <ele>498.6</ele>
        <time>1970-01-01T00:33:25.000Z</time>
      </trkpt>
      <trkpt lat="41.079812" lon="-6.741238">
        <ele>498.6</ele>
        <time>1970-01-01T00:33:26.000Z</time>
      </trkpt>
      <trkpt lat="41.079801" lon="-6.741206">
        <ele>497.7</ele>
        <time>1970-01-01T00:33:27.000Z</time>
      </trkpt>
      <trkpt lat="41.079791" lon="-6.741174">
        <ele>498</ele>
        <time>1970-01-01T00:33:28.000Z</time>
      </trkpt>
      <trkpt lat="41.079779" lon="-6.741141">
        <ele>498.4</ele>
        <time>1970-01-01T00:33:29.000Z</time>
      </trkpt>
      <trkpt lat="41.079768" lon="-6.741107">
        <ele>497.1</ele>
        <time>1970-01-01T00:33:30.000Z</time>
      </trkpt>
      <trkpt lat="41.079757" lon="-6.741073">
        <ele>497.4</ele>
        <time>1970-01-01T00:33:31.000Z</time>
      </trkpt>
      <trkpt lat="41.079748" lon="-6.741038">
        <ele>497.8</ele>
        <time>1970-01-01T00:33:32.000Z</time>
      </trkpt>
      <trkpt lat="41.07974" lon="-6.741004">
        <ele>498.1</ele>
        <time>1970-01-01T00:33:33.000Z</time>
      </trkpt>
      <trkpt lat="41.079734" lon="-6.740971">
        <ele>496.8</ele>
        <time>1970-01-01T00:33:34.000Z</time>
      </trkpt>
      <trkpt lat="41.079727" lon="-6.74094">
        <ele>497.1</ele>
        <time>1970-01-01T00:33:35.000Z</time>
      </trkpt>
      <trkpt lat="41.079723" lon="-6.74091">
        <ele>497.4</ele>
        <time>1970-01-01T00:33:36.000Z</time>
      </trkpt>
      <trkpt lat="41.07972" lon="-6.740882">
        <ele>497.8</ele>
        <time>1970-01-01T00:33:37.000Z</time>
      </trkpt>
      <trkpt lat="41.079719" lon="-6.740854">
        <ele>497.8</ele>
        <time>1970-01-01T00:33:38.000Z</time>
      </trkpt>
      <trkpt lat="41.079716" lon="-6.740826">
        <ele>498.2</ele>
        <time>1970-01-01T00:33:39.000Z</time>
      </trkpt>
      <trkpt lat="41.079714" lon="-6.740798">
        <ele>498.6</ele>
        <time>1970-01-01T00:33:40.000Z</time>
      </trkpt>
      <trkpt lat="41.079713" lon="-6.74077">
        <ele>498.6</ele>
        <time>1970-01-01T00:33:41.000Z</time>
      </trkpt>
      <trkpt lat="41.079712" lon="-6.740742">
        <ele>499.1</ele>
        <time>1970-01-01T00:33:42.000Z</time>
      </trkpt>
      <trkpt lat="41.07971" lon="-6.740714">
        <ele>499.1</ele>
        <time>1970-01-01T00:33:43.000Z</time>
      </trkpt>
      <trkpt lat="41.079708" lon="-6.740687">
        <ele>499.6</ele>
        <time>1970-01-01T00:33:44.000Z</time>
      </trkpt>
      <trkpt lat="41.079707" lon="-6.740661">
        <ele>500</ele>
        <time>1970-01-01T00:33:45.000Z</time>
      </trkpt>
      <trkpt lat="41.079704" lon="-6.740635">
        <ele>498.8</ele>
        <time>1970-01-01T00:33:46.000Z</time>
      </trkpt>
      <trkpt lat="41.079702" lon="-6.740609">
        <ele>499.2</ele>
        <time>1970-01-01T00:33:47.000Z</time>
      </trkpt>
      <trkpt lat="41.079701" lon="-6.740583">
        <ele>499.7</ele>
        <time>1970-01-01T00:33:48.000Z</time>
      </trkpt>
      <trkpt lat="41.079699" lon="-6.740558">
        <ele>499.7</ele>
        <time>1970-01-01T00:33:49.000Z</time>
      </trkpt>
      <trkpt lat="41.079696" lon="-6.740531">
        <ele>500.2</ele>
        <time>1970-01-01T00:33:50.000Z</time>
      </trkpt>
      <trkpt lat="41.079693" lon="-6.740504">
        <ele>500.2</ele>
        <time>1970-01-01T00:33:51.000Z</time>
      </trkpt>
      <trkpt lat="41.079689" lon="-6.740476">
        <ele>500.7</ele>
        <time>1970-01-01T00:33:52.000Z</time>
      </trkpt>
      <trkpt lat="41.079686" lon="-6.740448">
        <ele>501.2</ele>
        <time>1970-01-01T00:33:53.000Z</time>
      </trkpt>
      <trkpt lat="41.079682" lon="-6.740419">
        <ele>501.2</ele>
        <time>1970-01-01T00:33:54.000Z</time>
      </trkpt>
      <trkpt lat="41.079678" lon="-6.740392">
        <ele>501.8</ele>
        <time>1970-01-01T00:33:55.000Z</time>
      </trkpt>
      <trkpt lat="41.079674" lon="-6.740367">
        <ele>501.2</ele>
        <time>1970-01-01T00:33:56.000Z</time>
      </trkpt>
      <trkpt lat="41.079669" lon="-6.74034">
        <ele>501.2</ele>
        <time>1970-01-01T00:33:57.000Z</time>
      </trkpt>
      <trkpt lat="41.079663" lon="-6.740312">
        <ele>501.8</ele>
        <time>1970-01-01T00:33:58.000Z</time>
      </trkpt>
      <trkpt lat="41.079656" lon="-6.740281">
        <ele>502.4</ele>
        <time>1970-01-01T00:33:59.000Z</time>
      </trkpt>
      <trkpt lat="41.079647" lon="-6.740248">
        <ele>502.4</ele>
        <time>1970-01-01T00:34:00.000Z</time>
      </trkpt>
      <trkpt lat="41.079638" lon="-6.740215">
        <ele>501.9</ele>
        <time>1970-01-01T00:34:01.000Z</time>
      </trkpt>
      <trkpt lat="41.079629" lon="-6.740183">
        <ele>502.4</ele>
        <time>1970-01-01T00:34:02.000Z</time>
      </trkpt>
      <trkpt lat="41.079621" lon="-6.740153">
        <ele>503</ele>
        <time>1970-01-01T00:34:03.000Z</time>
      </trkpt>
      <trkpt lat="41.079609" lon="-6.740123">
        <ele>501.9</ele>
        <time>1970-01-01T00:34:04.000Z</time>
      </trkpt>
      <trkpt lat="41.079594" lon="-6.740093">
        <ele>502.4</ele>
        <time>1970-01-01T00:34:05.000Z</time>
      </trkpt>
      <trkpt lat="41.079578" lon="-6.740063">
        <ele>502.9</ele>
        <time>1970-01-01T00:34:06.000Z</time>
      </trkpt>
      <trkpt lat="41.079562" lon="-6.740035">
        <ele>501.9</ele>
        <time>1970-01-01T00:34:07.000Z</time>
      </trkpt>
      <trkpt lat="41.079547" lon="-6.740006">
        <ele>502.4</ele>
        <time>1970-01-01T00:34:08.000Z</time>
      </trkpt>
      <trkpt lat="41.079532" lon="-6.739977">
        <ele>501.9</ele>
        <time>1970-01-01T00:34:09.000Z</time>
      </trkpt>
      <trkpt lat="41.079517" lon="-6.739946">
        <ele>501.9</ele>
        <time>1970-01-01T00:34:10.000Z</time>
      </trkpt>
      <trkpt lat="41.0795" lon="-6.739914">
        <ele>501.5</ele>
        <time>1970-01-01T00:34:11.000Z</time>
      </trkpt>
      <trkpt lat="41.079482" lon="-6.739882">
        <ele>502.2</ele>
        <time>1970-01-01T00:34:12.000Z</time>
      </trkpt>
      <trkpt lat="41.079464" lon="-6.73985">
        <ele>501.8</ele>
        <time>1970-01-01T00:34:13.000Z</time>
      </trkpt>
      <trkpt lat="41.079444" lon="-6.739819">
        <ele>500.9</ele>
        <time>1970-01-01T00:34:14.000Z</time>
      </trkpt>
      <trkpt lat="41.079423" lon="-6.739789">
        <ele>501.5</ele>
        <time>1970-01-01T00:34:15.000Z</time>
      </trkpt>
      <trkpt lat="41.0794" lon="-6.73976">
        <ele>501.2</ele>
        <time>1970-01-01T00:34:16.000Z</time>
      </trkpt>
      <trkpt lat="41.079373" lon="-6.739732">
        <ele>500.4</ele>
        <time>1970-01-01T00:34:17.000Z</time>
      </trkpt>
      <trkpt lat="41.079342" lon="-6.739704">
        <ele>499.8</ele>
        <time>1970-01-01T00:34:18.000Z</time>
      </trkpt>
      <trkpt lat="41.079307" lon="-6.739677">
        <ele>499.7</ele>
        <time>1970-01-01T00:34:19.000Z</time>
      </trkpt>
      <trkpt lat="41.079267" lon="-6.739654">
        <ele>499.1</ele>
        <time>1970-01-01T00:34:20.000Z</time>
      </trkpt>
      <trkpt lat="41.079223" lon="-6.739634">
        <ele>497.7</ele>
        <time>1970-01-01T00:34:21.000Z</time>
      </trkpt>
      <trkpt lat="41.079174" lon="-6.739617">
        <ele>496.2</ele>
        <time>1970-01-01T00:34:22.000Z</time>
      </trkpt>
      <trkpt lat="41.079126" lon="-6.739596">
        <ele>494.7</ele>
        <time>1970-01-01T00:34:23.000Z</time>
      </trkpt>
      <trkpt lat="41.079079" lon="-6.739566">
        <ele>494.4</ele>
        <time>1970-01-01T00:34:24.000Z</time>
      </trkpt>
      <trkpt lat="41.079038" lon="-6.739524">
        <ele>495.1</ele>
        <time>1970-01-01T00:34:25.000Z</time>
      </trkpt>
      <trkpt lat="41.079001" lon="-6.739476">
        <ele>495.7</ele>
        <time>1970-01-01T00:34:26.000Z</time>
      </trkpt>
      <trkpt lat="41.078969" lon="-6.739429">
        <ele>496.3</ele>
        <time>1970-01-01T00:34:27.000Z</time>
      </trkpt>
      <trkpt lat="41.078943" lon="-6.739386">
        <ele>496.8</ele>
        <time>1970-01-01T00:34:28.000Z</time>
      </trkpt>
      <trkpt lat="41.07892" lon="-6.739347">
        <ele>497.3</ele>
        <time>1970-01-01T00:34:29.000Z</time>
      </trkpt>
      <trkpt lat="41.078899" lon="-6.739312">
        <ele>497.7</ele>
        <time>1970-01-01T00:34:30.000Z</time>
      </trkpt>
      <trkpt lat="41.07888" lon="-6.739278">
        <ele>498.1</ele>
        <time>1970-01-01T00:34:31.000Z</time>
      </trkpt>
      <trkpt lat="41.07886" lon="-6.739245">
        <ele>498.5</ele>
        <time>1970-01-01T00:34:32.000Z</time>
      </trkpt>
      <trkpt lat="41.078841" lon="-6.739215">
        <ele>498.9</ele>
        <time>1970-01-01T00:34:33.000Z</time>
      </trkpt>
      <trkpt lat="41.078825" lon="-6.739186">
        <ele>499.2</ele>
        <time>1970-01-01T00:34:34.000Z</time>
      </trkpt>
      <trkpt lat="41.078811" lon="-6.739158">
        <ele>499.5</ele>
        <time>1970-01-01T00:34:35.000Z</time>
      </trkpt>
      <trkpt lat="41.078798" lon="-6.739131">
        <ele>499.8</ele>
        <time>1970-01-01T00:34:36.000Z</time>
      </trkpt>
      <trkpt lat="41.078785" lon="-6.739104">
        <ele>500.1</ele>
        <time>1970-01-01T00:34:37.000Z</time>
      </trkpt>
      <trkpt lat="41.078772" lon="-6.739077">
        <ele>500.4</ele>
        <time>1970-01-01T00:34:38.000Z</time>
      </trkpt>
      <trkpt lat="41.078758" lon="-6.739051">
        <ele>500.7</ele>
        <time>1970-01-01T00:34:39.000Z</time>
      </trkpt>
      <trkpt lat="41.078744" lon="-6.739026">
        <ele>501</ele>
        <time>1970-01-01T00:34:40.000Z</time>
      </trkpt>
      <trkpt lat="41.07873" lon="-6.739001">
        <ele>501.3</ele>
        <time>1970-01-01T00:34:41.000Z</time>
      </trkpt>
      <trkpt lat="41.078716" lon="-6.738977">
        <ele>501.6</ele>
        <time>1970-01-01T00:34:42.000Z</time>
      </trkpt>
      <trkpt lat="41.078702" lon="-6.738953">
        <ele>501.9</ele>
        <time>1970-01-01T00:34:43.000Z</time>
      </trkpt>
      <trkpt lat="41.078689" lon="-6.738928">
        <ele>502.2</ele>
        <time>1970-01-01T00:34:44.000Z</time>
      </trkpt>
      <trkpt lat="41.078677" lon="-6.738904">
        <ele>502.5</ele>
        <time>1970-01-01T00:34:45.000Z</time>
      </trkpt>
      <trkpt lat="41.078667" lon="-6.738879">
        <ele>502.7</ele>
        <time>1970-01-01T00:34:46.000Z</time>
      </trkpt>
      <trkpt lat="41.078656" lon="-6.738854">
        <ele>503</ele>
        <time>1970-01-01T00:34:47.000Z</time>
      </trkpt>
      <trkpt lat="41.078646" lon="-6.73883">
        <ele>503.3</ele>
        <time>1970-01-01T00:34:48.000Z</time>
      </trkpt>
      <trkpt lat="41.078635" lon="-6.738805">
        <ele>503.5</ele>
        <time>1970-01-01T00:34:49.000Z</time>
      </trkpt>
      <trkpt lat="41.078624" lon="-6.738781">
        <ele>503.8</ele>
        <time>1970-01-01T00:34:50.000Z</time>
      </trkpt>
      <trkpt lat="41.078613" lon="-6.738756">
        <ele>504.1</ele>
        <time>1970-01-01T00:34:51.000Z</time>
      </trkpt>
      <trkpt lat="41.078603" lon="-6.738732">
        <ele>504.3</ele>
        <time>1970-01-01T00:34:52.000Z</time>
      </trkpt>
      <trkpt lat="41.078594" lon="-6.738706">
        <ele>504.6</ele>
        <time>1970-01-01T00:34:53.000Z</time>
      </trkpt>
      <trkpt lat="41.078587" lon="-6.73868">
        <ele>504.9</ele>
        <time>1970-01-01T00:34:54.000Z</time>
      </trkpt>
      <trkpt lat="41.078581" lon="-6.738654">
        <ele>505.1</ele>
        <time>1970-01-01T00:34:55.000Z</time>
      </trkpt>
      <trkpt lat="41.078577" lon="-6.738628">
        <ele>505.4</ele>
        <time>1970-01-01T00:34:56.000Z</time>
      </trkpt>
      <trkpt lat="41.078574" lon="-6.738603">
        <ele>505.6</ele>
        <time>1970-01-01T00:34:57.000Z</time>
      </trkpt>
      <trkpt lat="41.078572" lon="-6.738578">
        <ele>505.9</ele>
        <time>1970-01-01T00:34:58.000Z</time>
      </trkpt>
      <trkpt lat="41.07857" lon="-6.738553">
        <ele>506.1</ele>
        <time>1970-01-01T00:34:59.000Z</time>
      </trkpt>
      <trkpt lat="41.078569" lon="-6.738528">
        <ele>506.3</ele>
        <time>1970-01-01T00:35:00.000Z</time>
      </trkpt>
      <trkpt lat="41.078566" lon="-6.738502">
        <ele>506.6</ele>
        <time>1970-01-01T00:35:01.000Z</time>
      </trkpt>
      <trkpt lat="41.078562" lon="-6.738477">
        <ele>506.8</ele>
        <time>1970-01-01T00:35:02.000Z</time>
      </trkpt>
      <trkpt lat="41.07856" lon="-6.738452">
        <ele>507.1</ele>
        <time>1970-01-01T00:35:03.000Z</time>
      </trkpt>
      <trkpt lat="41.078558" lon="-6.738427">
        <ele>507.3</ele>
        <time>1970-01-01T00:35:04.000Z</time>
      </trkpt>
      <trkpt lat="41.078556" lon="-6.738401">
        <ele>507.5</ele>
        <time>1970-01-01T00:35:05.000Z</time>
      </trkpt>
      <trkpt lat="41.078551" lon="-6.738375">
        <ele>507.8</ele>
        <time>1970-01-01T00:35:06.000Z</time>
      </trkpt>
      <trkpt lat="41.078543" lon="-6.738351">
        <ele>508</ele>
        <time>1970-01-01T00:35:07.000Z</time>
      </trkpt>
      <trkpt lat="41.078532" lon="-6.738329">
        <ele>508.3</ele>
        <time>1970-01-01T00:35:08.000Z</time>
      </trkpt>
      <trkpt lat="41.078521" lon="-6.738307">
        <ele>508.5</ele>
        <time>1970-01-01T00:35:09.000Z</time>
      </trkpt>
      <trkpt lat="41.078511" lon="-6.738285">
        <ele>508.8</ele>
        <time>1970-01-01T00:35:10.000Z</time>
      </trkpt>
      <trkpt lat="41.078501" lon="-6.738261">
        <ele>509</ele>
        <time>1970-01-01T00:35:11.000Z</time>
      </trkpt>
      <trkpt lat="41.078491" lon="-6.738239">
        <ele>509.3</ele>
        <time>1970-01-01T00:35:12.000Z</time>
      </trkpt>
      <trkpt lat="41.07848" lon="-6.738217">
        <ele>509.5</ele>
        <time>1970-01-01T00:35:13.000Z</time>
      </trkpt>
      <trkpt lat="41.07847" lon="-6.738195">
        <ele>509.8</ele>
        <time>1970-01-01T00:35:14.000Z</time>
      </trkpt>
      <trkpt lat="41.078461" lon="-6.738171">
        <ele>510</ele>
        <time>1970-01-01T00:35:15.000Z</time>
      </trkpt>
      <trkpt lat="41.078452" lon="-6.738146">
        <ele>510.3</ele>
        <time>1970-01-01T00:35:16.000Z</time>
      </trkpt>
      <trkpt lat="41.078444" lon="-6.738119">
        <ele>510.6</ele>
        <time>1970-01-01T00:35:17.000Z</time>
      </trkpt>
      <trkpt lat="41.078436" lon="-6.738091">
        <ele>510.8</ele>
        <time>1970-01-01T00:35:18.000Z</time>
      </trkpt>
      <trkpt lat="41.078428" lon="-6.738062">
        <ele>511.1</ele>
        <time>1970-01-01T00:35:19.000Z</time>
      </trkpt>
      <trkpt lat="41.078419" lon="-6.738035">
        <ele>511.4</ele>
        <time>1970-01-01T00:35:20.000Z</time>
      </trkpt>
      <trkpt lat="41.07841" lon="-6.738007">
        <ele>511.7</ele>
        <time>1970-01-01T00:35:21.000Z</time>
      </trkpt>
      <trkpt lat="41.078404" lon="-6.737981">
        <ele>512</ele>
        <time>1970-01-01T00:35:22.000Z</time>
      </trkpt>
      <trkpt lat="41.078399" lon="-6.737956">
        <ele>512.2</ele>
        <time>1970-01-01T00:35:23.000Z</time>
      </trkpt>
      <trkpt lat="41.078395" lon="-6.73793">
        <ele>512.5</ele>
        <time>1970-01-01T00:35:24.000Z</time>
      </trkpt>
      <trkpt lat="41.078391" lon="-6.737903">
        <ele>512.7</ele>
        <time>1970-01-01T00:35:25.000Z</time>
      </trkpt>
      <trkpt lat="41.078387" lon="-6.737876">
        <ele>513</ele>
        <time>1970-01-01T00:35:26.000Z</time>
      </trkpt>
      <trkpt lat="41.078382" lon="-6.737849">
        <ele>513.2</ele>
        <time>1970-01-01T00:35:27.000Z</time>
      </trkpt>
      <trkpt lat="41.078377" lon="-6.737824">
        <ele>513.5</ele>
        <time>1970-01-01T00:35:28.000Z</time>
      </trkpt>
      <trkpt lat="41.078371" lon="-6.737798">
        <ele>513.7</ele>
        <time>1970-01-01T00:35:29.000Z</time>
      </trkpt>
      <trkpt lat="41.078366" lon="-6.737771">
        <ele>514</ele>
        <time>1970-01-01T00:35:30.000Z</time>
      </trkpt>
      <trkpt lat="41.078361" lon="-6.737745">
        <ele>514.2</ele>
        <time>1970-01-01T00:35:31.000Z</time>
      </trkpt>
      <trkpt lat="41.078356" lon="-6.73772">
        <ele>514.5</ele>
        <time>1970-01-01T00:35:32.000Z</time>
      </trkpt>
      <trkpt lat="41.07835" lon="-6.737693">
        <ele>514.8</ele>
        <time>1970-01-01T00:35:33.000Z</time>
      </trkpt>
      <trkpt lat="41.078344" lon="-6.737667">
        <ele>515</ele>
        <time>1970-01-01T00:35:34.000Z</time>
      </trkpt>
      <trkpt lat="41.078337" lon="-6.737641">
        <ele>515.3</ele>
        <time>1970-01-01T00:35:35.000Z</time>
      </trkpt>
      <trkpt lat="41.078332" lon="-6.737616">
        <ele>515.5</ele>
        <time>1970-01-01T00:35:36.000Z</time>
      </trkpt>
      <trkpt lat="41.078325" lon="-6.737591">
        <ele>515.8</ele>
        <time>1970-01-01T00:35:37.000Z</time>
      </trkpt>
      <trkpt lat="41.078317" lon="-6.737566">
        <ele>516</ele>
        <time>1970-01-01T00:35:38.000Z</time>
      </trkpt>
      <trkpt lat="41.078308" lon="-6.737542">
        <ele>516.3</ele>
        <time>1970-01-01T00:35:39.000Z</time>
      </trkpt>
      <trkpt lat="41.078298" lon="-6.73752">
        <ele>516.5</ele>
        <time>1970-01-01T00:35:40.000Z</time>
      </trkpt>
      <trkpt lat="41.078286" lon="-6.737499">
        <ele>516.8</ele>
        <time>1970-01-01T00:35:41.000Z</time>
      </trkpt>
      <trkpt lat="41.078273" lon="-6.737478">
        <ele>517</ele>
        <time>1970-01-01T00:35:42.000Z</time>
      </trkpt>
      <trkpt lat="41.078259" lon="-6.737457">
        <ele>517.3</ele>
        <time>1970-01-01T00:35:43.000Z</time>
      </trkpt>
      <trkpt lat="41.078246" lon="-6.737437">
        <ele>517.5</ele>
        <time>1970-01-01T00:35:44.000Z</time>
      </trkpt>
      <trkpt lat="41.078234" lon="-6.737417">
        <ele>517.8</ele>
        <time>1970-01-01T00:35:45.000Z</time>
      </trkpt>
      <trkpt lat="41.078222" lon="-6.737396">
        <ele>518</ele>
        <time>1970-01-01T00:35:46.000Z</time>
      </trkpt>
      <trkpt lat="41.078209" lon="-6.737376">
        <ele>518.3</ele>
        <time>1970-01-01T00:35:47.000Z</time>
      </trkpt>
      <trkpt lat="41.078195" lon="-6.737358">
        <ele>518.5</ele>
        <time>1970-01-01T00:35:48.000Z</time>
      </trkpt>
      <trkpt lat="41.078181" lon="-6.737341">
        <ele>518.8</ele>
        <time>1970-01-01T00:35:49.000Z</time>
      </trkpt>
      <trkpt lat="41.078167" lon="-6.737323">
        <ele>519</ele>
        <time>1970-01-01T00:35:50.000Z</time>
      </trkpt>
      <trkpt lat="41.078154" lon="-6.737305">
        <ele>519.2</ele>
        <time>1970-01-01T00:35:51.000Z</time>
      </trkpt>
      <trkpt lat="41.078141" lon="-6.737286">
        <ele>519.5</ele>
        <time>1970-01-01T00:35:52.000Z</time>
      </trkpt>
      <trkpt lat="41.078128" lon="-6.737267">
        <ele>519.7</ele>
        <time>1970-01-01T00:35:53.000Z</time>
      </trkpt>
      <trkpt lat="41.078116" lon="-6.737246">
        <ele>520</ele>
        <time>1970-01-01T00:35:54.000Z</time>
      </trkpt>
      <trkpt lat="41.078103" lon="-6.737226">
        <ele>520.2</ele>
        <time>1970-01-01T00:35:55.000Z</time>
      </trkpt>
      <trkpt lat="41.078091" lon="-6.737206">
        <ele>520.5</ele>
        <time>1970-01-01T00:35:56.000Z</time>
      </trkpt>
      <trkpt lat="41.078079" lon="-6.737187">
        <ele>520.7</ele>
        <time>1970-01-01T00:35:57.000Z</time>
      </trkpt>
      <trkpt lat="41.078066" lon="-6.737167">
        <ele>521</ele>
        <time>1970-01-01T00:35:58.000Z</time>
      </trkpt>
      <trkpt lat="41.078052" lon="-6.737147">
        <ele>521.2</ele>
        <time>1970-01-01T00:35:59.000Z</time>
      </trkpt>
      <trkpt lat="41.078039" lon="-6.737127">
        <ele>521.5</ele>
        <time>1970-01-01T00:36:00.000Z</time>
      </trkpt>
      <trkpt lat="41.078026" lon="-6.737107">
        <ele>521.7</ele>
        <time>1970-01-01T00:36:01.000Z</time>
      </trkpt>
      <trkpt lat="41.078014" lon="-6.737086">
        <ele>522</ele>
        <time>1970-01-01T00:36:02.000Z</time>
      </trkpt>
      <trkpt lat="41.078003" lon="-6.737065">
        <ele>522.2</ele>
        <time>1970-01-01T00:36:03.000Z</time>
      </trkpt>
      <trkpt lat="41.077992" lon="-6.737045">
        <ele>522.4</ele>
        <time>1970-01-01T00:36:04.000Z</time>
      </trkpt>
      <trkpt lat="41.07798" lon="-6.737026">
        <ele>522.7</ele>
        <time>1970-01-01T00:36:05.000Z</time>
      </trkpt>
      <trkpt lat="41.077968" lon="-6.737007">
        <ele>522.9</ele>
        <time>1970-01-01T00:36:06.000Z</time>
      </trkpt>
      <trkpt lat="41.077956" lon="-6.736989">
        <ele>523.1</ele>
        <time>1970-01-01T00:36:07.000Z</time>
      </trkpt>
      <trkpt lat="41.077943" lon="-6.736971">
        <ele>523.4</ele>
        <time>1970-01-01T00:36:08.000Z</time>
      </trkpt>
      <trkpt lat="41.07793" lon="-6.736953">
        <ele>523.6</ele>
        <time>1970-01-01T00:36:09.000Z</time>
      </trkpt>
      <trkpt lat="41.077918" lon="-6.736935">
        <ele>523.8</ele>
        <time>1970-01-01T00:36:10.000Z</time>
      </trkpt>
      <trkpt lat="41.077906" lon="-6.736916">
        <ele>524.1</ele>
        <time>1970-01-01T00:36:11.000Z</time>
      </trkpt>
      <trkpt lat="41.077896" lon="-6.736897">
        <ele>524.3</ele>
        <time>1970-01-01T00:36:12.000Z</time>
      </trkpt>
      <trkpt lat="41.077885" lon="-6.736878">
        <ele>524.5</ele>
        <time>1970-01-01T00:36:13.000Z</time>
      </trkpt>
      <trkpt lat="41.077874" lon="-6.73686">
        <ele>524.7</ele>
        <time>1970-01-01T00:36:14.000Z</time>
      </trkpt>
      <trkpt lat="41.077863" lon="-6.736842">
        <ele>524.9</ele>
        <time>1970-01-01T00:36:15.000Z</time>
      </trkpt>
      <trkpt lat="41.077851" lon="-6.736825">
        <ele>525.2</ele>
        <time>1970-01-01T00:36:16.000Z</time>
      </trkpt>
      <trkpt lat="41.07784" lon="-6.736806">
        <ele>525.4</ele>
        <time>1970-01-01T00:36:17.000Z</time>
      </trkpt>
      <trkpt lat="41.077829" lon="-6.736788">
        <ele>525.6</ele>
        <time>1970-01-01T00:36:18.000Z</time>
      </trkpt>
      <trkpt lat="41.077819" lon="-6.736768">
        <ele>525.8</ele>
        <time>1970-01-01T00:36:19.000Z</time>
      </trkpt>
      <trkpt lat="41.077809" lon="-6.736749">
        <ele>526.1</ele>
        <time>1970-01-01T00:36:20.000Z</time>
      </trkpt>
      <trkpt lat="41.0778" lon="-6.736729">
        <ele>526.3</ele>
        <time>1970-01-01T00:36:21.000Z</time>
      </trkpt>
      <trkpt lat="41.077791" lon="-6.736709">
        <ele>526.5</ele>
        <time>1970-01-01T00:36:22.000Z</time>
      </trkpt>
      <trkpt lat="41.077783" lon="-6.736688">
        <ele>526.7</ele>
        <time>1970-01-01T00:36:23.000Z</time>
      </trkpt>
      <trkpt lat="41.077775" lon="-6.736665">
        <ele>527</ele>
        <time>1970-01-01T00:36:24.000Z</time>
      </trkpt>
      <trkpt lat="41.077767" lon="-6.736644">
        <ele>527.2</ele>
        <time>1970-01-01T00:36:25.000Z</time>
      </trkpt>
      <trkpt lat="41.077758" lon="-6.736623">
        <ele>527.4</ele>
        <time>1970-01-01T00:36:26.000Z</time>
      </trkpt>
      <trkpt lat="41.07775" lon="-6.736602">
        <ele>527.6</ele>
        <time>1970-01-01T00:36:27.000Z</time>
      </trkpt>
      <trkpt lat="41.077742" lon="-6.736581">
        <ele>527.8</ele>
        <time>1970-01-01T00:36:28.000Z</time>
      </trkpt>
      <trkpt lat="41.077735" lon="-6.736559">
        <ele>528.1</ele>
        <time>1970-01-01T00:36:29.000Z</time>
      </trkpt>
      <trkpt lat="41.077727" lon="-6.736537">
        <ele>528.3</ele>
        <time>1970-01-01T00:36:30.000Z</time>
      </trkpt>
      <trkpt lat="41.077719" lon="-6.736516">
        <ele>528.5</ele>
        <time>1970-01-01T00:36:31.000Z</time>
      </trkpt>
      <trkpt lat="41.077713" lon="-6.736495">
        <ele>528.7</ele>
        <time>1970-01-01T00:36:32.000Z</time>
      </trkpt>
      <trkpt lat="41.077707" lon="-6.736474">
        <ele>528.9</ele>
        <time>1970-01-01T00:36:33.000Z</time>
      </trkpt>
      <trkpt lat="41.077701" lon="-6.736452">
        <ele>529.2</ele>
        <time>1970-01-01T00:36:34.000Z</time>
      </trkpt>
      <trkpt lat="41.077695" lon="-6.73643">
        <ele>529.4</ele>
        <time>1970-01-01T00:36:35.000Z</time>
      </trkpt>
      <trkpt lat="41.07769" lon="-6.736409">
        <ele>529.6</ele>
        <time>1970-01-01T00:36:36.000Z</time>
      </trkpt>
      <trkpt lat="41.077684" lon="-6.736387">
        <ele>529.8</ele>
        <time>1970-01-01T00:36:37.000Z</time>
      </trkpt>
      <trkpt lat="41.077679" lon="-6.736366">
        <ele>530</ele>
        <time>1970-01-01T00:36:38.000Z</time>
      </trkpt>
      <trkpt lat="41.077676" lon="-6.736344">
        <ele>530.2</ele>
        <time>1970-01-01T00:36:39.000Z</time>
      </trkpt>
      <trkpt lat="41.077673" lon="-6.736323">
        <ele>530.4</ele>
        <time>1970-01-01T00:36:40.000Z</time>
      </trkpt>
      <trkpt lat="41.077671" lon="-6.736302">
        <ele>530.6</ele>
        <time>1970-01-01T00:36:41.000Z</time>
      </trkpt>
      <trkpt lat="41.077672" lon="-6.73628">
        <ele>530.8</ele>
        <time>1970-01-01T00:36:42.000Z</time>
      </trkpt>
      <trkpt lat="41.077674" lon="-6.736259">
        <ele>531</ele>
        <time>1970-01-01T00:36:43.000Z</time>
      </trkpt>
      <trkpt lat="41.077679" lon="-6.736238">
        <ele>531.3</ele>
        <time>1970-01-01T00:36:44.000Z</time>
      </trkpt>
      <trkpt lat="41.077684" lon="-6.736218">
        <ele>531.5</ele>
        <time>1970-01-01T00:36:45.000Z</time>
      </trkpt>
      <trkpt lat="41.07769" lon="-6.736197">
        <ele>531.7</ele>
        <time>1970-01-01T00:36:46.000Z</time>
      </trkpt>
      <trkpt lat="41.077696" lon="-6.736176">
        <ele>531.9</ele>
        <time>1970-01-01T00:36:47.000Z</time>
      </trkpt>
      <trkpt lat="41.077702" lon="-6.736154">
        <ele>532.1</ele>
        <time>1970-01-01T00:36:48.000Z</time>
      </trkpt>
      <trkpt lat="41.077709" lon="-6.736133">
        <ele>532.3</ele>
        <time>1970-01-01T00:36:49.000Z</time>
      </trkpt>
      <trkpt lat="41.077717" lon="-6.736113">
        <ele>532.5</ele>
        <time>1970-01-01T00:36:50.000Z</time>
      </trkpt>
      <trkpt lat="41.077727" lon="-6.736094">
        <ele>532.7</ele>
        <time>1970-01-01T00:36:51.000Z</time>
      </trkpt>
      <trkpt lat="41.077738" lon="-6.736075">
        <ele>533</ele>
        <time>1970-01-01T00:36:52.000Z</time>
      </trkpt>
      <trkpt lat="41.077749" lon="-6.736056">
        <ele>533.2</ele>
        <time>1970-01-01T00:36:53.000Z</time>
      </trkpt>
      <trkpt lat="41.077761" lon="-6.736036">
        <ele>533.4</ele>
        <time>1970-01-01T00:36:54.000Z</time>
      </trkpt>
      <trkpt lat="41.077773" lon="-6.736018">
        <ele>533.7</ele>
        <time>1970-01-01T00:36:55.000Z</time>
      </trkpt>
      <trkpt lat="41.077786" lon="-6.736001">
        <ele>533.9</ele>
        <time>1970-01-01T00:36:56.000Z</time>
      </trkpt>
      <trkpt lat="41.0778" lon="-6.735985">
        <ele>534.1</ele>
        <time>1970-01-01T00:36:57.000Z</time>
      </trkpt>
      <trkpt lat="41.077814" lon="-6.735969">
        <ele>534.4</ele>
        <time>1970-01-01T00:36:58.000Z</time>
      </trkpt>
      <trkpt lat="41.077829" lon="-6.735953">
        <ele>534.6</ele>
        <time>1970-01-01T00:36:59.000Z</time>
      </trkpt>
      <trkpt lat="41.077843" lon="-6.735937">
        <ele>534.8</ele>
        <time>1970-01-01T00:37:00.000Z</time>
      </trkpt>
      <trkpt lat="41.077858" lon="-6.735921">
        <ele>535.1</ele>
        <time>1970-01-01T00:37:01.000Z</time>
      </trkpt>
      <trkpt lat="41.077873" lon="-6.735906">
        <ele>535.3</ele>
        <time>1970-01-01T00:37:02.000Z</time>
      </trkpt>
      <trkpt lat="41.077889" lon="-6.73589">
        <ele>535.6</ele>
        <time>1970-01-01T00:37:03.000Z</time>
      </trkpt>
      <trkpt lat="41.077905" lon="-6.735875">
        <ele>535.8</ele>
        <time>1970-01-01T00:37:04.000Z</time>
      </trkpt>
      <trkpt lat="41.077921" lon="-6.735859">
        <ele>536.1</ele>
        <time>1970-01-01T00:37:05.000Z</time>
      </trkpt>
      <trkpt lat="41.077936" lon="-6.735844">
        <ele>536.3</ele>
        <time>1970-01-01T00:37:06.000Z</time>
      </trkpt>
      <trkpt lat="41.077952" lon="-6.73583">
        <ele>536.5</ele>
        <time>1970-01-01T00:37:07.000Z</time>
      </trkpt>
      <trkpt lat="41.077966" lon="-6.735815">
        <ele>536.8</ele>
        <time>1970-01-01T00:37:08.000Z</time>
      </trkpt>
      <trkpt lat="41.07798" lon="-6.735797">
        <ele>537</ele>
        <time>1970-01-01T00:37:09.000Z</time>
      </trkpt>
      <trkpt lat="41.077994" lon="-6.735778">
        <ele>537.3</ele>
        <time>1970-01-01T00:37:10.000Z</time>
      </trkpt>
      <trkpt lat="41.078007" lon="-6.73576">
        <ele>537.5</ele>
        <time>1970-01-01T00:37:11.000Z</time>
      </trkpt>
      <trkpt lat="41.078021" lon="-6.735741">
        <ele>537.7</ele>
        <time>1970-01-01T00:37:12.000Z</time>
      </trkpt>
      <trkpt lat="41.078036" lon="-6.735721">
        <ele>538</ele>
        <time>1970-01-01T00:37:13.000Z</time>
      </trkpt>
      <trkpt lat="41.07805" lon="-6.735701">
        <ele>538.3</ele>
        <time>1970-01-01T00:37:14.000Z</time>
      </trkpt>
      <trkpt lat="41.078063" lon="-6.73568">
        <ele>538.5</ele>
        <time>1970-01-01T00:37:15.000Z</time>
      </trkpt>
      <trkpt lat="41.078076" lon="-6.735658">
        <ele>538.8</ele>
        <time>1970-01-01T00:37:16.000Z</time>
      </trkpt>
      <trkpt lat="41.078089" lon="-6.735636">
        <ele>539</ele>
        <time>1970-01-01T00:37:17.000Z</time>
      </trkpt>
      <trkpt lat="41.078102" lon="-6.735615">
        <ele>539.3</ele>
        <time>1970-01-01T00:37:18.000Z</time>
      </trkpt>
      <trkpt lat="41.078115" lon="-6.735593">
        <ele>539.6</ele>
        <time>1970-01-01T00:37:19.000Z</time>
      </trkpt>
      <trkpt lat="41.078129" lon="-6.735571">
        <ele>539.8</ele>
        <time>1970-01-01T00:37:20.000Z</time>
      </trkpt>
      <trkpt lat="41.078145" lon="-6.735548">
        <ele>540.1</ele>
        <time>1970-01-01T00:37:21.000Z</time>
      </trkpt>
      <trkpt lat="41.078161" lon="-6.735525">
        <ele>540.4</ele>
        <time>1970-01-01T00:37:22.000Z</time>
      </trkpt>
      <trkpt lat="41.078177" lon="-6.735501">
        <ele>540.7</ele>
        <time>1970-01-01T00:37:23.000Z</time>
      </trkpt>
      <trkpt lat="41.078193" lon="-6.735476">
        <ele>541</ele>
        <time>1970-01-01T00:37:24.000Z</time>
      </trkpt>
      <trkpt lat="41.078208" lon="-6.735451">
        <ele>541.3</ele>
        <time>1970-01-01T00:37:25.000Z</time>
      </trkpt>
      <trkpt lat="41.078224" lon="-6.735423">
        <ele>541.7</ele>
        <time>1970-01-01T00:37:26.000Z</time>
      </trkpt>
      <trkpt lat="41.078241" lon="-6.735393">
        <ele>542</ele>
        <time>1970-01-01T00:37:27.000Z</time>
      </trkpt>
      <trkpt lat="41.078259" lon="-6.73536">
        <ele>542.4</ele>
        <time>1970-01-01T00:37:28.000Z</time>
      </trkpt>
      <trkpt lat="41.078277" lon="-6.735327">
        <ele>542.8</ele>
        <time>1970-01-01T00:37:29.000Z</time>
      </trkpt>
      <trkpt lat="41.078292" lon="-6.735293">
        <ele>543.2</ele>
        <time>1970-01-01T00:37:30.000Z</time>
      </trkpt>
      <trkpt lat="41.078307" lon="-6.73526">
        <ele>543.5</ele>
        <time>1970-01-01T00:37:31.000Z</time>
      </trkpt>
      <trkpt lat="41.078322" lon="-6.735226">
        <ele>543.9</ele>
        <time>1970-01-01T00:37:32.000Z</time>
      </trkpt>
      <trkpt lat="41.078339" lon="-6.735192">
        <ele>544.3</ele>
        <time>1970-01-01T00:37:33.000Z</time>
      </trkpt>
      <trkpt lat="41.078355" lon="-6.735156">
        <ele>544.7</ele>
        <time>1970-01-01T00:37:34.000Z</time>
      </trkpt>
      <trkpt lat="41.07837" lon="-6.735119">
        <ele>545.1</ele>
        <time>1970-01-01T00:37:35.000Z</time>
      </trkpt>
      <trkpt lat="41.078384" lon="-6.735083">
        <ele>545.5</ele>
        <time>1970-01-01T00:37:36.000Z</time>
      </trkpt>
      <trkpt lat="41.078397" lon="-6.735048">
        <ele>545.8</ele>
        <time>1970-01-01T00:37:37.000Z</time>
      </trkpt>
      <trkpt lat="41.07841" lon="-6.735013">
        <ele>546.2</ele>
        <time>1970-01-01T00:37:38.000Z</time>
      </trkpt>
      <trkpt lat="41.078423" lon="-6.734979">
        <ele>546.6</ele>
        <time>1970-01-01T00:37:39.000Z</time>
      </trkpt>
      <trkpt lat="41.078436" lon="-6.734946">
        <ele>546.9</ele>
        <time>1970-01-01T00:37:40.000Z</time>
      </trkpt>
      <trkpt lat="41.078449" lon="-6.734914">
        <ele>547.3</ele>
        <time>1970-01-01T00:37:41.000Z</time>
      </trkpt>
      <trkpt lat="41.078462" lon="-6.734884">
        <ele>547.6</ele>
        <time>1970-01-01T00:37:42.000Z</time>
      </trkpt>
      <trkpt lat="41.078474" lon="-6.734854">
        <ele>547.9</ele>
        <time>1970-01-01T00:37:43.000Z</time>
      </trkpt>
      <trkpt lat="41.078487" lon="-6.734826">
        <ele>548.2</ele>
        <time>1970-01-01T00:37:44.000Z</time>
      </trkpt>
      <trkpt lat="41.0785" lon="-6.734798">
        <ele>548.5</ele>
        <time>1970-01-01T00:37:45.000Z</time>
      </trkpt>
      <trkpt lat="41.078515" lon="-6.734769">
        <ele>548.9</ele>
        <time>1970-01-01T00:37:46.000Z</time>
      </trkpt>
      <trkpt lat="41.07853" lon="-6.73474">
        <ele>549.2</ele>
        <time>1970-01-01T00:37:47.000Z</time>
      </trkpt>
      <trkpt lat="41.078546" lon="-6.734712">
        <ele>549.5</ele>
        <time>1970-01-01T00:37:48.000Z</time>
      </trkpt>
      <trkpt lat="41.078563" lon="-6.734683">
        <ele>549.9</ele>
        <time>1970-01-01T00:37:49.000Z</time>
      </trkpt>
      <trkpt lat="41.078582" lon="-6.734657">
        <ele>550.2</ele>
        <time>1970-01-01T00:37:50.000Z</time>
      </trkpt>
      <trkpt lat="41.078602" lon="-6.734633">
        <ele>550.5</ele>
        <time>1970-01-01T00:37:51.000Z</time>
      </trkpt>
      <trkpt lat="41.078621" lon="-6.734611">
        <ele>550.9</ele>
        <time>1970-01-01T00:37:52.000Z</time>
      </trkpt>
      <trkpt lat="41.078639" lon="-6.734589">
        <ele>551.5</ele>
        <time>1970-01-01T00:37:53.000Z</time>
      </trkpt>
      <trkpt lat="41.078656" lon="-6.734567">
        <ele>551.7</ele>
        <time>1970-01-01T00:37:54.000Z</time>
      </trkpt>
      <trkpt lat="41.078674" lon="-6.734546">
        <ele>551.8</ele>
        <time>1970-01-01T00:37:55.000Z</time>
      </trkpt>
      <trkpt lat="41.078691" lon="-6.734524">
        <ele>552</ele>
        <time>1970-01-01T00:37:56.000Z</time>
      </trkpt>
      <trkpt lat="41.078709" lon="-6.734501">
        <ele>552.1</ele>
        <time>1970-01-01T00:37:57.000Z</time>
      </trkpt>
      <trkpt lat="41.078725" lon="-6.734477">
        <ele>552.2</ele>
        <time>1970-01-01T00:37:58.000Z</time>
      </trkpt>
      <trkpt lat="41.078739" lon="-6.734454">
        <ele>552.3</ele>
        <time>1970-01-01T00:37:59.000Z</time>
      </trkpt>
      <trkpt lat="41.078753" lon="-6.734432">
        <ele>552.5</ele>
        <time>1970-01-01T00:38:00.000Z</time>
      </trkpt>
      <trkpt lat="41.078767" lon="-6.734411">
        <ele>552.6</ele>
        <time>1970-01-01T00:38:01.000Z</time>
      </trkpt>
      <trkpt lat="41.07878" lon="-6.734388">
        <ele>552.7</ele>
        <time>1970-01-01T00:38:02.000Z</time>
      </trkpt>
      <trkpt lat="41.078791" lon="-6.734365">
        <ele>552.8</ele>
        <time>1970-01-01T00:38:03.000Z</time>
      </trkpt>
      <trkpt lat="41.078802" lon="-6.734341">
        <ele>553</ele>
        <time>1970-01-01T00:38:04.000Z</time>
      </trkpt>
      <trkpt lat="41.078814" lon="-6.734317">
        <ele>553.1</ele>
        <time>1970-01-01T00:38:05.000Z</time>
      </trkpt>
      <trkpt lat="41.078825" lon="-6.734292">
        <ele>553.2</ele>
        <time>1970-01-01T00:38:06.000Z</time>
      </trkpt>
      <trkpt lat="41.078835" lon="-6.734267">
        <ele>553.4</ele>
        <time>1970-01-01T00:38:07.000Z</time>
      </trkpt>
      <trkpt lat="41.078846" lon="-6.734244">
        <ele>553.5</ele>
        <time>1970-01-01T00:38:08.000Z</time>
      </trkpt>
      <trkpt lat="41.078856" lon="-6.734222">
        <ele>553.6</ele>
        <time>1970-01-01T00:38:09.000Z</time>
      </trkpt>
      <trkpt lat="41.078868" lon="-6.7342">
        <ele>553.8</ele>
        <time>1970-01-01T00:38:10.000Z</time>
      </trkpt>
      <trkpt lat="41.07888" lon="-6.734179">
        <ele>554</ele>
        <time>1970-01-01T00:38:11.000Z</time>
      </trkpt>
      <trkpt lat="41.078892" lon="-6.734157">
        <ele>554.1</ele>
        <time>1970-01-01T00:38:12.000Z</time>
      </trkpt>
      <trkpt lat="41.078904" lon="-6.734136">
        <ele>554.3</ele>
        <time>1970-01-01T00:38:13.000Z</time>
      </trkpt>
      <trkpt lat="41.078916" lon="-6.734117">
        <ele>554.4</ele>
        <time>1970-01-01T00:38:14.000Z</time>
      </trkpt>
      <trkpt lat="41.078929" lon="-6.734098">
        <ele>554.6</ele>
        <time>1970-01-01T00:38:15.000Z</time>
      </trkpt>
      <trkpt lat="41.078942" lon="-6.734079">
        <ele>554.7</ele>
        <time>1970-01-01T00:38:16.000Z</time>
      </trkpt>
      <trkpt lat="41.078955" lon="-6.734059">
        <ele>554.9</ele>
        <time>1970-01-01T00:38:17.000Z</time>
      </trkpt>
      <trkpt lat="41.078968" lon="-6.734041">
        <ele>555</ele>
        <time>1970-01-01T00:38:18.000Z</time>
      </trkpt>
      <trkpt lat="41.078982" lon="-6.734023">
        <ele>555.2</ele>
        <time>1970-01-01T00:38:19.000Z</time>
      </trkpt>
      <trkpt lat="41.078996" lon="-6.734005">
        <ele>555.3</ele>
        <time>1970-01-01T00:38:20.000Z</time>
      </trkpt>
      <trkpt lat="41.079011" lon="-6.733989">
        <ele>555.5</ele>
        <time>1970-01-01T00:38:21.000Z</time>
      </trkpt>
      <trkpt lat="41.079026" lon="-6.733973">
        <ele>555.6</ele>
        <time>1970-01-01T00:38:22.000Z</time>
      </trkpt>
      <trkpt lat="41.079041" lon="-6.733958">
        <ele>555.7</ele>
        <time>1970-01-01T00:38:23.000Z</time>
      </trkpt>
      <trkpt lat="41.079056" lon="-6.733943">
        <ele>555.9</ele>
        <time>1970-01-01T00:38:24.000Z</time>
      </trkpt>
      <trkpt lat="41.079069" lon="-6.733926">
        <ele>556</ele>
        <time>1970-01-01T00:38:25.000Z</time>
      </trkpt>
      <trkpt lat="41.079083" lon="-6.733908">
        <ele>556.1</ele>
        <time>1970-01-01T00:38:26.000Z</time>
      </trkpt>
      <trkpt lat="41.079097" lon="-6.73389">
        <ele>556.3</ele>
        <time>1970-01-01T00:38:27.000Z</time>
      </trkpt>
      <trkpt lat="41.079111" lon="-6.733872">
        <ele>556.5</ele>
        <time>1970-01-01T00:38:28.000Z</time>
      </trkpt>
      <trkpt lat="41.079125" lon="-6.733855">
        <ele>556.6</ele>
        <time>1970-01-01T00:38:29.000Z</time>
      </trkpt>
      <trkpt lat="41.079139" lon="-6.733837">
        <ele>556.8</ele>
        <time>1970-01-01T00:38:30.000Z</time>
      </trkpt>
      <trkpt lat="41.079154" lon="-6.73382">
        <ele>557</ele>
        <time>1970-01-01T00:38:31.000Z</time>
      </trkpt>
      <trkpt lat="41.079168" lon="-6.733802">
        <ele>557.3</ele>
        <time>1970-01-01T00:38:32.000Z</time>
      </trkpt>
      <trkpt lat="41.079183" lon="-6.733785">
        <ele>557.5</ele>
        <time>1970-01-01T00:38:33.000Z</time>
      </trkpt>
      <trkpt lat="41.079199" lon="-6.73377">
        <ele>557.7</ele>
        <time>1970-01-01T00:38:34.000Z</time>
      </trkpt>
      <trkpt lat="41.079214" lon="-6.733753">
        <ele>557.9</ele>
        <time>1970-01-01T00:38:35.000Z</time>
      </trkpt>
      <trkpt lat="41.079229" lon="-6.733736">
        <ele>558.1</ele>
        <time>1970-01-01T00:38:36.000Z</time>
      </trkpt>
      <trkpt lat="41.079244" lon="-6.733718">
        <ele>558.4</ele>
        <time>1970-01-01T00:38:37.000Z</time>
      </trkpt>
      <trkpt lat="41.079259" lon="-6.7337">
        <ele>558.6</ele>
        <time>1970-01-01T00:38:38.000Z</time>
      </trkpt>
      <trkpt lat="41.079274" lon="-6.733682">
        <ele>558.8</ele>
        <time>1970-01-01T00:38:39.000Z</time>
      </trkpt>
      <trkpt lat="41.079288" lon="-6.733663">
        <ele>559</ele>
        <time>1970-01-01T00:38:40.000Z</time>
      </trkpt>
      <trkpt lat="41.079301" lon="-6.733644">
        <ele>559.2</ele>
        <time>1970-01-01T00:38:41.000Z</time>
      </trkpt>
      <trkpt lat="41.079316" lon="-6.733626">
        <ele>559.3</ele>
        <time>1970-01-01T00:38:42.000Z</time>
      </trkpt>
      <trkpt lat="41.07933" lon="-6.733606">
        <ele>559.5</ele>
        <time>1970-01-01T00:38:43.000Z</time>
      </trkpt>
      <trkpt lat="41.079343" lon="-6.733585">
        <ele>559.7</ele>
        <time>1970-01-01T00:38:44.000Z</time>
      </trkpt>
      <trkpt lat="41.079355" lon="-6.733563">
        <ele>559.8</ele>
        <time>1970-01-01T00:38:45.000Z</time>
      </trkpt>
      <trkpt lat="41.079367" lon="-6.733541">
        <ele>560</ele>
        <time>1970-01-01T00:38:46.000Z</time>
      </trkpt>
      <trkpt lat="41.079379" lon="-6.733519">
        <ele>560.1</ele>
        <time>1970-01-01T00:38:47.000Z</time>
      </trkpt>
      <trkpt lat="41.079389" lon="-6.733496">
        <ele>560.2</ele>
        <time>1970-01-01T00:38:48.000Z</time>
      </trkpt>
      <trkpt lat="41.079401" lon="-6.733474">
        <ele>560.3</ele>
        <time>1970-01-01T00:38:49.000Z</time>
      </trkpt>
      <trkpt lat="41.079413" lon="-6.733453">
        <ele>560.4</ele>
        <time>1970-01-01T00:38:50.000Z</time>
      </trkpt>
      <trkpt lat="41.079426" lon="-6.733431">
        <ele>560.5</ele>
        <time>1970-01-01T00:38:51.000Z</time>
      </trkpt>
      <trkpt lat="41.079438" lon="-6.733409">
        <ele>560.6</ele>
        <time>1970-01-01T00:38:52.000Z</time>
      </trkpt>
      <trkpt lat="41.07945" lon="-6.733387">
        <ele>560.7</ele>
        <time>1970-01-01T00:38:53.000Z</time>
      </trkpt>
      <trkpt lat="41.079462" lon="-6.733364">
        <ele>560.8</ele>
        <time>1970-01-01T00:38:54.000Z</time>
      </trkpt>
      <trkpt lat="41.079474" lon="-6.733342">
        <ele>560.9</ele>
        <time>1970-01-01T00:38:55.000Z</time>
      </trkpt>
      <trkpt lat="41.079486" lon="-6.733319">
        <ele>561</ele>
        <time>1970-01-01T00:38:56.000Z</time>
      </trkpt>
      <trkpt lat="41.079499" lon="-6.733297">
        <ele>561.1</ele>
        <time>1970-01-01T00:38:57.000Z</time>
      </trkpt>
      <trkpt lat="41.079512" lon="-6.733274">
        <ele>561.2</ele>
        <time>1970-01-01T00:38:58.000Z</time>
      </trkpt>
      <trkpt lat="41.079526" lon="-6.733251">
        <ele>561.4</ele>
        <time>1970-01-01T00:38:59.000Z</time>
      </trkpt>
      <trkpt lat="41.079541" lon="-6.733226">
        <ele>561.6</ele>
        <time>1970-01-01T00:39:00.000Z</time>
      </trkpt>
      <trkpt lat="41.079555" lon="-6.733201">
        <ele>561.8</ele>
        <time>1970-01-01T00:39:01.000Z</time>
      </trkpt>
      <trkpt lat="41.07957" lon="-6.733177">
        <ele>562</ele>
        <time>1970-01-01T00:39:02.000Z</time>
      </trkpt>
      <trkpt lat="41.079583" lon="-6.733152">
        <ele>562.2</ele>
        <time>1970-01-01T00:39:03.000Z</time>
      </trkpt>
      <trkpt lat="41.079596" lon="-6.733127">
        <ele>562.4</ele>
        <time>1970-01-01T00:39:04.000Z</time>
      </trkpt>
      <trkpt lat="41.079609" lon="-6.733101">
        <ele>562.6</ele>
        <time>1970-01-01T00:39:05.000Z</time>
      </trkpt>
      <trkpt lat="41.079623" lon="-6.733075">
        <ele>562.8</ele>
        <time>1970-01-01T00:39:06.000Z</time>
      </trkpt>
      <trkpt lat="41.079638" lon="-6.73305">
        <ele>563</ele>
        <time>1970-01-01T00:39:07.000Z</time>
      </trkpt>
      <trkpt lat="41.079654" lon="-6.733025">
        <ele>563.2</ele>
        <time>1970-01-01T00:39:08.000Z</time>
      </trkpt>
      <trkpt lat="41.07967" lon="-6.733">
        <ele>563.4</ele>
        <time>1970-01-01T00:39:09.000Z</time>
      </trkpt>
      <trkpt lat="41.079686" lon="-6.732976">
        <ele>563.5</ele>
        <time>1970-01-01T00:39:10.000Z</time>
      </trkpt>
      <trkpt lat="41.079703" lon="-6.732951">
        <ele>563.7</ele>
        <time>1970-01-01T00:39:11.000Z</time>
      </trkpt>
      <trkpt lat="41.079719" lon="-6.732927">
        <ele>563.9</ele>
        <time>1970-01-01T00:39:12.000Z</time>
      </trkpt>
      <trkpt lat="41.079736" lon="-6.732904">
        <ele>564.1</ele>
        <time>1970-01-01T00:39:13.000Z</time>
      </trkpt>
      <trkpt lat="41.079753" lon="-6.732881">
        <ele>564.2</ele>
        <time>1970-01-01T00:39:14.000Z</time>
      </trkpt>
      <trkpt lat="41.07977" lon="-6.732858">
        <ele>564.4</ele>
        <time>1970-01-01T00:39:15.000Z</time>
      </trkpt>
      <trkpt lat="41.079789" lon="-6.732836">
        <ele>564.6</ele>
        <time>1970-01-01T00:39:16.000Z</time>
      </trkpt>
      <trkpt lat="41.079809" lon="-6.732815">
        <ele>564.7</ele>
        <time>1970-01-01T00:39:17.000Z</time>
      </trkpt>
      <trkpt lat="41.079829" lon="-6.732793">
        <ele>564.9</ele>
        <time>1970-01-01T00:39:18.000Z</time>
      </trkpt>
      <trkpt lat="41.079848" lon="-6.732771">
        <ele>565</ele>
        <time>1970-01-01T00:39:19.000Z</time>
      </trkpt>
      <trkpt lat="41.079866" lon="-6.73275">
        <ele>565.2</ele>
        <time>1970-01-01T00:39:20.000Z</time>
      </trkpt>
      <trkpt lat="41.079884" lon="-6.73273">
        <ele>565.3</ele>
        <time>1970-01-01T00:39:21.000Z</time>
      </trkpt>
      <trkpt lat="41.079903" lon="-6.73271">
        <ele>565.5</ele>
        <time>1970-01-01T00:39:22.000Z</time>
      </trkpt>
      <trkpt lat="41.079923" lon="-6.73269">
        <ele>565.6</ele>
        <time>1970-01-01T00:39:23.000Z</time>
      </trkpt>
      <trkpt lat="41.079942" lon="-6.732671">
        <ele>565.7</ele>
        <time>1970-01-01T00:39:24.000Z</time>
      </trkpt>
      <trkpt lat="41.07996" lon="-6.732653">
        <ele>565.8</ele>
        <time>1970-01-01T00:39:25.000Z</time>
      </trkpt>
      <trkpt lat="41.079978" lon="-6.732635">
        <ele>565.9</ele>
        <time>1970-01-01T00:39:26.000Z</time>
      </trkpt>
      <trkpt lat="41.079997" lon="-6.732617">
        <ele>566</ele>
        <time>1970-01-01T00:39:27.000Z</time>
      </trkpt>
      <trkpt lat="41.080016" lon="-6.7326">
        <ele>566.1</ele>
        <time>1970-01-01T00:39:28.000Z</time>
      </trkpt>
      <trkpt lat="41.080036" lon="-6.732584">
        <ele>566.3</ele>
        <time>1970-01-01T00:39:29.000Z</time>
      </trkpt>
      <trkpt lat="41.080056" lon="-6.732569">
        <ele>566.4</ele>
        <time>1970-01-01T00:39:30.000Z</time>
      </trkpt>
      <trkpt lat="41.080078" lon="-6.732557">
        <ele>566.6</ele>
        <time>1970-01-01T00:39:31.000Z</time>
      </trkpt>
      <trkpt lat="41.080099" lon="-6.732546">
        <ele>566.7</ele>
        <time>1970-01-01T00:39:32.000Z</time>
      </trkpt>
      <trkpt lat="41.08012" lon="-6.732538">
        <ele>566.9</ele>
        <time>1970-01-01T00:39:33.000Z</time>
      </trkpt>
      <trkpt lat="41.080141" lon="-6.73253">
        <ele>567</ele>
        <time>1970-01-01T00:39:34.000Z</time>
      </trkpt>
      <trkpt lat="41.080163" lon="-6.732523">
        <ele>567.2</ele>
        <time>1970-01-01T00:39:35.000Z</time>
      </trkpt>
      <trkpt lat="41.080184" lon="-6.732514">
        <ele>567.3</ele>
        <time>1970-01-01T00:39:36.000Z</time>
      </trkpt>
      <trkpt lat="41.080204" lon="-6.732505">
        <ele>567.5</ele>
        <time>1970-01-01T00:39:37.000Z</time>
      </trkpt>
      <trkpt lat="41.080225" lon="-6.732496">
        <ele>567.6</ele>
        <time>1970-01-01T00:39:38.000Z</time>
      </trkpt>
      <trkpt lat="41.080245" lon="-6.732489">
        <ele>567.7</ele>
        <time>1970-01-01T00:39:39.000Z</time>
      </trkpt>
      <trkpt lat="41.080266" lon="-6.732484">
        <ele>567.9</ele>
        <time>1970-01-01T00:39:40.000Z</time>
      </trkpt>
      <trkpt lat="41.080288" lon="-6.732479">
        <ele>568</ele>
        <time>1970-01-01T00:39:41.000Z</time>
      </trkpt>
      <trkpt lat="41.080308" lon="-6.732473">
        <ele>568.2</ele>
        <time>1970-01-01T00:39:42.000Z</time>
      </trkpt>
      <trkpt lat="41.080328" lon="-6.732465">
        <ele>568.3</ele>
        <time>1970-01-01T00:39:43.000Z</time>
      </trkpt>
      <trkpt lat="41.080348" lon="-6.732457">
        <ele>568.4</ele>
        <time>1970-01-01T00:39:44.000Z</time>
      </trkpt>
      <trkpt lat="41.080368" lon="-6.732449">
        <ele>568.6</ele>
        <time>1970-01-01T00:39:45.000Z</time>
      </trkpt>
      <trkpt lat="41.080389" lon="-6.732442">
        <ele>568.7</ele>
        <time>1970-01-01T00:39:46.000Z</time>
      </trkpt>
      <trkpt lat="41.080409" lon="-6.732436">
        <ele>568.8</ele>
        <time>1970-01-01T00:39:47.000Z</time>
      </trkpt>
      <trkpt lat="41.080429" lon="-6.732429">
        <ele>569</ele>
        <time>1970-01-01T00:39:48.000Z</time>
      </trkpt>
      <trkpt lat="41.080448" lon="-6.732422">
        <ele>569.1</ele>
        <time>1970-01-01T00:39:49.000Z</time>
      </trkpt>
      <trkpt lat="41.080468" lon="-6.732415">
        <ele>569.2</ele>
        <time>1970-01-01T00:39:50.000Z</time>
      </trkpt>
      <trkpt lat="41.080487" lon="-6.732408">
        <ele>569.4</ele>
        <time>1970-01-01T00:39:51.000Z</time>
      </trkpt>
      <trkpt lat="41.080507" lon="-6.732402">
        <ele>569.5</ele>
        <time>1970-01-01T00:39:52.000Z</time>
      </trkpt>
      <trkpt lat="41.080527" lon="-6.732397">
        <ele>569.6</ele>
        <time>1970-01-01T00:39:53.000Z</time>
      </trkpt>
      <trkpt lat="41.080546" lon="-6.732391">
        <ele>569.8</ele>
        <time>1970-01-01T00:39:54.000Z</time>
      </trkpt>
      <trkpt lat="41.080565" lon="-6.732386">
        <ele>569.9</ele>
        <time>1970-01-01T00:39:55.000Z</time>
      </trkpt>
      <trkpt lat="41.080585" lon="-6.73238">
        <ele>570</ele>
        <time>1970-01-01T00:39:56.000Z</time>
      </trkpt>
      <trkpt lat="41.080604" lon="-6.732373">
        <ele>570.2</ele>
        <time>1970-01-01T00:39:57.000Z</time>
      </trkpt>
      <trkpt lat="41.080623" lon="-6.732367">
        <ele>570.3</ele>
        <time>1970-01-01T00:39:58.000Z</time>
      </trkpt>
      <trkpt lat="41.080641" lon="-6.732361">
        <ele>570.4</ele>
        <time>1970-01-01T00:39:59.000Z</time>
      </trkpt>
      <trkpt lat="41.080661" lon="-6.732356">
        <ele>570.6</ele>
        <time>1970-01-01T00:40:00.000Z</time>
      </trkpt>
      <trkpt lat="41.08068" lon="-6.732352">
        <ele>570.7</ele>
        <time>1970-01-01T00:40:01.000Z</time>
      </trkpt>
      <trkpt lat="41.080699" lon="-6.732347">
        <ele>570.8</ele>
        <time>1970-01-01T00:40:02.000Z</time>
      </trkpt>
      <trkpt lat="41.080719" lon="-6.732343">
        <ele>570.9</ele>
        <time>1970-01-01T00:40:03.000Z</time>
      </trkpt>
      <trkpt lat="41.080738" lon="-6.732337">
        <ele>571.1</ele>
        <time>1970-01-01T00:40:04.000Z</time>
      </trkpt>
      <trkpt lat="41.080758" lon="-6.73233">
        <ele>571.2</ele>
        <time>1970-01-01T00:40:05.000Z</time>
      </trkpt>
      <trkpt lat="41.080779" lon="-6.732323">
        <ele>571.3</ele>
        <time>1970-01-01T00:40:06.000Z</time>
      </trkpt>
      <trkpt lat="41.080801" lon="-6.732316">
        <ele>571.5</ele>
        <time>1970-01-01T00:40:07.000Z</time>
      </trkpt>
      <trkpt lat="41.080822" lon="-6.732308">
        <ele>571.6</ele>
        <time>1970-01-01T00:40:08.000Z</time>
      </trkpt>
      <trkpt lat="41.080843" lon="-6.7323">
        <ele>571.8</ele>
        <time>1970-01-01T00:40:09.000Z</time>
      </trkpt>
      <trkpt lat="41.080863" lon="-6.732293">
        <ele>571.9</ele>
        <time>1970-01-01T00:40:10.000Z</time>
      </trkpt>
      <trkpt lat="41.080884" lon="-6.732287">
        <ele>572.1</ele>
        <time>1970-01-01T00:40:11.000Z</time>
      </trkpt>
      <trkpt lat="41.080906" lon="-6.732281">
        <ele>572.2</ele>
        <time>1970-01-01T00:40:12.000Z</time>
      </trkpt>
      <trkpt lat="41.080927" lon="-6.732275">
        <ele>572.4</ele>
        <time>1970-01-01T00:40:13.000Z</time>
      </trkpt>
      <trkpt lat="41.080949" lon="-6.732269">
        <ele>572.5</ele>
        <time>1970-01-01T00:40:14.000Z</time>
      </trkpt>
      <trkpt lat="41.08097" lon="-6.732264">
        <ele>572.6</ele>
        <time>1970-01-01T00:40:15.000Z</time>
      </trkpt>
      <trkpt lat="41.080992" lon="-6.732259">
        <ele>572.8</ele>
        <time>1970-01-01T00:40:16.000Z</time>
      </trkpt>
      <trkpt lat="41.081013" lon="-6.732253">
        <ele>572.9</ele>
        <time>1970-01-01T00:40:17.000Z</time>
      </trkpt>
      <trkpt lat="41.081034" lon="-6.732247">
        <ele>573.1</ele>
        <time>1970-01-01T00:40:18.000Z</time>
      </trkpt>
      <trkpt lat="41.081056" lon="-6.732241">
        <ele>573.2</ele>
        <time>1970-01-01T00:40:19.000Z</time>
      </trkpt>
      <trkpt lat="41.081078" lon="-6.732235">
        <ele>573.4</ele>
        <time>1970-01-01T00:40:20.000Z</time>
      </trkpt>
      <trkpt lat="41.081101" lon="-6.73223">
        <ele>573.5</ele>
        <time>1970-01-01T00:40:21.000Z</time>
      </trkpt>
      <trkpt lat="41.081124" lon="-6.732226">
        <ele>573.7</ele>
        <time>1970-01-01T00:40:22.000Z</time>
      </trkpt>
      <trkpt lat="41.081146" lon="-6.732221">
        <ele>573.8</ele>
        <time>1970-01-01T00:40:23.000Z</time>
      </trkpt>
      <trkpt lat="41.081169" lon="-6.732216">
        <ele>574</ele>
        <time>1970-01-01T00:40:24.000Z</time>
      </trkpt>
      <trkpt lat="41.081191" lon="-6.732211">
        <ele>574.1</ele>
        <time>1970-01-01T00:40:25.000Z</time>
      </trkpt>
      <trkpt lat="41.081213" lon="-6.732205">
        <ele>574.3</ele>
        <time>1970-01-01T00:40:26.000Z</time>
      </trkpt>
      <trkpt lat="41.081234" lon="-6.732199">
        <ele>574.4</ele>
        <time>1970-01-01T00:40:27.000Z</time>
      </trkpt>
      <trkpt lat="41.081257" lon="-6.732194">
        <ele>574.6</ele>
        <time>1970-01-01T00:40:28.000Z</time>
      </trkpt>
      <trkpt lat="41.081279" lon="-6.732189">
        <ele>574.7</ele>
        <time>1970-01-01T00:40:29.000Z</time>
      </trkpt>
      <trkpt lat="41.081301" lon="-6.732184">
        <ele>574.9</ele>
        <time>1970-01-01T00:40:30.000Z</time>
      </trkpt>
      <trkpt lat="41.081322" lon="-6.732178">
        <ele>575</ele>
        <time>1970-01-01T00:40:31.000Z</time>
      </trkpt>
      <trkpt lat="41.081344" lon="-6.732173">
        <ele>575.1</ele>
        <time>1970-01-01T00:40:32.000Z</time>
      </trkpt>
      <trkpt lat="41.081367" lon="-6.732166">
        <ele>575.3</ele>
        <time>1970-01-01T00:40:33.000Z</time>
      </trkpt>
      <trkpt lat="41.081389" lon="-6.732158">
        <ele>575.5</ele>
        <time>1970-01-01T00:40:34.000Z</time>
      </trkpt>
      <trkpt lat="41.081412" lon="-6.732149">
        <ele>575.6</ele>
        <time>1970-01-01T00:40:35.000Z</time>
      </trkpt>
      <trkpt lat="41.081435" lon="-6.73214">
        <ele>575.8</ele>
        <time>1970-01-01T00:40:36.000Z</time>
      </trkpt>
      <trkpt lat="41.081459" lon="-6.732131">
        <ele>575.9</ele>
        <time>1970-01-01T00:40:37.000Z</time>
      </trkpt>
      <trkpt lat="41.081482" lon="-6.732122">
        <ele>576.1</ele>
        <time>1970-01-01T00:40:38.000Z</time>
      </trkpt>
      <trkpt lat="41.081505" lon="-6.732114">
        <ele>576.2</ele>
        <time>1970-01-01T00:40:39.000Z</time>
      </trkpt>
      <trkpt lat="41.081528" lon="-6.732106">
        <ele>576.4</ele>
        <time>1970-01-01T00:40:40.000Z</time>
      </trkpt>
      <trkpt lat="41.081551" lon="-6.732099">
        <ele>576.6</ele>
        <time>1970-01-01T00:40:41.000Z</time>
      </trkpt>
      <trkpt lat="41.081574" lon="-6.732092">
        <ele>576.7</ele>
        <time>1970-01-01T00:40:42.000Z</time>
      </trkpt>
      <trkpt lat="41.081596" lon="-6.732084">
        <ele>576.9</ele>
        <time>1970-01-01T00:40:43.000Z</time>
      </trkpt>
      <trkpt lat="41.081617" lon="-6.732076">
        <ele>577</ele>
        <time>1970-01-01T00:40:44.000Z</time>
      </trkpt>
      <trkpt lat="41.08164" lon="-6.732068">
        <ele>577.2</ele>
        <time>1970-01-01T00:40:45.000Z</time>
      </trkpt>
      <trkpt lat="41.081663" lon="-6.73206">
        <ele>577.3</ele>
        <time>1970-01-01T00:40:46.000Z</time>
      </trkpt>
      <trkpt lat="41.081686" lon="-6.73205">
        <ele>577.5</ele>
        <time>1970-01-01T00:40:47.000Z</time>
      </trkpt>
      <trkpt lat="41.08171" lon="-6.732041">
        <ele>577.6</ele>
        <time>1970-01-01T00:40:48.000Z</time>
      </trkpt>
      <trkpt lat="41.081733" lon="-6.732031">
        <ele>577.8</ele>
        <time>1970-01-01T00:40:49.000Z</time>
      </trkpt>
      <trkpt lat="41.081756" lon="-6.732022">
        <ele>578</ele>
        <time>1970-01-01T00:40:50.000Z</time>
      </trkpt>
      <trkpt lat="41.08178" lon="-6.732014">
        <ele>578.1</ele>
        <time>1970-01-01T00:40:51.000Z</time>
      </trkpt>
      <trkpt lat="41.081805" lon="-6.732008">
        <ele>578.3</ele>
        <time>1970-01-01T00:40:52.000Z</time>
      </trkpt>
      <trkpt lat="41.081831" lon="-6.732002">
        <ele>578.5</ele>
        <time>1970-01-01T00:40:53.000Z</time>
      </trkpt>
      <trkpt lat="41.081856" lon="-6.731995">
        <ele>578.6</ele>
        <time>1970-01-01T00:40:54.000Z</time>
      </trkpt>
      <trkpt lat="41.08188" lon="-6.731988">
        <ele>578.8</ele>
        <time>1970-01-01T00:40:55.000Z</time>
      </trkpt>
      <trkpt lat="41.081904" lon="-6.731981">
        <ele>579</ele>
        <time>1970-01-01T00:40:56.000Z</time>
      </trkpt>
      <trkpt lat="41.081927" lon="-6.731974">
        <ele>579.1</ele>
        <time>1970-01-01T00:40:57.000Z</time>
      </trkpt>
      <trkpt lat="41.081951" lon="-6.731967">
        <ele>579.3</ele>
        <time>1970-01-01T00:40:58.000Z</time>
      </trkpt>
      <trkpt lat="41.081976" lon="-6.731959">
        <ele>579.4</ele>
        <time>1970-01-01T00:40:59.000Z</time>
      </trkpt>
      <trkpt lat="41.082001" lon="-6.731952">
        <ele>579.6</ele>
        <time>1970-01-01T00:41:00.000Z</time>
      </trkpt>
      <trkpt lat="41.082027" lon="-6.731944">
        <ele>579.8</ele>
        <time>1970-01-01T00:41:01.000Z</time>
      </trkpt>
      <trkpt lat="41.082052" lon="-6.731938">
        <ele>580</ele>
        <time>1970-01-01T00:41:02.000Z</time>
      </trkpt>
      <trkpt lat="41.082077" lon="-6.731932">
        <ele>580.1</ele>
        <time>1970-01-01T00:41:03.000Z</time>
      </trkpt>
      <trkpt lat="41.082102" lon="-6.731926">
        <ele>580.3</ele>
        <time>1970-01-01T00:41:04.000Z</time>
      </trkpt>
      <trkpt lat="41.082128" lon="-6.731921">
        <ele>580.5</ele>
        <time>1970-01-01T00:41:05.000Z</time>
      </trkpt>
      <trkpt lat="41.082154" lon="-6.731914">
        <ele>580.6</ele>
        <time>1970-01-01T00:41:06.000Z</time>
      </trkpt>
      <trkpt lat="41.082179" lon="-6.731908">
        <ele>580.8</ele>
        <time>1970-01-01T00:41:07.000Z</time>
      </trkpt>
      <trkpt lat="41.082204" lon="-6.731903">
        <ele>581</ele>
        <time>1970-01-01T00:41:08.000Z</time>
      </trkpt>
      <trkpt lat="41.08223" lon="-6.731898">
        <ele>581.1</ele>
        <time>1970-01-01T00:41:09.000Z</time>
      </trkpt>
      <trkpt lat="41.082257" lon="-6.731892">
        <ele>581.3</ele>
        <time>1970-01-01T00:41:10.000Z</time>
      </trkpt>
      <trkpt lat="41.082283" lon="-6.731885">
        <ele>581.5</ele>
        <time>1970-01-01T00:41:11.000Z</time>
      </trkpt>
      <trkpt lat="41.08231" lon="-6.731878">
        <ele>581.7</ele>
        <time>1970-01-01T00:41:12.000Z</time>
      </trkpt>
      <trkpt lat="41.082335" lon="-6.731869">
        <ele>581.8</ele>
        <time>1970-01-01T00:41:13.000Z</time>
      </trkpt>
      <trkpt lat="41.082362" lon="-6.731858">
        <ele>582</ele>
        <time>1970-01-01T00:41:14.000Z</time>
      </trkpt>
      <trkpt lat="41.082389" lon="-6.731845">
        <ele>582.2</ele>
        <time>1970-01-01T00:41:15.000Z</time>
      </trkpt>
      <trkpt lat="41.082416" lon="-6.731831">
        <ele>582.4</ele>
        <time>1970-01-01T00:41:16.000Z</time>
      </trkpt>
      <trkpt lat="41.082442" lon="-6.731814">
        <ele>582.6</ele>
        <time>1970-01-01T00:41:17.000Z</time>
      </trkpt>
      <trkpt lat="41.082468" lon="-6.731794">
        <ele>582.8</ele>
        <time>1970-01-01T00:41:18.000Z</time>
      </trkpt>
      <trkpt lat="41.082491" lon="-6.731773">
        <ele>583</ele>
        <time>1970-01-01T00:41:19.000Z</time>
      </trkpt>
      <trkpt lat="41.082513" lon="-6.731751">
        <ele>583.2</ele>
        <time>1970-01-01T00:41:20.000Z</time>
      </trkpt>
      <trkpt lat="41.082534" lon="-6.731729">
        <ele>583.3</ele>
        <time>1970-01-01T00:41:21.000Z</time>
      </trkpt>
      <trkpt lat="41.082555" lon="-6.731707">
        <ele>583.5</ele>
        <time>1970-01-01T00:41:22.000Z</time>
      </trkpt>
      <trkpt lat="41.082577" lon="-6.731685">
        <ele>583.7</ele>
        <time>1970-01-01T00:41:23.000Z</time>
      </trkpt>
      <trkpt lat="41.082598" lon="-6.731662">
        <ele>583.9</ele>
        <time>1970-01-01T00:41:24.000Z</time>
      </trkpt>
      <trkpt lat="41.082619" lon="-6.73164">
        <ele>584.1</ele>
        <time>1970-01-01T00:41:25.000Z</time>
      </trkpt>
      <trkpt lat="41.08264" lon="-6.731619">
        <ele>584.2</ele>
        <time>1970-01-01T00:41:26.000Z</time>
      </trkpt>
      <trkpt lat="41.08266" lon="-6.731598">
        <ele>584.4</ele>
        <time>1970-01-01T00:41:27.000Z</time>
      </trkpt>
      <trkpt lat="41.082681" lon="-6.731577">
        <ele>584.6</ele>
        <time>1970-01-01T00:41:28.000Z</time>
      </trkpt>
      <trkpt lat="41.082703" lon="-6.731557">
        <ele>584.7</ele>
        <time>1970-01-01T00:41:29.000Z</time>
      </trkpt>
      <trkpt lat="41.082726" lon="-6.731538">
        <ele>584.9</ele>
        <time>1970-01-01T00:41:30.000Z</time>
      </trkpt>
      <trkpt lat="41.08275" lon="-6.731519">
        <ele>585.1</ele>
        <time>1970-01-01T00:41:31.000Z</time>
      </trkpt>
      <trkpt lat="41.082774" lon="-6.731502">
        <ele>585.3</ele>
        <time>1970-01-01T00:41:32.000Z</time>
      </trkpt>
      <trkpt lat="41.082798" lon="-6.731487">
        <ele>585.5</ele>
        <time>1970-01-01T00:41:33.000Z</time>
      </trkpt>
      <trkpt lat="41.082823" lon="-6.731473">
        <ele>585.6</ele>
        <time>1970-01-01T00:41:34.000Z</time>
      </trkpt>
      <trkpt lat="41.082849" lon="-6.73146">
        <ele>585.8</ele>
        <time>1970-01-01T00:41:35.000Z</time>
      </trkpt>
      <trkpt lat="41.082874" lon="-6.731446">
        <ele>586</ele>
        <time>1970-01-01T00:41:36.000Z</time>
      </trkpt>
      <trkpt lat="41.0829" lon="-6.731433">
        <ele>586.2</ele>
        <time>1970-01-01T00:41:37.000Z</time>
      </trkpt>
      <trkpt lat="41.082927" lon="-6.731422">
        <ele>586.4</ele>
        <time>1970-01-01T00:41:38.000Z</time>
      </trkpt>
      <trkpt lat="41.082952" lon="-6.731412">
        <ele>586.5</ele>
        <time>1970-01-01T00:41:39.000Z</time>
      </trkpt>
      <trkpt lat="41.082977" lon="-6.731402">
        <ele>586.7</ele>
        <time>1970-01-01T00:41:40.000Z</time>
      </trkpt>
      <trkpt lat="41.083001" lon="-6.731394">
        <ele>586.9</ele>
        <time>1970-01-01T00:41:41.000Z</time>
      </trkpt>
      <trkpt lat="41.083026" lon="-6.731386">
        <ele>587</ele>
        <time>1970-01-01T00:41:42.000Z</time>
      </trkpt>
      <trkpt lat="41.083051" lon="-6.731378">
        <ele>587.2</ele>
        <time>1970-01-01T00:41:43.000Z</time>
      </trkpt>
      <trkpt lat="41.083076" lon="-6.73137">
        <ele>587.4</ele>
        <time>1970-01-01T00:41:44.000Z</time>
      </trkpt>
      <trkpt lat="41.0831" lon="-6.731362">
        <ele>587.5</ele>
        <time>1970-01-01T00:41:45.000Z</time>
      </trkpt>
      <trkpt lat="41.083124" lon="-6.731353">
        <ele>587.7</ele>
        <time>1970-01-01T00:41:46.000Z</time>
      </trkpt>
      <trkpt lat="41.083147" lon="-6.731343">
        <ele>587.9</ele>
        <time>1970-01-01T00:41:47.000Z</time>
      </trkpt>
      <trkpt lat="41.083171" lon="-6.731333">
        <ele>588</ele>
        <time>1970-01-01T00:41:48.000Z</time>
      </trkpt>
      <trkpt lat="41.083194" lon="-6.731321">
        <ele>588.2</ele>
        <time>1970-01-01T00:41:49.000Z</time>
      </trkpt>
      <trkpt lat="41.083217" lon="-6.731309">
        <ele>588.4</ele>
        <time>1970-01-01T00:41:50.000Z</time>
      </trkpt>
      <trkpt lat="41.08324" lon="-6.731294">
        <ele>588.5</ele>
        <time>1970-01-01T00:41:51.000Z</time>
      </trkpt>
      <trkpt lat="41.083263" lon="-6.731278">
        <ele>588.7</ele>
        <time>1970-01-01T00:41:52.000Z</time>
      </trkpt>
      <trkpt lat="41.083285" lon="-6.73126">
        <ele>588.9</ele>
        <time>1970-01-01T00:41:53.000Z</time>
      </trkpt>
      <trkpt lat="41.083307" lon="-6.731241">
        <ele>589</ele>
        <time>1970-01-01T00:41:54.000Z</time>
      </trkpt>
      <trkpt lat="41.083328" lon="-6.73122">
        <ele>589.2</ele>
        <time>1970-01-01T00:41:55.000Z</time>
      </trkpt>
      <trkpt lat="41.083349" lon="-6.731199">
        <ele>589.4</ele>
        <time>1970-01-01T00:41:56.000Z</time>
      </trkpt>
      <trkpt lat="41.08337" lon="-6.731177">
        <ele>589.6</ele>
        <time>1970-01-01T00:41:57.000Z</time>
      </trkpt>
      <trkpt lat="41.08339" lon="-6.731156">
        <ele>589.7</ele>
        <time>1970-01-01T00:41:58.000Z</time>
      </trkpt>
      <trkpt lat="41.083411" lon="-6.731133">
        <ele>589.9</ele>
        <time>1970-01-01T00:41:59.000Z</time>
      </trkpt>
      <trkpt lat="41.083432" lon="-6.73111">
        <ele>590.1</ele>
        <time>1970-01-01T00:42:00.000Z</time>
      </trkpt>
      <trkpt lat="41.083453" lon="-6.731086">
        <ele>590.3</ele>
        <time>1970-01-01T00:42:01.000Z</time>
      </trkpt>
      <trkpt lat="41.083475" lon="-6.731062">
        <ele>590.5</ele>
        <time>1970-01-01T00:42:02.000Z</time>
      </trkpt>
      <trkpt lat="41.083496" lon="-6.731038">
        <ele>590.6</ele>
        <time>1970-01-01T00:42:03.000Z</time>
      </trkpt>
      <trkpt lat="41.083517" lon="-6.731015">
        <ele>590.8</ele>
        <time>1970-01-01T00:42:04.000Z</time>
      </trkpt>
      <trkpt lat="41.083537" lon="-6.730992">
        <ele>591</ele>
        <time>1970-01-01T00:42:05.000Z</time>
      </trkpt>
      <trkpt lat="41.083558" lon="-6.730967">
        <ele>591.2</ele>
        <time>1970-01-01T00:42:06.000Z</time>
      </trkpt>
      <trkpt lat="41.083579" lon="-6.730942">
        <ele>591.4</ele>
        <time>1970-01-01T00:42:07.000Z</time>
      </trkpt>
      <trkpt lat="41.083599" lon="-6.730917">
        <ele>591.6</ele>
        <time>1970-01-01T00:42:08.000Z</time>
      </trkpt>
      <trkpt lat="41.08362" lon="-6.730892">
        <ele>591.7</ele>
        <time>1970-01-01T00:42:09.000Z</time>
      </trkpt>
      <trkpt lat="41.083642" lon="-6.730868">
        <ele>591.9</ele>
        <time>1970-01-01T00:42:10.000Z</time>
      </trkpt>
      <trkpt lat="41.083664" lon="-6.730844">
        <ele>592.1</ele>
        <time>1970-01-01T00:42:11.000Z</time>
      </trkpt>
      <trkpt lat="41.083686" lon="-6.73082">
        <ele>592.3</ele>
        <time>1970-01-01T00:42:12.000Z</time>
      </trkpt>
      <trkpt lat="41.083707" lon="-6.730796">
        <ele>592.5</ele>
        <time>1970-01-01T00:42:13.000Z</time>
      </trkpt>
      <trkpt lat="41.083729" lon="-6.730773">
        <ele>592.7</ele>
        <time>1970-01-01T00:42:14.000Z</time>
      </trkpt>
      <trkpt lat="41.08375" lon="-6.730751">
        <ele>592.8</ele>
        <time>1970-01-01T00:42:15.000Z</time>
      </trkpt>
      <trkpt lat="41.083771" lon="-6.730731">
        <ele>593</ele>
        <time>1970-01-01T00:42:16.000Z</time>
      </trkpt>
      <trkpt lat="41.083793" lon="-6.730712">
        <ele>593.2</ele>
        <time>1970-01-01T00:42:17.000Z</time>
      </trkpt>
      <trkpt lat="41.083816" lon="-6.730693">
        <ele>593.4</ele>
        <time>1970-01-01T00:42:18.000Z</time>
      </trkpt>
      <trkpt lat="41.083841" lon="-6.730674">
        <ele>593.6</ele>
        <time>1970-01-01T00:42:19.000Z</time>
      </trkpt>
      <trkpt lat="41.083867" lon="-6.730654">
        <ele>593.8</ele>
        <time>1970-01-01T00:42:20.000Z</time>
      </trkpt>
      <trkpt lat="41.083892" lon="-6.730636">
        <ele>593.9</ele>
        <time>1970-01-01T00:42:21.000Z</time>
      </trkpt>
      <trkpt lat="41.083917" lon="-6.73062">
        <ele>594.1</ele>
        <time>1970-01-01T00:42:22.000Z</time>
      </trkpt>
      <trkpt lat="41.083941" lon="-6.730603">
        <ele>594.3</ele>
        <time>1970-01-01T00:42:23.000Z</time>
      </trkpt>
      <trkpt lat="41.083964" lon="-6.730586">
        <ele>594.5</ele>
        <time>1970-01-01T00:42:24.000Z</time>
      </trkpt>
      <trkpt lat="41.083986" lon="-6.730568">
        <ele>594.6</ele>
        <time>1970-01-01T00:42:25.000Z</time>
      </trkpt>
      <trkpt lat="41.084009" lon="-6.730549">
        <ele>594.8</ele>
        <time>1970-01-01T00:42:26.000Z</time>
      </trkpt>
      <trkpt lat="41.084032" lon="-6.73053">
        <ele>595</ele>
        <time>1970-01-01T00:42:27.000Z</time>
      </trkpt>
      <trkpt lat="41.084054" lon="-6.730511">
        <ele>595.2</ele>
        <time>1970-01-01T00:42:28.000Z</time>
      </trkpt>
      <trkpt lat="41.084076" lon="-6.730493">
        <ele>595.3</ele>
        <time>1970-01-01T00:42:29.000Z</time>
      </trkpt>
      <trkpt lat="41.084098" lon="-6.730475">
        <ele>595.5</ele>
        <time>1970-01-01T00:42:30.000Z</time>
      </trkpt>
      <trkpt lat="41.08412" lon="-6.730457">
        <ele>595.7</ele>
        <time>1970-01-01T00:42:31.000Z</time>
      </trkpt>
      <trkpt lat="41.084142" lon="-6.730441">
        <ele>595.9</ele>
        <time>1970-01-01T00:42:32.000Z</time>
      </trkpt>
      <trkpt lat="41.084164" lon="-6.730425">
        <ele>596</ele>
        <time>1970-01-01T00:42:33.000Z</time>
      </trkpt>
      <trkpt lat="41.084186" lon="-6.730411">
        <ele>596.2</ele>
        <time>1970-01-01T00:42:34.000Z</time>
      </trkpt>
      <trkpt lat="41.084209" lon="-6.730397">
        <ele>596.3</ele>
        <time>1970-01-01T00:42:35.000Z</time>
      </trkpt>
      <trkpt lat="41.084232" lon="-6.730382">
        <ele>596.5</ele>
        <time>1970-01-01T00:42:36.000Z</time>
      </trkpt>
      <trkpt lat="41.084256" lon="-6.730367">
        <ele>596.7</ele>
        <time>1970-01-01T00:42:37.000Z</time>
      </trkpt>
      <trkpt lat="41.08428" lon="-6.730352">
        <ele>596.9</ele>
        <time>1970-01-01T00:42:38.000Z</time>
      </trkpt>
      <trkpt lat="41.084305" lon="-6.730336">
        <ele>597</ele>
        <time>1970-01-01T00:42:39.000Z</time>
      </trkpt>
      <trkpt lat="41.084328" lon="-6.73032">
        <ele>597.2</ele>
        <time>1970-01-01T00:42:40.000Z</time>
      </trkpt>
      <trkpt lat="41.084352" lon="-6.730303">
        <ele>597.4</ele>
        <time>1970-01-01T00:42:41.000Z</time>
      </trkpt>
      <trkpt lat="41.084376" lon="-6.730287">
        <ele>597.6</ele>
        <time>1970-01-01T00:42:42.000Z</time>
      </trkpt>
      <trkpt lat="41.084401" lon="-6.730271">
        <ele>597.8</ele>
        <time>1970-01-01T00:42:43.000Z</time>
      </trkpt>
      <trkpt lat="41.084427" lon="-6.730256">
        <ele>597.9</ele>
        <time>1970-01-01T00:42:44.000Z</time>
      </trkpt>
      <trkpt lat="41.084453" lon="-6.730241">
        <ele>598.1</ele>
        <time>1970-01-01T00:42:45.000Z</time>
      </trkpt>
      <trkpt lat="41.08448" lon="-6.730225">
        <ele>598.3</ele>
        <time>1970-01-01T00:42:46.000Z</time>
      </trkpt>
      <trkpt lat="41.084507" lon="-6.730209">
        <ele>598.5</ele>
        <time>1970-01-01T00:42:47.000Z</time>
      </trkpt>
      <trkpt lat="41.084533" lon="-6.730193">
        <ele>598.7</ele>
        <time>1970-01-01T00:42:48.000Z</time>
      </trkpt>
      <trkpt lat="41.084557" lon="-6.730178">
        <ele>598.9</ele>
        <time>1970-01-01T00:42:49.000Z</time>
      </trkpt>
      <trkpt lat="41.084582" lon="-6.730161">
        <ele>599.1</ele>
        <time>1970-01-01T00:42:50.000Z</time>
      </trkpt>
      <trkpt lat="41.084606" lon="-6.730142">
        <ele>599.2</ele>
        <time>1970-01-01T00:42:51.000Z</time>
      </trkpt>
      <trkpt lat="41.084632" lon="-6.73012">
        <ele>599.5</ele>
        <time>1970-01-01T00:42:52.000Z</time>
      </trkpt>
      <trkpt lat="41.084659" lon="-6.730097">
        <ele>599.7</ele>
        <time>1970-01-01T00:42:53.000Z</time>
      </trkpt>
      <trkpt lat="41.084686" lon="-6.730077">
        <ele>599.9</ele>
        <time>1970-01-01T00:42:54.000Z</time>
      </trkpt>
      <trkpt lat="41.084712" lon="-6.730058">
        <ele>600.1</ele>
        <time>1970-01-01T00:42:55.000Z</time>
      </trkpt>
      <trkpt lat="41.084738" lon="-6.730041">
        <ele>600.3</ele>
        <time>1970-01-01T00:42:56.000Z</time>
      </trkpt>
      <trkpt lat="41.084765" lon="-6.730024">
        <ele>600.5</ele>
        <time>1970-01-01T00:42:57.000Z</time>
      </trkpt>
      <trkpt lat="41.084793" lon="-6.730008">
        <ele>600.7</ele>
        <time>1970-01-01T00:42:58.000Z</time>
      </trkpt>
      <trkpt lat="41.084823" lon="-6.729994">
        <ele>600.9</ele>
        <time>1970-01-01T00:42:59.000Z</time>
      </trkpt>
      <trkpt lat="41.084853" lon="-6.72998">
        <ele>601</ele>
        <time>1970-01-01T00:43:00.000Z</time>
      </trkpt>
      <trkpt lat="41.084883" lon="-6.729966">
        <ele>601</ele>
        <time>1970-01-01T00:43:01.000Z</time>
      </trkpt>
      <trkpt lat="41.084911" lon="-6.729951">
        <ele>601</ele>
        <time>1970-01-01T00:43:02.000Z</time>
      </trkpt>
      <trkpt lat="41.084937" lon="-6.729935">
        <ele>601</ele>
        <time>1970-01-01T00:43:03.000Z</time>
      </trkpt>
      <trkpt lat="41.084963" lon="-6.729918">
        <ele>601</ele>
        <time>1970-01-01T00:43:04.000Z</time>
      </trkpt>
      <trkpt lat="41.084991" lon="-6.729902">
        <ele>601</ele>
        <time>1970-01-01T00:43:05.000Z</time>
      </trkpt>
      <trkpt lat="41.085021" lon="-6.729885">
        <ele>601</ele>
        <time>1970-01-01T00:43:06.000Z</time>
      </trkpt>
      <trkpt lat="41.085051" lon="-6.729867">
        <ele>601</ele>
        <time>1970-01-01T00:43:07.000Z</time>
      </trkpt>
      <trkpt lat="41.08508" lon="-6.729848">
        <ele>601</ele>
        <time>1970-01-01T00:43:08.000Z</time>
      </trkpt>
      <trkpt lat="41.085107" lon="-6.729829">
        <ele>601</ele>
        <time>1970-01-01T00:43:09.000Z</time>
      </trkpt>
      <trkpt lat="41.085134" lon="-6.72981">
        <ele>601</ele>
        <time>1970-01-01T00:43:10.000Z</time>
      </trkpt>
      <trkpt lat="41.085161" lon="-6.729792">
        <ele>601</ele>
        <time>1970-01-01T00:43:11.000Z</time>
      </trkpt>
      <trkpt lat="41.085189" lon="-6.729775">
        <ele>601</ele>
        <time>1970-01-01T00:43:12.000Z</time>
      </trkpt>
      <trkpt lat="41.085216" lon="-6.729756">
        <ele>601</ele>
        <time>1970-01-01T00:43:13.000Z</time>
      </trkpt>
      <trkpt lat="41.085243" lon="-6.729736">
        <ele>601</ele>
        <time>1970-01-01T00:43:14.000Z</time>
      </trkpt>
      <trkpt lat="41.085269" lon="-6.729716">
        <ele>601</ele>
        <time>1970-01-01T00:43:15.000Z</time>
      </trkpt>
      <trkpt lat="41.085294" lon="-6.729696">
        <ele>601</ele>
        <time>1970-01-01T00:43:16.000Z</time>
      </trkpt>
      <trkpt lat="41.085317" lon="-6.729677">
        <ele>601</ele>
        <time>1970-01-01T00:43:17.000Z</time>
      </trkpt>
      <trkpt lat="41.08534" lon="-6.729656">
        <ele>601.1</ele>
        <time>1970-01-01T00:43:18.000Z</time>
      </trkpt>
      <trkpt lat="41.085363" lon="-6.729631">
        <ele>601.1</ele>
        <time>1970-01-01T00:43:19.000Z</time>
      </trkpt>
      <trkpt lat="41.085386" lon="-6.729602">
        <ele>601.1</ele>
        <time>1970-01-01T00:43:20.000Z</time>
      </trkpt>
      <trkpt lat="41.085405" lon="-6.729569">
        <ele>601.1</ele>
        <time>1970-01-01T00:43:21.000Z</time>
      </trkpt>
      <trkpt lat="41.085419" lon="-6.729533">
        <ele>601.1</ele>
        <time>1970-01-01T00:43:22.000Z</time>
      </trkpt>
      <trkpt lat="41.085423" lon="-6.729497">
        <ele>601.2</ele>
        <time>1970-01-01T00:43:23.000Z</time>
      </trkpt>
      <trkpt lat="41.085419" lon="-6.729459">
        <ele>601.3</ele>
        <time>1970-01-01T00:43:24.000Z</time>
      </trkpt>
      <trkpt lat="41.085408" lon="-6.72942">
        <ele>601.4</ele>
        <time>1970-01-01T00:43:25.000Z</time>
      </trkpt>
      <trkpt lat="41.085395" lon="-6.729378">
        <ele>601.5</ele>
        <time>1970-01-01T00:43:26.000Z</time>
      </trkpt>
      <trkpt lat="41.085384" lon="-6.729335">
        <ele>601.6</ele>
        <time>1970-01-01T00:43:27.000Z</time>
      </trkpt>
      <trkpt lat="41.085373" lon="-6.729289">
        <ele>601.7</ele>
        <time>1970-01-01T00:43:28.000Z</time>
      </trkpt>
      <trkpt lat="41.085361" lon="-6.729242">
        <ele>601.9</ele>
        <time>1970-01-01T00:43:29.000Z</time>
      </trkpt>
      <trkpt lat="41.085348" lon="-6.729195">
        <ele>602</ele>
        <time>1970-01-01T00:43:30.000Z</time>
      </trkpt>
      <trkpt lat="41.085335" lon="-6.729148">
        <ele>602.1</ele>
        <time>1970-01-01T00:43:31.000Z</time>
      </trkpt>
      <trkpt lat="41.085321" lon="-6.729101">
        <ele>602.2</ele>
        <time>1970-01-01T00:43:32.000Z</time>
      </trkpt>
      <trkpt lat="41.085307" lon="-6.729054">
        <ele>602.3</ele>
        <time>1970-01-01T00:43:33.000Z</time>
      </trkpt>
      <trkpt lat="41.085292" lon="-6.729007">
        <ele>602.4</ele>
        <time>1970-01-01T00:43:34.000Z</time>
      </trkpt>
      <trkpt lat="41.085276" lon="-6.728959">
        <ele>602.6</ele>
        <time>1970-01-01T00:43:35.000Z</time>
      </trkpt>
      <trkpt lat="41.085259" lon="-6.728909">
        <ele>602.7</ele>
        <time>1970-01-01T00:43:36.000Z</time>
      </trkpt>
      <trkpt lat="41.085243" lon="-6.728859">
        <ele>602.8</ele>
        <time>1970-01-01T00:43:37.000Z</time>
      </trkpt>
      <trkpt lat="41.085227" lon="-6.728807">
        <ele>603</ele>
        <time>1970-01-01T00:43:38.000Z</time>
      </trkpt>
      <trkpt lat="41.08521" lon="-6.728755">
        <ele>603.1</ele>
        <time>1970-01-01T00:43:39.000Z</time>
      </trkpt>
      <trkpt lat="41.085192" lon="-6.728703">
        <ele>603.2</ele>
        <time>1970-01-01T00:43:40.000Z</time>
      </trkpt>
      <trkpt lat="41.085175" lon="-6.728652">
        <ele>603.3</ele>
        <time>1970-01-01T00:43:41.000Z</time>
      </trkpt>
      <trkpt lat="41.085158" lon="-6.728603">
        <ele>603.5</ele>
        <time>1970-01-01T00:43:42.000Z</time>
      </trkpt>
      <trkpt lat="41.08514" lon="-6.728556">
        <ele>603.6</ele>
        <time>1970-01-01T00:43:43.000Z</time>
      </trkpt>
      <trkpt lat="41.085123" lon="-6.728511">
        <ele>603.7</ele>
        <time>1970-01-01T00:43:44.000Z</time>
      </trkpt>
      <trkpt lat="41.085106" lon="-6.728464">
        <ele>603.8</ele>
        <time>1970-01-01T00:43:45.000Z</time>
      </trkpt>
      <trkpt lat="41.085089" lon="-6.728416">
        <ele>603.9</ele>
        <time>1970-01-01T00:43:46.000Z</time>
      </trkpt>
      <trkpt lat="41.085073" lon="-6.728365">
        <ele>604.1</ele>
        <time>1970-01-01T00:43:47.000Z</time>
      </trkpt>
      <trkpt lat="41.085056" lon="-6.728315">
        <ele>604.2</ele>
        <time>1970-01-01T00:43:48.000Z</time>
      </trkpt>
      <trkpt lat="41.085037" lon="-6.728264">
        <ele>604.3</ele>
        <time>1970-01-01T00:43:49.000Z</time>
      </trkpt>
      <trkpt lat="41.085016" lon="-6.728212">
        <ele>604.5</ele>
        <time>1970-01-01T00:43:50.000Z</time>
      </trkpt>
      <trkpt lat="41.08499" lon="-6.728161">
        <ele>604.6</ele>
        <time>1970-01-01T00:43:51.000Z</time>
      </trkpt>
      <trkpt lat="41.084959" lon="-6.728114">
        <ele>604.8</ele>
        <time>1970-01-01T00:43:52.000Z</time>
      </trkpt>
      <trkpt lat="41.084921" lon="-6.728075">
        <ele>604.9</ele>
        <time>1970-01-01T00:43:53.000Z</time>
      </trkpt>
      <trkpt lat="41.084879" lon="-6.728041">
        <ele>605</ele>
        <time>1970-01-01T00:43:54.000Z</time>
      </trkpt>
      <trkpt lat="41.084834" lon="-6.72801">
        <ele>605.2</ele>
        <time>1970-01-01T00:43:55.000Z</time>
      </trkpt>
      <trkpt lat="41.084789" lon="-6.727979">
        <ele>605.4</ele>
        <time>1970-01-01T00:43:56.000Z</time>
      </trkpt>
      <trkpt lat="41.084746" lon="-6.72795">
        <ele>605.5</ele>
        <time>1970-01-01T00:43:57.000Z</time>
      </trkpt>
      <trkpt lat="41.084705" lon="-6.727922">
        <ele>605.6</ele>
        <time>1970-01-01T00:43:58.000Z</time>
      </trkpt>
      <trkpt lat="41.084665" lon="-6.727896">
        <ele>605.8</ele>
        <time>1970-01-01T00:43:59.000Z</time>
      </trkpt>
      <trkpt lat="41.084627" lon="-6.727871">
        <ele>605.9</ele>
        <time>1970-01-01T00:44:00.000Z</time>
      </trkpt>
      <trkpt lat="41.084589" lon="-6.727846">
        <ele>606</ele>
        <time>1970-01-01T00:44:01.000Z</time>
      </trkpt>
      <trkpt lat="41.084551" lon="-6.727822">
        <ele>606.2</ele>
        <time>1970-01-01T00:44:02.000Z</time>
      </trkpt>
      <trkpt lat="41.084513" lon="-6.727798">
        <ele>606.3</ele>
        <time>1970-01-01T00:44:03.000Z</time>
      </trkpt>
      <trkpt lat="41.084475" lon="-6.727776">
        <ele>606.4</ele>
        <time>1970-01-01T00:44:04.000Z</time>
      </trkpt>
      <trkpt lat="41.084437" lon="-6.727754">
        <ele>606.6</ele>
        <time>1970-01-01T00:44:05.000Z</time>
      </trkpt>
      <trkpt lat="41.0844" lon="-6.727733">
        <ele>606.7</ele>
        <time>1970-01-01T00:44:06.000Z</time>
      </trkpt>
      <trkpt lat="41.084363" lon="-6.727712">
        <ele>606.8</ele>
        <time>1970-01-01T00:44:07.000Z</time>
      </trkpt>
      <trkpt lat="41.084327" lon="-6.72769">
        <ele>606.9</ele>
        <time>1970-01-01T00:44:08.000Z</time>
      </trkpt>
      <trkpt lat="41.084292" lon="-6.727668">
        <ele>607</ele>
        <time>1970-01-01T00:44:09.000Z</time>
      </trkpt>
      <trkpt lat="41.084258" lon="-6.727647">
        <ele>607.2</ele>
        <time>1970-01-01T00:44:10.000Z</time>
      </trkpt>
      <trkpt lat="41.084225" lon="-6.727628">
        <ele>607.3</ele>
        <time>1970-01-01T00:44:11.000Z</time>
      </trkpt>
      <trkpt lat="41.084193" lon="-6.727609">
        <ele>607.4</ele>
        <time>1970-01-01T00:44:12.000Z</time>
      </trkpt>
      <trkpt lat="41.084161" lon="-6.727592">
        <ele>607.5</ele>
        <time>1970-01-01T00:44:13.000Z</time>
      </trkpt>
      <trkpt lat="41.084129" lon="-6.727575">
        <ele>607.6</ele>
        <time>1970-01-01T00:44:14.000Z</time>
      </trkpt>
      <trkpt lat="41.084098" lon="-6.727559">
        <ele>607.7</ele>
        <time>1970-01-01T00:44:15.000Z</time>
      </trkpt>
      <trkpt lat="41.084067" lon="-6.727542">
        <ele>607.8</ele>
        <time>1970-01-01T00:44:16.000Z</time>
      </trkpt>
      <trkpt lat="41.084036" lon="-6.727525">
        <ele>607.9</ele>
        <time>1970-01-01T00:44:17.000Z</time>
      </trkpt>
      <trkpt lat="41.084006" lon="-6.72751">
        <ele>608</ele>
        <time>1970-01-01T00:44:18.000Z</time>
      </trkpt>
      <trkpt lat="41.083977" lon="-6.727496">
        <ele>608.1</ele>
        <time>1970-01-01T00:44:19.000Z</time>
      </trkpt>
      <trkpt lat="41.083948" lon="-6.727484">
        <ele>608.2</ele>
        <time>1970-01-01T00:44:20.000Z</time>
      </trkpt>
      <trkpt lat="41.08392" lon="-6.727473">
        <ele>608.3</ele>
        <time>1970-01-01T00:44:21.000Z</time>
      </trkpt>
      <trkpt lat="41.083892" lon="-6.727461">
        <ele>608.4</ele>
        <time>1970-01-01T00:44:22.000Z</time>
      </trkpt>
      <trkpt lat="41.083864" lon="-6.727449">
        <ele>608.4</ele>
        <time>1970-01-01T00:44:23.000Z</time>
      </trkpt>
      <trkpt lat="41.083838" lon="-6.727437">
        <ele>608.5</ele>
        <time>1970-01-01T00:44:24.000Z</time>
      </trkpt>
      <trkpt lat="41.083811" lon="-6.727426">
        <ele>608.6</ele>
        <time>1970-01-01T00:44:25.000Z</time>
      </trkpt>
      <trkpt lat="41.083785" lon="-6.727416">
        <ele>608.7</ele>
        <time>1970-01-01T00:44:26.000Z</time>
      </trkpt>
      <trkpt lat="41.08376" lon="-6.727405">
        <ele>608.8</ele>
        <time>1970-01-01T00:44:27.000Z</time>
      </trkpt>
      <trkpt lat="41.083734" lon="-6.727394">
        <ele>608.9</ele>
        <time>1970-01-01T00:44:28.000Z</time>
      </trkpt>
      <trkpt lat="41.083708" lon="-6.727383">
        <ele>608.9</ele>
        <time>1970-01-01T00:44:29.000Z</time>
      </trkpt>
      <trkpt lat="41.083682" lon="-6.727372">
        <ele>609</ele>
        <time>1970-01-01T00:44:30.000Z</time>
      </trkpt>
      <trkpt lat="41.083655" lon="-6.727361">
        <ele>609.1</ele>
        <time>1970-01-01T00:44:31.000Z</time>
      </trkpt>
      <trkpt lat="41.08363" lon="-6.72735">
        <ele>609.2</ele>
        <time>1970-01-01T00:44:32.000Z</time>
      </trkpt>
      <trkpt lat="41.083604" lon="-6.727339">
        <ele>609.3</ele>
        <time>1970-01-01T00:44:33.000Z</time>
      </trkpt>
      <trkpt lat="41.083579" lon="-6.727328">
        <ele>609.4</ele>
        <time>1970-01-01T00:44:34.000Z</time>
      </trkpt>
      <trkpt lat="41.083553" lon="-6.727317">
        <ele>609.4</ele>
        <time>1970-01-01T00:44:35.000Z</time>
      </trkpt>
      <trkpt lat="41.083528" lon="-6.727307">
        <ele>609.5</ele>
        <time>1970-01-01T00:44:36.000Z</time>
      </trkpt>
      <trkpt lat="41.083503" lon="-6.727297">
        <ele>609.6</ele>
        <time>1970-01-01T00:44:37.000Z</time>
      </trkpt>
      <trkpt lat="41.083479" lon="-6.727287">
        <ele>609.7</ele>
        <time>1970-01-01T00:44:38.000Z</time>
      </trkpt>
      <trkpt lat="41.083455" lon="-6.727277">
        <ele>609.8</ele>
        <time>1970-01-01T00:44:39.000Z</time>
      </trkpt>
      <trkpt lat="41.083431" lon="-6.727268">
        <ele>609.8</ele>
        <time>1970-01-01T00:44:40.000Z</time>
      </trkpt>
      <trkpt lat="41.083406" lon="-6.727262">
        <ele>609.9</ele>
        <time>1970-01-01T00:44:41.000Z</time>
      </trkpt>
      <trkpt lat="41.083382" lon="-6.727257">
        <ele>610</ele>
        <time>1970-01-01T00:44:42.000Z</time>
      </trkpt>
      <trkpt lat="41.083357" lon="-6.727253">
        <ele>610.1</ele>
        <time>1970-01-01T00:44:43.000Z</time>
      </trkpt>
      <trkpt lat="41.083331" lon="-6.727249">
        <ele>610.1</ele>
        <time>1970-01-01T00:44:44.000Z</time>
      </trkpt>
      <trkpt lat="41.083306" lon="-6.727246">
        <ele>610.2</ele>
        <time>1970-01-01T00:44:45.000Z</time>
      </trkpt>
      <trkpt lat="41.08328" lon="-6.727246">
        <ele>610.3</ele>
        <time>1970-01-01T00:44:46.000Z</time>
      </trkpt>
      <trkpt lat="41.083254" lon="-6.727249">
        <ele>610.4</ele>
        <time>1970-01-01T00:44:47.000Z</time>
      </trkpt>
      <trkpt lat="41.083227" lon="-6.727254">
        <ele>610.5</ele>
        <time>1970-01-01T00:44:48.000Z</time>
      </trkpt>
      <trkpt lat="41.083201" lon="-6.727259">
        <ele>610.5</ele>
        <time>1970-01-01T00:44:49.000Z</time>
      </trkpt>
      <trkpt lat="41.083174" lon="-6.727265">
        <ele>610.6</ele>
        <time>1970-01-01T00:44:50.000Z</time>
      </trkpt>
      <trkpt lat="41.083147" lon="-6.727272">
        <ele>610.7</ele>
        <time>1970-01-01T00:44:51.000Z</time>
      </trkpt>
      <trkpt lat="41.08312" lon="-6.727278">
        <ele>610.8</ele>
        <time>1970-01-01T00:44:52.000Z</time>
      </trkpt>
      <trkpt lat="41.083093" lon="-6.727284">
        <ele>610.9</ele>
        <time>1970-01-01T00:44:53.000Z</time>
      </trkpt>
      <trkpt lat="41.083066" lon="-6.727289">
        <ele>611</ele>
        <time>1970-01-01T00:44:54.000Z</time>
      </trkpt>
      <trkpt lat="41.083039" lon="-6.727294">
        <ele>611</ele>
        <time>1970-01-01T00:44:55.000Z</time>
      </trkpt>
      <trkpt lat="41.083013" lon="-6.727299">
        <ele>611.1</ele>
        <time>1970-01-01T00:44:56.000Z</time>
      </trkpt>
      <trkpt lat="41.082986" lon="-6.727304">
        <ele>611.2</ele>
        <time>1970-01-01T00:44:57.000Z</time>
      </trkpt>
      <trkpt lat="41.082959" lon="-6.727308">
        <ele>611.3</ele>
        <time>1970-01-01T00:44:58.000Z</time>
      </trkpt>
      <trkpt lat="41.082933" lon="-6.727311">
        <ele>611.4</ele>
        <time>1970-01-01T00:44:59.000Z</time>
      </trkpt>
      <trkpt lat="41.082906" lon="-6.727312">
        <ele>611.5</ele>
        <time>1970-01-01T00:45:00.000Z</time>
      </trkpt>
      <trkpt lat="41.082879" lon="-6.727312">
        <ele>611.5</ele>
        <time>1970-01-01T00:45:01.000Z</time>
      </trkpt>
      <trkpt lat="41.082852" lon="-6.727314">
        <ele>611.6</ele>
        <time>1970-01-01T00:45:02.000Z</time>
      </trkpt>
      <trkpt lat="41.082824" lon="-6.727316">
        <ele>611.7</ele>
        <time>1970-01-01T00:45:03.000Z</time>
      </trkpt>
      <trkpt lat="41.082795" lon="-6.72732">
        <ele>611.8</ele>
        <time>1970-01-01T00:45:04.000Z</time>
      </trkpt>
      <trkpt lat="41.082766" lon="-6.727321">
        <ele>611.9</ele>
        <time>1970-01-01T00:45:05.000Z</time>
      </trkpt>
      <trkpt lat="41.082737" lon="-6.727323">
        <ele>612</ele>
        <time>1970-01-01T00:45:06.000Z</time>
      </trkpt>
      <trkpt lat="41.082708" lon="-6.727324">
        <ele>612.1</ele>
        <time>1970-01-01T00:45:07.000Z</time>
      </trkpt>
      <trkpt lat="41.082679" lon="-6.727326">
        <ele>612.1</ele>
        <time>1970-01-01T00:45:08.000Z</time>
      </trkpt>
      <trkpt lat="41.082651" lon="-6.727329">
        <ele>612.2</ele>
        <time>1970-01-01T00:45:09.000Z</time>
      </trkpt>
      <trkpt lat="41.082623" lon="-6.727332">
        <ele>612.3</ele>
        <time>1970-01-01T00:45:10.000Z</time>
      </trkpt>
      <trkpt lat="41.082594" lon="-6.727336">
        <ele>612.4</ele>
        <time>1970-01-01T00:45:11.000Z</time>
      </trkpt>
      <trkpt lat="41.082563" lon="-6.727338">
        <ele>612.5</ele>
        <time>1970-01-01T00:45:12.000Z</time>
      </trkpt>
      <trkpt lat="41.08253" lon="-6.72734">
        <ele>612.6</ele>
        <time>1970-01-01T00:45:13.000Z</time>
      </trkpt>
      <trkpt lat="41.082499" lon="-6.727341">
        <ele>612.7</ele>
        <time>1970-01-01T00:45:14.000Z</time>
      </trkpt>
      <trkpt lat="41.082467" lon="-6.727343">
        <ele>612.8</ele>
        <time>1970-01-01T00:45:15.000Z</time>
      </trkpt>
      <trkpt lat="41.082437" lon="-6.727341">
        <ele>612.9</ele>
        <time>1970-01-01T00:45:16.000Z</time>
      </trkpt>
      <trkpt lat="41.082407" lon="-6.727336">
        <ele>613</ele>
        <time>1970-01-01T00:45:17.000Z</time>
      </trkpt>
      <trkpt lat="41.082377" lon="-6.727328">
        <ele>613.1</ele>
        <time>1970-01-01T00:45:18.000Z</time>
      </trkpt>
      <trkpt lat="41.082347" lon="-6.727317">
        <ele>613.2</ele>
        <time>1970-01-01T00:45:19.000Z</time>
      </trkpt>
      <trkpt lat="41.082318" lon="-6.727301">
        <ele>613.3</ele>
        <time>1970-01-01T00:45:20.000Z</time>
      </trkpt>
      <trkpt lat="41.08229" lon="-6.727281">
        <ele>613.4</ele>
        <time>1970-01-01T00:45:21.000Z</time>
      </trkpt>
      <trkpt lat="41.082266" lon="-6.727255">
        <ele>613.5</ele>
        <time>1970-01-01T00:45:22.000Z</time>
      </trkpt>
      <trkpt lat="41.082243" lon="-6.727227">
        <ele>613.6</ele>
        <time>1970-01-01T00:45:23.000Z</time>
      </trkpt>
      <trkpt lat="41.08222" lon="-6.727198">
        <ele>613.7</ele>
        <time>1970-01-01T00:45:24.000Z</time>
      </trkpt>
      <trkpt lat="41.082195" lon="-6.727168">
        <ele>613.8</ele>
        <time>1970-01-01T00:45:25.000Z</time>
      </trkpt>
      <trkpt lat="41.08217" lon="-6.727136">
        <ele>613.9</ele>
        <time>1970-01-01T00:45:26.000Z</time>
      </trkpt>
      <trkpt lat="41.082145" lon="-6.727103">
        <ele>614</ele>
        <time>1970-01-01T00:45:27.000Z</time>
      </trkpt>
      <trkpt lat="41.082122" lon="-6.727071">
        <ele>614.1</ele>
        <time>1970-01-01T00:45:28.000Z</time>
      </trkpt>
      <trkpt lat="41.082099" lon="-6.727038">
        <ele>614.2</ele>
        <time>1970-01-01T00:45:29.000Z</time>
      </trkpt>
      <trkpt lat="41.082075" lon="-6.727007">
        <ele>614.3</ele>
        <time>1970-01-01T00:45:30.000Z</time>
      </trkpt>
      <trkpt lat="41.08205" lon="-6.726973">
        <ele>614.4</ele>
        <time>1970-01-01T00:45:31.000Z</time>
      </trkpt>
      <trkpt lat="41.082026" lon="-6.72694">
        <ele>614.5</ele>
        <time>1970-01-01T00:45:32.000Z</time>
      </trkpt>
      <trkpt lat="41.082001" lon="-6.726907">
        <ele>614.6</ele>
        <time>1970-01-01T00:45:33.000Z</time>
      </trkpt>
      <trkpt lat="41.081974" lon="-6.726874">
        <ele>614.7</ele>
        <time>1970-01-01T00:45:34.000Z</time>
      </trkpt>
      <trkpt lat="41.081948" lon="-6.726841">
        <ele>614.8</ele>
        <time>1970-01-01T00:45:35.000Z</time>
      </trkpt>
      <trkpt lat="41.081921" lon="-6.726807">
        <ele>614.9</ele>
        <time>1970-01-01T00:45:36.000Z</time>
      </trkpt>
      <trkpt lat="41.081896" lon="-6.726773">
        <ele>615</ele>
        <time>1970-01-01T00:45:37.000Z</time>
      </trkpt>
      <trkpt lat="41.08187" lon="-6.726738">
        <ele>615.2</ele>
        <time>1970-01-01T00:45:38.000Z</time>
      </trkpt>
      <trkpt lat="41.081844" lon="-6.726704">
        <ele>615.3</ele>
        <time>1970-01-01T00:45:39.000Z</time>
      </trkpt>
      <trkpt lat="41.081818" lon="-6.726668">
        <ele>615.4</ele>
        <time>1970-01-01T00:45:40.000Z</time>
      </trkpt>
      <trkpt lat="41.081792" lon="-6.726631">
        <ele>615.5</ele>
        <time>1970-01-01T00:45:41.000Z</time>
      </trkpt>
      <trkpt lat="41.081766" lon="-6.726593">
        <ele>615.6</ele>
        <time>1970-01-01T00:45:42.000Z</time>
      </trkpt>
      <trkpt lat="41.08174" lon="-6.726554">
        <ele>615.7</ele>
        <time>1970-01-01T00:45:43.000Z</time>
      </trkpt>
      <trkpt lat="41.081714" lon="-6.726516">
        <ele>615.9</ele>
        <time>1970-01-01T00:45:44.000Z</time>
      </trkpt>
      <trkpt lat="41.081689" lon="-6.726479">
        <ele>616</ele>
        <time>1970-01-01T00:45:45.000Z</time>
      </trkpt>
      <trkpt lat="41.081664" lon="-6.726443">
        <ele>616.1</ele>
        <time>1970-01-01T00:45:46.000Z</time>
      </trkpt>
      <trkpt lat="41.081638" lon="-6.726407">
        <ele>616.2</ele>
        <time>1970-01-01T00:45:47.000Z</time>
      </trkpt>
      <trkpt lat="41.081612" lon="-6.726372">
        <ele>616.3</ele>
        <time>1970-01-01T00:45:48.000Z</time>
      </trkpt>
      <trkpt lat="41.081584" lon="-6.726335">
        <ele>616.4</ele>
        <time>1970-01-01T00:45:49.000Z</time>
      </trkpt>
      <trkpt lat="41.081556" lon="-6.726295">
        <ele>616.6</ele>
        <time>1970-01-01T00:45:50.000Z</time>
      </trkpt>
      <trkpt lat="41.081528" lon="-6.726254">
        <ele>616.7</ele>
        <time>1970-01-01T00:45:51.000Z</time>
      </trkpt>
      <trkpt lat="41.0815" lon="-6.726212">
        <ele>616.8</ele>
        <time>1970-01-01T00:45:52.000Z</time>
      </trkpt>
      <trkpt lat="41.081473" lon="-6.726172">
        <ele>616.9</ele>
        <time>1970-01-01T00:45:53.000Z</time>
      </trkpt>
      <trkpt lat="41.081447" lon="-6.726133">
        <ele>617.1</ele>
        <time>1970-01-01T00:45:54.000Z</time>
      </trkpt>
      <trkpt lat="41.081421" lon="-6.726094">
        <ele>617.2</ele>
        <time>1970-01-01T00:45:55.000Z</time>
      </trkpt>
      <trkpt lat="41.081393" lon="-6.726055">
        <ele>617.3</ele>
        <time>1970-01-01T00:45:56.000Z</time>
      </trkpt>
      <trkpt lat="41.081365" lon="-6.726015">
        <ele>617.4</ele>
        <time>1970-01-01T00:45:57.000Z</time>
      </trkpt>
      <trkpt lat="41.081337" lon="-6.725977">
        <ele>617.6</ele>
        <time>1970-01-01T00:45:58.000Z</time>
      </trkpt>
      <trkpt lat="41.081307" lon="-6.725944">
        <ele>617.7</ele>
        <time>1970-01-01T00:45:59.000Z</time>
      </trkpt>
      <trkpt lat="41.081276" lon="-6.725921">
        <ele>617.8</ele>
        <time>1970-01-01T00:46:00.000Z</time>
      </trkpt>
      <trkpt lat="41.081244" lon="-6.72591">
        <ele>617.8</ele>
        <time>1970-01-01T00:46:01.000Z</time>
      </trkpt>
      <trkpt lat="41.081211" lon="-6.725909">
        <ele>617.7</ele>
        <time>1970-01-01T00:46:02.000Z</time>
      </trkpt>
      <trkpt lat="41.081177" lon="-6.725916">
        <ele>617.6</ele>
        <time>1970-01-01T00:46:03.000Z</time>
      </trkpt>
      <trkpt lat="41.081142" lon="-6.725929">
        <ele>617.6</ele>
        <time>1970-01-01T00:46:04.000Z</time>
      </trkpt>
      <trkpt lat="41.081106" lon="-6.725942">
        <ele>617.5</ele>
        <time>1970-01-01T00:46:05.000Z</time>
      </trkpt>
      <trkpt lat="41.081068" lon="-6.725954">
        <ele>617.5</ele>
        <time>1970-01-01T00:46:06.000Z</time>
      </trkpt>
      <trkpt lat="41.081031" lon="-6.725966">
        <ele>617.4</ele>
        <time>1970-01-01T00:46:07.000Z</time>
      </trkpt>
      <trkpt lat="41.080993" lon="-6.725979">
        <ele>617.4</ele>
        <time>1970-01-01T00:46:08.000Z</time>
      </trkpt>
      <trkpt lat="41.080955" lon="-6.725992">
        <ele>617.4</ele>
        <time>1970-01-01T00:46:09.000Z</time>
      </trkpt>
      <trkpt lat="41.080918" lon="-6.726004">
        <ele>617.3</ele>
        <time>1970-01-01T00:46:10.000Z</time>
      </trkpt>
      <trkpt lat="41.08088" lon="-6.726017">
        <ele>617.3</ele>
        <time>1970-01-01T00:46:11.000Z</time>
      </trkpt>
      <trkpt lat="41.080843" lon="-6.726029">
        <ele>617.3</ele>
        <time>1970-01-01T00:46:12.000Z</time>
      </trkpt>
      <trkpt lat="41.080806" lon="-6.726041">
        <ele>617.2</ele>
        <time>1970-01-01T00:46:13.000Z</time>
      </trkpt>
      <trkpt lat="41.080769" lon="-6.726055">
        <ele>617.1</ele>
        <time>1970-01-01T00:46:14.000Z</time>
      </trkpt>
      <trkpt lat="41.080731" lon="-6.726069">
        <ele>617</ele>
        <time>1970-01-01T00:46:15.000Z</time>
      </trkpt>
      <trkpt lat="41.080694" lon="-6.726084">
        <ele>616.9</ele>
        <time>1970-01-01T00:46:16.000Z</time>
      </trkpt>
      <trkpt lat="41.080657" lon="-6.7261">
        <ele>617.1</ele>
        <time>1970-01-01T00:46:17.000Z</time>
      </trkpt>
      <trkpt lat="41.080621" lon="-6.726115">
        <ele>617.3</ele>
        <time>1970-01-01T00:46:18.000Z</time>
      </trkpt>
      <trkpt lat="41.080585" lon="-6.72613">
        <ele>617.4</ele>
        <time>1970-01-01T00:46:19.000Z</time>
      </trkpt>
      <trkpt lat="41.080549" lon="-6.726145">
        <ele>617.5</ele>
        <time>1970-01-01T00:46:20.000Z</time>
      </trkpt>
      <trkpt lat="41.080513" lon="-6.72616">
        <ele>617.6</ele>
        <time>1970-01-01T00:46:21.000Z</time>
      </trkpt>
      <trkpt lat="41.080478" lon="-6.726175">
        <ele>617.7</ele>
        <time>1970-01-01T00:46:22.000Z</time>
      </trkpt>
      <trkpt lat="41.080442" lon="-6.72619">
        <ele>617.8</ele>
        <time>1970-01-01T00:46:23.000Z</time>
      </trkpt>
      <trkpt lat="41.080405" lon="-6.726206">
        <ele>617.9</ele>
        <time>1970-01-01T00:46:24.000Z</time>
      </trkpt>
      <trkpt lat="41.080369" lon="-6.726222">
        <ele>618</ele>
        <time>1970-01-01T00:46:25.000Z</time>
      </trkpt>
      <trkpt lat="41.080333" lon="-6.726239">
        <ele>618.1</ele>
        <time>1970-01-01T00:46:26.000Z</time>
      </trkpt>
      <trkpt lat="41.080298" lon="-6.726256">
        <ele>618.3</ele>
        <time>1970-01-01T00:46:27.000Z</time>
      </trkpt>
      <trkpt lat="41.080262" lon="-6.726273">
        <ele>618.4</ele>
        <time>1970-01-01T00:46:28.000Z</time>
      </trkpt>
      <trkpt lat="41.080225" lon="-6.726288">
        <ele>618.6</ele>
        <time>1970-01-01T00:46:29.000Z</time>
      </trkpt>
      <trkpt lat="41.080188" lon="-6.726303">
        <ele>618.7</ele>
        <time>1970-01-01T00:46:30.000Z</time>
      </trkpt>
      <trkpt lat="41.08015" lon="-6.726316">
        <ele>618.8</ele>
        <time>1970-01-01T00:46:31.000Z</time>
      </trkpt>
      <trkpt lat="41.080114" lon="-6.72633">
        <ele>618.9</ele>
        <time>1970-01-01T00:46:32.000Z</time>
      </trkpt>
      <trkpt lat="41.080077" lon="-6.726343">
        <ele>619</ele>
        <time>1970-01-01T00:46:33.000Z</time>
      </trkpt>
      <trkpt lat="41.080043" lon="-6.726355">
        <ele>619</ele>
        <time>1970-01-01T00:46:34.000Z</time>
      </trkpt>
      <trkpt lat="41.080007" lon="-6.726364">
        <ele>619</ele>
        <time>1970-01-01T00:46:35.000Z</time>
      </trkpt>
      <trkpt lat="41.079971" lon="-6.726373">
        <ele>619</ele>
        <time>1970-01-01T00:46:36.000Z</time>
      </trkpt>
      <trkpt lat="41.079933" lon="-6.726383">
        <ele>619</ele>
        <time>1970-01-01T00:46:37.000Z</time>
      </trkpt>
      <trkpt lat="41.079895" lon="-6.726393">
        <ele>618.9</ele>
        <time>1970-01-01T00:46:38.000Z</time>
      </trkpt>
      <trkpt lat="41.079855" lon="-6.726401">
        <ele>618.7</ele>
        <time>1970-01-01T00:46:39.000Z</time>
      </trkpt>
      <trkpt lat="41.079813" lon="-6.726406">
        <ele>618.5</ele>
        <time>1970-01-01T00:46:40.000Z</time>
      </trkpt>
      <trkpt lat="41.079769" lon="-6.726408">
        <ele>618.6</ele>
        <time>1970-01-01T00:46:41.000Z</time>
      </trkpt>
      <trkpt lat="41.079724" lon="-6.726407">
        <ele>618.6</ele>
        <time>1970-01-01T00:46:42.000Z</time>
      </trkpt>
      <trkpt lat="41.079677" lon="-6.7264">
        <ele>618.6</ele>
        <time>1970-01-01T00:46:43.000Z</time>
      </trkpt>
      <trkpt lat="41.079627" lon="-6.726385">
        <ele>618.5</ele>
        <time>1970-01-01T00:46:44.000Z</time>
      </trkpt>
      <trkpt lat="41.079575" lon="-6.72636">
        <ele>618.3</ele>
        <time>1970-01-01T00:46:45.000Z</time>
      </trkpt>
      <trkpt lat="41.079522" lon="-6.726328">
        <ele>618</ele>
        <time>1970-01-01T00:46:46.000Z</time>
      </trkpt>
      <trkpt lat="41.079469" lon="-6.726292">
        <ele>617.7</ele>
        <time>1970-01-01T00:46:47.000Z</time>
      </trkpt>
      <trkpt lat="41.079413" lon="-6.726256">
        <ele>617.3</ele>
        <time>1970-01-01T00:46:48.000Z</time>
      </trkpt>
      <trkpt lat="41.079352" lon="-6.726221">
        <ele>617</ele>
        <time>1970-01-01T00:46:49.000Z</time>
      </trkpt>
      <trkpt lat="41.079287" lon="-6.72619">
        <ele>616.6</ele>
        <time>1970-01-01T00:46:50.000Z</time>
      </trkpt>
      <trkpt lat="41.079219" lon="-6.726166">
        <ele>616.1</ele>
        <time>1970-01-01T00:46:51.000Z</time>
      </trkpt>
      <trkpt lat="41.079147" lon="-6.726147">
        <ele>615.8</ele>
        <time>1970-01-01T00:46:52.000Z</time>
      </trkpt>
      <trkpt lat="41.079072" lon="-6.726136">
        <ele>615.4</ele>
        <time>1970-01-01T00:46:53.000Z</time>
      </trkpt>
      <trkpt lat="41.078997" lon="-6.726129">
        <ele>615.1</ele>
        <time>1970-01-01T00:46:54.000Z</time>
      </trkpt>
      <trkpt lat="41.078921" lon="-6.726126">
        <ele>614.7</ele>
        <time>1970-01-01T00:46:55.000Z</time>
      </trkpt>
      <trkpt lat="41.078846" lon="-6.726126">
        <ele>614.4</ele>
        <time>1970-01-01T00:46:56.000Z</time>
      </trkpt>
      <trkpt lat="41.078772" lon="-6.72613">
        <ele>614</ele>
        <time>1970-01-01T00:46:57.000Z</time>
      </trkpt>
      <trkpt lat="41.078697" lon="-6.726136">
        <ele>613.6</ele>
        <time>1970-01-01T00:46:58.000Z</time>
      </trkpt>
      <trkpt lat="41.078622" lon="-6.726142">
        <ele>613.3</ele>
        <time>1970-01-01T00:46:59.000Z</time>
      </trkpt>
      <trkpt lat="41.078547" lon="-6.726146">
        <ele>613.1</ele>
        <time>1970-01-01T00:47:00.000Z</time>
      </trkpt>
      <trkpt lat="41.078475" lon="-6.726148">
        <ele>613</ele>
        <time>1970-01-01T00:47:01.000Z</time>
      </trkpt>
      <trkpt lat="41.078404" lon="-6.726148">
        <ele>612.8</ele>
        <time>1970-01-01T00:47:02.000Z</time>
      </trkpt>
      <trkpt lat="41.078336" lon="-6.726148">
        <ele>612.7</ele>
        <time>1970-01-01T00:47:03.000Z</time>
      </trkpt>
      <trkpt lat="41.07827" lon="-6.726152">
        <ele>612.6</ele>
        <time>1970-01-01T00:47:04.000Z</time>
      </trkpt>
      <trkpt lat="41.078203" lon="-6.72616">
        <ele>612.6</ele>
        <time>1970-01-01T00:47:05.000Z</time>
      </trkpt>
      <trkpt lat="41.078138" lon="-6.726172">
        <ele>612.5</ele>
        <time>1970-01-01T00:47:06.000Z</time>
      </trkpt>
      <trkpt lat="41.078074" lon="-6.726186">
        <ele>612.4</ele>
        <time>1970-01-01T00:47:07.000Z</time>
      </trkpt>
      <trkpt lat="41.078014" lon="-6.726204">
        <ele>612.3</ele>
        <time>1970-01-01T00:47:08.000Z</time>
      </trkpt>
      <trkpt lat="41.077956" lon="-6.726224">
        <ele>612.3</ele>
        <time>1970-01-01T00:47:09.000Z</time>
      </trkpt>
      <trkpt lat="41.077901" lon="-6.726248">
        <ele>612.3</ele>
        <time>1970-01-01T00:47:10.000Z</time>
      </trkpt>
      <trkpt lat="41.077848" lon="-6.726274">
        <ele>612.4</ele>
        <time>1970-01-01T00:47:11.000Z</time>
      </trkpt>
      <trkpt lat="41.077796" lon="-6.726303">
        <ele>612.4</ele>
        <time>1970-01-01T00:47:12.000Z</time>
      </trkpt>
      <trkpt lat="41.077747" lon="-6.726334">
        <ele>612.4</ele>
        <time>1970-01-01T00:47:13.000Z</time>
      </trkpt>
      <trkpt lat="41.0777" lon="-6.726369">
        <ele>612.5</ele>
        <time>1970-01-01T00:47:14.000Z</time>
      </trkpt>
      <trkpt lat="41.077656" lon="-6.726406">
        <ele>612.5</ele>
        <time>1970-01-01T00:47:15.000Z</time>
      </trkpt>
      <trkpt lat="41.077614" lon="-6.726446">
        <ele>612.5</ele>
        <time>1970-01-01T00:47:16.000Z</time>
      </trkpt>
      <trkpt lat="41.077573" lon="-6.726487">
        <ele>612.5</ele>
        <time>1970-01-01T00:47:17.000Z</time>
      </trkpt>
      <trkpt lat="41.077533" lon="-6.726531">
        <ele>612.4</ele>
        <time>1970-01-01T00:47:18.000Z</time>
      </trkpt>
      <trkpt lat="41.077494" lon="-6.726579">
        <ele>612.3</ele>
        <time>1970-01-01T00:47:19.000Z</time>
      </trkpt>
      <trkpt lat="41.077456" lon="-6.726632">
        <ele>612.2</ele>
        <time>1970-01-01T00:47:20.000Z</time>
      </trkpt>
      <trkpt lat="41.077417" lon="-6.726683">
        <ele>612</ele>
        <time>1970-01-01T00:47:21.000Z</time>
      </trkpt>
      <trkpt lat="41.077375" lon="-6.72673">
        <ele>611.9</ele>
        <time>1970-01-01T00:47:22.000Z</time>
      </trkpt>
      <trkpt lat="41.077331" lon="-6.726772">
        <ele>611.8</ele>
        <time>1970-01-01T00:47:23.000Z</time>
      </trkpt>
      <trkpt lat="41.077286" lon="-6.726814">
        <ele>611.8</ele>
        <time>1970-01-01T00:47:24.000Z</time>
      </trkpt>
      <trkpt lat="41.07724" lon="-6.726857">
        <ele>611.7</ele>
        <time>1970-01-01T00:47:25.000Z</time>
      </trkpt>
      <trkpt lat="41.077194" lon="-6.7269">
        <ele>611.8</ele>
        <time>1970-01-01T00:47:26.000Z</time>
      </trkpt>
      <trkpt lat="41.077146" lon="-6.726942">
        <ele>611.8</ele>
        <time>1970-01-01T00:47:27.000Z</time>
      </trkpt>
      <trkpt lat="41.077098" lon="-6.726987">
        <ele>611.8</ele>
        <time>1970-01-01T00:47:28.000Z</time>
      </trkpt>
      <trkpt lat="41.07705" lon="-6.727038">
        <ele>611.7</ele>
        <time>1970-01-01T00:47:29.000Z</time>
      </trkpt>
      <trkpt lat="41.077005" lon="-6.727096">
        <ele>611.6</ele>
        <time>1970-01-01T00:47:30.000Z</time>
      </trkpt>
      <trkpt lat="41.076962" lon="-6.72716">
        <ele>611.4</ele>
        <time>1970-01-01T00:47:31.000Z</time>
      </trkpt>
      <trkpt lat="41.076922" lon="-6.727227">
        <ele>611.1</ele>
        <time>1970-01-01T00:47:32.000Z</time>
      </trkpt>
      <trkpt lat="41.076881" lon="-6.727295">
        <ele>610.8</ele>
        <time>1970-01-01T00:47:33.000Z</time>
      </trkpt>
      <trkpt lat="41.076839" lon="-6.72736">
        <ele>610.4</ele>
        <time>1970-01-01T00:47:34.000Z</time>
      </trkpt>
      <trkpt lat="41.076793" lon="-6.727421">
        <ele>610</ele>
        <time>1970-01-01T00:47:35.000Z</time>
      </trkpt>
      <trkpt lat="41.076741" lon="-6.727477">
        <ele>609.5</ele>
        <time>1970-01-01T00:47:36.000Z</time>
      </trkpt>
      <trkpt lat="41.076682" lon="-6.727531">
        <ele>609.1</ele>
        <time>1970-01-01T00:47:37.000Z</time>
      </trkpt>
      <trkpt lat="41.076618" lon="-6.727583">
        <ele>608.6</ele>
        <time>1970-01-01T00:47:38.000Z</time>
      </trkpt>
      <trkpt lat="41.076547" lon="-6.727631">
        <ele>608.1</ele>
        <time>1970-01-01T00:47:39.000Z</time>
      </trkpt>
      <trkpt lat="41.07647" lon="-6.72768">
        <ele>607.5</ele>
        <time>1970-01-01T00:47:40.000Z</time>
      </trkpt>
      <trkpt lat="41.076388" lon="-6.727728">
        <ele>606.8</ele>
        <time>1970-01-01T00:47:41.000Z</time>
      </trkpt>
      <trkpt lat="41.0763" lon="-6.727775">
        <ele>606</ele>
        <time>1970-01-01T00:47:42.000Z</time>
      </trkpt>
      <trkpt lat="41.076207" lon="-6.727822">
        <ele>605</ele>
        <time>1970-01-01T00:47:43.000Z</time>
      </trkpt>
      <trkpt lat="41.076106" lon="-6.727868">
        <ele>603.9</ele>
        <time>1970-01-01T00:47:44.000Z</time>
      </trkpt>
      <trkpt lat="41.076001" lon="-6.727916">
        <ele>602.5</ele>
        <time>1970-01-01T00:47:45.000Z</time>
      </trkpt>
      <trkpt lat="41.075893" lon="-6.727967">
        <ele>601.6</ele>
        <time>1970-01-01T00:47:46.000Z</time>
      </trkpt>
      <trkpt lat="41.075786" lon="-6.728023">
        <ele>601.3</ele>
        <time>1970-01-01T00:47:47.000Z</time>
      </trkpt>
      <trkpt lat="41.075684" lon="-6.728083">
        <ele>600.9</ele>
        <time>1970-01-01T00:47:48.000Z</time>
      </trkpt>
      <trkpt lat="41.075586" lon="-6.72815">
        <ele>600.5</ele>
        <time>1970-01-01T00:47:49.000Z</time>
      </trkpt>
      <trkpt lat="41.075492" lon="-6.728221">
        <ele>600.2</ele>
        <time>1970-01-01T00:47:50.000Z</time>
      </trkpt>
      <trkpt lat="41.075402" lon="-6.728297">
        <ele>599.9</ele>
        <time>1970-01-01T00:47:51.000Z</time>
      </trkpt>
      <trkpt lat="41.075313" lon="-6.728374">
        <ele>599.5</ele>
        <time>1970-01-01T00:47:52.000Z</time>
      </trkpt>
      <trkpt lat="41.075223" lon="-6.728453">
        <ele>599.2</ele>
        <time>1970-01-01T00:47:53.000Z</time>
      </trkpt>
      <trkpt lat="41.075132" lon="-6.728533">
        <ele>598.8</ele>
        <time>1970-01-01T00:47:54.000Z</time>
      </trkpt>
      <trkpt lat="41.075038" lon="-6.728613">
        <ele>598.5</ele>
        <time>1970-01-01T00:47:55.000Z</time>
      </trkpt>
      <trkpt lat="41.07494" lon="-6.728692">
        <ele>598.1</ele>
        <time>1970-01-01T00:47:56.000Z</time>
      </trkpt>
      <trkpt lat="41.074841" lon="-6.728774">
        <ele>597.7</ele>
        <time>1970-01-01T00:47:57.000Z</time>
      </trkpt>
      <trkpt lat="41.074746" lon="-6.72886">
        <ele>597.3</ele>
        <time>1970-01-01T00:47:58.000Z</time>
      </trkpt>
      <trkpt lat="41.074666" lon="-6.72894">
        <ele>597</ele>
        <time>1970-01-01T00:47:59.000Z</time>
      </trkpt>
      <trkpt lat="41.074602" lon="-6.729006">
        <ele>596.8</ele>
        <time>1970-01-01T00:48:00.000Z</time>
      </trkpt>
      <trkpt lat="41.074558" lon="-6.729047">
        <ele>596.6</ele>
        <time>1970-01-01T00:48:01.000Z</time>
      </trkpt>
      <trkpt lat="41.074528" lon="-6.72907">
        <ele>596.5</ele>
        <time>1970-01-01T00:48:02.000Z</time>
      </trkpt>
      <trkpt lat="41.074512" lon="-6.729079">
        <ele>596.4</ele>
        <time>1970-01-01T00:48:03.000Z</time>
      </trkpt>
      <trkpt lat="41.074422" lon="-6.729398">
        <ele>595.6</ele>
        <time>1970-01-01T00:48:04.000Z</time>
      </trkpt>
      <trkpt lat="41.074387" lon="-6.729428">
        <ele>595.5</ele>
        <time>1970-01-01T00:48:05.000Z</time>
      </trkpt>
      <trkpt lat="41.074351" lon="-6.729455">
        <ele>595.3</ele>
        <time>1970-01-01T00:48:38.000Z</time>
      </trkpt>
      <trkpt lat="41.074318" lon="-6.729484">
        <ele>595.2</ele>
        <time>1970-01-01T00:48:39.000Z</time>
      </trkpt>
      <trkpt lat="41.074289" lon="-6.729518">
        <ele>595.1</ele>
        <time>1970-01-01T00:48:40.000Z</time>
      </trkpt>
      <trkpt lat="41.074265" lon="-6.72956">
        <ele>595</ele>
        <time>1970-01-01T00:48:41.000Z</time>
      </trkpt>
      <trkpt lat="41.074247" lon="-6.729609">
        <ele>594.8</ele>
        <time>1970-01-01T00:48:42.000Z</time>
      </trkpt>
      <trkpt lat="41.074232" lon="-6.729663">
        <ele>594.7</ele>
        <time>1970-01-01T00:48:43.000Z</time>
      </trkpt>
      <trkpt lat="41.074221" lon="-6.729718">
        <ele>594.5</ele>
        <time>1970-01-01T00:48:44.000Z</time>
      </trkpt>
      <trkpt lat="41.074208" lon="-6.729773">
        <ele>594.4</ele>
        <time>1970-01-01T00:48:45.000Z</time>
      </trkpt>
      <trkpt lat="41.074193" lon="-6.729826">
        <ele>594.3</ele>
        <time>1970-01-01T00:48:46.000Z</time>
      </trkpt>
      <trkpt lat="41.074173" lon="-6.729878">
        <ele>594.1</ele>
        <time>1970-01-01T00:48:47.000Z</time>
      </trkpt>
      <trkpt lat="41.074148" lon="-6.729927">
        <ele>594</ele>
        <time>1970-01-01T00:48:48.000Z</time>
      </trkpt>
      <trkpt lat="41.074121" lon="-6.729973">
        <ele>593.8</ele>
        <time>1970-01-01T00:48:49.000Z</time>
      </trkpt>
      <trkpt lat="41.074093" lon="-6.730015">
        <ele>593.7</ele>
        <time>1970-01-01T00:48:50.000Z</time>
      </trkpt>
      <trkpt lat="41.074067" lon="-6.730054">
        <ele>593.6</ele>
        <time>1970-01-01T00:48:51.000Z</time>
      </trkpt>
      <trkpt lat="41.07404" lon="-6.730092">
        <ele>593.5</ele>
        <time>1970-01-01T00:48:52.000Z</time>
      </trkpt>
      <trkpt lat="41.074014" lon="-6.730129">
        <ele>593.3</ele>
        <time>1970-01-01T00:48:53.000Z</time>
      </trkpt>
      <trkpt lat="41.073987" lon="-6.730168">
        <ele>593.2</ele>
        <time>1970-01-01T00:48:54.000Z</time>
      </trkpt>
      <trkpt lat="41.07396" lon="-6.730208">
        <ele>593.1</ele>
        <time>1970-01-01T00:48:55.000Z</time>
      </trkpt>
      <trkpt lat="41.073936" lon="-6.730248">
        <ele>592.9</ele>
        <time>1970-01-01T00:48:56.000Z</time>
      </trkpt>
      <trkpt lat="41.073915" lon="-6.730289">
        <ele>592.8</ele>
        <time>1970-01-01T00:48:57.000Z</time>
      </trkpt>
      <trkpt lat="41.073897" lon="-6.730332">
        <ele>592.7</ele>
        <time>1970-01-01T00:48:58.000Z</time>
      </trkpt>
      <trkpt lat="41.073885" lon="-6.730376">
        <ele>592.6</ele>
        <time>1970-01-01T00:48:59.000Z</time>
      </trkpt>
      <trkpt lat="41.07388" lon="-6.730414">
        <ele>592.5</ele>
        <time>1970-01-01T00:49:00.000Z</time>
      </trkpt>
      <trkpt lat="41.073881" lon="-6.730447">
        <ele>592.4</ele>
        <time>1970-01-01T00:49:01.000Z</time>
      </trkpt>
      <trkpt lat="41.073882" lon="-6.730478">
        <ele>592.3</ele>
        <time>1970-01-01T00:49:02.000Z</time>
      </trkpt>
      <trkpt lat="41.073881" lon="-6.730515">
        <ele>592.3</ele>
        <time>1970-01-01T00:49:03.000Z</time>
      </trkpt>
      <trkpt lat="41.073881" lon="-6.730553">
        <ele>592.2</ele>
        <time>1970-01-01T00:49:04.000Z</time>
      </trkpt>
      <trkpt lat="41.073883" lon="-6.730588">
        <ele>592.1</ele>
        <time>1970-01-01T00:49:05.000Z</time>
      </trkpt>
      <trkpt lat="41.073885" lon="-6.730617">
        <ele>592</ele>
        <time>1970-01-01T00:49:06.000Z</time>
      </trkpt>
      <trkpt lat="41.073887" lon="-6.73064">
        <ele>592</ele>
        <time>1970-01-01T00:49:07.000Z</time>
      </trkpt>
      <trkpt lat="41.073888" lon="-6.73066">
        <ele>591.9</ele>
        <time>1970-01-01T00:49:08.000Z</time>
      </trkpt>
      <trkpt lat="41.073889" lon="-6.73068">
        <ele>591.9</ele>
        <time>1970-01-01T00:49:09.000Z</time>
      </trkpt>
      <trkpt lat="41.073891" lon="-6.7307">
        <ele>591.8</ele>
        <time>1970-01-01T00:49:10.000Z</time>
      </trkpt>
      <trkpt lat="41.073892" lon="-6.730723">
        <ele>591.8</ele>
        <time>1970-01-01T00:49:11.000Z</time>
      </trkpt>
      <trkpt lat="41.073893" lon="-6.730748">
        <ele>591.7</ele>
        <time>1970-01-01T00:49:12.000Z</time>
      </trkpt>
      <trkpt lat="41.073895" lon="-6.730774">
        <ele>591.6</ele>
        <time>1970-01-01T00:49:13.000Z</time>
      </trkpt>
      <trkpt lat="41.073897" lon="-6.7308">
        <ele>591.6</ele>
        <time>1970-01-01T00:49:14.000Z</time>
      </trkpt>
      <trkpt lat="41.073899" lon="-6.730826">
        <ele>591.5</ele>
        <time>1970-01-01T00:49:15.000Z</time>
      </trkpt>
      <trkpt lat="41.073903" lon="-6.730852">
        <ele>591.4</ele>
        <time>1970-01-01T00:49:16.000Z</time>
      </trkpt>
      <trkpt lat="41.073907" lon="-6.730878">
        <ele>591.4</ele>
        <time>1970-01-01T00:49:17.000Z</time>
      </trkpt>
      <trkpt lat="41.07391" lon="-6.730903">
        <ele>591.3</ele>
        <time>1970-01-01T00:49:18.000Z</time>
      </trkpt>
      <trkpt lat="41.073914" lon="-6.730928">
        <ele>591.2</ele>
        <time>1970-01-01T00:49:19.000Z</time>
      </trkpt>
      <trkpt lat="41.073916" lon="-6.730954">
        <ele>591.2</ele>
        <time>1970-01-01T00:49:20.000Z</time>
      </trkpt>
      <trkpt lat="41.073919" lon="-6.73098">
        <ele>591.1</ele>
        <time>1970-01-01T00:49:21.000Z</time>
      </trkpt>
      <trkpt lat="41.073923" lon="-6.731006">
        <ele>591.1</ele>
        <time>1970-01-01T00:49:22.000Z</time>
      </trkpt>
      <trkpt lat="41.073927" lon="-6.731033">
        <ele>591</ele>
        <time>1970-01-01T00:49:23.000Z</time>
      </trkpt>
      <trkpt lat="41.073929" lon="-6.731062">
        <ele>590.9</ele>
        <time>1970-01-01T00:49:24.000Z</time>
      </trkpt>
      <trkpt lat="41.073929" lon="-6.731093">
        <ele>590.8</ele>
        <time>1970-01-01T00:49:25.000Z</time>
      </trkpt>
      <trkpt lat="41.073928" lon="-6.731125">
        <ele>590.8</ele>
        <time>1970-01-01T00:49:26.000Z</time>
      </trkpt>
      <trkpt lat="41.073927" lon="-6.731156">
        <ele>590.7</ele>
        <time>1970-01-01T00:49:27.000Z</time>
      </trkpt>
      <trkpt lat="41.073926" lon="-6.731186">
        <ele>590.6</ele>
        <time>1970-01-01T00:49:28.000Z</time>
      </trkpt>
      <trkpt lat="41.073926" lon="-6.731214">
        <ele>590.6</ele>
        <time>1970-01-01T00:49:29.000Z</time>
      </trkpt>
      <trkpt lat="41.073924" lon="-6.731242">
        <ele>590.5</ele>
        <time>1970-01-01T00:49:30.000Z</time>
      </trkpt>
      <trkpt lat="41.073922" lon="-6.731271">
        <ele>590.4</ele>
        <time>1970-01-01T00:49:31.000Z</time>
      </trkpt>
      <trkpt lat="41.073917" lon="-6.731298">
        <ele>590.3</ele>
        <time>1970-01-01T00:49:32.000Z</time>
      </trkpt>
      <trkpt lat="41.073911" lon="-6.731322">
        <ele>590.3</ele>
        <time>1970-01-01T00:49:33.000Z</time>
      </trkpt>
      <trkpt lat="41.073904" lon="-6.731343">
        <ele>590.2</ele>
        <time>1970-01-01T00:49:34.000Z</time>
      </trkpt>
      <trkpt lat="41.073898" lon="-6.731361">
        <ele>590.2</ele>
        <time>1970-01-01T00:49:35.000Z</time>
      </trkpt>
      <trkpt lat="41.073775" lon="-6.731545">
        <ele>589.6</ele>
        <time>1970-01-01T00:49:36.000Z</time>
      </trkpt>
      <trkpt lat="41.073766" lon="-6.731552">
        <ele>589.6</ele>
        <time>1970-01-01T00:49:37.000Z</time>
      </trkpt>
      <trkpt lat="41.073726" lon="-6.731572">
        <ele>589.4</ele>
        <time>1970-01-01T00:51:04.000Z</time>
      </trkpt>
      <trkpt lat="41.073708" lon="-6.731578">
        <ele>589.4</ele>
        <time>1970-01-01T00:51:05.000Z</time>
      </trkpt>
      <trkpt lat="41.073691" lon="-6.731585">
        <ele>589.3</ele>
        <time>1970-01-01T00:51:09.000Z</time>
      </trkpt>
      <trkpt lat="41.073674" lon="-6.731595">
        <ele>589.2</ele>
        <time>1970-01-01T00:51:10.000Z</time>
      </trkpt>
      <trkpt lat="41.073658" lon="-6.731605">
        <ele>589.2</ele>
        <time>1970-01-01T00:51:11.000Z</time>
      </trkpt>
      <trkpt lat="41.073641" lon="-6.731618">
        <ele>589.1</ele>
        <time>1970-01-01T00:51:12.000Z</time>
      </trkpt>
      <trkpt lat="41.073623" lon="-6.731629">
        <ele>589.1</ele>
        <time>1970-01-01T00:51:13.000Z</time>
      </trkpt>
      <trkpt lat="41.073603" lon="-6.731639">
        <ele>589</ele>
        <time>1970-01-01T00:51:14.000Z</time>
      </trkpt>
      <trkpt lat="41.073584" lon="-6.731647">
        <ele>588.9</ele>
        <time>1970-01-01T00:51:15.000Z</time>
      </trkpt>
      <trkpt lat="41.073566" lon="-6.731657">
        <ele>588.9</ele>
        <time>1970-01-01T00:51:16.000Z</time>
      </trkpt>
      <trkpt lat="41.073547" lon="-6.731666">
        <ele>588.8</ele>
        <time>1970-01-01T00:51:17.000Z</time>
      </trkpt>
      <trkpt lat="41.073529" lon="-6.731678">
        <ele>588.7</ele>
        <time>1970-01-01T00:51:18.000Z</time>
      </trkpt>
      <trkpt lat="41.073513" lon="-6.73169">
        <ele>588.7</ele>
        <time>1970-01-01T00:51:19.000Z</time>
      </trkpt>
      <trkpt lat="41.073495" lon="-6.731704">
        <ele>588.6</ele>
        <time>1970-01-01T00:51:20.000Z</time>
      </trkpt>
      <trkpt lat="41.073478" lon="-6.731719">
        <ele>588.5</ele>
        <time>1970-01-01T00:51:21.000Z</time>
      </trkpt>
      <trkpt lat="41.07346" lon="-6.731738">
        <ele>588.5</ele>
        <time>1970-01-01T00:51:22.000Z</time>
      </trkpt>
      <trkpt lat="41.073444" lon="-6.731758">
        <ele>588.4</ele>
        <time>1970-01-01T00:51:23.000Z</time>
      </trkpt>
      <trkpt lat="41.073429" lon="-6.731778">
        <ele>588.3</ele>
        <time>1970-01-01T00:51:24.000Z</time>
      </trkpt>
      <trkpt lat="41.073414" lon="-6.731799">
        <ele>588.3</ele>
        <time>1970-01-01T00:51:25.000Z</time>
      </trkpt>
      <trkpt lat="41.073399" lon="-6.731821">
        <ele>588.2</ele>
        <time>1970-01-01T00:51:26.000Z</time>
      </trkpt>
      <trkpt lat="41.073384" lon="-6.731845">
        <ele>588.1</ele>
        <time>1970-01-01T00:51:27.000Z</time>
      </trkpt>
      <trkpt lat="41.07337" lon="-6.731869">
        <ele>588</ele>
        <time>1970-01-01T00:51:28.000Z</time>
      </trkpt>
      <trkpt lat="41.073357" lon="-6.731894">
        <ele>588</ele>
        <time>1970-01-01T00:51:29.000Z</time>
      </trkpt>
      <trkpt lat="41.073346" lon="-6.73192">
        <ele>587.9</ele>
        <time>1970-01-01T00:51:30.000Z</time>
      </trkpt>
      <trkpt lat="41.073335" lon="-6.731947">
        <ele>587.8</ele>
        <time>1970-01-01T00:51:31.000Z</time>
      </trkpt>
      <trkpt lat="41.073325" lon="-6.731975">
        <ele>587.7</ele>
        <time>1970-01-01T00:51:32.000Z</time>
      </trkpt>
      <trkpt lat="41.073315" lon="-6.732002">
        <ele>587.7</ele>
        <time>1970-01-01T00:51:33.000Z</time>
      </trkpt>
      <trkpt lat="41.073306" lon="-6.732029">
        <ele>587.6</ele>
        <time>1970-01-01T00:51:34.000Z</time>
      </trkpt>
      <trkpt lat="41.073295" lon="-6.732057">
        <ele>587.5</ele>
        <time>1970-01-01T00:51:35.000Z</time>
      </trkpt>
      <trkpt lat="41.073284" lon="-6.732085">
        <ele>587.4</ele>
        <time>1970-01-01T00:51:36.000Z</time>
      </trkpt>
      <trkpt lat="41.073273" lon="-6.732114">
        <ele>587.4</ele>
        <time>1970-01-01T00:51:37.000Z</time>
      </trkpt>
      <trkpt lat="41.073264" lon="-6.732144">
        <ele>587.3</ele>
        <time>1970-01-01T00:51:38.000Z</time>
      </trkpt>
      <trkpt lat="41.073256" lon="-6.732178">
        <ele>587.2</ele>
        <time>1970-01-01T00:51:39.000Z</time>
      </trkpt>
      <trkpt lat="41.07325" lon="-6.732215">
        <ele>587.1</ele>
        <time>1970-01-01T00:51:40.000Z</time>
      </trkpt>
      <trkpt lat="41.073244" lon="-6.73225">
        <ele>587</ele>
        <time>1970-01-01T00:51:41.000Z</time>
      </trkpt>
      <trkpt lat="41.073239" lon="-6.732282">
        <ele>586.9</ele>
        <time>1970-01-01T00:51:42.000Z</time>
      </trkpt>
      <trkpt lat="41.073235" lon="-6.732314">
        <ele>586.9</ele>
        <time>1970-01-01T00:51:43.000Z</time>
      </trkpt>
      <trkpt lat="41.07323" lon="-6.732348">
        <ele>586.8</ele>
        <time>1970-01-01T00:51:44.000Z</time>
      </trkpt>
      <trkpt lat="41.073227" lon="-6.732386">
        <ele>586.7</ele>
        <time>1970-01-01T00:51:45.000Z</time>
      </trkpt>
      <trkpt lat="41.073224" lon="-6.732428">
        <ele>586.6</ele>
        <time>1970-01-01T00:51:46.000Z</time>
      </trkpt>
      <trkpt lat="41.073221" lon="-6.732472">
        <ele>586.5</ele>
        <time>1970-01-01T00:51:47.000Z</time>
      </trkpt>
      <trkpt lat="41.073217" lon="-6.732516">
        <ele>586.4</ele>
        <time>1970-01-01T00:51:48.000Z</time>
      </trkpt>
      <trkpt lat="41.073214" lon="-6.732557">
        <ele>586.3</ele>
        <time>1970-01-01T00:51:49.000Z</time>
      </trkpt>
      <trkpt lat="41.07321" lon="-6.732595">
        <ele>586.2</ele>
        <time>1970-01-01T00:51:50.000Z</time>
      </trkpt>
      <trkpt lat="41.073206" lon="-6.732631">
        <ele>586.1</ele>
        <time>1970-01-01T00:51:51.000Z</time>
      </trkpt>
      <trkpt lat="41.073202" lon="-6.732667">
        <ele>586</ele>
        <time>1970-01-01T00:51:52.000Z</time>
      </trkpt>
      <trkpt lat="41.0732" lon="-6.732709">
        <ele>585.9</ele>
        <time>1970-01-01T00:51:53.000Z</time>
      </trkpt>
      <trkpt lat="41.0732" lon="-6.732756">
        <ele>585.8</ele>
        <time>1970-01-01T00:51:54.000Z</time>
      </trkpt>
      <trkpt lat="41.073202" lon="-6.732807">
        <ele>585.7</ele>
        <time>1970-01-01T00:51:55.000Z</time>
      </trkpt>
      <trkpt lat="41.073207" lon="-6.732857">
        <ele>585.5</ele>
        <time>1970-01-01T00:51:56.000Z</time>
      </trkpt>
      <trkpt lat="41.073217" lon="-6.732906">
        <ele>585.4</ele>
        <time>1970-01-01T00:51:57.000Z</time>
      </trkpt>
      <trkpt lat="41.073233" lon="-6.732954">
        <ele>585.3</ele>
        <time>1970-01-01T00:51:58.000Z</time>
      </trkpt>
      <trkpt lat="41.073251" lon="-6.733001">
        <ele>585.2</ele>
        <time>1970-01-01T00:51:59.000Z</time>
      </trkpt>
      <trkpt lat="41.073271" lon="-6.733049">
        <ele>585</ele>
        <time>1970-01-01T00:52:00.000Z</time>
      </trkpt>
      <trkpt lat="41.073289" lon="-6.733097">
        <ele>584.9</ele>
        <time>1970-01-01T00:52:01.000Z</time>
      </trkpt>
      <trkpt lat="41.073304" lon="-6.733143">
        <ele>584.8</ele>
        <time>1970-01-01T00:52:02.000Z</time>
      </trkpt>
      <trkpt lat="41.073312" lon="-6.733185">
        <ele>584.7</ele>
        <time>1970-01-01T00:52:03.000Z</time>
      </trkpt>
      <trkpt lat="41.073311" lon="-6.733224">
        <ele>584.6</ele>
        <time>1970-01-01T00:52:04.000Z</time>
      </trkpt>
      <trkpt lat="41.073304" lon="-6.733262">
        <ele>584.5</ele>
        <time>1970-01-01T00:52:05.000Z</time>
      </trkpt>
      <trkpt lat="41.073293" lon="-6.733303">
        <ele>584.4</ele>
        <time>1970-01-01T00:52:06.000Z</time>
      </trkpt>
      <trkpt lat="41.073281" lon="-6.733345">
        <ele>584.3</ele>
        <time>1970-01-01T00:52:07.000Z</time>
      </trkpt>
      <trkpt lat="41.07327" lon="-6.733387">
        <ele>584.2</ele>
        <time>1970-01-01T00:52:08.000Z</time>
      </trkpt>
      <trkpt lat="41.073264" lon="-6.733429">
        <ele>584.1</ele>
        <time>1970-01-01T00:52:09.000Z</time>
      </trkpt>
      <trkpt lat="41.07326" lon="-6.733467">
        <ele>584</ele>
        <time>1970-01-01T00:52:10.000Z</time>
      </trkpt>
      <trkpt lat="41.073254" lon="-6.733501">
        <ele>583.9</ele>
        <time>1970-01-01T00:52:11.000Z</time>
      </trkpt>
      <trkpt lat="41.073242" lon="-6.733529">
        <ele>583.8</ele>
        <time>1970-01-01T00:52:12.000Z</time>
      </trkpt>
      <trkpt lat="41.07322" lon="-6.733557">
        <ele>583.7</ele>
        <time>1970-01-01T00:52:13.000Z</time>
      </trkpt>
      <trkpt lat="41.073194" lon="-6.733584">
        <ele>583.6</ele>
        <time>1970-01-01T00:52:14.000Z</time>
      </trkpt>
      <trkpt lat="41.073168" lon="-6.733613">
        <ele>583.5</ele>
        <time>1970-01-01T00:52:15.000Z</time>
      </trkpt>
      <trkpt lat="41.073148" lon="-6.733643">
        <ele>583.4</ele>
        <time>1970-01-01T00:52:16.000Z</time>
      </trkpt>
      <trkpt lat="41.073129" lon="-6.733673">
        <ele>583.3</ele>
        <time>1970-01-01T00:52:17.000Z</time>
      </trkpt>
      <trkpt lat="41.073112" lon="-6.733699">
        <ele>583.2</ele>
        <time>1970-01-01T00:52:18.000Z</time>
      </trkpt>
      <trkpt lat="41.073094" lon="-6.733724">
        <ele>583.1</ele>
        <time>1970-01-01T00:52:19.000Z</time>
      </trkpt>
      <trkpt lat="41.073079" lon="-6.733748">
        <ele>583.1</ele>
        <time>1970-01-01T00:52:20.000Z</time>
      </trkpt>
      <trkpt lat="41.073065" lon="-6.733772">
        <ele>583</ele>
        <time>1970-01-01T00:52:21.000Z</time>
      </trkpt>
      <trkpt lat="41.073053" lon="-6.733796">
        <ele>582.9</ele>
        <time>1970-01-01T00:52:22.000Z</time>
      </trkpt>
      <trkpt lat="41.073041" lon="-6.733819">
        <ele>582.8</ele>
        <time>1970-01-01T00:52:23.000Z</time>
      </trkpt>
      <trkpt lat="41.073032" lon="-6.733844">
        <ele>582.8</ele>
        <time>1970-01-01T00:52:24.000Z</time>
      </trkpt>
      <trkpt lat="41.073029" lon="-6.733868">
        <ele>582.7</ele>
        <time>1970-01-01T00:52:25.000Z</time>
      </trkpt>
      <trkpt lat="41.073031" lon="-6.733891">
        <ele>582.7</ele>
        <time>1970-01-01T00:52:26.000Z</time>
      </trkpt>
      <trkpt lat="41.073035" lon="-6.733916">
        <ele>582.6</ele>
        <time>1970-01-01T00:52:27.000Z</time>
      </trkpt>
      <trkpt lat="41.073039" lon="-6.733942">
        <ele>582.5</ele>
        <time>1970-01-01T00:52:28.000Z</time>
      </trkpt>
      <trkpt lat="41.073044" lon="-6.733969">
        <ele>582.5</ele>
        <time>1970-01-01T00:52:29.000Z</time>
      </trkpt>
      <trkpt lat="41.073048" lon="-6.733992">
        <ele>582.4</ele>
        <time>1970-01-01T00:52:30.000Z</time>
      </trkpt>
      <trkpt lat="41.07305" lon="-6.73401">
        <ele>582.4</ele>
        <time>1970-01-01T00:52:31.000Z</time>
      </trkpt>
      <trkpt lat="41.073049" lon="-6.734026">
        <ele>582.3</ele>
        <time>1970-01-01T00:52:32.000Z</time>
      </trkpt>
      <trkpt lat="41.073047" lon="-6.734039">
        <ele>582.3</ele>
        <time>1970-01-01T00:52:33.000Z</time>
      </trkpt>
      <trkpt lat="41.073045" lon="-6.734053">
        <ele>582.3</ele>
        <time>1970-01-01T00:52:34.000Z</time>
      </trkpt>
      <trkpt lat="41.073043" lon="-6.734066">
        <ele>582.2</ele>
        <time>1970-01-01T00:52:35.000Z</time>
      </trkpt>
      <trkpt lat="41.073038" lon="-6.734081">
        <ele>582.2</ele>
        <time>1970-01-01T00:52:36.000Z</time>
      </trkpt>
      <trkpt lat="41.073029" lon="-6.734097">
        <ele>582.1</ele>
        <time>1970-01-01T00:52:37.000Z</time>
      </trkpt>
      <trkpt lat="41.073017" lon="-6.734115">
        <ele>582.1</ele>
        <time>1970-01-01T00:52:38.000Z</time>
      </trkpt>
      <trkpt lat="41.073002" lon="-6.734132">
        <ele>582</ele>
        <time>1970-01-01T00:52:39.000Z</time>
      </trkpt>
      <trkpt lat="41.072986" lon="-6.734145">
        <ele>582</ele>
        <time>1970-01-01T00:52:40.000Z</time>
      </trkpt>
      <trkpt lat="41.072967" lon="-6.734154">
        <ele>581.9</ele>
        <time>1970-01-01T00:52:41.000Z</time>
      </trkpt>
      <trkpt lat="41.072944" lon="-6.734162">
        <ele>581.8</ele>
        <time>1970-01-01T00:52:42.000Z</time>
      </trkpt>
      <trkpt lat="41.072916" lon="-6.734171">
        <ele>581.7</ele>
        <time>1970-01-01T00:52:43.000Z</time>
      </trkpt>
      <trkpt lat="41.072887" lon="-6.734181">
        <ele>581.6</ele>
        <time>1970-01-01T00:52:44.000Z</time>
      </trkpt>
      <trkpt lat="41.072861" lon="-6.734189">
        <ele>581.5</ele>
        <time>1970-01-01T00:52:45.000Z</time>
      </trkpt>
      <trkpt lat="41.072839" lon="-6.734195">
        <ele>581.5</ele>
        <time>1970-01-01T00:52:46.000Z</time>
      </trkpt>
      <trkpt lat="41.072824" lon="-6.7342">
        <ele>581.4</ele>
        <time>1970-01-01T00:52:47.000Z</time>
      </trkpt>
      <trkpt lat="41.072813" lon="-6.734206">
        <ele>581.4</ele>
        <time>1970-01-01T00:52:48.000Z</time>
      </trkpt>
      <trkpt lat="41.072801" lon="-6.734215">
        <ele>581.3</ele>
        <time>1970-01-01T00:52:49.000Z</time>
      </trkpt>
      <trkpt lat="41.072785" lon="-6.73423">
        <ele>581.3</ele>
        <time>1970-01-01T00:52:50.000Z</time>
      </trkpt>
      <trkpt lat="41.072766" lon="-6.73425">
        <ele>581.2</ele>
        <time>1970-01-01T00:52:51.000Z</time>
      </trkpt>
      <trkpt lat="41.072751" lon="-6.734276">
        <ele>581.1</ele>
        <time>1970-01-01T00:52:52.000Z</time>
      </trkpt>
      <trkpt lat="41.072738" lon="-6.734305">
        <ele>581</ele>
        <time>1970-01-01T00:52:53.000Z</time>
      </trkpt>
      <trkpt lat="41.072729" lon="-6.734335">
        <ele>581</ele>
        <time>1970-01-01T00:52:54.000Z</time>
      </trkpt>
      <trkpt lat="41.072722" lon="-6.734365">
        <ele>580.9</ele>
        <time>1970-01-01T00:52:55.000Z</time>
      </trkpt>
      <trkpt lat="41.072717" lon="-6.734397">
        <ele>580.8</ele>
        <time>1970-01-01T00:52:56.000Z</time>
      </trkpt>
      <trkpt lat="41.072709" lon="-6.734431">
        <ele>580.7</ele>
        <time>1970-01-01T00:52:57.000Z</time>
      </trkpt>
      <trkpt lat="41.072701" lon="-6.734474">
        <ele>580.6</ele>
        <time>1970-01-01T00:52:58.000Z</time>
      </trkpt>
      <trkpt lat="41.072692" lon="-6.734519">
        <ele>580.5</ele>
        <time>1970-01-01T00:52:59.000Z</time>
      </trkpt>
      <trkpt lat="41.072679" lon="-6.734561">
        <ele>580.4</ele>
        <time>1970-01-01T00:53:00.000Z</time>
      </trkpt>
      <trkpt lat="41.072665" lon="-6.734596">
        <ele>580.3</ele>
        <time>1970-01-01T00:53:01.000Z</time>
      </trkpt>
      <trkpt lat="41.072649" lon="-6.734627">
        <ele>580.2</ele>
        <time>1970-01-01T00:53:02.000Z</time>
      </trkpt>
      <trkpt lat="41.072635" lon="-6.734656">
        <ele>580.1</ele>
        <time>1970-01-01T00:53:03.000Z</time>
      </trkpt>
      <trkpt lat="41.072621" lon="-6.734684">
        <ele>580</ele>
        <time>1970-01-01T00:53:04.000Z</time>
      </trkpt>
      <trkpt lat="41.072609" lon="-6.734714">
        <ele>580</ele>
        <time>1970-01-01T00:53:05.000Z</time>
      </trkpt>
      <trkpt lat="41.0726" lon="-6.734747">
        <ele>579.9</ele>
        <time>1970-01-01T00:53:06.000Z</time>
      </trkpt>
      <trkpt lat="41.072592" lon="-6.734784">
        <ele>579.8</ele>
        <time>1970-01-01T00:53:07.000Z</time>
      </trkpt>
      <trkpt lat="41.072583" lon="-6.734823">
        <ele>579.7</ele>
        <time>1970-01-01T00:53:08.000Z</time>
      </trkpt>
      <trkpt lat="41.072573" lon="-6.734861">
        <ele>579.6</ele>
        <time>1970-01-01T00:53:09.000Z</time>
      </trkpt>
      <trkpt lat="41.072564" lon="-6.734902">
        <ele>579.5</ele>
        <time>1970-01-01T00:53:10.000Z</time>
      </trkpt>
      <trkpt lat="41.072556" lon="-6.734947">
        <ele>579.4</ele>
        <time>1970-01-01T00:53:11.000Z</time>
      </trkpt>
      <trkpt lat="41.072548" lon="-6.734996">
        <ele>579.2</ele>
        <time>1970-01-01T00:53:12.000Z</time>
      </trkpt>
      <trkpt lat="41.072546" lon="-6.735044">
        <ele>579.1</ele>
        <time>1970-01-01T00:53:13.000Z</time>
      </trkpt>
      <trkpt lat="41.072549" lon="-6.735091">
        <ele>579</ele>
        <time>1970-01-01T00:53:14.000Z</time>
      </trkpt>
      <trkpt lat="41.072556" lon="-6.735133">
        <ele>578.9</ele>
        <time>1970-01-01T00:53:15.000Z</time>
      </trkpt>
      <trkpt lat="41.072564" lon="-6.735167">
        <ele>578.8</ele>
        <time>1970-01-01T00:53:16.000Z</time>
      </trkpt>
      <trkpt lat="41.07257" lon="-6.735195">
        <ele>578.8</ele>
        <time>1970-01-01T00:53:17.000Z</time>
      </trkpt>
      <trkpt lat="41.072568" lon="-6.735217">
        <ele>578.7</ele>
        <time>1970-01-01T00:53:18.000Z</time>
      </trkpt>
      <trkpt lat="41.072562" lon="-6.735241">
        <ele>578.6</ele>
        <time>1970-01-01T00:53:19.000Z</time>
      </trkpt>
      <trkpt lat="41.072556" lon="-6.735265">
        <ele>578.6</ele>
        <time>1970-01-01T00:53:20.000Z</time>
      </trkpt>
      <trkpt lat="41.072555" lon="-6.735291">
        <ele>578.5</ele>
        <time>1970-01-01T00:53:21.000Z</time>
      </trkpt>
      <trkpt lat="41.072556" lon="-6.735317">
        <ele>578.4</ele>
        <time>1970-01-01T00:53:22.000Z</time>
      </trkpt>
      <trkpt lat="41.072558" lon="-6.735344">
        <ele>578.4</ele>
        <time>1970-01-01T00:53:23.000Z</time>
      </trkpt>
      <trkpt lat="41.072558" lon="-6.73537">
        <ele>578.3</ele>
        <time>1970-01-01T00:53:24.000Z</time>
      </trkpt>
      <trkpt lat="41.072559" lon="-6.735394">
        <ele>578.3</ele>
        <time>1970-01-01T00:53:25.000Z</time>
      </trkpt>
      <trkpt lat="41.072558" lon="-6.735418">
        <ele>578.2</ele>
        <time>1970-01-01T00:53:26.000Z</time>
      </trkpt>
      <trkpt lat="41.072556" lon="-6.735444">
        <ele>578.1</ele>
        <time>1970-01-01T00:53:27.000Z</time>
      </trkpt>
      <trkpt lat="41.072553" lon="-6.73547">
        <ele>578.1</ele>
        <time>1970-01-01T00:53:28.000Z</time>
      </trkpt>
      <trkpt lat="41.072549" lon="-6.735498">
        <ele>578</ele>
        <time>1970-01-01T00:53:29.000Z</time>
      </trkpt>
      <trkpt lat="41.072545" lon="-6.735528">
        <ele>577.9</ele>
        <time>1970-01-01T00:53:30.000Z</time>
      </trkpt>
      <trkpt lat="41.072541" lon="-6.735557">
        <ele>577.9</ele>
        <time>1970-01-01T00:53:31.000Z</time>
      </trkpt>
      <trkpt lat="41.072538" lon="-6.735588">
        <ele>577.8</ele>
        <time>1970-01-01T00:53:32.000Z</time>
      </trkpt>
      <trkpt lat="41.072533" lon="-6.73562">
        <ele>577.7</ele>
        <time>1970-01-01T00:53:33.000Z</time>
      </trkpt>
      <trkpt lat="41.072525" lon="-6.735655">
        <ele>577.6</ele>
        <time>1970-01-01T00:53:34.000Z</time>
      </trkpt>
      <trkpt lat="41.072516" lon="-6.73569">
        <ele>577.5</ele>
        <time>1970-01-01T00:53:35.000Z</time>
      </trkpt>
      <trkpt lat="41.072507" lon="-6.735726">
        <ele>577.4</ele>
        <time>1970-01-01T00:53:36.000Z</time>
      </trkpt>
      <trkpt lat="41.072499" lon="-6.73576">
        <ele>577.4</ele>
        <time>1970-01-01T00:53:37.000Z</time>
      </trkpt>
      <trkpt lat="41.072491" lon="-6.735796">
        <ele>577.3</ele>
        <time>1970-01-01T00:53:38.000Z</time>
      </trkpt>
      <trkpt lat="41.072484" lon="-6.73583">
        <ele>577.2</ele>
        <time>1970-01-01T00:53:39.000Z</time>
      </trkpt>
      <trkpt lat="41.072475" lon="-6.735863">
        <ele>577.1</ele>
        <time>1970-01-01T00:53:40.000Z</time>
      </trkpt>
      <trkpt lat="41.072464" lon="-6.735894">
        <ele>577</ele>
        <time>1970-01-01T00:53:41.000Z</time>
      </trkpt>
      <trkpt lat="41.072451" lon="-6.735927">
        <ele>576.9</ele>
        <time>1970-01-01T00:53:42.000Z</time>
      </trkpt>
      <trkpt lat="41.072436" lon="-6.735959">
        <ele>576.8</ele>
        <time>1970-01-01T00:53:43.000Z</time>
      </trkpt>
      <trkpt lat="41.072423" lon="-6.735992">
        <ele>576.7</ele>
        <time>1970-01-01T00:53:44.000Z</time>
      </trkpt>
      <trkpt lat="41.072412" lon="-6.736023">
        <ele>576.7</ele>
        <time>1970-01-01T00:53:45.000Z</time>
      </trkpt>
      <trkpt lat="41.072404" lon="-6.736055">
        <ele>576.6</ele>
        <time>1970-01-01T00:53:46.000Z</time>
      </trkpt>
      <trkpt lat="41.072398" lon="-6.736088">
        <ele>576.5</ele>
        <time>1970-01-01T00:53:47.000Z</time>
      </trkpt>
      <trkpt lat="41.072394" lon="-6.736122">
        <ele>576.4</ele>
        <time>1970-01-01T00:53:48.000Z</time>
      </trkpt>
      <trkpt lat="41.072391" lon="-6.736157">
        <ele>576.3</ele>
        <time>1970-01-01T00:53:49.000Z</time>
      </trkpt>
      <trkpt lat="41.072392" lon="-6.736192">
        <ele>576.2</ele>
        <time>1970-01-01T00:53:50.000Z</time>
      </trkpt>
      <trkpt lat="41.072395" lon="-6.736228">
        <ele>576.1</ele>
        <time>1970-01-01T00:53:51.000Z</time>
      </trkpt>
      <trkpt lat="41.072401" lon="-6.73626">
        <ele>576.1</ele>
        <time>1970-01-01T00:53:52.000Z</time>
      </trkpt>
      <trkpt lat="41.07241" lon="-6.736287">
        <ele>576</ele>
        <time>1970-01-01T00:53:53.000Z</time>
      </trkpt>
      <trkpt lat="41.07242" lon="-6.736309">
        <ele>575.9</ele>
        <time>1970-01-01T00:53:54.000Z</time>
      </trkpt>
      <trkpt lat="41.072431" lon="-6.736331">
        <ele>575.9</ele>
        <time>1970-01-01T00:53:55.000Z</time>
      </trkpt>
      <trkpt lat="41.072442" lon="-6.736354">
        <ele>575.8</ele>
        <time>1970-01-01T00:53:56.000Z</time>
      </trkpt>
      <trkpt lat="41.072453" lon="-6.736379">
        <ele>575.7</ele>
        <time>1970-01-01T00:53:57.000Z</time>
      </trkpt>
      <trkpt lat="41.072466" lon="-6.736403">
        <ele>575.7</ele>
        <time>1970-01-01T00:53:58.000Z</time>
      </trkpt>
      <trkpt lat="41.072478" lon="-6.736427">
        <ele>575.6</ele>
        <time>1970-01-01T00:53:59.000Z</time>
      </trkpt>
      <trkpt lat="41.07249" lon="-6.736451">
        <ele>575.5</ele>
        <time>1970-01-01T00:54:00.000Z</time>
      </trkpt>
      <trkpt lat="41.072503" lon="-6.736476">
        <ele>575.5</ele>
        <time>1970-01-01T00:54:01.000Z</time>
      </trkpt>
      <trkpt lat="41.072516" lon="-6.736501">
        <ele>575.4</ele>
        <time>1970-01-01T00:54:02.000Z</time>
      </trkpt>
      <trkpt lat="41.07253" lon="-6.736526">
        <ele>575.3</ele>
        <time>1970-01-01T00:54:03.000Z</time>
      </trkpt>
      <trkpt lat="41.072542" lon="-6.73655">
        <ele>575.2</ele>
        <time>1970-01-01T00:54:04.000Z</time>
      </trkpt>
      <trkpt lat="41.072551" lon="-6.736572">
        <ele>575.2</ele>
        <time>1970-01-01T00:54:05.000Z</time>
      </trkpt>
      <trkpt lat="41.072559" lon="-6.736593">
        <ele>575.1</ele>
        <time>1970-01-01T00:54:06.000Z</time>
      </trkpt>
      <trkpt lat="41.072563" lon="-6.736611">
        <ele>575.1</ele>
        <time>1970-01-01T00:54:07.000Z</time>
      </trkpt>
      <trkpt lat="41.072563" lon="-6.736628">
        <ele>575</ele>
        <time>1970-01-01T00:54:08.000Z</time>
      </trkpt>
      <trkpt lat="41.072561" lon="-6.736642">
        <ele>575</ele>
        <time>1970-01-01T00:54:09.000Z</time>
      </trkpt>
      <trkpt lat="41.072558" lon="-6.736652">
        <ele>575</ele>
        <time>1970-01-01T00:54:10.000Z</time>
      </trkpt>
      <trkpt lat="41.072556" lon="-6.736659">
        <ele>574.9</ele>
        <time>1970-01-01T00:54:11.000Z</time>
      </trkpt>
      <trkpt lat="41.072555" lon="-6.736662">
        <ele>574.9</ele>
        <time>1970-01-01T00:54:12.000Z</time>
      </trkpt>
      <trkpt lat="41.072555" lon="-6.736664">
        <ele>574.9</ele>
        <time>1970-01-01T00:54:13.000Z</time>
      </trkpt>
      <trkpt lat="41.072555" lon="-6.736665">
        <ele>574.9</ele>
        <time>1970-01-01T00:54:14.000Z</time>
      </trkpt>
      <trkpt lat="41.072555" lon="-6.736667">
        <ele>574.9</ele>
        <time>1970-01-01T00:54:15.000Z</time>
      </trkpt>
      <trkpt lat="41.072554" lon="-6.736669">
        <ele>574.9</ele>
        <time>1970-01-01T00:54:16.000Z</time>
      </trkpt>
      <trkpt lat="41.072553" lon="-6.73667">
        <ele>574.9</ele>
        <time>1970-01-01T00:54:17.000Z</time>
      </trkpt>
      <trkpt lat="41.07255" lon="-6.736673">
        <ele>574.9</ele>
        <time>1970-01-01T00:54:18.000Z</time>
      </trkpt>
      <trkpt lat="41.072544" lon="-6.736677">
        <ele>574.9</ele>
        <time>1970-01-01T00:54:19.000Z</time>
      </trkpt>
      <trkpt lat="41.072537" lon="-6.736681">
        <ele>574.9</ele>
        <time>1970-01-01T00:54:20.000Z</time>
      </trkpt>
      <trkpt lat="41.072531" lon="-6.736685">
        <ele>574.8</ele>
        <time>1970-01-01T00:54:21.000Z</time>
      </trkpt>
      <trkpt lat="41.072528" lon="-6.736687">
        <ele>574.8</ele>
        <time>1970-01-01T00:54:22.000Z</time>
      </trkpt>
      <trkpt lat="41.072527" lon="-6.736688">
        <ele>574.8</ele>
        <time>1970-01-01T00:54:23.000Z</time>
      </trkpt>
      <trkpt lat="41.072527" lon="-6.736689">
        <ele>574.8</ele>
        <time>1970-01-01T00:54:24.000Z</time>
      </trkpt>
      <trkpt lat="41.072526" lon="-6.73669">
        <ele>574.8</ele>
        <time>1970-01-01T00:54:25.000Z</time>
      </trkpt>
      <trkpt lat="41.072504" lon="-6.736712">
        <ele>574.7</ele>
        <time>1970-01-01T00:54:26.000Z</time>
      </trkpt>
      <trkpt lat="41.072497" lon="-6.736716">
        <ele>574.7</ele>
        <time>1970-01-01T00:54:27.000Z</time>
      </trkpt>
      <trkpt lat="41.072488" lon="-6.736721">
        <ele>574.7</ele>
        <time>1970-01-01T00:54:44.000Z</time>
      </trkpt>
      <trkpt lat="41.072478" lon="-6.736728">
        <ele>574.6</ele>
        <time>1970-01-01T00:54:45.000Z</time>
      </trkpt>
      <trkpt lat="41.072467" lon="-6.736736">
        <ele>574.6</ele>
        <time>1970-01-01T00:54:46.000Z</time>
      </trkpt>
      <trkpt lat="41.072453" lon="-6.736746">
        <ele>574.5</ele>
        <time>1970-01-01T00:54:47.000Z</time>
      </trkpt>
      <trkpt lat="41.07244" lon="-6.736755">
        <ele>574.5</ele>
        <time>1970-01-01T00:54:48.000Z</time>
      </trkpt>
      <trkpt lat="41.072426" lon="-6.736765">
        <ele>574.4</ele>
        <time>1970-01-01T00:54:49.000Z</time>
      </trkpt>
      <trkpt lat="41.072414" lon="-6.736776">
        <ele>574.4</ele>
        <time>1970-01-01T00:54:50.000Z</time>
      </trkpt>
      <trkpt lat="41.072401" lon="-6.736789">
        <ele>574.3</ele>
        <time>1970-01-01T00:54:51.000Z</time>
      </trkpt>
      <trkpt lat="41.072387" lon="-6.736803">
        <ele>574.3</ele>
        <time>1970-01-01T00:54:52.000Z</time>
      </trkpt>
      <trkpt lat="41.072372" lon="-6.736816">
        <ele>574.2</ele>
        <time>1970-01-01T00:54:53.000Z</time>
      </trkpt>
      <trkpt lat="41.072355" lon="-6.736829">
        <ele>574.2</ele>
        <time>1970-01-01T00:54:54.000Z</time>
      </trkpt>
      <trkpt lat="41.072339" lon="-6.736842">
        <ele>574.1</ele>
        <time>1970-01-01T00:54:55.000Z</time>
      </trkpt>
      <trkpt lat="41.072323" lon="-6.736855">
        <ele>574.1</ele>
        <time>1970-01-01T00:54:56.000Z</time>
      </trkpt>
      <trkpt lat="41.072309" lon="-6.736868">
        <ele>574</ele>
        <time>1970-01-01T00:54:57.000Z</time>
      </trkpt>
      <trkpt lat="41.072294" lon="-6.736882">
        <ele>573.9</ele>
        <time>1970-01-01T00:54:58.000Z</time>
      </trkpt>
      <trkpt lat="41.072279" lon="-6.736897">
        <ele>573.9</ele>
        <time>1970-01-01T00:54:59.000Z</time>
      </trkpt>
      <trkpt lat="41.072264" lon="-6.736909">
        <ele>573.8</ele>
        <time>1970-01-01T00:55:00.000Z</time>
      </trkpt>
      <trkpt lat="41.07225" lon="-6.73692">
        <ele>573.8</ele>
        <time>1970-01-01T00:55:01.000Z</time>
      </trkpt>
      <trkpt lat="41.072236" lon="-6.736931">
        <ele>573.7</ele>
        <time>1970-01-01T00:55:02.000Z</time>
      </trkpt>
      <trkpt lat="41.072222" lon="-6.736942">
        <ele>573.7</ele>
        <time>1970-01-01T00:55:03.000Z</time>
      </trkpt>
      <trkpt lat="41.072206" lon="-6.736952">
        <ele>573.6</ele>
        <time>1970-01-01T00:55:04.000Z</time>
      </trkpt>
      <trkpt lat="41.072189" lon="-6.736963">
        <ele>573.5</ele>
        <time>1970-01-01T00:55:05.000Z</time>
      </trkpt>
      <trkpt lat="41.072173" lon="-6.736977">
        <ele>573.5</ele>
        <time>1970-01-01T00:55:06.000Z</time>
      </trkpt>
      <trkpt lat="41.072163" lon="-6.736994">
        <ele>573.4</ele>
        <time>1970-01-01T00:55:07.000Z</time>
      </trkpt>
      <trkpt lat="41.072158" lon="-6.737006">
        <ele>573.3</ele>
        <time>1970-01-01T00:55:08.000Z</time>
      </trkpt>
      <trkpt lat="41.072155" lon="-6.737012">
        <ele>573.3</ele>
        <time>1970-01-01T00:55:09.000Z</time>
      </trkpt>
      <trkpt lat="41.072152" lon="-6.737014">
        <ele>573.3</ele>
        <time>1970-01-01T00:55:10.000Z</time>
      </trkpt>
      <trkpt lat="41.072148" lon="-6.737016">
        <ele>573.3</ele>
        <time>1970-01-01T00:55:11.000Z</time>
      </trkpt>
      <trkpt lat="41.072145" lon="-6.737017">
        <ele>573.3</ele>
        <time>1970-01-01T00:55:12.000Z</time>
      </trkpt>
      <trkpt lat="41.072143" lon="-6.737017">
        <ele>573.3</ele>
        <time>1970-01-01T00:55:13.000Z</time>
      </trkpt>
      <trkpt lat="41.072142" lon="-6.737017">
        <ele>573.3</ele>
        <time>1970-01-01T00:55:14.000Z</time>
      </trkpt>
      <trkpt lat="41.072141" lon="-6.737017">
        <ele>573.3</ele>
        <time>1970-01-01T00:55:15.000Z</time>
      </trkpt>
      <trkpt lat="41.072141" lon="-6.737018">
        <ele>573.3</ele>
        <time>1970-01-01T00:55:16.000Z</time>
      </trkpt>
      <trkpt lat="41.072166" lon="-6.737105">
        <ele>573.1</ele>
        <time>1970-01-01T00:55:17.000Z</time>
      </trkpt>
      <trkpt lat="41.072177" lon="-6.737138">
        <ele>573</ele>
        <time>1970-01-01T00:55:18.000Z</time>
      </trkpt>
      <trkpt lat="41.072186" lon="-6.737175">
        <ele>572.8</ele>
        <time>1970-01-01T00:55:48.000Z</time>
      </trkpt>
      <trkpt lat="41.072197" lon="-6.737214">
        <ele>572.7</ele>
        <time>1970-01-01T00:55:49.000Z</time>
      </trkpt>
      <trkpt lat="41.072206" lon="-6.737255">
        <ele>572.5</ele>
        <time>1970-01-01T00:55:50.000Z</time>
      </trkpt>
      <trkpt lat="41.072217" lon="-6.737298">
        <ele>572.4</ele>
        <time>1970-01-01T00:55:51.000Z</time>
      </trkpt>
      <trkpt lat="41.072228" lon="-6.737343">
        <ele>572.2</ele>
        <time>1970-01-01T00:55:52.000Z</time>
      </trkpt>
      <trkpt lat="41.07224" lon="-6.737391">
        <ele>572</ele>
        <time>1970-01-01T00:55:53.000Z</time>
      </trkpt>
      <trkpt lat="41.072252" lon="-6.737444">
        <ele>571.9</ele>
        <time>1970-01-01T00:55:54.000Z</time>
      </trkpt>
      <trkpt lat="41.072266" lon="-6.737499">
        <ele>571.7</ele>
        <time>1970-01-01T00:55:55.000Z</time>
      </trkpt>
      <trkpt lat="41.07228" lon="-6.737558">
        <ele>571.5</ele>
        <time>1970-01-01T00:55:56.000Z</time>
      </trkpt>
      <trkpt lat="41.072296" lon="-6.737619">
        <ele>571.2</ele>
        <time>1970-01-01T00:55:57.000Z</time>
      </trkpt>
      <trkpt lat="41.072314" lon="-6.737683">
        <ele>571</ele>
        <time>1970-01-01T00:55:58.000Z</time>
      </trkpt>
      <trkpt lat="41.072335" lon="-6.73775">
        <ele>570.7</ele>
        <time>1970-01-01T00:55:59.000Z</time>
      </trkpt>
      <trkpt lat="41.072356" lon="-6.737819">
        <ele>570.4</ele>
        <time>1970-01-01T00:56:00.000Z</time>
      </trkpt>
      <trkpt lat="41.072378" lon="-6.73789">
        <ele>570.2</ele>
        <time>1970-01-01T00:56:01.000Z</time>
      </trkpt>
      <trkpt lat="41.072398" lon="-6.73796">
        <ele>570</ele>
        <time>1970-01-01T00:56:02.000Z</time>
      </trkpt>
      <trkpt lat="41.072417" lon="-6.738028">
        <ele>569.8</ele>
        <time>1970-01-01T00:56:03.000Z</time>
      </trkpt>
      <trkpt lat="41.072435" lon="-6.738096">
        <ele>569.6</ele>
        <time>1970-01-01T00:56:04.000Z</time>
      </trkpt>
      <trkpt lat="41.072452" lon="-6.738164">
        <ele>569.4</ele>
        <time>1970-01-01T00:56:05.000Z</time>
      </trkpt>
      <trkpt lat="41.072469" lon="-6.738231">
        <ele>569.2</ele>
        <time>1970-01-01T00:56:06.000Z</time>
      </trkpt>
      <trkpt lat="41.072485" lon="-6.738299">
        <ele>568.9</ele>
        <time>1970-01-01T00:56:07.000Z</time>
      </trkpt>
      <trkpt lat="41.0725" lon="-6.73837">
        <ele>568.7</ele>
        <time>1970-01-01T00:56:08.000Z</time>
      </trkpt>
      <trkpt lat="41.072513" lon="-6.738445">
        <ele>568.5</ele>
        <time>1970-01-01T00:56:09.000Z</time>
      </trkpt>
      <trkpt lat="41.072525" lon="-6.738525">
        <ele>568.2</ele>
        <time>1970-01-01T00:56:10.000Z</time>
      </trkpt>
      <trkpt lat="41.072537" lon="-6.738613">
        <ele>567.8</ele>
        <time>1970-01-01T00:56:11.000Z</time>
      </trkpt>
      <trkpt lat="41.072549" lon="-6.738706">
        <ele>567.5</ele>
        <time>1970-01-01T00:56:12.000Z</time>
      </trkpt>
      <trkpt lat="41.07256" lon="-6.738804">
        <ele>567.2</ele>
        <time>1970-01-01T00:56:13.000Z</time>
      </trkpt>
      <trkpt lat="41.072568" lon="-6.738901">
        <ele>566.8</ele>
        <time>1970-01-01T00:56:14.000Z</time>
      </trkpt>
      <trkpt lat="41.072575" lon="-6.738998">
        <ele>566.5</ele>
        <time>1970-01-01T00:56:15.000Z</time>
      </trkpt>
      <trkpt lat="41.072581" lon="-6.739095">
        <ele>566.3</ele>
        <time>1970-01-01T00:56:16.000Z</time>
      </trkpt>
      <trkpt lat="41.072587" lon="-6.739191">
        <ele>566.2</ele>
        <time>1970-01-01T00:56:17.000Z</time>
      </trkpt>
      <trkpt lat="41.072594" lon="-6.739284">
        <ele>566.3</ele>
        <time>1970-01-01T00:56:18.000Z</time>
      </trkpt>
      <trkpt lat="41.072601" lon="-6.739375">
        <ele>566.3</ele>
        <time>1970-01-01T00:56:19.000Z</time>
      </trkpt>
      <trkpt lat="41.072607" lon="-6.739463">
        <ele>566.2</ele>
        <time>1970-01-01T00:56:20.000Z</time>
      </trkpt>
      <trkpt lat="41.072613" lon="-6.739549">
        <ele>566.1</ele>
        <time>1970-01-01T00:56:21.000Z</time>
      </trkpt>
      <trkpt lat="41.072619" lon="-6.739632">
        <ele>566</ele>
        <time>1970-01-01T00:56:22.000Z</time>
      </trkpt>
      <trkpt lat="41.072625" lon="-6.739712">
        <ele>565.9</ele>
        <time>1970-01-01T00:56:23.000Z</time>
      </trkpt>
      <trkpt lat="41.07263" lon="-6.739791">
        <ele>565.8</ele>
        <time>1970-01-01T00:56:24.000Z</time>
      </trkpt>
      <trkpt lat="41.072635" lon="-6.739869">
        <ele>565.7</ele>
        <time>1970-01-01T00:56:25.000Z</time>
      </trkpt>
      <trkpt lat="41.072639" lon="-6.739948">
        <ele>565.7</ele>
        <time>1970-01-01T00:56:26.000Z</time>
      </trkpt>
      <trkpt lat="41.072644" lon="-6.740028">
        <ele>565.7</ele>
        <time>1970-01-01T00:56:27.000Z</time>
      </trkpt>
      <trkpt lat="41.072649" lon="-6.740108">
        <ele>565.7</ele>
        <time>1970-01-01T00:56:28.000Z</time>
      </trkpt>
      <trkpt lat="41.072653" lon="-6.740188">
        <ele>565.6</ele>
        <time>1970-01-01T00:56:29.000Z</time>
      </trkpt>
      <trkpt lat="41.072655" lon="-6.740267">
        <ele>565.6</ele>
        <time>1970-01-01T00:56:30.000Z</time>
      </trkpt>
      <trkpt lat="41.072656" lon="-6.740345">
        <ele>565.6</ele>
        <time>1970-01-01T00:56:31.000Z</time>
      </trkpt>
      <trkpt lat="41.072655" lon="-6.740422">
        <ele>565.6</ele>
        <time>1970-01-01T00:56:32.000Z</time>
      </trkpt>
      <trkpt lat="41.072653" lon="-6.740497">
        <ele>565.6</ele>
        <time>1970-01-01T00:56:33.000Z</time>
      </trkpt>
      <trkpt lat="41.072651" lon="-6.740573">
        <ele>565.7</ele>
        <time>1970-01-01T00:56:34.000Z</time>
      </trkpt>
      <trkpt lat="41.072648" lon="-6.740648">
        <ele>565.8</ele>
        <time>1970-01-01T00:56:35.000Z</time>
      </trkpt>
      <trkpt lat="41.072646" lon="-6.740723">
        <ele>565.9</ele>
        <time>1970-01-01T00:56:36.000Z</time>
      </trkpt>
      <trkpt lat="41.072645" lon="-6.740795">
        <ele>566</ele>
        <time>1970-01-01T00:56:37.000Z</time>
      </trkpt>
      <trkpt lat="41.072644" lon="-6.740865">
        <ele>566.1</ele>
        <time>1970-01-01T00:56:38.000Z</time>
      </trkpt>
      <trkpt lat="41.072641" lon="-6.740934">
        <ele>566.1</ele>
        <time>1970-01-01T00:56:39.000Z</time>
      </trkpt>
      <trkpt lat="41.072634" lon="-6.741002">
        <ele>566.2</ele>
        <time>1970-01-01T00:56:40.000Z</time>
      </trkpt>
      <trkpt lat="41.072621" lon="-6.741064">
        <ele>566.3</ele>
        <time>1970-01-01T00:56:41.000Z</time>
      </trkpt>
      <trkpt lat="41.072598" lon="-6.741116">
        <ele>566.3</ele>
        <time>1970-01-01T00:56:42.000Z</time>
      </trkpt>
      <trkpt lat="41.072569" lon="-6.741154">
        <ele>566.3</ele>
        <time>1970-01-01T00:56:43.000Z</time>
      </trkpt>
      <trkpt lat="41.072531" lon="-6.741173">
        <ele>566.3</ele>
        <time>1970-01-01T00:56:44.000Z</time>
      </trkpt>
      <trkpt lat="41.072491" lon="-6.741173">
        <ele>566.3</ele>
        <time>1970-01-01T00:56:45.000Z</time>
      </trkpt>
      <trkpt lat="41.072449" lon="-6.741161">
        <ele>566.2</ele>
        <time>1970-01-01T00:56:46.000Z</time>
      </trkpt>
      <trkpt lat="41.072409" lon="-6.741143">
        <ele>566.1</ele>
        <time>1970-01-01T00:56:47.000Z</time>
      </trkpt>
      <trkpt lat="41.072369" lon="-6.741122">
        <ele>566</ele>
        <time>1970-01-01T00:56:48.000Z</time>
      </trkpt>
      <trkpt lat="41.072329" lon="-6.7411">
        <ele>565.9</ele>
        <time>1970-01-01T00:56:49.000Z</time>
      </trkpt>
      <trkpt lat="41.072289" lon="-6.741074">
        <ele>565.8</ele>
        <time>1970-01-01T00:56:50.000Z</time>
      </trkpt>
      <trkpt lat="41.072248" lon="-6.741046">
        <ele>565.7</ele>
        <time>1970-01-01T00:56:51.000Z</time>
      </trkpt>
      <trkpt lat="41.072205" lon="-6.741014">
        <ele>565.5</ele>
        <time>1970-01-01T00:56:52.000Z</time>
      </trkpt>
      <trkpt lat="41.072159" lon="-6.740981">
        <ele>565.4</ele>
        <time>1970-01-01T00:56:53.000Z</time>
      </trkpt>
      <trkpt lat="41.072112" lon="-6.740948">
        <ele>565.2</ele>
        <time>1970-01-01T00:56:54.000Z</time>
      </trkpt>
      <trkpt lat="41.072063" lon="-6.740916">
        <ele>565</ele>
        <time>1970-01-01T00:56:55.000Z</time>
      </trkpt>
      <trkpt lat="41.072012" lon="-6.740882">
        <ele>564.8</ele>
        <time>1970-01-01T00:56:56.000Z</time>
      </trkpt>
      <trkpt lat="41.071959" lon="-6.740849">
        <ele>564.6</ele>
        <time>1970-01-01T00:56:57.000Z</time>
      </trkpt>
      <trkpt lat="41.071905" lon="-6.740815">
        <ele>564.3</ele>
        <time>1970-01-01T00:56:58.000Z</time>
      </trkpt>
      <trkpt lat="41.071851" lon="-6.74078">
        <ele>564.1</ele>
        <time>1970-01-01T00:56:59.000Z</time>
      </trkpt>
      <trkpt lat="41.071796" lon="-6.740742">
        <ele>563.8</ele>
        <time>1970-01-01T00:57:00.000Z</time>
      </trkpt>
      <trkpt lat="41.071738" lon="-6.740703">
        <ele>563.4</ele>
        <time>1970-01-01T00:57:01.000Z</time>
      </trkpt>
      <trkpt lat="41.071679" lon="-6.740663">
        <ele>563</ele>
        <time>1970-01-01T00:57:02.000Z</time>
      </trkpt>
      <trkpt lat="41.071617" lon="-6.740621">
        <ele>562.3</ele>
        <time>1970-01-01T00:57:03.000Z</time>
      </trkpt>
      <trkpt lat="41.071553" lon="-6.740577">
        <ele>561.5</ele>
        <time>1970-01-01T00:57:04.000Z</time>
      </trkpt>
      <trkpt lat="41.071485" lon="-6.740532">
        <ele>560.3</ele>
        <time>1970-01-01T00:57:05.000Z</time>
      </trkpt>
      <trkpt lat="41.071416" lon="-6.740485">
        <ele>559</ele>
        <time>1970-01-01T00:57:06.000Z</time>
      </trkpt>
      <trkpt lat="41.071346" lon="-6.740437">
        <ele>558</ele>
        <time>1970-01-01T00:57:07.000Z</time>
      </trkpt>
      <trkpt lat="41.071274" lon="-6.740388">
        <ele>557.2</ele>
        <time>1970-01-01T00:57:08.000Z</time>
      </trkpt>
      <trkpt lat="41.071198" lon="-6.74034">
        <ele>556.3</ele>
        <time>1970-01-01T00:57:09.000Z</time>
      </trkpt>
      <trkpt lat="41.07112" lon="-6.740293">
        <ele>555.7</ele>
        <time>1970-01-01T00:57:10.000Z</time>
      </trkpt>
      <trkpt lat="41.071043" lon="-6.740249">
        <ele>555.6</ele>
        <time>1970-01-01T00:57:11.000Z</time>
      </trkpt>
      <trkpt lat="41.070971" lon="-6.740207">
        <ele>556</ele>
        <time>1970-01-01T00:57:12.000Z</time>
      </trkpt>
      <trkpt lat="41.070906" lon="-6.74017">
        <ele>556.4</ele>
        <time>1970-01-01T00:57:13.000Z</time>
      </trkpt>
      <trkpt lat="41.070846" lon="-6.740135">
        <ele>556.6</ele>
        <time>1970-01-01T00:57:14.000Z</time>
      </trkpt>
      <trkpt lat="41.07079" lon="-6.740103">
        <ele>556.9</ele>
        <time>1970-01-01T00:57:15.000Z</time>
      </trkpt>
      <trkpt lat="41.070735" lon="-6.740072">
        <ele>557.1</ele>
        <time>1970-01-01T00:57:16.000Z</time>
      </trkpt>
      <trkpt lat="41.070682" lon="-6.740041">
        <ele>557.5</ele>
        <time>1970-01-01T00:57:17.000Z</time>
      </trkpt>
      <trkpt lat="41.07063" lon="-6.740009">
        <ele>557.8</ele>
        <time>1970-01-01T00:57:18.000Z</time>
      </trkpt>
      <trkpt lat="41.070579" lon="-6.73998">
        <ele>558.1</ele>
        <time>1970-01-01T00:57:19.000Z</time>
      </trkpt>
      <trkpt lat="41.070528" lon="-6.739952">
        <ele>558.4</ele>
        <time>1970-01-01T00:57:20.000Z</time>
      </trkpt>
      <trkpt lat="41.070478" lon="-6.739926">
        <ele>558.6</ele>
        <time>1970-01-01T00:57:21.000Z</time>
      </trkpt>
      <trkpt lat="41.070429" lon="-6.739898">
        <ele>558.8</ele>
        <time>1970-01-01T00:57:22.000Z</time>
      </trkpt>
      <trkpt lat="41.070379" lon="-6.739869">
        <ele>558.9</ele>
        <time>1970-01-01T00:57:23.000Z</time>
      </trkpt>
      <trkpt lat="41.070328" lon="-6.739839">
        <ele>559.1</ele>
        <time>1970-01-01T00:57:24.000Z</time>
      </trkpt>
      <trkpt lat="41.070275" lon="-6.739809">
        <ele>559.3</ele>
        <time>1970-01-01T00:57:25.000Z</time>
      </trkpt>
      <trkpt lat="41.070222" lon="-6.739778">
        <ele>559.5</ele>
        <time>1970-01-01T00:57:26.000Z</time>
      </trkpt>
      <trkpt lat="41.07017" lon="-6.739748">
        <ele>559.7</ele>
        <time>1970-01-01T00:57:27.000Z</time>
      </trkpt>
      <trkpt lat="41.070118" lon="-6.739718">
        <ele>560</ele>
        <time>1970-01-01T00:57:28.000Z</time>
      </trkpt>
      <trkpt lat="41.070066" lon="-6.739688">
        <ele>560.3</ele>
        <time>1970-01-01T00:57:29.000Z</time>
      </trkpt>
      <trkpt lat="41.070017" lon="-6.73966">
        <ele>560.6</ele>
        <time>1970-01-01T00:57:30.000Z</time>
      </trkpt>
      <trkpt lat="41.069969" lon="-6.739632">
        <ele>560.9</ele>
        <time>1970-01-01T00:57:31.000Z</time>
      </trkpt>
      <trkpt lat="41.069922" lon="-6.739604">
        <ele>561.2</ele>
        <time>1970-01-01T00:57:32.000Z</time>
      </trkpt>
      <trkpt lat="41.069874" lon="-6.739578">
        <ele>561.5</ele>
        <time>1970-01-01T00:57:33.000Z</time>
      </trkpt>
      <trkpt lat="41.069828" lon="-6.73955">
        <ele>561.6</ele>
        <time>1970-01-01T00:57:34.000Z</time>
      </trkpt>
      <trkpt lat="41.069781" lon="-6.739522">
        <ele>561.7</ele>
        <time>1970-01-01T00:57:35.000Z</time>
      </trkpt>
      <trkpt lat="41.069734" lon="-6.739492">
        <ele>561.7</ele>
        <time>1970-01-01T00:57:36.000Z</time>
      </trkpt>
      <trkpt lat="41.069686" lon="-6.739462">
        <ele>561.7</ele>
        <time>1970-01-01T00:57:37.000Z</time>
      </trkpt>
      <trkpt lat="41.069636" lon="-6.739432">
        <ele>561.7</ele>
        <time>1970-01-01T00:57:38.000Z</time>
      </trkpt>
      <trkpt lat="41.069585" lon="-6.739404">
        <ele>561.7</ele>
        <time>1970-01-01T00:57:39.000Z</time>
      </trkpt>
      <trkpt lat="41.069531" lon="-6.739376">
        <ele>561.7</ele>
        <time>1970-01-01T00:57:40.000Z</time>
      </trkpt>
      <trkpt lat="41.069478" lon="-6.739346">
        <ele>561.8</ele>
        <time>1970-01-01T00:57:41.000Z</time>
      </trkpt>
      <trkpt lat="41.069424" lon="-6.739314">
        <ele>562</ele>
        <time>1970-01-01T00:57:42.000Z</time>
      </trkpt>
      <trkpt lat="41.06937" lon="-6.739283">
        <ele>562.2</ele>
        <time>1970-01-01T00:57:43.000Z</time>
      </trkpt>
      <trkpt lat="41.069316" lon="-6.739252">
        <ele>562.4</ele>
        <time>1970-01-01T00:57:44.000Z</time>
      </trkpt>
      <trkpt lat="41.069262" lon="-6.739222">
        <ele>562.6</ele>
        <time>1970-01-01T00:57:45.000Z</time>
      </trkpt>
      <trkpt lat="41.069211" lon="-6.739194">
        <ele>562.8</ele>
        <time>1970-01-01T00:57:46.000Z</time>
      </trkpt>
      <trkpt lat="41.069161" lon="-6.739168">
        <ele>563.1</ele>
        <time>1970-01-01T00:57:47.000Z</time>
      </trkpt>
      <trkpt lat="41.069116" lon="-6.739143">
        <ele>563.3</ele>
        <time>1970-01-01T00:57:48.000Z</time>
      </trkpt>
      <trkpt lat="41.069073" lon="-6.739119">
        <ele>563.6</ele>
        <time>1970-01-01T00:57:49.000Z</time>
      </trkpt>
      <trkpt lat="41.069033" lon="-6.739096">
        <ele>563.9</ele>
        <time>1970-01-01T00:57:50.000Z</time>
      </trkpt>
      <trkpt lat="41.068994" lon="-6.739071">
        <ele>564.1</ele>
        <time>1970-01-01T00:57:51.000Z</time>
      </trkpt>
      <trkpt lat="41.068957" lon="-6.739048">
        <ele>564.5</ele>
        <time>1970-01-01T00:57:52.000Z</time>
      </trkpt>
      <trkpt lat="41.06892" lon="-6.739027">
        <ele>564.8</ele>
        <time>1970-01-01T00:57:53.000Z</time>
      </trkpt>
      <trkpt lat="41.068884" lon="-6.73901">
        <ele>565.2</ele>
        <time>1970-01-01T00:57:54.000Z</time>
      </trkpt>
      <trkpt lat="41.068849" lon="-6.738994">
        <ele>565.7</ele>
        <time>1970-01-01T00:57:55.000Z</time>
      </trkpt>
      <trkpt lat="41.068815" lon="-6.738977">
        <ele>566.1</ele>
        <time>1970-01-01T00:57:56.000Z</time>
      </trkpt>
      <trkpt lat="41.068782" lon="-6.738958">
        <ele>566.5</ele>
        <time>1970-01-01T00:57:57.000Z</time>
      </trkpt>
      <trkpt lat="41.068749" lon="-6.738939">
        <ele>566.8</ele>
        <time>1970-01-01T00:57:58.000Z</time>
      </trkpt>
      <trkpt lat="41.068717" lon="-6.73892">
        <ele>567.1</ele>
        <time>1970-01-01T00:57:59.000Z</time>
      </trkpt>
      <trkpt lat="41.068683" lon="-6.738902">
        <ele>567.4</ele>
        <time>1970-01-01T00:58:00.000Z</time>
      </trkpt>
      <trkpt lat="41.06865" lon="-6.738884">
        <ele>567.6</ele>
        <time>1970-01-01T00:58:01.000Z</time>
      </trkpt>
      <trkpt lat="41.068616" lon="-6.738867">
        <ele>567.8</ele>
        <time>1970-01-01T00:58:02.000Z</time>
      </trkpt>
      <trkpt lat="41.068582" lon="-6.738848">
        <ele>568</ele>
        <time>1970-01-01T00:58:03.000Z</time>
      </trkpt>
      <trkpt lat="41.068548" lon="-6.738829">
        <ele>568.1</ele>
        <time>1970-01-01T00:58:04.000Z</time>
      </trkpt>
      <trkpt lat="41.068513" lon="-6.738809">
        <ele>568.2</ele>
        <time>1970-01-01T00:58:05.000Z</time>
      </trkpt>
      <trkpt lat="41.068476" lon="-6.738788">
        <ele>568.3</ele>
        <time>1970-01-01T00:58:06.000Z</time>
      </trkpt>
      <trkpt lat="41.068438" lon="-6.738766">
        <ele>568.3</ele>
        <time>1970-01-01T00:58:07.000Z</time>
      </trkpt>
      <trkpt lat="41.0684" lon="-6.738741">
        <ele>568.4</ele>
        <time>1970-01-01T00:58:08.000Z</time>
      </trkpt>
      <trkpt lat="41.06836" lon="-6.738715">
        <ele>568.3</ele>
        <time>1970-01-01T00:58:09.000Z</time>
      </trkpt>
      <trkpt lat="41.068316" lon="-6.738688">
        <ele>568.3</ele>
        <time>1970-01-01T00:58:10.000Z</time>
      </trkpt>
      <trkpt lat="41.068267" lon="-6.73866">
        <ele>568.1</ele>
        <time>1970-01-01T00:58:11.000Z</time>
      </trkpt>
      <trkpt lat="41.068214" lon="-6.738629">
        <ele>567.8</ele>
        <time>1970-01-01T00:58:12.000Z</time>
      </trkpt>
      <trkpt lat="41.068158" lon="-6.738593">
        <ele>567.3</ele>
        <time>1970-01-01T00:58:13.000Z</time>
      </trkpt>
      <trkpt lat="41.0681" lon="-6.738554">
        <ele>566.7</ele>
        <time>1970-01-01T00:58:14.000Z</time>
      </trkpt>
      <trkpt lat="41.068039" lon="-6.738515">
        <ele>566.1</ele>
        <time>1970-01-01T00:58:15.000Z</time>
      </trkpt>
      <trkpt lat="41.067975" lon="-6.738476">
        <ele>565.5</ele>
        <time>1970-01-01T00:58:16.000Z</time>
      </trkpt>
      <trkpt lat="41.067907" lon="-6.738436">
        <ele>564.8</ele>
        <time>1970-01-01T00:58:17.000Z</time>
      </trkpt>
      <trkpt lat="41.067835" lon="-6.738394">
        <ele>564.2</ele>
        <time>1970-01-01T00:58:18.000Z</time>
      </trkpt>
      <trkpt lat="41.067761" lon="-6.738354">
        <ele>563.6</ele>
        <time>1970-01-01T00:58:19.000Z</time>
      </trkpt>
      <trkpt lat="41.067685" lon="-6.738316">
        <ele>563.1</ele>
        <time>1970-01-01T00:58:20.000Z</time>
      </trkpt>
      <trkpt lat="41.067608" lon="-6.738282">
        <ele>562.7</ele>
        <time>1970-01-01T00:58:21.000Z</time>
      </trkpt>
      <trkpt lat="41.067531" lon="-6.738252">
        <ele>562.5</ele>
        <time>1970-01-01T00:58:22.000Z</time>
      </trkpt>
      <trkpt lat="41.067455" lon="-6.738227">
        <ele>562.4</ele>
        <time>1970-01-01T00:58:23.000Z</time>
      </trkpt>
      <trkpt lat="41.067384" lon="-6.738206">
        <ele>562.5</ele>
        <time>1970-01-01T00:58:24.000Z</time>
      </trkpt>
      <trkpt lat="41.067318" lon="-6.738187">
        <ele>562.7</ele>
        <time>1970-01-01T00:58:25.000Z</time>
      </trkpt>
      <trkpt lat="41.067257" lon="-6.73817">
        <ele>563</ele>
        <time>1970-01-01T00:58:26.000Z</time>
      </trkpt>
      <trkpt lat="41.067201" lon="-6.738155">
        <ele>563.3</ele>
        <time>1970-01-01T00:58:27.000Z</time>
      </trkpt>
      <trkpt lat="41.06715" lon="-6.738142">
        <ele>563.7</ele>
        <time>1970-01-01T00:58:28.000Z</time>
      </trkpt>
      <trkpt lat="41.067103" lon="-6.738131">
        <ele>564</ele>
        <time>1970-01-01T00:58:29.000Z</time>
      </trkpt>
      <trkpt lat="41.06706" lon="-6.738121">
        <ele>564.2</ele>
        <time>1970-01-01T00:58:30.000Z</time>
      </trkpt>
      <trkpt lat="41.067019" lon="-6.738112">
        <ele>564.4</ele>
        <time>1970-01-01T00:58:31.000Z</time>
      </trkpt>
      <trkpt lat="41.066979" lon="-6.738105">
        <ele>564.4</ele>
        <time>1970-01-01T00:58:32.000Z</time>
      </trkpt>
      <trkpt lat="41.066941" lon="-6.738097">
        <ele>564.5</ele>
        <time>1970-01-01T00:58:33.000Z</time>
      </trkpt>
      <trkpt lat="41.066905" lon="-6.738089">
        <ele>564.3</ele>
        <time>1970-01-01T00:58:34.000Z</time>
      </trkpt>
      <trkpt lat="41.06687" lon="-6.73808">
        <ele>564</ele>
        <time>1970-01-01T00:58:35.000Z</time>
      </trkpt>
      <trkpt lat="41.066837" lon="-6.738071">
        <ele>563.5</ele>
        <time>1970-01-01T00:58:36.000Z</time>
      </trkpt>
      <trkpt lat="41.066803" lon="-6.738062">
        <ele>562.8</ele>
        <time>1970-01-01T00:58:37.000Z</time>
      </trkpt>
      <trkpt lat="41.06677" lon="-6.738053">
        <ele>562.1</ele>
        <time>1970-01-01T00:58:38.000Z</time>
      </trkpt>
      <trkpt lat="41.066736" lon="-6.738045">
        <ele>562.3</ele>
        <time>1970-01-01T00:58:39.000Z</time>
      </trkpt>
      <trkpt lat="41.066702" lon="-6.738037">
        <ele>562.6</ele>
        <time>1970-01-01T00:58:40.000Z</time>
      </trkpt>
      <trkpt lat="41.066669" lon="-6.73803">
        <ele>562.9</ele>
        <time>1970-01-01T00:58:41.000Z</time>
      </trkpt>
      <trkpt lat="41.066636" lon="-6.738023">
        <ele>563.2</ele>
        <time>1970-01-01T00:58:42.000Z</time>
      </trkpt>
      <trkpt lat="41.066603" lon="-6.738015">
        <ele>563.5</ele>
        <time>1970-01-01T00:58:43.000Z</time>
      </trkpt>
      <trkpt lat="41.06657" lon="-6.738007">
        <ele>563.8</ele>
        <time>1970-01-01T00:58:44.000Z</time>
      </trkpt>
      <trkpt lat="41.066538" lon="-6.737997">
        <ele>564.1</ele>
        <time>1970-01-01T00:58:45.000Z</time>
      </trkpt>
      <trkpt lat="41.066505" lon="-6.737987">
        <ele>564.4</ele>
        <time>1970-01-01T00:58:46.000Z</time>
      </trkpt>
      <trkpt lat="41.066473" lon="-6.737976">
        <ele>564.7</ele>
        <time>1970-01-01T00:58:47.000Z</time>
      </trkpt>
      <trkpt lat="41.066441" lon="-6.737964">
        <ele>565</ele>
        <time>1970-01-01T00:58:48.000Z</time>
      </trkpt>
      <trkpt lat="41.06641" lon="-6.737952">
        <ele>565.3</ele>
        <time>1970-01-01T00:58:49.000Z</time>
      </trkpt>
      <trkpt lat="41.066378" lon="-6.737941">
        <ele>565.6</ele>
        <time>1970-01-01T00:58:50.000Z</time>
      </trkpt>
      <trkpt lat="41.066346" lon="-6.737931">
        <ele>565.9</ele>
        <time>1970-01-01T00:58:51.000Z</time>
      </trkpt>
      <trkpt lat="41.066314" lon="-6.737922">
        <ele>566.2</ele>
        <time>1970-01-01T00:58:52.000Z</time>
      </trkpt>
      <trkpt lat="41.066283" lon="-6.737915">
        <ele>566.4</ele>
        <time>1970-01-01T00:58:53.000Z</time>
      </trkpt>
      <trkpt lat="41.066252" lon="-6.737909">
        <ele>566.7</ele>
        <time>1970-01-01T00:58:54.000Z</time>
      </trkpt>
      <trkpt lat="41.066222" lon="-6.737904">
        <ele>566.9</ele>
        <time>1970-01-01T00:58:55.000Z</time>
      </trkpt>
      <trkpt lat="41.066192" lon="-6.737899">
        <ele>567.2</ele>
        <time>1970-01-01T00:58:56.000Z</time>
      </trkpt>
      <trkpt lat="41.066162" lon="-6.737894">
        <ele>567.4</ele>
        <time>1970-01-01T00:58:57.000Z</time>
      </trkpt>
      <trkpt lat="41.066132" lon="-6.737887">
        <ele>567.7</ele>
        <time>1970-01-01T00:58:58.000Z</time>
      </trkpt>
      <trkpt lat="41.066102" lon="-6.73788">
        <ele>567.9</ele>
        <time>1970-01-01T00:58:59.000Z</time>
      </trkpt>
      <trkpt lat="41.066073" lon="-6.737872">
        <ele>568.2</ele>
        <time>1970-01-01T00:59:00.000Z</time>
      </trkpt>
      <trkpt lat="41.066045" lon="-6.737866">
        <ele>568.4</ele>
        <time>1970-01-01T00:59:01.000Z</time>
      </trkpt>
      <trkpt lat="41.066017" lon="-6.737861">
        <ele>568.7</ele>
        <time>1970-01-01T00:59:02.000Z</time>
      </trkpt>
      <trkpt lat="41.065991" lon="-6.737853">
        <ele>569</ele>
        <time>1970-01-01T00:59:03.000Z</time>
      </trkpt>
      <trkpt lat="41.065967" lon="-6.737844">
        <ele>569.2</ele>
        <time>1970-01-01T00:59:04.000Z</time>
      </trkpt>
      <trkpt lat="41.065943" lon="-6.737835">
        <ele>569.4</ele>
        <time>1970-01-01T00:59:05.000Z</time>
      </trkpt>
      <trkpt lat="41.065918" lon="-6.737827">
        <ele>569.7</ele>
        <time>1970-01-01T00:59:06.000Z</time>
      </trkpt>
      <trkpt lat="41.065893" lon="-6.73782">
        <ele>569.9</ele>
        <time>1970-01-01T00:59:07.000Z</time>
      </trkpt>
      <trkpt lat="41.065868" lon="-6.737813">
        <ele>570.2</ele>
        <time>1970-01-01T00:59:08.000Z</time>
      </trkpt>
      <trkpt lat="41.065844" lon="-6.737807">
        <ele>570.4</ele>
        <time>1970-01-01T00:59:09.000Z</time>
      </trkpt>
      <trkpt lat="41.065819" lon="-6.737801">
        <ele>570.7</ele>
        <time>1970-01-01T00:59:10.000Z</time>
      </trkpt>
      <trkpt lat="41.065793" lon="-6.737795">
        <ele>571</ele>
        <time>1970-01-01T00:59:11.000Z</time>
      </trkpt>
      <trkpt lat="41.065768" lon="-6.737789">
        <ele>571.3</ele>
        <time>1970-01-01T00:59:12.000Z</time>
      </trkpt>
      <trkpt lat="41.065742" lon="-6.737783">
        <ele>571.6</ele>
        <time>1970-01-01T00:59:13.000Z</time>
      </trkpt>
      <trkpt lat="41.065717" lon="-6.737776">
        <ele>571.9</ele>
        <time>1970-01-01T00:59:14.000Z</time>
      </trkpt>
      <trkpt lat="41.065691" lon="-6.73777">
        <ele>572.2</ele>
        <time>1970-01-01T00:59:15.000Z</time>
      </trkpt>
      <trkpt lat="41.065665" lon="-6.737764">
        <ele>572.6</ele>
        <time>1970-01-01T00:59:16.000Z</time>
      </trkpt>
      <trkpt lat="41.065639" lon="-6.737759">
        <ele>572.9</ele>
        <time>1970-01-01T00:59:17.000Z</time>
      </trkpt>
      <trkpt lat="41.065614" lon="-6.737753">
        <ele>573.3</ele>
        <time>1970-01-01T00:59:18.000Z</time>
      </trkpt>
      <trkpt lat="41.065588" lon="-6.737747">
        <ele>573.6</ele>
        <time>1970-01-01T00:59:19.000Z</time>
      </trkpt>
      <trkpt lat="41.065561" lon="-6.737742">
        <ele>574</ele>
        <time>1970-01-01T00:59:20.000Z</time>
      </trkpt>
      <trkpt lat="41.065535" lon="-6.737737">
        <ele>574.3</ele>
        <time>1970-01-01T00:59:21.000Z</time>
      </trkpt>
      <trkpt lat="41.065508" lon="-6.737732">
        <ele>574.6</ele>
        <time>1970-01-01T00:59:22.000Z</time>
      </trkpt>
      <trkpt lat="41.065483" lon="-6.737727">
        <ele>574.9</ele>
        <time>1970-01-01T00:59:23.000Z</time>
      </trkpt>
      <trkpt lat="41.065459" lon="-6.737721">
        <ele>575.1</ele>
        <time>1970-01-01T00:59:24.000Z</time>
      </trkpt>
      <trkpt lat="41.065434" lon="-6.737716">
        <ele>575.4</ele>
        <time>1970-01-01T00:59:25.000Z</time>
      </trkpt>
      <trkpt lat="41.06541" lon="-6.737712">
        <ele>575.6</ele>
        <time>1970-01-01T00:59:26.000Z</time>
      </trkpt>
      <trkpt lat="41.065385" lon="-6.737709">
        <ele>575.8</ele>
        <time>1970-01-01T00:59:27.000Z</time>
      </trkpt>
      <trkpt lat="41.065361" lon="-6.737704">
        <ele>576.1</ele>
        <time>1970-01-01T00:59:28.000Z</time>
      </trkpt>
      <trkpt lat="41.065336" lon="-6.737699">
        <ele>576.3</ele>
        <time>1970-01-01T00:59:29.000Z</time>
      </trkpt>
      <trkpt lat="41.065312" lon="-6.737694">
        <ele>576.5</ele>
        <time>1970-01-01T00:59:30.000Z</time>
      </trkpt>
      <trkpt lat="41.065286" lon="-6.737689">
        <ele>576.8</ele>
        <time>1970-01-01T00:59:31.000Z</time>
      </trkpt>
      <trkpt lat="41.065261" lon="-6.737685">
        <ele>577.1</ele>
        <time>1970-01-01T00:59:32.000Z</time>
      </trkpt>
      <trkpt lat="41.065236" lon="-6.737682">
        <ele>577.4</ele>
        <time>1970-01-01T00:59:33.000Z</time>
      </trkpt>
      <trkpt lat="41.06521" lon="-6.737678">
        <ele>577.7</ele>
        <time>1970-01-01T00:59:34.000Z</time>
      </trkpt>
      <trkpt lat="41.065185" lon="-6.737675">
        <ele>578</ele>
        <time>1970-01-01T00:59:35.000Z</time>
      </trkpt>
      <trkpt lat="41.06516" lon="-6.737673">
        <ele>578.3</ele>
        <time>1970-01-01T00:59:36.000Z</time>
      </trkpt>
      <trkpt lat="41.065135" lon="-6.73767">
        <ele>578.7</ele>
        <time>1970-01-01T00:59:37.000Z</time>
      </trkpt>
      <trkpt lat="41.065109" lon="-6.737667">
        <ele>579</ele>
        <time>1970-01-01T00:59:38.000Z</time>
      </trkpt>
      <trkpt lat="41.065084" lon="-6.737664">
        <ele>579.4</ele>
        <time>1970-01-01T00:59:39.000Z</time>
      </trkpt>
      <trkpt lat="41.065059" lon="-6.737661">
        <ele>579.7</ele>
        <time>1970-01-01T00:59:40.000Z</time>
      </trkpt>
      <trkpt lat="41.065034" lon="-6.737658">
        <ele>580</ele>
        <time>1970-01-01T00:59:41.000Z</time>
      </trkpt>
      <trkpt lat="41.065009" lon="-6.737655">
        <ele>580.3</ele>
        <time>1970-01-01T00:59:42.000Z</time>
      </trkpt>
      <trkpt lat="41.064984" lon="-6.737653">
        <ele>580.5</ele>
        <time>1970-01-01T00:59:43.000Z</time>
      </trkpt>
      <trkpt lat="41.064958" lon="-6.737652">
        <ele>580.7</ele>
        <time>1970-01-01T00:59:44.000Z</time>
      </trkpt>
      <trkpt lat="41.064932" lon="-6.73765">
        <ele>581</ele>
        <time>1970-01-01T00:59:45.000Z</time>
      </trkpt>
      <trkpt lat="41.064906" lon="-6.737649">
        <ele>581.1</ele>
        <time>1970-01-01T00:59:46.000Z</time>
      </trkpt>
      <trkpt lat="41.064879" lon="-6.737648">
        <ele>581.3</ele>
        <time>1970-01-01T00:59:47.000Z</time>
      </trkpt>
      <trkpt lat="41.06485" lon="-6.737648">
        <ele>581.4</ele>
        <time>1970-01-01T00:59:48.000Z</time>
      </trkpt>
      <trkpt lat="41.06482" lon="-6.737649">
        <ele>581.5</ele>
        <time>1970-01-01T00:59:49.000Z</time>
      </trkpt>
      <trkpt lat="41.06479" lon="-6.737649">
        <ele>581.6</ele>
        <time>1970-01-01T00:59:50.000Z</time>
      </trkpt>
      <trkpt lat="41.064758" lon="-6.737649">
        <ele>582</ele>
        <time>1970-01-01T00:59:51.000Z</time>
      </trkpt>
      <trkpt lat="41.064727" lon="-6.737647">
        <ele>582.4</ele>
        <time>1970-01-01T00:59:52.000Z</time>
      </trkpt>
      <trkpt lat="41.064695" lon="-6.737644">
        <ele>582.7</ele>
        <time>1970-01-01T00:59:53.000Z</time>
      </trkpt>
      <trkpt lat="41.064664" lon="-6.73764">
        <ele>582.9</ele>
        <time>1970-01-01T00:59:54.000Z</time>
      </trkpt>
      <trkpt lat="41.064632" lon="-6.737635">
        <ele>583.1</ele>
        <time>1970-01-01T00:59:55.000Z</time>
      </trkpt>
      <trkpt lat="41.0646" lon="-6.73763">
        <ele>583.2</ele>
        <time>1970-01-01T00:59:56.000Z</time>
      </trkpt>
      <trkpt lat="41.064567" lon="-6.737626">
        <ele>583.3</ele>
        <time>1970-01-01T00:59:57.000Z</time>
      </trkpt>
      <trkpt lat="41.064532" lon="-6.737621">
        <ele>583.3</ele>
        <time>1970-01-01T00:59:58.000Z</time>
      </trkpt>
      <trkpt lat="41.064499" lon="-6.737617">
        <ele>583.3</ele>
        <time>1970-01-01T00:59:59.000Z</time>
      </trkpt>
      <trkpt lat="41.064466" lon="-6.737613">
        <ele>583.3</ele>
        <time>1970-01-01T01:00:00.000Z</time>
      </trkpt>
      <trkpt lat="41.064434" lon="-6.737609">
        <ele>583.3</ele>
        <time>1970-01-01T01:00:01.000Z</time>
      </trkpt>
      <trkpt lat="41.064401" lon="-6.737606">
        <ele>583.3</ele>
        <time>1970-01-01T01:00:02.000Z</time>
      </trkpt>
      <trkpt lat="41.064365" lon="-6.737603">
        <ele>583.3</ele>
        <time>1970-01-01T01:00:03.000Z</time>
      </trkpt>
      <trkpt lat="41.064328" lon="-6.737598">
        <ele>583.3</ele>
        <time>1970-01-01T01:00:04.000Z</time>
      </trkpt>
      <trkpt lat="41.064289" lon="-6.737594">
        <ele>583.2</ele>
        <time>1970-01-01T01:00:05.000Z</time>
      </trkpt>
      <trkpt lat="41.064249" lon="-6.737589">
        <ele>583.2</ele>
        <time>1970-01-01T01:00:06.000Z</time>
      </trkpt>
      <trkpt lat="41.064208" lon="-6.737585">
        <ele>583.2</ele>
        <time>1970-01-01T01:00:07.000Z</time>
      </trkpt>
      <trkpt lat="41.064167" lon="-6.737581">
        <ele>583.1</ele>
        <time>1970-01-01T01:00:08.000Z</time>
      </trkpt>
      <trkpt lat="41.064126" lon="-6.737578">
        <ele>583.1</ele>
        <time>1970-01-01T01:00:09.000Z</time>
      </trkpt>
      <trkpt lat="41.064085" lon="-6.737573">
        <ele>583.1</ele>
        <time>1970-01-01T01:00:10.000Z</time>
      </trkpt>
      <trkpt lat="41.064042" lon="-6.737568">
        <ele>583</ele>
        <time>1970-01-01T01:00:11.000Z</time>
      </trkpt>
      <trkpt lat="41.063999" lon="-6.737562">
        <ele>583</ele>
        <time>1970-01-01T01:00:12.000Z</time>
      </trkpt>
      <trkpt lat="41.063953" lon="-6.737555">
        <ele>582.9</ele>
        <time>1970-01-01T01:00:13.000Z</time>
      </trkpt>
      <trkpt lat="41.063906" lon="-6.737547">
        <ele>582.8</ele>
        <time>1970-01-01T01:00:14.000Z</time>
      </trkpt>
      <trkpt lat="41.063856" lon="-6.737537">
        <ele>582.7</ele>
        <time>1970-01-01T01:00:15.000Z</time>
      </trkpt>
      <trkpt lat="41.063807" lon="-6.737528">
        <ele>582.6</ele>
        <time>1970-01-01T01:00:16.000Z</time>
      </trkpt>
      <trkpt lat="41.063757" lon="-6.737517">
        <ele>582.4</ele>
        <time>1970-01-01T01:00:17.000Z</time>
      </trkpt>
      <trkpt lat="41.063706" lon="-6.737507">
        <ele>582.2</ele>
        <time>1970-01-01T01:00:18.000Z</time>
      </trkpt>
      <trkpt lat="41.063656" lon="-6.737497">
        <ele>582.1</ele>
        <time>1970-01-01T01:00:19.000Z</time>
      </trkpt>
      <trkpt lat="41.063605" lon="-6.737487">
        <ele>582</ele>
        <time>1970-01-01T01:00:20.000Z</time>
      </trkpt>
      <trkpt lat="41.063553" lon="-6.737479">
        <ele>581.9</ele>
        <time>1970-01-01T01:00:21.000Z</time>
      </trkpt>
      <trkpt lat="41.063499" lon="-6.737472">
        <ele>581.8</ele>
        <time>1970-01-01T01:00:22.000Z</time>
      </trkpt>
      <trkpt lat="41.063446" lon="-6.737467">
        <ele>581.6</ele>
        <time>1970-01-01T01:00:23.000Z</time>
      </trkpt>
      <trkpt lat="41.063392" lon="-6.737464">
        <ele>581.5</ele>
        <time>1970-01-01T01:00:24.000Z</time>
      </trkpt>
      <trkpt lat="41.063337" lon="-6.737462">
        <ele>581.4</ele>
        <time>1970-01-01T01:00:25.000Z</time>
      </trkpt>
      <trkpt lat="41.063282" lon="-6.737462">
        <ele>581.3</ele>
        <time>1970-01-01T01:00:26.000Z</time>
      </trkpt>
      <trkpt lat="41.063227" lon="-6.737461">
        <ele>581.1</ele>
        <time>1970-01-01T01:00:27.000Z</time>
      </trkpt>
      <trkpt lat="41.063173" lon="-6.737461">
        <ele>580.9</ele>
        <time>1970-01-01T01:00:28.000Z</time>
      </trkpt>
      <trkpt lat="41.063119" lon="-6.73746">
        <ele>580.8</ele>
        <time>1970-01-01T01:00:29.000Z</time>
      </trkpt>
      <trkpt lat="41.063065" lon="-6.737459">
        <ele>580.7</ele>
        <time>1970-01-01T01:00:30.000Z</time>
      </trkpt>
      <trkpt lat="41.063011" lon="-6.737458">
        <ele>580.6</ele>
        <time>1970-01-01T01:00:31.000Z</time>
      </trkpt>
      <trkpt lat="41.062958" lon="-6.737457">
        <ele>580.5</ele>
        <time>1970-01-01T01:00:32.000Z</time>
      </trkpt>
      <trkpt lat="41.062904" lon="-6.737457">
        <ele>580.4</ele>
        <time>1970-01-01T01:00:33.000Z</time>
      </trkpt>
      <trkpt lat="41.062851" lon="-6.737457">
        <ele>580.3</ele>
        <time>1970-01-01T01:00:34.000Z</time>
      </trkpt>
      <trkpt lat="41.062797" lon="-6.737457">
        <ele>580.2</ele>
        <time>1970-01-01T01:00:35.000Z</time>
      </trkpt>
      <trkpt lat="41.062743" lon="-6.737458">
        <ele>580.2</ele>
        <time>1970-01-01T01:00:36.000Z</time>
      </trkpt>
      <trkpt lat="41.062688" lon="-6.737459">
        <ele>580.3</ele>
        <time>1970-01-01T01:00:37.000Z</time>
      </trkpt>
      <trkpt lat="41.062635" lon="-6.737458">
        <ele>580.3</ele>
        <time>1970-01-01T01:00:38.000Z</time>
      </trkpt>
      <trkpt lat="41.062583" lon="-6.737458">
        <ele>580.4</ele>
        <time>1970-01-01T01:00:39.000Z</time>
      </trkpt>
      <trkpt lat="41.062531" lon="-6.737458">
        <ele>580.4</ele>
        <time>1970-01-01T01:00:40.000Z</time>
      </trkpt>
      <trkpt lat="41.062479" lon="-6.73746">
        <ele>580.3</ele>
        <time>1970-01-01T01:00:41.000Z</time>
      </trkpt>
      <trkpt lat="41.062427" lon="-6.737462">
        <ele>580.2</ele>
        <time>1970-01-01T01:00:42.000Z</time>
      </trkpt>
      <trkpt lat="41.062374" lon="-6.737465">
        <ele>580.1</ele>
        <time>1970-01-01T01:00:43.000Z</time>
      </trkpt>
      <trkpt lat="41.062319" lon="-6.737466">
        <ele>579.9</ele>
        <time>1970-01-01T01:00:44.000Z</time>
      </trkpt>
      <trkpt lat="41.062262" lon="-6.737468">
        <ele>579.7</ele>
        <time>1970-01-01T01:00:45.000Z</time>
      </trkpt>
      <trkpt lat="41.062204" lon="-6.737472">
        <ele>579.5</ele>
        <time>1970-01-01T01:00:46.000Z</time>
      </trkpt>
      <trkpt lat="41.062147" lon="-6.737477">
        <ele>579.4</ele>
        <time>1970-01-01T01:00:47.000Z</time>
      </trkpt>
      <trkpt lat="41.062093" lon="-6.737481">
        <ele>579.3</ele>
        <time>1970-01-01T01:00:48.000Z</time>
      </trkpt>
      <trkpt lat="41.062042" lon="-6.737483">
        <ele>579.1</ele>
        <time>1970-01-01T01:00:49.000Z</time>
      </trkpt>
      <trkpt lat="41.061997" lon="-6.737485">
        <ele>578.9</ele>
        <time>1970-01-01T01:00:50.000Z</time>
      </trkpt>
      <trkpt lat="41.061957" lon="-6.737488">
        <ele>578.8</ele>
        <time>1970-01-01T01:00:51.000Z</time>
      </trkpt>
      <trkpt lat="41.061923" lon="-6.737496">
        <ele>578.7</ele>
        <time>1970-01-01T01:00:52.000Z</time>
      </trkpt>
      <trkpt lat="41.061892" lon="-6.737512">
        <ele>578.5</ele>
        <time>1970-01-01T01:00:53.000Z</time>
      </trkpt>
      <trkpt lat="41.061868" lon="-6.737539">
        <ele>578.2</ele>
        <time>1970-01-01T01:00:54.000Z</time>
      </trkpt>
      <trkpt lat="41.061847" lon="-6.737578">
        <ele>577.7</ele>
        <time>1970-01-01T01:00:55.000Z</time>
      </trkpt>
      <trkpt lat="41.061828" lon="-6.737628">
        <ele>577.2</ele>
        <time>1970-01-01T01:00:56.000Z</time>
      </trkpt>
      <trkpt lat="41.061806" lon="-6.737691">
        <ele>576.6</ele>
        <time>1970-01-01T01:00:57.000Z</time>
      </trkpt>
      <trkpt lat="41.061781" lon="-6.737763">
        <ele>575.9</ele>
        <time>1970-01-01T01:00:58.000Z</time>
      </trkpt>
      <trkpt lat="41.06175" lon="-6.737843">
        <ele>575.1</ele>
        <time>1970-01-01T01:00:59.000Z</time>
      </trkpt>
      <trkpt lat="41.061715" lon="-6.737927">
        <ele>574.3</ele>
        <time>1970-01-01T01:01:00.000Z</time>
      </trkpt>
      <trkpt lat="41.06168" lon="-6.738016">
        <ele>573.4</ele>
        <time>1970-01-01T01:01:01.000Z</time>
      </trkpt>
      <trkpt lat="41.061643" lon="-6.73811">
        <ele>572.4</ele>
        <time>1970-01-01T01:01:02.000Z</time>
      </trkpt>
      <trkpt lat="41.061608" lon="-6.738209">
        <ele>571.5</ele>
        <time>1970-01-01T01:01:03.000Z</time>
      </trkpt>
      <trkpt lat="41.061572" lon="-6.738314">
        <ele>570.4</ele>
        <time>1970-01-01T01:01:04.000Z</time>
      </trkpt>
      <trkpt lat="41.061535" lon="-6.73842">
        <ele>569.4</ele>
        <time>1970-01-01T01:01:05.000Z</time>
      </trkpt>
      <trkpt lat="41.0615" lon="-6.738525">
        <ele>568.4</ele>
        <time>1970-01-01T01:01:06.000Z</time>
      </trkpt>
      <trkpt lat="41.061469" lon="-6.738628">
        <ele>567.4</ele>
        <time>1970-01-01T01:01:07.000Z</time>
      </trkpt>
      <trkpt lat="41.061443" lon="-6.73873">
        <ele>566.4</ele>
        <time>1970-01-01T01:01:08.000Z</time>
      </trkpt>
      <trkpt lat="41.061431" lon="-6.738825">
        <ele>565.6</ele>
        <time>1970-01-01T01:01:09.000Z</time>
      </trkpt>
      <trkpt lat="41.061433" lon="-6.738912">
        <ele>564.8</ele>
        <time>1970-01-01T01:01:10.000Z</time>
      </trkpt>
      <trkpt lat="41.061444" lon="-6.738991">
        <ele>564.1</ele>
        <time>1970-01-01T01:01:11.000Z</time>
      </trkpt>
      <trkpt lat="41.061457" lon="-6.739064">
        <ele>563.4</ele>
        <time>1970-01-01T01:01:12.000Z</time>
      </trkpt>
      <trkpt lat="41.061469" lon="-6.739134">
        <ele>562.8</ele>
        <time>1970-01-01T01:01:13.000Z</time>
      </trkpt>
      <trkpt lat="41.061479" lon="-6.739202">
        <ele>562.2</ele>
        <time>1970-01-01T01:01:14.000Z</time>
      </trkpt>
      <trkpt lat="41.06149" lon="-6.739269">
        <ele>561.6</ele>
        <time>1970-01-01T01:01:15.000Z</time>
      </trkpt>
      <trkpt lat="41.061501" lon="-6.739334">
        <ele>561</ele>
        <time>1970-01-01T01:01:16.000Z</time>
      </trkpt>
      <trkpt lat="41.061512" lon="-6.739395">
        <ele>560.4</ele>
        <time>1970-01-01T01:01:17.000Z</time>
      </trkpt>
      <trkpt lat="41.061524" lon="-6.739452">
        <ele>559.9</ele>
        <time>1970-01-01T01:01:18.000Z</time>
      </trkpt>
      <trkpt lat="41.061535" lon="-6.739504">
        <ele>559.4</ele>
        <time>1970-01-01T01:01:19.000Z</time>
      </trkpt>
      <trkpt lat="41.061541" lon="-6.73955">
        <ele>559</ele>
        <time>1970-01-01T01:01:20.000Z</time>
      </trkpt>
      <trkpt lat="41.061539" lon="-6.739591">
        <ele>558.6</ele>
        <time>1970-01-01T01:01:21.000Z</time>
      </trkpt>
      <trkpt lat="41.061529" lon="-6.739624">
        <ele>558.3</ele>
        <time>1970-01-01T01:01:22.000Z</time>
      </trkpt>
      <trkpt lat="41.061515" lon="-6.739651">
        <ele>558</ele>
        <time>1970-01-01T01:01:23.000Z</time>
      </trkpt>
      <trkpt lat="41.061501" lon="-6.739675">
        <ele>557.8</ele>
        <time>1970-01-01T01:01:24.000Z</time>
      </trkpt>
      <trkpt lat="41.061481" lon="-6.739697">
        <ele>558</ele>
        <time>1970-01-01T01:01:25.000Z</time>
      </trkpt>
      <trkpt lat="41.061452" lon="-6.739718">
        <ele>558.2</ele>
        <time>1970-01-01T01:01:26.000Z</time>
      </trkpt>
      <trkpt lat="41.061407" lon="-6.739739">
        <ele>558.4</ele>
        <time>1970-01-01T01:01:27.000Z</time>
      </trkpt>
      <trkpt lat="41.061351" lon="-6.73976">
        <ele>558.8</ele>
        <time>1970-01-01T01:01:28.000Z</time>
      </trkpt>
      <trkpt lat="41.061287" lon="-6.739781">
        <ele>559.2</ele>
        <time>1970-01-01T01:01:29.000Z</time>
      </trkpt>
      <trkpt lat="41.061217" lon="-6.739801">
        <ele>559.6</ele>
        <time>1970-01-01T01:01:30.000Z</time>
      </trkpt>
      <trkpt lat="41.061139" lon="-6.739819">
        <ele>560.1</ele>
        <time>1970-01-01T01:01:31.000Z</time>
      </trkpt>
      <trkpt lat="41.061056" lon="-6.739835">
        <ele>560.6</ele>
        <time>1970-01-01T01:01:32.000Z</time>
      </trkpt>
      <trkpt lat="41.060973" lon="-6.739847">
        <ele>561.2</ele>
        <time>1970-01-01T01:01:33.000Z</time>
      </trkpt>
      <trkpt lat="41.060896" lon="-6.739856">
        <ele>561.6</ele>
        <time>1970-01-01T01:01:34.000Z</time>
      </trkpt>
      <trkpt lat="41.060828" lon="-6.739868">
        <ele>562.1</ele>
        <time>1970-01-01T01:01:35.000Z</time>
      </trkpt>
      <trkpt lat="41.060769" lon="-6.739888">
        <ele>562.4</ele>
        <time>1970-01-01T01:01:36.000Z</time>
      </trkpt>
      <trkpt lat="41.06072" lon="-6.739922">
        <ele>562.8</ele>
        <time>1970-01-01T01:01:37.000Z</time>
      </trkpt>
      <trkpt lat="41.06068" lon="-6.739972">
        <ele>563.1</ele>
        <time>1970-01-01T01:01:38.000Z</time>
      </trkpt>
      <trkpt lat="41.06065" lon="-6.740037">
        <ele>563.5</ele>
        <time>1970-01-01T01:01:39.000Z</time>
      </trkpt>
      <trkpt lat="41.060631" lon="-6.740114">
        <ele>563.8</ele>
        <time>1970-01-01T01:01:40.000Z</time>
      </trkpt>
      <trkpt lat="41.060617" lon="-6.740198">
        <ele>564.2</ele>
        <time>1970-01-01T01:01:41.000Z</time>
      </trkpt>
      <trkpt lat="41.060605" lon="-6.740284">
        <ele>564.6</ele>
        <time>1970-01-01T01:01:42.000Z</time>
      </trkpt>
      <trkpt lat="41.060592" lon="-6.740371">
        <ele>565</ele>
        <time>1970-01-01T01:01:43.000Z</time>
      </trkpt>
      <trkpt lat="41.060578" lon="-6.740456">
        <ele>565.4</ele>
        <time>1970-01-01T01:01:44.000Z</time>
      </trkpt>
      <trkpt lat="41.060565" lon="-6.74054">
        <ele>565.8</ele>
        <time>1970-01-01T01:01:45.000Z</time>
      </trkpt>
      <trkpt lat="41.060552" lon="-6.74062">
        <ele>566.2</ele>
        <time>1970-01-01T01:01:46.000Z</time>
      </trkpt>
      <trkpt lat="41.060538" lon="-6.740697">
        <ele>566.6</ele>
        <time>1970-01-01T01:01:47.000Z</time>
      </trkpt>
      <trkpt lat="41.060523" lon="-6.740768">
        <ele>566.9</ele>
        <time>1970-01-01T01:01:48.000Z</time>
      </trkpt>
      <trkpt lat="41.060508" lon="-6.740833">
        <ele>567.2</ele>
        <time>1970-01-01T01:01:49.000Z</time>
      </trkpt>
      <trkpt lat="41.060489" lon="-6.740892">
        <ele>567.5</ele>
        <time>1970-01-01T01:01:50.000Z</time>
      </trkpt>
      <trkpt lat="41.060469" lon="-6.740946">
        <ele>567.8</ele>
        <time>1970-01-01T01:01:51.000Z</time>
      </trkpt>
      <trkpt lat="41.060445" lon="-6.740996">
        <ele>568.1</ele>
        <time>1970-01-01T01:01:52.000Z</time>
      </trkpt>
      <trkpt lat="41.060419" lon="-6.74104">
        <ele>568.3</ele>
        <time>1970-01-01T01:01:53.000Z</time>
      </trkpt>
      <trkpt lat="41.060391" lon="-6.74108">
        <ele>568.6</ele>
        <time>1970-01-01T01:01:54.000Z</time>
      </trkpt>
      <trkpt lat="41.060362" lon="-6.741113">
        <ele>568.8</ele>
        <time>1970-01-01T01:01:55.000Z</time>
      </trkpt>
      <trkpt lat="41.060333" lon="-6.741142">
        <ele>569</ele>
        <time>1970-01-01T01:01:56.000Z</time>
      </trkpt>
      <trkpt lat="41.060304" lon="-6.741166">
        <ele>569.3</ele>
        <time>1970-01-01T01:01:57.000Z</time>
      </trkpt>
      <trkpt lat="41.060274" lon="-6.741191">
        <ele>569.5</ele>
        <time>1970-01-01T01:01:58.000Z</time>
      </trkpt>
      <trkpt lat="41.060243" lon="-6.741215">
        <ele>569.7</ele>
        <time>1970-01-01T01:01:59.000Z</time>
      </trkpt>
      <trkpt lat="41.060213" lon="-6.741238">
        <ele>569.9</ele>
        <time>1970-01-01T01:02:00.000Z</time>
      </trkpt>
      <trkpt lat="41.060182" lon="-6.741259">
        <ele>570.1</ele>
        <time>1970-01-01T01:02:01.000Z</time>
      </trkpt>
      <trkpt lat="41.060152" lon="-6.741281">
        <ele>570.3</ele>
        <time>1970-01-01T01:02:02.000Z</time>
      </trkpt>
      <trkpt lat="41.060123" lon="-6.741301">
        <ele>570.5</ele>
        <time>1970-01-01T01:02:03.000Z</time>
      </trkpt>
      <trkpt lat="41.060095" lon="-6.74132">
        <ele>570.7</ele>
        <time>1970-01-01T01:02:04.000Z</time>
      </trkpt>
      <trkpt lat="41.060067" lon="-6.741338">
        <ele>570.9</ele>
        <time>1970-01-01T01:02:05.000Z</time>
      </trkpt>
      <trkpt lat="41.06004" lon="-6.741356">
        <ele>571.1</ele>
        <time>1970-01-01T01:02:06.000Z</time>
      </trkpt>
      <trkpt lat="41.060012" lon="-6.741374">
        <ele>571.3</ele>
        <time>1970-01-01T01:02:07.000Z</time>
      </trkpt>
      <trkpt lat="41.059985" lon="-6.74139">
        <ele>571.5</ele>
        <time>1970-01-01T01:02:08.000Z</time>
      </trkpt>
      <trkpt lat="41.059958" lon="-6.741406">
        <ele>571.7</ele>
        <time>1970-01-01T01:02:09.000Z</time>
      </trkpt>
      <trkpt lat="41.059933" lon="-6.74142">
        <ele>571.8</ele>
        <time>1970-01-01T01:02:10.000Z</time>
      </trkpt>
      <trkpt lat="41.059908" lon="-6.741433">
        <ele>572</ele>
        <time>1970-01-01T01:02:11.000Z</time>
      </trkpt>
      <trkpt lat="41.059881" lon="-6.741447">
        <ele>572.2</ele>
        <time>1970-01-01T01:02:12.000Z</time>
      </trkpt>
      <trkpt lat="41.059855" lon="-6.74146">
        <ele>572.3</ele>
        <time>1970-01-01T01:02:13.000Z</time>
      </trkpt>
      <trkpt lat="41.059828" lon="-6.74147">
        <ele>572.5</ele>
        <time>1970-01-01T01:02:14.000Z</time>
      </trkpt>
      <trkpt lat="41.059802" lon="-6.74148">
        <ele>572.7</ele>
        <time>1970-01-01T01:02:15.000Z</time>
      </trkpt>
      <trkpt lat="41.059777" lon="-6.741489">
        <ele>572.8</ele>
        <time>1970-01-01T01:02:16.000Z</time>
      </trkpt>
      <trkpt lat="41.05975" lon="-6.741499">
        <ele>573</ele>
        <time>1970-01-01T01:02:17.000Z</time>
      </trkpt>
      <trkpt lat="41.059724" lon="-6.741507">
        <ele>573.2</ele>
        <time>1970-01-01T01:02:18.000Z</time>
      </trkpt>
      <trkpt lat="41.059697" lon="-6.741515">
        <ele>573.3</ele>
        <time>1970-01-01T01:02:19.000Z</time>
      </trkpt>
      <trkpt lat="41.059669" lon="-6.741522">
        <ele>573.5</ele>
        <time>1970-01-01T01:02:20.000Z</time>
      </trkpt>
      <trkpt lat="41.059642" lon="-6.741528">
        <ele>573.7</ele>
        <time>1970-01-01T01:02:21.000Z</time>
      </trkpt>
      <trkpt lat="41.059614" lon="-6.741533">
        <ele>573.8</ele>
        <time>1970-01-01T01:02:22.000Z</time>
      </trkpt>
      <trkpt lat="41.059587" lon="-6.741538">
        <ele>574</ele>
        <time>1970-01-01T01:02:23.000Z</time>
      </trkpt>
      <trkpt lat="41.05956" lon="-6.741542">
        <ele>574.2</ele>
        <time>1970-01-01T01:02:24.000Z</time>
      </trkpt>
      <trkpt lat="41.059532" lon="-6.741547">
        <ele>574.4</ele>
        <time>1970-01-01T01:02:25.000Z</time>
      </trkpt>
      <trkpt lat="41.059505" lon="-6.741552">
        <ele>574.5</ele>
        <time>1970-01-01T01:02:26.000Z</time>
      </trkpt>
      <trkpt lat="41.059478" lon="-6.741556">
        <ele>574.7</ele>
        <time>1970-01-01T01:02:27.000Z</time>
      </trkpt>
      <trkpt lat="41.059451" lon="-6.741561">
        <ele>574.9</ele>
        <time>1970-01-01T01:02:28.000Z</time>
      </trkpt>
      <trkpt lat="41.059425" lon="-6.741566">
        <ele>575</ele>
        <time>1970-01-01T01:02:29.000Z</time>
      </trkpt>
      <trkpt lat="41.059399" lon="-6.741573">
        <ele>575.2</ele>
        <time>1970-01-01T01:02:30.000Z</time>
      </trkpt>
      <trkpt lat="41.059372" lon="-6.74158">
        <ele>575.3</ele>
        <time>1970-01-01T01:02:31.000Z</time>
      </trkpt>
      <trkpt lat="41.059346" lon="-6.741588">
        <ele>575.5</ele>
        <time>1970-01-01T01:02:32.000Z</time>
      </trkpt>
      <trkpt lat="41.059321" lon="-6.741597">
        <ele>575.7</ele>
        <time>1970-01-01T01:02:33.000Z</time>
      </trkpt>
      <trkpt lat="41.059296" lon="-6.741607">
        <ele>575.8</ele>
        <time>1970-01-01T01:02:34.000Z</time>
      </trkpt>
      <trkpt lat="41.059271" lon="-6.741618">
        <ele>576</ele>
        <time>1970-01-01T01:02:35.000Z</time>
      </trkpt>
      <trkpt lat="41.059245" lon="-6.741628">
        <ele>576.2</ele>
        <time>1970-01-01T01:02:36.000Z</time>
      </trkpt>
      <trkpt lat="41.059221" lon="-6.741638">
        <ele>576.3</ele>
        <time>1970-01-01T01:02:37.000Z</time>
      </trkpt>
      <trkpt lat="41.059198" lon="-6.741647">
        <ele>576.5</ele>
        <time>1970-01-01T01:02:38.000Z</time>
      </trkpt>
      <trkpt lat="41.059176" lon="-6.741657">
        <ele>576.6</ele>
        <time>1970-01-01T01:02:39.000Z</time>
      </trkpt>
      <trkpt lat="41.059157" lon="-6.741668">
        <ele>576.7</ele>
        <time>1970-01-01T01:02:40.000Z</time>
      </trkpt>
      <trkpt lat="41.059139" lon="-6.741679">
        <ele>576.8</ele>
        <time>1970-01-01T01:02:41.000Z</time>
      </trkpt>
      <trkpt lat="41.059121" lon="-6.741691">
        <ele>577</ele>
        <time>1970-01-01T01:02:42.000Z</time>
      </trkpt>
      <trkpt lat="41.059103" lon="-6.741702">
        <ele>577.1</ele>
        <time>1970-01-01T01:02:43.000Z</time>
      </trkpt>
      <trkpt lat="41.059085" lon="-6.741715">
        <ele>577.2</ele>
        <time>1970-01-01T01:02:44.000Z</time>
      </trkpt>
      <trkpt lat="41.059068" lon="-6.741729">
        <ele>577.3</ele>
        <time>1970-01-01T01:02:45.000Z</time>
      </trkpt>
      <trkpt lat="41.05905" lon="-6.741744">
        <ele>577.5</ele>
        <time>1970-01-01T01:02:46.000Z</time>
      </trkpt>
      <trkpt lat="41.059032" lon="-6.741759">
        <ele>577.6</ele>
        <time>1970-01-01T01:02:47.000Z</time>
      </trkpt>
      <trkpt lat="41.059014" lon="-6.741775">
        <ele>577.7</ele>
        <time>1970-01-01T01:02:48.000Z</time>
      </trkpt>
      <trkpt lat="41.058996" lon="-6.741792">
        <ele>577.9</ele>
        <time>1970-01-01T01:02:49.000Z</time>
      </trkpt>
      <trkpt lat="41.05898" lon="-6.741809">
        <ele>578</ele>
        <time>1970-01-01T01:02:50.000Z</time>
      </trkpt>
      <trkpt lat="41.058963" lon="-6.741824">
        <ele>578.1</ele>
        <time>1970-01-01T01:02:51.000Z</time>
      </trkpt>
      <trkpt lat="41.058946" lon="-6.741839">
        <ele>578.2</ele>
        <time>1970-01-01T01:02:52.000Z</time>
      </trkpt>
      <trkpt lat="41.058929" lon="-6.741854">
        <ele>578.4</ele>
        <time>1970-01-01T01:02:53.000Z</time>
      </trkpt>
      <trkpt lat="41.058911" lon="-6.741868">
        <ele>578.5</ele>
        <time>1970-01-01T01:02:54.000Z</time>
      </trkpt>
      <trkpt lat="41.058893" lon="-6.741882">
        <ele>578.6</ele>
        <time>1970-01-01T01:02:55.000Z</time>
      </trkpt>
      <trkpt lat="41.058876" lon="-6.741897">
        <ele>578.7</ele>
        <time>1970-01-01T01:02:56.000Z</time>
      </trkpt>
      <trkpt lat="41.058859" lon="-6.741913">
        <ele>578.9</ele>
        <time>1970-01-01T01:02:57.000Z</time>
      </trkpt>
      <trkpt lat="41.058843" lon="-6.741928">
        <ele>579</ele>
        <time>1970-01-01T01:02:58.000Z</time>
      </trkpt>
      <trkpt lat="41.058826" lon="-6.741942">
        <ele>579.1</ele>
        <time>1970-01-01T01:02:59.000Z</time>
      </trkpt>
      <trkpt lat="41.058809" lon="-6.741956">
        <ele>579.2</ele>
        <time>1970-01-01T01:03:00.000Z</time>
      </trkpt>
      <trkpt lat="41.058793" lon="-6.74197">
        <ele>579.4</ele>
        <time>1970-01-01T01:03:01.000Z</time>
      </trkpt>
      <trkpt lat="41.058776" lon="-6.741984">
        <ele>579.5</ele>
        <time>1970-01-01T01:03:02.000Z</time>
      </trkpt>
      <trkpt lat="41.058759" lon="-6.741998">
        <ele>579.6</ele>
        <time>1970-01-01T01:03:03.000Z</time>
      </trkpt>
      <trkpt lat="41.058742" lon="-6.742011">
        <ele>579.7</ele>
        <time>1970-01-01T01:03:04.000Z</time>
      </trkpt>
      <trkpt lat="41.058725" lon="-6.742025">
        <ele>579.8</ele>
        <time>1970-01-01T01:03:05.000Z</time>
      </trkpt>
      <trkpt lat="41.058708" lon="-6.742038">
        <ele>580</ele>
        <time>1970-01-01T01:03:06.000Z</time>
      </trkpt>
      <trkpt lat="41.058691" lon="-6.74205">
        <ele>580.1</ele>
        <time>1970-01-01T01:03:07.000Z</time>
      </trkpt>
      <trkpt lat="41.058673" lon="-6.742061">
        <ele>580.2</ele>
        <time>1970-01-01T01:03:08.000Z</time>
      </trkpt>
      <trkpt lat="41.058655" lon="-6.742072">
        <ele>580.3</ele>
        <time>1970-01-01T01:03:09.000Z</time>
      </trkpt>
      <trkpt lat="41.058637" lon="-6.742083">
        <ele>580.4</ele>
        <time>1970-01-01T01:03:10.000Z</time>
      </trkpt>
      <trkpt lat="41.058618" lon="-6.742094">
        <ele>580.6</ele>
        <time>1970-01-01T01:03:11.000Z</time>
      </trkpt>
      <trkpt lat="41.0586" lon="-6.742105">
        <ele>580.7</ele>
        <time>1970-01-01T01:03:12.000Z</time>
      </trkpt>
      <trkpt lat="41.058582" lon="-6.742116">
        <ele>580.8</ele>
        <time>1970-01-01T01:03:13.000Z</time>
      </trkpt>
      <trkpt lat="41.058564" lon="-6.742127">
        <ele>580.9</ele>
        <time>1970-01-01T01:03:14.000Z</time>
      </trkpt>
      <trkpt lat="41.058545" lon="-6.742138">
        <ele>581.1</ele>
        <time>1970-01-01T01:03:15.000Z</time>
      </trkpt>
      <trkpt lat="41.058527" lon="-6.742148">
        <ele>581.2</ele>
        <time>1970-01-01T01:03:16.000Z</time>
      </trkpt>
      <trkpt lat="41.058509" lon="-6.742158">
        <ele>581.3</ele>
        <time>1970-01-01T01:03:17.000Z</time>
      </trkpt>
      <trkpt lat="41.05849" lon="-6.742168">
        <ele>581.4</ele>
        <time>1970-01-01T01:03:18.000Z</time>
      </trkpt>
      <trkpt lat="41.058471" lon="-6.742178">
        <ele>581.6</ele>
        <time>1970-01-01T01:03:19.000Z</time>
      </trkpt>
      <trkpt lat="41.058451" lon="-6.742188">
        <ele>581.7</ele>
        <time>1970-01-01T01:03:20.000Z</time>
      </trkpt>
      <trkpt lat="41.058432" lon="-6.742199">
        <ele>581.8</ele>
        <time>1970-01-01T01:03:21.000Z</time>
      </trkpt>
      <trkpt lat="41.058412" lon="-6.742208">
        <ele>581.9</ele>
        <time>1970-01-01T01:03:22.000Z</time>
      </trkpt>
      <trkpt lat="41.058391" lon="-6.742217">
        <ele>582.1</ele>
        <time>1970-01-01T01:03:23.000Z</time>
      </trkpt>
      <trkpt lat="41.058371" lon="-6.742227">
        <ele>582.2</ele>
        <time>1970-01-01T01:03:24.000Z</time>
      </trkpt>
      <trkpt lat="41.058351" lon="-6.742236">
        <ele>582.3</ele>
        <time>1970-01-01T01:03:25.000Z</time>
      </trkpt>
      <trkpt lat="41.05833" lon="-6.742245">
        <ele>582.5</ele>
        <time>1970-01-01T01:03:26.000Z</time>
      </trkpt>
      <trkpt lat="41.058309" lon="-6.742253">
        <ele>582.6</ele>
        <time>1970-01-01T01:03:27.000Z</time>
      </trkpt>
      <trkpt lat="41.058287" lon="-6.742261">
        <ele>582.7</ele>
        <time>1970-01-01T01:03:28.000Z</time>
      </trkpt>
      <trkpt lat="41.058264" lon="-6.742268">
        <ele>582.9</ele>
        <time>1970-01-01T01:03:29.000Z</time>
      </trkpt>
      <trkpt lat="41.058242" lon="-6.742275">
        <ele>583</ele>
        <time>1970-01-01T01:03:30.000Z</time>
      </trkpt>
      <trkpt lat="41.058219" lon="-6.742281">
        <ele>583.2</ele>
        <time>1970-01-01T01:03:31.000Z</time>
      </trkpt>
      <trkpt lat="41.058198" lon="-6.742288">
        <ele>583.3</ele>
        <time>1970-01-01T01:03:32.000Z</time>
      </trkpt>
      <trkpt lat="41.058177" lon="-6.742294">
        <ele>583.4</ele>
        <time>1970-01-01T01:03:33.000Z</time>
      </trkpt>
      <trkpt lat="41.058156" lon="-6.7423">
        <ele>583.6</ele>
        <time>1970-01-01T01:03:34.000Z</time>
      </trkpt>
      <trkpt lat="41.058134" lon="-6.742303">
        <ele>583.7</ele>
        <time>1970-01-01T01:03:35.000Z</time>
      </trkpt>
      <trkpt lat="41.058113" lon="-6.742306">
        <ele>583.8</ele>
        <time>1970-01-01T01:03:36.000Z</time>
      </trkpt>
      <trkpt lat="41.058091" lon="-6.742309">
        <ele>584</ele>
        <time>1970-01-01T01:03:37.000Z</time>
      </trkpt>
      <trkpt lat="41.05807" lon="-6.742312">
        <ele>584.1</ele>
        <time>1970-01-01T01:03:38.000Z</time>
      </trkpt>
      <trkpt lat="41.058049" lon="-6.742316">
        <ele>584.2</ele>
        <time>1970-01-01T01:03:39.000Z</time>
      </trkpt>
      <trkpt lat="41.058028" lon="-6.742319">
        <ele>584.4</ele>
        <time>1970-01-01T01:03:40.000Z</time>
      </trkpt>
      <trkpt lat="41.058008" lon="-6.742322">
        <ele>584.5</ele>
        <time>1970-01-01T01:03:41.000Z</time>
      </trkpt>
      <trkpt lat="41.057987" lon="-6.742324">
        <ele>584.6</ele>
        <time>1970-01-01T01:03:42.000Z</time>
      </trkpt>
      <trkpt lat="41.057967" lon="-6.742325">
        <ele>584.7</ele>
        <time>1970-01-01T01:03:43.000Z</time>
      </trkpt>
      <trkpt lat="41.057946" lon="-6.742323">
        <ele>584.9</ele>
        <time>1970-01-01T01:03:44.000Z</time>
      </trkpt>
      <trkpt lat="41.057925" lon="-6.742321">
        <ele>585</ele>
        <time>1970-01-01T01:03:45.000Z</time>
      </trkpt>
      <trkpt lat="41.057905" lon="-6.742318">
        <ele>585.1</ele>
        <time>1970-01-01T01:03:46.000Z</time>
      </trkpt>
      <trkpt lat="41.057884" lon="-6.742314">
        <ele>585.2</ele>
        <time>1970-01-01T01:03:47.000Z</time>
      </trkpt>
      <trkpt lat="41.057863" lon="-6.742307">
        <ele>585.4</ele>
        <time>1970-01-01T01:03:48.000Z</time>
      </trkpt>
      <trkpt lat="41.057843" lon="-6.742299">
        <ele>585.5</ele>
        <time>1970-01-01T01:03:49.000Z</time>
      </trkpt>
      <trkpt lat="41.057823" lon="-6.742292">
        <ele>585.6</ele>
        <time>1970-01-01T01:03:50.000Z</time>
      </trkpt>
      <trkpt lat="41.057803" lon="-6.742285">
        <ele>585.8</ele>
        <time>1970-01-01T01:03:51.000Z</time>
      </trkpt>
      <trkpt lat="41.057783" lon="-6.742278">
        <ele>585.9</ele>
        <time>1970-01-01T01:03:52.000Z</time>
      </trkpt>
      <trkpt lat="41.057763" lon="-6.742271">
        <ele>586</ele>
        <time>1970-01-01T01:03:53.000Z</time>
      </trkpt>
      <trkpt lat="41.057743" lon="-6.742264">
        <ele>586.1</ele>
        <time>1970-01-01T01:03:54.000Z</time>
      </trkpt>
      <trkpt lat="41.057724" lon="-6.742256">
        <ele>586.3</ele>
        <time>1970-01-01T01:03:55.000Z</time>
      </trkpt>
      <trkpt lat="41.057706" lon="-6.742246">
        <ele>586.4</ele>
        <time>1970-01-01T01:03:56.000Z</time>
      </trkpt>
      <trkpt lat="41.057688" lon="-6.742235">
        <ele>586.5</ele>
        <time>1970-01-01T01:03:57.000Z</time>
      </trkpt>
      <trkpt lat="41.057672" lon="-6.742222">
        <ele>586.6</ele>
        <time>1970-01-01T01:03:58.000Z</time>
      </trkpt>
      <trkpt lat="41.057656" lon="-6.742209">
        <ele>586.7</ele>
        <time>1970-01-01T01:03:59.000Z</time>
      </trkpt>
      <trkpt lat="41.057639" lon="-6.742196">
        <ele>586.9</ele>
        <time>1970-01-01T01:04:00.000Z</time>
      </trkpt>
      <trkpt lat="41.057622" lon="-6.742185">
        <ele>587</ele>
        <time>1970-01-01T01:04:01.000Z</time>
      </trkpt>
      <trkpt lat="41.057605" lon="-6.742175">
        <ele>587.1</ele>
        <time>1970-01-01T01:04:02.000Z</time>
      </trkpt>
      <trkpt lat="41.057589" lon="-6.742165">
        <ele>587.2</ele>
        <time>1970-01-01T01:04:03.000Z</time>
      </trkpt>
      <trkpt lat="41.057574" lon="-6.742154">
        <ele>587.3</ele>
        <time>1970-01-01T01:04:04.000Z</time>
      </trkpt>
      <trkpt lat="41.057558" lon="-6.742143">
        <ele>587.4</ele>
        <time>1970-01-01T01:04:05.000Z</time>
      </trkpt>
      <trkpt lat="41.057542" lon="-6.742132">
        <ele>587.5</ele>
        <time>1970-01-01T01:04:06.000Z</time>
      </trkpt>
      <trkpt lat="41.057527" lon="-6.742122">
        <ele>587.6</ele>
        <time>1970-01-01T01:04:07.000Z</time>
      </trkpt>
      <trkpt lat="41.05751" lon="-6.742113">
        <ele>587.7</ele>
        <time>1970-01-01T01:04:08.000Z</time>
      </trkpt>
      <trkpt lat="41.057493" lon="-6.742104">
        <ele>587.8</ele>
        <time>1970-01-01T01:04:09.000Z</time>
      </trkpt>
      <trkpt lat="41.057476" lon="-6.742094">
        <ele>588</ele>
        <time>1970-01-01T01:04:10.000Z</time>
      </trkpt>
      <trkpt lat="41.057458" lon="-6.742081">
        <ele>588.1</ele>
        <time>1970-01-01T01:04:11.000Z</time>
      </trkpt>
      <trkpt lat="41.05744" lon="-6.742068">
        <ele>588.2</ele>
        <time>1970-01-01T01:04:12.000Z</time>
      </trkpt>
      <trkpt lat="41.057422" lon="-6.742056">
        <ele>588.3</ele>
        <time>1970-01-01T01:04:13.000Z</time>
      </trkpt>
      <trkpt lat="41.057404" lon="-6.742044">
        <ele>588.5</ele>
        <time>1970-01-01T01:04:14.000Z</time>
      </trkpt>
      <trkpt lat="41.057387" lon="-6.742033">
        <ele>588.6</ele>
        <time>1970-01-01T01:04:15.000Z</time>
      </trkpt>
      <trkpt lat="41.057369" lon="-6.742022">
        <ele>588.7</ele>
        <time>1970-01-01T01:04:16.000Z</time>
      </trkpt>
      <trkpt lat="41.057351" lon="-6.742012">
        <ele>588.8</ele>
        <time>1970-01-01T01:04:17.000Z</time>
      </trkpt>
      <trkpt lat="41.057333" lon="-6.742002">
        <ele>588.9</ele>
        <time>1970-01-01T01:04:18.000Z</time>
      </trkpt>
      <trkpt lat="41.057314" lon="-6.74199">
        <ele>589.1</ele>
        <time>1970-01-01T01:04:19.000Z</time>
      </trkpt>
      <trkpt lat="41.057296" lon="-6.741979">
        <ele>589.2</ele>
        <time>1970-01-01T01:04:20.000Z</time>
      </trkpt>
      <trkpt lat="41.057279" lon="-6.741968">
        <ele>589.3</ele>
        <time>1970-01-01T01:04:21.000Z</time>
      </trkpt>
      <trkpt lat="41.057261" lon="-6.741956">
        <ele>589.4</ele>
        <time>1970-01-01T01:04:22.000Z</time>
      </trkpt>
      <trkpt lat="41.057243" lon="-6.741944">
        <ele>589.5</ele>
        <time>1970-01-01T01:04:23.000Z</time>
      </trkpt>
      <trkpt lat="41.057225" lon="-6.741932">
        <ele>589.7</ele>
        <time>1970-01-01T01:04:24.000Z</time>
      </trkpt>
      <trkpt lat="41.057207" lon="-6.74192">
        <ele>589.8</ele>
        <time>1970-01-01T01:04:25.000Z</time>
      </trkpt>
      <trkpt lat="41.057191" lon="-6.741904">
        <ele>589.9</ele>
        <time>1970-01-01T01:04:26.000Z</time>
      </trkpt>
      <trkpt lat="41.057176" lon="-6.741885">
        <ele>590</ele>
        <time>1970-01-01T01:04:27.000Z</time>
      </trkpt>
      <trkpt lat="41.057161" lon="-6.741866">
        <ele>590.2</ele>
        <time>1970-01-01T01:04:28.000Z</time>
      </trkpt>
      <trkpt lat="41.057144" lon="-6.741849">
        <ele>590.3</ele>
        <time>1970-01-01T01:04:29.000Z</time>
      </trkpt>
      <trkpt lat="41.057124" lon="-6.741836">
        <ele>590.4</ele>
        <time>1970-01-01T01:04:30.000Z</time>
      </trkpt>
      <trkpt lat="41.057105" lon="-6.741823">
        <ele>590.6</ele>
        <time>1970-01-01T01:04:31.000Z</time>
      </trkpt>
      <trkpt lat="41.057086" lon="-6.741811">
        <ele>590.7</ele>
        <time>1970-01-01T01:04:32.000Z</time>
      </trkpt>
      <trkpt lat="41.057067" lon="-6.741799">
        <ele>590.8</ele>
        <time>1970-01-01T01:04:33.000Z</time>
      </trkpt>
      <trkpt lat="41.057048" lon="-6.741786">
        <ele>591</ele>
        <time>1970-01-01T01:04:34.000Z</time>
      </trkpt>
      <trkpt lat="41.05703" lon="-6.741774">
        <ele>591.1</ele>
        <time>1970-01-01T01:04:35.000Z</time>
      </trkpt>
      <trkpt lat="41.057012" lon="-6.741761">
        <ele>591.2</ele>
        <time>1970-01-01T01:04:36.000Z</time>
      </trkpt>
      <trkpt lat="41.056994" lon="-6.741748">
        <ele>591.3</ele>
        <time>1970-01-01T01:04:37.000Z</time>
      </trkpt>
      <trkpt lat="41.056975" lon="-6.741734">
        <ele>591.5</ele>
        <time>1970-01-01T01:04:38.000Z</time>
      </trkpt>
      <trkpt lat="41.056956" lon="-6.741721">
        <ele>591.6</ele>
        <time>1970-01-01T01:04:39.000Z</time>
      </trkpt>
      <trkpt lat="41.056937" lon="-6.741709">
        <ele>591.7</ele>
        <time>1970-01-01T01:04:40.000Z</time>
      </trkpt>
      <trkpt lat="41.056919" lon="-6.741696">
        <ele>591.8</ele>
        <time>1970-01-01T01:04:41.000Z</time>
      </trkpt>
      <trkpt lat="41.0569" lon="-6.741685">
        <ele>592</ele>
        <time>1970-01-01T01:04:42.000Z</time>
      </trkpt>
      <trkpt lat="41.056882" lon="-6.741672">
        <ele>592.1</ele>
        <time>1970-01-01T01:04:43.000Z</time>
      </trkpt>
      <trkpt lat="41.056864" lon="-6.74166">
        <ele>592.2</ele>
        <time>1970-01-01T01:04:44.000Z</time>
      </trkpt>
      <trkpt lat="41.056846" lon="-6.741648">
        <ele>592.3</ele>
        <time>1970-01-01T01:04:45.000Z</time>
      </trkpt>
      <trkpt lat="41.056828" lon="-6.741638">
        <ele>592.5</ele>
        <time>1970-01-01T01:04:46.000Z</time>
      </trkpt>
      <trkpt lat="41.05681" lon="-6.741627">
        <ele>592.6</ele>
        <time>1970-01-01T01:04:47.000Z</time>
      </trkpt>
      <trkpt lat="41.056792" lon="-6.741617">
        <ele>592.7</ele>
        <time>1970-01-01T01:04:48.000Z</time>
      </trkpt>
      <trkpt lat="41.056774" lon="-6.741605">
        <ele>592.8</ele>
        <time>1970-01-01T01:04:49.000Z</time>
      </trkpt>
      <trkpt lat="41.056757" lon="-6.741594">
        <ele>592.9</ele>
        <time>1970-01-01T01:04:50.000Z</time>
      </trkpt>
      <trkpt lat="41.056739" lon="-6.741582">
        <ele>593.1</ele>
        <time>1970-01-01T01:04:51.000Z</time>
      </trkpt>
      <trkpt lat="41.056723" lon="-6.74157">
        <ele>593.2</ele>
        <time>1970-01-01T01:04:52.000Z</time>
      </trkpt>
      <trkpt lat="41.056706" lon="-6.741558">
        <ele>593.3</ele>
        <time>1970-01-01T01:04:53.000Z</time>
      </trkpt>
      <trkpt lat="41.056689" lon="-6.741546">
        <ele>593.4</ele>
        <time>1970-01-01T01:04:54.000Z</time>
      </trkpt>
      <trkpt lat="41.056672" lon="-6.741534">
        <ele>593.5</ele>
        <time>1970-01-01T01:04:55.000Z</time>
      </trkpt>
      <trkpt lat="41.056655" lon="-6.741523">
        <ele>593.6</ele>
        <time>1970-01-01T01:04:56.000Z</time>
      </trkpt>
      <trkpt lat="41.056638" lon="-6.74151">
        <ele>593.8</ele>
        <time>1970-01-01T01:04:57.000Z</time>
      </trkpt>
      <trkpt lat="41.056621" lon="-6.741497">
        <ele>593.9</ele>
        <time>1970-01-01T01:04:58.000Z</time>
      </trkpt>
      <trkpt lat="41.056605" lon="-6.741485">
        <ele>594</ele>
        <time>1970-01-01T01:04:59.000Z</time>
      </trkpt>
      <trkpt lat="41.056588" lon="-6.741473">
        <ele>594.1</ele>
        <time>1970-01-01T01:05:00.000Z</time>
      </trkpt>
      <trkpt lat="41.056571" lon="-6.741463">
        <ele>594.2</ele>
        <time>1970-01-01T01:05:01.000Z</time>
      </trkpt>
      <trkpt lat="41.056554" lon="-6.741453">
        <ele>594.3</ele>
        <time>1970-01-01T01:05:02.000Z</time>
      </trkpt>
      <trkpt lat="41.056537" lon="-6.741443">
        <ele>594.5</ele>
        <time>1970-01-01T01:05:03.000Z</time>
      </trkpt>
      <trkpt lat="41.056521" lon="-6.741432">
        <ele>594.6</ele>
        <time>1970-01-01T01:05:04.000Z</time>
      </trkpt>
      <trkpt lat="41.056504" lon="-6.741421">
        <ele>594.7</ele>
        <time>1970-01-01T01:05:05.000Z</time>
      </trkpt>
      <trkpt lat="41.056487" lon="-6.741411">
        <ele>594.8</ele>
        <time>1970-01-01T01:05:06.000Z</time>
      </trkpt>
      <trkpt lat="41.05647" lon="-6.741402">
        <ele>594.9</ele>
        <time>1970-01-01T01:05:07.000Z</time>
      </trkpt>
      <trkpt lat="41.056454" lon="-6.741391">
        <ele>595</ele>
        <time>1970-01-01T01:05:08.000Z</time>
      </trkpt>
      <trkpt lat="41.056438" lon="-6.741378">
        <ele>595.1</ele>
        <time>1970-01-01T01:05:09.000Z</time>
      </trkpt>
      <trkpt lat="41.056422" lon="-6.741365">
        <ele>595.3</ele>
        <time>1970-01-01T01:05:10.000Z</time>
      </trkpt>
      <trkpt lat="41.056405" lon="-6.741353">
        <ele>595.4</ele>
        <time>1970-01-01T01:05:11.000Z</time>
      </trkpt>
      <trkpt lat="41.056387" lon="-6.741342">
        <ele>595.5</ele>
        <time>1970-01-01T01:05:12.000Z</time>
      </trkpt>
      <trkpt lat="41.05637" lon="-6.741332">
        <ele>595.6</ele>
        <time>1970-01-01T01:05:13.000Z</time>
      </trkpt>
      <trkpt lat="41.056353" lon="-6.741321">
        <ele>595.7</ele>
        <time>1970-01-01T01:05:14.000Z</time>
      </trkpt>
      <trkpt lat="41.056336" lon="-6.741309">
        <ele>595.8</ele>
        <time>1970-01-01T01:05:15.000Z</time>
      </trkpt>
      <trkpt lat="41.056319" lon="-6.741297">
        <ele>596</ele>
        <time>1970-01-01T01:05:16.000Z</time>
      </trkpt>
      <trkpt lat="41.056302" lon="-6.741285">
        <ele>596.1</ele>
        <time>1970-01-01T01:05:17.000Z</time>
      </trkpt>
      <trkpt lat="41.056285" lon="-6.741273">
        <ele>596.2</ele>
        <time>1970-01-01T01:05:18.000Z</time>
      </trkpt>
      <trkpt lat="41.056268" lon="-6.741262">
        <ele>596.3</ele>
        <time>1970-01-01T01:05:19.000Z</time>
      </trkpt>
      <trkpt lat="41.056251" lon="-6.741251">
        <ele>596.4</ele>
        <time>1970-01-01T01:05:20.000Z</time>
      </trkpt>
      <trkpt lat="41.056233" lon="-6.741241">
        <ele>596.5</ele>
        <time>1970-01-01T01:05:21.000Z</time>
      </trkpt>
      <trkpt lat="41.056215" lon="-6.741232">
        <ele>596.7</ele>
        <time>1970-01-01T01:05:22.000Z</time>
      </trkpt>
      <trkpt lat="41.056198" lon="-6.741223">
        <ele>596.8</ele>
        <time>1970-01-01T01:05:23.000Z</time>
      </trkpt>
      <trkpt lat="41.056181" lon="-6.741214">
        <ele>596.9</ele>
        <time>1970-01-01T01:05:24.000Z</time>
      </trkpt>
      <trkpt lat="41.056165" lon="-6.741204">
        <ele>597</ele>
        <time>1970-01-01T01:05:25.000Z</time>
      </trkpt>
      <trkpt lat="41.056149" lon="-6.741194">
        <ele>597.1</ele>
        <time>1970-01-01T01:05:26.000Z</time>
      </trkpt>
      <trkpt lat="41.056132" lon="-6.741185">
        <ele>597.2</ele>
        <time>1970-01-01T01:05:27.000Z</time>
      </trkpt>
      <trkpt lat="41.056116" lon="-6.741176">
        <ele>597.3</ele>
        <time>1970-01-01T01:05:28.000Z</time>
      </trkpt>
      <trkpt lat="41.0561" lon="-6.741168">
        <ele>597.4</ele>
        <time>1970-01-01T01:05:29.000Z</time>
      </trkpt>
      <trkpt lat="41.056084" lon="-6.74116">
        <ele>597.5</ele>
        <time>1970-01-01T01:05:30.000Z</time>
      </trkpt>
      <trkpt lat="41.056068" lon="-6.74115">
        <ele>597.6</ele>
        <time>1970-01-01T01:05:31.000Z</time>
      </trkpt>
      <trkpt lat="41.056052" lon="-6.741139">
        <ele>597.8</ele>
        <time>1970-01-01T01:05:32.000Z</time>
      </trkpt>
      <trkpt lat="41.056035" lon="-6.741129">
        <ele>597.9</ele>
        <time>1970-01-01T01:05:33.000Z</time>
      </trkpt>
      <trkpt lat="41.056018" lon="-6.741119">
        <ele>598</ele>
        <time>1970-01-01T01:05:34.000Z</time>
      </trkpt>
      <trkpt lat="41.056001" lon="-6.741109">
        <ele>598.1</ele>
        <time>1970-01-01T01:05:35.000Z</time>
      </trkpt>
      <trkpt lat="41.055984" lon="-6.741098">
        <ele>598.2</ele>
        <time>1970-01-01T01:05:36.000Z</time>
      </trkpt>
      <trkpt lat="41.055968" lon="-6.741087">
        <ele>598.3</ele>
        <time>1970-01-01T01:05:37.000Z</time>
      </trkpt>
      <trkpt lat="41.055952" lon="-6.741076">
        <ele>598.4</ele>
        <time>1970-01-01T01:05:38.000Z</time>
      </trkpt>
      <trkpt lat="41.055935" lon="-6.741064">
        <ele>598.5</ele>
        <time>1970-01-01T01:05:39.000Z</time>
      </trkpt>
      <trkpt lat="41.055919" lon="-6.741053">
        <ele>598.7</ele>
        <time>1970-01-01T01:05:40.000Z</time>
      </trkpt>
      <trkpt lat="41.055901" lon="-6.741043">
        <ele>598.8</ele>
        <time>1970-01-01T01:05:41.000Z</time>
      </trkpt>
      <trkpt lat="41.055884" lon="-6.741033">
        <ele>598.9</ele>
        <time>1970-01-01T01:05:42.000Z</time>
      </trkpt>
      <trkpt lat="41.055867" lon="-6.741022">
        <ele>599</ele>
        <time>1970-01-01T01:05:43.000Z</time>
      </trkpt>
      <trkpt lat="41.05585" lon="-6.741011">
        <ele>599.1</ele>
        <time>1970-01-01T01:05:44.000Z</time>
      </trkpt>
      <trkpt lat="41.055833" lon="-6.741">
        <ele>599.2</ele>
        <time>1970-01-01T01:05:45.000Z</time>
      </trkpt>
      <trkpt lat="41.055817" lon="-6.740988">
        <ele>599.4</ele>
        <time>1970-01-01T01:05:46.000Z</time>
      </trkpt>
      <trkpt lat="41.0558" lon="-6.740976">
        <ele>599.5</ele>
        <time>1970-01-01T01:05:47.000Z</time>
      </trkpt>
      <trkpt lat="41.055783" lon="-6.740964">
        <ele>599.6</ele>
        <time>1970-01-01T01:05:48.000Z</time>
      </trkpt>
      <trkpt lat="41.055766" lon="-6.740952">
        <ele>599.7</ele>
        <time>1970-01-01T01:05:49.000Z</time>
      </trkpt>
      <trkpt lat="41.055748" lon="-6.740941">
        <ele>599.8</ele>
        <time>1970-01-01T01:05:50.000Z</time>
      </trkpt>
      <trkpt lat="41.055731" lon="-6.74093">
        <ele>599.9</ele>
        <time>1970-01-01T01:05:51.000Z</time>
      </trkpt>
      <trkpt lat="41.055714" lon="-6.740921">
        <ele>600</ele>
        <time>1970-01-01T01:05:52.000Z</time>
      </trkpt>
      <trkpt lat="41.055696" lon="-6.740912">
        <ele>600.1</ele>
        <time>1970-01-01T01:05:53.000Z</time>
      </trkpt>
      <trkpt lat="41.055678" lon="-6.740903">
        <ele>600.3</ele>
        <time>1970-01-01T01:05:54.000Z</time>
      </trkpt>
      <trkpt lat="41.05566" lon="-6.740893">
        <ele>600.4</ele>
        <time>1970-01-01T01:05:55.000Z</time>
      </trkpt>
      <trkpt lat="41.055642" lon="-6.740882">
        <ele>600.5</ele>
        <time>1970-01-01T01:05:56.000Z</time>
      </trkpt>
      <trkpt lat="41.055623" lon="-6.740874">
        <ele>600.6</ele>
        <time>1970-01-01T01:05:57.000Z</time>
      </trkpt>
      <trkpt lat="41.055604" lon="-6.740867">
        <ele>600.7</ele>
        <time>1970-01-01T01:05:58.000Z</time>
      </trkpt>
      <trkpt lat="41.055584" lon="-6.740863">
        <ele>600.9</ele>
        <time>1970-01-01T01:05:59.000Z</time>
      </trkpt>
      <trkpt lat="41.055565" lon="-6.740863">
        <ele>601</ele>
        <time>1970-01-01T01:06:00.000Z</time>
      </trkpt>
      <trkpt lat="41.055547" lon="-6.74087">
        <ele>601.3</ele>
        <time>1970-01-01T01:06:01.000Z</time>
      </trkpt>
      <trkpt lat="41.05553" lon="-6.740885">
        <ele>601.9</ele>
        <time>1970-01-01T01:06:02.000Z</time>
      </trkpt>
      <trkpt lat="41.055514" lon="-6.740904">
        <ele>602.1</ele>
        <time>1970-01-01T01:06:03.000Z</time>
      </trkpt>
      <trkpt lat="41.055499" lon="-6.740926">
        <ele>602.3</ele>
        <time>1970-01-01T01:06:04.000Z</time>
      </trkpt>
      <trkpt lat="41.055485" lon="-6.740951">
        <ele>602.5</ele>
        <time>1970-01-01T01:06:05.000Z</time>
      </trkpt>
      <trkpt lat="41.055471" lon="-6.740981">
        <ele>602.6</ele>
        <time>1970-01-01T01:06:06.000Z</time>
      </trkpt>
      <trkpt lat="41.055457" lon="-6.741017">
        <ele>602.8</ele>
        <time>1970-01-01T01:06:07.000Z</time>
      </trkpt>
      <trkpt lat="41.055442" lon="-6.741057">
        <ele>602.9</ele>
        <time>1970-01-01T01:06:08.000Z</time>
      </trkpt>
      <trkpt lat="41.055426" lon="-6.741098">
        <ele>603</ele>
        <time>1970-01-01T01:06:09.000Z</time>
      </trkpt>
      <trkpt lat="41.055409" lon="-6.741138">
        <ele>603</ele>
        <time>1970-01-01T01:06:10.000Z</time>
      </trkpt>
      <trkpt lat="41.055392" lon="-6.741177">
        <ele>603.1</ele>
        <time>1970-01-01T01:06:11.000Z</time>
      </trkpt>
      <trkpt lat="41.055375" lon="-6.741216">
        <ele>603.1</ele>
        <time>1970-01-01T01:06:12.000Z</time>
      </trkpt>
      <trkpt lat="41.055358" lon="-6.741258">
        <ele>603.1</ele>
        <time>1970-01-01T01:06:13.000Z</time>
      </trkpt>
      <trkpt lat="41.055339" lon="-6.741302">
        <ele>603.1</ele>
        <time>1970-01-01T01:06:14.000Z</time>
      </trkpt>
      <trkpt lat="41.05532" lon="-6.741347">
        <ele>603.1</ele>
        <time>1970-01-01T01:06:15.000Z</time>
      </trkpt>
      <trkpt lat="41.0553" lon="-6.741392">
        <ele>603.1</ele>
        <time>1970-01-01T01:06:16.000Z</time>
      </trkpt>
      <trkpt lat="41.055282" lon="-6.741437">
        <ele>603.1</ele>
        <time>1970-01-01T01:06:17.000Z</time>
      </trkpt>
      <trkpt lat="41.055264" lon="-6.741479">
        <ele>603.1</ele>
        <time>1970-01-01T01:06:18.000Z</time>
      </trkpt>
      <trkpt lat="41.055247" lon="-6.741521">
        <ele>603.1</ele>
        <time>1970-01-01T01:06:19.000Z</time>
      </trkpt>
      <trkpt lat="41.05523" lon="-6.741562">
        <ele>603.1</ele>
        <time>1970-01-01T01:06:20.000Z</time>
      </trkpt>
      <trkpt lat="41.055214" lon="-6.741605">
        <ele>603.1</ele>
        <time>1970-01-01T01:06:21.000Z</time>
      </trkpt>
      <trkpt lat="41.055196" lon="-6.741649">
        <ele>603.2</ele>
        <time>1970-01-01T01:06:22.000Z</time>
      </trkpt>
      <trkpt lat="41.055178" lon="-6.741693">
        <ele>603.2</ele>
        <time>1970-01-01T01:06:23.000Z</time>
      </trkpt>
      <trkpt lat="41.05516" lon="-6.741736">
        <ele>603.3</ele>
        <time>1970-01-01T01:06:24.000Z</time>
      </trkpt>
      <trkpt lat="41.055141" lon="-6.741779">
        <ele>603.3</ele>
        <time>1970-01-01T01:06:25.000Z</time>
      </trkpt>
      <trkpt lat="41.05512" lon="-6.74182">
        <ele>603.4</ele>
        <time>1970-01-01T01:06:26.000Z</time>
      </trkpt>
      <trkpt lat="41.055099" lon="-6.74186">
        <ele>603.5</ele>
        <time>1970-01-01T01:06:27.000Z</time>
      </trkpt>
      <trkpt lat="41.055078" lon="-6.741901">
        <ele>603.6</ele>
        <time>1970-01-01T01:06:28.000Z</time>
      </trkpt>
      <trkpt lat="41.055059" lon="-6.741942">
        <ele>603.7</ele>
        <time>1970-01-01T01:06:29.000Z</time>
      </trkpt>
      <trkpt lat="41.055042" lon="-6.741984">
        <ele>603.7</ele>
        <time>1970-01-01T01:06:30.000Z</time>
      </trkpt>
      <trkpt lat="41.055026" lon="-6.742026">
        <ele>603.8</ele>
        <time>1970-01-01T01:06:31.000Z</time>
      </trkpt>
      <trkpt lat="41.055009" lon="-6.742066">
        <ele>603.9</ele>
        <time>1970-01-01T01:06:32.000Z</time>
      </trkpt>
      <trkpt lat="41.05499" lon="-6.742106">
        <ele>604</ele>
        <time>1970-01-01T01:06:33.000Z</time>
      </trkpt>
      <trkpt lat="41.054969" lon="-6.742146">
        <ele>604.1</ele>
        <time>1970-01-01T01:06:34.000Z</time>
      </trkpt>
      <trkpt lat="41.054948" lon="-6.742187">
        <ele>604.2</ele>
        <time>1970-01-01T01:06:35.000Z</time>
      </trkpt>
      <trkpt lat="41.054925" lon="-6.742229">
        <ele>604.3</ele>
        <time>1970-01-01T01:06:36.000Z</time>
      </trkpt>
      <trkpt lat="41.054902" lon="-6.742272">
        <ele>604.4</ele>
        <time>1970-01-01T01:06:37.000Z</time>
      </trkpt>
      <trkpt lat="41.054879" lon="-6.742314">
        <ele>604.5</ele>
        <time>1970-01-01T01:06:38.000Z</time>
      </trkpt>
      <trkpt lat="41.054856" lon="-6.742355">
        <ele>604.6</ele>
        <time>1970-01-01T01:06:39.000Z</time>
      </trkpt>
      <trkpt lat="41.054832" lon="-6.742395">
        <ele>604.7</ele>
        <time>1970-01-01T01:06:40.000Z</time>
      </trkpt>
      <trkpt lat="41.054806" lon="-6.742434">
        <ele>604.8</ele>
        <time>1970-01-01T01:06:41.000Z</time>
      </trkpt>
      <trkpt lat="41.054779" lon="-6.742472">
        <ele>604.9</ele>
        <time>1970-01-01T01:06:42.000Z</time>
      </trkpt>
      <trkpt lat="41.054752" lon="-6.742511">
        <ele>605</ele>
        <time>1970-01-01T01:06:43.000Z</time>
      </trkpt>
      <trkpt lat="41.054727" lon="-6.74255">
        <ele>605.1</ele>
        <time>1970-01-01T01:06:44.000Z</time>
      </trkpt>
      <trkpt lat="41.054703" lon="-6.742587">
        <ele>605.2</ele>
        <time>1970-01-01T01:06:45.000Z</time>
      </trkpt>
      <trkpt lat="41.054678" lon="-6.742623">
        <ele>605.3</ele>
        <time>1970-01-01T01:06:46.000Z</time>
      </trkpt>
      <trkpt lat="41.054653" lon="-6.742657">
        <ele>605.4</ele>
        <time>1970-01-01T01:06:47.000Z</time>
      </trkpt>
      <trkpt lat="41.054626" lon="-6.742691">
        <ele>605.4</ele>
        <time>1970-01-01T01:06:48.000Z</time>
      </trkpt>
      <trkpt lat="41.054599" lon="-6.742723">
        <ele>605.5</ele>
        <time>1970-01-01T01:06:49.000Z</time>
      </trkpt>
      <trkpt lat="41.05457" lon="-6.742756">
        <ele>605.6</ele>
        <time>1970-01-01T01:06:50.000Z</time>
      </trkpt>
      <trkpt lat="41.054539" lon="-6.742789">
        <ele>605.7</ele>
        <time>1970-01-01T01:06:51.000Z</time>
      </trkpt>
      <trkpt lat="41.054508" lon="-6.742822">
        <ele>605.8</ele>
        <time>1970-01-01T01:06:52.000Z</time>
      </trkpt>
      <trkpt lat="41.054476" lon="-6.742855">
        <ele>605.9</ele>
        <time>1970-01-01T01:06:53.000Z</time>
      </trkpt>
      <trkpt lat="41.054442" lon="-6.742888">
        <ele>605.9</ele>
        <time>1970-01-01T01:06:54.000Z</time>
      </trkpt>
      <trkpt lat="41.054408" lon="-6.742919">
        <ele>606</ele>
        <time>1970-01-01T01:06:55.000Z</time>
      </trkpt>
      <trkpt lat="41.054374" lon="-6.742948">
        <ele>606.1</ele>
        <time>1970-01-01T01:06:56.000Z</time>
      </trkpt>
      <trkpt lat="41.054339" lon="-6.742977">
        <ele>606.2</ele>
        <time>1970-01-01T01:06:57.000Z</time>
      </trkpt>
      <trkpt lat="41.054304" lon="-6.743006">
        <ele>606.3</ele>
        <time>1970-01-01T01:06:58.000Z</time>
      </trkpt>
      <trkpt lat="41.054269" lon="-6.743038">
        <ele>606.4</ele>
        <time>1970-01-01T01:06:59.000Z</time>
      </trkpt>
      <trkpt lat="41.054235" lon="-6.743071">
        <ele>606.5</ele>
        <time>1970-01-01T01:07:00.000Z</time>
      </trkpt>
      <trkpt lat="41.054202" lon="-6.743102">
        <ele>606.6</ele>
        <time>1970-01-01T01:07:01.000Z</time>
      </trkpt>
      <trkpt lat="41.054171" lon="-6.743131">
        <ele>606.7</ele>
        <time>1970-01-01T01:07:02.000Z</time>
      </trkpt>
      <trkpt lat="41.054139" lon="-6.743157">
        <ele>606.8</ele>
        <time>1970-01-01T01:07:03.000Z</time>
      </trkpt>
      <trkpt lat="41.054108" lon="-6.743183">
        <ele>606.8</ele>
        <time>1970-01-01T01:07:04.000Z</time>
      </trkpt>
      <trkpt lat="41.054076" lon="-6.743209">
        <ele>606.9</ele>
        <time>1970-01-01T01:07:05.000Z</time>
      </trkpt>
      <trkpt lat="41.054044" lon="-6.743237">
        <ele>607</ele>
        <time>1970-01-01T01:07:06.000Z</time>
      </trkpt>
      <trkpt lat="41.054012" lon="-6.743265">
        <ele>607.1</ele>
        <time>1970-01-01T01:07:07.000Z</time>
      </trkpt>
      <trkpt lat="41.053979" lon="-6.743294">
        <ele>607.2</ele>
        <time>1970-01-01T01:07:08.000Z</time>
      </trkpt>
      <trkpt lat="41.053946" lon="-6.743322">
        <ele>607.2</ele>
        <time>1970-01-01T01:07:09.000Z</time>
      </trkpt>
      <trkpt lat="41.053912" lon="-6.74335">
        <ele>607.3</ele>
        <time>1970-01-01T01:07:10.000Z</time>
      </trkpt>
      <trkpt lat="41.053878" lon="-6.743378">
        <ele>607.3</ele>
        <time>1970-01-01T01:07:11.000Z</time>
      </trkpt>
      <trkpt lat="41.053844" lon="-6.743406">
        <ele>607.4</ele>
        <time>1970-01-01T01:07:12.000Z</time>
      </trkpt>
      <trkpt lat="41.05381" lon="-6.743435">
        <ele>607.5</ele>
        <time>1970-01-01T01:07:13.000Z</time>
      </trkpt>
      <trkpt lat="41.053775" lon="-6.743466">
        <ele>607.5</ele>
        <time>1970-01-01T01:07:14.000Z</time>
      </trkpt>
      <trkpt lat="41.053741" lon="-6.743497">
        <ele>607.6</ele>
        <time>1970-01-01T01:07:15.000Z</time>
      </trkpt>
      <trkpt lat="41.053708" lon="-6.743527">
        <ele>607.7</ele>
        <time>1970-01-01T01:07:16.000Z</time>
      </trkpt>
      <trkpt lat="41.053673" lon="-6.743556">
        <ele>607.7</ele>
        <time>1970-01-01T01:07:17.000Z</time>
      </trkpt>
      <trkpt lat="41.053638" lon="-6.743583">
        <ele>607.8</ele>
        <time>1970-01-01T01:07:18.000Z</time>
      </trkpt>
      <trkpt lat="41.053603" lon="-6.74361">
        <ele>607.9</ele>
        <time>1970-01-01T01:07:19.000Z</time>
      </trkpt>
      <trkpt lat="41.053568" lon="-6.743638">
        <ele>608</ele>
        <time>1970-01-01T01:07:20.000Z</time>
      </trkpt>
      <trkpt lat="41.053533" lon="-6.743667">
        <ele>608.1</ele>
        <time>1970-01-01T01:07:21.000Z</time>
      </trkpt>
      <trkpt lat="41.053499" lon="-6.743696">
        <ele>608.2</ele>
        <time>1970-01-01T01:07:22.000Z</time>
      </trkpt>
      <trkpt lat="41.053465" lon="-6.743727">
        <ele>608.3</ele>
        <time>1970-01-01T01:07:23.000Z</time>
      </trkpt>
      <trkpt lat="41.053432" lon="-6.743757">
        <ele>608.4</ele>
        <time>1970-01-01T01:07:24.000Z</time>
      </trkpt>
      <trkpt lat="41.053398" lon="-6.743786">
        <ele>608.5</ele>
        <time>1970-01-01T01:07:25.000Z</time>
      </trkpt>
      <trkpt lat="41.053364" lon="-6.743816">
        <ele>608.5</ele>
        <time>1970-01-01T01:07:26.000Z</time>
      </trkpt>
      <trkpt lat="41.053328" lon="-6.743846">
        <ele>608.6</ele>
        <time>1970-01-01T01:07:27.000Z</time>
      </trkpt>
      <trkpt lat="41.053293" lon="-6.743875">
        <ele>608.7</ele>
        <time>1970-01-01T01:07:28.000Z</time>
      </trkpt>
      <trkpt lat="41.053257" lon="-6.743904">
        <ele>608.8</ele>
        <time>1970-01-01T01:07:29.000Z</time>
      </trkpt>
      <trkpt lat="41.053222" lon="-6.743934">
        <ele>608.9</ele>
        <time>1970-01-01T01:07:30.000Z</time>
      </trkpt>
      <trkpt lat="41.053187" lon="-6.743963">
        <ele>609</ele>
        <time>1970-01-01T01:07:31.000Z</time>
      </trkpt>
      <trkpt lat="41.053152" lon="-6.743992">
        <ele>609.1</ele>
        <time>1970-01-01T01:07:32.000Z</time>
      </trkpt>
      <trkpt lat="41.053116" lon="-6.744021">
        <ele>609.2</ele>
        <time>1970-01-01T01:07:33.000Z</time>
      </trkpt>
      <trkpt lat="41.053081" lon="-6.744051">
        <ele>609.3</ele>
        <time>1970-01-01T01:07:34.000Z</time>
      </trkpt>
      <trkpt lat="41.053046" lon="-6.744082">
        <ele>609.4</ele>
        <time>1970-01-01T01:07:35.000Z</time>
      </trkpt>
      <trkpt lat="41.053012" lon="-6.744112">
        <ele>609.5</ele>
        <time>1970-01-01T01:07:36.000Z</time>
      </trkpt>
      <trkpt lat="41.052979" lon="-6.744143">
        <ele>609.6</ele>
        <time>1970-01-01T01:07:37.000Z</time>
      </trkpt>
      <trkpt lat="41.052945" lon="-6.744173">
        <ele>609.7</ele>
        <time>1970-01-01T01:07:38.000Z</time>
      </trkpt>
      <trkpt lat="41.052912" lon="-6.744203">
        <ele>609.8</ele>
        <time>1970-01-01T01:07:39.000Z</time>
      </trkpt>
      <trkpt lat="41.052878" lon="-6.744232">
        <ele>609.9</ele>
        <time>1970-01-01T01:07:40.000Z</time>
      </trkpt>
      <trkpt lat="41.052843" lon="-6.744261">
        <ele>610</ele>
        <time>1970-01-01T01:07:41.000Z</time>
      </trkpt>
      <trkpt lat="41.052809" lon="-6.74429">
        <ele>610.1</ele>
        <time>1970-01-01T01:07:42.000Z</time>
      </trkpt>
      <trkpt lat="41.052774" lon="-6.74432">
        <ele>610.1</ele>
        <time>1970-01-01T01:07:43.000Z</time>
      </trkpt>
      <trkpt lat="41.05274" lon="-6.74435">
        <ele>610.2</ele>
        <time>1970-01-01T01:07:44.000Z</time>
      </trkpt>
      <trkpt lat="41.052705" lon="-6.744379">
        <ele>610.3</ele>
        <time>1970-01-01T01:07:45.000Z</time>
      </trkpt>
      <trkpt lat="41.052671" lon="-6.744409">
        <ele>610.4</ele>
        <time>1970-01-01T01:07:46.000Z</time>
      </trkpt>
      <trkpt lat="41.052636" lon="-6.744439">
        <ele>610.5</ele>
        <time>1970-01-01T01:07:47.000Z</time>
      </trkpt>
      <trkpt lat="41.052601" lon="-6.744469">
        <ele>610.6</ele>
        <time>1970-01-01T01:07:48.000Z</time>
      </trkpt>
      <trkpt lat="41.052568" lon="-6.744499">
        <ele>610.6</ele>
        <time>1970-01-01T01:07:49.000Z</time>
      </trkpt>
      <trkpt lat="41.052534" lon="-6.744529">
        <ele>610.7</ele>
        <time>1970-01-01T01:07:50.000Z</time>
      </trkpt>
      <trkpt lat="41.052499" lon="-6.744557">
        <ele>610.8</ele>
        <time>1970-01-01T01:07:51.000Z</time>
      </trkpt>
      <trkpt lat="41.052465" lon="-6.744586">
        <ele>610.9</ele>
        <time>1970-01-01T01:07:52.000Z</time>
      </trkpt>
      <trkpt lat="41.05243" lon="-6.744615">
        <ele>610.9</ele>
        <time>1970-01-01T01:07:53.000Z</time>
      </trkpt>
      <trkpt lat="41.052395" lon="-6.744643">
        <ele>611</ele>
        <time>1970-01-01T01:07:54.000Z</time>
      </trkpt>
      <trkpt lat="41.052361" lon="-6.744672">
        <ele>611.1</ele>
        <time>1970-01-01T01:07:55.000Z</time>
      </trkpt>
      <trkpt lat="41.052327" lon="-6.7447">
        <ele>611.2</ele>
        <time>1970-01-01T01:07:56.000Z</time>
      </trkpt>
      <trkpt lat="41.052293" lon="-6.744729">
        <ele>611.3</ele>
        <time>1970-01-01T01:07:57.000Z</time>
      </trkpt>
      <trkpt lat="41.052258" lon="-6.744758">
        <ele>611.4</ele>
        <time>1970-01-01T01:07:58.000Z</time>
      </trkpt>
      <trkpt lat="41.052224" lon="-6.744787">
        <ele>611.5</ele>
        <time>1970-01-01T01:07:59.000Z</time>
      </trkpt>
      <trkpt lat="41.052189" lon="-6.744816">
        <ele>611.6</ele>
        <time>1970-01-01T01:08:00.000Z</time>
      </trkpt>
      <trkpt lat="41.052155" lon="-6.744845">
        <ele>611.6</ele>
        <time>1970-01-01T01:08:01.000Z</time>
      </trkpt>
      <trkpt lat="41.052121" lon="-6.744874">
        <ele>611.7</ele>
        <time>1970-01-01T01:08:02.000Z</time>
      </trkpt>
      <trkpt lat="41.052086" lon="-6.744903">
        <ele>611.8</ele>
        <time>1970-01-01T01:08:03.000Z</time>
      </trkpt>
      <trkpt lat="41.052051" lon="-6.744931">
        <ele>611.9</ele>
        <time>1970-01-01T01:08:04.000Z</time>
      </trkpt>
      <trkpt lat="41.052017" lon="-6.744959">
        <ele>612</ele>
        <time>1970-01-01T01:08:05.000Z</time>
      </trkpt>
      <trkpt lat="41.051983" lon="-6.744987">
        <ele>612</ele>
        <time>1970-01-01T01:08:06.000Z</time>
      </trkpt>
      <trkpt lat="41.05195" lon="-6.745015">
        <ele>612.1</ele>
        <time>1970-01-01T01:08:07.000Z</time>
      </trkpt>
      <trkpt lat="41.051916" lon="-6.745044">
        <ele>612.2</ele>
        <time>1970-01-01T01:08:08.000Z</time>
      </trkpt>
      <trkpt lat="41.051883" lon="-6.745075">
        <ele>612.3</ele>
        <time>1970-01-01T01:08:09.000Z</time>
      </trkpt>
      <trkpt lat="41.05185" lon="-6.745105">
        <ele>612.4</ele>
        <time>1970-01-01T01:08:10.000Z</time>
      </trkpt>
      <trkpt lat="41.051815" lon="-6.745135">
        <ele>612.5</ele>
        <time>1970-01-01T01:08:11.000Z</time>
      </trkpt>
      <trkpt lat="41.05178" lon="-6.745165">
        <ele>612.6</ele>
        <time>1970-01-01T01:08:12.000Z</time>
      </trkpt>
      <trkpt lat="41.051745" lon="-6.745195">
        <ele>612.7</ele>
        <time>1970-01-01T01:08:13.000Z</time>
      </trkpt>
      <trkpt lat="41.051712" lon="-6.745225">
        <ele>612.8</ele>
        <time>1970-01-01T01:08:14.000Z</time>
      </trkpt>
      <trkpt lat="41.051678" lon="-6.745255">
        <ele>612.8</ele>
        <time>1970-01-01T01:08:15.000Z</time>
      </trkpt>
      <trkpt lat="41.051644" lon="-6.745285">
        <ele>612.9</ele>
        <time>1970-01-01T01:08:16.000Z</time>
      </trkpt>
      <trkpt lat="41.05161" lon="-6.745314">
        <ele>613</ele>
        <time>1970-01-01T01:08:17.000Z</time>
      </trkpt>
      <trkpt lat="41.051577" lon="-6.745343">
        <ele>613</ele>
        <time>1970-01-01T01:08:18.000Z</time>
      </trkpt>
      <trkpt lat="41.051543" lon="-6.74537">
        <ele>613.1</ele>
        <time>1970-01-01T01:08:19.000Z</time>
      </trkpt>
      <trkpt lat="41.051509" lon="-6.745397">
        <ele>613.1</ele>
        <time>1970-01-01T01:08:20.000Z</time>
      </trkpt>
      <trkpt lat="41.051475" lon="-6.745425">
        <ele>613.2</ele>
        <time>1970-01-01T01:08:21.000Z</time>
      </trkpt>
      <trkpt lat="41.051442" lon="-6.745454">
        <ele>613.2</ele>
        <time>1970-01-01T01:08:22.000Z</time>
      </trkpt>
      <trkpt lat="41.051409" lon="-6.745484">
        <ele>613.3</ele>
        <time>1970-01-01T01:08:23.000Z</time>
      </trkpt>
      <trkpt lat="41.051376" lon="-6.745513">
        <ele>613.4</ele>
        <time>1970-01-01T01:08:24.000Z</time>
      </trkpt>
      <trkpt lat="41.051343" lon="-6.745542">
        <ele>613.5</ele>
        <time>1970-01-01T01:08:25.000Z</time>
      </trkpt>
      <trkpt lat="41.05131" lon="-6.745571">
        <ele>613.6</ele>
        <time>1970-01-01T01:08:26.000Z</time>
      </trkpt>
      <trkpt lat="41.051276" lon="-6.745601">
        <ele>613.6</ele>
        <time>1970-01-01T01:08:27.000Z</time>
      </trkpt>
      <trkpt lat="41.051243" lon="-6.74563">
        <ele>613.7</ele>
        <time>1970-01-01T01:08:28.000Z</time>
      </trkpt>
      <trkpt lat="41.051209" lon="-6.745658">
        <ele>613.7</ele>
        <time>1970-01-01T01:08:29.000Z</time>
      </trkpt>
      <trkpt lat="41.051176" lon="-6.745686">
        <ele>613.8</ele>
        <time>1970-01-01T01:08:30.000Z</time>
      </trkpt>
      <trkpt lat="41.051142" lon="-6.745714">
        <ele>613.8</ele>
        <time>1970-01-01T01:08:31.000Z</time>
      </trkpt>
      <trkpt lat="41.05111" lon="-6.745743">
        <ele>613.8</ele>
        <time>1970-01-01T01:08:32.000Z</time>
      </trkpt>
      <trkpt lat="41.051077" lon="-6.745772">
        <ele>613.9</ele>
        <time>1970-01-01T01:08:33.000Z</time>
      </trkpt>
      <trkpt lat="41.051045" lon="-6.745801">
        <ele>613.9</ele>
        <time>1970-01-01T01:08:34.000Z</time>
      </trkpt>
      <trkpt lat="41.051013" lon="-6.745828">
        <ele>614</ele>
        <time>1970-01-01T01:08:35.000Z</time>
      </trkpt>
      <trkpt lat="41.050983" lon="-6.745855">
        <ele>614</ele>
        <time>1970-01-01T01:08:36.000Z</time>
      </trkpt>
      <trkpt lat="41.050957" lon="-6.745881">
        <ele>614</ele>
        <time>1970-01-01T01:08:37.000Z</time>
      </trkpt>
      <trkpt lat="41.050938" lon="-6.74591">
        <ele>614</ele>
        <time>1970-01-01T01:08:38.000Z</time>
      </trkpt>
      <trkpt lat="41.050929" lon="-6.745942">
        <ele>614.5</ele>
        <time>1970-01-01T01:08:39.000Z</time>
      </trkpt>
      <trkpt lat="41.050928" lon="-6.745974">
        <ele>614.7</ele>
        <time>1970-01-01T01:08:40.000Z</time>
      </trkpt>
      <trkpt lat="41.050934" lon="-6.746004">
        <ele>614.9</ele>
        <time>1970-01-01T01:08:41.000Z</time>
      </trkpt>
      <trkpt lat="41.050949" lon="-6.746031">
        <ele>615</ele>
        <time>1970-01-01T01:08:42.000Z</time>
      </trkpt>
      <trkpt lat="41.050977" lon="-6.746059">
        <ele>615.2</ele>
        <time>1970-01-01T01:08:43.000Z</time>
      </trkpt>
      <trkpt lat="41.051014" lon="-6.746091">
        <ele>615.2</ele>
        <time>1970-01-01T01:08:44.000Z</time>
      </trkpt>
      <trkpt lat="41.051057" lon="-6.746127">
        <ele>615.2</ele>
        <time>1970-01-01T01:08:45.000Z</time>
      </trkpt>
      <trkpt lat="41.051104" lon="-6.746169">
        <ele>615</ele>
        <time>1970-01-01T01:08:46.000Z</time>
      </trkpt>
      <trkpt lat="41.051155" lon="-6.746214">
        <ele>614.8</ele>
        <time>1970-01-01T01:08:47.000Z</time>
      </trkpt>
      <trkpt lat="41.051209" lon="-6.746262">
        <ele>614.6</ele>
        <time>1970-01-01T01:08:48.000Z</time>
      </trkpt>
      <trkpt lat="41.051263" lon="-6.746313">
        <ele>614.6</ele>
        <time>1970-01-01T01:08:49.000Z</time>
      </trkpt>
      <trkpt lat="41.051318" lon="-6.746372">
        <ele>614.6</ele>
        <time>1970-01-01T01:08:50.000Z</time>
      </trkpt>
      <trkpt lat="41.051373" lon="-6.746443">
        <ele>614.6</ele>
        <time>1970-01-01T01:08:51.000Z</time>
      </trkpt>
      <trkpt lat="41.051427" lon="-6.746527">
        <ele>614.5</ele>
        <time>1970-01-01T01:08:52.000Z</time>
      </trkpt>
      <trkpt lat="41.05148" lon="-6.746622">
        <ele>613.9</ele>
        <time>1970-01-01T01:08:53.000Z</time>
      </trkpt>
      <trkpt lat="41.051533" lon="-6.746723">
        <ele>612.4</ele>
        <time>1970-01-01T01:08:54.000Z</time>
      </trkpt>
      <trkpt lat="41.051587" lon="-6.74683">
        <ele>609.3</ele>
        <time>1970-01-01T01:08:55.000Z</time>
      </trkpt>
      <trkpt lat="41.051642" lon="-6.746937">
        <ele>604</ele>
        <time>1970-01-01T01:08:56.000Z</time>
      </trkpt>
      <trkpt lat="41.051696" lon="-6.747044">
        <ele>603.3</ele>
        <time>1970-01-01T01:08:57.000Z</time>
      </trkpt>
      <trkpt lat="41.051749" lon="-6.747148">
        <ele>602.8</ele>
        <time>1970-01-01T01:08:58.000Z</time>
      </trkpt>
      <trkpt lat="41.051801" lon="-6.747247">
        <ele>602.4</ele>
        <time>1970-01-01T01:08:59.000Z</time>
      </trkpt>
      <trkpt lat="41.051851" lon="-6.747343">
        <ele>601.9</ele>
        <time>1970-01-01T01:09:00.000Z</time>
      </trkpt>
      <trkpt lat="41.051899" lon="-6.747437">
        <ele>601.5</ele>
        <time>1970-01-01T01:09:01.000Z</time>
      </trkpt>
      <trkpt lat="41.051946" lon="-6.747529">
        <ele>601</ele>
        <time>1970-01-01T01:09:02.000Z</time>
      </trkpt>
      <trkpt lat="41.051996" lon="-6.747615">
        <ele>600.6</ele>
        <time>1970-01-01T01:09:03.000Z</time>
      </trkpt>
      <trkpt lat="41.05205" lon="-6.747695">
        <ele>600.2</ele>
        <time>1970-01-01T01:09:04.000Z</time>
      </trkpt>
      <trkpt lat="41.052107" lon="-6.74777">
        <ele>599.8</ele>
        <time>1970-01-01T01:09:05.000Z</time>
      </trkpt>
      <trkpt lat="41.052165" lon="-6.747842">
        <ele>599.4</ele>
        <time>1970-01-01T01:09:06.000Z</time>
      </trkpt>
      <trkpt lat="41.052224" lon="-6.747912">
        <ele>599</ele>
        <time>1970-01-01T01:09:07.000Z</time>
      </trkpt>
      <trkpt lat="41.052283" lon="-6.747981">
        <ele>598.5</ele>
        <time>1970-01-01T01:09:08.000Z</time>
      </trkpt>
      <trkpt lat="41.052343" lon="-6.748051">
        <ele>598.1</ele>
        <time>1970-01-01T01:09:09.000Z</time>
      </trkpt>
      <trkpt lat="41.052403" lon="-6.748124">
        <ele>597.7</ele>
        <time>1970-01-01T01:09:10.000Z</time>
      </trkpt>
      <trkpt lat="41.052462" lon="-6.748199">
        <ele>597.3</ele>
        <time>1970-01-01T01:09:11.000Z</time>
      </trkpt>
      <trkpt lat="41.052521" lon="-6.748278">
        <ele>596.9</ele>
        <time>1970-01-01T01:09:12.000Z</time>
      </trkpt>
      <trkpt lat="41.052578" lon="-6.748361">
        <ele>596.4</ele>
        <time>1970-01-01T01:09:13.000Z</time>
      </trkpt>
      <trkpt lat="41.052635" lon="-6.748448">
        <ele>596</ele>
        <time>1970-01-01T01:09:14.000Z</time>
      </trkpt>
      <trkpt lat="41.05269" lon="-6.748536">
        <ele>595.5</ele>
        <time>1970-01-01T01:09:15.000Z</time>
      </trkpt>
      <trkpt lat="41.052747" lon="-6.748625">
        <ele>595.1</ele>
        <time>1970-01-01T01:09:16.000Z</time>
      </trkpt>
      <trkpt lat="41.052804" lon="-6.748714">
        <ele>594.6</ele>
        <time>1970-01-01T01:09:17.000Z</time>
      </trkpt>
      <trkpt lat="41.05286" lon="-6.748801">
        <ele>594.2</ele>
        <time>1970-01-01T01:09:18.000Z</time>
      </trkpt>
      <trkpt lat="41.052915" lon="-6.748888">
        <ele>593.7</ele>
        <time>1970-01-01T01:09:19.000Z</time>
      </trkpt>
      <trkpt lat="41.052971" lon="-6.748973">
        <ele>593.3</ele>
        <time>1970-01-01T01:09:20.000Z</time>
      </trkpt>
      <trkpt lat="41.053027" lon="-6.749058">
        <ele>592.8</ele>
        <time>1970-01-01T01:09:21.000Z</time>
      </trkpt>
      <trkpt lat="41.053083" lon="-6.749143">
        <ele>592.4</ele>
        <time>1970-01-01T01:09:22.000Z</time>
      </trkpt>
      <trkpt lat="41.05314" lon="-6.749227">
        <ele>591.9</ele>
        <time>1970-01-01T01:09:23.000Z</time>
      </trkpt>
      <trkpt lat="41.053197" lon="-6.749309">
        <ele>591.5</ele>
        <time>1970-01-01T01:09:24.000Z</time>
      </trkpt>
      <trkpt lat="41.053253" lon="-6.749389">
        <ele>591.1</ele>
        <time>1970-01-01T01:09:25.000Z</time>
      </trkpt>
      <trkpt lat="41.05331" lon="-6.749467">
        <ele>590.7</ele>
        <time>1970-01-01T01:09:26.000Z</time>
      </trkpt>
      <trkpt lat="41.053369" lon="-6.749542">
        <ele>590.2</ele>
        <time>1970-01-01T01:09:27.000Z</time>
      </trkpt>
      <trkpt lat="41.053431" lon="-6.749612">
        <ele>589.8</ele>
        <time>1970-01-01T01:09:28.000Z</time>
      </trkpt>
      <trkpt lat="41.053496" lon="-6.749677">
        <ele>589.4</ele>
        <time>1970-01-01T01:09:29.000Z</time>
      </trkpt>
      <trkpt lat="41.053564" lon="-6.749736">
        <ele>589</ele>
        <time>1970-01-01T01:09:30.000Z</time>
      </trkpt>
      <trkpt lat="41.053634" lon="-6.74979">
        <ele>588.5</ele>
        <time>1970-01-01T01:09:31.000Z</time>
      </trkpt>
      <trkpt lat="41.053704" lon="-6.74984">
        <ele>588.1</ele>
        <time>1970-01-01T01:09:32.000Z</time>
      </trkpt>
      <trkpt lat="41.053774" lon="-6.749889">
        <ele>587.7</ele>
        <time>1970-01-01T01:09:33.000Z</time>
      </trkpt>
      <trkpt lat="41.053843" lon="-6.749938">
        <ele>587.3</ele>
        <time>1970-01-01T01:09:34.000Z</time>
      </trkpt>
      <trkpt lat="41.053912" lon="-6.749987">
        <ele>586.9</ele>
        <time>1970-01-01T01:09:35.000Z</time>
      </trkpt>
      <trkpt lat="41.053981" lon="-6.750034">
        <ele>586.5</ele>
        <time>1970-01-01T01:09:36.000Z</time>
      </trkpt>
      <trkpt lat="41.054051" lon="-6.750078">
        <ele>586.1</ele>
        <time>1970-01-01T01:09:37.000Z</time>
      </trkpt>
      <trkpt lat="41.054122" lon="-6.750118">
        <ele>585.7</ele>
        <time>1970-01-01T01:09:38.000Z</time>
      </trkpt>
      <trkpt lat="41.054193" lon="-6.750155">
        <ele>585.3</ele>
        <time>1970-01-01T01:09:39.000Z</time>
      </trkpt>
      <trkpt lat="41.054265" lon="-6.750199">
        <ele>584.9</ele>
        <time>1970-01-01T01:09:40.000Z</time>
      </trkpt>
      <trkpt lat="41.054332" lon="-6.750256">
        <ele>584.5</ele>
        <time>1970-01-01T01:09:41.000Z</time>
      </trkpt>
      <trkpt lat="41.054395" lon="-6.750324">
        <ele>584.1</ele>
        <time>1970-01-01T01:09:42.000Z</time>
      </trkpt>
      <trkpt lat="41.05446" lon="-6.750396">
        <ele>583.6</ele>
        <time>1970-01-01T01:09:43.000Z</time>
      </trkpt>
      <trkpt lat="41.054529" lon="-6.750461">
        <ele>583.2</ele>
        <time>1970-01-01T01:09:44.000Z</time>
      </trkpt>
      <trkpt lat="41.054602" lon="-6.750519">
        <ele>582.7</ele>
        <time>1970-01-01T01:09:45.000Z</time>
      </trkpt>
      <trkpt lat="41.054678" lon="-6.750569">
        <ele>582.3</ele>
        <time>1970-01-01T01:09:46.000Z</time>
      </trkpt>
      <trkpt lat="41.054752" lon="-6.750621">
        <ele>581.9</ele>
        <time>1970-01-01T01:09:47.000Z</time>
      </trkpt>
      <trkpt lat="41.05482" lon="-6.750679">
        <ele>581.4</ele>
        <time>1970-01-01T01:09:48.000Z</time>
      </trkpt>
      <trkpt lat="41.054877" lon="-6.750746">
        <ele>581</ele>
        <time>1970-01-01T01:09:49.000Z</time>
      </trkpt>
      <trkpt lat="41.054924" lon="-6.750818">
        <ele>580.7</ele>
        <time>1970-01-01T01:09:50.000Z</time>
      </trkpt>
      <trkpt lat="41.054959" lon="-6.750903">
        <ele>580.3</ele>
        <time>1970-01-01T01:09:51.000Z</time>
      </trkpt>
      <trkpt lat="41.054977" lon="-6.750999">
        <ele>579.9</ele>
        <time>1970-01-01T01:09:52.000Z</time>
      </trkpt>
      <trkpt lat="41.054979" lon="-6.751106">
        <ele>579.5</ele>
        <time>1970-01-01T01:09:53.000Z</time>
      </trkpt>
      <trkpt lat="41.054971" lon="-6.751213">
        <ele>579.1</ele>
        <time>1970-01-01T01:09:54.000Z</time>
      </trkpt>
      <trkpt lat="41.054963" lon="-6.751324">
        <ele>578.6</ele>
        <time>1970-01-01T01:09:55.000Z</time>
      </trkpt>
      <trkpt lat="41.054956" lon="-6.751439">
        <ele>578.2</ele>
        <time>1970-01-01T01:09:56.000Z</time>
      </trkpt>
      <trkpt lat="41.054948" lon="-6.751557">
        <ele>577.7</ele>
        <time>1970-01-01T01:09:57.000Z</time>
      </trkpt>
      <trkpt lat="41.054941" lon="-6.751681">
        <ele>577.2</ele>
        <time>1970-01-01T01:09:58.000Z</time>
      </trkpt>
      <trkpt lat="41.054933" lon="-6.751805">
        <ele>576.7</ele>
        <time>1970-01-01T01:09:59.000Z</time>
      </trkpt>
      <trkpt lat="41.054925" lon="-6.75193">
        <ele>576.3</ele>
        <time>1970-01-01T01:10:00.000Z</time>
      </trkpt>
      <trkpt lat="41.054918" lon="-6.752053">
        <ele>575.8</ele>
        <time>1970-01-01T01:10:01.000Z</time>
      </trkpt>
      <trkpt lat="41.054913" lon="-6.752175">
        <ele>575.3</ele>
        <time>1970-01-01T01:10:02.000Z</time>
      </trkpt>
      <trkpt lat="41.05491" lon="-6.752296">
        <ele>574.8</ele>
        <time>1970-01-01T01:10:03.000Z</time>
      </trkpt>
      <trkpt lat="41.054909" lon="-6.752418">
        <ele>574.3</ele>
        <time>1970-01-01T01:10:04.000Z</time>
      </trkpt>
      <trkpt lat="41.054912" lon="-6.75254">
        <ele>573.9</ele>
        <time>1970-01-01T01:10:05.000Z</time>
      </trkpt>
      <trkpt lat="41.054918" lon="-6.752662">
        <ele>573.4</ele>
        <time>1970-01-01T01:10:06.000Z</time>
      </trkpt>
      <trkpt lat="41.054928" lon="-6.752785">
        <ele>572.9</ele>
        <time>1970-01-01T01:10:07.000Z</time>
      </trkpt>
      <trkpt lat="41.054941" lon="-6.752909">
        <ele>572.4</ele>
        <time>1970-01-01T01:10:08.000Z</time>
      </trkpt>
      <trkpt lat="41.054956" lon="-6.753039">
        <ele>571.9</ele>
        <time>1970-01-01T01:10:09.000Z</time>
      </trkpt>
      <trkpt lat="41.054973" lon="-6.753174">
        <ele>571.4</ele>
        <time>1970-01-01T01:10:10.000Z</time>
      </trkpt>
      <trkpt lat="41.054989" lon="-6.753314">
        <ele>570.8</ele>
        <time>1970-01-01T01:10:11.000Z</time>
      </trkpt>
      <trkpt lat="41.055005" lon="-6.753463">
        <ele>570.2</ele>
        <time>1970-01-01T01:10:12.000Z</time>
      </trkpt>
      <trkpt lat="41.055021" lon="-6.753622">
        <ele>569.6</ele>
        <time>1970-01-01T01:10:13.000Z</time>
      </trkpt>
      <trkpt lat="41.055038" lon="-6.753788">
        <ele>568.9</ele>
        <time>1970-01-01T01:10:14.000Z</time>
      </trkpt>
      <trkpt lat="41.055057" lon="-6.753955">
        <ele>568.3</ele>
        <time>1970-01-01T01:10:15.000Z</time>
      </trkpt>
      <trkpt lat="41.055076" lon="-6.754116">
        <ele>567.6</ele>
        <time>1970-01-01T01:10:16.000Z</time>
      </trkpt>
      <trkpt lat="41.055093" lon="-6.754267">
        <ele>567</ele>
        <time>1970-01-01T01:10:17.000Z</time>
      </trkpt>
      <trkpt lat="41.05511" lon="-6.754408">
        <ele>566.5</ele>
        <time>1970-01-01T01:10:18.000Z</time>
      </trkpt>
      <trkpt lat="41.055126" lon="-6.754537">
        <ele>566</ele>
        <time>1970-01-01T01:10:19.000Z</time>
      </trkpt>
      <trkpt lat="41.05514" lon="-6.754656">
        <ele>565.5</ele>
        <time>1970-01-01T01:10:20.000Z</time>
      </trkpt>
      <trkpt lat="41.055152" lon="-6.754766">
        <ele>565.1</ele>
        <time>1970-01-01T01:10:21.000Z</time>
      </trkpt>
      <trkpt lat="41.055162" lon="-6.75487">
        <ele>564.7</ele>
        <time>1970-01-01T01:10:22.000Z</time>
      </trkpt>
      <trkpt lat="41.055171" lon="-6.754969">
        <ele>564.3</ele>
        <time>1970-01-01T01:10:23.000Z</time>
      </trkpt>
      <trkpt lat="41.055183" lon="-6.755065">
        <ele>563.9</ele>
        <time>1970-01-01T01:10:24.000Z</time>
      </trkpt>
      <trkpt lat="41.055197" lon="-6.75516">
        <ele>563.5</ele>
        <time>1970-01-01T01:10:25.000Z</time>
      </trkpt>
      <trkpt lat="41.055211" lon="-6.755256">
        <ele>563.1</ele>
        <time>1970-01-01T01:10:26.000Z</time>
      </trkpt>
      <trkpt lat="41.055225" lon="-6.755354">
        <ele>562.7</ele>
        <time>1970-01-01T01:10:27.000Z</time>
      </trkpt>
      <trkpt lat="41.055238" lon="-6.755452">
        <ele>562.3</ele>
        <time>1970-01-01T01:10:28.000Z</time>
      </trkpt>
      <trkpt lat="41.055251" lon="-6.755551">
        <ele>561.9</ele>
        <time>1970-01-01T01:10:29.000Z</time>
      </trkpt>
      <trkpt lat="41.055265" lon="-6.75565">
        <ele>561.6</ele>
        <time>1970-01-01T01:10:30.000Z</time>
      </trkpt>
      <trkpt lat="41.055278" lon="-6.75575">
        <ele>561.2</ele>
        <time>1970-01-01T01:10:31.000Z</time>
      </trkpt>
      <trkpt lat="41.05529" lon="-6.75585">
        <ele>560.8</ele>
        <time>1970-01-01T01:10:32.000Z</time>
      </trkpt>
      <trkpt lat="41.055302" lon="-6.755949">
        <ele>560.4</ele>
        <time>1970-01-01T01:10:33.000Z</time>
      </trkpt>
      <trkpt lat="41.055314" lon="-6.756046">
        <ele>560</ele>
        <time>1970-01-01T01:10:34.000Z</time>
      </trkpt>
      <trkpt lat="41.055326" lon="-6.756141">
        <ele>559.6</ele>
        <time>1970-01-01T01:10:35.000Z</time>
      </trkpt>
      <trkpt lat="41.055337" lon="-6.756235">
        <ele>559.2</ele>
        <time>1970-01-01T01:10:36.000Z</time>
      </trkpt>
      <trkpt lat="41.055349" lon="-6.756327">
        <ele>558.9</ele>
        <time>1970-01-01T01:10:37.000Z</time>
      </trkpt>
      <trkpt lat="41.05536" lon="-6.756418">
        <ele>558.5</ele>
        <time>1970-01-01T01:10:38.000Z</time>
      </trkpt>
      <trkpt lat="41.055373" lon="-6.756509">
        <ele>558.1</ele>
        <time>1970-01-01T01:10:39.000Z</time>
      </trkpt>
      <trkpt lat="41.055388" lon="-6.7566">
        <ele>557.8</ele>
        <time>1970-01-01T01:10:40.000Z</time>
      </trkpt>
      <trkpt lat="41.05541" lon="-6.756691">
        <ele>557.4</ele>
        <time>1970-01-01T01:10:41.000Z</time>
      </trkpt>
      <trkpt lat="41.055436" lon="-6.756783">
        <ele>556.9</ele>
        <time>1970-01-01T01:10:42.000Z</time>
      </trkpt>
      <trkpt lat="41.055466" lon="-6.75688">
        <ele>556.3</ele>
        <time>1970-01-01T01:10:43.000Z</time>
      </trkpt>
      <trkpt lat="41.055497" lon="-6.756979">
        <ele>555.6</ele>
        <time>1970-01-01T01:10:44.000Z</time>
      </trkpt>
      <trkpt lat="41.055528" lon="-6.757081">
        <ele>554.8</ele>
        <time>1970-01-01T01:10:45.000Z</time>
      </trkpt>
      <trkpt lat="41.05556" lon="-6.757186">
        <ele>553.8</ele>
        <time>1970-01-01T01:10:46.000Z</time>
      </trkpt>
      <trkpt lat="41.055593" lon="-6.757297">
        <ele>552.8</ele>
        <time>1970-01-01T01:10:47.000Z</time>
      </trkpt>
      <trkpt lat="41.055627" lon="-6.757416">
        <ele>551.8</ele>
        <time>1970-01-01T01:10:48.000Z</time>
      </trkpt>
      <trkpt lat="41.055663" lon="-6.757541">
        <ele>550.8</ele>
        <time>1970-01-01T01:10:49.000Z</time>
      </trkpt>
      <trkpt lat="41.0557" lon="-6.757669">
        <ele>549.9</ele>
        <time>1970-01-01T01:10:50.000Z</time>
      </trkpt>
      <trkpt lat="41.055738" lon="-6.757796">
        <ele>549.2</ele>
        <time>1970-01-01T01:10:51.000Z</time>
      </trkpt>
      <trkpt lat="41.055775" lon="-6.757921">
        <ele>548.6</ele>
        <time>1970-01-01T01:10:52.000Z</time>
      </trkpt>
      <trkpt lat="41.05581" lon="-6.758041">
        <ele>548.2</ele>
        <time>1970-01-01T01:10:53.000Z</time>
      </trkpt>
      <trkpt lat="41.055845" lon="-6.758157">
        <ele>547.8</ele>
        <time>1970-01-01T01:10:54.000Z</time>
      </trkpt>
      <trkpt lat="41.055878" lon="-6.758269">
        <ele>547.5</ele>
        <time>1970-01-01T01:10:55.000Z</time>
      </trkpt>
      <trkpt lat="41.055911" lon="-6.758378">
        <ele>547.2</ele>
        <time>1970-01-01T01:10:56.000Z</time>
      </trkpt>
      <trkpt lat="41.055944" lon="-6.758486">
        <ele>546.9</ele>
        <time>1970-01-01T01:10:57.000Z</time>
      </trkpt>
      <trkpt lat="41.055976" lon="-6.758594">
        <ele>546.5</ele>
        <time>1970-01-01T01:10:58.000Z</time>
      </trkpt>
      <trkpt lat="41.056007" lon="-6.758702">
        <ele>546.1</ele>
        <time>1970-01-01T01:10:59.000Z</time>
      </trkpt>
      <trkpt lat="41.056037" lon="-6.758809">
        <ele>545.6</ele>
        <time>1970-01-01T01:11:00.000Z</time>
      </trkpt>
      <trkpt lat="41.056068" lon="-6.758917">
        <ele>545.1</ele>
        <time>1970-01-01T01:11:01.000Z</time>
      </trkpt>
      <trkpt lat="41.056102" lon="-6.759026">
        <ele>544.5</ele>
        <time>1970-01-01T01:11:02.000Z</time>
      </trkpt>
      <trkpt lat="41.056136" lon="-6.759136">
        <ele>544</ele>
        <time>1970-01-01T01:11:03.000Z</time>
      </trkpt>
      <trkpt lat="41.056171" lon="-6.759248">
        <ele>543.4</ele>
        <time>1970-01-01T01:11:04.000Z</time>
      </trkpt>
      <trkpt lat="41.056206" lon="-6.759362">
        <ele>542.9</ele>
        <time>1970-01-01T01:11:05.000Z</time>
      </trkpt>
      <trkpt lat="41.05624" lon="-6.759475">
        <ele>542.6</ele>
        <time>1970-01-01T01:11:06.000Z</time>
      </trkpt>
      <trkpt lat="41.056273" lon="-6.759587">
        <ele>542.3</ele>
        <time>1970-01-01T01:11:07.000Z</time>
      </trkpt>
      <trkpt lat="41.056305" lon="-6.759697">
        <ele>542.1</ele>
        <time>1970-01-01T01:11:08.000Z</time>
      </trkpt>
      <trkpt lat="41.056337" lon="-6.759804">
        <ele>541.9</ele>
        <time>1970-01-01T01:11:09.000Z</time>
      </trkpt>
      <trkpt lat="41.056368" lon="-6.759912">
        <ele>541.7</ele>
        <time>1970-01-01T01:11:10.000Z</time>
      </trkpt>
      <trkpt lat="41.056401" lon="-6.760021">
        <ele>541.5</ele>
        <time>1970-01-01T01:11:11.000Z</time>
      </trkpt>
      <trkpt lat="41.056433" lon="-6.76013">
        <ele>541.1</ele>
        <time>1970-01-01T01:11:12.000Z</time>
      </trkpt>
      <trkpt lat="41.056466" lon="-6.760241">
        <ele>540.6</ele>
        <time>1970-01-01T01:11:13.000Z</time>
      </trkpt>
      <trkpt lat="41.056497" lon="-6.760352">
        <ele>540.2</ele>
        <time>1970-01-01T01:11:14.000Z</time>
      </trkpt>
      <trkpt lat="41.05653" lon="-6.760463">
        <ele>539.7</ele>
        <time>1970-01-01T01:11:15.000Z</time>
      </trkpt>
      <trkpt lat="41.056562" lon="-6.760573">
        <ele>539.2</ele>
        <time>1970-01-01T01:11:16.000Z</time>
      </trkpt>
      <trkpt lat="41.056595" lon="-6.760679">
        <ele>538.6</ele>
        <time>1970-01-01T01:11:17.000Z</time>
      </trkpt>
      <trkpt lat="41.056627" lon="-6.760778">
        <ele>538.1</ele>
        <time>1970-01-01T01:11:18.000Z</time>
      </trkpt>
      <trkpt lat="41.056658" lon="-6.760871">
        <ele>537.6</ele>
        <time>1970-01-01T01:11:19.000Z</time>
      </trkpt>
      <trkpt lat="41.056687" lon="-6.760962">
        <ele>537</ele>
        <time>1970-01-01T01:11:20.000Z</time>
      </trkpt>
      <trkpt lat="41.056716" lon="-6.761053">
        <ele>536.4</ele>
        <time>1970-01-01T01:11:21.000Z</time>
      </trkpt>
      <trkpt lat="41.056744" lon="-6.761145">
        <ele>535.8</ele>
        <time>1970-01-01T01:11:22.000Z</time>
      </trkpt>
      <trkpt lat="41.056774" lon="-6.761238">
        <ele>535.2</ele>
        <time>1970-01-01T01:11:23.000Z</time>
      </trkpt>
      <trkpt lat="41.056803" lon="-6.761334">
        <ele>534.5</ele>
        <time>1970-01-01T01:11:24.000Z</time>
      </trkpt>
      <trkpt lat="41.056834" lon="-6.761435">
        <ele>533.8</ele>
        <time>1970-01-01T01:11:25.000Z</time>
      </trkpt>
      <trkpt lat="41.056866" lon="-6.761541">
        <ele>533.1</ele>
        <time>1970-01-01T01:11:26.000Z</time>
      </trkpt>
      <trkpt lat="41.056899" lon="-6.761652">
        <ele>532.6</ele>
        <time>1970-01-01T01:11:27.000Z</time>
      </trkpt>
      <trkpt lat="41.056931" lon="-6.76176">
        <ele>532.2</ele>
        <time>1970-01-01T01:11:28.000Z</time>
      </trkpt>
      <trkpt lat="41.056963" lon="-6.761862">
        <ele>531.9</ele>
        <time>1970-01-01T01:11:29.000Z</time>
      </trkpt>
      <trkpt lat="41.056992" lon="-6.761954">
        <ele>531.5</ele>
        <time>1970-01-01T01:11:30.000Z</time>
      </trkpt>
      <trkpt lat="41.057012" lon="-6.762033">
        <ele>530.9</ele>
        <time>1970-01-01T01:11:31.000Z</time>
      </trkpt>
      <trkpt lat="41.057023" lon="-6.762098">
        <ele>530.3</ele>
        <time>1970-01-01T01:11:32.000Z</time>
      </trkpt>
      <trkpt lat="41.057019" lon="-6.762154">
        <ele>529.7</ele>
        <time>1970-01-01T01:11:33.000Z</time>
      </trkpt>
      <trkpt lat="41.057008" lon="-6.762206">
        <ele>529.5</ele>
        <time>1970-01-01T01:11:34.000Z</time>
      </trkpt>
      <trkpt lat="41.056992" lon="-6.762255">
        <ele>529.2</ele>
        <time>1970-01-01T01:11:35.000Z</time>
      </trkpt>
      <trkpt lat="41.056976" lon="-6.762301">
        <ele>529</ele>
        <time>1970-01-01T01:11:36.000Z</time>
      </trkpt>
      <trkpt lat="41.05696" lon="-6.762345">
        <ele>528.8</ele>
        <time>1970-01-01T01:11:37.000Z</time>
      </trkpt>
      <trkpt lat="41.056943" lon="-6.76239">
        <ele>528.7</ele>
        <time>1970-01-01T01:11:38.000Z</time>
      </trkpt>
      <trkpt lat="41.056926" lon="-6.762435">
        <ele>528.6</ele>
        <time>1970-01-01T01:11:39.000Z</time>
      </trkpt>
      <trkpt lat="41.056909" lon="-6.762481">
        <ele>528.6</ele>
        <time>1970-01-01T01:11:40.000Z</time>
      </trkpt>
      <trkpt lat="41.056892" lon="-6.762525">
        <ele>528.6</ele>
        <time>1970-01-01T01:11:41.000Z</time>
      </trkpt>
      <trkpt lat="41.056874" lon="-6.762569">
        <ele>528.7</ele>
        <time>1970-01-01T01:11:42.000Z</time>
      </trkpt>
      <trkpt lat="41.056857" lon="-6.762611">
        <ele>528.8</ele>
        <time>1970-01-01T01:11:43.000Z</time>
      </trkpt>
      <trkpt lat="41.056841" lon="-6.762653">
        <ele>528.9</ele>
        <time>1970-01-01T01:11:44.000Z</time>
      </trkpt>
      <trkpt lat="41.056824" lon="-6.762694">
        <ele>529.1</ele>
        <time>1970-01-01T01:11:45.000Z</time>
      </trkpt>
      <trkpt lat="41.056807" lon="-6.762735">
        <ele>529.3</ele>
        <time>1970-01-01T01:11:46.000Z</time>
      </trkpt>
      <trkpt lat="41.05679" lon="-6.762776">
        <ele>529.6</ele>
        <time>1970-01-01T01:11:47.000Z</time>
      </trkpt>
      <trkpt lat="41.056773" lon="-6.762815">
        <ele>529.8</ele>
        <time>1970-01-01T01:11:48.000Z</time>
      </trkpt>
      <trkpt lat="41.056756" lon="-6.762853">
        <ele>530.1</ele>
        <time>1970-01-01T01:11:49.000Z</time>
      </trkpt>
      <trkpt lat="41.056739" lon="-6.762888">
        <ele>530.4</ele>
        <time>1970-01-01T01:11:50.000Z</time>
      </trkpt>
      <trkpt lat="41.056723" lon="-6.762922">
        <ele>530.8</ele>
        <time>1970-01-01T01:11:51.000Z</time>
      </trkpt>
      <trkpt lat="41.056708" lon="-6.762954">
        <ele>531.1</ele>
        <time>1970-01-01T01:11:52.000Z</time>
      </trkpt>
      <trkpt lat="41.056695" lon="-6.762985">
        <ele>531.4</ele>
        <time>1970-01-01T01:11:53.000Z</time>
      </trkpt>
      <trkpt lat="41.056683" lon="-6.763015">
        <ele>531.6</ele>
        <time>1970-01-01T01:11:54.000Z</time>
      </trkpt>
      <trkpt lat="41.056672" lon="-6.763046">
        <ele>532</ele>
        <time>1970-01-01T01:11:55.000Z</time>
      </trkpt>
      <trkpt lat="41.056661" lon="-6.763076">
        <ele>532.3</ele>
        <time>1970-01-01T01:11:56.000Z</time>
      </trkpt>
      <trkpt lat="41.056652" lon="-6.763107">
        <ele>532.6</ele>
        <time>1970-01-01T01:11:57.000Z</time>
      </trkpt>
      <trkpt lat="41.056642" lon="-6.763138">
        <ele>532.9</ele>
        <time>1970-01-01T01:11:58.000Z</time>
      </trkpt>
      <trkpt lat="41.056632" lon="-6.763168">
        <ele>533.2</ele>
        <time>1970-01-01T01:11:59.000Z</time>
      </trkpt>
      <trkpt lat="41.05662" lon="-6.763197">
        <ele>533.5</ele>
        <time>1970-01-01T01:12:00.000Z</time>
      </trkpt>
      <trkpt lat="41.056609" lon="-6.763226">
        <ele>533.9</ele>
        <time>1970-01-01T01:12:01.000Z</time>
      </trkpt>
      <trkpt lat="41.056598" lon="-6.763255">
        <ele>534.2</ele>
        <time>1970-01-01T01:12:02.000Z</time>
      </trkpt>
      <trkpt lat="41.056587" lon="-6.763284">
        <ele>534.5</ele>
        <time>1970-01-01T01:12:03.000Z</time>
      </trkpt>
      <trkpt lat="41.056577" lon="-6.763313">
        <ele>534.9</ele>
        <time>1970-01-01T01:12:04.000Z</time>
      </trkpt>
      <trkpt lat="41.056567" lon="-6.763342">
        <ele>535.2</ele>
        <time>1970-01-01T01:12:05.000Z</time>
      </trkpt>
      <trkpt lat="41.056557" lon="-6.76337">
        <ele>535.5</ele>
        <time>1970-01-01T01:12:06.000Z</time>
      </trkpt>
      <trkpt lat="41.056547" lon="-6.763399">
        <ele>535.9</ele>
        <time>1970-01-01T01:12:07.000Z</time>
      </trkpt>
      <trkpt lat="41.056538" lon="-6.763428">
        <ele>536.2</ele>
        <time>1970-01-01T01:12:08.000Z</time>
      </trkpt>
      <trkpt lat="41.056528" lon="-6.763457">
        <ele>536.5</ele>
        <time>1970-01-01T01:12:09.000Z</time>
      </trkpt>
      <trkpt lat="41.056518" lon="-6.763486">
        <ele>536.9</ele>
        <time>1970-01-01T01:12:10.000Z</time>
      </trkpt>
      <trkpt lat="41.056508" lon="-6.763514">
        <ele>537.2</ele>
        <time>1970-01-01T01:12:11.000Z</time>
      </trkpt>
      <trkpt lat="41.056498" lon="-6.763543">
        <ele>537.6</ele>
        <time>1970-01-01T01:12:12.000Z</time>
      </trkpt>
      <trkpt lat="41.056489" lon="-6.763572">
        <ele>537.9</ele>
        <time>1970-01-01T01:12:13.000Z</time>
      </trkpt>
      <trkpt lat="41.05648" lon="-6.763601">
        <ele>538.3</ele>
        <time>1970-01-01T01:12:14.000Z</time>
      </trkpt>
      <trkpt lat="41.056469" lon="-6.763629">
        <ele>538.6</ele>
        <time>1970-01-01T01:12:15.000Z</time>
      </trkpt>
      <trkpt lat="41.056459" lon="-6.763656">
        <ele>538.9</ele>
        <time>1970-01-01T01:12:16.000Z</time>
      </trkpt>
      <trkpt lat="41.056449" lon="-6.763682">
        <ele>539.2</ele>
        <time>1970-01-01T01:12:17.000Z</time>
      </trkpt>
      <trkpt lat="41.056441" lon="-6.763706">
        <ele>539.5</ele>
        <time>1970-01-01T01:12:18.000Z</time>
      </trkpt>
      <trkpt lat="41.056434" lon="-6.76373">
        <ele>539.8</ele>
        <time>1970-01-01T01:12:19.000Z</time>
      </trkpt>
      <trkpt lat="41.056429" lon="-6.763754">
        <ele>540</ele>
        <time>1970-01-01T01:12:20.000Z</time>
      </trkpt>
      <trkpt lat="41.056422" lon="-6.763777">
        <ele>540.3</ele>
        <time>1970-01-01T01:12:21.000Z</time>
      </trkpt>
      <trkpt lat="41.056414" lon="-6.763799">
        <ele>540.5</ele>
        <time>1970-01-01T01:12:22.000Z</time>
      </trkpt>
      <trkpt lat="41.056406" lon="-6.763821">
        <ele>540.8</ele>
        <time>1970-01-01T01:12:23.000Z</time>
      </trkpt>
      <trkpt lat="41.056398" lon="-6.763844">
        <ele>541</ele>
        <time>1970-01-01T01:12:24.000Z</time>
      </trkpt>
      <trkpt lat="41.05639" lon="-6.763867">
        <ele>541.3</ele>
        <time>1970-01-01T01:12:25.000Z</time>
      </trkpt>
      <trkpt lat="41.056384" lon="-6.76389">
        <ele>541.6</ele>
        <time>1970-01-01T01:12:26.000Z</time>
      </trkpt>
      <trkpt lat="41.056378" lon="-6.763912">
        <ele>541.8</ele>
        <time>1970-01-01T01:12:27.000Z</time>
      </trkpt>
      <trkpt lat="41.056371" lon="-6.763935">
        <ele>542</ele>
        <time>1970-01-01T01:12:28.000Z</time>
      </trkpt>
      <trkpt lat="41.056363" lon="-6.763959">
        <ele>542.3</ele>
        <time>1970-01-01T01:12:29.000Z</time>
      </trkpt>
      <trkpt lat="41.056355" lon="-6.763982">
        <ele>542.6</ele>
        <time>1970-01-01T01:12:30.000Z</time>
      </trkpt>
      <trkpt lat="41.056347" lon="-6.764004">
        <ele>542.8</ele>
        <time>1970-01-01T01:12:31.000Z</time>
      </trkpt>
      <trkpt lat="41.05634" lon="-6.764026">
        <ele>543.1</ele>
        <time>1970-01-01T01:12:32.000Z</time>
      </trkpt>
      <trkpt lat="41.056333" lon="-6.764048">
        <ele>543.3</ele>
        <time>1970-01-01T01:12:33.000Z</time>
      </trkpt>
      <trkpt lat="41.056325" lon="-6.76407">
        <ele>543.6</ele>
        <time>1970-01-01T01:12:34.000Z</time>
      </trkpt>
      <trkpt lat="41.056316" lon="-6.764091">
        <ele>543.8</ele>
        <time>1970-01-01T01:12:35.000Z</time>
      </trkpt>
      <trkpt lat="41.056306" lon="-6.764109">
        <ele>544.1</ele>
        <time>1970-01-01T01:12:36.000Z</time>
      </trkpt>
      <trkpt lat="41.056291" lon="-6.764126">
        <ele>544.4</ele>
        <time>1970-01-01T01:12:37.000Z</time>
      </trkpt>
      <trkpt lat="41.056273" lon="-6.76414">
        <ele>544.7</ele>
        <time>1970-01-01T01:12:38.000Z</time>
      </trkpt>
      <trkpt lat="41.056255" lon="-6.764148">
        <ele>545</ele>
        <time>1970-01-01T01:12:39.000Z</time>
      </trkpt>
      <trkpt lat="41.056237" lon="-6.764151">
        <ele>545.3</ele>
        <time>1970-01-01T01:12:40.000Z</time>
      </trkpt>
      <trkpt lat="41.05622" lon="-6.764149">
        <ele>545.5</ele>
        <time>1970-01-01T01:12:41.000Z</time>
      </trkpt>
      <trkpt lat="41.056204" lon="-6.764143">
        <ele>545.8</ele>
        <time>1970-01-01T01:12:42.000Z</time>
      </trkpt>
      <trkpt lat="41.056188" lon="-6.764133">
        <ele>546.1</ele>
        <time>1970-01-01T01:12:43.000Z</time>
      </trkpt>
      <trkpt lat="41.056175" lon="-6.764119">
        <ele>546.4</ele>
        <time>1970-01-01T01:12:44.000Z</time>
      </trkpt>
      <trkpt lat="41.056163" lon="-6.764103">
        <ele>546.6</ele>
        <time>1970-01-01T01:12:45.000Z</time>
      </trkpt>
      <trkpt lat="41.056153" lon="-6.764086">
        <ele>546.9</ele>
        <time>1970-01-01T01:12:46.000Z</time>
      </trkpt>
      <trkpt lat="41.056144" lon="-6.764068">
        <ele>547.1</ele>
        <time>1970-01-01T01:12:47.000Z</time>
      </trkpt>
      <trkpt lat="41.056136" lon="-6.764049">
        <ele>547.4</ele>
        <time>1970-01-01T01:12:48.000Z</time>
      </trkpt>
      <trkpt lat="41.056133" lon="-6.76403">
        <ele>547.6</ele>
        <time>1970-01-01T01:12:49.000Z</time>
      </trkpt>
      <trkpt lat="41.05613" lon="-6.764011">
        <ele>547.8</ele>
        <time>1970-01-01T01:12:50.000Z</time>
      </trkpt>
      <trkpt lat="41.056126" lon="-6.763991">
        <ele>548.1</ele>
        <time>1970-01-01T01:12:51.000Z</time>
      </trkpt>
      <trkpt lat="41.056121" lon="-6.76397">
        <ele>548.3</ele>
        <time>1970-01-01T01:12:52.000Z</time>
      </trkpt>
      <trkpt lat="41.056116" lon="-6.763948">
        <ele>548.6</ele>
        <time>1970-01-01T01:12:53.000Z</time>
      </trkpt>
      <trkpt lat="41.056113" lon="-6.763927">
        <ele>548.8</ele>
        <time>1970-01-01T01:12:54.000Z</time>
      </trkpt>
      <trkpt lat="41.05611" lon="-6.763905">
        <ele>549</ele>
        <time>1970-01-01T01:12:55.000Z</time>
      </trkpt>
      <trkpt lat="41.056108" lon="-6.763884">
        <ele>549.3</ele>
        <time>1970-01-01T01:12:56.000Z</time>
      </trkpt>
      <trkpt lat="41.056105" lon="-6.763863">
        <ele>549.5</ele>
        <time>1970-01-01T01:12:57.000Z</time>
      </trkpt>
      <trkpt lat="41.056103" lon="-6.763839">
        <ele>549.8</ele>
        <time>1970-01-01T01:12:58.000Z</time>
      </trkpt>
      <trkpt lat="41.0561" lon="-6.763817">
        <ele>550</ele>
        <time>1970-01-01T01:12:59.000Z</time>
      </trkpt>
      <trkpt lat="41.056097" lon="-6.763796">
        <ele>550.3</ele>
        <time>1970-01-01T01:13:00.000Z</time>
      </trkpt>
      <trkpt lat="41.056094" lon="-6.763776">
        <ele>550.5</ele>
        <time>1970-01-01T01:13:01.000Z</time>
      </trkpt>
      <trkpt lat="41.056092" lon="-6.763756">
        <ele>550.8</ele>
        <time>1970-01-01T01:13:02.000Z</time>
      </trkpt>
      <trkpt lat="41.056089" lon="-6.763737">
        <ele>551</ele>
        <time>1970-01-01T01:13:03.000Z</time>
      </trkpt>
      <trkpt lat="41.056085" lon="-6.763719">
        <ele>551.2</ele>
        <time>1970-01-01T01:13:04.000Z</time>
      </trkpt>
      <trkpt lat="41.056081" lon="-6.763701">
        <ele>551.4</ele>
        <time>1970-01-01T01:13:05.000Z</time>
      </trkpt>
      <trkpt lat="41.056076" lon="-6.763681">
        <ele>551.7</ele>
        <time>1970-01-01T01:13:06.000Z</time>
      </trkpt>
      <trkpt lat="41.056071" lon="-6.763661">
        <ele>551.9</ele>
        <time>1970-01-01T01:13:07.000Z</time>
      </trkpt>
      <trkpt lat="41.056066" lon="-6.763639">
        <ele>552.2</ele>
        <time>1970-01-01T01:13:08.000Z</time>
      </trkpt>
      <trkpt lat="41.05606" lon="-6.763616">
        <ele>552.5</ele>
        <time>1970-01-01T01:13:09.000Z</time>
      </trkpt>
      <trkpt lat="41.056056" lon="-6.763595">
        <ele>552.7</ele>
        <time>1970-01-01T01:13:10.000Z</time>
      </trkpt>
      <trkpt lat="41.056051" lon="-6.763574">
        <ele>553</ele>
        <time>1970-01-01T01:13:11.000Z</time>
      </trkpt>
      <trkpt lat="41.056046" lon="-6.763554">
        <ele>553.2</ele>
        <time>1970-01-01T01:13:12.000Z</time>
      </trkpt>
      <trkpt lat="41.05604" lon="-6.763533">
        <ele>553.5</ele>
        <time>1970-01-01T01:13:13.000Z</time>
      </trkpt>
      <trkpt lat="41.056036" lon="-6.763512">
        <ele>553.7</ele>
        <time>1970-01-01T01:13:14.000Z</time>
      </trkpt>
      <trkpt lat="41.056031" lon="-6.76349">
        <ele>554</ele>
        <time>1970-01-01T01:13:15.000Z</time>
      </trkpt>
      <trkpt lat="41.056026" lon="-6.763467">
        <ele>554.3</ele>
        <time>1970-01-01T01:13:16.000Z</time>
      </trkpt>
      <trkpt lat="41.05602" lon="-6.763443">
        <ele>554.6</ele>
        <time>1970-01-01T01:13:17.000Z</time>
      </trkpt>
      <trkpt lat="41.056015" lon="-6.76342">
        <ele>554.8</ele>
        <time>1970-01-01T01:13:18.000Z</time>
      </trkpt>
      <trkpt lat="41.05601" lon="-6.763398">
        <ele>555.1</ele>
        <time>1970-01-01T01:13:19.000Z</time>
      </trkpt>
      <trkpt lat="41.056005" lon="-6.763375">
        <ele>555.4</ele>
        <time>1970-01-01T01:13:20.000Z</time>
      </trkpt>
      <trkpt lat="41.055999" lon="-6.763353">
        <ele>555.6</ele>
        <time>1970-01-01T01:13:21.000Z</time>
      </trkpt>
      <trkpt lat="41.055992" lon="-6.763331">
        <ele>555.9</ele>
        <time>1970-01-01T01:13:22.000Z</time>
      </trkpt>
      <trkpt lat="41.055986" lon="-6.763308">
        <ele>556.2</ele>
        <time>1970-01-01T01:13:23.000Z</time>
      </trkpt>
      <trkpt lat="41.055981" lon="-6.763286">
        <ele>556.4</ele>
        <time>1970-01-01T01:13:24.000Z</time>
      </trkpt>
      <trkpt lat="41.055975" lon="-6.763263">
        <ele>556.7</ele>
        <time>1970-01-01T01:13:25.000Z</time>
      </trkpt>
      <trkpt lat="41.055969" lon="-6.763241">
        <ele>557</ele>
        <time>1970-01-01T01:13:26.000Z</time>
      </trkpt>
      <trkpt lat="41.055963" lon="-6.763217">
        <ele>557.3</ele>
        <time>1970-01-01T01:13:27.000Z</time>
      </trkpt>
      <trkpt lat="41.055957" lon="-6.763194">
        <ele>557.5</ele>
        <time>1970-01-01T01:13:28.000Z</time>
      </trkpt>
      <trkpt lat="41.055951" lon="-6.76317">
        <ele>557.8</ele>
        <time>1970-01-01T01:13:29.000Z</time>
      </trkpt>
      <trkpt lat="41.055944" lon="-6.763146">
        <ele>558.1</ele>
        <time>1970-01-01T01:13:30.000Z</time>
      </trkpt>
      <trkpt lat="41.055937" lon="-6.763121">
        <ele>558.4</ele>
        <time>1970-01-01T01:13:31.000Z</time>
      </trkpt>
      <trkpt lat="41.055931" lon="-6.763096">
        <ele>558.7</ele>
        <time>1970-01-01T01:13:32.000Z</time>
      </trkpt>
      <trkpt lat="41.055925" lon="-6.763073">
        <ele>558.9</ele>
        <time>1970-01-01T01:13:33.000Z</time>
      </trkpt>
      <trkpt lat="41.055919" lon="-6.76305">
        <ele>559.2</ele>
        <time>1970-01-01T01:13:34.000Z</time>
      </trkpt>
      <trkpt lat="41.055914" lon="-6.763027">
        <ele>559.5</ele>
        <time>1970-01-01T01:13:35.000Z</time>
      </trkpt>
      <trkpt lat="41.055908" lon="-6.763005">
        <ele>559.7</ele>
        <time>1970-01-01T01:13:36.000Z</time>
      </trkpt>
      <trkpt lat="41.055902" lon="-6.762984">
        <ele>559.9</ele>
        <time>1970-01-01T01:13:37.000Z</time>
      </trkpt>
      <trkpt lat="41.055897" lon="-6.762963">
        <ele>560.2</ele>
        <time>1970-01-01T01:13:38.000Z</time>
      </trkpt>
      <trkpt lat="41.055891" lon="-6.762942">
        <ele>560.4</ele>
        <time>1970-01-01T01:13:39.000Z</time>
      </trkpt>
      <trkpt lat="41.055885" lon="-6.762917">
        <ele>560.7</ele>
        <time>1970-01-01T01:13:40.000Z</time>
      </trkpt>
      <trkpt lat="41.055878" lon="-6.762892">
        <ele>561</ele>
        <time>1970-01-01T01:13:41.000Z</time>
      </trkpt>
      <trkpt lat="41.05587" lon="-6.762866">
        <ele>561.3</ele>
        <time>1970-01-01T01:13:42.000Z</time>
      </trkpt>
      <trkpt lat="41.055864" lon="-6.762842">
        <ele>561.6</ele>
        <time>1970-01-01T01:13:43.000Z</time>
      </trkpt>
      <trkpt lat="41.055857" lon="-6.762818">
        <ele>561.9</ele>
        <time>1970-01-01T01:13:44.000Z</time>
      </trkpt>
      <trkpt lat="41.055851" lon="-6.762794">
        <ele>562.2</ele>
        <time>1970-01-01T01:13:45.000Z</time>
      </trkpt>
      <trkpt lat="41.055844" lon="-6.762771">
        <ele>562.5</ele>
        <time>1970-01-01T01:13:46.000Z</time>
      </trkpt>
      <trkpt lat="41.055836" lon="-6.762747">
        <ele>562.8</ele>
        <time>1970-01-01T01:13:47.000Z</time>
      </trkpt>
      <trkpt lat="41.055829" lon="-6.762723">
        <ele>563</ele>
        <time>1970-01-01T01:13:48.000Z</time>
      </trkpt>
      <trkpt lat="41.055822" lon="-6.762699">
        <ele>563.3</ele>
        <time>1970-01-01T01:13:49.000Z</time>
      </trkpt>
      <trkpt lat="41.055814" lon="-6.762674">
        <ele>563.6</ele>
        <time>1970-01-01T01:13:50.000Z</time>
      </trkpt>
      <trkpt lat="41.055807" lon="-6.762648">
        <ele>563.9</ele>
        <time>1970-01-01T01:13:51.000Z</time>
      </trkpt>
      <trkpt lat="41.055799" lon="-6.762623">
        <ele>564.2</ele>
        <time>1970-01-01T01:13:52.000Z</time>
      </trkpt>
      <trkpt lat="41.055791" lon="-6.762599">
        <ele>564.5</ele>
        <time>1970-01-01T01:13:53.000Z</time>
      </trkpt>
      <trkpt lat="41.055784" lon="-6.762576">
        <ele>564.7</ele>
        <time>1970-01-01T01:13:54.000Z</time>
      </trkpt>
      <trkpt lat="41.055775" lon="-6.762555">
        <ele>565</ele>
        <time>1970-01-01T01:13:55.000Z</time>
      </trkpt>
      <trkpt lat="41.055766" lon="-6.762533">
        <ele>565.2</ele>
        <time>1970-01-01T01:13:56.000Z</time>
      </trkpt>
      <trkpt lat="41.055756" lon="-6.762511">
        <ele>565.5</ele>
        <time>1970-01-01T01:13:57.000Z</time>
      </trkpt>
      <trkpt lat="41.055746" lon="-6.762489">
        <ele>565.7</ele>
        <time>1970-01-01T01:13:58.000Z</time>
      </trkpt>
      <trkpt lat="41.055736" lon="-6.762468">
        <ele>566</ele>
        <time>1970-01-01T01:13:59.000Z</time>
      </trkpt>
      <trkpt lat="41.055726" lon="-6.762446">
        <ele>566.2</ele>
        <time>1970-01-01T01:14:00.000Z</time>
      </trkpt>
      <trkpt lat="41.055718" lon="-6.762425">
        <ele>566.5</ele>
        <time>1970-01-01T01:14:01.000Z</time>
      </trkpt>
      <trkpt lat="41.05571" lon="-6.762403">
        <ele>566.7</ele>
        <time>1970-01-01T01:14:02.000Z</time>
      </trkpt>
      <trkpt lat="41.055701" lon="-6.762382">
        <ele>567</ele>
        <time>1970-01-01T01:14:03.000Z</time>
      </trkpt>
      <trkpt lat="41.055693" lon="-6.762361">
        <ele>567.2</ele>
        <time>1970-01-01T01:14:04.000Z</time>
      </trkpt>
      <trkpt lat="41.055684" lon="-6.762339">
        <ele>567.5</ele>
        <time>1970-01-01T01:14:05.000Z</time>
      </trkpt>
      <trkpt lat="41.055674" lon="-6.762316">
        <ele>567.8</ele>
        <time>1970-01-01T01:14:06.000Z</time>
      </trkpt>
      <trkpt lat="41.055662" lon="-6.762294">
        <ele>568.1</ele>
        <time>1970-01-01T01:14:07.000Z</time>
      </trkpt>
      <trkpt lat="41.05565" lon="-6.762273">
        <ele>568.3</ele>
        <time>1970-01-01T01:14:08.000Z</time>
      </trkpt>
      <trkpt lat="41.055639" lon="-6.762252">
        <ele>568.6</ele>
        <time>1970-01-01T01:14:09.000Z</time>
      </trkpt>
      <trkpt lat="41.055629" lon="-6.762231">
        <ele>568.9</ele>
        <time>1970-01-01T01:14:10.000Z</time>
      </trkpt>
      <trkpt lat="41.055618" lon="-6.762208">
        <ele>569.2</ele>
        <time>1970-01-01T01:14:11.000Z</time>
      </trkpt>
      <trkpt lat="41.055608" lon="-6.762186">
        <ele>569.5</ele>
        <time>1970-01-01T01:14:12.000Z</time>
      </trkpt>
      <trkpt lat="41.055597" lon="-6.762162">
        <ele>569.8</ele>
        <time>1970-01-01T01:14:13.000Z</time>
      </trkpt>
      <trkpt lat="41.055587" lon="-6.762138">
        <ele>570.1</ele>
        <time>1970-01-01T01:14:14.000Z</time>
      </trkpt>
      <trkpt lat="41.055578" lon="-6.762115">
        <ele>570.4</ele>
        <time>1970-01-01T01:14:15.000Z</time>
      </trkpt>
      <trkpt lat="41.055568" lon="-6.762092">
        <ele>570.7</ele>
        <time>1970-01-01T01:14:16.000Z</time>
      </trkpt>
      <trkpt lat="41.055558" lon="-6.76207">
        <ele>570.9</ele>
        <time>1970-01-01T01:14:17.000Z</time>
      </trkpt>
      <trkpt lat="41.055548" lon="-6.762049">
        <ele>571.2</ele>
        <time>1970-01-01T01:14:18.000Z</time>
      </trkpt>
      <trkpt lat="41.055538" lon="-6.762027">
        <ele>571.5</ele>
        <time>1970-01-01T01:14:19.000Z</time>
      </trkpt>
      <trkpt lat="41.055528" lon="-6.762007">
        <ele>571.7</ele>
        <time>1970-01-01T01:14:20.000Z</time>
      </trkpt>
      <trkpt lat="41.055518" lon="-6.761986">
        <ele>572</ele>
        <time>1970-01-01T01:14:21.000Z</time>
      </trkpt>
      <trkpt lat="41.055508" lon="-6.761964">
        <ele>572.3</ele>
        <time>1970-01-01T01:14:22.000Z</time>
      </trkpt>
      <trkpt lat="41.055499" lon="-6.761941">
        <ele>572.5</ele>
        <time>1970-01-01T01:14:23.000Z</time>
      </trkpt>
      <trkpt lat="41.05549" lon="-6.761918">
        <ele>572.8</ele>
        <time>1970-01-01T01:14:24.000Z</time>
      </trkpt>
      <trkpt lat="41.055478" lon="-6.761896">
        <ele>573.1</ele>
        <time>1970-01-01T01:14:25.000Z</time>
      </trkpt>
      <trkpt lat="41.055466" lon="-6.761874">
        <ele>573.4</ele>
        <time>1970-01-01T01:14:26.000Z</time>
      </trkpt>
      <trkpt lat="41.055455" lon="-6.761852">
        <ele>573.6</ele>
        <time>1970-01-01T01:14:27.000Z</time>
      </trkpt>
      <trkpt lat="41.055445" lon="-6.761831">
        <ele>573.9</ele>
        <time>1970-01-01T01:14:28.000Z</time>
      </trkpt>
      <trkpt lat="41.055435" lon="-6.761811">
        <ele>574.1</ele>
        <time>1970-01-01T01:14:29.000Z</time>
      </trkpt>
      <trkpt lat="41.055424" lon="-6.761791">
        <ele>574.4</ele>
        <time>1970-01-01T01:14:30.000Z</time>
      </trkpt>
      <trkpt lat="41.055414" lon="-6.761771">
        <ele>574.6</ele>
        <time>1970-01-01T01:14:31.000Z</time>
      </trkpt>
      <trkpt lat="41.055404" lon="-6.761751">
        <ele>574.9</ele>
        <time>1970-01-01T01:14:32.000Z</time>
      </trkpt>
      <trkpt lat="41.055393" lon="-6.761732">
        <ele>575.1</ele>
        <time>1970-01-01T01:14:33.000Z</time>
      </trkpt>
      <trkpt lat="41.055382" lon="-6.761713">
        <ele>575.4</ele>
        <time>1970-01-01T01:14:34.000Z</time>
      </trkpt>
      <trkpt lat="41.055371" lon="-6.761693">
        <ele>575.6</ele>
        <time>1970-01-01T01:14:35.000Z</time>
      </trkpt>
      <trkpt lat="41.05536" lon="-6.761674">
        <ele>575.8</ele>
        <time>1970-01-01T01:14:36.000Z</time>
      </trkpt>
      <trkpt lat="41.055349" lon="-6.761655">
        <ele>576.1</ele>
        <time>1970-01-01T01:14:37.000Z</time>
      </trkpt>
      <trkpt lat="41.055339" lon="-6.761635">
        <ele>576.4</ele>
        <time>1970-01-01T01:14:38.000Z</time>
      </trkpt>
      <trkpt lat="41.055328" lon="-6.761616">
        <ele>576.6</ele>
        <time>1970-01-01T01:14:39.000Z</time>
      </trkpt>
      <trkpt lat="41.055318" lon="-6.761597">
        <ele>576.9</ele>
        <time>1970-01-01T01:14:40.000Z</time>
      </trkpt>
      <trkpt lat="41.055309" lon="-6.761577">
        <ele>577.2</ele>
        <time>1970-01-01T01:14:41.000Z</time>
      </trkpt>
      <trkpt lat="41.0553" lon="-6.761557">
        <ele>577.4</ele>
        <time>1970-01-01T01:14:42.000Z</time>
      </trkpt>
      <trkpt lat="41.055291" lon="-6.761536">
        <ele>577.7</ele>
        <time>1970-01-01T01:14:43.000Z</time>
      </trkpt>
      <trkpt lat="41.055281" lon="-6.761515">
        <ele>578</ele>
        <time>1970-01-01T01:14:44.000Z</time>
      </trkpt>
      <trkpt lat="41.05527" lon="-6.761494">
        <ele>578.3</ele>
        <time>1970-01-01T01:14:45.000Z</time>
      </trkpt>
      <trkpt lat="41.055258" lon="-6.761473">
        <ele>578.6</ele>
        <time>1970-01-01T01:14:46.000Z</time>
      </trkpt>
      <trkpt lat="41.055247" lon="-6.761453">
        <ele>578.9</ele>
        <time>1970-01-01T01:14:47.000Z</time>
      </trkpt>
      <trkpt lat="41.055237" lon="-6.761432">
        <ele>579.2</ele>
        <time>1970-01-01T01:14:48.000Z</time>
      </trkpt>
      <trkpt lat="41.055227" lon="-6.761412">
        <ele>579.5</ele>
        <time>1970-01-01T01:14:49.000Z</time>
      </trkpt>
      <trkpt lat="41.055217" lon="-6.761392">
        <ele>579.8</ele>
        <time>1970-01-01T01:14:50.000Z</time>
      </trkpt>
      <trkpt lat="41.055207" lon="-6.761373">
        <ele>580.1</ele>
        <time>1970-01-01T01:14:51.000Z</time>
      </trkpt>
      <trkpt lat="41.055196" lon="-6.761354">
        <ele>580.4</ele>
        <time>1970-01-01T01:14:52.000Z</time>
      </trkpt>
      <trkpt lat="41.055184" lon="-6.761335">
        <ele>580.6</ele>
        <time>1970-01-01T01:14:53.000Z</time>
      </trkpt>
      <trkpt lat="41.055174" lon="-6.761316">
        <ele>580.9</ele>
        <time>1970-01-01T01:14:54.000Z</time>
      </trkpt>
      <trkpt lat="41.055163" lon="-6.761296">
        <ele>581.2</ele>
        <time>1970-01-01T01:14:55.000Z</time>
      </trkpt>
      <trkpt lat="41.055152" lon="-6.761275">
        <ele>581.5</ele>
        <time>1970-01-01T01:14:56.000Z</time>
      </trkpt>
      <trkpt lat="41.05514" lon="-6.761256">
        <ele>581.8</ele>
        <time>1970-01-01T01:14:57.000Z</time>
      </trkpt>
      <trkpt lat="41.055128" lon="-6.761236">
        <ele>582.1</ele>
        <time>1970-01-01T01:14:58.000Z</time>
      </trkpt>
      <trkpt lat="41.055117" lon="-6.761217">
        <ele>582.4</ele>
        <time>1970-01-01T01:14:59.000Z</time>
      </trkpt>
      <trkpt lat="41.055106" lon="-6.761197">
        <ele>582.7</ele>
        <time>1970-01-01T01:15:00.000Z</time>
      </trkpt>
      <trkpt lat="41.055094" lon="-6.761177">
        <ele>583</ele>
        <time>1970-01-01T01:15:01.000Z</time>
      </trkpt>
      <trkpt lat="41.055082" lon="-6.761157">
        <ele>583.3</ele>
        <time>1970-01-01T01:15:02.000Z</time>
      </trkpt>
      <trkpt lat="41.055069" lon="-6.761138">
        <ele>583.6</ele>
        <time>1970-01-01T01:15:03.000Z</time>
      </trkpt>
      <trkpt lat="41.055058" lon="-6.761118">
        <ele>583.9</ele>
        <time>1970-01-01T01:15:04.000Z</time>
      </trkpt>
      <trkpt lat="41.055046" lon="-6.761097">
        <ele>584.2</ele>
        <time>1970-01-01T01:15:05.000Z</time>
      </trkpt>
      <trkpt lat="41.055035" lon="-6.761077">
        <ele>584.5</ele>
        <time>1970-01-01T01:15:06.000Z</time>
      </trkpt>
      <trkpt lat="41.055023" lon="-6.761058">
        <ele>584.8</ele>
        <time>1970-01-01T01:15:07.000Z</time>
      </trkpt>
      <trkpt lat="41.055012" lon="-6.761038">
        <ele>585.1</ele>
        <time>1970-01-01T01:15:08.000Z</time>
      </trkpt>
      <trkpt lat="41.055002" lon="-6.761018">
        <ele>585.4</ele>
        <time>1970-01-01T01:15:09.000Z</time>
      </trkpt>
      <trkpt lat="41.054992" lon="-6.760997">
        <ele>585.7</ele>
        <time>1970-01-01T01:15:10.000Z</time>
      </trkpt>
      <trkpt lat="41.054982" lon="-6.760977">
        <ele>586</ele>
        <time>1970-01-01T01:15:11.000Z</time>
      </trkpt>
      <trkpt lat="41.054972" lon="-6.760956">
        <ele>586.3</ele>
        <time>1970-01-01T01:15:12.000Z</time>
      </trkpt>
      <trkpt lat="41.054963" lon="-6.760936">
        <ele>586.6</ele>
        <time>1970-01-01T01:15:13.000Z</time>
      </trkpt>
      <trkpt lat="41.054953" lon="-6.760916">
        <ele>586.9</ele>
        <time>1970-01-01T01:15:14.000Z</time>
      </trkpt>
      <trkpt lat="41.054944" lon="-6.760897">
        <ele>587.1</ele>
        <time>1970-01-01T01:15:15.000Z</time>
      </trkpt>
      <trkpt lat="41.054933" lon="-6.760878">
        <ele>587.4</ele>
        <time>1970-01-01T01:15:16.000Z</time>
      </trkpt>
      <trkpt lat="41.054923" lon="-6.760858">
        <ele>587.7</ele>
        <time>1970-01-01T01:15:17.000Z</time>
      </trkpt>
      <trkpt lat="41.054913" lon="-6.760838">
        <ele>588</ele>
        <time>1970-01-01T01:15:18.000Z</time>
      </trkpt>
      <trkpt lat="41.054904" lon="-6.760818">
        <ele>588.3</ele>
        <time>1970-01-01T01:15:19.000Z</time>
      </trkpt>
      <trkpt lat="41.054894" lon="-6.760798">
        <ele>588.6</ele>
        <time>1970-01-01T01:15:20.000Z</time>
      </trkpt>
      <trkpt lat="41.054885" lon="-6.760777">
        <ele>588.9</ele>
        <time>1970-01-01T01:15:21.000Z</time>
      </trkpt>
      <trkpt lat="41.054875" lon="-6.760756">
        <ele>589.1</ele>
        <time>1970-01-01T01:15:22.000Z</time>
      </trkpt>
      <trkpt lat="41.054865" lon="-6.760734">
        <ele>589.5</ele>
        <time>1970-01-01T01:15:23.000Z</time>
      </trkpt>
      <trkpt lat="41.054854" lon="-6.760713">
        <ele>589.8</ele>
        <time>1970-01-01T01:15:24.000Z</time>
      </trkpt>
      <trkpt lat="41.054844" lon="-6.760692">
        <ele>590</ele>
        <time>1970-01-01T01:15:25.000Z</time>
      </trkpt>
      <trkpt lat="41.054831" lon="-6.76067">
        <ele>590.3</ele>
        <time>1970-01-01T01:15:26.000Z</time>
      </trkpt>
      <trkpt lat="41.054818" lon="-6.760649">
        <ele>590.7</ele>
        <time>1970-01-01T01:15:27.000Z</time>
      </trkpt>
      <trkpt lat="41.054804" lon="-6.760628">
        <ele>591</ele>
        <time>1970-01-01T01:15:28.000Z</time>
      </trkpt>
      <trkpt lat="41.054793" lon="-6.760607">
        <ele>591.2</ele>
        <time>1970-01-01T01:15:29.000Z</time>
      </trkpt>
      <trkpt lat="41.054782" lon="-6.760587">
        <ele>591.5</ele>
        <time>1970-01-01T01:15:30.000Z</time>
      </trkpt>
      <trkpt lat="41.054771" lon="-6.760566">
        <ele>591.8</ele>
        <time>1970-01-01T01:15:31.000Z</time>
      </trkpt>
      <trkpt lat="41.054759" lon="-6.760544">
        <ele>592</ele>
        <time>1970-01-01T01:15:32.000Z</time>
      </trkpt>
      <trkpt lat="41.054747" lon="-6.760523">
        <ele>592.3</ele>
        <time>1970-01-01T01:15:33.000Z</time>
      </trkpt>
      <trkpt lat="41.054734" lon="-6.760503">
        <ele>592.6</ele>
        <time>1970-01-01T01:15:34.000Z</time>
      </trkpt>
      <trkpt lat="41.054722" lon="-6.760482">
        <ele>592.8</ele>
        <time>1970-01-01T01:15:35.000Z</time>
      </trkpt>
      <trkpt lat="41.05471" lon="-6.760461">
        <ele>593.1</ele>
        <time>1970-01-01T01:15:36.000Z</time>
      </trkpt>
      <trkpt lat="41.054698" lon="-6.760439">
        <ele>593.3</ele>
        <time>1970-01-01T01:15:37.000Z</time>
      </trkpt>
      <trkpt lat="41.054687" lon="-6.760418">
        <ele>593.5</ele>
        <time>1970-01-01T01:15:38.000Z</time>
      </trkpt>
      <trkpt lat="41.054674" lon="-6.760399">
        <ele>593.8</ele>
        <time>1970-01-01T01:15:39.000Z</time>
      </trkpt>
      <trkpt lat="41.05466" lon="-6.760379">
        <ele>594</ele>
        <time>1970-01-01T01:15:40.000Z</time>
      </trkpt>
      <trkpt lat="41.054646" lon="-6.76036">
        <ele>594.3</ele>
        <time>1970-01-01T01:15:41.000Z</time>
      </trkpt>
      <trkpt lat="41.054633" lon="-6.760338">
        <ele>594.5</ele>
        <time>1970-01-01T01:15:42.000Z</time>
      </trkpt>
      <trkpt lat="41.05462" lon="-6.760318">
        <ele>594.8</ele>
        <time>1970-01-01T01:15:43.000Z</time>
      </trkpt>
      <trkpt lat="41.054607" lon="-6.760298">
        <ele>595</ele>
        <time>1970-01-01T01:15:44.000Z</time>
      </trkpt>
      <trkpt lat="41.054596" lon="-6.760277">
        <ele>595.2</ele>
        <time>1970-01-01T01:15:45.000Z</time>
      </trkpt>
      <trkpt lat="41.054584" lon="-6.760256">
        <ele>595.4</ele>
        <time>1970-01-01T01:15:46.000Z</time>
      </trkpt>
      <trkpt lat="41.054572" lon="-6.760236">
        <ele>595.7</ele>
        <time>1970-01-01T01:15:47.000Z</time>
      </trkpt>
      <trkpt lat="41.05456" lon="-6.760216">
        <ele>595.9</ele>
        <time>1970-01-01T01:15:48.000Z</time>
      </trkpt>
      <trkpt lat="41.054548" lon="-6.760196">
        <ele>596.1</ele>
        <time>1970-01-01T01:15:49.000Z</time>
      </trkpt>
      <trkpt lat="41.054536" lon="-6.760176">
        <ele>596.3</ele>
        <time>1970-01-01T01:15:50.000Z</time>
      </trkpt>
      <trkpt lat="41.054522" lon="-6.760156">
        <ele>596.6</ele>
        <time>1970-01-01T01:15:51.000Z</time>
      </trkpt>
      <trkpt lat="41.054508" lon="-6.760137">
        <ele>596.8</ele>
        <time>1970-01-01T01:15:52.000Z</time>
      </trkpt>
      <trkpt lat="41.054493" lon="-6.760118">
        <ele>597.1</ele>
        <time>1970-01-01T01:15:53.000Z</time>
      </trkpt>
      <trkpt lat="41.054479" lon="-6.7601">
        <ele>597.3</ele>
        <time>1970-01-01T01:15:54.000Z</time>
      </trkpt>
      <trkpt lat="41.054466" lon="-6.760081">
        <ele>597.5</ele>
        <time>1970-01-01T01:15:55.000Z</time>
      </trkpt>
      <trkpt lat="41.054452" lon="-6.760061">
        <ele>597.8</ele>
        <time>1970-01-01T01:15:56.000Z</time>
      </trkpt>
      <trkpt lat="41.054437" lon="-6.760042">
        <ele>598.1</ele>
        <time>1970-01-01T01:15:57.000Z</time>
      </trkpt>
      <trkpt lat="41.054423" lon="-6.760024">
        <ele>598.3</ele>
        <time>1970-01-01T01:15:58.000Z</time>
      </trkpt>
      <trkpt lat="41.054409" lon="-6.760006">
        <ele>598.5</ele>
        <time>1970-01-01T01:15:59.000Z</time>
      </trkpt>
      <trkpt lat="41.054395" lon="-6.759988">
        <ele>598.8</ele>
        <time>1970-01-01T01:16:00.000Z</time>
      </trkpt>
      <trkpt lat="41.05438" lon="-6.75997">
        <ele>599</ele>
        <time>1970-01-01T01:16:01.000Z</time>
      </trkpt>
      <trkpt lat="41.054365" lon="-6.759953">
        <ele>599.3</ele>
        <time>1970-01-01T01:16:02.000Z</time>
      </trkpt>
      <trkpt lat="41.054351" lon="-6.759935">
        <ele>599.5</ele>
        <time>1970-01-01T01:16:03.000Z</time>
      </trkpt>
      <trkpt lat="41.054336" lon="-6.759918">
        <ele>599.7</ele>
        <time>1970-01-01T01:16:04.000Z</time>
      </trkpt>
      <trkpt lat="41.054322" lon="-6.759901">
        <ele>600</ele>
        <time>1970-01-01T01:16:05.000Z</time>
      </trkpt>
      <trkpt lat="41.054309" lon="-6.759882">
        <ele>600.2</ele>
        <time>1970-01-01T01:16:06.000Z</time>
      </trkpt>
      <trkpt lat="41.054297" lon="-6.759863">
        <ele>600.4</ele>
        <time>1970-01-01T01:16:07.000Z</time>
      </trkpt>
      <trkpt lat="41.054284" lon="-6.759844">
        <ele>600.7</ele>
        <time>1970-01-01T01:16:08.000Z</time>
      </trkpt>
      <trkpt lat="41.054271" lon="-6.759825">
        <ele>600.9</ele>
        <time>1970-01-01T01:16:09.000Z</time>
      </trkpt>
      <trkpt lat="41.054258" lon="-6.759807">
        <ele>601.2</ele>
        <time>1970-01-01T01:16:10.000Z</time>
      </trkpt>
      <trkpt lat="41.054245" lon="-6.759788">
        <ele>601.4</ele>
        <time>1970-01-01T01:16:11.000Z</time>
      </trkpt>
      <trkpt lat="41.054232" lon="-6.759769">
        <ele>601.6</ele>
        <time>1970-01-01T01:16:12.000Z</time>
      </trkpt>
      <trkpt lat="41.054219" lon="-6.759749">
        <ele>601.9</ele>
        <time>1970-01-01T01:16:13.000Z</time>
      </trkpt>
      <trkpt lat="41.054207" lon="-6.75973">
        <ele>602.1</ele>
        <time>1970-01-01T01:16:14.000Z</time>
      </trkpt>
      <trkpt lat="41.054195" lon="-6.759711">
        <ele>602.3</ele>
        <time>1970-01-01T01:16:15.000Z</time>
      </trkpt>
      <trkpt lat="41.054183" lon="-6.759692">
        <ele>602.6</ele>
        <time>1970-01-01T01:16:16.000Z</time>
      </trkpt>
      <trkpt lat="41.05417" lon="-6.759673">
        <ele>602.8</ele>
        <time>1970-01-01T01:16:17.000Z</time>
      </trkpt>
      <trkpt lat="41.054157" lon="-6.759655">
        <ele>603</ele>
        <time>1970-01-01T01:16:18.000Z</time>
      </trkpt>
      <trkpt lat="41.054143" lon="-6.759635">
        <ele>603.2</ele>
        <time>1970-01-01T01:16:19.000Z</time>
      </trkpt>
      <trkpt lat="41.054128" lon="-6.759613">
        <ele>603.5</ele>
        <time>1970-01-01T01:16:20.000Z</time>
      </trkpt>
      <trkpt lat="41.054113" lon="-6.759591">
        <ele>603.7</ele>
        <time>1970-01-01T01:16:21.000Z</time>
      </trkpt>
      <trkpt lat="41.054097" lon="-6.75957">
        <ele>604</ele>
        <time>1970-01-01T01:16:22.000Z</time>
      </trkpt>
      <trkpt lat="41.054081" lon="-6.759549">
        <ele>604.2</ele>
        <time>1970-01-01T01:16:23.000Z</time>
      </trkpt>
      <trkpt lat="41.054065" lon="-6.759529">
        <ele>604.4</ele>
        <time>1970-01-01T01:16:24.000Z</time>
      </trkpt>
      <trkpt lat="41.054049" lon="-6.759507">
        <ele>604.7</ele>
        <time>1970-01-01T01:16:25.000Z</time>
      </trkpt>
      <trkpt lat="41.054033" lon="-6.759485">
        <ele>604.9</ele>
        <time>1970-01-01T01:16:26.000Z</time>
      </trkpt>
      <trkpt lat="41.054016" lon="-6.759463">
        <ele>605.2</ele>
        <time>1970-01-01T01:16:27.000Z</time>
      </trkpt>
      <trkpt lat="41.054" lon="-6.759442">
        <ele>605.4</ele>
        <time>1970-01-01T01:16:28.000Z</time>
      </trkpt>
      <trkpt lat="41.053983" lon="-6.75942">
        <ele>605.6</ele>
        <time>1970-01-01T01:16:29.000Z</time>
      </trkpt>
      <trkpt lat="41.053967" lon="-6.759399">
        <ele>605.9</ele>
        <time>1970-01-01T01:16:30.000Z</time>
      </trkpt>
      <trkpt lat="41.05395" lon="-6.759378">
        <ele>606.1</ele>
        <time>1970-01-01T01:16:31.000Z</time>
      </trkpt>
      <trkpt lat="41.053934" lon="-6.759357">
        <ele>606.3</ele>
        <time>1970-01-01T01:16:32.000Z</time>
      </trkpt>
      <trkpt lat="41.053919" lon="-6.759336">
        <ele>606.5</ele>
        <time>1970-01-01T01:16:33.000Z</time>
      </trkpt>
      <trkpt lat="41.053903" lon="-6.759314">
        <ele>606.7</ele>
        <time>1970-01-01T01:16:34.000Z</time>
      </trkpt>
      <trkpt lat="41.053887" lon="-6.759291">
        <ele>606.9</ele>
        <time>1970-01-01T01:16:35.000Z</time>
      </trkpt>
      <trkpt lat="41.053868" lon="-6.759269">
        <ele>607.2</ele>
        <time>1970-01-01T01:16:36.000Z</time>
      </trkpt>
      <trkpt lat="41.05385" lon="-6.759247">
        <ele>607.4</ele>
        <time>1970-01-01T01:16:37.000Z</time>
      </trkpt>
      <trkpt lat="41.05383" lon="-6.759226">
        <ele>607.6</ele>
        <time>1970-01-01T01:16:38.000Z</time>
      </trkpt>
      <trkpt lat="41.053811" lon="-6.759206">
        <ele>607.8</ele>
        <time>1970-01-01T01:16:39.000Z</time>
      </trkpt>
      <trkpt lat="41.053793" lon="-6.759185">
        <ele>607.9</ele>
        <time>1970-01-01T01:16:40.000Z</time>
      </trkpt>
      <trkpt lat="41.053775" lon="-6.759166">
        <ele>608.1</ele>
        <time>1970-01-01T01:16:41.000Z</time>
      </trkpt>
      <trkpt lat="41.053757" lon="-6.759145">
        <ele>608.3</ele>
        <time>1970-01-01T01:16:42.000Z</time>
      </trkpt>
      <trkpt lat="41.053739" lon="-6.759124">
        <ele>608.5</ele>
        <time>1970-01-01T01:16:43.000Z</time>
      </trkpt>
      <trkpt lat="41.053721" lon="-6.759103">
        <ele>608.6</ele>
        <time>1970-01-01T01:16:44.000Z</time>
      </trkpt>
      <trkpt lat="41.053702" lon="-6.759083">
        <ele>608.8</ele>
        <time>1970-01-01T01:16:45.000Z</time>
      </trkpt>
      <trkpt lat="41.053684" lon="-6.759063">
        <ele>609</ele>
        <time>1970-01-01T01:16:46.000Z</time>
      </trkpt>
      <trkpt lat="41.053667" lon="-6.759044">
        <ele>609.2</ele>
        <time>1970-01-01T01:16:47.000Z</time>
      </trkpt>
      <trkpt lat="41.05365" lon="-6.759025">
        <ele>609.3</ele>
        <time>1970-01-01T01:16:48.000Z</time>
      </trkpt>
      <trkpt lat="41.053632" lon="-6.759007">
        <ele>609.5</ele>
        <time>1970-01-01T01:16:49.000Z</time>
      </trkpt>
      <trkpt lat="41.053614" lon="-6.75899">
        <ele>609.7</ele>
        <time>1970-01-01T01:16:50.000Z</time>
      </trkpt>
      <trkpt lat="41.053596" lon="-6.75897">
        <ele>609.9</ele>
        <time>1970-01-01T01:16:51.000Z</time>
      </trkpt>
      <trkpt lat="41.053579" lon="-6.758952">
        <ele>610</ele>
        <time>1970-01-01T01:16:52.000Z</time>
      </trkpt>
      <trkpt lat="41.053562" lon="-6.758933">
        <ele>610.2</ele>
        <time>1970-01-01T01:16:53.000Z</time>
      </trkpt>
      <trkpt lat="41.053544" lon="-6.758916">
        <ele>610.4</ele>
        <time>1970-01-01T01:16:54.000Z</time>
      </trkpt>
      <trkpt lat="41.053527" lon="-6.758898">
        <ele>610.6</ele>
        <time>1970-01-01T01:16:55.000Z</time>
      </trkpt>
      <trkpt lat="41.05351" lon="-6.758879">
        <ele>610.8</ele>
        <time>1970-01-01T01:16:56.000Z</time>
      </trkpt>
      <trkpt lat="41.053493" lon="-6.758861">
        <ele>611</ele>
        <time>1970-01-01T01:16:57.000Z</time>
      </trkpt>
      <trkpt lat="41.053477" lon="-6.758843">
        <ele>611.1</ele>
        <time>1970-01-01T01:16:58.000Z</time>
      </trkpt>
      <trkpt lat="41.053461" lon="-6.758827">
        <ele>611.3</ele>
        <time>1970-01-01T01:16:59.000Z</time>
      </trkpt>
      <trkpt lat="41.053446" lon="-6.758811">
        <ele>611.5</ele>
        <time>1970-01-01T01:17:00.000Z</time>
      </trkpt>
      <trkpt lat="41.053431" lon="-6.758794">
        <ele>611.7</ele>
        <time>1970-01-01T01:17:01.000Z</time>
      </trkpt>
      <trkpt lat="41.053414" lon="-6.758776">
        <ele>611.9</ele>
        <time>1970-01-01T01:17:02.000Z</time>
      </trkpt>
      <trkpt lat="41.053397" lon="-6.758756">
        <ele>612.1</ele>
        <time>1970-01-01T01:17:03.000Z</time>
      </trkpt>
      <trkpt lat="41.05338" lon="-6.758738">
        <ele>612.3</ele>
        <time>1970-01-01T01:17:04.000Z</time>
      </trkpt>
      <trkpt lat="41.053364" lon="-6.758719">
        <ele>612.5</ele>
        <time>1970-01-01T01:17:05.000Z</time>
      </trkpt>
      <trkpt lat="41.053348" lon="-6.758701">
        <ele>612.7</ele>
        <time>1970-01-01T01:17:06.000Z</time>
      </trkpt>
      <trkpt lat="41.053332" lon="-6.758683">
        <ele>613</ele>
        <time>1970-01-01T01:17:07.000Z</time>
      </trkpt>
      <trkpt lat="41.053315" lon="-6.758667">
        <ele>613.2</ele>
        <time>1970-01-01T01:17:08.000Z</time>
      </trkpt>
      <trkpt lat="41.053297" lon="-6.758653">
        <ele>613.4</ele>
        <time>1970-01-01T01:17:09.000Z</time>
      </trkpt>
      <trkpt lat="41.053279" lon="-6.758638">
        <ele>613.7</ele>
        <time>1970-01-01T01:17:10.000Z</time>
      </trkpt>
      <trkpt lat="41.053261" lon="-6.758623">
        <ele>613.9</ele>
        <time>1970-01-01T01:17:11.000Z</time>
      </trkpt>
      <trkpt lat="41.053242" lon="-6.758609">
        <ele>614.2</ele>
        <time>1970-01-01T01:17:12.000Z</time>
      </trkpt>
      <trkpt lat="41.053224" lon="-6.758595">
        <ele>614.5</ele>
        <time>1970-01-01T01:17:13.000Z</time>
      </trkpt>
      <trkpt lat="41.053207" lon="-6.758581">
        <ele>614.7</ele>
        <time>1970-01-01T01:17:14.000Z</time>
      </trkpt>
      <trkpt lat="41.05319" lon="-6.758567">
        <ele>615</ele>
        <time>1970-01-01T01:17:15.000Z</time>
      </trkpt>
      <trkpt lat="41.053173" lon="-6.758552">
        <ele>615.3</ele>
        <time>1970-01-01T01:17:16.000Z</time>
      </trkpt>
      <trkpt lat="41.053156" lon="-6.758538">
        <ele>615.6</ele>
        <time>1970-01-01T01:17:17.000Z</time>
      </trkpt>
      <trkpt lat="41.053138" lon="-6.758525">
        <ele>616</ele>
        <time>1970-01-01T01:17:18.000Z</time>
      </trkpt>
      <trkpt lat="41.053121" lon="-6.758514">
        <ele>616.2</ele>
        <time>1970-01-01T01:17:19.000Z</time>
      </trkpt>
      <trkpt lat="41.053103" lon="-6.758502">
        <ele>616.6</ele>
        <time>1970-01-01T01:17:20.000Z</time>
      </trkpt>
      <trkpt lat="41.053084" lon="-6.758491">
        <ele>616.9</ele>
        <time>1970-01-01T01:17:21.000Z</time>
      </trkpt>
      <trkpt lat="41.053066" lon="-6.758481">
        <ele>617.2</ele>
        <time>1970-01-01T01:17:22.000Z</time>
      </trkpt>
      <trkpt lat="41.05305" lon="-6.758471">
        <ele>617.5</ele>
        <time>1970-01-01T01:17:23.000Z</time>
      </trkpt>
      <trkpt lat="41.053034" lon="-6.758461">
        <ele>617.8</ele>
        <time>1970-01-01T01:17:24.000Z</time>
      </trkpt>
      <trkpt lat="41.053018" lon="-6.758452">
        <ele>618.1</ele>
        <time>1970-01-01T01:17:25.000Z</time>
      </trkpt>
      <trkpt lat="41.053001" lon="-6.758443">
        <ele>618.4</ele>
        <time>1970-01-01T01:17:26.000Z</time>
      </trkpt>
      <trkpt lat="41.052982" lon="-6.758433">
        <ele>618.8</ele>
        <time>1970-01-01T01:17:27.000Z</time>
      </trkpt>
      <trkpt lat="41.052963" lon="-6.758424">
        <ele>619.1</ele>
        <time>1970-01-01T01:17:28.000Z</time>
      </trkpt>
      <trkpt lat="41.052945" lon="-6.758414">
        <ele>619.4</ele>
        <time>1970-01-01T01:17:29.000Z</time>
      </trkpt>
      <trkpt lat="41.052928" lon="-6.758405">
        <ele>619.8</ele>
        <time>1970-01-01T01:17:30.000Z</time>
      </trkpt>
      <trkpt lat="41.052912" lon="-6.758396">
        <ele>620.1</ele>
        <time>1970-01-01T01:17:31.000Z</time>
      </trkpt>
      <trkpt lat="41.052894" lon="-6.758389">
        <ele>620.4</ele>
        <time>1970-01-01T01:17:32.000Z</time>
      </trkpt>
      <trkpt lat="41.052875" lon="-6.758382">
        <ele>620.7</ele>
        <time>1970-01-01T01:17:33.000Z</time>
      </trkpt>
      <trkpt lat="41.052856" lon="-6.758375">
        <ele>621.1</ele>
        <time>1970-01-01T01:17:34.000Z</time>
      </trkpt>
      <trkpt lat="41.052837" lon="-6.758366">
        <ele>621.4</ele>
        <time>1970-01-01T01:17:35.000Z</time>
      </trkpt>
      <trkpt lat="41.052818" lon="-6.758357">
        <ele>621.8</ele>
        <time>1970-01-01T01:17:36.000Z</time>
      </trkpt>
      <trkpt lat="41.052799" lon="-6.75835">
        <ele>622.1</ele>
        <time>1970-01-01T01:17:37.000Z</time>
      </trkpt>
      <trkpt lat="41.05278" lon="-6.758343">
        <ele>622.5</ele>
        <time>1970-01-01T01:17:38.000Z</time>
      </trkpt>
      <trkpt lat="41.052763" lon="-6.758336">
        <ele>622.8</ele>
        <time>1970-01-01T01:17:39.000Z</time>
      </trkpt>
      <trkpt lat="41.052747" lon="-6.75833">
        <ele>623.1</ele>
        <time>1970-01-01T01:17:40.000Z</time>
      </trkpt>
      <trkpt lat="41.052729" lon="-6.758323">
        <ele>623.4</ele>
        <time>1970-01-01T01:17:41.000Z</time>
      </trkpt>
      <trkpt lat="41.052709" lon="-6.758316">
        <ele>623.7</ele>
        <time>1970-01-01T01:17:42.000Z</time>
      </trkpt>
      <trkpt lat="41.05269" lon="-6.75831">
        <ele>624.1</ele>
        <time>1970-01-01T01:17:43.000Z</time>
      </trkpt>
      <trkpt lat="41.052672" lon="-6.758305">
        <ele>624.4</ele>
        <time>1970-01-01T01:17:44.000Z</time>
      </trkpt>
      <trkpt lat="41.052654" lon="-6.758299">
        <ele>624.7</ele>
        <time>1970-01-01T01:17:45.000Z</time>
      </trkpt>
      <trkpt lat="41.052636" lon="-6.758293">
        <ele>625.1</ele>
        <time>1970-01-01T01:17:46.000Z</time>
      </trkpt>
      <trkpt lat="41.052617" lon="-6.758288">
        <ele>625.4</ele>
        <time>1970-01-01T01:17:47.000Z</time>
      </trkpt>
      <trkpt lat="41.052598" lon="-6.758282">
        <ele>625.7</ele>
        <time>1970-01-01T01:17:48.000Z</time>
      </trkpt>
      <trkpt lat="41.052578" lon="-6.758275">
        <ele>626.1</ele>
        <time>1970-01-01T01:17:49.000Z</time>
      </trkpt>
      <trkpt lat="41.052558" lon="-6.758268">
        <ele>626.4</ele>
        <time>1970-01-01T01:17:50.000Z</time>
      </trkpt>
      <trkpt lat="41.052539" lon="-6.758262">
        <ele>626.7</ele>
        <time>1970-01-01T01:17:51.000Z</time>
      </trkpt>
      <trkpt lat="41.05252" lon="-6.758257">
        <ele>627.1</ele>
        <time>1970-01-01T01:17:52.000Z</time>
      </trkpt>
      <trkpt lat="41.052502" lon="-6.758252">
        <ele>627.4</ele>
        <time>1970-01-01T01:17:53.000Z</time>
      </trkpt>
      <trkpt lat="41.052486" lon="-6.758247">
        <ele>627.6</ele>
        <time>1970-01-01T01:17:54.000Z</time>
      </trkpt>
      <trkpt lat="41.052469" lon="-6.75824">
        <ele>627.9</ele>
        <time>1970-01-01T01:17:55.000Z</time>
      </trkpt>
      <trkpt lat="41.052452" lon="-6.758233">
        <ele>628.2</ele>
        <time>1970-01-01T01:17:56.000Z</time>
      </trkpt>
      <trkpt lat="41.052435" lon="-6.758224">
        <ele>628.5</ele>
        <time>1970-01-01T01:17:57.000Z</time>
      </trkpt>
      <trkpt lat="41.052419" lon="-6.758215">
        <ele>628.8</ele>
        <time>1970-01-01T01:17:58.000Z</time>
      </trkpt>
      <trkpt lat="41.052405" lon="-6.758206">
        <ele>629</ele>
        <time>1970-01-01T01:17:59.000Z</time>
      </trkpt>
      <trkpt lat="41.052391" lon="-6.758195">
        <ele>629.2</ele>
        <time>1970-01-01T01:18:00.000Z</time>
      </trkpt>
      <trkpt lat="41.052378" lon="-6.758181">
        <ele>629.5</ele>
        <time>1970-01-01T01:18:01.000Z</time>
      </trkpt>
      <trkpt lat="41.052366" lon="-6.758166">
        <ele>629.7</ele>
        <time>1970-01-01T01:18:02.000Z</time>
      </trkpt>
      <trkpt lat="41.052358" lon="-6.758148">
        <ele>629.8</ele>
        <time>1970-01-01T01:18:03.000Z</time>
      </trkpt>
      <trkpt lat="41.052351" lon="-6.758128">
        <ele>630</ele>
        <time>1970-01-01T01:18:04.000Z</time>
      </trkpt>
      <trkpt lat="41.052348" lon="-6.758106">
        <ele>630.2</ele>
        <time>1970-01-01T01:18:05.000Z</time>
      </trkpt>
      <trkpt lat="41.052347" lon="-6.758078">
        <ele>630.4</ele>
        <time>1970-01-01T01:18:06.000Z</time>
      </trkpt>
      <trkpt lat="41.052349" lon="-6.758048">
        <ele>630.5</ele>
        <time>1970-01-01T01:18:07.000Z</time>
      </trkpt>
      <trkpt lat="41.052352" lon="-6.758013">
        <ele>630.7</ele>
        <time>1970-01-01T01:18:08.000Z</time>
      </trkpt>
      <trkpt lat="41.052355" lon="-6.757976">
        <ele>630.8</ele>
        <time>1970-01-01T01:18:09.000Z</time>
      </trkpt>
      <trkpt lat="41.05236" lon="-6.757935">
        <ele>630.9</ele>
        <time>1970-01-01T01:18:10.000Z</time>
      </trkpt>
      <trkpt lat="41.052367" lon="-6.757892">
        <ele>631.1</ele>
        <time>1970-01-01T01:18:11.000Z</time>
      </trkpt>
      <trkpt lat="41.052374" lon="-6.75785">
        <ele>631.2</ele>
        <time>1970-01-01T01:18:12.000Z</time>
      </trkpt>
      <trkpt lat="41.052381" lon="-6.75781">
        <ele>631.3</ele>
        <time>1970-01-01T01:18:13.000Z</time>
      </trkpt>
      <trkpt lat="41.052388" lon="-6.757772">
        <ele>631.4</ele>
        <time>1970-01-01T01:18:14.000Z</time>
      </trkpt>
      <trkpt lat="41.052395" lon="-6.757738">
        <ele>631.5</ele>
        <time>1970-01-01T01:18:15.000Z</time>
      </trkpt>
      <trkpt lat="41.052401" lon="-6.757706">
        <ele>631.7</ele>
        <time>1970-01-01T01:18:16.000Z</time>
      </trkpt>
      <trkpt lat="41.052406" lon="-6.757678">
        <ele>631.8</ele>
        <time>1970-01-01T01:18:17.000Z</time>
      </trkpt>
      <trkpt lat="41.05241" lon="-6.757654">
        <ele>632</ele>
        <time>1970-01-01T01:18:18.000Z</time>
      </trkpt>
      <trkpt lat="41.052414" lon="-6.757631">
        <ele>632.1</ele>
        <time>1970-01-01T01:18:19.000Z</time>
      </trkpt>
      <trkpt lat="41.052418" lon="-6.757608">
        <ele>632.3</ele>
        <time>1970-01-01T01:18:20.000Z</time>
      </trkpt>
      <trkpt lat="41.052423" lon="-6.757585">
        <ele>632.5</ele>
        <time>1970-01-01T01:18:21.000Z</time>
      </trkpt>
      <trkpt lat="41.052429" lon="-6.757562">
        <ele>632.7</ele>
        <time>1970-01-01T01:18:22.000Z</time>
      </trkpt>
      <trkpt lat="41.052435" lon="-6.757539">
        <ele>632.9</ele>
        <time>1970-01-01T01:18:23.000Z</time>
      </trkpt>
      <trkpt lat="41.052441" lon="-6.757517">
        <ele>633.2</ele>
        <time>1970-01-01T01:18:24.000Z</time>
      </trkpt>
      <trkpt lat="41.052447" lon="-6.757497">
        <ele>633.4</ele>
        <time>1970-01-01T01:18:25.000Z</time>
      </trkpt>
      <trkpt lat="41.052453" lon="-6.757476">
        <ele>633.7</ele>
        <time>1970-01-01T01:18:26.000Z</time>
      </trkpt>
      <trkpt lat="41.052456" lon="-6.757456">
        <ele>633.9</ele>
        <time>1970-01-01T01:18:27.000Z</time>
      </trkpt>
      <trkpt lat="41.052459" lon="-6.757435">
        <ele>634.1</ele>
        <time>1970-01-01T01:18:28.000Z</time>
      </trkpt>
      <trkpt lat="41.052461" lon="-6.757412">
        <ele>634.4</ele>
        <time>1970-01-01T01:18:29.000Z</time>
      </trkpt>
      <trkpt lat="41.052463" lon="-6.757388">
        <ele>634.8</ele>
        <time>1970-01-01T01:18:30.000Z</time>
      </trkpt>
      <trkpt lat="41.052464" lon="-6.757366">
        <ele>635.1</ele>
        <time>1970-01-01T01:18:31.000Z</time>
      </trkpt>
      <trkpt lat="41.052463" lon="-6.757344">
        <ele>635.4</ele>
        <time>1970-01-01T01:18:32.000Z</time>
      </trkpt>
      <trkpt lat="41.052459" lon="-6.757323">
        <ele>635.7</ele>
        <time>1970-01-01T01:18:33.000Z</time>
      </trkpt>
      <trkpt lat="41.052452" lon="-6.757303">
        <ele>636</ele>
        <time>1970-01-01T01:18:34.000Z</time>
      </trkpt>
      <trkpt lat="41.052443" lon="-6.757284">
        <ele>636.3</ele>
        <time>1970-01-01T01:18:35.000Z</time>
      </trkpt>
      <trkpt lat="41.052434" lon="-6.757268">
        <ele>636.6</ele>
        <time>1970-01-01T01:18:36.000Z</time>
      </trkpt>
      <trkpt lat="41.052425" lon="-6.757253">
        <ele>636.9</ele>
        <time>1970-01-01T01:18:37.000Z</time>
      </trkpt>
      <trkpt lat="41.052416" lon="-6.757241">
        <ele>637.1</ele>
        <time>1970-01-01T01:18:38.000Z</time>
      </trkpt>
      <trkpt lat="41.052405" lon="-6.757229">
        <ele>637.4</ele>
        <time>1970-01-01T01:18:39.000Z</time>
      </trkpt>
      <trkpt lat="41.052392" lon="-6.757216">
        <ele>637.7</ele>
        <time>1970-01-01T01:18:40.000Z</time>
      </trkpt>
      <trkpt lat="41.052379" lon="-6.757202">
        <ele>638.1</ele>
        <time>1970-01-01T01:18:41.000Z</time>
      </trkpt>
      <trkpt lat="41.052366" lon="-6.757191">
        <ele>638.4</ele>
        <time>1970-01-01T01:18:42.000Z</time>
      </trkpt>
      <trkpt lat="41.052352" lon="-6.757182">
        <ele>638.7</ele>
        <time>1970-01-01T01:18:43.000Z</time>
      </trkpt>
      <trkpt lat="41.052337" lon="-6.757174">
        <ele>639</ele>
        <time>1970-01-01T01:18:44.000Z</time>
      </trkpt>
      <trkpt lat="41.052321" lon="-6.757165">
        <ele>639.4</ele>
        <time>1970-01-01T01:18:45.000Z</time>
      </trkpt>
      <trkpt lat="41.052304" lon="-6.757155">
        <ele>639.8</ele>
        <time>1970-01-01T01:18:46.000Z</time>
      </trkpt>
      <trkpt lat="41.052287" lon="-6.757147">
        <ele>640.1</ele>
        <time>1970-01-01T01:18:47.000Z</time>
      </trkpt>
      <trkpt lat="41.052269" lon="-6.75714">
        <ele>640.5</ele>
        <time>1970-01-01T01:18:48.000Z</time>
      </trkpt>
      <trkpt lat="41.052252" lon="-6.757136">
        <ele>640.8</ele>
        <time>1970-01-01T01:18:49.000Z</time>
      </trkpt>
      <trkpt lat="41.052235" lon="-6.757132">
        <ele>641.1</ele>
        <time>1970-01-01T01:18:50.000Z</time>
      </trkpt>
      <trkpt lat="41.052216" lon="-6.757132">
        <ele>641.5</ele>
        <time>1970-01-01T01:18:51.000Z</time>
      </trkpt>
      <trkpt lat="41.052198" lon="-6.757135">
        <ele>641.8</ele>
        <time>1970-01-01T01:18:52.000Z</time>
      </trkpt>
      <trkpt lat="41.05218" lon="-6.757138">
        <ele>641.9</ele>
        <time>1970-01-01T01:18:53.000Z</time>
      </trkpt>
      <trkpt lat="41.052163" lon="-6.757142">
        <ele>642.1</ele>
        <time>1970-01-01T01:18:54.000Z</time>
      </trkpt>
      <trkpt lat="41.052146" lon="-6.757147">
        <ele>642.4</ele>
        <time>1970-01-01T01:18:55.000Z</time>
      </trkpt>
      <trkpt lat="41.052129" lon="-6.757153">
        <ele>642.7</ele>
        <time>1970-01-01T01:18:56.000Z</time>
      </trkpt>
      <trkpt lat="41.052113" lon="-6.75716">
        <ele>643</ele>
        <time>1970-01-01T01:18:57.000Z</time>
      </trkpt>
      <trkpt lat="41.052098" lon="-6.757169">
        <ele>643.3</ele>
        <time>1970-01-01T01:18:58.000Z</time>
      </trkpt>
      <trkpt lat="41.052084" lon="-6.757179">
        <ele>643.5</ele>
        <time>1970-01-01T01:18:59.000Z</time>
      </trkpt>
      <trkpt lat="41.052068" lon="-6.757192">
        <ele>643.8</ele>
        <time>1970-01-01T01:19:00.000Z</time>
      </trkpt>
      <trkpt lat="41.05205" lon="-6.757204">
        <ele>644.1</ele>
        <time>1970-01-01T01:19:01.000Z</time>
      </trkpt>
      <trkpt lat="41.052031" lon="-6.757215">
        <ele>644.4</ele>
        <time>1970-01-01T01:19:02.000Z</time>
      </trkpt>
      <trkpt lat="41.052014" lon="-6.757224">
        <ele>644.7</ele>
        <time>1970-01-01T01:19:03.000Z</time>
      </trkpt>
      <trkpt lat="41.051997" lon="-6.757234">
        <ele>644.9</ele>
        <time>1970-01-01T01:19:04.000Z</time>
      </trkpt>
      <trkpt lat="41.05198" lon="-6.757245">
        <ele>645.2</ele>
        <time>1970-01-01T01:19:05.000Z</time>
      </trkpt>
      <trkpt lat="41.051962" lon="-6.757257">
        <ele>645.4</ele>
        <time>1970-01-01T01:19:06.000Z</time>
      </trkpt>
      <trkpt lat="41.051945" lon="-6.75727">
        <ele>645.7</ele>
        <time>1970-01-01T01:19:07.000Z</time>
      </trkpt>
      <trkpt lat="41.051929" lon="-6.757285">
        <ele>645.9</ele>
        <time>1970-01-01T01:19:08.000Z</time>
      </trkpt>
      <trkpt lat="41.051913" lon="-6.7573">
        <ele>646.2</ele>
        <time>1970-01-01T01:19:09.000Z</time>
      </trkpt>
      <trkpt lat="41.051894" lon="-6.757315">
        <ele>646.5</ele>
        <time>1970-01-01T01:19:10.000Z</time>
      </trkpt>
      <trkpt lat="41.051876" lon="-6.757328">
        <ele>646.7</ele>
        <time>1970-01-01T01:19:11.000Z</time>
      </trkpt>
      <trkpt lat="41.051856" lon="-6.75734">
        <ele>647</ele>
        <time>1970-01-01T01:19:12.000Z</time>
      </trkpt>
      <trkpt lat="41.051835" lon="-6.757347">
        <ele>647.2</ele>
        <time>1970-01-01T01:19:13.000Z</time>
      </trkpt>
      <trkpt lat="41.051811" lon="-6.757351">
        <ele>647.5</ele>
        <time>1970-01-01T01:19:14.000Z</time>
      </trkpt>
      <trkpt lat="41.051787" lon="-6.757352">
        <ele>647.8</ele>
        <time>1970-01-01T01:19:15.000Z</time>
      </trkpt>
      <trkpt lat="41.051764" lon="-6.757349">
        <ele>648</ele>
        <time>1970-01-01T01:19:16.000Z</time>
      </trkpt>
      <trkpt lat="41.051742" lon="-6.757342">
        <ele>648.3</ele>
        <time>1970-01-01T01:19:17.000Z</time>
      </trkpt>
      <trkpt lat="41.051721" lon="-6.757331">
        <ele>648.6</ele>
        <time>1970-01-01T01:19:18.000Z</time>
      </trkpt>
      <trkpt lat="41.051702" lon="-6.757319">
        <ele>648.8</ele>
        <time>1970-01-01T01:19:19.000Z</time>
      </trkpt>
      <trkpt lat="41.051683" lon="-6.757303">
        <ele>649.1</ele>
        <time>1970-01-01T01:19:20.000Z</time>
      </trkpt>
      <trkpt lat="41.051667" lon="-6.757284">
        <ele>649.3</ele>
        <time>1970-01-01T01:19:21.000Z</time>
      </trkpt>
      <trkpt lat="41.051653" lon="-6.757263">
        <ele>649.6</ele>
        <time>1970-01-01T01:19:22.000Z</time>
      </trkpt>
      <trkpt lat="41.051641" lon="-6.757242">
        <ele>649.8</ele>
        <time>1970-01-01T01:19:23.000Z</time>
      </trkpt>
      <trkpt lat="41.051629" lon="-6.75722">
        <ele>650.1</ele>
        <time>1970-01-01T01:19:24.000Z</time>
      </trkpt>
      <trkpt lat="41.051618" lon="-6.757197">
        <ele>650.3</ele>
        <time>1970-01-01T01:19:25.000Z</time>
      </trkpt>
      <trkpt lat="41.051607" lon="-6.757174">
        <ele>650.6</ele>
        <time>1970-01-01T01:19:26.000Z</time>
      </trkpt>
      <trkpt lat="41.051597" lon="-6.75715">
        <ele>650.8</ele>
        <time>1970-01-01T01:19:27.000Z</time>
      </trkpt>
      <trkpt lat="41.051589" lon="-6.757126">
        <ele>651.1</ele>
        <time>1970-01-01T01:19:28.000Z</time>
      </trkpt>
      <trkpt lat="41.051581" lon="-6.757102">
        <ele>651.3</ele>
        <time>1970-01-01T01:19:29.000Z</time>
      </trkpt>
      <trkpt lat="41.051574" lon="-6.757076">
        <ele>651.5</ele>
        <time>1970-01-01T01:19:30.000Z</time>
      </trkpt>
      <trkpt lat="41.051567" lon="-6.757052">
        <ele>651.7</ele>
        <time>1970-01-01T01:19:31.000Z</time>
      </trkpt>
      <trkpt lat="41.051559" lon="-6.757025">
        <ele>652</ele>
        <time>1970-01-01T01:19:32.000Z</time>
      </trkpt>
      <trkpt lat="41.051554" lon="-6.756999">
        <ele>652.3</ele>
        <time>1970-01-01T01:19:33.000Z</time>
      </trkpt>
      <trkpt lat="41.051549" lon="-6.756974">
        <ele>652.5</ele>
        <time>1970-01-01T01:19:34.000Z</time>
      </trkpt>
      <trkpt lat="41.051545" lon="-6.756949">
        <ele>652.8</ele>
        <time>1970-01-01T01:19:35.000Z</time>
      </trkpt>
      <trkpt lat="41.051541" lon="-6.756923">
        <ele>653</ele>
        <time>1970-01-01T01:19:36.000Z</time>
      </trkpt>
      <trkpt lat="41.051536" lon="-6.756897">
        <ele>653.2</ele>
        <time>1970-01-01T01:19:37.000Z</time>
      </trkpt>
      <trkpt lat="41.051531" lon="-6.756871">
        <ele>653.4</ele>
        <time>1970-01-01T01:19:38.000Z</time>
      </trkpt>
      <trkpt lat="41.051526" lon="-6.756845">
        <ele>653.6</ele>
        <time>1970-01-01T01:19:39.000Z</time>
      </trkpt>
      <trkpt lat="41.051519" lon="-6.756818">
        <ele>653.8</ele>
        <time>1970-01-01T01:19:40.000Z</time>
      </trkpt>
      <trkpt lat="41.051513" lon="-6.756792">
        <ele>653.9</ele>
        <time>1970-01-01T01:19:41.000Z</time>
      </trkpt>
      <trkpt lat="41.051506" lon="-6.756767">
        <ele>654</ele>
        <time>1970-01-01T01:19:42.000Z</time>
      </trkpt>
      <trkpt lat="41.0515" lon="-6.756742">
        <ele>654.1</ele>
        <time>1970-01-01T01:19:43.000Z</time>
      </trkpt>
      <trkpt lat="41.051493" lon="-6.756717">
        <ele>654.2</ele>
        <time>1970-01-01T01:19:44.000Z</time>
      </trkpt>
      <trkpt lat="41.051486" lon="-6.75669">
        <ele>654.3</ele>
        <time>1970-01-01T01:19:45.000Z</time>
      </trkpt>
      <trkpt lat="41.051477" lon="-6.756659">
        <ele>654.4</ele>
        <time>1970-01-01T01:19:46.000Z</time>
      </trkpt>
      <trkpt lat="41.051467" lon="-6.756626">
        <ele>654.5</ele>
        <time>1970-01-01T01:19:47.000Z</time>
      </trkpt>
      <trkpt lat="41.051456" lon="-6.756593">
        <ele>654.6</ele>
        <time>1970-01-01T01:19:48.000Z</time>
      </trkpt>
      <trkpt lat="41.051446" lon="-6.756561">
        <ele>654.7</ele>
        <time>1970-01-01T01:19:49.000Z</time>
      </trkpt>
      <trkpt lat="41.051435" lon="-6.756529">
        <ele>654.8</ele>
        <time>1970-01-01T01:19:50.000Z</time>
      </trkpt>
      <trkpt lat="41.051425" lon="-6.756496">
        <ele>654.9</ele>
        <time>1970-01-01T01:19:51.000Z</time>
      </trkpt>
      <trkpt lat="41.051415" lon="-6.756459">
        <ele>655</ele>
        <time>1970-01-01T01:19:52.000Z</time>
      </trkpt>
      <trkpt lat="41.051406" lon="-6.756419">
        <ele>655.2</ele>
        <time>1970-01-01T01:19:53.000Z</time>
      </trkpt>
      <trkpt lat="41.051396" lon="-6.756377">
        <ele>655.3</ele>
        <time>1970-01-01T01:19:54.000Z</time>
      </trkpt>
      <trkpt lat="41.051388" lon="-6.756337">
        <ele>655.4</ele>
        <time>1970-01-01T01:19:55.000Z</time>
      </trkpt>
      <trkpt lat="41.051379" lon="-6.756301">
        <ele>655.6</ele>
        <time>1970-01-01T01:19:56.000Z</time>
      </trkpt>
      <trkpt lat="41.051371" lon="-6.756267">
        <ele>655.7</ele>
        <time>1970-01-01T01:19:57.000Z</time>
      </trkpt>
      <trkpt lat="41.051363" lon="-6.756238">
        <ele>655.8</ele>
        <time>1970-01-01T01:19:58.000Z</time>
      </trkpt>
      <trkpt lat="41.051355" lon="-6.756212">
        <ele>655.9</ele>
        <time>1970-01-01T01:19:59.000Z</time>
      </trkpt>
      <trkpt lat="41.051346" lon="-6.75619">
        <ele>656</ele>
        <time>1970-01-01T01:20:00.000Z</time>
      </trkpt>
      <trkpt lat="41.05134" lon="-6.756171">
        <ele>656.1</ele>
        <time>1970-01-01T01:20:01.000Z</time>
      </trkpt>
      <trkpt lat="41.051336" lon="-6.756162">
        <ele>656.1</ele>
        <time>1970-01-01T01:20:02.000Z</time>
      </trkpt>
      <trkpt lat="41.051335" lon="-6.75616">
        <ele>656.1</ele>
        <time>1970-01-01T01:20:03.000Z</time>
      </trkpt>
      <trkpt lat="41.051336" lon="-6.756161">
        <ele>656.1</ele>
        <time>1970-01-01T01:20:04.000Z</time>
      </trkpt>
      <trkpt lat="41.051338" lon="-6.75616">
        <ele>656.1</ele>
        <time>1970-01-01T01:20:05.000Z</time>
      </trkpt>
      <trkpt lat="41.051338" lon="-6.756156">
        <ele>656.2</ele>
        <time>1970-01-01T01:20:06.000Z</time>
      </trkpt>
      <trkpt lat="41.051337" lon="-6.756151">
        <ele>656.2</ele>
        <time>1970-01-01T01:20:07.000Z</time>
      </trkpt>
      <trkpt lat="41.051336" lon="-6.756147">
        <ele>656.2</ele>
        <time>1970-01-01T01:20:08.000Z</time>
      </trkpt>
      <trkpt lat="41.051335" lon="-6.756146">
        <ele>656.2</ele>
        <time>1970-01-01T01:20:09.000Z</time>
      </trkpt>
      <trkpt lat="41.051292" lon="-6.756061">
        <ele>656.6</ele>
        <time>1970-01-01T01:20:10.000Z</time>
      </trkpt>
      <trkpt lat="41.051279" lon="-6.756038">
        <ele>656.7</ele>
        <time>1970-01-01T01:20:11.000Z</time>
      </trkpt>
      <trkpt lat="41.051265" lon="-6.756015">
        <ele>656.9</ele>
        <time>1970-01-01T01:20:28.000Z</time>
      </trkpt>
      <trkpt lat="41.051252" lon="-6.755988">
        <ele>657</ele>
        <time>1970-01-01T01:20:29.000Z</time>
      </trkpt>
      <trkpt lat="41.051241" lon="-6.755958">
        <ele>657.2</ele>
        <time>1970-01-01T01:20:30.000Z</time>
      </trkpt>
      <trkpt lat="41.051229" lon="-6.755926">
        <ele>657.3</ele>
        <time>1970-01-01T01:20:31.000Z</time>
      </trkpt>
      <trkpt lat="41.051221" lon="-6.755894">
        <ele>657.5</ele>
        <time>1970-01-01T01:20:32.000Z</time>
      </trkpt>
      <trkpt lat="41.051219" lon="-6.755866">
        <ele>657.6</ele>
        <time>1970-01-01T01:20:33.000Z</time>
      </trkpt>
      <trkpt lat="41.051223" lon="-6.75584">
        <ele>658.3</ele>
        <time>1970-01-01T01:20:34.000Z</time>
      </trkpt>
      <trkpt lat="41.051231" lon="-6.755815">
        <ele>658.3</ele>
        <time>1970-01-01T01:20:35.000Z</time>
      </trkpt>
      <trkpt lat="41.051242" lon="-6.755787">
        <ele>658.2</ele>
        <time>1970-01-01T01:20:36.000Z</time>
      </trkpt>
      <trkpt lat="41.051256" lon="-6.755762">
        <ele>658.1</ele>
        <time>1970-01-01T01:20:37.000Z</time>
      </trkpt>
      <trkpt lat="41.051271" lon="-6.755738">
        <ele>658</ele>
        <time>1970-01-01T01:20:38.000Z</time>
      </trkpt>
      <trkpt lat="41.051286" lon="-6.755715">
        <ele>658</ele>
        <time>1970-01-01T01:20:39.000Z</time>
      </trkpt>
      <trkpt lat="41.051302" lon="-6.75569">
        <ele>658</ele>
        <time>1970-01-01T01:20:40.000Z</time>
      </trkpt>
      <trkpt lat="41.051319" lon="-6.755664">
        <ele>657.9</ele>
        <time>1970-01-01T01:20:41.000Z</time>
      </trkpt>
      <trkpt lat="41.051338" lon="-6.755638">
        <ele>657.9</ele>
        <time>1970-01-01T01:20:42.000Z</time>
      </trkpt>
      <trkpt lat="41.051358" lon="-6.755615">
        <ele>657.9</ele>
        <time>1970-01-01T01:20:43.000Z</time>
      </trkpt>
      <trkpt lat="41.051379" lon="-6.755596">
        <ele>657.8</ele>
        <time>1970-01-01T01:20:44.000Z</time>
      </trkpt>
      <trkpt lat="41.051399" lon="-6.755582">
        <ele>657.8</ele>
        <time>1970-01-01T01:20:45.000Z</time>
      </trkpt>
      <trkpt lat="41.051416" lon="-6.755569">
        <ele>657.8</ele>
        <time>1970-01-01T01:20:46.000Z</time>
      </trkpt>
      <trkpt lat="41.051428" lon="-6.755554">
        <ele>657.8</ele>
        <time>1970-01-01T01:20:47.000Z</time>
      </trkpt>
      <trkpt lat="41.051442" lon="-6.755539">
        <ele>657.8</ele>
        <time>1970-01-01T01:20:48.000Z</time>
      </trkpt>
      <trkpt lat="41.051458" lon="-6.755523">
        <ele>657.8</ele>
        <time>1970-01-01T01:20:49.000Z</time>
      </trkpt>
      <trkpt lat="41.051482" lon="-6.755512">
        <ele>657.8</ele>
        <time>1970-01-01T01:20:50.000Z</time>
      </trkpt>
      <trkpt lat="41.051509" lon="-6.755506">
        <ele>657.8</ele>
        <time>1970-01-01T01:20:51.000Z</time>
      </trkpt>
      <trkpt lat="41.051538" lon="-6.755506">
        <ele>657.9</ele>
        <time>1970-01-01T01:20:52.000Z</time>
      </trkpt>
      <trkpt lat="41.05157" lon="-6.755506">
        <ele>657.9</ele>
        <time>1970-01-01T01:20:53.000Z</time>
      </trkpt>
      <trkpt lat="41.051601" lon="-6.755508">
        <ele>658</ele>
        <time>1970-01-01T01:20:54.000Z</time>
      </trkpt>
      <trkpt lat="41.051631" lon="-6.75551">
        <ele>658</ele>
        <time>1970-01-01T01:20:55.000Z</time>
      </trkpt>
      <trkpt lat="41.05166" lon="-6.755512">
        <ele>658.1</ele>
        <time>1970-01-01T01:20:56.000Z</time>
      </trkpt>
      <trkpt lat="41.051691" lon="-6.755513">
        <ele>658.1</ele>
        <time>1970-01-01T01:20:57.000Z</time>
      </trkpt>
      <trkpt lat="41.051726" lon="-6.755513">
        <ele>658.2</ele>
        <time>1970-01-01T01:20:58.000Z</time>
      </trkpt>
      <trkpt lat="41.051761" lon="-6.755514">
        <ele>658.3</ele>
        <time>1970-01-01T01:20:59.000Z</time>
      </trkpt>
      <trkpt lat="41.051793" lon="-6.755513">
        <ele>658.3</ele>
        <time>1970-01-01T01:21:00.000Z</time>
      </trkpt>
      <trkpt lat="41.051824" lon="-6.755511">
        <ele>658.4</ele>
        <time>1970-01-01T01:21:01.000Z</time>
      </trkpt>
      <trkpt lat="41.051856" lon="-6.755508">
        <ele>658.4</ele>
        <time>1970-01-01T01:21:02.000Z</time>
      </trkpt>
      <trkpt lat="41.051888" lon="-6.755505">
        <ele>658.5</ele>
        <time>1970-01-01T01:21:03.000Z</time>
      </trkpt>
      <trkpt lat="41.051917" lon="-6.755501">
        <ele>658.6</ele>
        <time>1970-01-01T01:21:04.000Z</time>
      </trkpt>
      <trkpt lat="41.051944" lon="-6.755495">
        <ele>658.6</ele>
        <time>1970-01-01T01:21:05.000Z</time>
      </trkpt>
      <trkpt lat="41.05197" lon="-6.755483">
        <ele>658.7</ele>
        <time>1970-01-01T01:21:06.000Z</time>
      </trkpt>
      <trkpt lat="41.051997" lon="-6.755466">
        <ele>658.8</ele>
        <time>1970-01-01T01:21:07.000Z</time>
      </trkpt>
      <trkpt lat="41.052023" lon="-6.75544">
        <ele>658.8</ele>
        <time>1970-01-01T01:21:08.000Z</time>
      </trkpt>
      <trkpt lat="41.052048" lon="-6.75541">
        <ele>658.9</ele>
        <time>1970-01-01T01:21:09.000Z</time>
      </trkpt>
      <trkpt lat="41.052069" lon="-6.755377">
        <ele>659</ele>
        <time>1970-01-01T01:21:10.000Z</time>
      </trkpt>
      <trkpt lat="41.052086" lon="-6.755344">
        <ele>659</ele>
        <time>1970-01-01T01:21:11.000Z</time>
      </trkpt>
      <trkpt lat="41.052099" lon="-6.755308">
        <ele>659.1</ele>
        <time>1970-01-01T01:21:12.000Z</time>
      </trkpt>
      <trkpt lat="41.052108" lon="-6.755271">
        <ele>659.1</ele>
        <time>1970-01-01T01:21:13.000Z</time>
      </trkpt>
      <trkpt lat="41.052114" lon="-6.75523">
        <ele>659.2</ele>
        <time>1970-01-01T01:21:14.000Z</time>
      </trkpt>
      <trkpt lat="41.052116" lon="-6.755189">
        <ele>659.3</ele>
        <time>1970-01-01T01:21:15.000Z</time>
      </trkpt>
      <trkpt lat="41.052115" lon="-6.755147">
        <ele>659.4</ele>
        <time>1970-01-01T01:21:16.000Z</time>
      </trkpt>
      <trkpt lat="41.052115" lon="-6.755107">
        <ele>659.4</ele>
        <time>1970-01-01T01:21:17.000Z</time>
      </trkpt>
      <trkpt lat="41.052118" lon="-6.755066">
        <ele>659.5</ele>
        <time>1970-01-01T01:21:18.000Z</time>
      </trkpt>
      <trkpt lat="41.05212" lon="-6.755024">
        <ele>659.6</ele>
        <time>1970-01-01T01:21:19.000Z</time>
      </trkpt>
      <trkpt lat="41.052121" lon="-6.75498">
        <ele>659.7</ele>
        <time>1970-01-01T01:21:20.000Z</time>
      </trkpt>
      <trkpt lat="41.05212" lon="-6.754934">
        <ele>659.8</ele>
        <time>1970-01-01T01:21:21.000Z</time>
      </trkpt>
      <trkpt lat="41.052119" lon="-6.754887">
        <ele>659.9</ele>
        <time>1970-01-01T01:21:22.000Z</time>
      </trkpt>
      <trkpt lat="41.052117" lon="-6.754837">
        <ele>660</ele>
        <time>1970-01-01T01:21:23.000Z</time>
      </trkpt>
      <trkpt lat="41.052116" lon="-6.754788">
        <ele>660.1</ele>
        <time>1970-01-01T01:21:24.000Z</time>
      </trkpt>
      <trkpt lat="41.052115" lon="-6.754741">
        <ele>660.3</ele>
        <time>1970-01-01T01:21:25.000Z</time>
      </trkpt>
      <trkpt lat="41.052112" lon="-6.754697">
        <ele>660.4</ele>
        <time>1970-01-01T01:21:26.000Z</time>
      </trkpt>
      <trkpt lat="41.05211" lon="-6.754651">
        <ele>660.5</ele>
        <time>1970-01-01T01:21:27.000Z</time>
      </trkpt>
      <trkpt lat="41.052108" lon="-6.754602">
        <ele>660.6</ele>
        <time>1970-01-01T01:21:28.000Z</time>
      </trkpt>
      <trkpt lat="41.052107" lon="-6.754551">
        <ele>660.8</ele>
        <time>1970-01-01T01:21:29.000Z</time>
      </trkpt>
      <trkpt lat="41.052109" lon="-6.754503">
        <ele>660.9</ele>
        <time>1970-01-01T01:21:30.000Z</time>
      </trkpt>
      <trkpt lat="41.052115" lon="-6.754459">
        <ele>661</ele>
        <time>1970-01-01T01:21:31.000Z</time>
      </trkpt>
      <trkpt lat="41.052125" lon="-6.754418">
        <ele>661.1</ele>
        <time>1970-01-01T01:21:32.000Z</time>
      </trkpt>
      <trkpt lat="41.052137" lon="-6.754378">
        <ele>661.2</ele>
        <time>1970-01-01T01:21:33.000Z</time>
      </trkpt>
      <trkpt lat="41.052149" lon="-6.754339">
        <ele>661.3</ele>
        <time>1970-01-01T01:21:34.000Z</time>
      </trkpt>
      <trkpt lat="41.052161" lon="-6.754303">
        <ele>661.4</ele>
        <time>1970-01-01T01:21:35.000Z</time>
      </trkpt>
      <trkpt lat="41.052173" lon="-6.754267">
        <ele>661.5</ele>
        <time>1970-01-01T01:21:36.000Z</time>
      </trkpt>
      <trkpt lat="41.052187" lon="-6.754229">
        <ele>661.6</ele>
        <time>1970-01-01T01:21:37.000Z</time>
      </trkpt>
      <trkpt lat="41.052203" lon="-6.754188">
        <ele>661.7</ele>
        <time>1970-01-01T01:21:38.000Z</time>
      </trkpt>
      <trkpt lat="41.05222" lon="-6.754146">
        <ele>661.7</ele>
        <time>1970-01-01T01:21:39.000Z</time>
      </trkpt>
      <trkpt lat="41.052236" lon="-6.754107">
        <ele>661.8</ele>
        <time>1970-01-01T01:21:40.000Z</time>
      </trkpt>
      <trkpt lat="41.052249" lon="-6.754074">
        <ele>661.8</ele>
        <time>1970-01-01T01:21:41.000Z</time>
      </trkpt>
      <trkpt lat="41.052258" lon="-6.754043">
        <ele>661.8</ele>
        <time>1970-01-01T01:21:42.000Z</time>
      </trkpt>
      <trkpt lat="41.052262" lon="-6.754011">
        <ele>661.8</ele>
        <time>1970-01-01T01:21:43.000Z</time>
      </trkpt>
      <trkpt lat="41.052263" lon="-6.753977">
        <ele>661.9</ele>
        <time>1970-01-01T01:21:44.000Z</time>
      </trkpt>
      <trkpt lat="41.052262" lon="-6.75394">
        <ele>662</ele>
        <time>1970-01-01T01:21:45.000Z</time>
      </trkpt>
      <trkpt lat="41.052263" lon="-6.753899">
        <ele>662.1</ele>
        <time>1970-01-01T01:21:46.000Z</time>
      </trkpt>
      <trkpt lat="41.052268" lon="-6.753852">
        <ele>662.2</ele>
        <time>1970-01-01T01:21:47.000Z</time>
      </trkpt>
      <trkpt lat="41.052274" lon="-6.753803">
        <ele>662.2</ele>
        <time>1970-01-01T01:21:48.000Z</time>
      </trkpt>
      <trkpt lat="41.052282" lon="-6.753754">
        <ele>662.3</ele>
        <time>1970-01-01T01:21:49.000Z</time>
      </trkpt>
      <trkpt lat="41.052291" lon="-6.753704">
        <ele>662.4</ele>
        <time>1970-01-01T01:21:50.000Z</time>
      </trkpt>
      <trkpt lat="41.052302" lon="-6.753655">
        <ele>662.4</ele>
        <time>1970-01-01T01:21:51.000Z</time>
      </trkpt>
      <trkpt lat="41.052311" lon="-6.753608">
        <ele>662.5</ele>
        <time>1970-01-01T01:21:52.000Z</time>
      </trkpt>
      <trkpt lat="41.052319" lon="-6.753562">
        <ele>662.6</ele>
        <time>1970-01-01T01:21:53.000Z</time>
      </trkpt>
      <trkpt lat="41.052325" lon="-6.753517">
        <ele>662.7</ele>
        <time>1970-01-01T01:21:54.000Z</time>
      </trkpt>
      <trkpt lat="41.052329" lon="-6.753474">
        <ele>662.8</ele>
        <time>1970-01-01T01:21:55.000Z</time>
      </trkpt>
      <trkpt lat="41.052332" lon="-6.75343">
        <ele>662.9</ele>
        <time>1970-01-01T01:21:56.000Z</time>
      </trkpt>
      <trkpt lat="41.052335" lon="-6.753387">
        <ele>662.9</ele>
        <time>1970-01-01T01:21:57.000Z</time>
      </trkpt>
      <trkpt lat="41.052336" lon="-6.753343">
        <ele>663</ele>
        <time>1970-01-01T01:21:58.000Z</time>
      </trkpt>
      <trkpt lat="41.052337" lon="-6.753298">
        <ele>663.1</ele>
        <time>1970-01-01T01:21:59.000Z</time>
      </trkpt>
      <trkpt lat="41.052336" lon="-6.753253">
        <ele>663.2</ele>
        <time>1970-01-01T01:22:00.000Z</time>
      </trkpt>
      <trkpt lat="41.052334" lon="-6.753207">
        <ele>663.3</ele>
        <time>1970-01-01T01:22:01.000Z</time>
      </trkpt>
      <trkpt lat="41.052332" lon="-6.75316">
        <ele>663.5</ele>
        <time>1970-01-01T01:22:02.000Z</time>
      </trkpt>
      <trkpt lat="41.05233" lon="-6.753113">
        <ele>663.6</ele>
        <time>1970-01-01T01:22:03.000Z</time>
      </trkpt>
      <trkpt lat="41.052328" lon="-6.753068">
        <ele>663.7</ele>
        <time>1970-01-01T01:22:04.000Z</time>
      </trkpt>
      <trkpt lat="41.052326" lon="-6.753023">
        <ele>663.8</ele>
        <time>1970-01-01T01:22:05.000Z</time>
      </trkpt>
      <trkpt lat="41.052323" lon="-6.752979">
        <ele>664</ele>
        <time>1970-01-01T01:22:06.000Z</time>
      </trkpt>
      <trkpt lat="41.052319" lon="-6.752936">
        <ele>664.1</ele>
        <time>1970-01-01T01:22:07.000Z</time>
      </trkpt>
      <trkpt lat="41.052313" lon="-6.752893">
        <ele>664.2</ele>
        <time>1970-01-01T01:22:08.000Z</time>
      </trkpt>
      <trkpt lat="41.052307" lon="-6.752851">
        <ele>664.4</ele>
        <time>1970-01-01T01:22:09.000Z</time>
      </trkpt>
      <trkpt lat="41.052301" lon="-6.752809">
        <ele>664.5</ele>
        <time>1970-01-01T01:22:10.000Z</time>
      </trkpt>
      <trkpt lat="41.052293" lon="-6.752767">
        <ele>664.7</ele>
        <time>1970-01-01T01:22:11.000Z</time>
      </trkpt>
      <trkpt lat="41.052286" lon="-6.752723">
        <ele>664.9</ele>
        <time>1970-01-01T01:22:12.000Z</time>
      </trkpt>
      <trkpt lat="41.052278" lon="-6.752679">
        <ele>665.1</ele>
        <time>1970-01-01T01:22:13.000Z</time>
      </trkpt>
      <trkpt lat="41.05227" lon="-6.752634">
        <ele>665.3</ele>
        <time>1970-01-01T01:22:14.000Z</time>
      </trkpt>
      <trkpt lat="41.052262" lon="-6.752588">
        <ele>665.4</ele>
        <time>1970-01-01T01:22:15.000Z</time>
      </trkpt>
      <trkpt lat="41.052254" lon="-6.752539">
        <ele>665.6</ele>
        <time>1970-01-01T01:22:16.000Z</time>
      </trkpt>
      <trkpt lat="41.052246" lon="-6.752486">
        <ele>665.7</ele>
        <time>1970-01-01T01:22:17.000Z</time>
      </trkpt>
      <trkpt lat="41.052239" lon="-6.752433">
        <ele>665.8</ele>
        <time>1970-01-01T01:22:18.000Z</time>
      </trkpt>
      <trkpt lat="41.052231" lon="-6.75238">
        <ele>665.8</ele>
        <time>1970-01-01T01:22:19.000Z</time>
      </trkpt>
      <trkpt lat="41.052224" lon="-6.752328">
        <ele>665.9</ele>
        <time>1970-01-01T01:22:20.000Z</time>
      </trkpt>
      <trkpt lat="41.052215" lon="-6.752279">
        <ele>665.9</ele>
        <time>1970-01-01T01:22:21.000Z</time>
      </trkpt>
      <trkpt lat="41.052206" lon="-6.752232">
        <ele>666</ele>
        <time>1970-01-01T01:22:22.000Z</time>
      </trkpt>
      <trkpt lat="41.052194" lon="-6.752185">
        <ele>666</ele>
        <time>1970-01-01T01:22:23.000Z</time>
      </trkpt>
      <trkpt lat="41.052178" lon="-6.75214">
        <ele>666</ele>
        <time>1970-01-01T01:22:24.000Z</time>
      </trkpt>
      <trkpt lat="41.052159" lon="-6.752097">
        <ele>666</ele>
        <time>1970-01-01T01:22:25.000Z</time>
      </trkpt>
      <trkpt lat="41.052138" lon="-6.752058">
        <ele>666.1</ele>
        <time>1970-01-01T01:22:26.000Z</time>
      </trkpt>
      <trkpt lat="41.052116" lon="-6.752021">
        <ele>666.1</ele>
        <time>1970-01-01T01:22:27.000Z</time>
      </trkpt>
      <trkpt lat="41.052091" lon="-6.751986">
        <ele>666.1</ele>
        <time>1970-01-01T01:22:28.000Z</time>
      </trkpt>
      <trkpt lat="41.052067" lon="-6.751953">
        <ele>666.2</ele>
        <time>1970-01-01T01:22:29.000Z</time>
      </trkpt>
      <trkpt lat="41.052045" lon="-6.751919">
        <ele>666.3</ele>
        <time>1970-01-01T01:22:30.000Z</time>
      </trkpt>
      <trkpt lat="41.052024" lon="-6.751887">
        <ele>666.4</ele>
        <time>1970-01-01T01:22:31.000Z</time>
      </trkpt>
      <trkpt lat="41.052004" lon="-6.751855">
        <ele>666.5</ele>
        <time>1970-01-01T01:22:32.000Z</time>
      </trkpt>
      <trkpt lat="41.051985" lon="-6.751825">
        <ele>666.5</ele>
        <time>1970-01-01T01:22:33.000Z</time>
      </trkpt>
      <trkpt lat="41.051966" lon="-6.751796">
        <ele>666.6</ele>
        <time>1970-01-01T01:22:34.000Z</time>
      </trkpt>
      <trkpt lat="41.051948" lon="-6.751768">
        <ele>666.7</ele>
        <time>1970-01-01T01:22:35.000Z</time>
      </trkpt>
      <trkpt lat="41.051929" lon="-6.75174">
        <ele>666.8</ele>
        <time>1970-01-01T01:22:36.000Z</time>
      </trkpt>
      <trkpt lat="41.05191" lon="-6.751712">
        <ele>667</ele>
        <time>1970-01-01T01:22:37.000Z</time>
      </trkpt>
      <trkpt lat="41.051888" lon="-6.751685">
        <ele>667.1</ele>
        <time>1970-01-01T01:22:38.000Z</time>
      </trkpt>
      <trkpt lat="41.051866" lon="-6.751659">
        <ele>667.3</ele>
        <time>1970-01-01T01:22:39.000Z</time>
      </trkpt>
      <trkpt lat="41.051843" lon="-6.751633">
        <ele>667.5</ele>
        <time>1970-01-01T01:22:40.000Z</time>
      </trkpt>
      <trkpt lat="41.051824" lon="-6.751608">
        <ele>667.7</ele>
        <time>1970-01-01T01:22:41.000Z</time>
      </trkpt>
      <trkpt lat="41.051808" lon="-6.751585">
        <ele>667.8</ele>
        <time>1970-01-01T01:22:42.000Z</time>
      </trkpt>
      <trkpt lat="41.051793" lon="-6.751562">
        <ele>668</ele>
        <time>1970-01-01T01:22:43.000Z</time>
      </trkpt>
      <trkpt lat="41.051777" lon="-6.751538">
        <ele>668.2</ele>
        <time>1970-01-01T01:22:44.000Z</time>
      </trkpt>
      <trkpt lat="41.051761" lon="-6.751514">
        <ele>668.4</ele>
        <time>1970-01-01T01:22:45.000Z</time>
      </trkpt>
      <trkpt lat="41.051745" lon="-6.751487">
        <ele>668.7</ele>
        <time>1970-01-01T01:22:46.000Z</time>
      </trkpt>
      <trkpt lat="41.051729" lon="-6.75146">
        <ele>668.9</ele>
        <time>1970-01-01T01:22:47.000Z</time>
      </trkpt>
      <trkpt lat="41.051712" lon="-6.751433">
        <ele>669.2</ele>
        <time>1970-01-01T01:22:48.000Z</time>
      </trkpt>
      <trkpt lat="41.051696" lon="-6.751406">
        <ele>669.5</ele>
        <time>1970-01-01T01:22:49.000Z</time>
      </trkpt>
      <trkpt lat="41.05168" lon="-6.751378">
        <ele>669.8</ele>
        <time>1970-01-01T01:22:50.000Z</time>
      </trkpt>
      <trkpt lat="41.051666" lon="-6.751349">
        <ele>670</ele>
        <time>1970-01-01T01:22:51.000Z</time>
      </trkpt>
      <trkpt lat="41.051651" lon="-6.751319">
        <ele>670.3</ele>
        <time>1970-01-01T01:22:52.000Z</time>
      </trkpt>
      <trkpt lat="41.051637" lon="-6.751289">
        <ele>670.5</ele>
        <time>1970-01-01T01:22:53.000Z</time>
      </trkpt>
      <trkpt lat="41.051623" lon="-6.75126">
        <ele>670.8</ele>
        <time>1970-01-01T01:22:54.000Z</time>
      </trkpt>
      <trkpt lat="41.05161" lon="-6.751231">
        <ele>671</ele>
        <time>1970-01-01T01:22:55.000Z</time>
      </trkpt>
      <trkpt lat="41.051597" lon="-6.751202">
        <ele>671.2</ele>
        <time>1970-01-01T01:22:56.000Z</time>
      </trkpt>
      <trkpt lat="41.051583" lon="-6.751173">
        <ele>671.5</ele>
        <time>1970-01-01T01:22:57.000Z</time>
      </trkpt>
      <trkpt lat="41.05157" lon="-6.751144">
        <ele>671.7</ele>
        <time>1970-01-01T01:22:58.000Z</time>
      </trkpt>
      <trkpt lat="41.051557" lon="-6.751115">
        <ele>671.9</ele>
        <time>1970-01-01T01:22:59.000Z</time>
      </trkpt>
      <trkpt lat="41.051544" lon="-6.751087">
        <ele>672.1</ele>
        <time>1970-01-01T01:23:00.000Z</time>
      </trkpt>
      <trkpt lat="41.051531" lon="-6.75106">
        <ele>672.4</ele>
        <time>1970-01-01T01:23:01.000Z</time>
      </trkpt>
      <trkpt lat="41.051518" lon="-6.751033">
        <ele>672.6</ele>
        <time>1970-01-01T01:23:02.000Z</time>
      </trkpt>
      <trkpt lat="41.051503" lon="-6.751005">
        <ele>672.8</ele>
        <time>1970-01-01T01:23:03.000Z</time>
      </trkpt>
      <trkpt lat="41.051487" lon="-6.750978">
        <ele>673</ele>
        <time>1970-01-01T01:23:04.000Z</time>
      </trkpt>
      <trkpt lat="41.05147" lon="-6.750953">
        <ele>673.3</ele>
        <time>1970-01-01T01:23:05.000Z</time>
      </trkpt>
      <trkpt lat="41.051453" lon="-6.75093">
        <ele>673.5</ele>
        <time>1970-01-01T01:23:06.000Z</time>
      </trkpt>
      <trkpt lat="41.051434" lon="-6.75091">
        <ele>673.7</ele>
        <time>1970-01-01T01:23:07.000Z</time>
      </trkpt>
      <trkpt lat="41.051412" lon="-6.750894">
        <ele>674</ele>
        <time>1970-01-01T01:23:08.000Z</time>
      </trkpt>
      <trkpt lat="41.051388" lon="-6.750887">
        <ele>674.2</ele>
        <time>1970-01-01T01:23:09.000Z</time>
      </trkpt>
      <trkpt lat="41.051365" lon="-6.750888">
        <ele>674.4</ele>
        <time>1970-01-01T01:23:10.000Z</time>
      </trkpt>
      <trkpt lat="41.051345" lon="-6.750898">
        <ele>674.6</ele>
        <time>1970-01-01T01:23:11.000Z</time>
      </trkpt>
      <trkpt lat="41.051329" lon="-6.750912">
        <ele>674.8</ele>
        <time>1970-01-01T01:23:12.000Z</time>
      </trkpt>
      <trkpt lat="41.051317" lon="-6.75093">
        <ele>674.9</ele>
        <time>1970-01-01T01:23:13.000Z</time>
      </trkpt>
      <trkpt lat="41.051308" lon="-6.750952">
        <ele>675.1</ele>
        <time>1970-01-01T01:23:14.000Z</time>
      </trkpt>
      <trkpt lat="41.051304" lon="-6.750976">
        <ele>675.3</ele>
        <time>1970-01-01T01:23:15.000Z</time>
      </trkpt>
      <trkpt lat="41.051304" lon="-6.751002">
        <ele>675.5</ele>
        <time>1970-01-01T01:23:16.000Z</time>
      </trkpt>
      <trkpt lat="41.051307" lon="-6.75103">
        <ele>675.7</ele>
        <time>1970-01-01T01:23:17.000Z</time>
      </trkpt>
      <trkpt lat="41.051311" lon="-6.751058">
        <ele>675.9</ele>
        <time>1970-01-01T01:23:18.000Z</time>
      </trkpt>
      <trkpt lat="41.051316" lon="-6.751084">
        <ele>676.1</ele>
        <time>1970-01-01T01:23:19.000Z</time>
      </trkpt>
      <trkpt lat="41.051321" lon="-6.75111">
        <ele>676.3</ele>
        <time>1970-01-01T01:23:20.000Z</time>
      </trkpt>
      <trkpt lat="41.051326" lon="-6.751135">
        <ele>676.5</ele>
        <time>1970-01-01T01:23:21.000Z</time>
      </trkpt>
      <trkpt lat="41.051331" lon="-6.75116">
        <ele>676.7</ele>
        <time>1970-01-01T01:23:22.000Z</time>
      </trkpt>
      <trkpt lat="41.051336" lon="-6.751186">
        <ele>677</ele>
        <time>1970-01-01T01:23:23.000Z</time>
      </trkpt>
      <trkpt lat="41.051342" lon="-6.751213">
        <ele>677.2</ele>
        <time>1970-01-01T01:23:24.000Z</time>
      </trkpt>
      <trkpt lat="41.051347" lon="-6.75124">
        <ele>677.5</ele>
        <time>1970-01-01T01:23:25.000Z</time>
      </trkpt>
      <trkpt lat="41.051353" lon="-6.751266">
        <ele>677.7</ele>
        <time>1970-01-01T01:23:26.000Z</time>
      </trkpt>
      <trkpt lat="41.051359" lon="-6.751292">
        <ele>678</ele>
        <time>1970-01-01T01:23:27.000Z</time>
      </trkpt>
      <trkpt lat="41.051365" lon="-6.751318">
        <ele>678.2</ele>
        <time>1970-01-01T01:23:28.000Z</time>
      </trkpt>
      <trkpt lat="41.051372" lon="-6.751344">
        <ele>678.4</ele>
        <time>1970-01-01T01:23:29.000Z</time>
      </trkpt>
      <trkpt lat="41.051378" lon="-6.751371">
        <ele>678.7</ele>
        <time>1970-01-01T01:23:30.000Z</time>
      </trkpt>
      <trkpt lat="41.051384" lon="-6.751398">
        <ele>678.9</ele>
        <time>1970-01-01T01:23:31.000Z</time>
      </trkpt>
      <trkpt lat="41.051387" lon="-6.751426">
        <ele>679.2</ele>
        <time>1970-01-01T01:23:32.000Z</time>
      </trkpt>
      <trkpt lat="41.051391" lon="-6.751455">
        <ele>679.5</ele>
        <time>1970-01-01T01:23:33.000Z</time>
      </trkpt>
      <trkpt lat="41.051394" lon="-6.751484">
        <ele>679.7</ele>
        <time>1970-01-01T01:23:34.000Z</time>
      </trkpt>
      <trkpt lat="41.051397" lon="-6.751513">
        <ele>680</ele>
        <time>1970-01-01T01:23:35.000Z</time>
      </trkpt>
      <trkpt lat="41.051401" lon="-6.751543">
        <ele>680.2</ele>
        <time>1970-01-01T01:23:36.000Z</time>
      </trkpt>
      <trkpt lat="41.051404" lon="-6.751572">
        <ele>680.4</ele>
        <time>1970-01-01T01:23:37.000Z</time>
      </trkpt>
      <trkpt lat="41.051407" lon="-6.751602">
        <ele>680.6</ele>
        <time>1970-01-01T01:23:38.000Z</time>
      </trkpt>
      <trkpt lat="41.051409" lon="-6.751631">
        <ele>680.8</ele>
        <time>1970-01-01T01:23:39.000Z</time>
      </trkpt>
      <trkpt lat="41.051411" lon="-6.751661">
        <ele>681</ele>
        <time>1970-01-01T01:23:40.000Z</time>
      </trkpt>
      <trkpt lat="41.051413" lon="-6.75169">
        <ele>681.2</ele>
        <time>1970-01-01T01:23:41.000Z</time>
      </trkpt>
      <trkpt lat="41.051413" lon="-6.75172">
        <ele>681.3</ele>
        <time>1970-01-01T01:23:42.000Z</time>
      </trkpt>
      <trkpt lat="41.05141" lon="-6.75175">
        <ele>681.5</ele>
        <time>1970-01-01T01:23:43.000Z</time>
      </trkpt>
      <trkpt lat="41.051407" lon="-6.751781">
        <ele>681.7</ele>
        <time>1970-01-01T01:23:44.000Z</time>
      </trkpt>
      <trkpt lat="41.051403" lon="-6.751812">
        <ele>681.9</ele>
        <time>1970-01-01T01:23:45.000Z</time>
      </trkpt>
      <trkpt lat="41.051399" lon="-6.751843">
        <ele>682.1</ele>
        <time>1970-01-01T01:23:46.000Z</time>
      </trkpt>
      <trkpt lat="41.051393" lon="-6.751874">
        <ele>682.3</ele>
        <time>1970-01-01T01:23:47.000Z</time>
      </trkpt>
      <trkpt lat="41.051386" lon="-6.751902">
        <ele>682.4</ele>
        <time>1970-01-01T01:23:48.000Z</time>
      </trkpt>
      <trkpt lat="41.051379" lon="-6.75193">
        <ele>682.6</ele>
        <time>1970-01-01T01:23:49.000Z</time>
      </trkpt>
      <trkpt lat="41.051369" lon="-6.751954">
        <ele>682.8</ele>
        <time>1970-01-01T01:23:50.000Z</time>
      </trkpt>
      <trkpt lat="41.051359" lon="-6.751977">
        <ele>683</ele>
        <time>1970-01-01T01:23:51.000Z</time>
      </trkpt>
      <trkpt lat="41.051347" lon="-6.751997">
        <ele>683.1</ele>
        <time>1970-01-01T01:23:52.000Z</time>
      </trkpt>
      <trkpt lat="41.051334" lon="-6.752017">
        <ele>683.3</ele>
        <time>1970-01-01T01:23:53.000Z</time>
      </trkpt>
      <trkpt lat="41.05132" lon="-6.752036">
        <ele>683.5</ele>
        <time>1970-01-01T01:23:54.000Z</time>
      </trkpt>
      <trkpt lat="41.051307" lon="-6.752057">
        <ele>683.6</ele>
        <time>1970-01-01T01:23:55.000Z</time>
      </trkpt>
      <trkpt lat="41.051294" lon="-6.752079">
        <ele>683.8</ele>
        <time>1970-01-01T01:23:56.000Z</time>
      </trkpt>
      <trkpt lat="41.051279" lon="-6.752101">
        <ele>684</ele>
        <time>1970-01-01T01:23:57.000Z</time>
      </trkpt>
      <trkpt lat="41.051264" lon="-6.752121">
        <ele>684.2</ele>
        <time>1970-01-01T01:23:58.000Z</time>
      </trkpt>
      <trkpt lat="41.051247" lon="-6.752139">
        <ele>684.4</ele>
        <time>1970-01-01T01:23:59.000Z</time>
      </trkpt>
      <trkpt lat="41.051231" lon="-6.752155">
        <ele>684.5</ele>
        <time>1970-01-01T01:24:00.000Z</time>
      </trkpt>
      <trkpt lat="41.051213" lon="-6.75217">
        <ele>684.7</ele>
        <time>1970-01-01T01:24:01.000Z</time>
      </trkpt>
      <trkpt lat="41.051194" lon="-6.752183">
        <ele>684.9</ele>
        <time>1970-01-01T01:24:02.000Z</time>
      </trkpt>
      <trkpt lat="41.051174" lon="-6.752195">
        <ele>685.1</ele>
        <time>1970-01-01T01:24:03.000Z</time>
      </trkpt>
      <trkpt lat="41.051153" lon="-6.752205">
        <ele>685.3</ele>
        <time>1970-01-01T01:24:04.000Z</time>
      </trkpt>
      <trkpt lat="41.051132" lon="-6.752213">
        <ele>685.6</ele>
        <time>1970-01-01T01:24:05.000Z</time>
      </trkpt>
      <trkpt lat="41.051112" lon="-6.752218">
        <ele>685.8</ele>
        <time>1970-01-01T01:24:06.000Z</time>
      </trkpt>
      <trkpt lat="41.051091" lon="-6.752222">
        <ele>686</ele>
        <time>1970-01-01T01:24:07.000Z</time>
      </trkpt>
      <trkpt lat="41.05107" lon="-6.752225">
        <ele>686.2</ele>
        <time>1970-01-01T01:24:08.000Z</time>
      </trkpt>
      <trkpt lat="41.051049" lon="-6.752225">
        <ele>686.4</ele>
        <time>1970-01-01T01:24:09.000Z</time>
      </trkpt>
      <trkpt lat="41.051028" lon="-6.752223">
        <ele>686.6</ele>
        <time>1970-01-01T01:24:10.000Z</time>
      </trkpt>
      <trkpt lat="41.051007" lon="-6.75222">
        <ele>686.8</ele>
        <time>1970-01-01T01:24:11.000Z</time>
      </trkpt>
      <trkpt lat="41.050987" lon="-6.752215">
        <ele>686.9</ele>
        <time>1970-01-01T01:24:12.000Z</time>
      </trkpt>
      <trkpt lat="41.050967" lon="-6.752208">
        <ele>687.1</ele>
        <time>1970-01-01T01:24:13.000Z</time>
      </trkpt>
      <trkpt lat="41.050947" lon="-6.752199">
        <ele>687.2</ele>
        <time>1970-01-01T01:24:14.000Z</time>
      </trkpt>
      <trkpt lat="41.050928" lon="-6.752189">
        <ele>687.3</ele>
        <time>1970-01-01T01:24:15.000Z</time>
      </trkpt>
      <trkpt lat="41.050909" lon="-6.752178">
        <ele>687.4</ele>
        <time>1970-01-01T01:24:16.000Z</time>
      </trkpt>
      <trkpt lat="41.050891" lon="-6.752167">
        <ele>687.5</ele>
        <time>1970-01-01T01:24:17.000Z</time>
      </trkpt>
      <trkpt lat="41.050874" lon="-6.752155">
        <ele>687.6</ele>
        <time>1970-01-01T01:24:18.000Z</time>
      </trkpt>
      <trkpt lat="41.050858" lon="-6.75214">
        <ele>687.8</ele>
        <time>1970-01-01T01:24:19.000Z</time>
      </trkpt>
      <trkpt lat="41.050847" lon="-6.752122">
        <ele>688</ele>
        <time>1970-01-01T01:24:20.000Z</time>
      </trkpt>
      <trkpt lat="41.050841" lon="-6.752101">
        <ele>688.2</ele>
        <time>1970-01-01T01:24:21.000Z</time>
      </trkpt>
      <trkpt lat="41.050838" lon="-6.752078">
        <ele>688.4</ele>
        <time>1970-01-01T01:24:22.000Z</time>
      </trkpt>
      <trkpt lat="41.050837" lon="-6.752053">
        <ele>688.7</ele>
        <time>1970-01-01T01:24:23.000Z</time>
      </trkpt>
      <trkpt lat="41.050835" lon="-6.752029">
        <ele>688.9</ele>
        <time>1970-01-01T01:24:24.000Z</time>
      </trkpt>
      <trkpt lat="41.050833" lon="-6.752005">
        <ele>689.1</ele>
        <time>1970-01-01T01:24:25.000Z</time>
      </trkpt>
      <trkpt lat="41.050832" lon="-6.751981">
        <ele>689.3</ele>
        <time>1970-01-01T01:24:26.000Z</time>
      </trkpt>
      <trkpt lat="41.050832" lon="-6.751958">
        <ele>689.5</ele>
        <time>1970-01-01T01:24:27.000Z</time>
      </trkpt>
      <trkpt lat="41.050831" lon="-6.751935">
        <ele>689.6</ele>
        <time>1970-01-01T01:24:28.000Z</time>
      </trkpt>
      <trkpt lat="41.050829" lon="-6.751912">
        <ele>689.8</ele>
        <time>1970-01-01T01:24:29.000Z</time>
      </trkpt>
      <trkpt lat="41.050825" lon="-6.751889">
        <ele>690</ele>
        <time>1970-01-01T01:24:30.000Z</time>
      </trkpt>
      <trkpt lat="41.05082" lon="-6.751865">
        <ele>690.2</ele>
        <time>1970-01-01T01:24:31.000Z</time>
      </trkpt>
      <trkpt lat="41.050815" lon="-6.751842">
        <ele>690.3</ele>
        <time>1970-01-01T01:24:32.000Z</time>
      </trkpt>
      <trkpt lat="41.050809" lon="-6.751819">
        <ele>690.5</ele>
        <time>1970-01-01T01:24:33.000Z</time>
      </trkpt>
      <trkpt lat="41.050803" lon="-6.751796">
        <ele>690.7</ele>
        <time>1970-01-01T01:24:34.000Z</time>
      </trkpt>
      <trkpt lat="41.050796" lon="-6.751774">
        <ele>690.8</ele>
        <time>1970-01-01T01:24:35.000Z</time>
      </trkpt>
      <trkpt lat="41.050788" lon="-6.751752">
        <ele>691</ele>
        <time>1970-01-01T01:24:36.000Z</time>
      </trkpt>
      <trkpt lat="41.05078" lon="-6.751732">
        <ele>691.1</ele>
        <time>1970-01-01T01:24:37.000Z</time>
      </trkpt>
      <trkpt lat="41.050771" lon="-6.751713">
        <ele>691.2</ele>
        <time>1970-01-01T01:24:38.000Z</time>
      </trkpt>
      <trkpt lat="41.050762" lon="-6.751692">
        <ele>691.4</ele>
        <time>1970-01-01T01:24:39.000Z</time>
      </trkpt>
      <trkpt lat="41.050751" lon="-6.751671">
        <ele>691.5</ele>
        <time>1970-01-01T01:24:40.000Z</time>
      </trkpt>
      <trkpt lat="41.050739" lon="-6.75165">
        <ele>691.7</ele>
        <time>1970-01-01T01:24:41.000Z</time>
      </trkpt>
      <trkpt lat="41.050727" lon="-6.75163">
        <ele>691.9</ele>
        <time>1970-01-01T01:24:42.000Z</time>
      </trkpt>
      <trkpt lat="41.050714" lon="-6.75161">
        <ele>692.1</ele>
        <time>1970-01-01T01:24:43.000Z</time>
      </trkpt>
      <trkpt lat="41.050701" lon="-6.751591">
        <ele>692.3</ele>
        <time>1970-01-01T01:24:44.000Z</time>
      </trkpt>
      <trkpt lat="41.050688" lon="-6.751572">
        <ele>692.4</ele>
        <time>1970-01-01T01:24:45.000Z</time>
      </trkpt>
      <trkpt lat="41.050676" lon="-6.751553">
        <ele>692.7</ele>
        <time>1970-01-01T01:24:46.000Z</time>
      </trkpt>
      <trkpt lat="41.050662" lon="-6.751535">
        <ele>692.9</ele>
        <time>1970-01-01T01:24:47.000Z</time>
      </trkpt>
      <trkpt lat="41.050648" lon="-6.751518">
        <ele>693.1</ele>
        <time>1970-01-01T01:24:48.000Z</time>
      </trkpt>
      <trkpt lat="41.050633" lon="-6.751501">
        <ele>693.3</ele>
        <time>1970-01-01T01:24:49.000Z</time>
      </trkpt>
      <trkpt lat="41.05062" lon="-6.751483">
        <ele>693.5</ele>
        <time>1970-01-01T01:24:50.000Z</time>
      </trkpt>
      <trkpt lat="41.050609" lon="-6.751464">
        <ele>693.7</ele>
        <time>1970-01-01T01:24:51.000Z</time>
      </trkpt>
      <trkpt lat="41.050597" lon="-6.751445">
        <ele>693.9</ele>
        <time>1970-01-01T01:24:52.000Z</time>
      </trkpt>
      <trkpt lat="41.050584" lon="-6.751426">
        <ele>694.1</ele>
        <time>1970-01-01T01:24:53.000Z</time>
      </trkpt>
      <trkpt lat="41.050569" lon="-6.75141">
        <ele>694.3</ele>
        <time>1970-01-01T01:24:54.000Z</time>
      </trkpt>
      <trkpt lat="41.050553" lon="-6.751396">
        <ele>694.5</ele>
        <time>1970-01-01T01:24:55.000Z</time>
      </trkpt>
      <trkpt lat="41.050536" lon="-6.751383">
        <ele>694.8</ele>
        <time>1970-01-01T01:24:56.000Z</time>
      </trkpt>
      <trkpt lat="41.050519" lon="-6.751371">
        <ele>695</ele>
        <time>1970-01-01T01:24:57.000Z</time>
      </trkpt>
      <trkpt lat="41.050502" lon="-6.751358">
        <ele>695.2</ele>
        <time>1970-01-01T01:24:58.000Z</time>
      </trkpt>
      <trkpt lat="41.050485" lon="-6.751345">
        <ele>695.4</ele>
        <time>1970-01-01T01:24:59.000Z</time>
      </trkpt>
      <trkpt lat="41.050469" lon="-6.751332">
        <ele>695.6</ele>
        <time>1970-01-01T01:25:00.000Z</time>
      </trkpt>
      <trkpt lat="41.050453" lon="-6.751319">
        <ele>695.8</ele>
        <time>1970-01-01T01:25:01.000Z</time>
      </trkpt>
      <trkpt lat="41.050437" lon="-6.751305">
        <ele>696</ele>
        <time>1970-01-01T01:25:02.000Z</time>
      </trkpt>
      <trkpt lat="41.050421" lon="-6.751292">
        <ele>696.2</ele>
        <time>1970-01-01T01:25:03.000Z</time>
      </trkpt>
      <trkpt lat="41.050404" lon="-6.75128">
        <ele>696.4</ele>
        <time>1970-01-01T01:25:04.000Z</time>
      </trkpt>
      <trkpt lat="41.050386" lon="-6.751268">
        <ele>696.6</ele>
        <time>1970-01-01T01:25:05.000Z</time>
      </trkpt>
      <trkpt lat="41.050369" lon="-6.751255">
        <ele>696.8</ele>
        <time>1970-01-01T01:25:06.000Z</time>
      </trkpt>
      <trkpt lat="41.05035" lon="-6.751241">
        <ele>697</ele>
        <time>1970-01-01T01:25:07.000Z</time>
      </trkpt>
      <trkpt lat="41.050333" lon="-6.751227">
        <ele>697.2</ele>
        <time>1970-01-01T01:25:08.000Z</time>
      </trkpt>
      <trkpt lat="41.050316" lon="-6.751215">
        <ele>697.4</ele>
        <time>1970-01-01T01:25:09.000Z</time>
      </trkpt>
      <trkpt lat="41.050301" lon="-6.751204">
        <ele>697.5</ele>
        <time>1970-01-01T01:25:10.000Z</time>
      </trkpt>
      <trkpt lat="41.050287" lon="-6.751192">
        <ele>697.7</ele>
        <time>1970-01-01T01:25:11.000Z</time>
      </trkpt>
      <trkpt lat="41.050273" lon="-6.75118">
        <ele>697.9</ele>
        <time>1970-01-01T01:25:12.000Z</time>
      </trkpt>
      <trkpt lat="41.050259" lon="-6.751168">
        <ele>698</ele>
        <time>1970-01-01T01:25:13.000Z</time>
      </trkpt>
      <trkpt lat="41.050246" lon="-6.751157">
        <ele>698.2</ele>
        <time>1970-01-01T01:25:14.000Z</time>
      </trkpt>
      <trkpt lat="41.050234" lon="-6.751148">
        <ele>698.4</ele>
        <time>1970-01-01T01:25:15.000Z</time>
      </trkpt>
      <trkpt lat="41.050224" lon="-6.751141">
        <ele>698.5</ele>
        <time>1970-01-01T01:25:16.000Z</time>
      </trkpt>
      <trkpt lat="41.050216" lon="-6.751134">
        <ele>698.6</ele>
        <time>1970-01-01T01:25:17.000Z</time>
      </trkpt>
      <trkpt lat="41.050209" lon="-6.751129">
        <ele>698.7</ele>
        <time>1970-01-01T01:25:18.000Z</time>
      </trkpt>
      <trkpt lat="41.050204" lon="-6.751122">
        <ele>698.7</ele>
        <time>1970-01-01T01:25:19.000Z</time>
      </trkpt>
      <trkpt lat="41.0502" lon="-6.751116">
        <ele>698.8</ele>
        <time>1970-01-01T01:25:20.000Z</time>
      </trkpt>
      <trkpt lat="41.050197" lon="-6.75111">
        <ele>698.9</ele>
        <time>1970-01-01T01:25:21.000Z</time>
      </trkpt>
      <trkpt lat="41.050193" lon="-6.751105">
        <ele>698.9</ele>
        <time>1970-01-01T01:25:22.000Z</time>
      </trkpt>
      <trkpt lat="41.050189" lon="-6.751101">
        <ele>699</ele>
        <time>1970-01-01T01:25:23.000Z</time>
      </trkpt>
      <trkpt lat="41.050187" lon="-6.751095">
        <ele>699</ele>
        <time>1970-01-01T01:25:24.000Z</time>
      </trkpt>
      <trkpt lat="41.050187" lon="-6.751089">
        <ele>699</ele>
        <time>1970-01-01T01:25:25.000Z</time>
      </trkpt>
      <trkpt lat="41.050187" lon="-6.751083">
        <ele>699.1</ele>
        <time>1970-01-01T01:25:26.000Z</time>
      </trkpt>
      <trkpt lat="41.050186" lon="-6.751078">
        <ele>699.1</ele>
        <time>1970-01-01T01:25:27.000Z</time>
      </trkpt>
      <trkpt lat="41.050185" lon="-6.751074">
        <ele>699.2</ele>
        <time>1970-01-01T01:25:28.000Z</time>
      </trkpt>
      <trkpt lat="41.050185" lon="-6.751072">
        <ele>699.2</ele>
        <time>1970-01-01T01:25:29.000Z</time>
      </trkpt>
      <trkpt lat="41.050184" lon="-6.751069">
        <ele>699.2</ele>
        <time>1970-01-01T01:25:30.000Z</time>
      </trkpt>
      <trkpt lat="41.050181" lon="-6.751063">
        <ele>699.2</ele>
        <time>1970-01-01T01:25:31.000Z</time>
      </trkpt>
      <trkpt lat="41.050175" lon="-6.751052">
        <ele>699.3</ele>
        <time>1970-01-01T01:25:32.000Z</time>
      </trkpt>
      <trkpt lat="41.050167" lon="-6.751038">
        <ele>699.4</ele>
        <time>1970-01-01T01:25:33.000Z</time>
      </trkpt>
      <trkpt lat="41.050161" lon="-6.751023">
        <ele>699.4</ele>
        <time>1970-01-01T01:25:34.000Z</time>
      </trkpt>
      <trkpt lat="41.050157" lon="-6.751008">
        <ele>699.5</ele>
        <time>1970-01-01T01:25:35.000Z</time>
      </trkpt>
      <trkpt lat="41.050154" lon="-6.750993">
        <ele>699.5</ele>
        <time>1970-01-01T01:25:36.000Z</time>
      </trkpt>
      <trkpt lat="41.050151" lon="-6.750978">
        <ele>699.5</ele>
        <time>1970-01-01T01:25:37.000Z</time>
      </trkpt>
      <trkpt lat="41.050148" lon="-6.750965">
        <ele>699.5</ele>
        <time>1970-01-01T01:25:38.000Z</time>
      </trkpt>
      <trkpt lat="41.050145" lon="-6.750952">
        <ele>699.5</ele>
        <time>1970-01-01T01:25:39.000Z</time>
      </trkpt>
      <trkpt lat="41.050143" lon="-6.75094">
        <ele>699.4</ele>
        <time>1970-01-01T01:25:40.000Z</time>
      </trkpt>
      <trkpt lat="41.050142" lon="-6.750929">
        <ele>699.4</ele>
        <time>1970-01-01T01:25:41.000Z</time>
      </trkpt>
      <trkpt lat="41.050144" lon="-6.750918">
        <ele>699.3</ele>
        <time>1970-01-01T01:25:42.000Z</time>
      </trkpt>
      <trkpt lat="41.050147" lon="-6.750907">
        <ele>699.3</ele>
        <time>1970-01-01T01:25:43.000Z</time>
      </trkpt>
      <trkpt lat="41.050152" lon="-6.750896">
        <ele>699.2</ele>
        <time>1970-01-01T01:25:44.000Z</time>
      </trkpt>
      <trkpt lat="41.050158" lon="-6.750885">
        <ele>699.1</ele>
        <time>1970-01-01T01:25:45.000Z</time>
      </trkpt>
      <trkpt lat="41.050164" lon="-6.750874">
        <ele>699</ele>
        <time>1970-01-01T01:25:46.000Z</time>
      </trkpt>
      <trkpt lat="41.05017" lon="-6.750864">
        <ele>699</ele>
        <time>1970-01-01T01:25:47.000Z</time>
      </trkpt>
      <trkpt lat="41.050174" lon="-6.750856">
        <ele>698.9</ele>
        <time>1970-01-01T01:25:48.000Z</time>
      </trkpt>
      <trkpt lat="41.050176" lon="-6.750847">
        <ele>698.8</ele>
        <time>1970-01-01T01:25:49.000Z</time>
      </trkpt>
      <trkpt lat="41.05018" lon="-6.750831">
        <ele>698.7</ele>
        <time>1970-01-01T01:25:50.000Z</time>
      </trkpt>
      <trkpt lat="41.050182" lon="-6.750805">
        <ele>698.5</ele>
        <time>1970-01-01T01:25:51.000Z</time>
      </trkpt>
      <trkpt lat="41.05018" lon="-6.750774">
        <ele>698.4</ele>
        <time>1970-01-01T01:25:52.000Z</time>
      </trkpt>
      <trkpt lat="41.050173" lon="-6.750742">
        <ele>698.2</ele>
        <time>1970-01-01T01:25:53.000Z</time>
      </trkpt>
      <trkpt lat="41.050162" lon="-6.750713">
        <ele>698.1</ele>
        <time>1970-01-01T01:25:54.000Z</time>
      </trkpt>
      <trkpt lat="41.050149" lon="-6.750682">
        <ele>698.1</ele>
        <time>1970-01-01T01:25:55.000Z</time>
      </trkpt>
      <trkpt lat="41.050128" lon="-6.75065">
        <ele>698</ele>
        <time>1970-01-01T01:25:56.000Z</time>
      </trkpt>
      <trkpt lat="41.050101" lon="-6.75062">
        <ele>698</ele>
        <time>1970-01-01T01:25:57.000Z</time>
      </trkpt>
      <trkpt lat="41.050068" lon="-6.750597">
        <ele>698</ele>
        <time>1970-01-01T01:25:58.000Z</time>
      </trkpt>
      <trkpt lat="41.050038" lon="-6.750578">
        <ele>698</ele>
        <time>1970-01-01T01:25:59.000Z</time>
      </trkpt>
      <trkpt lat="41.050007" lon="-6.750557">
        <ele>697.9</ele>
        <time>1970-01-01T01:26:00.000Z</time>
      </trkpt>
      <trkpt lat="41.049975" lon="-6.750537">
        <ele>697.8</ele>
        <time>1970-01-01T01:26:01.000Z</time>
      </trkpt>
      <trkpt lat="41.04994" lon="-6.750518">
        <ele>697.6</ele>
        <time>1970-01-01T01:26:02.000Z</time>
      </trkpt>
      <trkpt lat="41.049903" lon="-6.750499">
        <ele>697.3</ele>
        <time>1970-01-01T01:26:03.000Z</time>
      </trkpt>
      <trkpt lat="41.049863" lon="-6.750481">
        <ele>697</ele>
        <time>1970-01-01T01:26:04.000Z</time>
      </trkpt>
      <trkpt lat="41.04982" lon="-6.750461">
        <ele>696.6</ele>
        <time>1970-01-01T01:26:05.000Z</time>
      </trkpt>
      <trkpt lat="41.049775" lon="-6.75044">
        <ele>696.2</ele>
        <time>1970-01-01T01:26:06.000Z</time>
      </trkpt>
      <trkpt lat="41.049729" lon="-6.750416">
        <ele>695.8</ele>
        <time>1970-01-01T01:26:07.000Z</time>
      </trkpt>
      <trkpt lat="41.049684" lon="-6.750395">
        <ele>695.4</ele>
        <time>1970-01-01T01:26:08.000Z</time>
      </trkpt>
      <trkpt lat="41.049639" lon="-6.750378">
        <ele>695</ele>
        <time>1970-01-01T01:26:09.000Z</time>
      </trkpt>
      <trkpt lat="41.049597" lon="-6.750358">
        <ele>694.6</ele>
        <time>1970-01-01T01:26:10.000Z</time>
      </trkpt>
      <trkpt lat="41.04956" lon="-6.750325">
        <ele>694.2</ele>
        <time>1970-01-01T01:26:11.000Z</time>
      </trkpt>
      <trkpt lat="41.049527" lon="-6.750283">
        <ele>693.8</ele>
        <time>1970-01-01T01:26:12.000Z</time>
      </trkpt>
      <trkpt lat="41.0495" lon="-6.750236">
        <ele>693.4</ele>
        <time>1970-01-01T01:26:13.000Z</time>
      </trkpt>
      <trkpt lat="41.049473" lon="-6.750193">
        <ele>693.1</ele>
        <time>1970-01-01T01:26:14.000Z</time>
      </trkpt>
      <trkpt lat="41.049446" lon="-6.750153">
        <ele>692.8</ele>
        <time>1970-01-01T01:26:15.000Z</time>
      </trkpt>
      <trkpt lat="41.04942" lon="-6.750117">
        <ele>692.6</ele>
        <time>1970-01-01T01:26:16.000Z</time>
      </trkpt>
      <trkpt lat="41.049399" lon="-6.750084">
        <ele>692.5</ele>
        <time>1970-01-01T01:26:17.000Z</time>
      </trkpt>
      <trkpt lat="41.049388" lon="-6.750056">
        <ele>692.4</ele>
        <time>1970-01-01T01:26:18.000Z</time>
      </trkpt>
      <trkpt lat="41.049386" lon="-6.750033">
        <ele>692.3</ele>
        <time>1970-01-01T01:26:19.000Z</time>
      </trkpt>
      <trkpt lat="41.049384" lon="-6.750015">
        <ele>692.3</ele>
        <time>1970-01-01T01:26:20.000Z</time>
      </trkpt>
      <trkpt lat="41.049381" lon="-6.749998">
        <ele>692.3</ele>
        <time>1970-01-01T01:26:21.000Z</time>
      </trkpt>
      <trkpt lat="41.049374" lon="-6.749982">
        <ele>692.2</ele>
        <time>1970-01-01T01:26:22.000Z</time>
      </trkpt>
      <trkpt lat="41.049366" lon="-6.749968">
        <ele>692.2</ele>
        <time>1970-01-01T01:26:23.000Z</time>
      </trkpt>
      <trkpt lat="41.04936" lon="-6.749958">
        <ele>692.1</ele>
        <time>1970-01-01T01:26:24.000Z</time>
      </trkpt>
      <trkpt lat="41.049357" lon="-6.749951">
        <ele>692.1</ele>
        <time>1970-01-01T01:26:25.000Z</time>
      </trkpt>
      <trkpt lat="41.049356" lon="-6.749946">
        <ele>692.1</ele>
        <time>1970-01-01T01:26:26.000Z</time>
      </trkpt>
      <trkpt lat="41.049356" lon="-6.74994">
        <ele>692.1</ele>
        <time>1970-01-01T01:26:27.000Z</time>
      </trkpt>
      <trkpt lat="41.049357" lon="-6.749934">
        <ele>692.1</ele>
        <time>1970-01-01T01:26:28.000Z</time>
      </trkpt>
      <trkpt lat="41.049358" lon="-6.74993">
        <ele>692.1</ele>
        <time>1970-01-01T01:26:29.000Z</time>
      </trkpt>
      <trkpt lat="41.049359" lon="-6.749928">
        <ele>692.1</ele>
        <time>1970-01-01T01:26:30.000Z</time>
      </trkpt>
      <trkpt lat="41.049358" lon="-6.749926">
        <ele>692.1</ele>
        <time>1970-01-01T01:26:31.000Z</time>
      </trkpt>
      <trkpt lat="41.049355" lon="-6.749925">
        <ele>692</ele>
        <time>1970-01-01T01:26:32.000Z</time>
      </trkpt>
      <trkpt lat="41.048557" lon="-6.750079">
        <ele>682.2</ele>
        <time>1970-01-01T01:26:33.000Z</time>
      </trkpt>
      <trkpt lat="41.048566" lon="-6.75005">
        <ele>682</ele>
        <time>1970-01-01T01:26:34.000Z</time>
      </trkpt>
      <trkpt lat="41.048573" lon="-6.75002">
        <ele>681.7</ele>
        <time>1970-01-01T01:33:25.000Z</time>
      </trkpt>
      <trkpt lat="41.048577" lon="-6.749994">
        <ele>681.5</ele>
        <time>1970-01-01T01:33:26.000Z</time>
      </trkpt>
      <trkpt lat="41.048576" lon="-6.749973">
        <ele>681.4</ele>
        <time>1970-01-01T01:33:27.000Z</time>
      </trkpt>
      <trkpt lat="41.048574" lon="-6.749955">
        <ele>681.2</ele>
        <time>1970-01-01T01:33:28.000Z</time>
      </trkpt>
      <trkpt lat="41.048573" lon="-6.749939">
        <ele>680.9</ele>
        <time>1970-01-01T01:33:29.000Z</time>
      </trkpt>
      <trkpt lat="41.048576" lon="-6.749923">
        <ele>680.8</ele>
        <time>1970-01-01T01:33:30.000Z</time>
      </trkpt>
      <trkpt lat="41.04858" lon="-6.749907">
        <ele>681.4</ele>
        <time>1970-01-01T01:33:31.000Z</time>
      </trkpt>
      <trkpt lat="41.048584" lon="-6.749889">
        <ele>681</ele>
        <time>1970-01-01T01:33:32.000Z</time>
      </trkpt>
      <trkpt lat="41.048585" lon="-6.749866">
        <ele>681</ele>
        <time>1970-01-01T01:33:33.000Z</time>
      </trkpt>
      <trkpt lat="41.048585" lon="-6.749839">
        <ele>680.5</ele>
        <time>1970-01-01T01:33:34.000Z</time>
      </trkpt>
      <trkpt lat="41.048582" lon="-6.74981">
        <ele>680</ele>
        <time>1970-01-01T01:33:35.000Z</time>
      </trkpt>
      <trkpt lat="41.04858" lon="-6.74978">
        <ele>679.9</ele>
        <time>1970-01-01T01:33:36.000Z</time>
      </trkpt>
      <trkpt lat="41.04858" lon="-6.749754">
        <ele>679.3</ele>
        <time>1970-01-01T01:33:37.000Z</time>
      </trkpt>
      <trkpt lat="41.048583" lon="-6.749729">
        <ele>679.3</ele>
        <time>1970-01-01T01:33:38.000Z</time>
      </trkpt>
      <trkpt lat="41.04859" lon="-6.7497">
        <ele>678.7</ele>
        <time>1970-01-01T01:33:39.000Z</time>
      </trkpt>
      <trkpt lat="41.0486" lon="-6.749669">
        <ele>678</ele>
        <time>1970-01-01T01:33:40.000Z</time>
      </trkpt>
      <trkpt lat="41.048611" lon="-6.749633">
        <ele>677.3</ele>
        <time>1970-01-01T01:33:41.000Z</time>
      </trkpt>
      <trkpt lat="41.048622" lon="-6.749601">
        <ele>677.8</ele>
        <time>1970-01-01T01:33:42.000Z</time>
      </trkpt>
      <trkpt lat="41.048635" lon="-6.749568">
        <ele>677.1</ele>
        <time>1970-01-01T01:33:43.000Z</time>
      </trkpt>
      <trkpt lat="41.048655" lon="-6.749536">
        <ele>677</ele>
        <time>1970-01-01T01:33:44.000Z</time>
      </trkpt>
      <trkpt lat="41.048683" lon="-6.749504">
        <ele>676.8</ele>
        <time>1970-01-01T01:33:45.000Z</time>
      </trkpt>
      <trkpt lat="41.048714" lon="-6.749474">
        <ele>677.3</ele>
        <time>1970-01-01T01:33:46.000Z</time>
      </trkpt>
      <trkpt lat="41.048743" lon="-6.749441">
        <ele>677</ele>
        <time>1970-01-01T01:33:47.000Z</time>
      </trkpt>
      <trkpt lat="41.048768" lon="-6.749403">
        <ele>676.2</ele>
        <time>1970-01-01T01:33:48.000Z</time>
      </trkpt>
      <trkpt lat="41.048795" lon="-6.749359">
        <ele>675.7</ele>
        <time>1970-01-01T01:33:49.000Z</time>
      </trkpt>
      <trkpt lat="41.048826" lon="-6.749311">
        <ele>675.2</ele>
        <time>1970-01-01T01:33:50.000Z</time>
      </trkpt>
      <trkpt lat="41.048858" lon="-6.749265">
        <ele>674.6</ele>
        <time>1970-01-01T01:33:51.000Z</time>
      </trkpt>
      <trkpt lat="41.048893" lon="-6.749224">
        <ele>673.9</ele>
        <time>1970-01-01T01:33:52.000Z</time>
      </trkpt>
      <trkpt lat="41.048929" lon="-6.749186">
        <ele>673.2</ele>
        <time>1970-01-01T01:33:53.000Z</time>
      </trkpt>
      <trkpt lat="41.048966" lon="-6.749146">
        <ele>672.4</ele>
        <time>1970-01-01T01:33:54.000Z</time>
      </trkpt>
      <trkpt lat="41.049001" lon="-6.749107">
        <ele>671.8</ele>
        <time>1970-01-01T01:33:55.000Z</time>
      </trkpt>
      <trkpt lat="41.049037" lon="-6.749068">
        <ele>670.9</ele>
        <time>1970-01-01T01:33:56.000Z</time>
      </trkpt>
      <trkpt lat="41.049077" lon="-6.749031">
        <ele>670</ele>
        <time>1970-01-01T01:33:57.000Z</time>
      </trkpt>
      <trkpt lat="41.049119" lon="-6.748996">
        <ele>670.1</ele>
        <time>1970-01-01T01:33:58.000Z</time>
      </trkpt>
      <trkpt lat="41.049159" lon="-6.748964">
        <ele>669.1</ele>
        <time>1970-01-01T01:33:59.000Z</time>
      </trkpt>
      <trkpt lat="41.049194" lon="-6.748932">
        <ele>668.1</ele>
        <time>1970-01-01T01:34:00.000Z</time>
      </trkpt>
      <trkpt lat="41.049224" lon="-6.748902">
        <ele>667</ele>
        <time>1970-01-01T01:34:01.000Z</time>
      </trkpt>
      <trkpt lat="41.049251" lon="-6.748873">
        <ele>667</ele>
        <time>1970-01-01T01:34:02.000Z</time>
      </trkpt>
      <trkpt lat="41.049274" lon="-6.748846">
        <ele>665.7</ele>
        <time>1970-01-01T01:34:03.000Z</time>
      </trkpt>
      <trkpt lat="41.049296" lon="-6.74882">
        <ele>664.4</ele>
        <time>1970-01-01T01:34:04.000Z</time>
      </trkpt>
      <trkpt lat="41.049318" lon="-6.748793">
        <ele>664.4</ele>
        <time>1970-01-01T01:34:05.000Z</time>
      </trkpt>
      <trkpt lat="41.049338" lon="-6.748768">
        <ele>663.1</ele>
        <time>1970-01-01T01:34:06.000Z</time>
      </trkpt>
      <trkpt lat="41.049357" lon="-6.748742">
        <ele>662.9</ele>
        <time>1970-01-01T01:34:07.000Z</time>
      </trkpt>
      <trkpt lat="41.049379" lon="-6.748715">
        <ele>661.7</ele>
        <time>1970-01-01T01:34:08.000Z</time>
      </trkpt>
      <trkpt lat="41.049401" lon="-6.748687">
        <ele>660.3</ele>
        <time>1970-01-01T01:34:09.000Z</time>
      </trkpt>
      <trkpt lat="41.049422" lon="-6.748661">
        <ele>660.1</ele>
        <time>1970-01-01T01:34:10.000Z</time>
      </trkpt>
      <trkpt lat="41.049441" lon="-6.748637">
        <ele>658.9</ele>
        <time>1970-01-01T01:34:11.000Z</time>
      </trkpt>
      <trkpt lat="41.049462" lon="-6.748611">
        <ele>658.6</ele>
        <time>1970-01-01T01:34:12.000Z</time>
      </trkpt>
      <trkpt lat="41.049483" lon="-6.748583">
        <ele>657.4</ele>
        <time>1970-01-01T01:34:13.000Z</time>
      </trkpt>
      <trkpt lat="41.049506" lon="-6.748554">
        <ele>656</ele>
        <time>1970-01-01T01:34:14.000Z</time>
      </trkpt>
      <trkpt lat="41.049529" lon="-6.748527">
        <ele>655.8</ele>
        <time>1970-01-01T01:34:15.000Z</time>
      </trkpt>
      <trkpt lat="41.04955" lon="-6.748503">
        <ele>654.6</ele>
        <time>1970-01-01T01:34:16.000Z</time>
      </trkpt>
      <trkpt lat="41.04957" lon="-6.748478">
        <ele>653.3</ele>
        <time>1970-01-01T01:34:17.000Z</time>
      </trkpt>
      <trkpt lat="41.049587" lon="-6.748451">
        <ele>653.1</ele>
        <time>1970-01-01T01:34:18.000Z</time>
      </trkpt>
      <trkpt lat="41.0496" lon="-6.748419">
        <ele>651.9</ele>
        <time>1970-01-01T01:34:19.000Z</time>
      </trkpt>
      <trkpt lat="41.049612" lon="-6.748382">
        <ele>650.6</ele>
        <time>1970-01-01T01:34:20.000Z</time>
      </trkpt>
      <trkpt lat="41.049626" lon="-6.748344">
        <ele>649.2</ele>
        <time>1970-01-01T01:34:21.000Z</time>
      </trkpt>
      <trkpt lat="41.049641" lon="-6.748306">
        <ele>648</ele>
        <time>1970-01-01T01:34:22.000Z</time>
      </trkpt>
      <trkpt lat="41.049655" lon="-6.748271">
        <ele>647.8</ele>
        <time>1970-01-01T01:34:23.000Z</time>
      </trkpt>
      <trkpt lat="41.04967" lon="-6.748238">
        <ele>646.6</ele>
        <time>1970-01-01T01:34:24.000Z</time>
      </trkpt>
      <trkpt lat="41.049686" lon="-6.748207">
        <ele>645.4</ele>
        <time>1970-01-01T01:34:25.000Z</time>
      </trkpt>
      <trkpt lat="41.049701" lon="-6.748178">
        <ele>644.4</ele>
        <time>1970-01-01T01:34:26.000Z</time>
      </trkpt>
      <trkpt lat="41.049716" lon="-6.748149">
        <ele>644.2</ele>
        <time>1970-01-01T01:34:27.000Z</time>
      </trkpt>
      <trkpt lat="41.04973" lon="-6.748118">
        <ele>643.2</ele>
        <time>1970-01-01T01:34:28.000Z</time>
      </trkpt>
      <trkpt lat="41.049745" lon="-6.748081">
        <ele>642</ele>
        <time>1970-01-01T01:34:29.000Z</time>
      </trkpt>
      <trkpt lat="41.049764" lon="-6.74804">
        <ele>641</ele>
        <time>1970-01-01T01:34:30.000Z</time>
      </trkpt>
      <trkpt lat="41.049784" lon="-6.747999">
        <ele>639.8</ele>
        <time>1970-01-01T01:34:31.000Z</time>
      </trkpt>
      <trkpt lat="41.049802" lon="-6.747958">
        <ele>638.8</ele>
        <time>1970-01-01T01:34:32.000Z</time>
      </trkpt>
      <trkpt lat="41.049818" lon="-6.747918">
        <ele>637.7</ele>
        <time>1970-01-01T01:34:33.000Z</time>
      </trkpt>
      <trkpt lat="41.049832" lon="-6.747878">
        <ele>636.7</ele>
        <time>1970-01-01T01:34:34.000Z</time>
      </trkpt>
      <trkpt lat="41.049844" lon="-6.747842">
        <ele>636.6</ele>
        <time>1970-01-01T01:34:35.000Z</time>
      </trkpt>
      <trkpt lat="41.049852" lon="-6.747814">
        <ele>635.7</ele>
        <time>1970-01-01T01:34:36.000Z</time>
      </trkpt>
      <trkpt lat="41.04986" lon="-6.747794">
        <ele>634.9</ele>
        <time>1970-01-01T01:34:37.000Z</time>
      </trkpt>
      <trkpt lat="41.049866" lon="-6.747779">
        <ele>634.8</ele>
        <time>1970-01-01T01:34:38.000Z</time>
      </trkpt>
      <trkpt lat="41.049868" lon="-6.747765">
        <ele>634.8</ele>
        <time>1970-01-01T01:34:39.000Z</time>
      </trkpt>
      <trkpt lat="41.049867" lon="-6.747757">
        <ele>634.8</ele>
        <time>1970-01-01T01:34:40.000Z</time>
      </trkpt>
      <trkpt lat="41.049862" lon="-6.747751">
        <ele>634</ele>
        <time>1970-01-01T01:34:41.000Z</time>
      </trkpt>
      <trkpt lat="41.049855" lon="-6.747748">
        <ele>634</ele>
        <time>1970-01-01T01:34:42.000Z</time>
      </trkpt>
      <trkpt lat="41.049845" lon="-6.747746">
        <ele>633.9</ele>
        <time>1970-01-01T01:34:43.000Z</time>
      </trkpt>
      <trkpt lat="41.049831" lon="-6.747744">
        <ele>634</ele>
        <time>1970-01-01T01:34:44.000Z</time>
      </trkpt>
      <trkpt lat="41.049812" lon="-6.747739">
        <ele>634</ele>
        <time>1970-01-01T01:34:45.000Z</time>
      </trkpt>
      <trkpt lat="41.049793" lon="-6.747727">
        <ele>634.1</ele>
        <time>1970-01-01T01:34:46.000Z</time>
      </trkpt>
      <trkpt lat="41.049781" lon="-6.747709">
        <ele>634</ele>
        <time>1970-01-01T01:34:47.000Z</time>
      </trkpt>
      <trkpt lat="41.04978" lon="-6.747686">
        <ele>633.3</ele>
        <time>1970-01-01T01:34:48.000Z</time>
      </trkpt>
      <trkpt lat="41.049789" lon="-6.747659">
        <ele>632.6</ele>
        <time>1970-01-01T01:34:49.000Z</time>
      </trkpt>
      <trkpt lat="41.049804" lon="-6.747631">
        <ele>632.6</ele>
        <time>1970-01-01T01:34:50.000Z</time>
      </trkpt>
      <trkpt lat="41.049819" lon="-6.747605">
        <ele>631.8</ele>
        <time>1970-01-01T01:34:51.000Z</time>
      </trkpt>
      <trkpt lat="41.049833" lon="-6.747586">
        <ele>631.8</ele>
        <time>1970-01-01T01:34:52.000Z</time>
      </trkpt>
      <trkpt lat="41.049837" lon="-6.747574">
        <ele>631.9</ele>
        <time>1970-01-01T01:34:53.000Z</time>
      </trkpt>
      <trkpt lat="41.049837" lon="-6.747569">
        <ele>631.9</ele>
        <time>1970-01-01T01:34:54.000Z</time>
      </trkpt>
      <trkpt lat="41.049834" lon="-6.74757">
        <ele>632</ele>
        <time>1970-01-01T01:34:55.000Z</time>
      </trkpt>
      <trkpt lat="41.049831" lon="-6.747569">
        <ele>632</ele>
        <time>1970-01-01T01:34:56.000Z</time>
      </trkpt>
      <trkpt lat="41.049831" lon="-6.747568">
        <ele>632</ele>
        <time>1970-01-01T01:34:57.000Z</time>
      </trkpt>
      <trkpt lat="41.049854" lon="-6.74756">
        <ele>632.2</ele>
        <time>1970-01-01T01:34:58.000Z</time>
      </trkpt>
      <trkpt lat="41.049859" lon="-6.747569">
        <ele>632.2</ele>
        <time>1970-01-01T01:34:59.000Z</time>
      </trkpt>
      <trkpt lat="41.049861" lon="-6.747581">
        <ele>632.3</ele>
        <time>1970-01-01T01:36:56.000Z</time>
      </trkpt>
      <trkpt lat="41.049858" lon="-6.747594">
        <ele>632.4</ele>
        <time>1970-01-01T01:36:57.000Z</time>
      </trkpt>
      <trkpt lat="41.049851" lon="-6.747609">
        <ele>632.5</ele>
        <time>1970-01-01T01:36:58.000Z</time>
      </trkpt>
      <trkpt lat="41.049841" lon="-6.747622">
        <ele>632.6</ele>
        <time>1970-01-01T01:36:59.000Z</time>
      </trkpt>
      <trkpt lat="41.049829" lon="-6.747636">
        <ele>632.7</ele>
        <time>1970-01-01T01:37:00.000Z</time>
      </trkpt>
      <trkpt lat="41.049815" lon="-6.74765">
        <ele>632.9</ele>
        <time>1970-01-01T01:37:01.000Z</time>
      </trkpt>
      <trkpt lat="41.049799" lon="-6.747664">
        <ele>633</ele>
        <time>1970-01-01T01:37:02.000Z</time>
      </trkpt>
      <trkpt lat="41.049783" lon="-6.747676">
        <ele>633.2</ele>
        <time>1970-01-01T01:37:03.000Z</time>
      </trkpt>
      <trkpt lat="41.049767" lon="-6.747687">
        <ele>633.3</ele>
        <time>1970-01-01T01:37:04.000Z</time>
      </trkpt>
      <trkpt lat="41.049752" lon="-6.747696">
        <ele>633.5</ele>
        <time>1970-01-01T01:37:05.000Z</time>
      </trkpt>
      <trkpt lat="41.049737" lon="-6.747704">
        <ele>633.7</ele>
        <time>1970-01-01T01:37:06.000Z</time>
      </trkpt>
      <trkpt lat="41.049722" lon="-6.747714">
        <ele>633.8</ele>
        <time>1970-01-01T01:37:07.000Z</time>
      </trkpt>
      <trkpt lat="41.049706" lon="-6.747725">
        <ele>634</ele>
        <time>1970-01-01T01:37:08.000Z</time>
      </trkpt>
      <trkpt lat="41.049691" lon="-6.747738">
        <ele>634.2</ele>
        <time>1970-01-01T01:37:09.000Z</time>
      </trkpt>
      <trkpt lat="41.049674" lon="-6.747754">
        <ele>634.4</ele>
        <time>1970-01-01T01:37:10.000Z</time>
      </trkpt>
      <trkpt lat="41.049657" lon="-6.74777">
        <ele>634.6</ele>
        <time>1970-01-01T01:37:11.000Z</time>
      </trkpt>
      <trkpt lat="41.049641" lon="-6.747786">
        <ele>634.9</ele>
        <time>1970-01-01T01:37:12.000Z</time>
      </trkpt>
      <trkpt lat="41.049625" lon="-6.747802">
        <ele>635.1</ele>
        <time>1970-01-01T01:37:13.000Z</time>
      </trkpt>
      <trkpt lat="41.04961" lon="-6.747816">
        <ele>635.3</ele>
        <time>1970-01-01T01:37:14.000Z</time>
      </trkpt>
      <trkpt lat="41.049596" lon="-6.74783">
        <ele>635.5</ele>
        <time>1970-01-01T01:37:15.000Z</time>
      </trkpt>
      <trkpt lat="41.049581" lon="-6.747841">
        <ele>635.7</ele>
        <time>1970-01-01T01:37:16.000Z</time>
      </trkpt>
      <trkpt lat="41.049565" lon="-6.747852">
        <ele>635.9</ele>
        <time>1970-01-01T01:37:17.000Z</time>
      </trkpt>
      <trkpt lat="41.049549" lon="-6.747863">
        <ele>636.1</ele>
        <time>1970-01-01T01:37:18.000Z</time>
      </trkpt>
      <trkpt lat="41.049533" lon="-6.747875">
        <ele>636.3</ele>
        <time>1970-01-01T01:37:19.000Z</time>
      </trkpt>
      <trkpt lat="41.049517" lon="-6.747888">
        <ele>636.5</ele>
        <time>1970-01-01T01:37:20.000Z</time>
      </trkpt>
      <trkpt lat="41.049503" lon="-6.747901">
        <ele>636.7</ele>
        <time>1970-01-01T01:37:21.000Z</time>
      </trkpt>
      <trkpt lat="41.049488" lon="-6.747913">
        <ele>636.9</ele>
        <time>1970-01-01T01:37:22.000Z</time>
      </trkpt>
      <trkpt lat="41.049472" lon="-6.747925">
        <ele>637.2</ele>
        <time>1970-01-01T01:37:23.000Z</time>
      </trkpt>
      <trkpt lat="41.049457" lon="-6.747936">
        <ele>637.4</ele>
        <time>1970-01-01T01:37:24.000Z</time>
      </trkpt>
      <trkpt lat="41.049442" lon="-6.747947">
        <ele>637.6</ele>
        <time>1970-01-01T01:37:25.000Z</time>
      </trkpt>
      <trkpt lat="41.049426" lon="-6.747957">
        <ele>637.8</ele>
        <time>1970-01-01T01:37:26.000Z</time>
      </trkpt>
      <trkpt lat="41.049411" lon="-6.747969">
        <ele>638</ele>
        <time>1970-01-01T01:37:27.000Z</time>
      </trkpt>
      <trkpt lat="41.049397" lon="-6.747981">
        <ele>638.2</ele>
        <time>1970-01-01T01:37:28.000Z</time>
      </trkpt>
      <trkpt lat="41.049383" lon="-6.747995">
        <ele>638.4</ele>
        <time>1970-01-01T01:37:29.000Z</time>
      </trkpt>
      <trkpt lat="41.049369" lon="-6.748008">
        <ele>638.6</ele>
        <time>1970-01-01T01:37:30.000Z</time>
      </trkpt>
      <trkpt lat="41.049355" lon="-6.748022">
        <ele>638.8</ele>
        <time>1970-01-01T01:37:31.000Z</time>
      </trkpt>
      <trkpt lat="41.04934" lon="-6.748034">
        <ele>639</ele>
        <time>1970-01-01T01:37:32.000Z</time>
      </trkpt>
      <trkpt lat="41.049324" lon="-6.748045">
        <ele>639.2</ele>
        <time>1970-01-01T01:37:33.000Z</time>
      </trkpt>
      <trkpt lat="41.049308" lon="-6.748056">
        <ele>639.4</ele>
        <time>1970-01-01T01:37:34.000Z</time>
      </trkpt>
      <trkpt lat="41.049291" lon="-6.748067">
        <ele>639.6</ele>
        <time>1970-01-01T01:37:35.000Z</time>
      </trkpt>
      <trkpt lat="41.049275" lon="-6.748078">
        <ele>639.8</ele>
        <time>1970-01-01T01:37:36.000Z</time>
      </trkpt>
      <trkpt lat="41.049258" lon="-6.748089">
        <ele>639.9</ele>
        <time>1970-01-01T01:37:37.000Z</time>
      </trkpt>
      <trkpt lat="41.049242" lon="-6.748101">
        <ele>640.1</ele>
        <time>1970-01-01T01:37:38.000Z</time>
      </trkpt>
      <trkpt lat="41.049226" lon="-6.748113">
        <ele>640.3</ele>
        <time>1970-01-01T01:37:39.000Z</time>
      </trkpt>
      <trkpt lat="41.049211" lon="-6.748126">
        <ele>640.5</ele>
        <time>1970-01-01T01:37:40.000Z</time>
      </trkpt>
      <trkpt lat="41.049194" lon="-6.748139">
        <ele>640.7</ele>
        <time>1970-01-01T01:37:41.000Z</time>
      </trkpt>
      <trkpt lat="41.049178" lon="-6.748152">
        <ele>640.9</ele>
        <time>1970-01-01T01:37:42.000Z</time>
      </trkpt>
      <trkpt lat="41.049161" lon="-6.748164">
        <ele>641.1</ele>
        <time>1970-01-01T01:37:43.000Z</time>
      </trkpt>
      <trkpt lat="41.049143" lon="-6.748177">
        <ele>641.3</ele>
        <time>1970-01-01T01:37:44.000Z</time>
      </trkpt>
      <trkpt lat="41.049126" lon="-6.748191">
        <ele>641.5</ele>
        <time>1970-01-01T01:37:45.000Z</time>
      </trkpt>
      <trkpt lat="41.049108" lon="-6.748205">
        <ele>641.7</ele>
        <time>1970-01-01T01:37:46.000Z</time>
      </trkpt>
      <trkpt lat="41.04909" lon="-6.748217">
        <ele>641.9</ele>
        <time>1970-01-01T01:37:47.000Z</time>
      </trkpt>
      <trkpt lat="41.049072" lon="-6.748229">
        <ele>642.2</ele>
        <time>1970-01-01T01:37:48.000Z</time>
      </trkpt>
      <trkpt lat="41.049054" lon="-6.748241">
        <ele>642.4</ele>
        <time>1970-01-01T01:37:49.000Z</time>
      </trkpt>
      <trkpt lat="41.049034" lon="-6.748254">
        <ele>642.6</ele>
        <time>1970-01-01T01:37:50.000Z</time>
      </trkpt>
      <trkpt lat="41.049016" lon="-6.748268">
        <ele>642.8</ele>
        <time>1970-01-01T01:37:51.000Z</time>
      </trkpt>
      <trkpt lat="41.048997" lon="-6.748283">
        <ele>643.1</ele>
        <time>1970-01-01T01:37:52.000Z</time>
      </trkpt>
      <trkpt lat="41.048978" lon="-6.748299">
        <ele>643.3</ele>
        <time>1970-01-01T01:37:53.000Z</time>
      </trkpt>
      <trkpt lat="41.048958" lon="-6.748313">
        <ele>643.6</ele>
        <time>1970-01-01T01:37:54.000Z</time>
      </trkpt>
      <trkpt lat="41.048938" lon="-6.748328">
        <ele>643.8</ele>
        <time>1970-01-01T01:37:55.000Z</time>
      </trkpt>
      <trkpt lat="41.048919" lon="-6.748341">
        <ele>644</ele>
        <time>1970-01-01T01:37:56.000Z</time>
      </trkpt>
      <trkpt lat="41.048901" lon="-6.748355">
        <ele>644.2</ele>
        <time>1970-01-01T01:37:57.000Z</time>
      </trkpt>
      <trkpt lat="41.048883" lon="-6.748368">
        <ele>644.4</ele>
        <time>1970-01-01T01:37:58.000Z</time>
      </trkpt>
      <trkpt lat="41.048865" lon="-6.748382">
        <ele>644.5</ele>
        <time>1970-01-01T01:37:59.000Z</time>
      </trkpt>
      <trkpt lat="41.048847" lon="-6.748398">
        <ele>644.7</ele>
        <time>1970-01-01T01:38:00.000Z</time>
      </trkpt>
      <trkpt lat="41.048828" lon="-6.748413">
        <ele>644.9</ele>
        <time>1970-01-01T01:38:01.000Z</time>
      </trkpt>
      <trkpt lat="41.048809" lon="-6.748428">
        <ele>645</ele>
        <time>1970-01-01T01:38:02.000Z</time>
      </trkpt>
      <trkpt lat="41.048791" lon="-6.748444">
        <ele>645.2</ele>
        <time>1970-01-01T01:38:03.000Z</time>
      </trkpt>
      <trkpt lat="41.048772" lon="-6.748459">
        <ele>645.4</ele>
        <time>1970-01-01T01:38:04.000Z</time>
      </trkpt>
      <trkpt lat="41.048753" lon="-6.748474">
        <ele>645.6</ele>
        <time>1970-01-01T01:38:05.000Z</time>
      </trkpt>
      <trkpt lat="41.048734" lon="-6.748488">
        <ele>645.8</ele>
        <time>1970-01-01T01:38:06.000Z</time>
      </trkpt>
      <trkpt lat="41.048714" lon="-6.748501">
        <ele>646</ele>
        <time>1970-01-01T01:38:07.000Z</time>
      </trkpt>
      <trkpt lat="41.048694" lon="-6.748515">
        <ele>646.2</ele>
        <time>1970-01-01T01:38:08.000Z</time>
      </trkpt>
      <trkpt lat="41.048673" lon="-6.748529">
        <ele>646.4</ele>
        <time>1970-01-01T01:38:09.000Z</time>
      </trkpt>
      <trkpt lat="41.048653" lon="-6.748544">
        <ele>646.7</ele>
        <time>1970-01-01T01:38:10.000Z</time>
      </trkpt>
      <trkpt lat="41.048632" lon="-6.74856">
        <ele>646.9</ele>
        <time>1970-01-01T01:38:11.000Z</time>
      </trkpt>
      <trkpt lat="41.048613" lon="-6.748576">
        <ele>647.1</ele>
        <time>1970-01-01T01:38:12.000Z</time>
      </trkpt>
      <trkpt lat="41.048595" lon="-6.748593">
        <ele>647.4</ele>
        <time>1970-01-01T01:38:13.000Z</time>
      </trkpt>
      <trkpt lat="41.048578" lon="-6.748609">
        <ele>647.6</ele>
        <time>1970-01-01T01:38:14.000Z</time>
      </trkpt>
      <trkpt lat="41.048565" lon="-6.748625">
        <ele>647.8</ele>
        <time>1970-01-01T01:38:15.000Z</time>
      </trkpt>
      <trkpt lat="41.048553" lon="-6.748638">
        <ele>647.9</ele>
        <time>1970-01-01T01:38:16.000Z</time>
      </trkpt>
      <trkpt lat="41.048539" lon="-6.748652">
        <ele>648.1</ele>
        <time>1970-01-01T01:38:17.000Z</time>
      </trkpt>
      <trkpt lat="41.048524" lon="-6.748667">
        <ele>648.3</ele>
        <time>1970-01-01T01:38:18.000Z</time>
      </trkpt>
      <trkpt lat="41.048505" lon="-6.748683">
        <ele>648.5</ele>
        <time>1970-01-01T01:38:19.000Z</time>
      </trkpt>
      <trkpt lat="41.048487" lon="-6.748699">
        <ele>648.8</ele>
        <time>1970-01-01T01:38:20.000Z</time>
      </trkpt>
      <trkpt lat="41.048469" lon="-6.748714">
        <ele>649</ele>
        <time>1970-01-01T01:38:21.000Z</time>
      </trkpt>
      <trkpt lat="41.04845" lon="-6.748731">
        <ele>649.2</ele>
        <time>1970-01-01T01:38:22.000Z</time>
      </trkpt>
      <trkpt lat="41.04843" lon="-6.748749">
        <ele>649.4</ele>
        <time>1970-01-01T01:38:23.000Z</time>
      </trkpt>
      <trkpt lat="41.048411" lon="-6.748769">
        <ele>649.7</ele>
        <time>1970-01-01T01:38:24.000Z</time>
      </trkpt>
      <trkpt lat="41.048392" lon="-6.748789">
        <ele>649.9</ele>
        <time>1970-01-01T01:38:25.000Z</time>
      </trkpt>
      <trkpt lat="41.048373" lon="-6.74881">
        <ele>650.1</ele>
        <time>1970-01-01T01:38:26.000Z</time>
      </trkpt>
      <trkpt lat="41.048354" lon="-6.748832">
        <ele>650.3</ele>
        <time>1970-01-01T01:38:27.000Z</time>
      </trkpt>
      <trkpt lat="41.048335" lon="-6.748853">
        <ele>650.5</ele>
        <time>1970-01-01T01:38:28.000Z</time>
      </trkpt>
      <trkpt lat="41.048314" lon="-6.748875">
        <ele>650.6</ele>
        <time>1970-01-01T01:38:29.000Z</time>
      </trkpt>
      <trkpt lat="41.048294" lon="-6.748897">
        <ele>650.8</ele>
        <time>1970-01-01T01:38:30.000Z</time>
      </trkpt>
      <trkpt lat="41.048275" lon="-6.74892">
        <ele>650.9</ele>
        <time>1970-01-01T01:38:31.000Z</time>
      </trkpt>
      <trkpt lat="41.048256" lon="-6.748943">
        <ele>651.1</ele>
        <time>1970-01-01T01:38:32.000Z</time>
      </trkpt>
      <trkpt lat="41.048237" lon="-6.748967">
        <ele>651.2</ele>
        <time>1970-01-01T01:38:33.000Z</time>
      </trkpt>
      <trkpt lat="41.048218" lon="-6.748992">
        <ele>651.3</ele>
        <time>1970-01-01T01:38:34.000Z</time>
      </trkpt>
      <trkpt lat="41.048199" lon="-6.749019">
        <ele>651.4</ele>
        <time>1970-01-01T01:38:35.000Z</time>
      </trkpt>
      <trkpt lat="41.04818" lon="-6.749046">
        <ele>651.5</ele>
        <time>1970-01-01T01:38:36.000Z</time>
      </trkpt>
      <trkpt lat="41.048162" lon="-6.749073">
        <ele>651.6</ele>
        <time>1970-01-01T01:38:37.000Z</time>
      </trkpt>
      <trkpt lat="41.048144" lon="-6.749101">
        <ele>651.8</ele>
        <time>1970-01-01T01:38:38.000Z</time>
      </trkpt>
      <trkpt lat="41.048127" lon="-6.749127">
        <ele>651.9</ele>
        <time>1970-01-01T01:38:39.000Z</time>
      </trkpt>
      <trkpt lat="41.04811" lon="-6.749153">
        <ele>652</ele>
        <time>1970-01-01T01:38:40.000Z</time>
      </trkpt>
      <trkpt lat="41.048093" lon="-6.749179">
        <ele>652.2</ele>
        <time>1970-01-01T01:38:41.000Z</time>
      </trkpt>
      <trkpt lat="41.048076" lon="-6.749207">
        <ele>652.4</ele>
        <time>1970-01-01T01:38:42.000Z</time>
      </trkpt>
      <trkpt lat="41.04806" lon="-6.749237">
        <ele>652.5</ele>
        <time>1970-01-01T01:38:43.000Z</time>
      </trkpt>
      <trkpt lat="41.048045" lon="-6.749268">
        <ele>652.7</ele>
        <time>1970-01-01T01:38:44.000Z</time>
      </trkpt>
      <trkpt lat="41.04803" lon="-6.749299">
        <ele>652.9</ele>
        <time>1970-01-01T01:38:45.000Z</time>
      </trkpt>
      <trkpt lat="41.048015" lon="-6.74933">
        <ele>653.1</ele>
        <time>1970-01-01T01:38:46.000Z</time>
      </trkpt>
      <trkpt lat="41.048001" lon="-6.749361">
        <ele>653.3</ele>
        <time>1970-01-01T01:38:47.000Z</time>
      </trkpt>
      <trkpt lat="41.047988" lon="-6.749392">
        <ele>653.5</ele>
        <time>1970-01-01T01:38:48.000Z</time>
      </trkpt>
      <trkpt lat="41.047975" lon="-6.749422">
        <ele>653.7</ele>
        <time>1970-01-01T01:38:49.000Z</time>
      </trkpt>
      <trkpt lat="41.047962" lon="-6.749452">
        <ele>653.9</ele>
        <time>1970-01-01T01:38:50.000Z</time>
      </trkpt>
      <trkpt lat="41.047949" lon="-6.749481">
        <ele>654.1</ele>
        <time>1970-01-01T01:38:51.000Z</time>
      </trkpt>
      <trkpt lat="41.047936" lon="-6.749508">
        <ele>654.3</ele>
        <time>1970-01-01T01:38:52.000Z</time>
      </trkpt>
      <trkpt lat="41.047922" lon="-6.749535">
        <ele>654.5</ele>
        <time>1970-01-01T01:38:53.000Z</time>
      </trkpt>
      <trkpt lat="41.047907" lon="-6.749563">
        <ele>654.7</ele>
        <time>1970-01-01T01:38:54.000Z</time>
      </trkpt>
      <trkpt lat="41.047893" lon="-6.749593">
        <ele>654.9</ele>
        <time>1970-01-01T01:38:55.000Z</time>
      </trkpt>
      <trkpt lat="41.047879" lon="-6.749623">
        <ele>655.2</ele>
        <time>1970-01-01T01:38:56.000Z</time>
      </trkpt>
      <trkpt lat="41.047866" lon="-6.749653">
        <ele>655.4</ele>
        <time>1970-01-01T01:38:57.000Z</time>
      </trkpt>
      <trkpt lat="41.047854" lon="-6.749682">
        <ele>655.6</ele>
        <time>1970-01-01T01:38:58.000Z</time>
      </trkpt>
      <trkpt lat="41.047843" lon="-6.749712">
        <ele>655.8</ele>
        <time>1970-01-01T01:38:59.000Z</time>
      </trkpt>
      <trkpt lat="41.047832" lon="-6.749742">
        <ele>655.9</ele>
        <time>1970-01-01T01:39:00.000Z</time>
      </trkpt>
      <trkpt lat="41.04782" lon="-6.749773">
        <ele>656.1</ele>
        <time>1970-01-01T01:39:01.000Z</time>
      </trkpt>
      <trkpt lat="41.047809" lon="-6.749803">
        <ele>656.2</ele>
        <time>1970-01-01T01:39:02.000Z</time>
      </trkpt>
      <trkpt lat="41.047798" lon="-6.749834">
        <ele>656.4</ele>
        <time>1970-01-01T01:39:03.000Z</time>
      </trkpt>
      <trkpt lat="41.047787" lon="-6.749863">
        <ele>656.6</ele>
        <time>1970-01-01T01:39:04.000Z</time>
      </trkpt>
      <trkpt lat="41.047777" lon="-6.749893">
        <ele>656.7</ele>
        <time>1970-01-01T01:39:05.000Z</time>
      </trkpt>
      <trkpt lat="41.047768" lon="-6.749923">
        <ele>656.8</ele>
        <time>1970-01-01T01:39:06.000Z</time>
      </trkpt>
      <trkpt lat="41.047759" lon="-6.749952">
        <ele>657</ele>
        <time>1970-01-01T01:39:07.000Z</time>
      </trkpt>
      <trkpt lat="41.047751" lon="-6.749982">
        <ele>657.2</ele>
        <time>1970-01-01T01:39:08.000Z</time>
      </trkpt>
      <trkpt lat="41.047744" lon="-6.750013">
        <ele>657.3</ele>
        <time>1970-01-01T01:39:09.000Z</time>
      </trkpt>
      <trkpt lat="41.047735" lon="-6.750043">
        <ele>657.5</ele>
        <time>1970-01-01T01:39:10.000Z</time>
      </trkpt>
      <trkpt lat="41.047726" lon="-6.750073">
        <ele>657.7</ele>
        <time>1970-01-01T01:39:11.000Z</time>
      </trkpt>
      <trkpt lat="41.047717" lon="-6.750102">
        <ele>657.9</ele>
        <time>1970-01-01T01:39:12.000Z</time>
      </trkpt>
      <trkpt lat="41.047708" lon="-6.750133">
        <ele>658.1</ele>
        <time>1970-01-01T01:39:13.000Z</time>
      </trkpt>
      <trkpt lat="41.047701" lon="-6.750165">
        <ele>658.2</ele>
        <time>1970-01-01T01:39:14.000Z</time>
      </trkpt>
      <trkpt lat="41.047695" lon="-6.750198">
        <ele>658.4</ele>
        <time>1970-01-01T01:39:15.000Z</time>
      </trkpt>
      <trkpt lat="41.047689" lon="-6.750231">
        <ele>658.6</ele>
        <time>1970-01-01T01:39:16.000Z</time>
      </trkpt>
      <trkpt lat="41.047683" lon="-6.750264">
        <ele>658.8</ele>
        <time>1970-01-01T01:39:17.000Z</time>
      </trkpt>
      <trkpt lat="41.047676" lon="-6.750296">
        <ele>659</ele>
        <time>1970-01-01T01:39:18.000Z</time>
      </trkpt>
      <trkpt lat="41.047669" lon="-6.750329">
        <ele>659.2</ele>
        <time>1970-01-01T01:39:19.000Z</time>
      </trkpt>
      <trkpt lat="41.04766" lon="-6.750361">
        <ele>659.4</ele>
        <time>1970-01-01T01:39:20.000Z</time>
      </trkpt>
      <trkpt lat="41.047652" lon="-6.750392">
        <ele>659.7</ele>
        <time>1970-01-01T01:39:21.000Z</time>
      </trkpt>
      <trkpt lat="41.047643" lon="-6.75042">
        <ele>659.9</ele>
        <time>1970-01-01T01:39:22.000Z</time>
      </trkpt>
      <trkpt lat="41.047633" lon="-6.750447">
        <ele>660.1</ele>
        <time>1970-01-01T01:39:23.000Z</time>
      </trkpt>
      <trkpt lat="41.047623" lon="-6.750471">
        <ele>660.3</ele>
        <time>1970-01-01T01:39:24.000Z</time>
      </trkpt>
      <trkpt lat="41.047611" lon="-6.750491">
        <ele>660.5</ele>
        <time>1970-01-01T01:39:25.000Z</time>
      </trkpt>
      <trkpt lat="41.0476" lon="-6.750511">
        <ele>660.3</ele>
        <time>1970-01-01T01:39:26.000Z</time>
      </trkpt>
      <trkpt lat="41.047585" lon="-6.750532">
        <ele>660</ele>
        <time>1970-01-01T01:39:27.000Z</time>
      </trkpt>
      <trkpt lat="41.047567" lon="-6.750559">
        <ele>659.6</ele>
        <time>1970-01-01T01:39:28.000Z</time>
      </trkpt>
      <trkpt lat="41.047542" lon="-6.750593">
        <ele>659.2</ele>
        <time>1970-01-01T01:39:29.000Z</time>
      </trkpt>
      <trkpt lat="41.047512" lon="-6.750633">
        <ele>658.8</ele>
        <time>1970-01-01T01:39:30.000Z</time>
      </trkpt>
      <trkpt lat="41.047477" lon="-6.750681">
        <ele>658.6</ele>
        <time>1970-01-01T01:39:31.000Z</time>
      </trkpt>
      <trkpt lat="41.047442" lon="-6.750737">
        <ele>658.4</ele>
        <time>1970-01-01T01:39:32.000Z</time>
      </trkpt>
      <trkpt lat="41.04741" lon="-6.750799">
        <ele>658</ele>
        <time>1970-01-01T01:39:33.000Z</time>
      </trkpt>
      <trkpt lat="41.047379" lon="-6.75087">
        <ele>656.3</ele>
        <time>1970-01-01T01:39:34.000Z</time>
      </trkpt>
      <trkpt lat="41.047348" lon="-6.750946">
        <ele>654.7</ele>
        <time>1970-01-01T01:39:35.000Z</time>
      </trkpt>
      <trkpt lat="41.047319" lon="-6.751027">
        <ele>653</ele>
        <time>1970-01-01T01:39:36.000Z</time>
      </trkpt>
      <trkpt lat="41.047291" lon="-6.751106">
        <ele>651.6</ele>
        <time>1970-01-01T01:39:37.000Z</time>
      </trkpt>
      <trkpt lat="41.047266" lon="-6.751181">
        <ele>650.5</ele>
        <time>1970-01-01T01:39:38.000Z</time>
      </trkpt>
      <trkpt lat="41.047245" lon="-6.751251">
        <ele>649.5</ele>
        <time>1970-01-01T01:39:39.000Z</time>
      </trkpt>
      <trkpt lat="41.04723" lon="-6.751316">
        <ele>648.7</ele>
        <time>1970-01-01T01:39:40.000Z</time>
      </trkpt>
      <trkpt lat="41.047219" lon="-6.751376">
        <ele>648.3</ele>
        <time>1970-01-01T01:39:41.000Z</time>
      </trkpt>
      <trkpt lat="41.047211" lon="-6.751432">
        <ele>648.6</ele>
        <time>1970-01-01T01:39:42.000Z</time>
      </trkpt>
      <trkpt lat="41.047203" lon="-6.751487">
        <ele>648.8</ele>
        <time>1970-01-01T01:39:43.000Z</time>
      </trkpt>
      <trkpt lat="41.047195" lon="-6.751541">
        <ele>649.1</ele>
        <time>1970-01-01T01:39:44.000Z</time>
      </trkpt>
      <trkpt lat="41.047185" lon="-6.751592">
        <ele>649.3</ele>
        <time>1970-01-01T01:39:45.000Z</time>
      </trkpt>
      <trkpt lat="41.047175" lon="-6.751641">
        <ele>649.6</ele>
        <time>1970-01-01T01:39:46.000Z</time>
      </trkpt>
      <trkpt lat="41.047164" lon="-6.751688">
        <ele>649.8</ele>
        <time>1970-01-01T01:39:47.000Z</time>
      </trkpt>
      <trkpt lat="41.047153" lon="-6.751735">
        <ele>650.1</ele>
        <time>1970-01-01T01:39:48.000Z</time>
      </trkpt>
      <trkpt lat="41.047142" lon="-6.75178">
        <ele>650.3</ele>
        <time>1970-01-01T01:39:49.000Z</time>
      </trkpt>
      <trkpt lat="41.047129" lon="-6.751824">
        <ele>650.5</ele>
        <time>1970-01-01T01:39:50.000Z</time>
      </trkpt>
      <trkpt lat="41.047113" lon="-6.751867">
        <ele>650.8</ele>
        <time>1970-01-01T01:39:51.000Z</time>
      </trkpt>
      <trkpt lat="41.047096" lon="-6.751909">
        <ele>651</ele>
        <time>1970-01-01T01:39:52.000Z</time>
      </trkpt>
      <trkpt lat="41.047078" lon="-6.751952">
        <ele>651.2</ele>
        <time>1970-01-01T01:39:53.000Z</time>
      </trkpt>
      <trkpt lat="41.047059" lon="-6.751993">
        <ele>651.5</ele>
        <time>1970-01-01T01:39:54.000Z</time>
      </trkpt>
      <trkpt lat="41.047038" lon="-6.752034">
        <ele>651.7</ele>
        <time>1970-01-01T01:39:55.000Z</time>
      </trkpt>
      <trkpt lat="41.047015" lon="-6.752073">
        <ele>651.9</ele>
        <time>1970-01-01T01:39:56.000Z</time>
      </trkpt>
      <trkpt lat="41.04699" lon="-6.752113">
        <ele>652.3</ele>
        <time>1970-01-01T01:39:57.000Z</time>
      </trkpt>
      <trkpt lat="41.046965" lon="-6.752153">
        <ele>652.7</ele>
        <time>1970-01-01T01:39:58.000Z</time>
      </trkpt>
      <trkpt lat="41.046939" lon="-6.752191">
        <ele>653</ele>
        <time>1970-01-01T01:39:59.000Z</time>
      </trkpt>
      <trkpt lat="41.046913" lon="-6.752226">
        <ele>653.3</ele>
        <time>1970-01-01T01:40:00.000Z</time>
      </trkpt>
      <trkpt lat="41.046886" lon="-6.75226">
        <ele>653.6</ele>
        <time>1970-01-01T01:40:01.000Z</time>
      </trkpt>
      <trkpt lat="41.046859" lon="-6.752293">
        <ele>654</ele>
        <time>1970-01-01T01:40:02.000Z</time>
      </trkpt>
      <trkpt lat="41.046832" lon="-6.752324">
        <ele>654.3</ele>
        <time>1970-01-01T01:40:03.000Z</time>
      </trkpt>
      <trkpt lat="41.046803" lon="-6.752353">
        <ele>654.6</ele>
        <time>1970-01-01T01:40:04.000Z</time>
      </trkpt>
      <trkpt lat="41.046775" lon="-6.75238">
        <ele>654.9</ele>
        <time>1970-01-01T01:40:05.000Z</time>
      </trkpt>
      <trkpt lat="41.046747" lon="-6.752408">
        <ele>655.2</ele>
        <time>1970-01-01T01:40:06.000Z</time>
      </trkpt>
      <trkpt lat="41.046719" lon="-6.752437">
        <ele>655.4</ele>
        <time>1970-01-01T01:40:07.000Z</time>
      </trkpt>
      <trkpt lat="41.046691" lon="-6.752466">
        <ele>655.7</ele>
        <time>1970-01-01T01:40:08.000Z</time>
      </trkpt>
      <trkpt lat="41.046664" lon="-6.752494">
        <ele>656</ele>
        <time>1970-01-01T01:40:09.000Z</time>
      </trkpt>
      <trkpt lat="41.046636" lon="-6.752523">
        <ele>656.3</ele>
        <time>1970-01-01T01:40:10.000Z</time>
      </trkpt>
      <trkpt lat="41.046609" lon="-6.752552">
        <ele>656.5</ele>
        <time>1970-01-01T01:40:11.000Z</time>
      </trkpt>
      <trkpt lat="41.046581" lon="-6.75258">
        <ele>656.8</ele>
        <time>1970-01-01T01:40:12.000Z</time>
      </trkpt>
      <trkpt lat="41.046554" lon="-6.752609">
        <ele>657.1</ele>
        <time>1970-01-01T01:40:13.000Z</time>
      </trkpt>
      <trkpt lat="41.046526" lon="-6.752637">
        <ele>657.4</ele>
        <time>1970-01-01T01:40:14.000Z</time>
      </trkpt>
      <trkpt lat="41.0465" lon="-6.752665">
        <ele>657.7</ele>
        <time>1970-01-01T01:40:15.000Z</time>
      </trkpt>
      <trkpt lat="41.046474" lon="-6.752692">
        <ele>658</ele>
        <time>1970-01-01T01:40:16.000Z</time>
      </trkpt>
      <trkpt lat="41.046448" lon="-6.75272">
        <ele>658.2</ele>
        <time>1970-01-01T01:40:17.000Z</time>
      </trkpt>
      <trkpt lat="41.046422" lon="-6.752747">
        <ele>658.4</ele>
        <time>1970-01-01T01:40:18.000Z</time>
      </trkpt>
      <trkpt lat="41.046397" lon="-6.752775">
        <ele>658.5</ele>
        <time>1970-01-01T01:40:19.000Z</time>
      </trkpt>
      <trkpt lat="41.046372" lon="-6.752803">
        <ele>658.6</ele>
        <time>1970-01-01T01:40:20.000Z</time>
      </trkpt>
      <trkpt lat="41.046347" lon="-6.75283">
        <ele>658.8</ele>
        <time>1970-01-01T01:40:21.000Z</time>
      </trkpt>
      <trkpt lat="41.046323" lon="-6.752857">
        <ele>658.9</ele>
        <time>1970-01-01T01:40:22.000Z</time>
      </trkpt>
      <trkpt lat="41.046301" lon="-6.752884">
        <ele>659</ele>
        <time>1970-01-01T01:40:23.000Z</time>
      </trkpt>
      <trkpt lat="41.04628" lon="-6.752911">
        <ele>659.2</ele>
        <time>1970-01-01T01:40:24.000Z</time>
      </trkpt>
      <trkpt lat="41.046259" lon="-6.752938">
        <ele>659.4</ele>
        <time>1970-01-01T01:40:25.000Z</time>
      </trkpt>
      <trkpt lat="41.046239" lon="-6.752963">
        <ele>659.6</ele>
        <time>1970-01-01T01:40:26.000Z</time>
      </trkpt>
      <trkpt lat="41.046218" lon="-6.752988">
        <ele>659.8</ele>
        <time>1970-01-01T01:40:27.000Z</time>
      </trkpt>
      <trkpt lat="41.046196" lon="-6.753015">
        <ele>660.1</ele>
        <time>1970-01-01T01:40:28.000Z</time>
      </trkpt>
      <trkpt lat="41.046174" lon="-6.753041">
        <ele>660.3</ele>
        <time>1970-01-01T01:40:29.000Z</time>
      </trkpt>
      <trkpt lat="41.04615" lon="-6.753064">
        <ele>660.4</ele>
        <time>1970-01-01T01:40:30.000Z</time>
      </trkpt>
      <trkpt lat="41.046126" lon="-6.753079">
        <ele>660.6</ele>
        <time>1970-01-01T01:40:31.000Z</time>
      </trkpt>
      <trkpt lat="41.046098" lon="-6.753086">
        <ele>660.8</ele>
        <time>1970-01-01T01:40:32.000Z</time>
      </trkpt>
      <trkpt lat="41.046069" lon="-6.753084">
        <ele>661.2</ele>
        <time>1970-01-01T01:40:33.000Z</time>
      </trkpt>
      <trkpt lat="41.046039" lon="-6.753077">
        <ele>661.3</ele>
        <time>1970-01-01T01:40:34.000Z</time>
      </trkpt>
      <trkpt lat="41.046011" lon="-6.753066">
        <ele>661.4</ele>
        <time>1970-01-01T01:40:35.000Z</time>
      </trkpt>
      <trkpt lat="41.045986" lon="-6.753053">
        <ele>661.5</ele>
        <time>1970-01-01T01:40:36.000Z</time>
      </trkpt>
      <trkpt lat="41.04596" lon="-6.753038">
        <ele>661.6</ele>
        <time>1970-01-01T01:40:37.000Z</time>
      </trkpt>
      <trkpt lat="41.045935" lon="-6.75302">
        <ele>661.7</ele>
        <time>1970-01-01T01:40:38.000Z</time>
      </trkpt>
      <trkpt lat="41.045912" lon="-6.753002">
        <ele>661.8</ele>
        <time>1970-01-01T01:40:39.000Z</time>
      </trkpt>
      <trkpt lat="41.04589" lon="-6.752983">
        <ele>661.9</ele>
        <time>1970-01-01T01:40:40.000Z</time>
      </trkpt>
      <trkpt lat="41.045868" lon="-6.752966">
        <ele>662</ele>
        <time>1970-01-01T01:40:41.000Z</time>
      </trkpt>
      <trkpt lat="41.045847" lon="-6.752951">
        <ele>662.1</ele>
        <time>1970-01-01T01:40:42.000Z</time>
      </trkpt>
      <trkpt lat="41.045827" lon="-6.752936">
        <ele>662.2</ele>
        <time>1970-01-01T01:40:43.000Z</time>
      </trkpt>
      <trkpt lat="41.045807" lon="-6.752922">
        <ele>662.3</ele>
        <time>1970-01-01T01:40:44.000Z</time>
      </trkpt>
      <trkpt lat="41.045787" lon="-6.752908">
        <ele>662.4</ele>
        <time>1970-01-01T01:40:45.000Z</time>
      </trkpt>
      <trkpt lat="41.045766" lon="-6.752893">
        <ele>662.5</ele>
        <time>1970-01-01T01:40:46.000Z</time>
      </trkpt>
      <trkpt lat="41.045747" lon="-6.752876">
        <ele>662.6</ele>
        <time>1970-01-01T01:40:47.000Z</time>
      </trkpt>
      <trkpt lat="41.045727" lon="-6.752859">
        <ele>662.7</ele>
        <time>1970-01-01T01:40:48.000Z</time>
      </trkpt>
      <trkpt lat="41.045707" lon="-6.752841">
        <ele>662.8</ele>
        <time>1970-01-01T01:40:49.000Z</time>
      </trkpt>
      <trkpt lat="41.045686" lon="-6.752825">
        <ele>662.9</ele>
        <time>1970-01-01T01:40:50.000Z</time>
      </trkpt>
      <trkpt lat="41.045665" lon="-6.752807">
        <ele>663</ele>
        <time>1970-01-01T01:40:51.000Z</time>
      </trkpt>
      <trkpt lat="41.045644" lon="-6.752791">
        <ele>663.1</ele>
        <time>1970-01-01T01:40:52.000Z</time>
      </trkpt>
      <trkpt lat="41.045622" lon="-6.752774">
        <ele>663.2</ele>
        <time>1970-01-01T01:40:53.000Z</time>
      </trkpt>
      <trkpt lat="41.045599" lon="-6.752759">
        <ele>663.3</ele>
        <time>1970-01-01T01:40:54.000Z</time>
      </trkpt>
      <trkpt lat="41.045576" lon="-6.752744">
        <ele>663.4</ele>
        <time>1970-01-01T01:40:55.000Z</time>
      </trkpt>
      <trkpt lat="41.045552" lon="-6.752731">
        <ele>663.5</ele>
        <time>1970-01-01T01:40:56.000Z</time>
      </trkpt>
      <trkpt lat="41.045526" lon="-6.752719">
        <ele>663.6</ele>
        <time>1970-01-01T01:40:57.000Z</time>
      </trkpt>
      <trkpt lat="41.045501" lon="-6.752707">
        <ele>663.7</ele>
        <time>1970-01-01T01:40:58.000Z</time>
      </trkpt>
      <trkpt lat="41.045477" lon="-6.752695">
        <ele>663.8</ele>
        <time>1970-01-01T01:40:59.000Z</time>
      </trkpt>
      <trkpt lat="41.045453" lon="-6.752682">
        <ele>663.9</ele>
        <time>1970-01-01T01:41:00.000Z</time>
      </trkpt>
      <trkpt lat="41.045431" lon="-6.752669">
        <ele>664</ele>
        <time>1970-01-01T01:41:01.000Z</time>
      </trkpt>
      <trkpt lat="41.045409" lon="-6.752655">
        <ele>664.1</ele>
        <time>1970-01-01T01:41:02.000Z</time>
      </trkpt>
      <trkpt lat="41.045388" lon="-6.752641">
        <ele>664.2</ele>
        <time>1970-01-01T01:41:03.000Z</time>
      </trkpt>
      <trkpt lat="41.045369" lon="-6.752624">
        <ele>664.3</ele>
        <time>1970-01-01T01:41:04.000Z</time>
      </trkpt>
      <trkpt lat="41.045349" lon="-6.752608">
        <ele>664.4</ele>
        <time>1970-01-01T01:41:05.000Z</time>
      </trkpt>
      <trkpt lat="41.04533" lon="-6.75259">
        <ele>664.5</ele>
        <time>1970-01-01T01:41:06.000Z</time>
      </trkpt>
      <trkpt lat="41.045308" lon="-6.752575">
        <ele>664.8</ele>
        <time>1970-01-01T01:41:07.000Z</time>
      </trkpt>
      <trkpt lat="41.045287" lon="-6.752559">
        <ele>665.2</ele>
        <time>1970-01-01T01:41:08.000Z</time>
      </trkpt>
      <trkpt lat="41.045266" lon="-6.752545">
        <ele>665.5</ele>
        <time>1970-01-01T01:41:09.000Z</time>
      </trkpt>
      <trkpt lat="41.045245" lon="-6.752534">
        <ele>665.9</ele>
        <time>1970-01-01T01:41:10.000Z</time>
      </trkpt>
      <trkpt lat="41.045221" lon="-6.752525">
        <ele>666.3</ele>
        <time>1970-01-01T01:41:11.000Z</time>
      </trkpt>
      <trkpt lat="41.045197" lon="-6.752518">
        <ele>666.7</ele>
        <time>1970-01-01T01:41:12.000Z</time>
      </trkpt>
      <trkpt lat="41.045173" lon="-6.75251">
        <ele>667.1</ele>
        <time>1970-01-01T01:41:13.000Z</time>
      </trkpt>
      <trkpt lat="41.045149" lon="-6.7525">
        <ele>667.5</ele>
        <time>1970-01-01T01:41:14.000Z</time>
      </trkpt>
      <trkpt lat="41.045126" lon="-6.752489">
        <ele>667.8</ele>
        <time>1970-01-01T01:41:15.000Z</time>
      </trkpt>
      <trkpt lat="41.045103" lon="-6.752482">
        <ele>668</ele>
        <time>1970-01-01T01:41:16.000Z</time>
      </trkpt>
      <trkpt lat="41.045079" lon="-6.752476">
        <ele>668.2</ele>
        <time>1970-01-01T01:41:17.000Z</time>
      </trkpt>
      <trkpt lat="41.045053" lon="-6.752471">
        <ele>668.3</ele>
        <time>1970-01-01T01:41:18.000Z</time>
      </trkpt>
      <trkpt lat="41.045028" lon="-6.752467">
        <ele>668.3</ele>
        <time>1970-01-01T01:41:19.000Z</time>
      </trkpt>
      <trkpt lat="41.045003" lon="-6.752464">
        <ele>668.4</ele>
        <time>1970-01-01T01:41:20.000Z</time>
      </trkpt>
      <trkpt lat="41.044977" lon="-6.752462">
        <ele>668.3</ele>
        <time>1970-01-01T01:41:21.000Z</time>
      </trkpt>
      <trkpt lat="41.044953" lon="-6.752459">
        <ele>668.3</ele>
        <time>1970-01-01T01:41:22.000Z</time>
      </trkpt>
      <trkpt lat="41.04493" lon="-6.752451">
        <ele>668.2</ele>
        <time>1970-01-01T01:41:23.000Z</time>
      </trkpt>
      <trkpt lat="41.044908" lon="-6.752439">
        <ele>668</ele>
        <time>1970-01-01T01:41:24.000Z</time>
      </trkpt>
      <trkpt lat="41.044886" lon="-6.752424">
        <ele>667.8</ele>
        <time>1970-01-01T01:41:25.000Z</time>
      </trkpt>
      <trkpt lat="41.044865" lon="-6.752407">
        <ele>667.6</ele>
        <time>1970-01-01T01:41:26.000Z</time>
      </trkpt>
      <trkpt lat="41.044844" lon="-6.752388">
        <ele>667.4</ele>
        <time>1970-01-01T01:41:27.000Z</time>
      </trkpt>
      <trkpt lat="41.044823" lon="-6.752362">
        <ele>667</ele>
        <time>1970-01-01T01:41:28.000Z</time>
      </trkpt>
      <trkpt lat="41.044804" lon="-6.75233">
        <ele>667.1</ele>
        <time>1970-01-01T01:41:29.000Z</time>
      </trkpt>
      <trkpt lat="41.044785" lon="-6.752295">
        <ele>667.3</ele>
        <time>1970-01-01T01:41:30.000Z</time>
      </trkpt>
      <trkpt lat="41.044765" lon="-6.752262">
        <ele>667.4</ele>
        <time>1970-01-01T01:41:31.000Z</time>
      </trkpt>
      <trkpt lat="41.044745" lon="-6.75223">
        <ele>667.6</ele>
        <time>1970-01-01T01:41:32.000Z</time>
      </trkpt>
      <trkpt lat="41.044722" lon="-6.752202">
        <ele>667.7</ele>
        <time>1970-01-01T01:41:33.000Z</time>
      </trkpt>
      <trkpt lat="41.044693" lon="-6.752177">
        <ele>668</ele>
        <time>1970-01-01T01:41:34.000Z</time>
      </trkpt>
      <trkpt lat="41.044661" lon="-6.752157">
        <ele>668.2</ele>
        <time>1970-01-01T01:41:35.000Z</time>
      </trkpt>
      <trkpt lat="41.044627" lon="-6.752139">
        <ele>668.6</ele>
        <time>1970-01-01T01:41:36.000Z</time>
      </trkpt>
      <trkpt lat="41.044594" lon="-6.752123">
        <ele>668.9</ele>
        <time>1970-01-01T01:41:37.000Z</time>
      </trkpt>
      <trkpt lat="41.044559" lon="-6.752109">
        <ele>669.2</ele>
        <time>1970-01-01T01:41:38.000Z</time>
      </trkpt>
      <trkpt lat="41.044524" lon="-6.752094">
        <ele>669.6</ele>
        <time>1970-01-01T01:41:39.000Z</time>
      </trkpt>
      <trkpt lat="41.044488" lon="-6.75208">
        <ele>669.9</ele>
        <time>1970-01-01T01:41:40.000Z</time>
      </trkpt>
      <trkpt lat="41.044453" lon="-6.752066">
        <ele>670.2</ele>
        <time>1970-01-01T01:41:41.000Z</time>
      </trkpt>
      <trkpt lat="41.044418" lon="-6.752052">
        <ele>670.6</ele>
        <time>1970-01-01T01:41:42.000Z</time>
      </trkpt>
      <trkpt lat="41.044384" lon="-6.752037">
        <ele>670.9</ele>
        <time>1970-01-01T01:41:43.000Z</time>
      </trkpt>
      <trkpt lat="41.04435" lon="-6.752022">
        <ele>671.3</ele>
        <time>1970-01-01T01:41:44.000Z</time>
      </trkpt>
      <trkpt lat="41.044316" lon="-6.752007">
        <ele>671.6</ele>
        <time>1970-01-01T01:41:45.000Z</time>
      </trkpt>
      <trkpt lat="41.044281" lon="-6.751993">
        <ele>671.9</ele>
        <time>1970-01-01T01:41:46.000Z</time>
      </trkpt>
      <trkpt lat="41.044248" lon="-6.75198">
        <ele>672.1</ele>
        <time>1970-01-01T01:41:47.000Z</time>
      </trkpt>
      <trkpt lat="41.044216" lon="-6.751966">
        <ele>672.3</ele>
        <time>1970-01-01T01:41:48.000Z</time>
      </trkpt>
      <trkpt lat="41.044187" lon="-6.751951">
        <ele>672.4</ele>
        <time>1970-01-01T01:41:49.000Z</time>
      </trkpt>
      <trkpt lat="41.044159" lon="-6.751934">
        <ele>672.6</ele>
        <time>1970-01-01T01:41:50.000Z</time>
      </trkpt>
      <trkpt lat="41.044133" lon="-6.751914">
        <ele>672.7</ele>
        <time>1970-01-01T01:41:51.000Z</time>
      </trkpt>
      <trkpt lat="41.04411" lon="-6.751893">
        <ele>672.8</ele>
        <time>1970-01-01T01:41:52.000Z</time>
      </trkpt>
      <trkpt lat="41.044089" lon="-6.751872">
        <ele>672.9</ele>
        <time>1970-01-01T01:41:53.000Z</time>
      </trkpt>
      <trkpt lat="41.04407" lon="-6.751853">
        <ele>673.1</ele>
        <time>1970-01-01T01:41:54.000Z</time>
      </trkpt>
      <trkpt lat="41.04405" lon="-6.751834">
        <ele>673.2</ele>
        <time>1970-01-01T01:41:55.000Z</time>
      </trkpt>
      <trkpt lat="41.04403" lon="-6.751815">
        <ele>673.3</ele>
        <time>1970-01-01T01:41:56.000Z</time>
      </trkpt>
      <trkpt lat="41.044008" lon="-6.751796">
        <ele>673.4</ele>
        <time>1970-01-01T01:41:57.000Z</time>
      </trkpt>
      <trkpt lat="41.043987" lon="-6.751777">
        <ele>673.5</ele>
        <time>1970-01-01T01:41:58.000Z</time>
      </trkpt>
      <trkpt lat="41.043966" lon="-6.751757">
        <ele>673.6</ele>
        <time>1970-01-01T01:41:59.000Z</time>
      </trkpt>
      <trkpt lat="41.043946" lon="-6.751735">
        <ele>673.7</ele>
        <time>1970-01-01T01:42:00.000Z</time>
      </trkpt>
      <trkpt lat="41.043926" lon="-6.751711">
        <ele>673.9</ele>
        <time>1970-01-01T01:42:01.000Z</time>
      </trkpt>
      <trkpt lat="41.043907" lon="-6.751686">
        <ele>674</ele>
        <time>1970-01-01T01:42:02.000Z</time>
      </trkpt>
      <trkpt lat="41.043888" lon="-6.751661">
        <ele>674.1</ele>
        <time>1970-01-01T01:42:03.000Z</time>
      </trkpt>
      <trkpt lat="41.043868" lon="-6.751636">
        <ele>674.2</ele>
        <time>1970-01-01T01:42:04.000Z</time>
      </trkpt>
      <trkpt lat="41.043849" lon="-6.751612">
        <ele>674.3</ele>
        <time>1970-01-01T01:42:05.000Z</time>
      </trkpt>
      <trkpt lat="41.04383" lon="-6.751587">
        <ele>674.4</ele>
        <time>1970-01-01T01:42:06.000Z</time>
      </trkpt>
      <trkpt lat="41.04381" lon="-6.751562">
        <ele>674.6</ele>
        <time>1970-01-01T01:42:07.000Z</time>
      </trkpt>
      <trkpt lat="41.04379" lon="-6.751536">
        <ele>674.7</ele>
        <time>1970-01-01T01:42:08.000Z</time>
      </trkpt>
      <trkpt lat="41.043771" lon="-6.751508">
        <ele>674.8</ele>
        <time>1970-01-01T01:42:09.000Z</time>
      </trkpt>
      <trkpt lat="41.043754" lon="-6.75148">
        <ele>674.9</ele>
        <time>1970-01-01T01:42:10.000Z</time>
      </trkpt>
      <trkpt lat="41.043736" lon="-6.751454">
        <ele>675.1</ele>
        <time>1970-01-01T01:42:11.000Z</time>
      </trkpt>
      <trkpt lat="41.043717" lon="-6.751428">
        <ele>675.2</ele>
        <time>1970-01-01T01:42:12.000Z</time>
      </trkpt>
      <trkpt lat="41.0437" lon="-6.751402">
        <ele>675.3</ele>
        <time>1970-01-01T01:42:13.000Z</time>
      </trkpt>
      <trkpt lat="41.043679" lon="-6.751377">
        <ele>675.4</ele>
        <time>1970-01-01T01:42:14.000Z</time>
      </trkpt>
      <trkpt lat="41.043655" lon="-6.751353">
        <ele>675.6</ele>
        <time>1970-01-01T01:42:15.000Z</time>
      </trkpt>
      <trkpt lat="41.04363" lon="-6.751332">
        <ele>675.7</ele>
        <time>1970-01-01T01:42:16.000Z</time>
      </trkpt>
      <trkpt lat="41.043606" lon="-6.75131">
        <ele>675.8</ele>
        <time>1970-01-01T01:42:17.000Z</time>
      </trkpt>
      <trkpt lat="41.043584" lon="-6.751288">
        <ele>675.9</ele>
        <time>1970-01-01T01:42:18.000Z</time>
      </trkpt>
      <trkpt lat="41.043561" lon="-6.751266">
        <ele>676.1</ele>
        <time>1970-01-01T01:42:19.000Z</time>
      </trkpt>
      <trkpt lat="41.043535" lon="-6.751245">
        <ele>676.2</ele>
        <time>1970-01-01T01:42:20.000Z</time>
      </trkpt>
      <trkpt lat="41.043508" lon="-6.751225">
        <ele>676.3</ele>
        <time>1970-01-01T01:42:21.000Z</time>
      </trkpt>
      <trkpt lat="41.04348" lon="-6.751206">
        <ele>676.5</ele>
        <time>1970-01-01T01:42:22.000Z</time>
      </trkpt>
      <trkpt lat="41.043455" lon="-6.751186">
        <ele>676.6</ele>
        <time>1970-01-01T01:42:23.000Z</time>
      </trkpt>
      <trkpt lat="41.04343" lon="-6.751167">
        <ele>676.7</ele>
        <time>1970-01-01T01:42:24.000Z</time>
      </trkpt>
      <trkpt lat="41.043407" lon="-6.751147">
        <ele>676.9</ele>
        <time>1970-01-01T01:42:25.000Z</time>
      </trkpt>
      <trkpt lat="41.043385" lon="-6.751127">
        <ele>677</ele>
        <time>1970-01-01T01:42:26.000Z</time>
      </trkpt>
      <trkpt lat="41.043362" lon="-6.751106">
        <ele>677.1</ele>
        <time>1970-01-01T01:42:27.000Z</time>
      </trkpt>
      <trkpt lat="41.043341" lon="-6.751083">
        <ele>677.2</ele>
        <time>1970-01-01T01:42:28.000Z</time>
      </trkpt>
      <trkpt lat="41.043319" lon="-6.751059">
        <ele>677.3</ele>
        <time>1970-01-01T01:42:29.000Z</time>
      </trkpt>
      <trkpt lat="41.043295" lon="-6.751035">
        <ele>677.5</ele>
        <time>1970-01-01T01:42:30.000Z</time>
      </trkpt>
      <trkpt lat="41.043268" lon="-6.751009">
        <ele>677.6</ele>
        <time>1970-01-01T01:42:31.000Z</time>
      </trkpt>
      <trkpt lat="41.043238" lon="-6.750985">
        <ele>677.8</ele>
        <time>1970-01-01T01:42:32.000Z</time>
      </trkpt>
      <trkpt lat="41.043206" lon="-6.750959">
        <ele>678</ele>
        <time>1970-01-01T01:42:33.000Z</time>
      </trkpt>
      <trkpt lat="41.043173" lon="-6.750935">
        <ele>678.1</ele>
        <time>1970-01-01T01:42:34.000Z</time>
      </trkpt>
      <trkpt lat="41.043141" lon="-6.750908">
        <ele>678.3</ele>
        <time>1970-01-01T01:42:35.000Z</time>
      </trkpt>
      <trkpt lat="41.043107" lon="-6.75088">
        <ele>678.5</ele>
        <time>1970-01-01T01:42:36.000Z</time>
      </trkpt>
      <trkpt lat="41.043072" lon="-6.750849">
        <ele>678.7</ele>
        <time>1970-01-01T01:42:37.000Z</time>
      </trkpt>
      <trkpt lat="41.043032" lon="-6.750814">
        <ele>678.9</ele>
        <time>1970-01-01T01:42:38.000Z</time>
      </trkpt>
      <trkpt lat="41.04299" lon="-6.750776">
        <ele>679.1</ele>
        <time>1970-01-01T01:42:39.000Z</time>
      </trkpt>
      <trkpt lat="41.042944" lon="-6.750736">
        <ele>679.3</ele>
        <time>1970-01-01T01:42:40.000Z</time>
      </trkpt>
      <trkpt lat="41.042896" lon="-6.750695">
        <ele>679.6</ele>
        <time>1970-01-01T01:42:41.000Z</time>
      </trkpt>
      <trkpt lat="41.042844" lon="-6.750655">
        <ele>678.7</ele>
        <time>1970-01-01T01:42:42.000Z</time>
      </trkpt>
      <trkpt lat="41.042788" lon="-6.750618">
        <ele>677.7</ele>
        <time>1970-01-01T01:42:43.000Z</time>
      </trkpt>
      <trkpt lat="41.042733" lon="-6.750582">
        <ele>676.7</ele>
        <time>1970-01-01T01:42:44.000Z</time>
      </trkpt>
      <trkpt lat="41.042676" lon="-6.750548">
        <ele>675.7</ele>
        <time>1970-01-01T01:42:45.000Z</time>
      </trkpt>
      <trkpt lat="41.042617" lon="-6.750516">
        <ele>674.6</ele>
        <time>1970-01-01T01:42:46.000Z</time>
      </trkpt>
      <trkpt lat="41.042554" lon="-6.750487">
        <ele>673.5</ele>
        <time>1970-01-01T01:42:47.000Z</time>
      </trkpt>
      <trkpt lat="41.04249" lon="-6.75046">
        <ele>672.5</ele>
        <time>1970-01-01T01:42:48.000Z</time>
      </trkpt>
      <trkpt lat="41.042429" lon="-6.750433">
        <ele>671.4</ele>
        <time>1970-01-01T01:42:49.000Z</time>
      </trkpt>
      <trkpt lat="41.042371" lon="-6.750408">
        <ele>670.4</ele>
        <time>1970-01-01T01:42:50.000Z</time>
      </trkpt>
      <trkpt lat="41.042319" lon="-6.750388">
        <ele>669.6</ele>
        <time>1970-01-01T01:42:51.000Z</time>
      </trkpt>
      <trkpt lat="41.042272" lon="-6.750372">
        <ele>668.8</ele>
        <time>1970-01-01T01:42:52.000Z</time>
      </trkpt>
      <trkpt lat="41.042224" lon="-6.750361">
        <ele>668</ele>
        <time>1970-01-01T01:42:53.000Z</time>
      </trkpt>
      <trkpt lat="41.042174" lon="-6.750351">
        <ele>667.2</ele>
        <time>1970-01-01T01:42:54.000Z</time>
      </trkpt>
      <trkpt lat="41.042123" lon="-6.75034">
        <ele>666.3</ele>
        <time>1970-01-01T01:42:55.000Z</time>
      </trkpt>
      <trkpt lat="41.042073" lon="-6.750331">
        <ele>665.5</ele>
        <time>1970-01-01T01:42:56.000Z</time>
      </trkpt>
      <trkpt lat="41.042025" lon="-6.750324">
        <ele>664.7</ele>
        <time>1970-01-01T01:42:57.000Z</time>
      </trkpt>
      <trkpt lat="41.041979" lon="-6.75032">
        <ele>664</ele>
        <time>1970-01-01T01:42:58.000Z</time>
      </trkpt>
      <trkpt lat="41.041935" lon="-6.750319">
        <ele>663.3</ele>
        <time>1970-01-01T01:42:59.000Z</time>
      </trkpt>
      <trkpt lat="41.04189" lon="-6.750321">
        <ele>662.6</ele>
        <time>1970-01-01T01:43:00.000Z</time>
      </trkpt>
      <trkpt lat="41.041844" lon="-6.750326">
        <ele>661.8</ele>
        <time>1970-01-01T01:43:01.000Z</time>
      </trkpt>
      <trkpt lat="41.041794" lon="-6.750333">
        <ele>661</ele>
        <time>1970-01-01T01:43:02.000Z</time>
      </trkpt>
      <trkpt lat="41.041736" lon="-6.750342">
        <ele>660.1</ele>
        <time>1970-01-01T01:43:03.000Z</time>
      </trkpt>
      <trkpt lat="41.041671" lon="-6.750349">
        <ele>659</ele>
        <time>1970-01-01T01:43:04.000Z</time>
      </trkpt>
      <trkpt lat="41.041605" lon="-6.750356">
        <ele>657.9</ele>
        <time>1970-01-01T01:43:05.000Z</time>
      </trkpt>
      <trkpt lat="41.041544" lon="-6.750366">
        <ele>656.9</ele>
        <time>1970-01-01T01:43:06.000Z</time>
      </trkpt>
      <trkpt lat="41.041492" lon="-6.750382">
        <ele>656.1</ele>
        <time>1970-01-01T01:43:07.000Z</time>
      </trkpt>
      <trkpt lat="41.041441" lon="-6.7504">
        <ele>655.2</ele>
        <time>1970-01-01T01:43:08.000Z</time>
      </trkpt>
      <trkpt lat="41.041393" lon="-6.750419">
        <ele>654.4</ele>
        <time>1970-01-01T01:43:09.000Z</time>
      </trkpt>
      <trkpt lat="41.041343" lon="-6.750434">
        <ele>653.6</ele>
        <time>1970-01-01T01:43:10.000Z</time>
      </trkpt>
      <trkpt lat="41.041296" lon="-6.750446">
        <ele>652.8</ele>
        <time>1970-01-01T01:43:11.000Z</time>
      </trkpt>
      <trkpt lat="41.041251" lon="-6.750456">
        <ele>652.1</ele>
        <time>1970-01-01T01:43:12.000Z</time>
      </trkpt>
      <trkpt lat="41.041204" lon="-6.750465">
        <ele>651.3</ele>
        <time>1970-01-01T01:43:13.000Z</time>
      </trkpt>
      <trkpt lat="41.041158" lon="-6.750472">
        <ele>650.6</ele>
        <time>1970-01-01T01:43:14.000Z</time>
      </trkpt>
      <trkpt lat="41.041108" lon="-6.750478">
        <ele>649.7</ele>
        <time>1970-01-01T01:43:15.000Z</time>
      </trkpt>
      <trkpt lat="41.041059" lon="-6.750484">
        <ele>649</ele>
        <time>1970-01-01T01:43:16.000Z</time>
      </trkpt>
      <trkpt lat="41.041009" lon="-6.75049">
        <ele>648.1</ele>
        <time>1970-01-01T01:43:17.000Z</time>
      </trkpt>
      <trkpt lat="41.04096" lon="-6.750495">
        <ele>647.3</ele>
        <time>1970-01-01T01:43:18.000Z</time>
      </trkpt>
      <trkpt lat="41.040909" lon="-6.750501">
        <ele>646.5</ele>
        <time>1970-01-01T01:43:19.000Z</time>
      </trkpt>
      <trkpt lat="41.040856" lon="-6.750509">
        <ele>645.7</ele>
        <time>1970-01-01T01:43:20.000Z</time>
      </trkpt>
      <trkpt lat="41.040801" lon="-6.750517">
        <ele>644.8</ele>
        <time>1970-01-01T01:43:21.000Z</time>
      </trkpt>
      <trkpt lat="41.040746" lon="-6.750519">
        <ele>643.9</ele>
        <time>1970-01-01T01:43:22.000Z</time>
      </trkpt>
      <trkpt lat="41.040694" lon="-6.750518">
        <ele>643</ele>
        <time>1970-01-01T01:43:23.000Z</time>
      </trkpt>
      <trkpt lat="41.040643" lon="-6.750517">
        <ele>642.2</ele>
        <time>1970-01-01T01:43:24.000Z</time>
      </trkpt>
      <trkpt lat="41.040593" lon="-6.750519">
        <ele>641.4</ele>
        <time>1970-01-01T01:43:25.000Z</time>
      </trkpt>
      <trkpt lat="41.040546" lon="-6.750524">
        <ele>640.6</ele>
        <time>1970-01-01T01:43:26.000Z</time>
      </trkpt>
      <trkpt lat="41.040507" lon="-6.750531">
        <ele>640</ele>
        <time>1970-01-01T01:43:27.000Z</time>
      </trkpt>
      <trkpt lat="41.040473" lon="-6.750541">
        <ele>639.4</ele>
        <time>1970-01-01T01:43:28.000Z</time>
      </trkpt>
      <trkpt lat="41.040442" lon="-6.750548">
        <ele>638.9</ele>
        <time>1970-01-01T01:43:29.000Z</time>
      </trkpt>
      <trkpt lat="41.04041" lon="-6.750553">
        <ele>638.4</ele>
        <time>1970-01-01T01:43:30.000Z</time>
      </trkpt>
      <trkpt lat="41.040376" lon="-6.750554">
        <ele>637.9</ele>
        <time>1970-01-01T01:43:31.000Z</time>
      </trkpt>
      <trkpt lat="41.040341" lon="-6.750551">
        <ele>637.3</ele>
        <time>1970-01-01T01:43:32.000Z</time>
      </trkpt>
      <trkpt lat="41.040305" lon="-6.750544">
        <ele>636.7</ele>
        <time>1970-01-01T01:43:33.000Z</time>
      </trkpt>
      <trkpt lat="41.040272" lon="-6.750531">
        <ele>636.1</ele>
        <time>1970-01-01T01:43:34.000Z</time>
      </trkpt>
      <trkpt lat="41.040245" lon="-6.750515">
        <ele>635.7</ele>
        <time>1970-01-01T01:43:35.000Z</time>
      </trkpt>
      <trkpt lat="41.040221" lon="-6.750495">
        <ele>635.2</ele>
        <time>1970-01-01T01:43:36.000Z</time>
      </trkpt>
      <trkpt lat="41.040197" lon="-6.750474">
        <ele>634.7</ele>
        <time>1970-01-01T01:43:37.000Z</time>
      </trkpt>
      <trkpt lat="41.040171" lon="-6.750452">
        <ele>634.2</ele>
        <time>1970-01-01T01:43:38.000Z</time>
      </trkpt>
      <trkpt lat="41.040145" lon="-6.75043">
        <ele>633.7</ele>
        <time>1970-01-01T01:43:39.000Z</time>
      </trkpt>
      <trkpt lat="41.040121" lon="-6.750406">
        <ele>633.3</ele>
        <time>1970-01-01T01:43:40.000Z</time>
      </trkpt>
      <trkpt lat="41.040099" lon="-6.750382">
        <ele>632.8</ele>
        <time>1970-01-01T01:43:41.000Z</time>
      </trkpt>
      <trkpt lat="41.040075" lon="-6.750353">
        <ele>632.3</ele>
        <time>1970-01-01T01:43:42.000Z</time>
      </trkpt>
      <trkpt lat="41.040048" lon="-6.750317">
        <ele>631.7</ele>
        <time>1970-01-01T01:43:43.000Z</time>
      </trkpt>
      <trkpt lat="41.040019" lon="-6.750275">
        <ele>631</ele>
        <time>1970-01-01T01:43:44.000Z</time>
      </trkpt>
      <trkpt lat="41.039991" lon="-6.750232">
        <ele>630.3</ele>
        <time>1970-01-01T01:43:45.000Z</time>
      </trkpt>
      <trkpt lat="41.03996" lon="-6.75019">
        <ele>629.6</ele>
        <time>1970-01-01T01:43:46.000Z</time>
      </trkpt>
      <trkpt lat="41.039924" lon="-6.750152">
        <ele>628.8</ele>
        <time>1970-01-01T01:43:47.000Z</time>
      </trkpt>
      <trkpt lat="41.039881" lon="-6.75012">
        <ele>628</ele>
        <time>1970-01-01T01:43:48.000Z</time>
      </trkpt>
      <trkpt lat="41.039838" lon="-6.750098">
        <ele>627.3</ele>
        <time>1970-01-01T01:43:49.000Z</time>
      </trkpt>
      <trkpt lat="41.039797" lon="-6.75008">
        <ele>626.6</ele>
        <time>1970-01-01T01:43:50.000Z</time>
      </trkpt>
      <trkpt lat="41.03976" lon="-6.750062">
        <ele>625.9</ele>
        <time>1970-01-01T01:43:51.000Z</time>
      </trkpt>
      <trkpt lat="41.039721" lon="-6.750041">
        <ele>625.3</ele>
        <time>1970-01-01T01:43:52.000Z</time>
      </trkpt>
      <trkpt lat="41.03968" lon="-6.750016">
        <ele>624.5</ele>
        <time>1970-01-01T01:43:53.000Z</time>
      </trkpt>
      <trkpt lat="41.039637" lon="-6.749993">
        <ele>623.8</ele>
        <time>1970-01-01T01:43:54.000Z</time>
      </trkpt>
      <trkpt lat="41.039594" lon="-6.74997">
        <ele>623</ele>
        <time>1970-01-01T01:43:55.000Z</time>
      </trkpt>
      <trkpt lat="41.039552" lon="-6.749948">
        <ele>622.3</ele>
        <time>1970-01-01T01:43:56.000Z</time>
      </trkpt>
      <trkpt lat="41.039512" lon="-6.749926">
        <ele>621.6</ele>
        <time>1970-01-01T01:43:57.000Z</time>
      </trkpt>
      <trkpt lat="41.039475" lon="-6.749905">
        <ele>620.9</ele>
        <time>1970-01-01T01:43:58.000Z</time>
      </trkpt>
      <trkpt lat="41.039441" lon="-6.749886">
        <ele>620.4</ele>
        <time>1970-01-01T01:43:59.000Z</time>
      </trkpt>
      <trkpt lat="41.039406" lon="-6.749867">
        <ele>619.7</ele>
        <time>1970-01-01T01:44:00.000Z</time>
      </trkpt>
      <trkpt lat="41.039369" lon="-6.749846">
        <ele>619.1</ele>
        <time>1970-01-01T01:44:01.000Z</time>
      </trkpt>
      <trkpt lat="41.039332" lon="-6.74982">
        <ele>618.4</ele>
        <time>1970-01-01T01:44:02.000Z</time>
      </trkpt>
      <trkpt lat="41.039296" lon="-6.749789">
        <ele>617.7</ele>
        <time>1970-01-01T01:44:03.000Z</time>
      </trkpt>
      <trkpt lat="41.039265" lon="-6.749757">
        <ele>617.1</ele>
        <time>1970-01-01T01:44:04.000Z</time>
      </trkpt>
      <trkpt lat="41.039235" lon="-6.749727">
        <ele>616.5</ele>
        <time>1970-01-01T01:44:05.000Z</time>
      </trkpt>
      <trkpt lat="41.039206" lon="-6.749701">
        <ele>615.9</ele>
        <time>1970-01-01T01:44:06.000Z</time>
      </trkpt>
      <trkpt lat="41.039179" lon="-6.749676">
        <ele>615.4</ele>
        <time>1970-01-01T01:44:07.000Z</time>
      </trkpt>
      <trkpt lat="41.039154" lon="-6.749648">
        <ele>614.8</ele>
        <time>1970-01-01T01:44:08.000Z</time>
      </trkpt>
      <trkpt lat="41.039127" lon="-6.749624">
        <ele>614.3</ele>
        <time>1970-01-01T01:44:09.000Z</time>
      </trkpt>
      <trkpt lat="41.039096" lon="-6.749608">
        <ele>613.8</ele>
        <time>1970-01-01T01:44:10.000Z</time>
      </trkpt>
      <trkpt lat="41.039055" lon="-6.7496">
        <ele>613.1</ele>
        <time>1970-01-01T01:44:11.000Z</time>
      </trkpt>
      <trkpt lat="41.039007" lon="-6.749595">
        <ele>612.3</ele>
        <time>1970-01-01T01:44:12.000Z</time>
      </trkpt>
      <trkpt lat="41.038959" lon="-6.749583">
        <ele>611.5</ele>
        <time>1970-01-01T01:44:13.000Z</time>
      </trkpt>
      <trkpt lat="41.038916" lon="-6.749569">
        <ele>610.8</ele>
        <time>1970-01-01T01:44:14.000Z</time>
      </trkpt>
      <trkpt lat="41.038877" lon="-6.749554">
        <ele>610.2</ele>
        <time>1970-01-01T01:44:15.000Z</time>
      </trkpt>
      <trkpt lat="41.038837" lon="-6.749543">
        <ele>609.5</ele>
        <time>1970-01-01T01:44:16.000Z</time>
      </trkpt>
      <trkpt lat="41.038797" lon="-6.749538">
        <ele>608.9</ele>
        <time>1970-01-01T01:44:17.000Z</time>
      </trkpt>
      <trkpt lat="41.038757" lon="-6.749538">
        <ele>608.2</ele>
        <time>1970-01-01T01:44:18.000Z</time>
      </trkpt>
      <trkpt lat="41.038716" lon="-6.749543">
        <ele>607.6</ele>
        <time>1970-01-01T01:44:19.000Z</time>
      </trkpt>
      <trkpt lat="41.038676" lon="-6.749552">
        <ele>606.9</ele>
        <time>1970-01-01T01:44:20.000Z</time>
      </trkpt>
      <trkpt lat="41.038637" lon="-6.749561">
        <ele>606.3</ele>
        <time>1970-01-01T01:44:21.000Z</time>
      </trkpt>
      <trkpt lat="41.038598" lon="-6.749567">
        <ele>605.6</ele>
        <time>1970-01-01T01:44:22.000Z</time>
      </trkpt>
      <trkpt lat="41.038558" lon="-6.749572">
        <ele>605</ele>
        <time>1970-01-01T01:44:23.000Z</time>
      </trkpt>
      <trkpt lat="41.038517" lon="-6.749575">
        <ele>604.3</ele>
        <time>1970-01-01T01:44:24.000Z</time>
      </trkpt>
      <trkpt lat="41.038477" lon="-6.749581">
        <ele>603.7</ele>
        <time>1970-01-01T01:44:25.000Z</time>
      </trkpt>
      <trkpt lat="41.038438" lon="-6.749589">
        <ele>603</ele>
        <time>1970-01-01T01:44:26.000Z</time>
      </trkpt>
      <trkpt lat="41.038404" lon="-6.749595">
        <ele>602.5</ele>
        <time>1970-01-01T01:44:27.000Z</time>
      </trkpt>
      <trkpt lat="41.038374" lon="-6.749599">
        <ele>602</ele>
        <time>1970-01-01T01:44:28.000Z</time>
      </trkpt>
      <trkpt lat="41.038347" lon="-6.7496">
        <ele>601.5</ele>
        <time>1970-01-01T01:44:29.000Z</time>
      </trkpt>
      <trkpt lat="41.03832" lon="-6.749599">
        <ele>601.1</ele>
        <time>1970-01-01T01:44:30.000Z</time>
      </trkpt>
      <trkpt lat="41.038292" lon="-6.749599">
        <ele>600.7</ele>
        <time>1970-01-01T01:44:31.000Z</time>
      </trkpt>
      <trkpt lat="41.038259" lon="-6.749601">
        <ele>600.1</ele>
        <time>1970-01-01T01:44:32.000Z</time>
      </trkpt>
      <trkpt lat="41.038226" lon="-6.749607">
        <ele>599.6</ele>
        <time>1970-01-01T01:44:33.000Z</time>
      </trkpt>
      <trkpt lat="41.038192" lon="-6.749614">
        <ele>599</ele>
        <time>1970-01-01T01:44:34.000Z</time>
      </trkpt>
      <trkpt lat="41.03816" lon="-6.749625">
        <ele>598.5</ele>
        <time>1970-01-01T01:44:35.000Z</time>
      </trkpt>
      <trkpt lat="41.03813" lon="-6.749632">
        <ele>598</ele>
        <time>1970-01-01T01:44:36.000Z</time>
      </trkpt>
      <trkpt lat="41.038103" lon="-6.749633">
        <ele>597.6</ele>
        <time>1970-01-01T01:44:37.000Z</time>
      </trkpt>
      <trkpt lat="41.038078" lon="-6.749631">
        <ele>597.2</ele>
        <time>1970-01-01T01:44:38.000Z</time>
      </trkpt>
      <trkpt lat="41.03805" lon="-6.749635">
        <ele>596.7</ele>
        <time>1970-01-01T01:44:39.000Z</time>
      </trkpt>
      <trkpt lat="41.03802" lon="-6.74965">
        <ele>596.2</ele>
        <time>1970-01-01T01:44:40.000Z</time>
      </trkpt>
      <trkpt lat="41.037987" lon="-6.749674">
        <ele>595.6</ele>
        <time>1970-01-01T01:44:41.000Z</time>
      </trkpt>
      <trkpt lat="41.037952" lon="-6.749704">
        <ele>595</ele>
        <time>1970-01-01T01:44:42.000Z</time>
      </trkpt>
      <trkpt lat="41.037913" lon="-6.74974">
        <ele>594.3</ele>
        <time>1970-01-01T01:44:43.000Z</time>
      </trkpt>
      <trkpt lat="41.037872" lon="-6.74978">
        <ele>593.5</ele>
        <time>1970-01-01T01:44:44.000Z</time>
      </trkpt>
      <trkpt lat="41.037829" lon="-6.749821">
        <ele>592.6</ele>
        <time>1970-01-01T01:44:45.000Z</time>
      </trkpt>
      <trkpt lat="41.037786" lon="-6.749859">
        <ele>591.7</ele>
        <time>1970-01-01T01:44:46.000Z</time>
      </trkpt>
      <trkpt lat="41.037744" lon="-6.749892">
        <ele>590.9</ele>
        <time>1970-01-01T01:44:47.000Z</time>
      </trkpt>
      <trkpt lat="41.037703" lon="-6.749922">
        <ele>590.1</ele>
        <time>1970-01-01T01:44:48.000Z</time>
      </trkpt>
      <trkpt lat="41.03766" lon="-6.74995">
        <ele>589.3</ele>
        <time>1970-01-01T01:44:49.000Z</time>
      </trkpt>
      <trkpt lat="41.037613" lon="-6.749978">
        <ele>588.4</ele>
        <time>1970-01-01T01:44:50.000Z</time>
      </trkpt>
      <trkpt lat="41.037558" lon="-6.750006">
        <ele>587.4</ele>
        <time>1970-01-01T01:44:51.000Z</time>
      </trkpt>
      <trkpt lat="41.037497" lon="-6.750036">
        <ele>586.3</ele>
        <time>1970-01-01T01:44:52.000Z</time>
      </trkpt>
      <trkpt lat="41.03743" lon="-6.750068">
        <ele>585</ele>
        <time>1970-01-01T01:44:53.000Z</time>
      </trkpt>
      <trkpt lat="41.037358" lon="-6.750103">
        <ele>583.8</ele>
        <time>1970-01-01T01:44:54.000Z</time>
      </trkpt>
      <trkpt lat="41.037281" lon="-6.750142">
        <ele>582.5</ele>
        <time>1970-01-01T01:44:55.000Z</time>
      </trkpt>
      <trkpt lat="41.037199" lon="-6.750184">
        <ele>581</ele>
        <time>1970-01-01T01:44:56.000Z</time>
      </trkpt>
      <trkpt lat="41.037114" lon="-6.750233">
        <ele>579.5</ele>
        <time>1970-01-01T01:44:57.000Z</time>
      </trkpt>
      <trkpt lat="41.037027" lon="-6.750288">
        <ele>577.9</ele>
        <time>1970-01-01T01:44:58.000Z</time>
      </trkpt>
      <trkpt lat="41.036935" lon="-6.750349">
        <ele>576.3</ele>
        <time>1970-01-01T01:44:59.000Z</time>
      </trkpt>
      <trkpt lat="41.036841" lon="-6.750413">
        <ele>574.5</ele>
        <time>1970-01-01T01:45:00.000Z</time>
      </trkpt>
      <trkpt lat="41.036746" lon="-6.750477">
        <ele>572.7</ele>
        <time>1970-01-01T01:45:01.000Z</time>
      </trkpt>
      <trkpt lat="41.036648" lon="-6.750539">
        <ele>571.1</ele>
        <time>1970-01-01T01:45:02.000Z</time>
      </trkpt>
      <trkpt lat="41.036549" lon="-6.750599">
        <ele>569.6</ele>
        <time>1970-01-01T01:45:03.000Z</time>
      </trkpt>
      <trkpt lat="41.036453" lon="-6.750652">
        <ele>568</ele>
        <time>1970-01-01T01:45:04.000Z</time>
      </trkpt>
      <trkpt lat="41.03636" lon="-6.750691">
        <ele>566.6</ele>
        <time>1970-01-01T01:45:05.000Z</time>
      </trkpt>
      <trkpt lat="41.036269" lon="-6.750714">
        <ele>565.5</ele>
        <time>1970-01-01T01:45:06.000Z</time>
      </trkpt>
      <trkpt lat="41.036186" lon="-6.750729">
        <ele>564.7</ele>
        <time>1970-01-01T01:45:07.000Z</time>
      </trkpt>
      <trkpt lat="41.03611" lon="-6.750744">
        <ele>564.2</ele>
        <time>1970-01-01T01:45:08.000Z</time>
      </trkpt>
      <trkpt lat="41.036043" lon="-6.750768">
        <ele>564</ele>
        <time>1970-01-01T01:45:09.000Z</time>
      </trkpt>
      <trkpt lat="41.035979" lon="-6.750806">
        <ele>563.8</ele>
        <time>1970-01-01T01:45:10.000Z</time>
      </trkpt>
      <trkpt lat="41.035923" lon="-6.750858">
        <ele>563.5</ele>
        <time>1970-01-01T01:45:11.000Z</time>
      </trkpt>
      <trkpt lat="41.035875" lon="-6.75092">
        <ele>563.2</ele>
        <time>1970-01-01T01:45:12.000Z</time>
      </trkpt>
      <trkpt lat="41.035836" lon="-6.750989">
        <ele>562.8</ele>
        <time>1970-01-01T01:45:13.000Z</time>
      </trkpt>
      <trkpt lat="41.035805" lon="-6.751062">
        <ele>562.4</ele>
        <time>1970-01-01T01:45:14.000Z</time>
      </trkpt>
      <trkpt lat="41.035779" lon="-6.751139">
        <ele>562</ele>
        <time>1970-01-01T01:45:15.000Z</time>
      </trkpt>
      <trkpt lat="41.035757" lon="-6.751222">
        <ele>561.4</ele>
        <time>1970-01-01T01:45:16.000Z</time>
      </trkpt>
      <trkpt lat="41.035736" lon="-6.751309">
        <ele>560.8</ele>
        <time>1970-01-01T01:45:17.000Z</time>
      </trkpt>
      <trkpt lat="41.035712" lon="-6.751399">
        <ele>560</ele>
        <time>1970-01-01T01:45:18.000Z</time>
      </trkpt>
      <trkpt lat="41.035684" lon="-6.751491">
        <ele>559.3</ele>
        <time>1970-01-01T01:45:19.000Z</time>
      </trkpt>
      <trkpt lat="41.035654" lon="-6.751585">
        <ele>558.6</ele>
        <time>1970-01-01T01:45:20.000Z</time>
      </trkpt>
      <trkpt lat="41.035621" lon="-6.751681">
        <ele>558</ele>
        <time>1970-01-01T01:45:21.000Z</time>
      </trkpt>
      <trkpt lat="41.035588" lon="-6.751774">
        <ele>557.5</ele>
        <time>1970-01-01T01:45:22.000Z</time>
      </trkpt>
      <trkpt lat="41.035554" lon="-6.751862">
        <ele>557</ele>
        <time>1970-01-01T01:45:23.000Z</time>
      </trkpt>
      <trkpt lat="41.035514" lon="-6.751939">
        <ele>556.6</ele>
        <time>1970-01-01T01:45:24.000Z</time>
      </trkpt>
      <trkpt lat="41.035462" lon="-6.752012">
        <ele>556.2</ele>
        <time>1970-01-01T01:45:25.000Z</time>
      </trkpt>
      <trkpt lat="41.035403" lon="-6.752078">
        <ele>555.7</ele>
        <time>1970-01-01T01:45:26.000Z</time>
      </trkpt>
      <trkpt lat="41.035339" lon="-6.752135">
        <ele>555.1</ele>
        <time>1970-01-01T01:45:27.000Z</time>
      </trkpt>
      <trkpt lat="41.035267" lon="-6.752177">
        <ele>554.4</ele>
        <time>1970-01-01T01:45:28.000Z</time>
      </trkpt>
      <trkpt lat="41.03518" lon="-6.752207">
        <ele>553.2</ele>
        <time>1970-01-01T01:45:29.000Z</time>
      </trkpt>
      <trkpt lat="41.035081" lon="-6.752231">
        <ele>552</ele>
        <time>1970-01-01T01:45:30.000Z</time>
      </trkpt>
      <trkpt lat="41.034982" lon="-6.752251">
        <ele>550.9</ele>
        <time>1970-01-01T01:45:31.000Z</time>
      </trkpt>
      <trkpt lat="41.034887" lon="-6.75227">
        <ele>549.9</ele>
        <time>1970-01-01T01:45:32.000Z</time>
      </trkpt>
      <trkpt lat="41.034793" lon="-6.752291">
        <ele>549.1</ele>
        <time>1970-01-01T01:45:33.000Z</time>
      </trkpt>
      <trkpt lat="41.034701" lon="-6.752317">
        <ele>548.5</ele>
        <time>1970-01-01T01:45:34.000Z</time>
      </trkpt>
      <trkpt lat="41.03461" lon="-6.752346">
        <ele>548.1</ele>
        <time>1970-01-01T01:45:35.000Z</time>
      </trkpt>
      <trkpt lat="41.03452" lon="-6.752374">
        <ele>547.6</ele>
        <time>1970-01-01T01:45:36.000Z</time>
      </trkpt>
      <trkpt lat="41.034431" lon="-6.752401">
        <ele>547</ele>
        <time>1970-01-01T01:45:37.000Z</time>
      </trkpt>
      <trkpt lat="41.034343" lon="-6.752425">
        <ele>546.4</ele>
        <time>1970-01-01T01:45:38.000Z</time>
      </trkpt>
      <trkpt lat="41.034256" lon="-6.752449">
        <ele>546</ele>
        <time>1970-01-01T01:45:39.000Z</time>
      </trkpt>
      <trkpt lat="41.034172" lon="-6.752474">
        <ele>545.6</ele>
        <time>1970-01-01T01:45:40.000Z</time>
      </trkpt>
      <trkpt lat="41.034095" lon="-6.752506">
        <ele>545.3</ele>
        <time>1970-01-01T01:45:41.000Z</time>
      </trkpt>
      <trkpt lat="41.034027" lon="-6.752547">
        <ele>544.6</ele>
        <time>1970-01-01T01:45:42.000Z</time>
      </trkpt>
      <trkpt lat="41.033969" lon="-6.752597">
        <ele>543.5</ele>
        <time>1970-01-01T01:45:43.000Z</time>
      </trkpt>
      <trkpt lat="41.033921" lon="-6.752656">
        <ele>541.6</ele>
        <time>1970-01-01T01:45:44.000Z</time>
      </trkpt>
      <trkpt lat="41.033879" lon="-6.75272">
        <ele>540.3</ele>
        <time>1970-01-01T01:45:45.000Z</time>
      </trkpt>
      <trkpt lat="41.033841" lon="-6.752788">
        <ele>539.7</ele>
        <time>1970-01-01T01:45:46.000Z</time>
      </trkpt>
      <trkpt lat="41.033807" lon="-6.752858">
        <ele>538.8</ele>
        <time>1970-01-01T01:45:47.000Z</time>
      </trkpt>
      <trkpt lat="41.033778" lon="-6.752928">
        <ele>537.9</ele>
        <time>1970-01-01T01:45:48.000Z</time>
      </trkpt>
      <trkpt lat="41.033753" lon="-6.753">
        <ele>537</ele>
        <time>1970-01-01T01:45:49.000Z</time>
      </trkpt>
      <trkpt lat="41.033733" lon="-6.753068">
        <ele>536.2</ele>
        <time>1970-01-01T01:45:50.000Z</time>
      </trkpt>
      <trkpt lat="41.033719" lon="-6.753135">
        <ele>535.5</ele>
        <time>1970-01-01T01:45:51.000Z</time>
      </trkpt>
      <trkpt lat="41.033715" lon="-6.753199">
        <ele>535</ele>
        <time>1970-01-01T01:45:52.000Z</time>
      </trkpt>
      <trkpt lat="41.033724" lon="-6.753251">
        <ele>534.6</ele>
        <time>1970-01-01T01:45:53.000Z</time>
      </trkpt>
      <trkpt lat="41.033738" lon="-6.753287">
        <ele>534.4</ele>
        <time>1970-01-01T01:45:54.000Z</time>
      </trkpt>
      <trkpt lat="41.033754" lon="-6.753306">
        <ele>534.2</ele>
        <time>1970-01-01T01:45:55.000Z</time>
      </trkpt>
      <trkpt lat="41.033765" lon="-6.753327">
        <ele>534.1</ele>
        <time>1970-01-01T01:45:56.000Z</time>
      </trkpt>
      <trkpt lat="41.033774" lon="-6.753351">
        <ele>534.1</ele>
        <time>1970-01-01T01:45:57.000Z</time>
      </trkpt>
      <trkpt lat="41.03378" lon="-6.753377">
        <ele>534.1</ele>
        <time>1970-01-01T01:45:58.000Z</time>
      </trkpt>
      <trkpt lat="41.033783" lon="-6.753403">
        <ele>534.1</ele>
        <time>1970-01-01T01:45:59.000Z</time>
      </trkpt>
      <trkpt lat="41.033788" lon="-6.753433">
        <ele>534.3</ele>
        <time>1970-01-01T01:46:00.000Z</time>
      </trkpt>
      <trkpt lat="41.033791" lon="-6.75347">
        <ele>534.5</ele>
        <time>1970-01-01T01:46:01.000Z</time>
      </trkpt>
      <trkpt lat="41.033792" lon="-6.753511">
        <ele>534.9</ele>
        <time>1970-01-01T01:46:02.000Z</time>
      </trkpt>
      <trkpt lat="41.033787" lon="-6.75355">
        <ele>535.4</ele>
        <time>1970-01-01T01:46:03.000Z</time>
      </trkpt>
      <trkpt lat="41.033778" lon="-6.753587">
        <ele>535.9</ele>
        <time>1970-01-01T01:46:04.000Z</time>
      </trkpt>
      <trkpt lat="41.033766" lon="-6.753626">
        <ele>536.4</ele>
        <time>1970-01-01T01:46:05.000Z</time>
      </trkpt>
      <trkpt lat="41.033752" lon="-6.753668">
        <ele>536.9</ele>
        <time>1970-01-01T01:46:06.000Z</time>
      </trkpt>
      <trkpt lat="41.033736" lon="-6.753711">
        <ele>537.3</ele>
        <time>1970-01-01T01:46:07.000Z</time>
      </trkpt>
      <trkpt lat="41.033718" lon="-6.753753">
        <ele>537.5</ele>
        <time>1970-01-01T01:46:08.000Z</time>
      </trkpt>
      <trkpt lat="41.033696" lon="-6.753795">
        <ele>537.7</ele>
        <time>1970-01-01T01:46:09.000Z</time>
      </trkpt>
      <trkpt lat="41.033671" lon="-6.753837">
        <ele>537.8</ele>
        <time>1970-01-01T01:46:10.000Z</time>
      </trkpt>
      <trkpt lat="41.033646" lon="-6.75388">
        <ele>537.8</ele>
        <time>1970-01-01T01:46:11.000Z</time>
      </trkpt>
      <trkpt lat="41.033622" lon="-6.753922">
        <ele>537.8</ele>
        <time>1970-01-01T01:46:12.000Z</time>
      </trkpt>
      <trkpt lat="41.033601" lon="-6.753962">
        <ele>537.8</ele>
        <time>1970-01-01T01:46:13.000Z</time>
      </trkpt>
      <trkpt lat="41.033581" lon="-6.754002">
        <ele>537.9</ele>
        <time>1970-01-01T01:46:14.000Z</time>
      </trkpt>
      <trkpt lat="41.033561" lon="-6.754039">
        <ele>537.9</ele>
        <time>1970-01-01T01:46:15.000Z</time>
      </trkpt>
      <trkpt lat="41.033541" lon="-6.754075">
        <ele>538</ele>
        <time>1970-01-01T01:46:16.000Z</time>
      </trkpt>
      <trkpt lat="41.033521" lon="-6.75411">
        <ele>538.1</ele>
        <time>1970-01-01T01:46:17.000Z</time>
      </trkpt>
      <trkpt lat="41.0335" lon="-6.754146">
        <ele>538.3</ele>
        <time>1970-01-01T01:46:18.000Z</time>
      </trkpt>
      <trkpt lat="41.033474" lon="-6.754185">
        <ele>538.5</ele>
        <time>1970-01-01T01:46:19.000Z</time>
      </trkpt>
      <trkpt lat="41.033445" lon="-6.754227">
        <ele>538.6</ele>
        <time>1970-01-01T01:46:20.000Z</time>
      </trkpt>
      <trkpt lat="41.033412" lon="-6.754272">
        <ele>538.7</ele>
        <time>1970-01-01T01:46:21.000Z</time>
      </trkpt>
      <trkpt lat="41.033377" lon="-6.754319">
        <ele>538.7</ele>
        <time>1970-01-01T01:46:22.000Z</time>
      </trkpt>
      <trkpt lat="41.03334" lon="-6.754363">
        <ele>538.5</ele>
        <time>1970-01-01T01:46:23.000Z</time>
      </trkpt>
      <trkpt lat="41.033305" lon="-6.754407">
        <ele>538.2</ele>
        <time>1970-01-01T01:46:24.000Z</time>
      </trkpt>
      <trkpt lat="41.033272" lon="-6.75445">
        <ele>538</ele>
        <time>1970-01-01T01:46:25.000Z</time>
      </trkpt>
      <trkpt lat="41.03324" lon="-6.754489">
        <ele>537.7</ele>
        <time>1970-01-01T01:46:26.000Z</time>
      </trkpt>
      <trkpt lat="41.033204" lon="-6.754523">
        <ele>537.4</ele>
        <time>1970-01-01T01:46:27.000Z</time>
      </trkpt>
      <trkpt lat="41.033163" lon="-6.754555">
        <ele>537.2</ele>
        <time>1970-01-01T01:46:28.000Z</time>
      </trkpt>
      <trkpt lat="41.033118" lon="-6.754588">
        <ele>537</ele>
        <time>1970-01-01T01:46:29.000Z</time>
      </trkpt>
      <trkpt lat="41.033075" lon="-6.754624">
        <ele>536.9</ele>
        <time>1970-01-01T01:46:30.000Z</time>
      </trkpt>
      <trkpt lat="41.033035" lon="-6.754665">
        <ele>536.8</ele>
        <time>1970-01-01T01:46:31.000Z</time>
      </trkpt>
      <trkpt lat="41.033002" lon="-6.754709">
        <ele>536.6</ele>
        <time>1970-01-01T01:46:32.000Z</time>
      </trkpt>
      <trkpt lat="41.032974" lon="-6.754754">
        <ele>536.4</ele>
        <time>1970-01-01T01:46:33.000Z</time>
      </trkpt>
      <trkpt lat="41.032952" lon="-6.754797">
        <ele>536.3</ele>
        <time>1970-01-01T01:46:34.000Z</time>
      </trkpt>
      <trkpt lat="41.03293" lon="-6.754839">
        <ele>536.1</ele>
        <time>1970-01-01T01:46:35.000Z</time>
      </trkpt>
      <trkpt lat="41.03291" lon="-6.75488">
        <ele>536.1</ele>
        <time>1970-01-01T01:46:36.000Z</time>
      </trkpt>
      <trkpt lat="41.032892" lon="-6.754919">
        <ele>536.1</ele>
        <time>1970-01-01T01:46:37.000Z</time>
      </trkpt>
      <trkpt lat="41.032875" lon="-6.754957">
        <ele>536.1</ele>
        <time>1970-01-01T01:46:38.000Z</time>
      </trkpt>
      <trkpt lat="41.032859" lon="-6.754993">
        <ele>536.2</ele>
        <time>1970-01-01T01:46:39.000Z</time>
      </trkpt>
      <trkpt lat="41.032843" lon="-6.755028">
        <ele>536.3</ele>
        <time>1970-01-01T01:46:40.000Z</time>
      </trkpt>
      <trkpt lat="41.032825" lon="-6.755061">
        <ele>536.5</ele>
        <time>1970-01-01T01:46:41.000Z</time>
      </trkpt>
      <trkpt lat="41.032804" lon="-6.755093">
        <ele>536.7</ele>
        <time>1970-01-01T01:46:42.000Z</time>
      </trkpt>
      <trkpt lat="41.032782" lon="-6.755122">
        <ele>536.9</ele>
        <time>1970-01-01T01:46:43.000Z</time>
      </trkpt>
      <trkpt lat="41.032759" lon="-6.755151">
        <ele>537.1</ele>
        <time>1970-01-01T01:46:44.000Z</time>
      </trkpt>
      <trkpt lat="41.032735" lon="-6.755177">
        <ele>537.2</ele>
        <time>1970-01-01T01:46:45.000Z</time>
      </trkpt>
      <trkpt lat="41.032711" lon="-6.755199">
        <ele>537.3</ele>
        <time>1970-01-01T01:46:46.000Z</time>
      </trkpt>
      <trkpt lat="41.032685" lon="-6.755215">
        <ele>537.4</ele>
        <time>1970-01-01T01:46:47.000Z</time>
      </trkpt>
      <trkpt lat="41.032655" lon="-6.755227">
        <ele>537.5</ele>
        <time>1970-01-01T01:46:48.000Z</time>
      </trkpt>
      <trkpt lat="41.032626" lon="-6.755235">
        <ele>537.6</ele>
        <time>1970-01-01T01:46:49.000Z</time>
      </trkpt>
      <trkpt lat="41.032595" lon="-6.755239">
        <ele>537.7</ele>
        <time>1970-01-01T01:46:50.000Z</time>
      </trkpt>
      <trkpt lat="41.032566" lon="-6.75524">
        <ele>537.8</ele>
        <time>1970-01-01T01:46:51.000Z</time>
      </trkpt>
      <trkpt lat="41.032538" lon="-6.755241">
        <ele>538</ele>
        <time>1970-01-01T01:46:52.000Z</time>
      </trkpt>
      <trkpt lat="41.032512" lon="-6.755247">
        <ele>538.1</ele>
        <time>1970-01-01T01:46:53.000Z</time>
      </trkpt>
      <trkpt lat="41.032485" lon="-6.755261">
        <ele>538.2</ele>
        <time>1970-01-01T01:46:54.000Z</time>
      </trkpt>
      <trkpt lat="41.03246" lon="-6.755289">
        <ele>538.3</ele>
        <time>1970-01-01T01:46:55.000Z</time>
      </trkpt>
      <trkpt lat="41.032436" lon="-6.755328">
        <ele>538.2</ele>
        <time>1970-01-01T01:46:56.000Z</time>
      </trkpt>
      <trkpt lat="41.032416" lon="-6.755376">
        <ele>538.1</ele>
        <time>1970-01-01T01:46:57.000Z</time>
      </trkpt>
      <trkpt lat="41.032396" lon="-6.755425">
        <ele>537.9</ele>
        <time>1970-01-01T01:46:58.000Z</time>
      </trkpt>
      <trkpt lat="41.032378" lon="-6.75547">
        <ele>537.7</ele>
        <time>1970-01-01T01:46:59.000Z</time>
      </trkpt>
      <trkpt lat="41.032361" lon="-6.755513">
        <ele>537.5</ele>
        <time>1970-01-01T01:47:00.000Z</time>
      </trkpt>
      <trkpt lat="41.032343" lon="-6.755549">
        <ele>537.4</ele>
        <time>1970-01-01T01:47:01.000Z</time>
      </trkpt>
      <trkpt lat="41.032323" lon="-6.755583">
        <ele>537.3</ele>
        <time>1970-01-01T01:47:02.000Z</time>
      </trkpt>
      <trkpt lat="41.032297" lon="-6.755608">
        <ele>537.2</ele>
        <time>1970-01-01T01:47:03.000Z</time>
      </trkpt>
      <trkpt lat="41.032265" lon="-6.755633">
        <ele>537.2</ele>
        <time>1970-01-01T01:47:04.000Z</time>
      </trkpt>
      <trkpt lat="41.032226" lon="-6.755651">
        <ele>537.2</ele>
        <time>1970-01-01T01:47:05.000Z</time>
      </trkpt>
      <trkpt lat="41.032185" lon="-6.755666">
        <ele>537.2</ele>
        <time>1970-01-01T01:47:06.000Z</time>
      </trkpt>
      <trkpt lat="41.032143" lon="-6.755675">
        <ele>537.2</ele>
        <time>1970-01-01T01:47:07.000Z</time>
      </trkpt>
      <trkpt lat="41.032095" lon="-6.755675">
        <ele>537.1</ele>
        <time>1970-01-01T01:47:08.000Z</time>
      </trkpt>
      <trkpt lat="41.032044" lon="-6.755669">
        <ele>536.9</ele>
        <time>1970-01-01T01:47:09.000Z</time>
      </trkpt>
      <trkpt lat="41.031988" lon="-6.755658">
        <ele>536.6</ele>
        <time>1970-01-01T01:47:10.000Z</time>
      </trkpt>
      <trkpt lat="41.031936" lon="-6.75565">
        <ele>536.2</ele>
        <time>1970-01-01T01:47:11.000Z</time>
      </trkpt>
      <trkpt lat="41.031891" lon="-6.755647">
        <ele>535.8</ele>
        <time>1970-01-01T01:47:12.000Z</time>
      </trkpt>
      <trkpt lat="41.031851" lon="-6.755648">
        <ele>535.4</ele>
        <time>1970-01-01T01:47:13.000Z</time>
      </trkpt>
      <trkpt lat="41.031811" lon="-6.755652">
        <ele>535</ele>
        <time>1970-01-01T01:47:14.000Z</time>
      </trkpt>
      <trkpt lat="41.031765" lon="-6.755656">
        <ele>534.6</ele>
        <time>1970-01-01T01:47:15.000Z</time>
      </trkpt>
      <trkpt lat="41.031716" lon="-6.755662">
        <ele>534.1</ele>
        <time>1970-01-01T01:47:16.000Z</time>
      </trkpt>
      <trkpt lat="41.031665" lon="-6.755667">
        <ele>533.4</ele>
        <time>1970-01-01T01:47:17.000Z</time>
      </trkpt>
      <trkpt lat="41.031616" lon="-6.755672">
        <ele>532.7</ele>
        <time>1970-01-01T01:47:18.000Z</time>
      </trkpt>
      <trkpt lat="41.031576" lon="-6.755679">
        <ele>532.1</ele>
        <time>1970-01-01T01:47:19.000Z</time>
      </trkpt>
      <trkpt lat="41.031542" lon="-6.755686">
        <ele>531.5</ele>
        <time>1970-01-01T01:47:20.000Z</time>
      </trkpt>
      <trkpt lat="41.031513" lon="-6.755687">
        <ele>531</ele>
        <time>1970-01-01T01:47:21.000Z</time>
      </trkpt>
      <trkpt lat="41.031483" lon="-6.755683">
        <ele>530.6</ele>
        <time>1970-01-01T01:47:22.000Z</time>
      </trkpt>
      <trkpt lat="41.031449" lon="-6.755676">
        <ele>530.1</ele>
        <time>1970-01-01T01:47:23.000Z</time>
      </trkpt>
      <trkpt lat="41.031415" lon="-6.75567">
        <ele>529.6</ele>
        <time>1970-01-01T01:47:24.000Z</time>
      </trkpt>
      <trkpt lat="41.031384" lon="-6.755664">
        <ele>529.3</ele>
        <time>1970-01-01T01:47:25.000Z</time>
      </trkpt>
      <trkpt lat="41.031354" lon="-6.755656">
        <ele>528.9</ele>
        <time>1970-01-01T01:47:26.000Z</time>
      </trkpt>
      <trkpt lat="41.031323" lon="-6.755645">
        <ele>528.4</ele>
        <time>1970-01-01T01:47:27.000Z</time>
      </trkpt>
      <trkpt lat="41.031291" lon="-6.755634">
        <ele>528</ele>
        <time>1970-01-01T01:47:28.000Z</time>
      </trkpt>
      <trkpt lat="41.031255" lon="-6.755625">
        <ele>527.4</ele>
        <time>1970-01-01T01:47:29.000Z</time>
      </trkpt>
      <trkpt lat="41.031219" lon="-6.755618">
        <ele>526.9</ele>
        <time>1970-01-01T01:47:30.000Z</time>
      </trkpt>
      <trkpt lat="41.031181" lon="-6.755615">
        <ele>526.3</ele>
        <time>1970-01-01T01:47:31.000Z</time>
      </trkpt>
      <trkpt lat="41.031143" lon="-6.755618">
        <ele>525.8</ele>
        <time>1970-01-01T01:47:32.000Z</time>
      </trkpt>
      <trkpt lat="41.031106" lon="-6.755632">
        <ele>525.3</ele>
        <time>1970-01-01T01:47:33.000Z</time>
      </trkpt>
      <trkpt lat="41.031067" lon="-6.755652">
        <ele>524.8</ele>
        <time>1970-01-01T01:47:34.000Z</time>
      </trkpt>
      <trkpt lat="41.031028" lon="-6.755678">
        <ele>524.3</ele>
        <time>1970-01-01T01:47:35.000Z</time>
      </trkpt>
      <trkpt lat="41.030993" lon="-6.755702">
        <ele>523.8</ele>
        <time>1970-01-01T01:47:36.000Z</time>
      </trkpt>
      <trkpt lat="41.03096" lon="-6.755724">
        <ele>523.3</ele>
        <time>1970-01-01T01:47:37.000Z</time>
      </trkpt>
      <trkpt lat="41.03093" lon="-6.755743">
        <ele>522.9</ele>
        <time>1970-01-01T01:47:38.000Z</time>
      </trkpt>
      <trkpt lat="41.030895" lon="-6.755764">
        <ele>522.3</ele>
        <time>1970-01-01T01:47:39.000Z</time>
      </trkpt>
      <trkpt lat="41.030861" lon="-6.75579">
        <ele>521.8</ele>
        <time>1970-01-01T01:47:40.000Z</time>
      </trkpt>
      <trkpt lat="41.030828" lon="-6.755817">
        <ele>521.3</ele>
        <time>1970-01-01T01:47:41.000Z</time>
      </trkpt>
      <trkpt lat="41.030796" lon="-6.755843">
        <ele>520.8</ele>
        <time>1970-01-01T01:47:42.000Z</time>
      </trkpt>
      <trkpt lat="41.030764" lon="-6.755871">
        <ele>520.3</ele>
        <time>1970-01-01T01:47:43.000Z</time>
      </trkpt>
      <trkpt lat="41.030733" lon="-6.755902">
        <ele>519.8</ele>
        <time>1970-01-01T01:47:44.000Z</time>
      </trkpt>
      <trkpt lat="41.030706" lon="-6.755935">
        <ele>519.3</ele>
        <time>1970-01-01T01:47:45.000Z</time>
      </trkpt>
      <trkpt lat="41.030683" lon="-6.755964">
        <ele>518.9</ele>
        <time>1970-01-01T01:47:46.000Z</time>
      </trkpt>
      <trkpt lat="41.030665" lon="-6.755989">
        <ele>517.9</ele>
        <time>1970-01-01T01:47:47.000Z</time>
      </trkpt>
      <trkpt lat="41.030649" lon="-6.756008">
        <ele>518</ele>
        <time>1970-01-01T01:47:48.000Z</time>
      </trkpt>
      <trkpt lat="41.030634" lon="-6.756026">
        <ele>518.1</ele>
        <time>1970-01-01T01:47:49.000Z</time>
      </trkpt>
      <trkpt lat="41.030617" lon="-6.756044">
        <ele>518.2</ele>
        <time>1970-01-01T01:47:50.000Z</time>
      </trkpt>
      <trkpt lat="41.030602" lon="-6.756062">
        <ele>518.3</ele>
        <time>1970-01-01T01:47:51.000Z</time>
      </trkpt>
      <trkpt lat="41.030588" lon="-6.756081">
        <ele>518.4</ele>
        <time>1970-01-01T01:47:52.000Z</time>
      </trkpt>
      <trkpt lat="41.030577" lon="-6.756101">
        <ele>518.5</ele>
        <time>1970-01-01T01:47:53.000Z</time>
      </trkpt>
      <trkpt lat="41.030568" lon="-6.756127">
        <ele>518.6</ele>
        <time>1970-01-01T01:47:54.000Z</time>
      </trkpt>
      <trkpt lat="41.030563" lon="-6.756158">
        <ele>518.7</ele>
        <time>1970-01-01T01:47:55.000Z</time>
      </trkpt>
      <trkpt lat="41.030562" lon="-6.756191">
        <ele>518.8</ele>
        <time>1970-01-01T01:47:56.000Z</time>
      </trkpt>
      <trkpt lat="41.030565" lon="-6.756222">
        <ele>518.9</ele>
        <time>1970-01-01T01:47:57.000Z</time>
      </trkpt>
      <trkpt lat="41.03057" lon="-6.756252">
        <ele>518.9</ele>
        <time>1970-01-01T01:47:58.000Z</time>
      </trkpt>
      <trkpt lat="41.030575" lon="-6.756278">
        <ele>519</ele>
        <time>1970-01-01T01:47:59.000Z</time>
      </trkpt>
      <trkpt lat="41.030579" lon="-6.756299">
        <ele>519</ele>
        <time>1970-01-01T01:48:00.000Z</time>
      </trkpt>
      <trkpt lat="41.030583" lon="-6.756315">
        <ele>519.1</ele>
        <time>1970-01-01T01:48:01.000Z</time>
      </trkpt>
      <trkpt lat="41.030587" lon="-6.756329">
        <ele>519.1</ele>
        <time>1970-01-01T01:48:02.000Z</time>
      </trkpt>
      <trkpt lat="41.030588" lon="-6.756342">
        <ele>518.9</ele>
        <time>1970-01-01T01:48:03.000Z</time>
      </trkpt>
      <trkpt lat="41.030588" lon="-6.756354">
        <ele>518.7</ele>
        <time>1970-01-01T01:48:04.000Z</time>
      </trkpt>
      <trkpt lat="41.030584" lon="-6.756367">
        <ele>518.5</ele>
        <time>1970-01-01T01:48:05.000Z</time>
      </trkpt>
      <trkpt lat="41.030578" lon="-6.756379">
        <ele>518.4</ele>
        <time>1970-01-01T01:48:06.000Z</time>
      </trkpt>
      <trkpt lat="41.030569" lon="-6.756382">
        <ele>518.2</ele>
        <time>1970-01-01T01:48:07.000Z</time>
      </trkpt>
      <trkpt lat="41.030559" lon="-6.756377">
        <ele>518</ele>
        <time>1970-01-01T01:48:08.000Z</time>
      </trkpt>
      <trkpt lat="41.030547" lon="-6.756365">
        <ele>517.8</ele>
        <time>1970-01-01T01:48:09.000Z</time>
      </trkpt>
      <trkpt lat="41.030534" lon="-6.756352">
        <ele>517.5</ele>
        <time>1970-01-01T01:48:10.000Z</time>
      </trkpt>
      <trkpt lat="41.03052" lon="-6.756341">
        <ele>517.2</ele>
        <time>1970-01-01T01:48:11.000Z</time>
      </trkpt>
      <trkpt lat="41.030507" lon="-6.756334">
        <ele>516.9</ele>
        <time>1970-01-01T01:48:12.000Z</time>
      </trkpt>
      <trkpt lat="41.030494" lon="-6.756328">
        <ele>516.7</ele>
        <time>1970-01-01T01:48:13.000Z</time>
      </trkpt>
      <trkpt lat="41.030489" lon="-6.756322">
        <ele>516.6</ele>
        <time>1970-01-01T01:48:14.000Z</time>
      </trkpt>
      <trkpt lat="41.030488" lon="-6.756315">
        <ele>516.5</ele>
        <time>1970-01-01T01:48:15.000Z</time>
      </trkpt>
      <trkpt lat="41.030489" lon="-6.756312">
        <ele>516.5</ele>
        <time>1970-01-01T01:48:16.000Z</time>
      </trkpt>
      <trkpt lat="41.03049" lon="-6.75631">
        <ele>516.4</ele>
        <time>1970-01-01T01:48:17.000Z</time>
      </trkpt>
      <trkpt lat="41.030489" lon="-6.756309">
        <ele>516.4</ele>
        <time>1970-01-01T01:48:18.000Z</time>
      </trkpt>
      <trkpt lat="41.030489" lon="-6.756309">
        <ele>516.4</ele>
        <time>1970-01-01T01:48:19.000Z</time>
      </trkpt>
      <trkpt lat="41.030489" lon="-6.756309">
        <ele>516.4</ele>
        <time>1970-01-01T01:48:20.000Z</time>
      </trkpt>
      <trkpt lat="41.030488" lon="-6.756309">
        <ele>516.4</ele>
        <time>1970-01-01T01:48:21.000Z</time>
      </trkpt>
      <trkpt lat="41.030487" lon="-6.75631">
        <ele>516.4</ele>
        <time>1970-01-01T01:48:22.000Z</time>
      </trkpt>
      <trkpt lat="41.030469" lon="-6.756314">
        <ele>516</ele>
        <time>1970-01-01T01:48:23.000Z</time>
      </trkpt>
      <trkpt lat="41.030468" lon="-6.756318">
        <ele>516</ele>
        <time>1970-01-01T01:48:24.000Z</time>
      </trkpt>
      <trkpt lat="41.030468" lon="-6.756322">
        <ele>515.9</ele>
        <time>1970-01-01T01:48:48.000Z</time>
      </trkpt>
      <trkpt lat="41.030468" lon="-6.756326">
        <ele>515.9</ele>
        <time>1970-01-01T01:48:49.000Z</time>
      </trkpt>
      <trkpt lat="41.030468" lon="-6.756328">
        <ele>515.9</ele>
        <time>1970-01-01T01:48:50.000Z</time>
      </trkpt>
      <trkpt lat="41.030468" lon="-6.756329">
        <ele>515.8</ele>
        <time>1970-01-01T01:48:51.000Z</time>
      </trkpt>
      <trkpt lat="41.030467" lon="-6.756331">
        <ele>515.8</ele>
        <time>1970-01-01T01:48:52.000Z</time>
      </trkpt>
      <trkpt lat="41.030467" lon="-6.756334">
        <ele>515.8</ele>
        <time>1970-01-01T01:48:53.000Z</time>
      </trkpt>
      <trkpt lat="41.030466" lon="-6.756336">
        <ele>515.7</ele>
        <time>1970-01-01T01:48:54.000Z</time>
      </trkpt>
      <trkpt lat="41.030468" lon="-6.7564">
        <ele>514.9</ele>
        <time>1970-01-01T01:48:55.000Z</time>
      </trkpt>
      <trkpt lat="41.030475" lon="-6.756425">
        <ele>514.6</ele>
        <time>1970-01-01T01:48:56.000Z</time>
      </trkpt>
      <trkpt lat="41.030487" lon="-6.756455">
        <ele>514.1</ele>
        <time>1970-01-01T01:49:08.000Z</time>
      </trkpt>
      <trkpt lat="41.030503" lon="-6.756495">
        <ele>513.5</ele>
        <time>1970-01-01T01:49:09.000Z</time>
      </trkpt>
      <trkpt lat="41.030524" lon="-6.756544">
        <ele>512.8</ele>
        <time>1970-01-01T01:49:10.000Z</time>
      </trkpt>
      <trkpt lat="41.030551" lon="-6.756599">
        <ele>511.9</ele>
        <time>1970-01-01T01:49:11.000Z</time>
      </trkpt>
      <trkpt lat="41.03058" lon="-6.756657">
        <ele>511</ele>
        <time>1970-01-01T01:49:12.000Z</time>
      </trkpt>
      <trkpt lat="41.030616" lon="-6.756718">
        <ele>510</ele>
        <time>1970-01-01T01:49:13.000Z</time>
      </trkpt>
      <trkpt lat="41.030658" lon="-6.756781">
        <ele>508.9</ele>
        <time>1970-01-01T01:49:14.000Z</time>
      </trkpt>
      <trkpt lat="41.030706" lon="-6.756844">
        <ele>507.7</ele>
        <time>1970-01-01T01:49:15.000Z</time>
      </trkpt>
      <trkpt lat="41.030755" lon="-6.756902">
        <ele>506.6</ele>
        <time>1970-01-01T01:49:16.000Z</time>
      </trkpt>
      <trkpt lat="41.0308" lon="-6.756955">
        <ele>505.5</ele>
        <time>1970-01-01T01:49:17.000Z</time>
      </trkpt>
      <trkpt lat="41.030842" lon="-6.757005">
        <ele>504.6</ele>
        <time>1970-01-01T01:49:18.000Z</time>
      </trkpt>
      <trkpt lat="41.030881" lon="-6.75705">
        <ele>503.7</ele>
        <time>1970-01-01T01:49:19.000Z</time>
      </trkpt>
      <trkpt lat="41.030917" lon="-6.757088">
        <ele>502.9</ele>
        <time>1970-01-01T01:49:20.000Z</time>
      </trkpt>
      <trkpt lat="41.030948" lon="-6.757121">
        <ele>502.2</ele>
        <time>1970-01-01T01:49:21.000Z</time>
      </trkpt>
      <trkpt lat="41.030968" lon="-6.75715">
        <ele>501.7</ele>
        <time>1970-01-01T01:49:22.000Z</time>
      </trkpt>
      <trkpt lat="41.030975" lon="-6.757174">
        <ele>501.3</ele>
        <time>1970-01-01T01:49:23.000Z</time>
      </trkpt>
      <trkpt lat="41.030968" lon="-6.757188">
        <ele>501.1</ele>
        <time>1970-01-01T01:49:24.000Z</time>
      </trkpt>
      <trkpt lat="41.030958" lon="-6.75719">
        <ele>500.9</ele>
        <time>1970-01-01T01:49:25.000Z</time>
      </trkpt>
      <trkpt lat="41.030941" lon="-6.757185">
        <ele>500.6</ele>
        <time>1970-01-01T01:49:26.000Z</time>
      </trkpt>
      <trkpt lat="41.030912" lon="-6.757171">
        <ele>500.1</ele>
        <time>1970-01-01T01:49:27.000Z</time>
      </trkpt>
      <trkpt lat="41.030862" lon="-6.757152">
        <ele>499.2</ele>
        <time>1970-01-01T01:49:28.000Z</time>
      </trkpt>
      <trkpt lat="41.030799" lon="-6.757131">
        <ele>498.1</ele>
        <time>1970-01-01T01:49:29.000Z</time>
      </trkpt>
      <trkpt lat="41.030729" lon="-6.757111">
        <ele>496.8</ele>
        <time>1970-01-01T01:49:30.000Z</time>
      </trkpt>
      <trkpt lat="41.03066" lon="-6.757093">
        <ele>495.6</ele>
        <time>1970-01-01T01:49:31.000Z</time>
      </trkpt>
      <trkpt lat="41.030589" lon="-6.75708">
        <ele>494.4</ele>
        <time>1970-01-01T01:49:32.000Z</time>
      </trkpt>
      <trkpt lat="41.030516" lon="-6.757069">
        <ele>493.1</ele>
        <time>1970-01-01T01:49:33.000Z</time>
      </trkpt>
      <trkpt lat="41.030442" lon="-6.757061">
        <ele>491.8</ele>
        <time>1970-01-01T01:49:34.000Z</time>
      </trkpt>
      <trkpt lat="41.030368" lon="-6.757055">
        <ele>490.5</ele>
        <time>1970-01-01T01:49:35.000Z</time>
      </trkpt>
      <trkpt lat="41.030296" lon="-6.757051">
        <ele>489.3</ele>
        <time>1970-01-01T01:49:36.000Z</time>
      </trkpt>
      <trkpt lat="41.030224" lon="-6.757044">
        <ele>488</ele>
        <time>1970-01-01T01:49:37.000Z</time>
      </trkpt>
      <trkpt lat="41.030151" lon="-6.757029">
        <ele>486.7</ele>
        <time>1970-01-01T01:49:38.000Z</time>
      </trkpt>
      <trkpt lat="41.03008" lon="-6.757007">
        <ele>485.5</ele>
        <time>1970-01-01T01:49:39.000Z</time>
      </trkpt>
      <trkpt lat="41.030009" lon="-6.756976">
        <ele>484.2</ele>
        <time>1970-01-01T01:49:40.000Z</time>
      </trkpt>
      <trkpt lat="41.02994" lon="-6.756938">
        <ele>482.9</ele>
        <time>1970-01-01T01:49:41.000Z</time>
      </trkpt>
      <trkpt lat="41.029871" lon="-6.756893">
        <ele>481.5</ele>
        <time>1970-01-01T01:49:42.000Z</time>
      </trkpt>
      <trkpt lat="41.029803" lon="-6.756841">
        <ele>480.2</ele>
        <time>1970-01-01T01:49:43.000Z</time>
      </trkpt>
      <trkpt lat="41.029734" lon="-6.756783">
        <ele>478.7</ele>
        <time>1970-01-01T01:49:44.000Z</time>
      </trkpt>
      <trkpt lat="41.029664" lon="-6.756722">
        <ele>477.3</ele>
        <time>1970-01-01T01:49:45.000Z</time>
      </trkpt>
      <trkpt lat="41.029595" lon="-6.756662">
        <ele>475.9</ele>
        <time>1970-01-01T01:49:46.000Z</time>
      </trkpt>
      <trkpt lat="41.029532" lon="-6.756605">
        <ele>474.5</ele>
        <time>1970-01-01T01:49:47.000Z</time>
      </trkpt>
      <trkpt lat="41.029475" lon="-6.756545">
        <ele>473.3</ele>
        <time>1970-01-01T01:49:48.000Z</time>
      </trkpt>
      <trkpt lat="41.029426" lon="-6.756486">
        <ele>472.1</ele>
        <time>1970-01-01T01:49:49.000Z</time>
      </trkpt>
      <trkpt lat="41.029383" lon="-6.756427">
        <ele>471</ele>
        <time>1970-01-01T01:49:50.000Z</time>
      </trkpt>
      <trkpt lat="41.029347" lon="-6.756371">
        <ele>470.1</ele>
        <time>1970-01-01T01:49:51.000Z</time>
      </trkpt>
      <trkpt lat="41.029319" lon="-6.756316">
        <ele>469.2</ele>
        <time>1970-01-01T01:49:52.000Z</time>
      </trkpt>
      <trkpt lat="41.029298" lon="-6.75626">
        <ele>468.4</ele>
        <time>1970-01-01T01:49:53.000Z</time>
      </trkpt>
      <trkpt lat="41.029283" lon="-6.756206">
        <ele>467.6</ele>
        <time>1970-01-01T01:49:54.000Z</time>
      </trkpt>
      <trkpt lat="41.029269" lon="-6.75616">
        <ele>467</ele>
        <time>1970-01-01T01:49:55.000Z</time>
      </trkpt>
      <trkpt lat="41.029252" lon="-6.75613">
        <ele>466.5</ele>
        <time>1970-01-01T01:49:56.000Z</time>
      </trkpt>
      <trkpt lat="41.029223" lon="-6.756113">
        <ele>466</ele>
        <time>1970-01-01T01:49:57.000Z</time>
      </trkpt>
      <trkpt lat="41.029185" lon="-6.756111">
        <ele>465.3</ele>
        <time>1970-01-01T01:49:58.000Z</time>
      </trkpt>
      <trkpt lat="41.029139" lon="-6.75612">
        <ele>464.5</ele>
        <time>1970-01-01T01:49:59.000Z</time>
      </trkpt>
      <trkpt lat="41.02909" lon="-6.75614">
        <ele>463.6</ele>
        <time>1970-01-01T01:50:00.000Z</time>
      </trkpt>
      <trkpt lat="41.029045" lon="-6.75617">
        <ele>462.7</ele>
        <time>1970-01-01T01:50:01.000Z</time>
      </trkpt>
      <trkpt lat="41.029012" lon="-6.756208">
        <ele>462</ele>
        <time>1970-01-01T01:50:02.000Z</time>
      </trkpt>
      <trkpt lat="41.028995" lon="-6.756256">
        <ele>461.3</ele>
        <time>1970-01-01T01:50:03.000Z</time>
      </trkpt>
      <trkpt lat="41.028995" lon="-6.756315">
        <ele>460.5</ele>
        <time>1970-01-01T01:50:04.000Z</time>
      </trkpt>
      <trkpt lat="41.029006" lon="-6.756385">
        <ele>459.6</ele>
        <time>1970-01-01T01:50:05.000Z</time>
      </trkpt>
      <trkpt lat="41.029024" lon="-6.756464">
        <ele>458.5</ele>
        <time>1970-01-01T01:50:06.000Z</time>
      </trkpt>
      <trkpt lat="41.029042" lon="-6.756555">
        <ele>457.2</ele>
        <time>1970-01-01T01:50:07.000Z</time>
      </trkpt>
      <trkpt lat="41.029062" lon="-6.756651">
        <ele>455.9</ele>
        <time>1970-01-01T01:50:08.000Z</time>
      </trkpt>
      <trkpt lat="41.029086" lon="-6.756752">
        <ele>454.6</ele>
        <time>1970-01-01T01:50:09.000Z</time>
      </trkpt>
      <trkpt lat="41.029115" lon="-6.756854">
        <ele>454</ele>
        <time>1970-01-01T01:50:10.000Z</time>
      </trkpt>
      <trkpt lat="41.029143" lon="-6.756961">
        <ele>454.3</ele>
        <time>1970-01-01T01:50:11.000Z</time>
      </trkpt>
      <trkpt lat="41.029169" lon="-6.757072">
        <ele>454.7</ele>
        <time>1970-01-01T01:50:12.000Z</time>
      </trkpt>
      <trkpt lat="41.029194" lon="-6.757188">
        <ele>455</ele>
        <time>1970-01-01T01:50:13.000Z</time>
      </trkpt>
      <trkpt lat="41.029218" lon="-6.757309">
        <ele>455.4</ele>
        <time>1970-01-01T01:50:14.000Z</time>
      </trkpt>
      <trkpt lat="41.029245" lon="-6.757433">
        <ele>455.7</ele>
        <time>1970-01-01T01:50:15.000Z</time>
      </trkpt>
      <trkpt lat="41.029275" lon="-6.757557">
        <ele>456.1</ele>
        <time>1970-01-01T01:50:16.000Z</time>
      </trkpt>
      <trkpt lat="41.029309" lon="-6.757677">
        <ele>456.4</ele>
        <time>1970-01-01T01:50:17.000Z</time>
      </trkpt>
      <trkpt lat="41.029345" lon="-6.757792">
        <ele>456.8</ele>
        <time>1970-01-01T01:50:18.000Z</time>
      </trkpt>
      <trkpt lat="41.029383" lon="-6.757904">
        <ele>457.1</ele>
        <time>1970-01-01T01:50:19.000Z</time>
      </trkpt>
      <trkpt lat="41.029422" lon="-6.758016">
        <ele>457.5</ele>
        <time>1970-01-01T01:50:20.000Z</time>
      </trkpt>
      <trkpt lat="41.029461" lon="-6.758125">
        <ele>457.8</ele>
        <time>1970-01-01T01:50:21.000Z</time>
      </trkpt>
      <trkpt lat="41.029501" lon="-6.758226">
        <ele>458.1</ele>
        <time>1970-01-01T01:50:22.000Z</time>
      </trkpt>
      <trkpt lat="41.029547" lon="-6.758317">
        <ele>458.5</ele>
        <time>1970-01-01T01:50:23.000Z</time>
      </trkpt>
      <trkpt lat="41.029601" lon="-6.758399">
        <ele>458.8</ele>
        <time>1970-01-01T01:50:24.000Z</time>
      </trkpt>
      <trkpt lat="41.029667" lon="-6.758476">
        <ele>459.1</ele>
        <time>1970-01-01T01:50:25.000Z</time>
      </trkpt>
      <trkpt lat="41.029741" lon="-6.758552">
        <ele>459.4</ele>
        <time>1970-01-01T01:50:26.000Z</time>
      </trkpt>
      <trkpt lat="41.029818" lon="-6.758628">
        <ele>459.8</ele>
        <time>1970-01-01T01:50:27.000Z</time>
      </trkpt>
      <trkpt lat="41.029892" lon="-6.758706">
        <ele>460.1</ele>
        <time>1970-01-01T01:50:28.000Z</time>
      </trkpt>
      <trkpt lat="41.029959" lon="-6.758782">
        <ele>460.5</ele>
        <time>1970-01-01T01:50:29.000Z</time>
      </trkpt>
      <trkpt lat="41.030019" lon="-6.758855">
        <ele>460.8</ele>
        <time>1970-01-01T01:50:30.000Z</time>
      </trkpt>
      <trkpt lat="41.030067" lon="-6.758928">
        <ele>461.1</ele>
        <time>1970-01-01T01:50:31.000Z</time>
      </trkpt>
      <trkpt lat="41.030101" lon="-6.759007">
        <ele>461.3</ele>
        <time>1970-01-01T01:50:32.000Z</time>
      </trkpt>
      <trkpt lat="41.030129" lon="-6.759091">
        <ele>461.6</ele>
        <time>1970-01-01T01:50:33.000Z</time>
      </trkpt>
      <trkpt lat="41.030157" lon="-6.759182">
        <ele>461.8</ele>
        <time>1970-01-01T01:50:34.000Z</time>
      </trkpt>
      <trkpt lat="41.030195" lon="-6.75927">
        <ele>462.1</ele>
        <time>1970-01-01T01:50:35.000Z</time>
      </trkpt>
      <trkpt lat="41.030242" lon="-6.759353">
        <ele>462.4</ele>
        <time>1970-01-01T01:50:36.000Z</time>
      </trkpt>
      <trkpt lat="41.030296" lon="-6.759432">
        <ele>462.7</ele>
        <time>1970-01-01T01:50:37.000Z</time>
      </trkpt>
      <trkpt lat="41.030353" lon="-6.759508">
        <ele>463</ele>
        <time>1970-01-01T01:50:38.000Z</time>
      </trkpt>
      <trkpt lat="41.030412" lon="-6.759582">
        <ele>463.3</ele>
        <time>1970-01-01T01:50:39.000Z</time>
      </trkpt>
      <trkpt lat="41.030471" lon="-6.759654">
        <ele>463.6</ele>
        <time>1970-01-01T01:50:40.000Z</time>
      </trkpt>
      <trkpt lat="41.030528" lon="-6.759727">
        <ele>463.9</ele>
        <time>1970-01-01T01:50:41.000Z</time>
      </trkpt>
      <trkpt lat="41.030578" lon="-6.759803">
        <ele>464.2</ele>
        <time>1970-01-01T01:50:42.000Z</time>
      </trkpt>
      <trkpt lat="41.03061" lon="-6.759879">
        <ele>464.4</ele>
        <time>1970-01-01T01:50:43.000Z</time>
      </trkpt>
      <trkpt lat="41.030622" lon="-6.759949">
        <ele>464.6</ele>
        <time>1970-01-01T01:50:44.000Z</time>
      </trkpt>
      <trkpt lat="41.030617" lon="-6.760015">
        <ele>464.8</ele>
        <time>1970-01-01T01:50:45.000Z</time>
      </trkpt>
      <trkpt lat="41.030599" lon="-6.760078">
        <ele>465</ele>
        <time>1970-01-01T01:50:46.000Z</time>
      </trkpt>
      <trkpt lat="41.030567" lon="-6.760147">
        <ele>465.2</ele>
        <time>1970-01-01T01:50:47.000Z</time>
      </trkpt>
      <trkpt lat="41.030537" lon="-6.760219">
        <ele>465.5</ele>
        <time>1970-01-01T01:50:48.000Z</time>
      </trkpt>
      <trkpt lat="41.030525" lon="-6.76029">
        <ele>465.7</ele>
        <time>1970-01-01T01:50:49.000Z</time>
      </trkpt>
      <trkpt lat="41.030542" lon="-6.760353">
        <ele>465.9</ele>
        <time>1970-01-01T01:50:50.000Z</time>
      </trkpt>
      <trkpt lat="41.030573" lon="-6.760407">
        <ele>466.1</ele>
        <time>1970-01-01T01:50:51.000Z</time>
      </trkpt>
      <trkpt lat="41.03061" lon="-6.760458">
        <ele>466.3</ele>
        <time>1970-01-01T01:50:52.000Z</time>
      </trkpt>
      <trkpt lat="41.030646" lon="-6.760507">
        <ele>466.5</ele>
        <time>1970-01-01T01:50:53.000Z</time>
      </trkpt>
      <trkpt lat="41.03068" lon="-6.760558">
        <ele>466.6</ele>
        <time>1970-01-01T01:50:54.000Z</time>
      </trkpt>
      <trkpt lat="41.030715" lon="-6.760609">
        <ele>466.8</ele>
        <time>1970-01-01T01:50:55.000Z</time>
      </trkpt>
      <trkpt lat="41.030747" lon="-6.760661">
        <ele>467</ele>
        <time>1970-01-01T01:50:56.000Z</time>
      </trkpt>
      <trkpt lat="41.030777" lon="-6.760713">
        <ele>467.2</ele>
        <time>1970-01-01T01:50:57.000Z</time>
      </trkpt>
      <trkpt lat="41.030801" lon="-6.760766">
        <ele>467.4</ele>
        <time>1970-01-01T01:50:58.000Z</time>
      </trkpt>
      <trkpt lat="41.030822" lon="-6.76082">
        <ele>467.6</ele>
        <time>1970-01-01T01:50:59.000Z</time>
      </trkpt>
      <trkpt lat="41.03084" lon="-6.760876">
        <ele>467.7</ele>
        <time>1970-01-01T01:51:00.000Z</time>
      </trkpt>
      <trkpt lat="41.030857" lon="-6.760933">
        <ele>467.9</ele>
        <time>1970-01-01T01:51:01.000Z</time>
      </trkpt>
      <trkpt lat="41.030875" lon="-6.76099">
        <ele>468.1</ele>
        <time>1970-01-01T01:51:02.000Z</time>
      </trkpt>
      <trkpt lat="41.030894" lon="-6.761048">
        <ele>468.3</ele>
        <time>1970-01-01T01:51:03.000Z</time>
      </trkpt>
      <trkpt lat="41.030912" lon="-6.761106">
        <ele>468.4</ele>
        <time>1970-01-01T01:51:04.000Z</time>
      </trkpt>
      <trkpt lat="41.030929" lon="-6.761165">
        <ele>468.6</ele>
        <time>1970-01-01T01:51:05.000Z</time>
      </trkpt>
      <trkpt lat="41.030945" lon="-6.761224">
        <ele>468.8</ele>
        <time>1970-01-01T01:51:06.000Z</time>
      </trkpt>
      <trkpt lat="41.03096" lon="-6.761282">
        <ele>469</ele>
        <time>1970-01-01T01:51:07.000Z</time>
      </trkpt>
      <trkpt lat="41.030975" lon="-6.76134">
        <ele>469.1</ele>
        <time>1970-01-01T01:51:08.000Z</time>
      </trkpt>
      <trkpt lat="41.030991" lon="-6.761396">
        <ele>469.3</ele>
        <time>1970-01-01T01:51:09.000Z</time>
      </trkpt>
      <trkpt lat="41.031008" lon="-6.761451">
        <ele>469.5</ele>
        <time>1970-01-01T01:51:10.000Z</time>
      </trkpt>
      <trkpt lat="41.031026" lon="-6.761507">
        <ele>469.6</ele>
        <time>1970-01-01T01:51:11.000Z</time>
      </trkpt>
      <trkpt lat="41.031042" lon="-6.761564">
        <ele>469.8</ele>
        <time>1970-01-01T01:51:12.000Z</time>
      </trkpt>
      <trkpt lat="41.031055" lon="-6.761622">
        <ele>470</ele>
        <time>1970-01-01T01:51:13.000Z</time>
      </trkpt>
      <trkpt lat="41.031062" lon="-6.761678">
        <ele>470.1</ele>
        <time>1970-01-01T01:51:14.000Z</time>
      </trkpt>
      <trkpt lat="41.031063" lon="-6.761735">
        <ele>470.3</ele>
        <time>1970-01-01T01:51:15.000Z</time>
      </trkpt>
      <trkpt lat="41.031057" lon="-6.761791">
        <ele>470.5</ele>
        <time>1970-01-01T01:51:16.000Z</time>
      </trkpt>
      <trkpt lat="41.031045" lon="-6.761847">
        <ele>470.6</ele>
        <time>1970-01-01T01:51:17.000Z</time>
      </trkpt>
      <trkpt lat="41.031027" lon="-6.761899">
        <ele>470.8</ele>
        <time>1970-01-01T01:51:18.000Z</time>
      </trkpt>
      <trkpt lat="41.031005" lon="-6.76195">
        <ele>470.9</ele>
        <time>1970-01-01T01:51:19.000Z</time>
      </trkpt>
      <trkpt lat="41.030982" lon="-6.761998">
        <ele>471.1</ele>
        <time>1970-01-01T01:51:20.000Z</time>
      </trkpt>
      <trkpt lat="41.030958" lon="-6.762041">
        <ele>471.3</ele>
        <time>1970-01-01T01:51:21.000Z</time>
      </trkpt>
      <trkpt lat="41.030935" lon="-6.762081">
        <ele>471.4</ele>
        <time>1970-01-01T01:51:22.000Z</time>
      </trkpt>
      <trkpt lat="41.030914" lon="-6.762119">
        <ele>471.5</ele>
        <time>1970-01-01T01:51:23.000Z</time>
      </trkpt>
      <trkpt lat="41.030893" lon="-6.762158">
        <ele>471.7</ele>
        <time>1970-01-01T01:51:24.000Z</time>
      </trkpt>
      <trkpt lat="41.030873" lon="-6.762198">
        <ele>471.8</ele>
        <time>1970-01-01T01:51:25.000Z</time>
      </trkpt>
      <trkpt lat="41.030854" lon="-6.762237">
        <ele>471.9</ele>
        <time>1970-01-01T01:51:26.000Z</time>
      </trkpt>
      <trkpt lat="41.030837" lon="-6.762274">
        <ele>472</ele>
        <time>1970-01-01T01:51:27.000Z</time>
      </trkpt>
      <trkpt lat="41.030822" lon="-6.762308">
        <ele>472.2</ele>
        <time>1970-01-01T01:51:28.000Z</time>
      </trkpt>
      <trkpt lat="41.030809" lon="-6.76234">
        <ele>472.3</ele>
        <time>1970-01-01T01:51:29.000Z</time>
      </trkpt>
      <trkpt lat="41.030798" lon="-6.762371">
        <ele>472.4</ele>
        <time>1970-01-01T01:51:30.000Z</time>
      </trkpt>
      <trkpt lat="41.030788" lon="-6.762404">
        <ele>472.5</ele>
        <time>1970-01-01T01:51:31.000Z</time>
      </trkpt>
      <trkpt lat="41.03078" lon="-6.762437">
        <ele>472.6</ele>
        <time>1970-01-01T01:51:32.000Z</time>
      </trkpt>
      <trkpt lat="41.030772" lon="-6.762472">
        <ele>472.7</ele>
        <time>1970-01-01T01:51:33.000Z</time>
      </trkpt>
      <trkpt lat="41.030765" lon="-6.762506">
        <ele>472.8</ele>
        <time>1970-01-01T01:51:34.000Z</time>
      </trkpt>
      <trkpt lat="41.030758" lon="-6.76254">
        <ele>472.9</ele>
        <time>1970-01-01T01:51:35.000Z</time>
      </trkpt>
      <trkpt lat="41.030751" lon="-6.762573">
        <ele>473</ele>
        <time>1970-01-01T01:51:36.000Z</time>
      </trkpt>
      <trkpt lat="41.030744" lon="-6.762607">
        <ele>473</ele>
        <time>1970-01-01T01:51:37.000Z</time>
      </trkpt>
      <trkpt lat="41.030738" lon="-6.762641">
        <ele>473.1</ele>
        <time>1970-01-01T01:51:38.000Z</time>
      </trkpt>
      <trkpt lat="41.030733" lon="-6.762674">
        <ele>473.2</ele>
        <time>1970-01-01T01:51:39.000Z</time>
      </trkpt>
      <trkpt lat="41.030729" lon="-6.762705">
        <ele>473.3</ele>
        <time>1970-01-01T01:51:40.000Z</time>
      </trkpt>
      <trkpt lat="41.030724" lon="-6.762735">
        <ele>473.4</ele>
        <time>1970-01-01T01:51:41.000Z</time>
      </trkpt>
      <trkpt lat="41.030719" lon="-6.762765">
        <ele>473.5</ele>
        <time>1970-01-01T01:51:42.000Z</time>
      </trkpt>
      <trkpt lat="41.030713" lon="-6.762794">
        <ele>473.6</ele>
        <time>1970-01-01T01:51:43.000Z</time>
      </trkpt>
      <trkpt lat="41.030707" lon="-6.762824">
        <ele>473.7</ele>
        <time>1970-01-01T01:51:44.000Z</time>
      </trkpt>
      <trkpt lat="41.030702" lon="-6.762855">
        <ele>473.8</ele>
        <time>1970-01-01T01:51:45.000Z</time>
      </trkpt>
      <trkpt lat="41.030697" lon="-6.762886">
        <ele>473.9</ele>
        <time>1970-01-01T01:51:46.000Z</time>
      </trkpt>
      <trkpt lat="41.030692" lon="-6.762916">
        <ele>473.9</ele>
        <time>1970-01-01T01:51:47.000Z</time>
      </trkpt>
      <trkpt lat="41.030688" lon="-6.762944">
        <ele>474</ele>
        <time>1970-01-01T01:51:48.000Z</time>
      </trkpt>
      <trkpt lat="41.030684" lon="-6.762969">
        <ele>474.1</ele>
        <time>1970-01-01T01:51:49.000Z</time>
      </trkpt>
      <trkpt lat="41.030682" lon="-6.762992">
        <ele>474.2</ele>
        <time>1970-01-01T01:51:50.000Z</time>
      </trkpt>
      <trkpt lat="41.030681" lon="-6.763015">
        <ele>474.2</ele>
        <time>1970-01-01T01:51:51.000Z</time>
      </trkpt>
      <trkpt lat="41.03068" lon="-6.763038">
        <ele>474.3</ele>
        <time>1970-01-01T01:51:52.000Z</time>
      </trkpt>
      <trkpt lat="41.030679" lon="-6.76306">
        <ele>474.3</ele>
        <time>1970-01-01T01:51:53.000Z</time>
      </trkpt>
      <trkpt lat="41.030678" lon="-6.763082">
        <ele>474.4</ele>
        <time>1970-01-01T01:51:54.000Z</time>
      </trkpt>
      <trkpt lat="41.030678" lon="-6.763106">
        <ele>474.5</ele>
        <time>1970-01-01T01:51:55.000Z</time>
      </trkpt>
      <trkpt lat="41.030677" lon="-6.76313">
        <ele>474.5</ele>
        <time>1970-01-01T01:51:56.000Z</time>
      </trkpt>
      <trkpt lat="41.030676" lon="-6.763154">
        <ele>474.6</ele>
        <time>1970-01-01T01:51:57.000Z</time>
      </trkpt>
      <trkpt lat="41.030675" lon="-6.763177">
        <ele>474.7</ele>
        <time>1970-01-01T01:51:58.000Z</time>
      </trkpt>
      <trkpt lat="41.030673" lon="-6.763201">
        <ele>474.7</ele>
        <time>1970-01-01T01:51:59.000Z</time>
      </trkpt>
      <trkpt lat="41.03067" lon="-6.763224">
        <ele>474.8</ele>
        <time>1970-01-01T01:52:00.000Z</time>
      </trkpt>
      <trkpt lat="41.030668" lon="-6.763247">
        <ele>474.9</ele>
        <time>1970-01-01T01:52:01.000Z</time>
      </trkpt>
      <trkpt lat="41.030666" lon="-6.763268">
        <ele>474.9</ele>
        <time>1970-01-01T01:52:02.000Z</time>
      </trkpt>
      <trkpt lat="41.030665" lon="-6.763289">
        <ele>475</ele>
        <time>1970-01-01T01:52:03.000Z</time>
      </trkpt>
      <trkpt lat="41.030663" lon="-6.763311">
        <ele>475.1</ele>
        <time>1970-01-01T01:52:04.000Z</time>
      </trkpt>
      <trkpt lat="41.030662" lon="-6.763334">
        <ele>475.1</ele>
        <time>1970-01-01T01:52:05.000Z</time>
      </trkpt>
      <trkpt lat="41.030661" lon="-6.763356">
        <ele>475.2</ele>
        <time>1970-01-01T01:52:06.000Z</time>
      </trkpt>
      <trkpt lat="41.03066" lon="-6.763378">
        <ele>475.2</ele>
        <time>1970-01-01T01:52:07.000Z</time>
      </trkpt>
      <trkpt lat="41.030657" lon="-6.7634">
        <ele>475.3</ele>
        <time>1970-01-01T01:52:08.000Z</time>
      </trkpt>
      <trkpt lat="41.030654" lon="-6.763421">
        <ele>475.4</ele>
        <time>1970-01-01T01:52:09.000Z</time>
      </trkpt>
      <trkpt lat="41.030651" lon="-6.763443">
        <ele>475.4</ele>
        <time>1970-01-01T01:52:10.000Z</time>
      </trkpt>
      <trkpt lat="41.030648" lon="-6.763465">
        <ele>475.5</ele>
        <time>1970-01-01T01:52:11.000Z</time>
      </trkpt>
      <trkpt lat="41.030645" lon="-6.763487">
        <ele>475.6</ele>
        <time>1970-01-01T01:52:12.000Z</time>
      </trkpt>
      <trkpt lat="41.030642" lon="-6.763509">
        <ele>475.6</ele>
        <time>1970-01-01T01:52:13.000Z</time>
      </trkpt>
      <trkpt lat="41.03064" lon="-6.76353">
        <ele>475.7</ele>
        <time>1970-01-01T01:52:14.000Z</time>
      </trkpt>
      <trkpt lat="41.030638" lon="-6.763552">
        <ele>475.7</ele>
        <time>1970-01-01T01:52:15.000Z</time>
      </trkpt>
      <trkpt lat="41.030636" lon="-6.763573">
        <ele>475.8</ele>
        <time>1970-01-01T01:52:16.000Z</time>
      </trkpt>
      <trkpt lat="41.030631" lon="-6.763594">
        <ele>475.9</ele>
        <time>1970-01-01T01:52:17.000Z</time>
      </trkpt>
      <trkpt lat="41.030627" lon="-6.763616">
        <ele>475.9</ele>
        <time>1970-01-01T01:52:18.000Z</time>
      </trkpt>
      <trkpt lat="41.030623" lon="-6.763637">
        <ele>476</ele>
        <time>1970-01-01T01:52:19.000Z</time>
      </trkpt>
      <trkpt lat="41.030621" lon="-6.763659">
        <ele>476</ele>
        <time>1970-01-01T01:52:20.000Z</time>
      </trkpt>
      <trkpt lat="41.030618" lon="-6.763681">
        <ele>476.1</ele>
        <time>1970-01-01T01:52:21.000Z</time>
      </trkpt>
      <trkpt lat="41.030616" lon="-6.763703">
        <ele>476.2</ele>
        <time>1970-01-01T01:52:22.000Z</time>
      </trkpt>
      <trkpt lat="41.030614" lon="-6.763726">
        <ele>476.2</ele>
        <time>1970-01-01T01:52:23.000Z</time>
      </trkpt>
      <trkpt lat="41.030612" lon="-6.763748">
        <ele>476.3</ele>
        <time>1970-01-01T01:52:24.000Z</time>
      </trkpt>
      <trkpt lat="41.030612" lon="-6.76377">
        <ele>476.4</ele>
        <time>1970-01-01T01:52:25.000Z</time>
      </trkpt>
      <trkpt lat="41.030611" lon="-6.763794">
        <ele>476.4</ele>
        <time>1970-01-01T01:52:26.000Z</time>
      </trkpt>
      <trkpt lat="41.03061" lon="-6.763817">
        <ele>476.5</ele>
        <time>1970-01-01T01:52:27.000Z</time>
      </trkpt>
      <trkpt lat="41.030609" lon="-6.763839">
        <ele>476.6</ele>
        <time>1970-01-01T01:52:28.000Z</time>
      </trkpt>
      <trkpt lat="41.030608" lon="-6.763863">
        <ele>476.6</ele>
        <time>1970-01-01T01:52:29.000Z</time>
      </trkpt>
      <trkpt lat="41.030607" lon="-6.763887">
        <ele>476.7</ele>
        <time>1970-01-01T01:52:30.000Z</time>
      </trkpt>
      <trkpt lat="41.030605" lon="-6.76391">
        <ele>476.8</ele>
        <time>1970-01-01T01:52:31.000Z</time>
      </trkpt>
      <trkpt lat="41.030604" lon="-6.763932">
        <ele>476.8</ele>
        <time>1970-01-01T01:52:32.000Z</time>
      </trkpt>
      <trkpt lat="41.030604" lon="-6.763954">
        <ele>476.9</ele>
        <time>1970-01-01T01:52:33.000Z</time>
      </trkpt>
      <trkpt lat="41.030603" lon="-6.763976">
        <ele>476.9</ele>
        <time>1970-01-01T01:52:34.000Z</time>
      </trkpt>
      <trkpt lat="41.030603" lon="-6.763998">
        <ele>477</ele>
        <time>1970-01-01T01:52:35.000Z</time>
      </trkpt>
      <trkpt lat="41.030602" lon="-6.76402">
        <ele>477.1</ele>
        <time>1970-01-01T01:52:36.000Z</time>
      </trkpt>
      <trkpt lat="41.030601" lon="-6.764043">
        <ele>477.1</ele>
        <time>1970-01-01T01:52:37.000Z</time>
      </trkpt>
      <trkpt lat="41.030601" lon="-6.764065">
        <ele>477.2</ele>
        <time>1970-01-01T01:52:38.000Z</time>
      </trkpt>
      <trkpt lat="41.030601" lon="-6.764088">
        <ele>477.3</ele>
        <time>1970-01-01T01:52:39.000Z</time>
      </trkpt>
      <trkpt lat="41.030603" lon="-6.764109">
        <ele>477.3</ele>
        <time>1970-01-01T01:52:40.000Z</time>
      </trkpt>
      <trkpt lat="41.030605" lon="-6.764131">
        <ele>477.4</ele>
        <time>1970-01-01T01:52:41.000Z</time>
      </trkpt>
      <trkpt lat="41.030607" lon="-6.764152">
        <ele>477.4</ele>
        <time>1970-01-01T01:52:42.000Z</time>
      </trkpt>
      <trkpt lat="41.030608" lon="-6.764173">
        <ele>477.5</ele>
        <time>1970-01-01T01:52:43.000Z</time>
      </trkpt>
      <trkpt lat="41.03061" lon="-6.764194">
        <ele>477.6</ele>
        <time>1970-01-01T01:52:44.000Z</time>
      </trkpt>
      <trkpt lat="41.030612" lon="-6.764216">
        <ele>477.6</ele>
        <time>1970-01-01T01:52:45.000Z</time>
      </trkpt>
      <trkpt lat="41.030615" lon="-6.764237">
        <ele>477.7</ele>
        <time>1970-01-01T01:52:46.000Z</time>
      </trkpt>
      <trkpt lat="41.030618" lon="-6.764258">
        <ele>477.7</ele>
        <time>1970-01-01T01:52:47.000Z</time>
      </trkpt>
      <trkpt lat="41.030622" lon="-6.76428">
        <ele>477.8</ele>
        <time>1970-01-01T01:52:48.000Z</time>
      </trkpt>
      <trkpt lat="41.030627" lon="-6.7643">
        <ele>477.9</ele>
        <time>1970-01-01T01:52:49.000Z</time>
      </trkpt>
      <trkpt lat="41.030633" lon="-6.76432">
        <ele>477.9</ele>
        <time>1970-01-01T01:52:50.000Z</time>
      </trkpt>
      <trkpt lat="41.030638" lon="-6.764338">
        <ele>478</ele>
        <time>1970-01-01T01:52:51.000Z</time>
      </trkpt>
      <trkpt lat="41.030643" lon="-6.764357">
        <ele>478</ele>
        <time>1970-01-01T01:52:52.000Z</time>
      </trkpt>
      <trkpt lat="41.030646" lon="-6.764376">
        <ele>478.1</ele>
        <time>1970-01-01T01:52:53.000Z</time>
      </trkpt>
      <trkpt lat="41.030649" lon="-6.764396">
        <ele>478.1</ele>
        <time>1970-01-01T01:52:54.000Z</time>
      </trkpt>
      <trkpt lat="41.030653" lon="-6.764415">
        <ele>478.2</ele>
        <time>1970-01-01T01:52:55.000Z</time>
      </trkpt>
      <trkpt lat="41.030658" lon="-6.764434">
        <ele>478.3</ele>
        <time>1970-01-01T01:52:56.000Z</time>
      </trkpt>
      <trkpt lat="41.030663" lon="-6.764454">
        <ele>478.3</ele>
        <time>1970-01-01T01:52:57.000Z</time>
      </trkpt>
      <trkpt lat="41.03067" lon="-6.764472">
        <ele>478.4</ele>
        <time>1970-01-01T01:52:58.000Z</time>
      </trkpt>
      <trkpt lat="41.030675" lon="-6.764491">
        <ele>478.4</ele>
        <time>1970-01-01T01:52:59.000Z</time>
      </trkpt>
      <trkpt lat="41.030679" lon="-6.764511">
        <ele>478.5</ele>
        <time>1970-01-01T01:53:00.000Z</time>
      </trkpt>
      <trkpt lat="41.030684" lon="-6.764531">
        <ele>478.5</ele>
        <time>1970-01-01T01:53:01.000Z</time>
      </trkpt>
      <trkpt lat="41.03069" lon="-6.764551">
        <ele>478.6</ele>
        <time>1970-01-01T01:53:02.000Z</time>
      </trkpt>
      <trkpt lat="41.030696" lon="-6.764572">
        <ele>478.7</ele>
        <time>1970-01-01T01:53:03.000Z</time>
      </trkpt>
      <trkpt lat="41.030703" lon="-6.764592">
        <ele>478.7</ele>
        <time>1970-01-01T01:53:04.000Z</time>
      </trkpt>
      <trkpt lat="41.030709" lon="-6.764611">
        <ele>478.8</ele>
        <time>1970-01-01T01:53:05.000Z</time>
      </trkpt>
      <trkpt lat="41.030717" lon="-6.76463">
        <ele>478.9</ele>
        <time>1970-01-01T01:53:06.000Z</time>
      </trkpt>
      <trkpt lat="41.030726" lon="-6.764649">
        <ele>478.9</ele>
        <time>1970-01-01T01:53:07.000Z</time>
      </trkpt>
      <trkpt lat="41.030736" lon="-6.764667">
        <ele>479</ele>
        <time>1970-01-01T01:53:08.000Z</time>
      </trkpt>
      <trkpt lat="41.030746" lon="-6.764685">
        <ele>479</ele>
        <time>1970-01-01T01:53:09.000Z</time>
      </trkpt>
      <trkpt lat="41.030756" lon="-6.764703">
        <ele>479.1</ele>
        <time>1970-01-01T01:53:10.000Z</time>
      </trkpt>
      <trkpt lat="41.030765" lon="-6.764721">
        <ele>479.2</ele>
        <time>1970-01-01T01:53:11.000Z</time>
      </trkpt>
      <trkpt lat="41.030774" lon="-6.76474">
        <ele>479.2</ele>
        <time>1970-01-01T01:53:12.000Z</time>
      </trkpt>
      <trkpt lat="41.030782" lon="-6.76476">
        <ele>479.3</ele>
        <time>1970-01-01T01:53:13.000Z</time>
      </trkpt>
      <trkpt lat="41.030791" lon="-6.764781">
        <ele>479.4</ele>
        <time>1970-01-01T01:53:14.000Z</time>
      </trkpt>
      <trkpt lat="41.030799" lon="-6.764804">
        <ele>479.4</ele>
        <time>1970-01-01T01:53:15.000Z</time>
      </trkpt>
      <trkpt lat="41.030807" lon="-6.764826">
        <ele>479.5</ele>
        <time>1970-01-01T01:53:16.000Z</time>
      </trkpt>
      <trkpt lat="41.030816" lon="-6.764849">
        <ele>479.6</ele>
        <time>1970-01-01T01:53:17.000Z</time>
      </trkpt>
      <trkpt lat="41.030825" lon="-6.764871">
        <ele>479.6</ele>
        <time>1970-01-01T01:53:18.000Z</time>
      </trkpt>
      <trkpt lat="41.030834" lon="-6.764895">
        <ele>479.7</ele>
        <time>1970-01-01T01:53:19.000Z</time>
      </trkpt>
      <trkpt lat="41.030844" lon="-6.764919">
        <ele>479.8</ele>
        <time>1970-01-01T01:53:20.000Z</time>
      </trkpt>
      <trkpt lat="41.030854" lon="-6.764944">
        <ele>479.9</ele>
        <time>1970-01-01T01:53:21.000Z</time>
      </trkpt>
      <trkpt lat="41.030865" lon="-6.764967">
        <ele>480</ele>
        <time>1970-01-01T01:53:22.000Z</time>
      </trkpt>
      <trkpt lat="41.030876" lon="-6.76499">
        <ele>480</ele>
        <time>1970-01-01T01:53:23.000Z</time>
      </trkpt>
      <trkpt lat="41.030887" lon="-6.765013">
        <ele>480.1</ele>
        <time>1970-01-01T01:53:24.000Z</time>
      </trkpt>
      <trkpt lat="41.030897" lon="-6.765037">
        <ele>480.2</ele>
        <time>1970-01-01T01:53:25.000Z</time>
      </trkpt>
      <trkpt lat="41.030907" lon="-6.765061">
        <ele>480.3</ele>
        <time>1970-01-01T01:53:26.000Z</time>
      </trkpt>
      <trkpt lat="41.030916" lon="-6.765085">
        <ele>480.3</ele>
        <time>1970-01-01T01:53:27.000Z</time>
      </trkpt>
      <trkpt lat="41.030926" lon="-6.765111">
        <ele>480.4</ele>
        <time>1970-01-01T01:53:28.000Z</time>
      </trkpt>
      <trkpt lat="41.030938" lon="-6.765137">
        <ele>480.5</ele>
        <time>1970-01-01T01:53:29.000Z</time>
      </trkpt>
      <trkpt lat="41.030949" lon="-6.765164">
        <ele>480.6</ele>
        <time>1970-01-01T01:53:30.000Z</time>
      </trkpt>
      <trkpt lat="41.030961" lon="-6.765193">
        <ele>480.7</ele>
        <time>1970-01-01T01:53:31.000Z</time>
      </trkpt>
      <trkpt lat="41.030973" lon="-6.765222">
        <ele>480.8</ele>
        <time>1970-01-01T01:53:32.000Z</time>
      </trkpt>
      <trkpt lat="41.030984" lon="-6.765252">
        <ele>480.9</ele>
        <time>1970-01-01T01:53:33.000Z</time>
      </trkpt>
      <trkpt lat="41.030995" lon="-6.765282">
        <ele>481</ele>
        <time>1970-01-01T01:53:34.000Z</time>
      </trkpt>
      <trkpt lat="41.031005" lon="-6.765312">
        <ele>481.1</ele>
        <time>1970-01-01T01:53:35.000Z</time>
      </trkpt>
      <trkpt lat="41.031016" lon="-6.765342">
        <ele>481.1</ele>
        <time>1970-01-01T01:53:36.000Z</time>
      </trkpt>
      <trkpt lat="41.031026" lon="-6.765371">
        <ele>481.2</ele>
        <time>1970-01-01T01:53:37.000Z</time>
      </trkpt>
      <trkpt lat="41.031036" lon="-6.765399">
        <ele>481.3</ele>
        <time>1970-01-01T01:53:38.000Z</time>
      </trkpt>
      <trkpt lat="41.031046" lon="-6.765427">
        <ele>481.4</ele>
        <time>1970-01-01T01:53:39.000Z</time>
      </trkpt>
      <trkpt lat="41.031057" lon="-6.765455">
        <ele>481.5</ele>
        <time>1970-01-01T01:53:40.000Z</time>
      </trkpt>
      <trkpt lat="41.031067" lon="-6.765484">
        <ele>481.6</ele>
        <time>1970-01-01T01:53:41.000Z</time>
      </trkpt>
      <trkpt lat="41.031079" lon="-6.765514">
        <ele>481.7</ele>
        <time>1970-01-01T01:53:42.000Z</time>
      </trkpt>
      <trkpt lat="41.03109" lon="-6.765545">
        <ele>481.8</ele>
        <time>1970-01-01T01:53:43.000Z</time>
      </trkpt>
      <trkpt lat="41.0311" lon="-6.765576">
        <ele>481.9</ele>
        <time>1970-01-01T01:53:44.000Z</time>
      </trkpt>
      <trkpt lat="41.031111" lon="-6.765607">
        <ele>482</ele>
        <time>1970-01-01T01:53:45.000Z</time>
      </trkpt>
      <trkpt lat="41.031121" lon="-6.765638">
        <ele>482.1</ele>
        <time>1970-01-01T01:53:46.000Z</time>
      </trkpt>
      <trkpt lat="41.031132" lon="-6.765669">
        <ele>482.2</ele>
        <time>1970-01-01T01:53:47.000Z</time>
      </trkpt>
      <trkpt lat="41.031143" lon="-6.765699">
        <ele>482.3</ele>
        <time>1970-01-01T01:53:48.000Z</time>
      </trkpt>
      <trkpt lat="41.031154" lon="-6.765729">
        <ele>482.4</ele>
        <time>1970-01-01T01:53:49.000Z</time>
      </trkpt>
      <trkpt lat="41.031166" lon="-6.76576">
        <ele>482.4</ele>
        <time>1970-01-01T01:53:50.000Z</time>
      </trkpt>
      <trkpt lat="41.031177" lon="-6.765791">
        <ele>482.5</ele>
        <time>1970-01-01T01:53:51.000Z</time>
      </trkpt>
      <trkpt lat="41.031187" lon="-6.765822">
        <ele>482.6</ele>
        <time>1970-01-01T01:53:52.000Z</time>
      </trkpt>
      <trkpt lat="41.031196" lon="-6.765854">
        <ele>482.7</ele>
        <time>1970-01-01T01:53:53.000Z</time>
      </trkpt>
      <trkpt lat="41.031204" lon="-6.765887">
        <ele>482.8</ele>
        <time>1970-01-01T01:53:54.000Z</time>
      </trkpt>
      <trkpt lat="41.03121" lon="-6.76592">
        <ele>482.9</ele>
        <time>1970-01-01T01:53:55.000Z</time>
      </trkpt>
      <trkpt lat="41.031216" lon="-6.765955">
        <ele>483</ele>
        <time>1970-01-01T01:53:56.000Z</time>
      </trkpt>
      <trkpt lat="41.031221" lon="-6.765991">
        <ele>483.1</ele>
        <time>1970-01-01T01:53:57.000Z</time>
      </trkpt>
      <trkpt lat="41.031226" lon="-6.766029">
        <ele>483.2</ele>
        <time>1970-01-01T01:53:58.000Z</time>
      </trkpt>
      <trkpt lat="41.031229" lon="-6.766068">
        <ele>483.4</ele>
        <time>1970-01-01T01:53:59.000Z</time>
      </trkpt>
      <trkpt lat="41.031232" lon="-6.76611">
        <ele>483.5</ele>
        <time>1970-01-01T01:54:00.000Z</time>
      </trkpt>
      <trkpt lat="41.031232" lon="-6.766153">
        <ele>483.6</ele>
        <time>1970-01-01T01:54:01.000Z</time>
      </trkpt>
      <trkpt lat="41.031233" lon="-6.766197">
        <ele>483.7</ele>
        <time>1970-01-01T01:54:02.000Z</time>
      </trkpt>
      <trkpt lat="41.031233" lon="-6.766242">
        <ele>483.8</ele>
        <time>1970-01-01T01:54:03.000Z</time>
      </trkpt>
      <trkpt lat="41.031233" lon="-6.766287">
        <ele>484</ele>
        <time>1970-01-01T01:54:04.000Z</time>
      </trkpt>
      <trkpt lat="41.031232" lon="-6.766333">
        <ele>484.1</ele>
        <time>1970-01-01T01:54:05.000Z</time>
      </trkpt>
      <trkpt lat="41.03123" lon="-6.76638">
        <ele>484.2</ele>
        <time>1970-01-01T01:54:06.000Z</time>
      </trkpt>
      <trkpt lat="41.031227" lon="-6.766427">
        <ele>484.4</ele>
        <time>1970-01-01T01:54:07.000Z</time>
      </trkpt>
      <trkpt lat="41.031223" lon="-6.766474">
        <ele>484.5</ele>
        <time>1970-01-01T01:54:08.000Z</time>
      </trkpt>
      <trkpt lat="41.031219" lon="-6.766519">
        <ele>484.6</ele>
        <time>1970-01-01T01:54:09.000Z</time>
      </trkpt>
      <trkpt lat="41.031214" lon="-6.766565">
        <ele>484.8</ele>
        <time>1970-01-01T01:54:10.000Z</time>
      </trkpt>
      <trkpt lat="41.031209" lon="-6.76661">
        <ele>484.9</ele>
        <time>1970-01-01T01:54:11.000Z</time>
      </trkpt>
      <trkpt lat="41.031203" lon="-6.766654">
        <ele>485</ele>
        <time>1970-01-01T01:54:12.000Z</time>
      </trkpt>
      <trkpt lat="41.031198" lon="-6.766698">
        <ele>485.1</ele>
        <time>1970-01-01T01:54:13.000Z</time>
      </trkpt>
      <trkpt lat="41.031191" lon="-6.766741">
        <ele>485.3</ele>
        <time>1970-01-01T01:54:14.000Z</time>
      </trkpt>
      <trkpt lat="41.031183" lon="-6.766784">
        <ele>485.4</ele>
        <time>1970-01-01T01:54:15.000Z</time>
      </trkpt>
      <trkpt lat="41.031175" lon="-6.766826">
        <ele>485.5</ele>
        <time>1970-01-01T01:54:16.000Z</time>
      </trkpt>
      <trkpt lat="41.031166" lon="-6.766868">
        <ele>485.6</ele>
        <time>1970-01-01T01:54:17.000Z</time>
      </trkpt>
      <trkpt lat="41.031158" lon="-6.76691">
        <ele>485.7</ele>
        <time>1970-01-01T01:54:18.000Z</time>
      </trkpt>
      <trkpt lat="41.03115" lon="-6.766951">
        <ele>485.9</ele>
        <time>1970-01-01T01:54:19.000Z</time>
      </trkpt>
      <trkpt lat="41.031142" lon="-6.766991">
        <ele>486</ele>
        <time>1970-01-01T01:54:20.000Z</time>
      </trkpt>
      <trkpt lat="41.031134" lon="-6.767031">
        <ele>486.1</ele>
        <time>1970-01-01T01:54:21.000Z</time>
      </trkpt>
      <trkpt lat="41.031125" lon="-6.767069">
        <ele>486.2</ele>
        <time>1970-01-01T01:54:22.000Z</time>
      </trkpt>
      <trkpt lat="41.031116" lon="-6.767107">
        <ele>486.3</ele>
        <time>1970-01-01T01:54:23.000Z</time>
      </trkpt>
      <trkpt lat="41.031107" lon="-6.767144">
        <ele>486.4</ele>
        <time>1970-01-01T01:54:24.000Z</time>
      </trkpt>
      <trkpt lat="41.0311" lon="-6.767179">
        <ele>486.5</ele>
        <time>1970-01-01T01:54:25.000Z</time>
      </trkpt>
      <trkpt lat="41.031095" lon="-6.767214">
        <ele>486.7</ele>
        <time>1970-01-01T01:54:26.000Z</time>
      </trkpt>
      <trkpt lat="41.031091" lon="-6.767247">
        <ele>486.9</ele>
        <time>1970-01-01T01:54:27.000Z</time>
      </trkpt>
      <trkpt lat="41.031086" lon="-6.76728">
        <ele>487.2</ele>
        <time>1970-01-01T01:54:28.000Z</time>
      </trkpt>
      <trkpt lat="41.031084" lon="-6.767312">
        <ele>487.4</ele>
        <time>1970-01-01T01:54:29.000Z</time>
      </trkpt>
      <trkpt lat="41.031084" lon="-6.767345">
        <ele>487.7</ele>
        <time>1970-01-01T01:54:30.000Z</time>
      </trkpt>
      <trkpt lat="41.031085" lon="-6.767376">
        <ele>487.9</ele>
        <time>1970-01-01T01:54:31.000Z</time>
      </trkpt>
      <trkpt lat="41.031088" lon="-6.767407">
        <ele>488.2</ele>
        <time>1970-01-01T01:54:32.000Z</time>
      </trkpt>
      <trkpt lat="41.03109" lon="-6.767438">
        <ele>488.4</ele>
        <time>1970-01-01T01:54:33.000Z</time>
      </trkpt>
      <trkpt lat="41.031093" lon="-6.767468">
        <ele>488.6</ele>
        <time>1970-01-01T01:54:34.000Z</time>
      </trkpt>
      <trkpt lat="41.031097" lon="-6.767499">
        <ele>488.9</ele>
        <time>1970-01-01T01:54:35.000Z</time>
      </trkpt>
      <trkpt lat="41.031103" lon="-6.767529">
        <ele>489.1</ele>
        <time>1970-01-01T01:54:36.000Z</time>
      </trkpt>
      <trkpt lat="41.031111" lon="-6.767558">
        <ele>489.3</ele>
        <time>1970-01-01T01:54:37.000Z</time>
      </trkpt>
      <trkpt lat="41.031118" lon="-6.767587">
        <ele>489.6</ele>
        <time>1970-01-01T01:54:38.000Z</time>
      </trkpt>
      <trkpt lat="41.031125" lon="-6.767616">
        <ele>489.8</ele>
        <time>1970-01-01T01:54:39.000Z</time>
      </trkpt>
      <trkpt lat="41.031132" lon="-6.767646">
        <ele>490</ele>
        <time>1970-01-01T01:54:40.000Z</time>
      </trkpt>
      <trkpt lat="41.031138" lon="-6.767676">
        <ele>490.3</ele>
        <time>1970-01-01T01:54:41.000Z</time>
      </trkpt>
      <trkpt lat="41.031145" lon="-6.767706">
        <ele>490.5</ele>
        <time>1970-01-01T01:54:42.000Z</time>
      </trkpt>
      <trkpt lat="41.031149" lon="-6.767735">
        <ele>490.7</ele>
        <time>1970-01-01T01:54:43.000Z</time>
      </trkpt>
      <trkpt lat="41.031154" lon="-6.767765">
        <ele>490.9</ele>
        <time>1970-01-01T01:54:44.000Z</time>
      </trkpt>
      <trkpt lat="41.031158" lon="-6.767795">
        <ele>491.2</ele>
        <time>1970-01-01T01:54:45.000Z</time>
      </trkpt>
      <trkpt lat="41.031161" lon="-6.767824">
        <ele>491.4</ele>
        <time>1970-01-01T01:54:46.000Z</time>
      </trkpt>
      <trkpt lat="41.031164" lon="-6.767852">
        <ele>491.6</ele>
        <time>1970-01-01T01:54:47.000Z</time>
      </trkpt>
      <trkpt lat="41.031166" lon="-6.767881">
        <ele>491.8</ele>
        <time>1970-01-01T01:54:48.000Z</time>
      </trkpt>
      <trkpt lat="41.031168" lon="-6.767909">
        <ele>492</ele>
        <time>1970-01-01T01:54:49.000Z</time>
      </trkpt>
      <trkpt lat="41.031168" lon="-6.767939">
        <ele>492.3</ele>
        <time>1970-01-01T01:54:50.000Z</time>
      </trkpt>
      <trkpt lat="41.031168" lon="-6.76797">
        <ele>492.5</ele>
        <time>1970-01-01T01:54:51.000Z</time>
      </trkpt>
      <trkpt lat="41.031167" lon="-6.768002">
        <ele>492.7</ele>
        <time>1970-01-01T01:54:52.000Z</time>
      </trkpt>
      <trkpt lat="41.031166" lon="-6.768033">
        <ele>493</ele>
        <time>1970-01-01T01:54:53.000Z</time>
      </trkpt>
      <trkpt lat="41.031163" lon="-6.768063">
        <ele>493.2</ele>
        <time>1970-01-01T01:54:54.000Z</time>
      </trkpt>
      <trkpt lat="41.031162" lon="-6.768092">
        <ele>493.4</ele>
        <time>1970-01-01T01:54:55.000Z</time>
      </trkpt>
      <trkpt lat="41.031161" lon="-6.768123">
        <ele>493.6</ele>
        <time>1970-01-01T01:54:56.000Z</time>
      </trkpt>
      <trkpt lat="41.031161" lon="-6.768152">
        <ele>493.8</ele>
        <time>1970-01-01T01:54:57.000Z</time>
      </trkpt>
      <trkpt lat="41.031162" lon="-6.768183">
        <ele>494.1</ele>
        <time>1970-01-01T01:54:58.000Z</time>
      </trkpt>
      <trkpt lat="41.031164" lon="-6.768213">
        <ele>494.3</ele>
        <time>1970-01-01T01:54:59.000Z</time>
      </trkpt>
      <trkpt lat="41.031165" lon="-6.768245">
        <ele>494.5</ele>
        <time>1970-01-01T01:55:00.000Z</time>
      </trkpt>
      <trkpt lat="41.031166" lon="-6.768276">
        <ele>494.8</ele>
        <time>1970-01-01T01:55:01.000Z</time>
      </trkpt>
      <trkpt lat="41.031167" lon="-6.768308">
        <ele>495</ele>
        <time>1970-01-01T01:55:02.000Z</time>
      </trkpt>
      <trkpt lat="41.031167" lon="-6.768341">
        <ele>495.3</ele>
        <time>1970-01-01T01:55:03.000Z</time>
      </trkpt>
      <trkpt lat="41.031168" lon="-6.768374">
        <ele>495.5</ele>
        <time>1970-01-01T01:55:04.000Z</time>
      </trkpt>
      <trkpt lat="41.031166" lon="-6.768406">
        <ele>495.8</ele>
        <time>1970-01-01T01:55:05.000Z</time>
      </trkpt>
      <trkpt lat="41.031163" lon="-6.768439">
        <ele>496</ele>
        <time>1970-01-01T01:55:06.000Z</time>
      </trkpt>
      <trkpt lat="41.031159" lon="-6.768474">
        <ele>496.3</ele>
        <time>1970-01-01T01:55:07.000Z</time>
      </trkpt>
      <trkpt lat="41.031155" lon="-6.76851">
        <ele>496.5</ele>
        <time>1970-01-01T01:55:08.000Z</time>
      </trkpt>
      <trkpt lat="41.03115" lon="-6.768547">
        <ele>496.8</ele>
        <time>1970-01-01T01:55:09.000Z</time>
      </trkpt>
      <trkpt lat="41.031145" lon="-6.768585">
        <ele>497.1</ele>
        <time>1970-01-01T01:55:10.000Z</time>
      </trkpt>
      <trkpt lat="41.031138" lon="-6.768622">
        <ele>497.4</ele>
        <time>1970-01-01T01:55:11.000Z</time>
      </trkpt>
      <trkpt lat="41.031128" lon="-6.768658">
        <ele>497.7</ele>
        <time>1970-01-01T01:55:12.000Z</time>
      </trkpt>
      <trkpt lat="41.031116" lon="-6.768695">
        <ele>498</ele>
        <time>1970-01-01T01:55:13.000Z</time>
      </trkpt>
      <trkpt lat="41.031102" lon="-6.768732">
        <ele>498.3</ele>
        <time>1970-01-01T01:55:14.000Z</time>
      </trkpt>
      <trkpt lat="41.031086" lon="-6.768768">
        <ele>498.6</ele>
        <time>1970-01-01T01:55:15.000Z</time>
      </trkpt>
      <trkpt lat="41.031068" lon="-6.768802">
        <ele>498.9</ele>
        <time>1970-01-01T01:55:16.000Z</time>
      </trkpt>
      <trkpt lat="41.031047" lon="-6.768835">
        <ele>499.3</ele>
        <time>1970-01-01T01:55:17.000Z</time>
      </trkpt>
      <trkpt lat="41.031023" lon="-6.768867">
        <ele>499.6</ele>
        <time>1970-01-01T01:55:18.000Z</time>
      </trkpt>
      <trkpt lat="41.030997" lon="-6.768902">
        <ele>500</ele>
        <time>1970-01-01T01:55:19.000Z</time>
      </trkpt>
      <trkpt lat="41.030967" lon="-6.768937">
        <ele>500.4</ele>
        <time>1970-01-01T01:55:20.000Z</time>
      </trkpt>
      <trkpt lat="41.030935" lon="-6.768976">
        <ele>500.8</ele>
        <time>1970-01-01T01:55:21.000Z</time>
      </trkpt>
      <trkpt lat="41.030905" lon="-6.76902">
        <ele>501.2</ele>
        <time>1970-01-01T01:55:22.000Z</time>
      </trkpt>
      <trkpt lat="41.030876" lon="-6.769072">
        <ele>501.7</ele>
        <time>1970-01-01T01:55:23.000Z</time>
      </trkpt>
      <trkpt lat="41.030851" lon="-6.769128">
        <ele>502.2</ele>
        <time>1970-01-01T01:55:24.000Z</time>
      </trkpt>
      <trkpt lat="41.030829" lon="-6.769186">
        <ele>502.7</ele>
        <time>1970-01-01T01:55:25.000Z</time>
      </trkpt>
      <trkpt lat="41.03081" lon="-6.769244">
        <ele>503.2</ele>
        <time>1970-01-01T01:55:26.000Z</time>
      </trkpt>
      <trkpt lat="41.030795" lon="-6.769302">
        <ele>503.6</ele>
        <time>1970-01-01T01:55:27.000Z</time>
      </trkpt>
      <trkpt lat="41.030781" lon="-6.769358">
        <ele>504.1</ele>
        <time>1970-01-01T01:55:28.000Z</time>
      </trkpt>
      <trkpt lat="41.03077" lon="-6.769414">
        <ele>504.5</ele>
        <time>1970-01-01T01:55:29.000Z</time>
      </trkpt>
      <trkpt lat="41.03076" lon="-6.76947">
        <ele>505</ele>
        <time>1970-01-01T01:55:30.000Z</time>
      </trkpt>
      <trkpt lat="41.030752" lon="-6.769527">
        <ele>505.4</ele>
        <time>1970-01-01T01:55:31.000Z</time>
      </trkpt>
      <trkpt lat="41.030745" lon="-6.769582">
        <ele>505.8</ele>
        <time>1970-01-01T01:55:32.000Z</time>
      </trkpt>
      <trkpt lat="41.03074" lon="-6.769638">
        <ele>506.2</ele>
        <time>1970-01-01T01:55:33.000Z</time>
      </trkpt>
      <trkpt lat="41.030738" lon="-6.769693">
        <ele>506.6</ele>
        <time>1970-01-01T01:55:34.000Z</time>
      </trkpt>
      <trkpt lat="41.030739" lon="-6.769747">
        <ele>507.1</ele>
        <time>1970-01-01T01:55:35.000Z</time>
      </trkpt>
      <trkpt lat="41.030743" lon="-6.769801">
        <ele>507.5</ele>
        <time>1970-01-01T01:55:36.000Z</time>
      </trkpt>
      <trkpt lat="41.030749" lon="-6.769854">
        <ele>507.9</ele>
        <time>1970-01-01T01:55:37.000Z</time>
      </trkpt>
      <trkpt lat="41.030756" lon="-6.769907">
        <ele>508.3</ele>
        <time>1970-01-01T01:55:38.000Z</time>
      </trkpt>
      <trkpt lat="41.030763" lon="-6.76996">
        <ele>508.7</ele>
        <time>1970-01-01T01:55:39.000Z</time>
      </trkpt>
      <trkpt lat="41.030772" lon="-6.770012">
        <ele>509.1</ele>
        <time>1970-01-01T01:55:40.000Z</time>
      </trkpt>
      <trkpt lat="41.03078" lon="-6.770062">
        <ele>509.5</ele>
        <time>1970-01-01T01:55:41.000Z</time>
      </trkpt>
      <trkpt lat="41.030788" lon="-6.770112">
        <ele>509.8</ele>
        <time>1970-01-01T01:55:42.000Z</time>
      </trkpt>
      <trkpt lat="41.030796" lon="-6.770162">
        <ele>510.2</ele>
        <time>1970-01-01T01:55:43.000Z</time>
      </trkpt>
      <trkpt lat="41.030805" lon="-6.77021">
        <ele>510.6</ele>
        <time>1970-01-01T01:55:44.000Z</time>
      </trkpt>
      <trkpt lat="41.030815" lon="-6.770256">
        <ele>511</ele>
        <time>1970-01-01T01:55:45.000Z</time>
      </trkpt>
      <trkpt lat="41.030825" lon="-6.770302">
        <ele>511.3</ele>
        <time>1970-01-01T01:55:46.000Z</time>
      </trkpt>
      <trkpt lat="41.030834" lon="-6.77035">
        <ele>511.7</ele>
        <time>1970-01-01T01:55:47.000Z</time>
      </trkpt>
      <trkpt lat="41.030842" lon="-6.770399">
        <ele>512.1</ele>
        <time>1970-01-01T01:55:48.000Z</time>
      </trkpt>
      <trkpt lat="41.03085" lon="-6.770449">
        <ele>512.5</ele>
        <time>1970-01-01T01:55:49.000Z</time>
      </trkpt>
      <trkpt lat="41.030858" lon="-6.770499">
        <ele>512.8</ele>
        <time>1970-01-01T01:55:50.000Z</time>
      </trkpt>
      <trkpt lat="41.030865" lon="-6.77055">
        <ele>513.2</ele>
        <time>1970-01-01T01:55:51.000Z</time>
      </trkpt>
      <trkpt lat="41.030872" lon="-6.770602">
        <ele>513.6</ele>
        <time>1970-01-01T01:55:52.000Z</time>
      </trkpt>
      <trkpt lat="41.030878" lon="-6.770654">
        <ele>514</ele>
        <time>1970-01-01T01:55:53.000Z</time>
      </trkpt>
      <trkpt lat="41.030883" lon="-6.770706">
        <ele>514.4</ele>
        <time>1970-01-01T01:55:54.000Z</time>
      </trkpt>
      <trkpt lat="41.030886" lon="-6.770758">
        <ele>514.8</ele>
        <time>1970-01-01T01:55:55.000Z</time>
      </trkpt>
      <trkpt lat="41.030888" lon="-6.770809">
        <ele>515.2</ele>
        <time>1970-01-01T01:55:56.000Z</time>
      </trkpt>
      <trkpt lat="41.03089" lon="-6.770861">
        <ele>515.6</ele>
        <time>1970-01-01T01:55:57.000Z</time>
      </trkpt>
      <trkpt lat="41.030894" lon="-6.770913">
        <ele>516</ele>
        <time>1970-01-01T01:55:58.000Z</time>
      </trkpt>
      <trkpt lat="41.030906" lon="-6.77096">
        <ele>516.3</ele>
        <time>1970-01-01T01:55:59.000Z</time>
      </trkpt>
      <trkpt lat="41.030928" lon="-6.770996">
        <ele>516.7</ele>
        <time>1970-01-01T01:56:00.000Z</time>
      </trkpt>
      <trkpt lat="41.030957" lon="-6.771017">
        <ele>517</ele>
        <time>1970-01-01T01:56:01.000Z</time>
      </trkpt>
      <trkpt lat="41.030991" lon="-6.771027">
        <ele>517.4</ele>
        <time>1970-01-01T01:56:02.000Z</time>
      </trkpt>
      <trkpt lat="41.031026" lon="-6.771033">
        <ele>517.7</ele>
        <time>1970-01-01T01:56:03.000Z</time>
      </trkpt>
      <trkpt lat="41.031062" lon="-6.771036">
        <ele>518.1</ele>
        <time>1970-01-01T01:56:04.000Z</time>
      </trkpt>
      <trkpt lat="41.031096" lon="-6.77104">
        <ele>518.4</ele>
        <time>1970-01-01T01:56:05.000Z</time>
      </trkpt>
      <trkpt lat="41.03113" lon="-6.771042">
        <ele>518.8</ele>
        <time>1970-01-01T01:56:06.000Z</time>
      </trkpt>
      <trkpt lat="41.031163" lon="-6.771044">
        <ele>519.1</ele>
        <time>1970-01-01T01:56:07.000Z</time>
      </trkpt>
      <trkpt lat="41.031195" lon="-6.771048">
        <ele>519.4</ele>
        <time>1970-01-01T01:56:08.000Z</time>
      </trkpt>
      <trkpt lat="41.031225" lon="-6.771054">
        <ele>519.7</ele>
        <time>1970-01-01T01:56:09.000Z</time>
      </trkpt>
      <trkpt lat="41.031255" lon="-6.771064">
        <ele>520</ele>
        <time>1970-01-01T01:56:10.000Z</time>
      </trkpt>
      <trkpt lat="41.031283" lon="-6.771075">
        <ele>520.3</ele>
        <time>1970-01-01T01:56:11.000Z</time>
      </trkpt>
      <trkpt lat="41.031312" lon="-6.771085">
        <ele>520.6</ele>
        <time>1970-01-01T01:56:12.000Z</time>
      </trkpt>
      <trkpt lat="41.031342" lon="-6.771095">
        <ele>520.9</ele>
        <time>1970-01-01T01:56:13.000Z</time>
      </trkpt>
      <trkpt lat="41.031372" lon="-6.771106">
        <ele>521.2</ele>
        <time>1970-01-01T01:56:14.000Z</time>
      </trkpt>
      <trkpt lat="41.031403" lon="-6.771118">
        <ele>521.6</ele>
        <time>1970-01-01T01:56:15.000Z</time>
      </trkpt>
      <trkpt lat="41.031435" lon="-6.77113">
        <ele>521.9</ele>
        <time>1970-01-01T01:56:16.000Z</time>
      </trkpt>
      <trkpt lat="41.031465" lon="-6.771142">
        <ele>522.2</ele>
        <time>1970-01-01T01:56:17.000Z</time>
      </trkpt>
      <trkpt lat="41.031495" lon="-6.771154">
        <ele>522.5</ele>
        <time>1970-01-01T01:56:18.000Z</time>
      </trkpt>
      <trkpt lat="41.031525" lon="-6.771167">
        <ele>522.8</ele>
        <time>1970-01-01T01:56:19.000Z</time>
      </trkpt>
      <trkpt lat="41.031553" lon="-6.771182">
        <ele>523.1</ele>
        <time>1970-01-01T01:56:20.000Z</time>
      </trkpt>
      <trkpt lat="41.031579" lon="-6.771201">
        <ele>523.4</ele>
        <time>1970-01-01T01:56:21.000Z</time>
      </trkpt>
      <trkpt lat="41.031604" lon="-6.771224">
        <ele>523.7</ele>
        <time>1970-01-01T01:56:22.000Z</time>
      </trkpt>
      <trkpt lat="41.031627" lon="-6.771251">
        <ele>524</ele>
        <time>1970-01-01T01:56:23.000Z</time>
      </trkpt>
      <trkpt lat="41.031647" lon="-6.77128">
        <ele>524.3</ele>
        <time>1970-01-01T01:56:24.000Z</time>
      </trkpt>
      <trkpt lat="41.031665" lon="-6.77131">
        <ele>524.6</ele>
        <time>1970-01-01T01:56:25.000Z</time>
      </trkpt>
      <trkpt lat="41.031682" lon="-6.771341">
        <ele>524.9</ele>
        <time>1970-01-01T01:56:26.000Z</time>
      </trkpt>
      <trkpt lat="41.031697" lon="-6.771372">
        <ele>525.2</ele>
        <time>1970-01-01T01:56:27.000Z</time>
      </trkpt>
      <trkpt lat="41.031712" lon="-6.771403">
        <ele>525.5</ele>
        <time>1970-01-01T01:56:28.000Z</time>
      </trkpt>
      <trkpt lat="41.031725" lon="-6.771435">
        <ele>525.7</ele>
        <time>1970-01-01T01:56:29.000Z</time>
      </trkpt>
      <trkpt lat="41.031737" lon="-6.771466">
        <ele>526</ele>
        <time>1970-01-01T01:56:30.000Z</time>
      </trkpt>
      <trkpt lat="41.031748" lon="-6.771498">
        <ele>526.3</ele>
        <time>1970-01-01T01:56:31.000Z</time>
      </trkpt>
      <trkpt lat="41.031759" lon="-6.771531">
        <ele>526.5</ele>
        <time>1970-01-01T01:56:32.000Z</time>
      </trkpt>
      <trkpt lat="41.031769" lon="-6.771563">
        <ele>526.8</ele>
        <time>1970-01-01T01:56:33.000Z</time>
      </trkpt>
      <trkpt lat="41.031778" lon="-6.771597">
        <ele>527.1</ele>
        <time>1970-01-01T01:56:34.000Z</time>
      </trkpt>
      <trkpt lat="41.031787" lon="-6.771631">
        <ele>527.3</ele>
        <time>1970-01-01T01:56:35.000Z</time>
      </trkpt>
      <trkpt lat="41.031796" lon="-6.771664">
        <ele>527.6</ele>
        <time>1970-01-01T01:56:36.000Z</time>
      </trkpt>
      <trkpt lat="41.031804" lon="-6.771695">
        <ele>527.8</ele>
        <time>1970-01-01T01:56:37.000Z</time>
      </trkpt>
      <trkpt lat="41.031812" lon="-6.771725">
        <ele>528.1</ele>
        <time>1970-01-01T01:56:38.000Z</time>
      </trkpt>
      <trkpt lat="41.031818" lon="-6.771754">
        <ele>528.3</ele>
        <time>1970-01-01T01:56:39.000Z</time>
      </trkpt>
      <trkpt lat="41.031824" lon="-6.771783">
        <ele>528.5</ele>
        <time>1970-01-01T01:56:40.000Z</time>
      </trkpt>
      <trkpt lat="41.031831" lon="-6.77181">
        <ele>528.7</ele>
        <time>1970-01-01T01:56:41.000Z</time>
      </trkpt>
      <trkpt lat="41.031838" lon="-6.771838">
        <ele>529</ele>
        <time>1970-01-01T01:56:42.000Z</time>
      </trkpt>
      <trkpt lat="41.031845" lon="-6.771866">
        <ele>529.2</ele>
        <time>1970-01-01T01:56:43.000Z</time>
      </trkpt>
      <trkpt lat="41.031853" lon="-6.771894">
        <ele>529.4</ele>
        <time>1970-01-01T01:56:44.000Z</time>
      </trkpt>
      <trkpt lat="41.031861" lon="-6.771921">
        <ele>529.6</ele>
        <time>1970-01-01T01:56:45.000Z</time>
      </trkpt>
      <trkpt lat="41.031871" lon="-6.771948">
        <ele>529.9</ele>
        <time>1970-01-01T01:56:46.000Z</time>
      </trkpt>
      <trkpt lat="41.031881" lon="-6.771974">
        <ele>530.1</ele>
        <time>1970-01-01T01:56:47.000Z</time>
      </trkpt>
      <trkpt lat="41.031891" lon="-6.771999">
        <ele>530.3</ele>
        <time>1970-01-01T01:56:48.000Z</time>
      </trkpt>
      <trkpt lat="41.031902" lon="-6.772023">
        <ele>530.5</ele>
        <time>1970-01-01T01:56:49.000Z</time>
      </trkpt>
      <trkpt lat="41.031914" lon="-6.772046">
        <ele>530.7</ele>
        <time>1970-01-01T01:56:50.000Z</time>
      </trkpt>
      <trkpt lat="41.031926" lon="-6.772069">
        <ele>530.9</ele>
        <time>1970-01-01T01:56:51.000Z</time>
      </trkpt>
      <trkpt lat="41.031938" lon="-6.77209">
        <ele>531.1</ele>
        <time>1970-01-01T01:56:52.000Z</time>
      </trkpt>
      <trkpt lat="41.03195" lon="-6.77211">
        <ele>531.3</ele>
        <time>1970-01-01T01:56:53.000Z</time>
      </trkpt>
      <trkpt lat="41.031964" lon="-6.772128">
        <ele>531.5</ele>
        <time>1970-01-01T01:56:54.000Z</time>
      </trkpt>
      <trkpt lat="41.031979" lon="-6.772147">
        <ele>531.7</ele>
        <time>1970-01-01T01:56:55.000Z</time>
      </trkpt>
      <trkpt lat="41.031996" lon="-6.772165">
        <ele>531.9</ele>
        <time>1970-01-01T01:56:56.000Z</time>
      </trkpt>
      <trkpt lat="41.032014" lon="-6.772182">
        <ele>532.1</ele>
        <time>1970-01-01T01:56:57.000Z</time>
      </trkpt>
      <trkpt lat="41.032031" lon="-6.772198">
        <ele>532.4</ele>
        <time>1970-01-01T01:56:58.000Z</time>
      </trkpt>
      <trkpt lat="41.032048" lon="-6.772213">
        <ele>532.6</ele>
        <time>1970-01-01T01:56:59.000Z</time>
      </trkpt>
      <trkpt lat="41.032066" lon="-6.772227">
        <ele>532.8</ele>
        <time>1970-01-01T01:57:00.000Z</time>
      </trkpt>
      <trkpt lat="41.032085" lon="-6.772237">
        <ele>533</ele>
        <time>1970-01-01T01:57:01.000Z</time>
      </trkpt>
      <trkpt lat="41.032105" lon="-6.772246">
        <ele>533.2</ele>
        <time>1970-01-01T01:57:02.000Z</time>
      </trkpt>
      <trkpt lat="41.032125" lon="-6.772255">
        <ele>533.4</ele>
        <time>1970-01-01T01:57:03.000Z</time>
      </trkpt>
      <trkpt lat="41.032144" lon="-6.772266">
        <ele>533.6</ele>
        <time>1970-01-01T01:57:04.000Z</time>
      </trkpt>
      <trkpt lat="41.032163" lon="-6.772278">
        <ele>533.8</ele>
        <time>1970-01-01T01:57:05.000Z</time>
      </trkpt>
      <trkpt lat="41.032183" lon="-6.77229">
        <ele>534</ele>
        <time>1970-01-01T01:57:06.000Z</time>
      </trkpt>
      <trkpt lat="41.032204" lon="-6.772304">
        <ele>534.3</ele>
        <time>1970-01-01T01:57:07.000Z</time>
      </trkpt>
      <trkpt lat="41.032223" lon="-6.772317">
        <ele>534.5</ele>
        <time>1970-01-01T01:57:08.000Z</time>
      </trkpt>
      <trkpt lat="41.032243" lon="-6.772332">
        <ele>534.7</ele>
        <time>1970-01-01T01:57:09.000Z</time>
      </trkpt>
      <trkpt lat="41.032262" lon="-6.772349">
        <ele>534.9</ele>
        <time>1970-01-01T01:57:10.000Z</time>
      </trkpt>
      <trkpt lat="41.032281" lon="-6.772368">
        <ele>535.2</ele>
        <time>1970-01-01T01:57:11.000Z</time>
      </trkpt>
      <trkpt lat="41.032298" lon="-6.772388">
        <ele>535.4</ele>
        <time>1970-01-01T01:57:12.000Z</time>
      </trkpt>
      <trkpt lat="41.032314" lon="-6.77241">
        <ele>535.6</ele>
        <time>1970-01-01T01:57:13.000Z</time>
      </trkpt>
      <trkpt lat="41.032329" lon="-6.772434">
        <ele>535.9</ele>
        <time>1970-01-01T01:57:14.000Z</time>
      </trkpt>
      <trkpt lat="41.032345" lon="-6.772459">
        <ele>536.1</ele>
        <time>1970-01-01T01:57:15.000Z</time>
      </trkpt>
      <trkpt lat="41.032362" lon="-6.772484">
        <ele>536.4</ele>
        <time>1970-01-01T01:57:16.000Z</time>
      </trkpt>
      <trkpt lat="41.032381" lon="-6.772509">
        <ele>536.6</ele>
        <time>1970-01-01T01:57:17.000Z</time>
      </trkpt>
      <trkpt lat="41.0324" lon="-6.772534">
        <ele>536.9</ele>
        <time>1970-01-01T01:57:18.000Z</time>
      </trkpt>
      <trkpt lat="41.032419" lon="-6.772559">
        <ele>537.2</ele>
        <time>1970-01-01T01:57:19.000Z</time>
      </trkpt>
      <trkpt lat="41.032438" lon="-6.772583">
        <ele>537.4</ele>
        <time>1970-01-01T01:57:20.000Z</time>
      </trkpt>
      <trkpt lat="41.032458" lon="-6.772608">
        <ele>537.7</ele>
        <time>1970-01-01T01:57:21.000Z</time>
      </trkpt>
      <trkpt lat="41.03248" lon="-6.772635">
        <ele>538</ele>
        <time>1970-01-01T01:57:22.000Z</time>
      </trkpt>
      <trkpt lat="41.032504" lon="-6.772667">
        <ele>538.3</ele>
        <time>1970-01-01T01:57:23.000Z</time>
      </trkpt>
      <trkpt lat="41.03253" lon="-6.772706">
        <ele>538.7</ele>
        <time>1970-01-01T01:57:24.000Z</time>
      </trkpt>
      <trkpt lat="41.032558" lon="-6.772753">
        <ele>539.2</ele>
        <time>1970-01-01T01:57:25.000Z</time>
      </trkpt>
      <trkpt lat="41.032584" lon="-6.772809">
        <ele>539.7</ele>
        <time>1970-01-01T01:57:26.000Z</time>
      </trkpt>
      <trkpt lat="41.032607" lon="-6.77287">
        <ele>540.2</ele>
        <time>1970-01-01T01:57:27.000Z</time>
      </trkpt>
      <trkpt lat="41.032624" lon="-6.772932">
        <ele>540.7</ele>
        <time>1970-01-01T01:57:28.000Z</time>
      </trkpt>
      <trkpt lat="41.032636" lon="-6.772992">
        <ele>541.1</ele>
        <time>1970-01-01T01:57:29.000Z</time>
      </trkpt>
      <trkpt lat="41.032645" lon="-6.773044">
        <ele>541.5</ele>
        <time>1970-01-01T01:57:30.000Z</time>
      </trkpt>
      <trkpt lat="41.032652" lon="-6.77309">
        <ele>541.9</ele>
        <time>1970-01-01T01:57:31.000Z</time>
      </trkpt>
      <trkpt lat="41.032659" lon="-6.773131">
        <ele>542.2</ele>
        <time>1970-01-01T01:57:32.000Z</time>
      </trkpt>
      <trkpt lat="41.032666" lon="-6.77317">
        <ele>542.5</ele>
        <time>1970-01-01T01:57:33.000Z</time>
      </trkpt>
      <trkpt lat="41.032673" lon="-6.773208">
        <ele>542.8</ele>
        <time>1970-01-01T01:57:34.000Z</time>
      </trkpt>
      <trkpt lat="41.032679" lon="-6.773244">
        <ele>543.1</ele>
        <time>1970-01-01T01:57:35.000Z</time>
      </trkpt>
      <trkpt lat="41.032683" lon="-6.773279">
        <ele>543.3</ele>
        <time>1970-01-01T01:57:36.000Z</time>
      </trkpt>
      <trkpt lat="41.032687" lon="-6.773313">
        <ele>543.6</ele>
        <time>1970-01-01T01:57:37.000Z</time>
      </trkpt>
      <trkpt lat="41.032692" lon="-6.773345">
        <ele>543.9</ele>
        <time>1970-01-01T01:57:38.000Z</time>
      </trkpt>
      <trkpt lat="41.032698" lon="-6.773377">
        <ele>544.1</ele>
        <time>1970-01-01T01:57:39.000Z</time>
      </trkpt>
      <trkpt lat="41.032705" lon="-6.773408">
        <ele>544.3</ele>
        <time>1970-01-01T01:57:40.000Z</time>
      </trkpt>
      <trkpt lat="41.03271" lon="-6.773439">
        <ele>544.6</ele>
        <time>1970-01-01T01:57:41.000Z</time>
      </trkpt>
      <trkpt lat="41.032715" lon="-6.773468">
        <ele>544.8</ele>
        <time>1970-01-01T01:57:42.000Z</time>
      </trkpt>
      <trkpt lat="41.032718" lon="-6.773496">
        <ele>545</ele>
        <time>1970-01-01T01:57:43.000Z</time>
      </trkpt>
      <trkpt lat="41.032721" lon="-6.773523">
        <ele>545.2</ele>
        <time>1970-01-01T01:57:44.000Z</time>
      </trkpt>
      <trkpt lat="41.032723" lon="-6.773549">
        <ele>545.4</ele>
        <time>1970-01-01T01:57:45.000Z</time>
      </trkpt>
      <trkpt lat="41.032726" lon="-6.773576">
        <ele>545.6</ele>
        <time>1970-01-01T01:57:46.000Z</time>
      </trkpt>
      <trkpt lat="41.032729" lon="-6.773603">
        <ele>545.8</ele>
        <time>1970-01-01T01:57:47.000Z</time>
      </trkpt>
      <trkpt lat="41.032734" lon="-6.77363">
        <ele>546</ele>
        <time>1970-01-01T01:57:48.000Z</time>
      </trkpt>
      <trkpt lat="41.032738" lon="-6.773657">
        <ele>546.2</ele>
        <time>1970-01-01T01:57:49.000Z</time>
      </trkpt>
      <trkpt lat="41.032742" lon="-6.773683">
        <ele>546.4</ele>
        <time>1970-01-01T01:57:50.000Z</time>
      </trkpt>
      <trkpt lat="41.032745" lon="-6.773708">
        <ele>546.6</ele>
        <time>1970-01-01T01:57:51.000Z</time>
      </trkpt>
      <trkpt lat="41.032748" lon="-6.773733">
        <ele>546.8</ele>
        <time>1970-01-01T01:57:52.000Z</time>
      </trkpt>
      <trkpt lat="41.032752" lon="-6.773758">
        <ele>547</ele>
        <time>1970-01-01T01:57:53.000Z</time>
      </trkpt>
      <trkpt lat="41.032755" lon="-6.773782">
        <ele>547.2</ele>
        <time>1970-01-01T01:57:54.000Z</time>
      </trkpt>
      <trkpt lat="41.032758" lon="-6.773806">
        <ele>547.4</ele>
        <time>1970-01-01T01:57:55.000Z</time>
      </trkpt>
      <trkpt lat="41.03276" lon="-6.773829">
        <ele>547.6</ele>
        <time>1970-01-01T01:57:56.000Z</time>
      </trkpt>
      <trkpt lat="41.032761" lon="-6.773852">
        <ele>547.7</ele>
        <time>1970-01-01T01:57:57.000Z</time>
      </trkpt>
      <trkpt lat="41.032765" lon="-6.773875">
        <ele>547.9</ele>
        <time>1970-01-01T01:57:58.000Z</time>
      </trkpt>
      <trkpt lat="41.032768" lon="-6.773897">
        <ele>548.1</ele>
        <time>1970-01-01T01:57:59.000Z</time>
      </trkpt>
      <trkpt lat="41.032772" lon="-6.773918">
        <ele>548.2</ele>
        <time>1970-01-01T01:58:00.000Z</time>
      </trkpt>
      <trkpt lat="41.032774" lon="-6.773937">
        <ele>548.4</ele>
        <time>1970-01-01T01:58:01.000Z</time>
      </trkpt>
      <trkpt lat="41.032777" lon="-6.773957">
        <ele>548.5</ele>
        <time>1970-01-01T01:58:02.000Z</time>
      </trkpt>
      <trkpt lat="41.032781" lon="-6.773977">
        <ele>548.7</ele>
        <time>1970-01-01T01:58:03.000Z</time>
      </trkpt>
      <trkpt lat="41.032785" lon="-6.773998">
        <ele>548.9</ele>
        <time>1970-01-01T01:58:04.000Z</time>
      </trkpt>
      <trkpt lat="41.032789" lon="-6.774021">
        <ele>549</ele>
        <time>1970-01-01T01:58:05.000Z</time>
      </trkpt>
      <trkpt lat="41.032789" lon="-6.774045">
        <ele>549.2</ele>
        <time>1970-01-01T01:58:06.000Z</time>
      </trkpt>
      <trkpt lat="41.032789" lon="-6.77407">
        <ele>549.4</ele>
        <time>1970-01-01T01:58:07.000Z</time>
      </trkpt>
      <trkpt lat="41.032787" lon="-6.774095">
        <ele>549.6</ele>
        <time>1970-01-01T01:58:08.000Z</time>
      </trkpt>
      <trkpt lat="41.032785" lon="-6.774118">
        <ele>549.8</ele>
        <time>1970-01-01T01:58:09.000Z</time>
      </trkpt>
      <trkpt lat="41.032781" lon="-6.77414">
        <ele>549.9</ele>
        <time>1970-01-01T01:58:10.000Z</time>
      </trkpt>
      <trkpt lat="41.032776" lon="-6.774162">
        <ele>550.1</ele>
        <time>1970-01-01T01:58:11.000Z</time>
      </trkpt>
      <trkpt lat="41.032772" lon="-6.774184">
        <ele>550.3</ele>
        <time>1970-01-01T01:58:12.000Z</time>
      </trkpt>
      <trkpt lat="41.032769" lon="-6.774208">
        <ele>550.5</ele>
        <time>1970-01-01T01:58:13.000Z</time>
      </trkpt>
      <trkpt lat="41.032766" lon="-6.774232">
        <ele>550.6</ele>
        <time>1970-01-01T01:58:14.000Z</time>
      </trkpt>
      <trkpt lat="41.032763" lon="-6.774257">
        <ele>550.8</ele>
        <time>1970-01-01T01:58:15.000Z</time>
      </trkpt>
      <trkpt lat="41.03276" lon="-6.77428">
        <ele>551</ele>
        <time>1970-01-01T01:58:16.000Z</time>
      </trkpt>
      <trkpt lat="41.032756" lon="-6.774303">
        <ele>551.2</ele>
        <time>1970-01-01T01:58:17.000Z</time>
      </trkpt>
      <trkpt lat="41.032753" lon="-6.774325">
        <ele>551.4</ele>
        <time>1970-01-01T01:58:18.000Z</time>
      </trkpt>
      <trkpt lat="41.032749" lon="-6.774346">
        <ele>551.5</ele>
        <time>1970-01-01T01:58:19.000Z</time>
      </trkpt>
      <trkpt lat="41.032744" lon="-6.774365">
        <ele>551.7</ele>
        <time>1970-01-01T01:58:20.000Z</time>
      </trkpt>
      <trkpt lat="41.032738" lon="-6.774384">
        <ele>551.8</ele>
        <time>1970-01-01T01:58:21.000Z</time>
      </trkpt>
      <trkpt lat="41.032733" lon="-6.774403">
        <ele>552</ele>
        <time>1970-01-01T01:58:22.000Z</time>
      </trkpt>
      <trkpt lat="41.03273" lon="-6.774424">
        <ele>552.1</ele>
        <time>1970-01-01T01:58:23.000Z</time>
      </trkpt>
      <trkpt lat="41.032728" lon="-6.774447">
        <ele>552.3</ele>
        <time>1970-01-01T01:58:24.000Z</time>
      </trkpt>
      <trkpt lat="41.032725" lon="-6.774473">
        <ele>552.5</ele>
        <time>1970-01-01T01:58:25.000Z</time>
      </trkpt>
      <trkpt lat="41.032721" lon="-6.774498">
        <ele>552.7</ele>
        <time>1970-01-01T01:58:26.000Z</time>
      </trkpt>
      <trkpt lat="41.032718" lon="-6.774522">
        <ele>552.9</ele>
        <time>1970-01-01T01:58:27.000Z</time>
      </trkpt>
      <trkpt lat="41.032714" lon="-6.774546">
        <ele>553.1</ele>
        <time>1970-01-01T01:58:28.000Z</time>
      </trkpt>
      <trkpt lat="41.032709" lon="-6.77457">
        <ele>553.3</ele>
        <time>1970-01-01T01:58:29.000Z</time>
      </trkpt>
      <trkpt lat="41.032703" lon="-6.774593">
        <ele>553.4</ele>
        <time>1970-01-01T01:58:30.000Z</time>
      </trkpt>
      <trkpt lat="41.032696" lon="-6.774615">
        <ele>553.6</ele>
        <time>1970-01-01T01:58:31.000Z</time>
      </trkpt>
      <trkpt lat="41.032691" lon="-6.774637">
        <ele>553.8</ele>
        <time>1970-01-01T01:58:32.000Z</time>
      </trkpt>
      <trkpt lat="41.032687" lon="-6.77466">
        <ele>554</ele>
        <time>1970-01-01T01:58:33.000Z</time>
      </trkpt>
      <trkpt lat="41.032684" lon="-6.774683">
        <ele>554.1</ele>
        <time>1970-01-01T01:58:34.000Z</time>
      </trkpt>
      <trkpt lat="41.03268" lon="-6.774707">
        <ele>554.3</ele>
        <time>1970-01-01T01:58:35.000Z</time>
      </trkpt>
      <trkpt lat="41.032675" lon="-6.774731">
        <ele>554.5</ele>
        <time>1970-01-01T01:58:36.000Z</time>
      </trkpt>
      <trkpt lat="41.03267" lon="-6.774756">
        <ele>554.7</ele>
        <time>1970-01-01T01:58:37.000Z</time>
      </trkpt>
      <trkpt lat="41.032666" lon="-6.774782">
        <ele>554.9</ele>
        <time>1970-01-01T01:58:38.000Z</time>
      </trkpt>
      <trkpt lat="41.032661" lon="-6.774807">
        <ele>555.1</ele>
        <time>1970-01-01T01:58:39.000Z</time>
      </trkpt>
      <trkpt lat="41.032657" lon="-6.774832">
        <ele>555.3</ele>
        <time>1970-01-01T01:58:40.000Z</time>
      </trkpt>
      <trkpt lat="41.032652" lon="-6.774856">
        <ele>555.5</ele>
        <time>1970-01-01T01:58:41.000Z</time>
      </trkpt>
      <trkpt lat="41.032647" lon="-6.77488">
        <ele>555.7</ele>
        <time>1970-01-01T01:58:42.000Z</time>
      </trkpt>
      <trkpt lat="41.032643" lon="-6.774903">
        <ele>555.8</ele>
        <time>1970-01-01T01:58:43.000Z</time>
      </trkpt>
      <trkpt lat="41.032639" lon="-6.774926">
        <ele>556</ele>
        <time>1970-01-01T01:58:44.000Z</time>
      </trkpt>
      <trkpt lat="41.032634" lon="-6.774949">
        <ele>556.2</ele>
        <time>1970-01-01T01:58:45.000Z</time>
      </trkpt>
      <trkpt lat="41.032629" lon="-6.774973">
        <ele>556.4</ele>
        <time>1970-01-01T01:58:46.000Z</time>
      </trkpt>
      <trkpt lat="41.032625" lon="-6.774997">
        <ele>556.6</ele>
        <time>1970-01-01T01:58:47.000Z</time>
      </trkpt>
      <trkpt lat="41.03262" lon="-6.775019">
        <ele>556.7</ele>
        <time>1970-01-01T01:58:48.000Z</time>
      </trkpt>
      <trkpt lat="41.032616" lon="-6.775041">
        <ele>556.9</ele>
        <time>1970-01-01T01:58:49.000Z</time>
      </trkpt>
      <trkpt lat="41.032611" lon="-6.775063">
        <ele>557.1</ele>
        <time>1970-01-01T01:58:50.000Z</time>
      </trkpt>
      <trkpt lat="41.032608" lon="-6.775086">
        <ele>557.3</ele>
        <time>1970-01-01T01:58:51.000Z</time>
      </trkpt>
      <trkpt lat="41.032606" lon="-6.77511">
        <ele>557.4</ele>
        <time>1970-01-01T01:58:52.000Z</time>
      </trkpt>
      <trkpt lat="41.032607" lon="-6.775134">
        <ele>557.6</ele>
        <time>1970-01-01T01:58:53.000Z</time>
      </trkpt>
      <trkpt lat="41.032611" lon="-6.775157">
        <ele>557.8</ele>
        <time>1970-01-01T01:58:54.000Z</time>
      </trkpt>
      <trkpt lat="41.032618" lon="-6.775179">
        <ele>558</ele>
        <time>1970-01-01T01:58:55.000Z</time>
      </trkpt>
      <trkpt lat="41.032626" lon="-6.7752">
        <ele>558.2</ele>
        <time>1970-01-01T01:58:56.000Z</time>
      </trkpt>
      <trkpt lat="41.032634" lon="-6.775222">
        <ele>558.3</ele>
        <time>1970-01-01T01:58:57.000Z</time>
      </trkpt>
      <trkpt lat="41.032642" lon="-6.775246">
        <ele>558.5</ele>
        <time>1970-01-01T01:58:58.000Z</time>
      </trkpt>
      <trkpt lat="41.032652" lon="-6.77527">
        <ele>558.7</ele>
        <time>1970-01-01T01:58:59.000Z</time>
      </trkpt>
      <trkpt lat="41.032664" lon="-6.77529">
        <ele>558.9</ele>
        <time>1970-01-01T01:59:00.000Z</time>
      </trkpt>
      <trkpt lat="41.032676" lon="-6.775306">
        <ele>559.1</ele>
        <time>1970-01-01T01:59:01.000Z</time>
      </trkpt>
      <trkpt lat="41.032688" lon="-6.775319">
        <ele>559.3</ele>
        <time>1970-01-01T01:59:02.000Z</time>
      </trkpt>
      <trkpt lat="41.032699" lon="-6.775334">
        <ele>559.4</ele>
        <time>1970-01-01T01:59:03.000Z</time>
      </trkpt>
      <trkpt lat="41.032709" lon="-6.775352">
        <ele>559.6</ele>
        <time>1970-01-01T01:59:04.000Z</time>
      </trkpt>
      <trkpt lat="41.032719" lon="-6.775374">
        <ele>559.8</ele>
        <time>1970-01-01T01:59:05.000Z</time>
      </trkpt>
      <trkpt lat="41.032731" lon="-6.775396">
        <ele>560</ele>
        <time>1970-01-01T01:59:06.000Z</time>
      </trkpt>
      <trkpt lat="41.032744" lon="-6.775418">
        <ele>560.2</ele>
        <time>1970-01-01T01:59:07.000Z</time>
      </trkpt>
      <trkpt lat="41.032757" lon="-6.77544">
        <ele>560.4</ele>
        <time>1970-01-01T01:59:08.000Z</time>
      </trkpt>
      <trkpt lat="41.03277" lon="-6.775461">
        <ele>560.6</ele>
        <time>1970-01-01T01:59:09.000Z</time>
      </trkpt>
      <trkpt lat="41.032784" lon="-6.775482">
        <ele>560.8</ele>
        <time>1970-01-01T01:59:10.000Z</time>
      </trkpt>
      <trkpt lat="41.032797" lon="-6.775502">
        <ele>561</ele>
        <time>1970-01-01T01:59:11.000Z</time>
      </trkpt>
      <trkpt lat="41.032809" lon="-6.775522">
        <ele>561.2</ele>
        <time>1970-01-01T01:59:12.000Z</time>
      </trkpt>
      <trkpt lat="41.03282" lon="-6.775542">
        <ele>561.4</ele>
        <time>1970-01-01T01:59:13.000Z</time>
      </trkpt>
      <trkpt lat="41.032831" lon="-6.775564">
        <ele>561.6</ele>
        <time>1970-01-01T01:59:14.000Z</time>
      </trkpt>
      <trkpt lat="41.032841" lon="-6.775585">
        <ele>561.8</ele>
        <time>1970-01-01T01:59:15.000Z</time>
      </trkpt>
      <trkpt lat="41.032852" lon="-6.775607">
        <ele>562</ele>
        <time>1970-01-01T01:59:16.000Z</time>
      </trkpt>
      <trkpt lat="41.032865" lon="-6.775628">
        <ele>562.2</ele>
        <time>1970-01-01T01:59:17.000Z</time>
      </trkpt>
      <trkpt lat="41.032877" lon="-6.775652">
        <ele>562.4</ele>
        <time>1970-01-01T01:59:18.000Z</time>
      </trkpt>
      <trkpt lat="41.032889" lon="-6.775677">
        <ele>562.6</ele>
        <time>1970-01-01T01:59:19.000Z</time>
      </trkpt>
      <trkpt lat="41.032898" lon="-6.775701">
        <ele>562.8</ele>
        <time>1970-01-01T01:59:20.000Z</time>
      </trkpt>
      <trkpt lat="41.032906" lon="-6.775725">
        <ele>563</ele>
        <time>1970-01-01T01:59:21.000Z</time>
      </trkpt>
      <trkpt lat="41.032914" lon="-6.775749">
        <ele>563.2</ele>
        <time>1970-01-01T01:59:22.000Z</time>
      </trkpt>
      <trkpt lat="41.032923" lon="-6.775774">
        <ele>563.4</ele>
        <time>1970-01-01T01:59:23.000Z</time>
      </trkpt>
      <trkpt lat="41.032931" lon="-6.775797">
        <ele>563.6</ele>
        <time>1970-01-01T01:59:24.000Z</time>
      </trkpt>
      <trkpt lat="41.03294" lon="-6.77582">
        <ele>563.8</ele>
        <time>1970-01-01T01:59:25.000Z</time>
      </trkpt>
      <trkpt lat="41.032949" lon="-6.775843">
        <ele>564</ele>
        <time>1970-01-01T01:59:26.000Z</time>
      </trkpt>
      <trkpt lat="41.032959" lon="-6.775865">
        <ele>564.2</ele>
        <time>1970-01-01T01:59:27.000Z</time>
      </trkpt>
      <trkpt lat="41.03297" lon="-6.775886">
        <ele>564.4</ele>
        <time>1970-01-01T01:59:28.000Z</time>
      </trkpt>
      <trkpt lat="41.03298" lon="-6.775907">
        <ele>564.6</ele>
        <time>1970-01-01T01:59:29.000Z</time>
      </trkpt>
      <trkpt lat="41.03299" lon="-6.775929">
        <ele>564.8</ele>
        <time>1970-01-01T01:59:30.000Z</time>
      </trkpt>
      <trkpt lat="41.033" lon="-6.775951">
        <ele>565</ele>
        <time>1970-01-01T01:59:31.000Z</time>
      </trkpt>
      <trkpt lat="41.03301" lon="-6.775974">
        <ele>565.2</ele>
        <time>1970-01-01T01:59:32.000Z</time>
      </trkpt>
      <trkpt lat="41.033019" lon="-6.775997">
        <ele>565.4</ele>
        <time>1970-01-01T01:59:33.000Z</time>
      </trkpt>
      <trkpt lat="41.033028" lon="-6.77602">
        <ele>565.6</ele>
        <time>1970-01-01T01:59:34.000Z</time>
      </trkpt>
      <trkpt lat="41.033038" lon="-6.776043">
        <ele>565.8</ele>
        <time>1970-01-01T01:59:35.000Z</time>
      </trkpt>
      <trkpt lat="41.033048" lon="-6.776066">
        <ele>566</ele>
        <time>1970-01-01T01:59:36.000Z</time>
      </trkpt>
      <trkpt lat="41.033056" lon="-6.77609">
        <ele>566.1</ele>
        <time>1970-01-01T01:59:37.000Z</time>
      </trkpt>
      <trkpt lat="41.033065" lon="-6.776113">
        <ele>566.3</ele>
        <time>1970-01-01T01:59:38.000Z</time>
      </trkpt>
      <trkpt lat="41.033074" lon="-6.776135">
        <ele>566.5</ele>
        <time>1970-01-01T01:59:39.000Z</time>
      </trkpt>
      <trkpt lat="41.033084" lon="-6.776158">
        <ele>566.7</ele>
        <time>1970-01-01T01:59:40.000Z</time>
      </trkpt>
      <trkpt lat="41.033093" lon="-6.77618">
        <ele>566.9</ele>
        <time>1970-01-01T01:59:41.000Z</time>
      </trkpt>
      <trkpt lat="41.033103" lon="-6.776201">
        <ele>567.1</ele>
        <time>1970-01-01T01:59:42.000Z</time>
      </trkpt>
      <trkpt lat="41.033113" lon="-6.776224">
        <ele>567.3</ele>
        <time>1970-01-01T01:59:43.000Z</time>
      </trkpt>
      <trkpt lat="41.033124" lon="-6.776246">
        <ele>567.5</ele>
        <time>1970-01-01T01:59:44.000Z</time>
      </trkpt>
      <trkpt lat="41.033134" lon="-6.776268">
        <ele>567.7</ele>
        <time>1970-01-01T01:59:45.000Z</time>
      </trkpt>
      <trkpt lat="41.033145" lon="-6.776289">
        <ele>567.9</ele>
        <time>1970-01-01T01:59:46.000Z</time>
      </trkpt>
      <trkpt lat="41.033156" lon="-6.77631">
        <ele>568.1</ele>
        <time>1970-01-01T01:59:47.000Z</time>
      </trkpt>
      <trkpt lat="41.033168" lon="-6.77633">
        <ele>568.3</ele>
        <time>1970-01-01T01:59:48.000Z</time>
      </trkpt>
      <trkpt lat="41.033181" lon="-6.776349">
        <ele>568.5</ele>
        <time>1970-01-01T01:59:49.000Z</time>
      </trkpt>
      <trkpt lat="41.033194" lon="-6.776366">
        <ele>568.6</ele>
        <time>1970-01-01T01:59:50.000Z</time>
      </trkpt>
      <trkpt lat="41.033208" lon="-6.776383">
        <ele>568.8</ele>
        <time>1970-01-01T01:59:51.000Z</time>
      </trkpt>
      <trkpt lat="41.033222" lon="-6.776401">
        <ele>569</ele>
        <time>1970-01-01T01:59:52.000Z</time>
      </trkpt>
      <trkpt lat="41.033234" lon="-6.776421">
        <ele>569.2</ele>
        <time>1970-01-01T01:59:53.000Z</time>
      </trkpt>
      <trkpt lat="41.033246" lon="-6.776441">
        <ele>569.4</ele>
        <time>1970-01-01T01:59:54.000Z</time>
      </trkpt>
      <trkpt lat="41.033259" lon="-6.776463">
        <ele>569.6</ele>
        <time>1970-01-01T01:59:55.000Z</time>
      </trkpt>
      <trkpt lat="41.033272" lon="-6.776483">
        <ele>569.8</ele>
        <time>1970-01-01T01:59:56.000Z</time>
      </trkpt>
      <trkpt lat="41.033285" lon="-6.776504">
        <ele>570</ele>
        <time>1970-01-01T01:59:57.000Z</time>
      </trkpt>
      <trkpt lat="41.033299" lon="-6.776523">
        <ele>570.2</ele>
        <time>1970-01-01T01:59:58.000Z</time>
      </trkpt>
      <trkpt lat="41.033314" lon="-6.776542">
        <ele>570.4</ele>
        <time>1970-01-01T01:59:59.000Z</time>
      </trkpt>
      <trkpt lat="41.03333" lon="-6.77656">
        <ele>570.6</ele>
        <time>1970-01-01T02:00:00.000Z</time>
      </trkpt>
      <trkpt lat="41.033346" lon="-6.776576">
        <ele>570.8</ele>
        <time>1970-01-01T02:00:01.000Z</time>
      </trkpt>
      <trkpt lat="41.033363" lon="-6.776593">
        <ele>571.1</ele>
        <time>1970-01-01T02:00:02.000Z</time>
      </trkpt>
      <trkpt lat="41.03338" lon="-6.77661">
        <ele>571.3</ele>
        <time>1970-01-01T02:00:03.000Z</time>
      </trkpt>
      <trkpt lat="41.033396" lon="-6.776628">
        <ele>571.5</ele>
        <time>1970-01-01T02:00:04.000Z</time>
      </trkpt>
      <trkpt lat="41.033412" lon="-6.776648">
        <ele>571.7</ele>
        <time>1970-01-01T02:00:05.000Z</time>
      </trkpt>
      <trkpt lat="41.033427" lon="-6.776668">
        <ele>571.9</ele>
        <time>1970-01-01T02:00:06.000Z</time>
      </trkpt>
      <trkpt lat="41.033443" lon="-6.776688">
        <ele>572.1</ele>
        <time>1970-01-01T02:00:07.000Z</time>
      </trkpt>
      <trkpt lat="41.033457" lon="-6.776707">
        <ele>572.3</ele>
        <time>1970-01-01T02:00:08.000Z</time>
      </trkpt>
      <trkpt lat="41.033472" lon="-6.776727">
        <ele>572.5</ele>
        <time>1970-01-01T02:00:09.000Z</time>
      </trkpt>
      <trkpt lat="41.033487" lon="-6.776745">
        <ele>572.7</ele>
        <time>1970-01-01T02:00:10.000Z</time>
      </trkpt>
      <trkpt lat="41.033502" lon="-6.776762">
        <ele>572.9</ele>
        <time>1970-01-01T02:00:11.000Z</time>
      </trkpt>
      <trkpt lat="41.033518" lon="-6.776779">
        <ele>573.1</ele>
        <time>1970-01-01T02:00:12.000Z</time>
      </trkpt>
      <trkpt lat="41.033534" lon="-6.776795">
        <ele>573.3</ele>
        <time>1970-01-01T02:00:13.000Z</time>
      </trkpt>
      <trkpt lat="41.033549" lon="-6.776811">
        <ele>573.5</ele>
        <time>1970-01-01T02:00:14.000Z</time>
      </trkpt>
      <trkpt lat="41.033565" lon="-6.776828">
        <ele>573.7</ele>
        <time>1970-01-01T02:00:15.000Z</time>
      </trkpt>
      <trkpt lat="41.03358" lon="-6.776845">
        <ele>573.9</ele>
        <time>1970-01-01T02:00:16.000Z</time>
      </trkpt>
      <trkpt lat="41.033596" lon="-6.776863">
        <ele>574.1</ele>
        <time>1970-01-01T02:00:17.000Z</time>
      </trkpt>
      <trkpt lat="41.033611" lon="-6.77688">
        <ele>574.3</ele>
        <time>1970-01-01T02:00:18.000Z</time>
      </trkpt>
      <trkpt lat="41.033626" lon="-6.776895">
        <ele>574.5</ele>
        <time>1970-01-01T02:00:19.000Z</time>
      </trkpt>
      <trkpt lat="41.033642" lon="-6.776909">
        <ele>574.7</ele>
        <time>1970-01-01T02:00:20.000Z</time>
      </trkpt>
      <trkpt lat="41.033658" lon="-6.776922">
        <ele>574.9</ele>
        <time>1970-01-01T02:00:21.000Z</time>
      </trkpt>
      <trkpt lat="41.033675" lon="-6.776933">
        <ele>575.1</ele>
        <time>1970-01-01T02:00:22.000Z</time>
      </trkpt>
      <trkpt lat="41.033693" lon="-6.776941">
        <ele>575.4</ele>
        <time>1970-01-01T02:00:23.000Z</time>
      </trkpt>
      <trkpt lat="41.033711" lon="-6.776946">
        <ele>575.5</ele>
        <time>1970-01-01T02:00:24.000Z</time>
      </trkpt>
      <trkpt lat="41.033732" lon="-6.776947">
        <ele>575.6</ele>
        <time>1970-01-01T02:00:25.000Z</time>
      </trkpt>
      <trkpt lat="41.033754" lon="-6.776944">
        <ele>575.6</ele>
        <time>1970-01-01T02:00:26.000Z</time>
      </trkpt>
      <trkpt lat="41.033779" lon="-6.776938">
        <ele>575.7</ele>
        <time>1970-01-01T02:00:27.000Z</time>
      </trkpt>
      <trkpt lat="41.033805" lon="-6.776932">
        <ele>575.8</ele>
        <time>1970-01-01T02:00:28.000Z</time>
      </trkpt>
      <trkpt lat="41.033832" lon="-6.776928">
        <ele>575.9</ele>
        <time>1970-01-01T02:00:29.000Z</time>
      </trkpt>
      <trkpt lat="41.033855" lon="-6.776925">
        <ele>576</ele>
        <time>1970-01-01T02:00:30.000Z</time>
      </trkpt>
      <trkpt lat="41.033876" lon="-6.776922">
        <ele>576</ele>
        <time>1970-01-01T02:00:31.000Z</time>
      </trkpt>
      <trkpt lat="41.033892" lon="-6.776921">
        <ele>576.1</ele>
        <time>1970-01-01T02:00:32.000Z</time>
      </trkpt>
      <trkpt lat="41.0339" lon="-6.776922">
        <ele>576.1</ele>
        <time>1970-01-01T02:00:33.000Z</time>
      </trkpt>
      <trkpt lat="41.033902" lon="-6.776924">
        <ele>576.1</ele>
        <time>1970-01-01T02:00:34.000Z</time>
      </trkpt>
      <trkpt lat="41.0339" lon="-6.776927">
        <ele>576.1</ele>
        <time>1970-01-01T02:00:35.000Z</time>
      </trkpt>
      <trkpt lat="41.033902" lon="-6.776926">
        <ele>576.1</ele>
        <time>1970-01-01T02:00:36.000Z</time>
      </trkpt>
      <trkpt lat="41.033902" lon="-6.776927">
        <ele>576.1</ele>
        <time>1970-01-01T02:00:37.000Z</time>
      </trkpt>
      <trkpt lat="41.033902" lon="-6.776926">
        <ele>576.1</ele>
        <time>1970-01-01T02:00:38.000Z</time>
      </trkpt>
      <trkpt lat="41.033902" lon="-6.776925">
        <ele>576.1</ele>
        <time>1970-01-01T02:00:39.000Z</time>
      </trkpt>
      <trkpt lat="41.033901" lon="-6.776924">
        <ele>576.1</ele>
        <time>1970-01-01T02:00:40.000Z</time>
      </trkpt>
      <trkpt lat="41.033901" lon="-6.776924">
        <ele>576.1</ele>
        <time>1970-01-01T02:00:41.000Z</time>
      </trkpt>
      <trkpt lat="41.033902" lon="-6.776925">
        <ele>576.1</ele>
        <time>1970-01-01T02:00:42.000Z</time>
      </trkpt>
      <trkpt lat="41.033904" lon="-6.776926">
        <ele>576.2</ele>
        <time>1970-01-01T02:00:43.000Z</time>
      </trkpt>
      <trkpt lat="41.033905" lon="-6.776926">
        <ele>576.2</ele>
        <time>1970-01-01T02:00:44.000Z</time>
      </trkpt>
      <trkpt lat="41.033935" lon="-6.77692">
        <ele>576.3</ele>
        <time>1970-01-01T02:00:45.000Z</time>
      </trkpt>
      <trkpt lat="41.033935" lon="-6.776918">
        <ele>576.3</ele>
        <time>1970-01-01T02:00:46.000Z</time>
      </trkpt>
      <trkpt lat="41.033935" lon="-6.776917">
        <ele>576.3</ele>
        <time>1970-01-01T02:07:09.000Z</time>
      </trkpt>
      <trkpt lat="41.033936" lon="-6.776916">
        <ele>576.3</ele>
        <time>1970-01-01T02:07:10.000Z</time>
      </trkpt>
      <trkpt lat="41.033936" lon="-6.776915">
        <ele>576.3</ele>
        <time>1970-01-01T02:07:11.000Z</time>
      </trkpt>
      <trkpt lat="41.033937" lon="-6.776916">
        <ele>576.3</ele>
        <time>1970-01-01T02:07:12.000Z</time>
      </trkpt>
      <trkpt lat="41.033977" lon="-6.776889">
        <ele>576.4</ele>
        <time>1970-01-01T02:07:13.000Z</time>
      </trkpt>
      <trkpt lat="41.034003" lon="-6.776884">
        <ele>576.5</ele>
        <time>1970-01-01T02:07:14.000Z</time>
      </trkpt>
      <trkpt lat="41.034031" lon="-6.776878">
        <ele>576.6</ele>
        <time>1970-01-01T02:08:33.000Z</time>
      </trkpt>
      <trkpt lat="41.03406" lon="-6.776872">
        <ele>576.7</ele>
        <time>1970-01-01T02:08:34.000Z</time>
      </trkpt>
      <trkpt lat="41.034092" lon="-6.776867">
        <ele>576.8</ele>
        <time>1970-01-01T02:08:35.000Z</time>
      </trkpt>
      <trkpt lat="41.034127" lon="-6.776863">
        <ele>576.9</ele>
        <time>1970-01-01T02:08:36.000Z</time>
      </trkpt>
      <trkpt lat="41.034165" lon="-6.776858">
        <ele>577</ele>
        <time>1970-01-01T02:08:37.000Z</time>
      </trkpt>
      <trkpt lat="41.034203" lon="-6.776851">
        <ele>577.1</ele>
        <time>1970-01-01T02:08:38.000Z</time>
      </trkpt>
      <trkpt lat="41.034243" lon="-6.776843">
        <ele>577.3</ele>
        <time>1970-01-01T02:08:39.000Z</time>
      </trkpt>
      <trkpt lat="41.034286" lon="-6.776834">
        <ele>577.4</ele>
        <time>1970-01-01T02:08:40.000Z</time>
      </trkpt>
      <trkpt lat="41.034328" lon="-6.776823">
        <ele>577.6</ele>
        <time>1970-01-01T02:08:41.000Z</time>
      </trkpt>
      <trkpt lat="41.034368" lon="-6.77681">
        <ele>577.7</ele>
        <time>1970-01-01T02:08:42.000Z</time>
      </trkpt>
      <trkpt lat="41.034406" lon="-6.776796">
        <ele>577.8</ele>
        <time>1970-01-01T02:08:43.000Z</time>
      </trkpt>
      <trkpt lat="41.034443" lon="-6.776781">
        <ele>577.9</ele>
        <time>1970-01-01T02:08:44.000Z</time>
      </trkpt>
      <trkpt lat="41.034479" lon="-6.776768">
        <ele>578.1</ele>
        <time>1970-01-01T02:08:45.000Z</time>
      </trkpt>
      <trkpt lat="41.034513" lon="-6.776755">
        <ele>578.2</ele>
        <time>1970-01-01T02:08:46.000Z</time>
      </trkpt>
      <trkpt lat="41.034547" lon="-6.776743">
        <ele>578.3</ele>
        <time>1970-01-01T02:08:47.000Z</time>
      </trkpt>
      <trkpt lat="41.034581" lon="-6.776731">
        <ele>578.4</ele>
        <time>1970-01-01T02:08:48.000Z</time>
      </trkpt>
      <trkpt lat="41.034615" lon="-6.776718">
        <ele>578.5</ele>
        <time>1970-01-01T02:08:49.000Z</time>
      </trkpt>
      <trkpt lat="41.034649" lon="-6.776704">
        <ele>578.6</ele>
        <time>1970-01-01T02:08:50.000Z</time>
      </trkpt>
      <trkpt lat="41.034681" lon="-6.776688">
        <ele>578.7</ele>
        <time>1970-01-01T02:08:51.000Z</time>
      </trkpt>
      <trkpt lat="41.03471" lon="-6.776673">
        <ele>578.8</ele>
        <time>1970-01-01T02:08:52.000Z</time>
      </trkpt>
      <trkpt lat="41.034737" lon="-6.776656">
        <ele>578.9</ele>
        <time>1970-01-01T02:08:53.000Z</time>
      </trkpt>
      <trkpt lat="41.034763" lon="-6.776639">
        <ele>579</ele>
        <time>1970-01-01T02:08:54.000Z</time>
      </trkpt>
      <trkpt lat="41.034789" lon="-6.776619">
        <ele>579.1</ele>
        <time>1970-01-01T02:08:55.000Z</time>
      </trkpt>
      <trkpt lat="41.034813" lon="-6.776596">
        <ele>579.2</ele>
        <time>1970-01-01T02:08:56.000Z</time>
      </trkpt>
      <trkpt lat="41.034837" lon="-6.776571">
        <ele>579.3</ele>
        <time>1970-01-01T02:08:57.000Z</time>
      </trkpt>
      <trkpt lat="41.034858" lon="-6.776545">
        <ele>579.4</ele>
        <time>1970-01-01T02:08:58.000Z</time>
      </trkpt>
      <trkpt lat="41.034878" lon="-6.776518">
        <ele>579.5</ele>
        <time>1970-01-01T02:08:59.000Z</time>
      </trkpt>
      <trkpt lat="41.034896" lon="-6.776489">
        <ele>579.6</ele>
        <time>1970-01-01T02:09:00.000Z</time>
      </trkpt>
      <trkpt lat="41.034914" lon="-6.776459">
        <ele>579.6</ele>
        <time>1970-01-01T02:09:01.000Z</time>
      </trkpt>
      <trkpt lat="41.03493" lon="-6.776426">
        <ele>579.7</ele>
        <time>1970-01-01T02:09:02.000Z</time>
      </trkpt>
      <trkpt lat="41.034945" lon="-6.776393">
        <ele>579.8</ele>
        <time>1970-01-01T02:09:03.000Z</time>
      </trkpt>
      <trkpt lat="41.034958" lon="-6.776359">
        <ele>579.9</ele>
        <time>1970-01-01T02:09:04.000Z</time>
      </trkpt>
      <trkpt lat="41.034969" lon="-6.776324">
        <ele>580</ele>
        <time>1970-01-01T02:09:05.000Z</time>
      </trkpt>
      <trkpt lat="41.03498" lon="-6.776288">
        <ele>580.1</ele>
        <time>1970-01-01T02:09:06.000Z</time>
      </trkpt>
      <trkpt lat="41.034991" lon="-6.776252">
        <ele>580.2</ele>
        <time>1970-01-01T02:09:07.000Z</time>
      </trkpt>
      <trkpt lat="41.035002" lon="-6.776216">
        <ele>580.3</ele>
        <time>1970-01-01T02:09:08.000Z</time>
      </trkpt>
      <trkpt lat="41.035014" lon="-6.776179">
        <ele>580.3</ele>
        <time>1970-01-01T02:09:09.000Z</time>
      </trkpt>
      <trkpt lat="41.035025" lon="-6.776141">
        <ele>580.4</ele>
        <time>1970-01-01T02:09:10.000Z</time>
      </trkpt>
      <trkpt lat="41.035034" lon="-6.776103">
        <ele>580.5</ele>
        <time>1970-01-01T02:09:11.000Z</time>
      </trkpt>
      <trkpt lat="41.035043" lon="-6.776065">
        <ele>580.6</ele>
        <time>1970-01-01T02:09:12.000Z</time>
      </trkpt>
      <trkpt lat="41.035052" lon="-6.776027">
        <ele>580.7</ele>
        <time>1970-01-01T02:09:13.000Z</time>
      </trkpt>
      <trkpt lat="41.03506" lon="-6.775988">
        <ele>580.8</ele>
        <time>1970-01-01T02:09:14.000Z</time>
      </trkpt>
      <trkpt lat="41.035067" lon="-6.77595">
        <ele>580.9</ele>
        <time>1970-01-01T02:09:15.000Z</time>
      </trkpt>
      <trkpt lat="41.035074" lon="-6.775912">
        <ele>581</ele>
        <time>1970-01-01T02:09:16.000Z</time>
      </trkpt>
      <trkpt lat="41.035082" lon="-6.775875">
        <ele>581.1</ele>
        <time>1970-01-01T02:09:17.000Z</time>
      </trkpt>
      <trkpt lat="41.035089" lon="-6.775838">
        <ele>581.1</ele>
        <time>1970-01-01T02:09:18.000Z</time>
      </trkpt>
      <trkpt lat="41.035097" lon="-6.775801">
        <ele>581.2</ele>
        <time>1970-01-01T02:09:19.000Z</time>
      </trkpt>
      <trkpt lat="41.035106" lon="-6.775764">
        <ele>581.3</ele>
        <time>1970-01-01T02:09:20.000Z</time>
      </trkpt>
      <trkpt lat="41.035113" lon="-6.775727">
        <ele>581.4</ele>
        <time>1970-01-01T02:09:21.000Z</time>
      </trkpt>
      <trkpt lat="41.03512" lon="-6.77569">
        <ele>581.5</ele>
        <time>1970-01-01T02:09:22.000Z</time>
      </trkpt>
      <trkpt lat="41.035127" lon="-6.775653">
        <ele>581.6</ele>
        <time>1970-01-01T02:09:23.000Z</time>
      </trkpt>
      <trkpt lat="41.035133" lon="-6.775617">
        <ele>581.7</ele>
        <time>1970-01-01T02:09:24.000Z</time>
      </trkpt>
      <trkpt lat="41.035138" lon="-6.77558">
        <ele>581.7</ele>
        <time>1970-01-01T02:09:25.000Z</time>
      </trkpt>
      <trkpt lat="41.035144" lon="-6.775541">
        <ele>581.8</ele>
        <time>1970-01-01T02:09:26.000Z</time>
      </trkpt>
      <trkpt lat="41.035151" lon="-6.775502">
        <ele>581.9</ele>
        <time>1970-01-01T02:09:27.000Z</time>
      </trkpt>
      <trkpt lat="41.03516" lon="-6.775462">
        <ele>582</ele>
        <time>1970-01-01T02:09:28.000Z</time>
      </trkpt>
      <trkpt lat="41.035169" lon="-6.775423">
        <ele>582.1</ele>
        <time>1970-01-01T02:09:29.000Z</time>
      </trkpt>
      <trkpt lat="41.035177" lon="-6.775383">
        <ele>582.2</ele>
        <time>1970-01-01T02:09:30.000Z</time>
      </trkpt>
      <trkpt lat="41.035183" lon="-6.775343">
        <ele>582.3</ele>
        <time>1970-01-01T02:09:31.000Z</time>
      </trkpt>
      <trkpt lat="41.035187" lon="-6.775304">
        <ele>582.4</ele>
        <time>1970-01-01T02:09:32.000Z</time>
      </trkpt>
      <trkpt lat="41.03519" lon="-6.775266">
        <ele>582.5</ele>
        <time>1970-01-01T02:09:33.000Z</time>
      </trkpt>
      <trkpt lat="41.035194" lon="-6.775227">
        <ele>582.6</ele>
        <time>1970-01-01T02:09:34.000Z</time>
      </trkpt>
      <trkpt lat="41.035198" lon="-6.775188">
        <ele>582.6</ele>
        <time>1970-01-01T02:09:35.000Z</time>
      </trkpt>
      <trkpt lat="41.035203" lon="-6.775149">
        <ele>582.7</ele>
        <time>1970-01-01T02:09:36.000Z</time>
      </trkpt>
      <trkpt lat="41.03521" lon="-6.775111">
        <ele>582.8</ele>
        <time>1970-01-01T02:09:37.000Z</time>
      </trkpt>
      <trkpt lat="41.035217" lon="-6.775073">
        <ele>582.9</ele>
        <time>1970-01-01T02:09:38.000Z</time>
      </trkpt>
      <trkpt lat="41.035224" lon="-6.775036">
        <ele>583</ele>
        <time>1970-01-01T02:09:39.000Z</time>
      </trkpt>
      <trkpt lat="41.035231" lon="-6.775001">
        <ele>583.1</ele>
        <time>1970-01-01T02:09:40.000Z</time>
      </trkpt>
      <trkpt lat="41.035238" lon="-6.774966">
        <ele>583.2</ele>
        <time>1970-01-01T02:09:41.000Z</time>
      </trkpt>
      <trkpt lat="41.035245" lon="-6.774931">
        <ele>583.2</ele>
        <time>1970-01-01T02:09:42.000Z</time>
      </trkpt>
      <trkpt lat="41.035251" lon="-6.774896">
        <ele>583.3</ele>
        <time>1970-01-01T02:09:43.000Z</time>
      </trkpt>
      <trkpt lat="41.035257" lon="-6.774861">
        <ele>583.4</ele>
        <time>1970-01-01T02:09:44.000Z</time>
      </trkpt>
      <trkpt lat="41.035263" lon="-6.774826">
        <ele>583.5</ele>
        <time>1970-01-01T02:09:45.000Z</time>
      </trkpt>
      <trkpt lat="41.035268" lon="-6.77479">
        <ele>583.6</ele>
        <time>1970-01-01T02:09:46.000Z</time>
      </trkpt>
      <trkpt lat="41.035273" lon="-6.774753">
        <ele>583.7</ele>
        <time>1970-01-01T02:09:47.000Z</time>
      </trkpt>
      <trkpt lat="41.03528" lon="-6.774715">
        <ele>583.7</ele>
        <time>1970-01-01T02:09:48.000Z</time>
      </trkpt>
      <trkpt lat="41.035287" lon="-6.774678">
        <ele>583.8</ele>
        <time>1970-01-01T02:09:49.000Z</time>
      </trkpt>
      <trkpt lat="41.035294" lon="-6.77464">
        <ele>583.9</ele>
        <time>1970-01-01T02:09:50.000Z</time>
      </trkpt>
      <trkpt lat="41.035301" lon="-6.774602">
        <ele>584</ele>
        <time>1970-01-01T02:09:51.000Z</time>
      </trkpt>
      <trkpt lat="41.035308" lon="-6.774563">
        <ele>584.1</ele>
        <time>1970-01-01T02:09:52.000Z</time>
      </trkpt>
      <trkpt lat="41.035317" lon="-6.774525">
        <ele>584.2</ele>
        <time>1970-01-01T02:09:53.000Z</time>
      </trkpt>
      <trkpt lat="41.035325" lon="-6.774487">
        <ele>584.3</ele>
        <time>1970-01-01T02:09:54.000Z</time>
      </trkpt>
      <trkpt lat="41.035331" lon="-6.774448">
        <ele>584.4</ele>
        <time>1970-01-01T02:09:55.000Z</time>
      </trkpt>
      <trkpt lat="41.035338" lon="-6.77441">
        <ele>584.5</ele>
        <time>1970-01-01T02:09:56.000Z</time>
      </trkpt>
      <trkpt lat="41.035346" lon="-6.774373">
        <ele>584.5</ele>
        <time>1970-01-01T02:09:57.000Z</time>
      </trkpt>
      <trkpt lat="41.035355" lon="-6.774336">
        <ele>584.6</ele>
        <time>1970-01-01T02:09:58.000Z</time>
      </trkpt>
      <trkpt lat="41.035364" lon="-6.774299">
        <ele>584.7</ele>
        <time>1970-01-01T02:09:59.000Z</time>
      </trkpt>
      <trkpt lat="41.035374" lon="-6.774262">
        <ele>584.8</ele>
        <time>1970-01-01T02:10:00.000Z</time>
      </trkpt>
      <trkpt lat="41.035386" lon="-6.774226">
        <ele>584.9</ele>
        <time>1970-01-01T02:10:01.000Z</time>
      </trkpt>
      <trkpt lat="41.035397" lon="-6.774189">
        <ele>585</ele>
        <time>1970-01-01T02:10:02.000Z</time>
      </trkpt>
      <trkpt lat="41.035409" lon="-6.774152">
        <ele>585.1</ele>
        <time>1970-01-01T02:10:03.000Z</time>
      </trkpt>
      <trkpt lat="41.035421" lon="-6.774113">
        <ele>585.2</ele>
        <time>1970-01-01T02:10:04.000Z</time>
      </trkpt>
      <trkpt lat="41.035432" lon="-6.774075">
        <ele>585.3</ele>
        <time>1970-01-01T02:10:05.000Z</time>
      </trkpt>
      <trkpt lat="41.035445" lon="-6.774036">
        <ele>585.4</ele>
        <time>1970-01-01T02:10:06.000Z</time>
      </trkpt>
      <trkpt lat="41.035457" lon="-6.773999">
        <ele>585.4</ele>
        <time>1970-01-01T02:10:07.000Z</time>
      </trkpt>
      <trkpt lat="41.03547" lon="-6.773962">
        <ele>585.5</ele>
        <time>1970-01-01T02:10:08.000Z</time>
      </trkpt>
      <trkpt lat="41.035482" lon="-6.773926">
        <ele>585.6</ele>
        <time>1970-01-01T02:10:09.000Z</time>
      </trkpt>
      <trkpt lat="41.035495" lon="-6.77389">
        <ele>585.7</ele>
        <time>1970-01-01T02:10:10.000Z</time>
      </trkpt>
      <trkpt lat="41.035508" lon="-6.773855">
        <ele>585.8</ele>
        <time>1970-01-01T02:10:11.000Z</time>
      </trkpt>
      <trkpt lat="41.035522" lon="-6.773819">
        <ele>585.9</ele>
        <time>1970-01-01T02:10:12.000Z</time>
      </trkpt>
      <trkpt lat="41.035536" lon="-6.773782">
        <ele>586</ele>
        <time>1970-01-01T02:10:13.000Z</time>
      </trkpt>
      <trkpt lat="41.035549" lon="-6.773744">
        <ele>586.1</ele>
        <time>1970-01-01T02:10:14.000Z</time>
      </trkpt>
      <trkpt lat="41.035563" lon="-6.773706">
        <ele>586.2</ele>
        <time>1970-01-01T02:10:15.000Z</time>
      </trkpt>
      <trkpt lat="41.035577" lon="-6.773668">
        <ele>586.3</ele>
        <time>1970-01-01T02:10:16.000Z</time>
      </trkpt>
      <trkpt lat="41.03559" lon="-6.773629">
        <ele>586.4</ele>
        <time>1970-01-01T02:10:17.000Z</time>
      </trkpt>
      <trkpt lat="41.035603" lon="-6.77359">
        <ele>586.5</ele>
        <time>1970-01-01T02:10:18.000Z</time>
      </trkpt>
      <trkpt lat="41.035615" lon="-6.773549">
        <ele>586.6</ele>
        <time>1970-01-01T02:10:19.000Z</time>
      </trkpt>
      <trkpt lat="41.035626" lon="-6.773508">
        <ele>586.7</ele>
        <time>1970-01-01T02:10:20.000Z</time>
      </trkpt>
      <trkpt lat="41.035638" lon="-6.773465">
        <ele>586.8</ele>
        <time>1970-01-01T02:10:21.000Z</time>
      </trkpt>
      <trkpt lat="41.03565" lon="-6.773421">
        <ele>586.9</ele>
        <time>1970-01-01T02:10:22.000Z</time>
      </trkpt>
      <trkpt lat="41.035662" lon="-6.773376">
        <ele>587</ele>
        <time>1970-01-01T02:10:23.000Z</time>
      </trkpt>
      <trkpt lat="41.035674" lon="-6.773331">
        <ele>587.1</ele>
        <time>1970-01-01T02:10:24.000Z</time>
      </trkpt>
      <trkpt lat="41.035686" lon="-6.773285">
        <ele>587.2</ele>
        <time>1970-01-01T02:10:25.000Z</time>
      </trkpt>
      <trkpt lat="41.035698" lon="-6.773238">
        <ele>587.3</ele>
        <time>1970-01-01T02:10:26.000Z</time>
      </trkpt>
      <trkpt lat="41.03571" lon="-6.773191">
        <ele>587.4</ele>
        <time>1970-01-01T02:10:27.000Z</time>
      </trkpt>
      <trkpt lat="41.035723" lon="-6.773144">
        <ele>587.5</ele>
        <time>1970-01-01T02:10:28.000Z</time>
      </trkpt>
      <trkpt lat="41.035737" lon="-6.773096">
        <ele>587.6</ele>
        <time>1970-01-01T02:10:29.000Z</time>
      </trkpt>
      <trkpt lat="41.035751" lon="-6.773047">
        <ele>587.8</ele>
        <time>1970-01-01T02:10:30.000Z</time>
      </trkpt>
      <trkpt lat="41.035765" lon="-6.772998">
        <ele>587.9</ele>
        <time>1970-01-01T02:10:31.000Z</time>
      </trkpt>
      <trkpt lat="41.03578" lon="-6.772949">
        <ele>588</ele>
        <time>1970-01-01T02:10:32.000Z</time>
      </trkpt>
      <trkpt lat="41.035796" lon="-6.772903">
        <ele>588.1</ele>
        <time>1970-01-01T02:10:33.000Z</time>
      </trkpt>
      <trkpt lat="41.035812" lon="-6.772858">
        <ele>588.2</ele>
        <time>1970-01-01T02:10:34.000Z</time>
      </trkpt>
      <trkpt lat="41.035828" lon="-6.772815">
        <ele>588.3</ele>
        <time>1970-01-01T02:10:35.000Z</time>
      </trkpt>
      <trkpt lat="41.035844" lon="-6.772771">
        <ele>588.4</ele>
        <time>1970-01-01T02:10:36.000Z</time>
      </trkpt>
      <trkpt lat="41.035862" lon="-6.772727">
        <ele>588.6</ele>
        <time>1970-01-01T02:10:37.000Z</time>
      </trkpt>
      <trkpt lat="41.035881" lon="-6.772683">
        <ele>588.7</ele>
        <time>1970-01-01T02:10:38.000Z</time>
      </trkpt>
      <trkpt lat="41.0359" lon="-6.772639">
        <ele>588.8</ele>
        <time>1970-01-01T02:10:39.000Z</time>
      </trkpt>
      <trkpt lat="41.035919" lon="-6.772594">
        <ele>588.9</ele>
        <time>1970-01-01T02:10:40.000Z</time>
      </trkpt>
      <trkpt lat="41.035939" lon="-6.772549">
        <ele>589</ele>
        <time>1970-01-01T02:10:41.000Z</time>
      </trkpt>
      <trkpt lat="41.035959" lon="-6.772504">
        <ele>589.1</ele>
        <time>1970-01-01T02:10:42.000Z</time>
      </trkpt>
      <trkpt lat="41.035978" lon="-6.772458">
        <ele>589.3</ele>
        <time>1970-01-01T02:10:43.000Z</time>
      </trkpt>
      <trkpt lat="41.035994" lon="-6.772409">
        <ele>589.4</ele>
        <time>1970-01-01T02:10:44.000Z</time>
      </trkpt>
      <trkpt lat="41.036009" lon="-6.772356">
        <ele>589.5</ele>
        <time>1970-01-01T02:10:45.000Z</time>
      </trkpt>
      <trkpt lat="41.036023" lon="-6.772299">
        <ele>589.6</ele>
        <time>1970-01-01T02:10:46.000Z</time>
      </trkpt>
      <trkpt lat="41.036037" lon="-6.772238">
        <ele>589.8</ele>
        <time>1970-01-01T02:10:47.000Z</time>
      </trkpt>
      <trkpt lat="41.036051" lon="-6.772174">
        <ele>589.9</ele>
        <time>1970-01-01T02:10:48.000Z</time>
      </trkpt>
      <trkpt lat="41.036066" lon="-6.772108">
        <ele>590.1</ele>
        <time>1970-01-01T02:10:49.000Z</time>
      </trkpt>
      <trkpt lat="41.036081" lon="-6.772039">
        <ele>590.3</ele>
        <time>1970-01-01T02:10:50.000Z</time>
      </trkpt>
      <trkpt lat="41.036097" lon="-6.77197">
        <ele>590.4</ele>
        <time>1970-01-01T02:10:51.000Z</time>
      </trkpt>
      <trkpt lat="41.036115" lon="-6.7719">
        <ele>590.6</ele>
        <time>1970-01-01T02:10:52.000Z</time>
      </trkpt>
      <trkpt lat="41.036133" lon="-6.771831">
        <ele>590.7</ele>
        <time>1970-01-01T02:10:53.000Z</time>
      </trkpt>
      <trkpt lat="41.036152" lon="-6.771763">
        <ele>590.9</ele>
        <time>1970-01-01T02:10:54.000Z</time>
      </trkpt>
      <trkpt lat="41.036171" lon="-6.771697">
        <ele>591.1</ele>
        <time>1970-01-01T02:10:55.000Z</time>
      </trkpt>
      <trkpt lat="41.036189" lon="-6.771633">
        <ele>591.2</ele>
        <time>1970-01-01T02:10:56.000Z</time>
      </trkpt>
      <trkpt lat="41.036207" lon="-6.771571">
        <ele>591.4</ele>
        <time>1970-01-01T02:10:57.000Z</time>
      </trkpt>
      <trkpt lat="41.036226" lon="-6.771511">
        <ele>591.5</ele>
        <time>1970-01-01T02:10:58.000Z</time>
      </trkpt>
      <trkpt lat="41.036244" lon="-6.771452">
        <ele>591.7</ele>
        <time>1970-01-01T02:10:59.000Z</time>
      </trkpt>
      <trkpt lat="41.036263" lon="-6.771392">
        <ele>591.8</ele>
        <time>1970-01-01T02:11:00.000Z</time>
      </trkpt>
      <trkpt lat="41.036282" lon="-6.771329">
        <ele>592</ele>
        <time>1970-01-01T02:11:01.000Z</time>
      </trkpt>
      <trkpt lat="41.036303" lon="-6.771265">
        <ele>592.1</ele>
        <time>1970-01-01T02:11:02.000Z</time>
      </trkpt>
      <trkpt lat="41.036325" lon="-6.771202">
        <ele>592.3</ele>
        <time>1970-01-01T02:11:03.000Z</time>
      </trkpt>
      <trkpt lat="41.036347" lon="-6.771139">
        <ele>592.4</ele>
        <time>1970-01-01T02:11:04.000Z</time>
      </trkpt>
      <trkpt lat="41.03637" lon="-6.771077">
        <ele>592.6</ele>
        <time>1970-01-01T02:11:05.000Z</time>
      </trkpt>
      <trkpt lat="41.036394" lon="-6.771016">
        <ele>592.7</ele>
        <time>1970-01-01T02:11:06.000Z</time>
      </trkpt>
      <trkpt lat="41.036418" lon="-6.770958">
        <ele>592.9</ele>
        <time>1970-01-01T02:11:07.000Z</time>
      </trkpt>
      <trkpt lat="41.036442" lon="-6.7709">
        <ele>593</ele>
        <time>1970-01-01T02:11:08.000Z</time>
      </trkpt>
      <trkpt lat="41.036464" lon="-6.770842">
        <ele>593.2</ele>
        <time>1970-01-01T02:11:09.000Z</time>
      </trkpt>
      <trkpt lat="41.036485" lon="-6.770782">
        <ele>593.3</ele>
        <time>1970-01-01T02:11:10.000Z</time>
      </trkpt>
      <trkpt lat="41.036506" lon="-6.770721">
        <ele>593.5</ele>
        <time>1970-01-01T02:11:11.000Z</time>
      </trkpt>
      <trkpt lat="41.036529" lon="-6.77066">
        <ele>593.6</ele>
        <time>1970-01-01T02:11:12.000Z</time>
      </trkpt>
      <trkpt lat="41.036552" lon="-6.7706">
        <ele>593.8</ele>
        <time>1970-01-01T02:11:13.000Z</time>
      </trkpt>
      <trkpt lat="41.036577" lon="-6.77054">
        <ele>594</ele>
        <time>1970-01-01T02:11:14.000Z</time>
      </trkpt>
      <trkpt lat="41.036603" lon="-6.770479">
        <ele>594.1</ele>
        <time>1970-01-01T02:11:15.000Z</time>
      </trkpt>
      <trkpt lat="41.036628" lon="-6.770419">
        <ele>594.3</ele>
        <time>1970-01-01T02:11:16.000Z</time>
      </trkpt>
      <trkpt lat="41.036653" lon="-6.77036">
        <ele>594.4</ele>
        <time>1970-01-01T02:11:17.000Z</time>
      </trkpt>
      <trkpt lat="41.036679" lon="-6.770302">
        <ele>594.6</ele>
        <time>1970-01-01T02:11:18.000Z</time>
      </trkpt>
      <trkpt lat="41.036707" lon="-6.770247">
        <ele>594.7</ele>
        <time>1970-01-01T02:11:19.000Z</time>
      </trkpt>
      <trkpt lat="41.036735" lon="-6.770195">
        <ele>594.9</ele>
        <time>1970-01-01T02:11:20.000Z</time>
      </trkpt>
      <trkpt lat="41.036765" lon="-6.770146">
        <ele>595</ele>
        <time>1970-01-01T02:11:21.000Z</time>
      </trkpt>
      <trkpt lat="41.036796" lon="-6.770101">
        <ele>595.1</ele>
        <time>1970-01-01T02:11:22.000Z</time>
      </trkpt>
      <trkpt lat="41.036825" lon="-6.770059">
        <ele>595.3</ele>
        <time>1970-01-01T02:11:23.000Z</time>
      </trkpt>
      <trkpt lat="41.036855" lon="-6.770022">
        <ele>595.4</ele>
        <time>1970-01-01T02:11:24.000Z</time>
      </trkpt>
      <trkpt lat="41.036883" lon="-6.769989">
        <ele>595.5</ele>
        <time>1970-01-01T02:11:25.000Z</time>
      </trkpt>
      <trkpt lat="41.036909" lon="-6.769959">
        <ele>595.6</ele>
        <time>1970-01-01T02:11:26.000Z</time>
      </trkpt>
      <trkpt lat="41.036934" lon="-6.769928">
        <ele>595.7</ele>
        <time>1970-01-01T02:11:27.000Z</time>
      </trkpt>
      <trkpt lat="41.036959" lon="-6.769895">
        <ele>595.8</ele>
        <time>1970-01-01T02:11:28.000Z</time>
      </trkpt>
      <trkpt lat="41.036982" lon="-6.76986">
        <ele>595.9</ele>
        <time>1970-01-01T02:11:29.000Z</time>
      </trkpt>
      <trkpt lat="41.037006" lon="-6.769822">
        <ele>596</ele>
        <time>1970-01-01T02:11:30.000Z</time>
      </trkpt>
      <trkpt lat="41.037026" lon="-6.769781">
        <ele>596.1</ele>
        <time>1970-01-01T02:11:31.000Z</time>
      </trkpt>
      <trkpt lat="41.037044" lon="-6.769737">
        <ele>596.3</ele>
        <time>1970-01-01T02:11:32.000Z</time>
      </trkpt>
      <trkpt lat="41.037059" lon="-6.769691">
        <ele>596.4</ele>
        <time>1970-01-01T02:11:33.000Z</time>
      </trkpt>
      <trkpt lat="41.037074" lon="-6.76964">
        <ele>596.5</ele>
        <time>1970-01-01T02:11:34.000Z</time>
      </trkpt>
      <trkpt lat="41.03709" lon="-6.769586">
        <ele>596.6</ele>
        <time>1970-01-01T02:11:35.000Z</time>
      </trkpt>
      <trkpt lat="41.037107" lon="-6.769531">
        <ele>596.8</ele>
        <time>1970-01-01T02:11:36.000Z</time>
      </trkpt>
      <trkpt lat="41.037122" lon="-6.769476">
        <ele>596.9</ele>
        <time>1970-01-01T02:11:37.000Z</time>
      </trkpt>
      <trkpt lat="41.037135" lon="-6.769419">
        <ele>597</ele>
        <time>1970-01-01T02:11:38.000Z</time>
      </trkpt>
      <trkpt lat="41.037146" lon="-6.769357">
        <ele>597.2</ele>
        <time>1970-01-01T02:11:39.000Z</time>
      </trkpt>
      <trkpt lat="41.037152" lon="-6.76929">
        <ele>597.3</ele>
        <time>1970-01-01T02:11:40.000Z</time>
      </trkpt>
      <trkpt lat="41.037151" lon="-6.769218">
        <ele>597.5</ele>
        <time>1970-01-01T02:11:41.000Z</time>
      </trkpt>
      <trkpt lat="41.037145" lon="-6.769141">
        <ele>597.7</ele>
        <time>1970-01-01T02:11:42.000Z</time>
      </trkpt>
      <trkpt lat="41.037134" lon="-6.769057">
        <ele>597.8</ele>
        <time>1970-01-01T02:11:43.000Z</time>
      </trkpt>
      <trkpt lat="41.037118" lon="-6.768968">
        <ele>598.1</ele>
        <time>1970-01-01T02:11:44.000Z</time>
      </trkpt>
      <trkpt lat="41.037095" lon="-6.768875">
        <ele>598.3</ele>
        <time>1970-01-01T02:11:45.000Z</time>
      </trkpt>
      <trkpt lat="41.037067" lon="-6.768784">
        <ele>598.5</ele>
        <time>1970-01-01T02:11:46.000Z</time>
      </trkpt>
      <trkpt lat="41.037034" lon="-6.768695">
        <ele>598.7</ele>
        <time>1970-01-01T02:11:47.000Z</time>
      </trkpt>
      <trkpt lat="41.036999" lon="-6.768611">
        <ele>598.9</ele>
        <time>1970-01-01T02:11:48.000Z</time>
      </trkpt>
      <trkpt lat="41.036964" lon="-6.768531">
        <ele>599.1</ele>
        <time>1970-01-01T02:11:49.000Z</time>
      </trkpt>
      <trkpt lat="41.03693" lon="-6.768458">
        <ele>599.3</ele>
        <time>1970-01-01T02:11:50.000Z</time>
      </trkpt>
      <trkpt lat="41.036898" lon="-6.768394">
        <ele>599.5</ele>
        <time>1970-01-01T02:11:51.000Z</time>
      </trkpt>
      <trkpt lat="41.036869" lon="-6.768342">
        <ele>599.7</ele>
        <time>1970-01-01T02:11:52.000Z</time>
      </trkpt>
      <trkpt lat="41.036846" lon="-6.768299">
        <ele>599.8</ele>
        <time>1970-01-01T02:11:53.000Z</time>
      </trkpt>
      <trkpt lat="41.036832" lon="-6.768262">
        <ele>599.9</ele>
        <time>1970-01-01T02:11:54.000Z</time>
      </trkpt>
      <trkpt lat="41.036826" lon="-6.768224">
        <ele>600</ele>
        <time>1970-01-01T02:11:55.000Z</time>
      </trkpt>
      <trkpt lat="41.036825" lon="-6.768187">
        <ele>600</ele>
        <time>1970-01-01T02:11:56.000Z</time>
      </trkpt>
      <trkpt lat="41.036827" lon="-6.768148">
        <ele>600.1</ele>
        <time>1970-01-01T02:11:57.000Z</time>
      </trkpt>
      <trkpt lat="41.036829" lon="-6.768109">
        <ele>600.2</ele>
        <time>1970-01-01T02:11:58.000Z</time>
      </trkpt>
      <trkpt lat="41.036834" lon="-6.768072">
        <ele>600.3</ele>
        <time>1970-01-01T02:11:59.000Z</time>
      </trkpt>
      <trkpt lat="41.036843" lon="-6.768036">
        <ele>600.4</ele>
        <time>1970-01-01T02:12:00.000Z</time>
      </trkpt>
      <trkpt lat="41.036854" lon="-6.768003">
        <ele>600.5</ele>
        <time>1970-01-01T02:12:01.000Z</time>
      </trkpt>
      <trkpt lat="41.036868" lon="-6.767968">
        <ele>600.6</ele>
        <time>1970-01-01T02:12:02.000Z</time>
      </trkpt>
      <trkpt lat="41.036882" lon="-6.767934">
        <ele>600.6</ele>
        <time>1970-01-01T02:12:03.000Z</time>
      </trkpt>
      <trkpt lat="41.036895" lon="-6.767899">
        <ele>600.7</ele>
        <time>1970-01-01T02:12:04.000Z</time>
      </trkpt>
      <trkpt lat="41.036907" lon="-6.767865">
        <ele>600.8</ele>
        <time>1970-01-01T02:12:05.000Z</time>
      </trkpt>
      <trkpt lat="41.036917" lon="-6.767829">
        <ele>600.9</ele>
        <time>1970-01-01T02:12:06.000Z</time>
      </trkpt>
      <trkpt lat="41.036926" lon="-6.767791">
        <ele>601</ele>
        <time>1970-01-01T02:12:07.000Z</time>
      </trkpt>
      <trkpt lat="41.036933" lon="-6.767753">
        <ele>601.1</ele>
        <time>1970-01-01T02:12:08.000Z</time>
      </trkpt>
      <trkpt lat="41.036937" lon="-6.767714">
        <ele>601.2</ele>
        <time>1970-01-01T02:12:09.000Z</time>
      </trkpt>
      <trkpt lat="41.036937" lon="-6.767677">
        <ele>601.3</ele>
        <time>1970-01-01T02:12:10.000Z</time>
      </trkpt>
      <trkpt lat="41.036934" lon="-6.767639">
        <ele>601.3</ele>
        <time>1970-01-01T02:12:11.000Z</time>
      </trkpt>
      <trkpt lat="41.03693" lon="-6.767603">
        <ele>601.4</ele>
        <time>1970-01-01T02:12:12.000Z</time>
      </trkpt>
      <trkpt lat="41.036929" lon="-6.767565">
        <ele>601.5</ele>
        <time>1970-01-01T02:12:13.000Z</time>
      </trkpt>
      <trkpt lat="41.036927" lon="-6.767528">
        <ele>601.6</ele>
        <time>1970-01-01T02:12:14.000Z</time>
      </trkpt>
      <trkpt lat="41.036926" lon="-6.767492">
        <ele>601.7</ele>
        <time>1970-01-01T02:12:15.000Z</time>
      </trkpt>
      <trkpt lat="41.036923" lon="-6.767456">
        <ele>601.8</ele>
        <time>1970-01-01T02:12:16.000Z</time>
      </trkpt>
      <trkpt lat="41.036919" lon="-6.76742">
        <ele>601.8</ele>
        <time>1970-01-01T02:12:17.000Z</time>
      </trkpt>
      <trkpt lat="41.036916" lon="-6.767383">
        <ele>601.9</ele>
        <time>1970-01-01T02:12:18.000Z</time>
      </trkpt>
      <trkpt lat="41.036915" lon="-6.767346">
        <ele>602</ele>
        <time>1970-01-01T02:12:19.000Z</time>
      </trkpt>
      <trkpt lat="41.036914" lon="-6.767308">
        <ele>602.1</ele>
        <time>1970-01-01T02:12:20.000Z</time>
      </trkpt>
      <trkpt lat="41.036913" lon="-6.76727">
        <ele>602.2</ele>
        <time>1970-01-01T02:12:21.000Z</time>
      </trkpt>
      <trkpt lat="41.036911" lon="-6.767231">
        <ele>602.3</ele>
        <time>1970-01-01T02:12:22.000Z</time>
      </trkpt>
      <trkpt lat="41.03691" lon="-6.767193">
        <ele>602.3</ele>
        <time>1970-01-01T02:12:23.000Z</time>
      </trkpt>
      <trkpt lat="41.036909" lon="-6.767156">
        <ele>602.4</ele>
        <time>1970-01-01T02:12:24.000Z</time>
      </trkpt>
      <trkpt lat="41.036909" lon="-6.767121">
        <ele>602.5</ele>
        <time>1970-01-01T02:12:25.000Z</time>
      </trkpt>
      <trkpt lat="41.036913" lon="-6.767085">
        <ele>602.6</ele>
        <time>1970-01-01T02:12:26.000Z</time>
      </trkpt>
      <trkpt lat="41.036918" lon="-6.767049">
        <ele>602.7</ele>
        <time>1970-01-01T02:12:27.000Z</time>
      </trkpt>
      <trkpt lat="41.036924" lon="-6.767011">
        <ele>602.8</ele>
        <time>1970-01-01T02:12:28.000Z</time>
      </trkpt>
      <trkpt lat="41.036932" lon="-6.766973">
        <ele>602.9</ele>
        <time>1970-01-01T02:12:29.000Z</time>
      </trkpt>
      <trkpt lat="41.036941" lon="-6.766936">
        <ele>602.9</ele>
        <time>1970-01-01T02:12:30.000Z</time>
      </trkpt>
      <trkpt lat="41.036949" lon="-6.766897">
        <ele>603</ele>
        <time>1970-01-01T02:12:31.000Z</time>
      </trkpt>
      <trkpt lat="41.036956" lon="-6.766859">
        <ele>603.1</ele>
        <time>1970-01-01T02:12:32.000Z</time>
      </trkpt>
      <trkpt lat="41.036964" lon="-6.766821">
        <ele>603.2</ele>
        <time>1970-01-01T02:12:33.000Z</time>
      </trkpt>
      <trkpt lat="41.036973" lon="-6.766782">
        <ele>603.3</ele>
        <time>1970-01-01T02:12:34.000Z</time>
      </trkpt>
      <trkpt lat="41.036982" lon="-6.766742">
        <ele>603.4</ele>
        <time>1970-01-01T02:12:35.000Z</time>
      </trkpt>
      <trkpt lat="41.036988" lon="-6.766704">
        <ele>603.5</ele>
        <time>1970-01-01T02:12:36.000Z</time>
      </trkpt>
      <trkpt lat="41.03699" lon="-6.766666">
        <ele>603.6</ele>
        <time>1970-01-01T02:12:37.000Z</time>
      </trkpt>
      <trkpt lat="41.036989" lon="-6.766628">
        <ele>603.7</ele>
        <time>1970-01-01T02:12:38.000Z</time>
      </trkpt>
      <trkpt lat="41.036984" lon="-6.76659">
        <ele>603.7</ele>
        <time>1970-01-01T02:12:39.000Z</time>
      </trkpt>
      <trkpt lat="41.036976" lon="-6.766552">
        <ele>603.8</ele>
        <time>1970-01-01T02:12:40.000Z</time>
      </trkpt>
      <trkpt lat="41.036963" lon="-6.766516">
        <ele>603.9</ele>
        <time>1970-01-01T02:12:41.000Z</time>
      </trkpt>
      <trkpt lat="41.036947" lon="-6.766482">
        <ele>604</ele>
        <time>1970-01-01T02:12:42.000Z</time>
      </trkpt>
      <trkpt lat="41.036925" lon="-6.76645">
        <ele>604.1</ele>
        <time>1970-01-01T02:12:43.000Z</time>
      </trkpt>
      <trkpt lat="41.036899" lon="-6.76642">
        <ele>604.2</ele>
        <time>1970-01-01T02:12:44.000Z</time>
      </trkpt>
      <trkpt lat="41.036873" lon="-6.766391">
        <ele>604.3</ele>
        <time>1970-01-01T02:12:45.000Z</time>
      </trkpt>
      <trkpt lat="41.036848" lon="-6.766364">
        <ele>604.4</ele>
        <time>1970-01-01T02:12:46.000Z</time>
      </trkpt>
      <trkpt lat="41.036824" lon="-6.766339">
        <ele>604.5</ele>
        <time>1970-01-01T02:12:47.000Z</time>
      </trkpt>
      <trkpt lat="41.036801" lon="-6.766316">
        <ele>604.6</ele>
        <time>1970-01-01T02:12:48.000Z</time>
      </trkpt>
      <trkpt lat="41.036778" lon="-6.766296">
        <ele>604.7</ele>
        <time>1970-01-01T02:12:49.000Z</time>
      </trkpt>
      <trkpt lat="41.036757" lon="-6.766276">
        <ele>604.7</ele>
        <time>1970-01-01T02:12:50.000Z</time>
      </trkpt>
      <trkpt lat="41.036736" lon="-6.766255">
        <ele>604.8</ele>
        <time>1970-01-01T02:12:51.000Z</time>
      </trkpt>
      <trkpt lat="41.036718" lon="-6.766233">
        <ele>604.9</ele>
        <time>1970-01-01T02:12:52.000Z</time>
      </trkpt>
      <trkpt lat="41.036701" lon="-6.766213">
        <ele>605</ele>
        <time>1970-01-01T02:12:53.000Z</time>
      </trkpt>
      <trkpt lat="41.036685" lon="-6.766192">
        <ele>605</ele>
        <time>1970-01-01T02:12:54.000Z</time>
      </trkpt>
      <trkpt lat="41.036671" lon="-6.76617">
        <ele>605.1</ele>
        <time>1970-01-01T02:12:55.000Z</time>
      </trkpt>
      <trkpt lat="41.03666" lon="-6.766144">
        <ele>605.2</ele>
        <time>1970-01-01T02:12:56.000Z</time>
      </trkpt>
      <trkpt lat="41.036654" lon="-6.766116">
        <ele>605.2</ele>
        <time>1970-01-01T02:12:57.000Z</time>
      </trkpt>
      <trkpt lat="41.036654" lon="-6.766085">
        <ele>605.7</ele>
        <time>1970-01-01T02:12:58.000Z</time>
      </trkpt>
      <trkpt lat="41.036658" lon="-6.766053">
        <ele>605.9</ele>
        <time>1970-01-01T02:12:59.000Z</time>
      </trkpt>
      <trkpt lat="41.036666" lon="-6.76602">
        <ele>606</ele>
        <time>1970-01-01T02:13:00.000Z</time>
      </trkpt>
      <trkpt lat="41.036677" lon="-6.765987">
        <ele>606.2</ele>
        <time>1970-01-01T02:13:01.000Z</time>
      </trkpt>
      <trkpt lat="41.036688" lon="-6.765953">
        <ele>606.4</ele>
        <time>1970-01-01T02:13:02.000Z</time>
      </trkpt>
      <trkpt lat="41.036701" lon="-6.76592">
        <ele>606.5</ele>
        <time>1970-01-01T02:13:03.000Z</time>
      </trkpt>
      <trkpt lat="41.036714" lon="-6.765886">
        <ele>606.7</ele>
        <time>1970-01-01T02:13:04.000Z</time>
      </trkpt>
      <trkpt lat="41.036728" lon="-6.765853">
        <ele>606.9</ele>
        <time>1970-01-01T02:13:05.000Z</time>
      </trkpt>
      <trkpt lat="41.036743" lon="-6.76582">
        <ele>607</ele>
        <time>1970-01-01T02:13:06.000Z</time>
      </trkpt>
      <trkpt lat="41.036757" lon="-6.765786">
        <ele>607.2</ele>
        <time>1970-01-01T02:13:07.000Z</time>
      </trkpt>
      <trkpt lat="41.036772" lon="-6.765753">
        <ele>607.4</ele>
        <time>1970-01-01T02:13:08.000Z</time>
      </trkpt>
      <trkpt lat="41.036788" lon="-6.76572">
        <ele>607.6</ele>
        <time>1970-01-01T02:13:09.000Z</time>
      </trkpt>
      <trkpt lat="41.036805" lon="-6.765687">
        <ele>607.7</ele>
        <time>1970-01-01T02:13:10.000Z</time>
      </trkpt>
      <trkpt lat="41.036822" lon="-6.765653">
        <ele>607.9</ele>
        <time>1970-01-01T02:13:11.000Z</time>
      </trkpt>
      <trkpt lat="41.036839" lon="-6.765618">
        <ele>608.1</ele>
        <time>1970-01-01T02:13:12.000Z</time>
      </trkpt>
      <trkpt lat="41.036854" lon="-6.765584">
        <ele>608.3</ele>
        <time>1970-01-01T02:13:13.000Z</time>
      </trkpt>
      <trkpt lat="41.03687" lon="-6.76555">
        <ele>608.4</ele>
        <time>1970-01-01T02:13:14.000Z</time>
      </trkpt>
      <trkpt lat="41.036886" lon="-6.765517">
        <ele>608.6</ele>
        <time>1970-01-01T02:13:15.000Z</time>
      </trkpt>
      <trkpt lat="41.036903" lon="-6.765484">
        <ele>608.8</ele>
        <time>1970-01-01T02:13:16.000Z</time>
      </trkpt>
      <trkpt lat="41.03692" lon="-6.765451">
        <ele>608.9</ele>
        <time>1970-01-01T02:13:17.000Z</time>
      </trkpt>
      <trkpt lat="41.036937" lon="-6.765416">
        <ele>609.1</ele>
        <time>1970-01-01T02:13:18.000Z</time>
      </trkpt>
      <trkpt lat="41.036954" lon="-6.765381">
        <ele>609.2</ele>
        <time>1970-01-01T02:13:19.000Z</time>
      </trkpt>
      <trkpt lat="41.036972" lon="-6.765344">
        <ele>609.4</ele>
        <time>1970-01-01T02:13:20.000Z</time>
      </trkpt>
      <trkpt lat="41.036991" lon="-6.765305">
        <ele>609.6</ele>
        <time>1970-01-01T02:13:21.000Z</time>
      </trkpt>
      <trkpt lat="41.037011" lon="-6.765266">
        <ele>609.8</ele>
        <time>1970-01-01T02:13:22.000Z</time>
      </trkpt>
      <trkpt lat="41.037031" lon="-6.765227">
        <ele>610</ele>
        <time>1970-01-01T02:13:23.000Z</time>
      </trkpt>
      <trkpt lat="41.03705" lon="-6.765188">
        <ele>610.2</ele>
        <time>1970-01-01T02:13:24.000Z</time>
      </trkpt>
      <trkpt lat="41.037068" lon="-6.765149">
        <ele>610.4</ele>
        <time>1970-01-01T02:13:25.000Z</time>
      </trkpt>
      <trkpt lat="41.037087" lon="-6.76511">
        <ele>610.6</ele>
        <time>1970-01-01T02:13:26.000Z</time>
      </trkpt>
      <trkpt lat="41.037105" lon="-6.765071">
        <ele>610.8</ele>
        <time>1970-01-01T02:13:27.000Z</time>
      </trkpt>
      <trkpt lat="41.037123" lon="-6.765032">
        <ele>611</ele>
        <time>1970-01-01T02:13:28.000Z</time>
      </trkpt>
      <trkpt lat="41.037142" lon="-6.764993">
        <ele>611.1</ele>
        <time>1970-01-01T02:13:29.000Z</time>
      </trkpt>
      <trkpt lat="41.03716" lon="-6.764954">
        <ele>611.3</ele>
        <time>1970-01-01T02:13:30.000Z</time>
      </trkpt>
      <trkpt lat="41.037179" lon="-6.764915">
        <ele>611.5</ele>
        <time>1970-01-01T02:13:31.000Z</time>
      </trkpt>
      <trkpt lat="41.037198" lon="-6.764877">
        <ele>611.7</ele>
        <time>1970-01-01T02:13:32.000Z</time>
      </trkpt>
      <trkpt lat="41.037216" lon="-6.764839">
        <ele>611.9</ele>
        <time>1970-01-01T02:13:33.000Z</time>
      </trkpt>
      <trkpt lat="41.037236" lon="-6.764802">
        <ele>612.1</ele>
        <time>1970-01-01T02:13:34.000Z</time>
      </trkpt>
      <trkpt lat="41.037254" lon="-6.764765">
        <ele>612.3</ele>
        <time>1970-01-01T02:13:35.000Z</time>
      </trkpt>
      <trkpt lat="41.037273" lon="-6.764729">
        <ele>612.5</ele>
        <time>1970-01-01T02:13:36.000Z</time>
      </trkpt>
      <trkpt lat="41.03729" lon="-6.764692">
        <ele>612.7</ele>
        <time>1970-01-01T02:13:37.000Z</time>
      </trkpt>
      <trkpt lat="41.037308" lon="-6.764654">
        <ele>612.9</ele>
        <time>1970-01-01T02:13:38.000Z</time>
      </trkpt>
      <trkpt lat="41.037327" lon="-6.764617">
        <ele>613.1</ele>
        <time>1970-01-01T02:13:39.000Z</time>
      </trkpt>
      <trkpt lat="41.037346" lon="-6.764581">
        <ele>613.3</ele>
        <time>1970-01-01T02:13:40.000Z</time>
      </trkpt>
      <trkpt lat="41.037364" lon="-6.764545">
        <ele>613.5</ele>
        <time>1970-01-01T02:13:41.000Z</time>
      </trkpt>
      <trkpt lat="41.037383" lon="-6.764508">
        <ele>613.7</ele>
        <time>1970-01-01T02:13:42.000Z</time>
      </trkpt>
      <trkpt lat="41.0374" lon="-6.764472">
        <ele>613.9</ele>
        <time>1970-01-01T02:13:43.000Z</time>
      </trkpt>
      <trkpt lat="41.037417" lon="-6.764436">
        <ele>614.1</ele>
        <time>1970-01-01T02:13:44.000Z</time>
      </trkpt>
      <trkpt lat="41.037433" lon="-6.7644">
        <ele>614.3</ele>
        <time>1970-01-01T02:13:45.000Z</time>
      </trkpt>
      <trkpt lat="41.037451" lon="-6.764363">
        <ele>614.5</ele>
        <time>1970-01-01T02:13:46.000Z</time>
      </trkpt>
      <trkpt lat="41.037468" lon="-6.764325">
        <ele>614.7</ele>
        <time>1970-01-01T02:13:47.000Z</time>
      </trkpt>
      <trkpt lat="41.037486" lon="-6.764288">
        <ele>614.9</ele>
        <time>1970-01-01T02:13:48.000Z</time>
      </trkpt>
      <trkpt lat="41.037504" lon="-6.764252">
        <ele>615.2</ele>
        <time>1970-01-01T02:13:49.000Z</time>
      </trkpt>
      <trkpt lat="41.037522" lon="-6.764217">
        <ele>615.4</ele>
        <time>1970-01-01T02:13:50.000Z</time>
      </trkpt>
      <trkpt lat="41.03754" lon="-6.764182">
        <ele>615.6</ele>
        <time>1970-01-01T02:13:51.000Z</time>
      </trkpt>
      <trkpt lat="41.037558" lon="-6.764148">
        <ele>615.8</ele>
        <time>1970-01-01T02:13:52.000Z</time>
      </trkpt>
      <trkpt lat="41.037575" lon="-6.764114">
        <ele>616</ele>
        <time>1970-01-01T02:13:53.000Z</time>
      </trkpt>
      <trkpt lat="41.037592" lon="-6.764078">
        <ele>616.2</ele>
        <time>1970-01-01T02:13:54.000Z</time>
      </trkpt>
      <trkpt lat="41.037609" lon="-6.764041">
        <ele>616.4</ele>
        <time>1970-01-01T02:13:55.000Z</time>
      </trkpt>
      <trkpt lat="41.037626" lon="-6.764001">
        <ele>616.7</ele>
        <time>1970-01-01T02:13:56.000Z</time>
      </trkpt>
      <trkpt lat="41.037643" lon="-6.763963">
        <ele>616.9</ele>
        <time>1970-01-01T02:13:57.000Z</time>
      </trkpt>
      <trkpt lat="41.037659" lon="-6.763925">
        <ele>617.1</ele>
        <time>1970-01-01T02:13:58.000Z</time>
      </trkpt>
      <trkpt lat="41.037674" lon="-6.763889">
        <ele>617.3</ele>
        <time>1970-01-01T02:13:59.000Z</time>
      </trkpt>
      <trkpt lat="41.037689" lon="-6.763853">
        <ele>617.5</ele>
        <time>1970-01-01T02:14:00.000Z</time>
      </trkpt>
      <trkpt lat="41.037704" lon="-6.763817">
        <ele>617.7</ele>
        <time>1970-01-01T02:14:01.000Z</time>
      </trkpt>
      <trkpt lat="41.03772" lon="-6.763782">
        <ele>617.9</ele>
        <time>1970-01-01T02:14:02.000Z</time>
      </trkpt>
      <trkpt lat="41.037736" lon="-6.763746">
        <ele>618.1</ele>
        <time>1970-01-01T02:14:03.000Z</time>
      </trkpt>
      <trkpt lat="41.037752" lon="-6.76371">
        <ele>618.3</ele>
        <time>1970-01-01T02:14:04.000Z</time>
      </trkpt>
      <trkpt lat="41.037769" lon="-6.763672">
        <ele>618.5</ele>
        <time>1970-01-01T02:14:05.000Z</time>
      </trkpt>
      <trkpt lat="41.037786" lon="-6.763634">
        <ele>618.7</ele>
        <time>1970-01-01T02:14:06.000Z</time>
      </trkpt>
      <trkpt lat="41.037801" lon="-6.763596">
        <ele>618.9</ele>
        <time>1970-01-01T02:14:07.000Z</time>
      </trkpt>
      <trkpt lat="41.037815" lon="-6.763558">
        <ele>619.1</ele>
        <time>1970-01-01T02:14:08.000Z</time>
      </trkpt>
      <trkpt lat="41.037829" lon="-6.763521">
        <ele>619.2</ele>
        <time>1970-01-01T02:14:09.000Z</time>
      </trkpt>
      <trkpt lat="41.037843" lon="-6.763485">
        <ele>619.4</ele>
        <time>1970-01-01T02:14:10.000Z</time>
      </trkpt>
      <trkpt lat="41.037858" lon="-6.763448">
        <ele>619.6</ele>
        <time>1970-01-01T02:14:11.000Z</time>
      </trkpt>
      <trkpt lat="41.037872" lon="-6.763411">
        <ele>619.8</ele>
        <time>1970-01-01T02:14:12.000Z</time>
      </trkpt>
      <trkpt lat="41.037887" lon="-6.763373">
        <ele>620</ele>
        <time>1970-01-01T02:14:13.000Z</time>
      </trkpt>
      <trkpt lat="41.037902" lon="-6.763335">
        <ele>620.3</ele>
        <time>1970-01-01T02:14:14.000Z</time>
      </trkpt>
      <trkpt lat="41.03792" lon="-6.763298">
        <ele>620.5</ele>
        <time>1970-01-01T02:14:15.000Z</time>
      </trkpt>
      <trkpt lat="41.037937" lon="-6.763262">
        <ele>620.8</ele>
        <time>1970-01-01T02:14:16.000Z</time>
      </trkpt>
      <trkpt lat="41.037954" lon="-6.763226">
        <ele>621</ele>
        <time>1970-01-01T02:14:17.000Z</time>
      </trkpt>
      <trkpt lat="41.037968" lon="-6.763189">
        <ele>621.2</ele>
        <time>1970-01-01T02:14:18.000Z</time>
      </trkpt>
      <trkpt lat="41.037982" lon="-6.763152">
        <ele>621.5</ele>
        <time>1970-01-01T02:14:19.000Z</time>
      </trkpt>
      <trkpt lat="41.037996" lon="-6.763114">
        <ele>621.7</ele>
        <time>1970-01-01T02:14:20.000Z</time>
      </trkpt>
      <trkpt lat="41.03801" lon="-6.763076">
        <ele>622</ele>
        <time>1970-01-01T02:14:21.000Z</time>
      </trkpt>
      <trkpt lat="41.038024" lon="-6.763038">
        <ele>622.2</ele>
        <time>1970-01-01T02:14:22.000Z</time>
      </trkpt>
      <trkpt lat="41.038038" lon="-6.762999">
        <ele>622.4</ele>
        <time>1970-01-01T02:14:23.000Z</time>
      </trkpt>
      <trkpt lat="41.038052" lon="-6.762962">
        <ele>622.7</ele>
        <time>1970-01-01T02:14:24.000Z</time>
      </trkpt>
      <trkpt lat="41.038067" lon="-6.762924">
        <ele>622.9</ele>
        <time>1970-01-01T02:14:25.000Z</time>
      </trkpt>
      <trkpt lat="41.038082" lon="-6.762885">
        <ele>623.2</ele>
        <time>1970-01-01T02:14:26.000Z</time>
      </trkpt>
      <trkpt lat="41.038098" lon="-6.762846">
        <ele>623.4</ele>
        <time>1970-01-01T02:14:27.000Z</time>
      </trkpt>
      <trkpt lat="41.038114" lon="-6.762807">
        <ele>623.7</ele>
        <time>1970-01-01T02:14:28.000Z</time>
      </trkpt>
      <trkpt lat="41.03813" lon="-6.762768">
        <ele>624</ele>
        <time>1970-01-01T02:14:29.000Z</time>
      </trkpt>
      <trkpt lat="41.038145" lon="-6.762729">
        <ele>624.2</ele>
        <time>1970-01-01T02:14:30.000Z</time>
      </trkpt>
      <trkpt lat="41.03816" lon="-6.762691">
        <ele>624.5</ele>
        <time>1970-01-01T02:14:31.000Z</time>
      </trkpt>
      <trkpt lat="41.038176" lon="-6.762653">
        <ele>624.7</ele>
        <time>1970-01-01T02:14:32.000Z</time>
      </trkpt>
      <trkpt lat="41.038193" lon="-6.762614">
        <ele>625</ele>
        <time>1970-01-01T02:14:33.000Z</time>
      </trkpt>
      <trkpt lat="41.038209" lon="-6.762575">
        <ele>625.2</ele>
        <time>1970-01-01T02:14:34.000Z</time>
      </trkpt>
      <trkpt lat="41.038225" lon="-6.762536">
        <ele>625.4</ele>
        <time>1970-01-01T02:14:35.000Z</time>
      </trkpt>
      <trkpt lat="41.038241" lon="-6.762496">
        <ele>625.7</ele>
        <time>1970-01-01T02:14:36.000Z</time>
      </trkpt>
      <trkpt lat="41.038257" lon="-6.762457">
        <ele>625.9</ele>
        <time>1970-01-01T02:14:37.000Z</time>
      </trkpt>
      <trkpt lat="41.038273" lon="-6.762419">
        <ele>626.1</ele>
        <time>1970-01-01T02:14:38.000Z</time>
      </trkpt>
      <trkpt lat="41.03829" lon="-6.762382">
        <ele>626.3</ele>
        <time>1970-01-01T02:14:39.000Z</time>
      </trkpt>
      <trkpt lat="41.038309" lon="-6.762347">
        <ele>626.5</ele>
        <time>1970-01-01T02:14:40.000Z</time>
      </trkpt>
      <trkpt lat="41.038329" lon="-6.762313">
        <ele>626.8</ele>
        <time>1970-01-01T02:14:41.000Z</time>
      </trkpt>
      <trkpt lat="41.038349" lon="-6.762279">
        <ele>626.9</ele>
        <time>1970-01-01T02:14:42.000Z</time>
      </trkpt>
      <trkpt lat="41.03837" lon="-6.762246">
        <ele>627.1</ele>
        <time>1970-01-01T02:14:43.000Z</time>
      </trkpt>
      <trkpt lat="41.03839" lon="-6.762217">
        <ele>627.3</ele>
        <time>1970-01-01T02:14:44.000Z</time>
      </trkpt>
      <trkpt lat="41.03841" lon="-6.762189">
        <ele>627.5</ele>
        <time>1970-01-01T02:14:45.000Z</time>
      </trkpt>
      <trkpt lat="41.03843" lon="-6.762163">
        <ele>627.6</ele>
        <time>1970-01-01T02:14:46.000Z</time>
      </trkpt>
      <trkpt lat="41.03845" lon="-6.762135">
        <ele>627.8</ele>
        <time>1970-01-01T02:14:47.000Z</time>
      </trkpt>
      <trkpt lat="41.03847" lon="-6.762107">
        <ele>628</ele>
        <time>1970-01-01T02:14:48.000Z</time>
      </trkpt>
      <trkpt lat="41.038489" lon="-6.762078">
        <ele>628.1</ele>
        <time>1970-01-01T02:14:49.000Z</time>
      </trkpt>
      <trkpt lat="41.038508" lon="-6.762051">
        <ele>628.2</ele>
        <time>1970-01-01T02:14:50.000Z</time>
      </trkpt>
      <trkpt lat="41.038526" lon="-6.762024">
        <ele>628.4</ele>
        <time>1970-01-01T02:14:51.000Z</time>
      </trkpt>
      <trkpt lat="41.038544" lon="-6.761999">
        <ele>628.5</ele>
        <time>1970-01-01T02:14:52.000Z</time>
      </trkpt>
      <trkpt lat="41.038561" lon="-6.761975">
        <ele>628.6</ele>
        <time>1970-01-01T02:14:53.000Z</time>
      </trkpt>
      <trkpt lat="41.038577" lon="-6.761951">
        <ele>628.7</ele>
        <time>1970-01-01T02:14:54.000Z</time>
      </trkpt>
      <trkpt lat="41.038591" lon="-6.761929">
        <ele>628.8</ele>
        <time>1970-01-01T02:14:55.000Z</time>
      </trkpt>
      <trkpt lat="41.038603" lon="-6.761908">
        <ele>628.9</ele>
        <time>1970-01-01T02:14:56.000Z</time>
      </trkpt>
      <trkpt lat="41.038615" lon="-6.761887">
        <ele>629</ele>
        <time>1970-01-01T02:14:57.000Z</time>
      </trkpt>
      <trkpt lat="41.038624" lon="-6.761865">
        <ele>629.1</ele>
        <time>1970-01-01T02:14:58.000Z</time>
      </trkpt>
      <trkpt lat="41.038633" lon="-6.761844">
        <ele>629.2</ele>
        <time>1970-01-01T02:14:59.000Z</time>
      </trkpt>
      <trkpt lat="41.038639" lon="-6.76183">
        <ele>629.3</ele>
        <time>1970-01-01T02:15:00.000Z</time>
      </trkpt>
      <trkpt lat="41.038642" lon="-6.761825">
        <ele>629.3</ele>
        <time>1970-01-01T02:15:01.000Z</time>
      </trkpt>
      <trkpt lat="41.038644" lon="-6.761826">
        <ele>629.3</ele>
        <time>1970-01-01T02:15:02.000Z</time>
      </trkpt>
      <trkpt lat="41.038644" lon="-6.761827">
        <ele>629.3</ele>
        <time>1970-01-01T02:15:03.000Z</time>
      </trkpt>
      <trkpt lat="41.038644" lon="-6.761827">
        <ele>629.3</ele>
        <time>1970-01-01T02:15:04.000Z</time>
      </trkpt>
      <trkpt lat="41.038644" lon="-6.761827">
        <ele>629.3</ele>
        <time>1970-01-01T02:15:05.000Z</time>
      </trkpt>
      <trkpt lat="41.038643" lon="-6.761827">
        <ele>629.3</ele>
        <time>1970-01-01T02:15:06.000Z</time>
      </trkpt>
      <trkpt lat="41.038643" lon="-6.761826">
        <ele>629.3</ele>
        <time>1970-01-01T02:15:07.000Z</time>
      </trkpt>
      <trkpt lat="41.038642" lon="-6.761826">
        <ele>629.3</ele>
        <time>1970-01-01T02:15:08.000Z</time>
      </trkpt>
      <trkpt lat="41.038642" lon="-6.761826">
        <ele>629.3</ele>
        <time>1970-01-01T02:15:09.000Z</time>
      </trkpt>
      <trkpt lat="41.038639" lon="-6.761811">
        <ele>629.4</ele>
        <time>1970-01-01T02:15:10.000Z</time>
      </trkpt>
      <trkpt lat="41.038639" lon="-6.761813">
        <ele>629.4</ele>
        <time>1970-01-01T02:15:11.000Z</time>
      </trkpt>
      <trkpt lat="41.038641" lon="-6.761814">
        <ele>629.4</ele>
        <time>1970-01-01T02:19:02.000Z</time>
      </trkpt>
      <trkpt lat="41.038645" lon="-6.761816">
        <ele>629.4</ele>
        <time>1970-01-01T02:19:03.000Z</time>
      </trkpt>
      <trkpt lat="41.038651" lon="-6.761816">
        <ele>629.5</ele>
        <time>1970-01-01T02:19:04.000Z</time>
      </trkpt>
      <trkpt lat="41.038658" lon="-6.761814">
        <ele>629.5</ele>
        <time>1970-01-01T02:19:05.000Z</time>
      </trkpt>
      <trkpt lat="41.038665" lon="-6.76181">
        <ele>629.6</ele>
        <time>1970-01-01T02:19:06.000Z</time>
      </trkpt>
      <trkpt lat="41.038672" lon="-6.761806">
        <ele>629.6</ele>
        <time>1970-01-01T02:19:07.000Z</time>
      </trkpt>
      <trkpt lat="41.038681" lon="-6.761798">
        <ele>629.7</ele>
        <time>1970-01-01T02:19:08.000Z</time>
      </trkpt>
      <trkpt lat="41.038691" lon="-6.761788">
        <ele>629.7</ele>
        <time>1970-01-01T02:19:09.000Z</time>
      </trkpt>
      <trkpt lat="41.038703" lon="-6.761775">
        <ele>629.8</ele>
        <time>1970-01-01T02:19:10.000Z</time>
      </trkpt>
      <trkpt lat="41.038714" lon="-6.76176">
        <ele>629.9</ele>
        <time>1970-01-01T02:19:11.000Z</time>
      </trkpt>
      <trkpt lat="41.038727" lon="-6.761745">
        <ele>630</ele>
        <time>1970-01-01T02:19:12.000Z</time>
      </trkpt>
      <trkpt lat="41.038741" lon="-6.761729">
        <ele>630.1</ele>
        <time>1970-01-01T02:19:13.000Z</time>
      </trkpt>
      <trkpt lat="41.038755" lon="-6.761714">
        <ele>630.2</ele>
        <time>1970-01-01T02:19:14.000Z</time>
      </trkpt>
      <trkpt lat="41.038768" lon="-6.761697">
        <ele>630.3</ele>
        <time>1970-01-01T02:19:15.000Z</time>
      </trkpt>
      <trkpt lat="41.038781" lon="-6.761679">
        <ele>630.4</ele>
        <time>1970-01-01T02:19:16.000Z</time>
      </trkpt>
      <trkpt lat="41.038795" lon="-6.761659">
        <ele>630.5</ele>
        <time>1970-01-01T02:19:17.000Z</time>
      </trkpt>
      <trkpt lat="41.03881" lon="-6.761639">
        <ele>630.7</ele>
        <time>1970-01-01T02:19:18.000Z</time>
      </trkpt>
      <trkpt lat="41.038826" lon="-6.761618">
        <ele>630.8</ele>
        <time>1970-01-01T02:19:19.000Z</time>
      </trkpt>
      <trkpt lat="41.038842" lon="-6.761595">
        <ele>630.9</ele>
        <time>1970-01-01T02:19:20.000Z</time>
      </trkpt>
      <trkpt lat="41.038858" lon="-6.761572">
        <ele>631.1</ele>
        <time>1970-01-01T02:19:21.000Z</time>
      </trkpt>
      <trkpt lat="41.038875" lon="-6.761549">
        <ele>631.2</ele>
        <time>1970-01-01T02:19:22.000Z</time>
      </trkpt>
      <trkpt lat="41.038893" lon="-6.761526">
        <ele>631.4</ele>
        <time>1970-01-01T02:19:23.000Z</time>
      </trkpt>
      <trkpt lat="41.03891" lon="-6.761503">
        <ele>631.6</ele>
        <time>1970-01-01T02:19:24.000Z</time>
      </trkpt>
      <trkpt lat="41.038928" lon="-6.761479">
        <ele>631.7</ele>
        <time>1970-01-01T02:19:25.000Z</time>
      </trkpt>
      <trkpt lat="41.038947" lon="-6.761455">
        <ele>631.9</ele>
        <time>1970-01-01T02:19:26.000Z</time>
      </trkpt>
      <trkpt lat="41.038965" lon="-6.761429">
        <ele>632.1</ele>
        <time>1970-01-01T02:19:27.000Z</time>
      </trkpt>
      <trkpt lat="41.038981" lon="-6.761403">
        <ele>632.3</ele>
        <time>1970-01-01T02:19:28.000Z</time>
      </trkpt>
      <trkpt lat="41.038996" lon="-6.761376">
        <ele>632.4</ele>
        <time>1970-01-01T02:19:29.000Z</time>
      </trkpt>
      <trkpt lat="41.039012" lon="-6.76135">
        <ele>632.6</ele>
        <time>1970-01-01T02:19:30.000Z</time>
      </trkpt>
      <trkpt lat="41.039029" lon="-6.761323">
        <ele>632.8</ele>
        <time>1970-01-01T02:19:31.000Z</time>
      </trkpt>
      <trkpt lat="41.039046" lon="-6.761297">
        <ele>633</ele>
        <time>1970-01-01T02:19:32.000Z</time>
      </trkpt>
      <trkpt lat="41.039063" lon="-6.761271">
        <ele>633.1</ele>
        <time>1970-01-01T02:19:33.000Z</time>
      </trkpt>
      <trkpt lat="41.03908" lon="-6.761246">
        <ele>633.3</ele>
        <time>1970-01-01T02:19:34.000Z</time>
      </trkpt>
      <trkpt lat="41.039097" lon="-6.76122">
        <ele>633.5</ele>
        <time>1970-01-01T02:19:35.000Z</time>
      </trkpt>
      <trkpt lat="41.039115" lon="-6.761194">
        <ele>633.6</ele>
        <time>1970-01-01T02:19:36.000Z</time>
      </trkpt>
      <trkpt lat="41.039133" lon="-6.761167">
        <ele>633.8</ele>
        <time>1970-01-01T02:19:37.000Z</time>
      </trkpt>
      <trkpt lat="41.039152" lon="-6.761141">
        <ele>634</ele>
        <time>1970-01-01T02:19:38.000Z</time>
      </trkpt>
      <trkpt lat="41.03917" lon="-6.761114">
        <ele>634.1</ele>
        <time>1970-01-01T02:19:39.000Z</time>
      </trkpt>
      <trkpt lat="41.039188" lon="-6.761086">
        <ele>634.3</ele>
        <time>1970-01-01T02:19:40.000Z</time>
      </trkpt>
      <trkpt lat="41.039206" lon="-6.761058">
        <ele>634.5</ele>
        <time>1970-01-01T02:19:41.000Z</time>
      </trkpt>
      <trkpt lat="41.039223" lon="-6.761029">
        <ele>634.7</ele>
        <time>1970-01-01T02:19:42.000Z</time>
      </trkpt>
      <trkpt lat="41.039241" lon="-6.761001">
        <ele>634.8</ele>
        <time>1970-01-01T02:19:43.000Z</time>
      </trkpt>
      <trkpt lat="41.03926" lon="-6.760972">
        <ele>635</ele>
        <time>1970-01-01T02:19:44.000Z</time>
      </trkpt>
      <trkpt lat="41.039278" lon="-6.760943">
        <ele>635.2</ele>
        <time>1970-01-01T02:19:45.000Z</time>
      </trkpt>
      <trkpt lat="41.039297" lon="-6.760913">
        <ele>635.3</ele>
        <time>1970-01-01T02:19:46.000Z</time>
      </trkpt>
      <trkpt lat="41.039315" lon="-6.760883">
        <ele>635.5</ele>
        <time>1970-01-01T02:19:47.000Z</time>
      </trkpt>
      <trkpt lat="41.039335" lon="-6.760853">
        <ele>635.7</ele>
        <time>1970-01-01T02:19:48.000Z</time>
      </trkpt>
      <trkpt lat="41.039354" lon="-6.760824">
        <ele>635.9</ele>
        <time>1970-01-01T02:19:49.000Z</time>
      </trkpt>
      <trkpt lat="41.039374" lon="-6.760794">
        <ele>636.1</ele>
        <time>1970-01-01T02:19:50.000Z</time>
      </trkpt>
      <trkpt lat="41.039393" lon="-6.760765">
        <ele>636.3</ele>
        <time>1970-01-01T02:19:51.000Z</time>
      </trkpt>
      <trkpt lat="41.039413" lon="-6.760736">
        <ele>636.5</ele>
        <time>1970-01-01T02:19:52.000Z</time>
      </trkpt>
      <trkpt lat="41.039433" lon="-6.760707">
        <ele>636.7</ele>
        <time>1970-01-01T02:19:53.000Z</time>
      </trkpt>
      <trkpt lat="41.039453" lon="-6.760678">
        <ele>636.9</ele>
        <time>1970-01-01T02:19:54.000Z</time>
      </trkpt>
      <trkpt lat="41.039474" lon="-6.760648">
        <ele>637.1</ele>
        <time>1970-01-01T02:19:55.000Z</time>
      </trkpt>
      <trkpt lat="41.039494" lon="-6.760618">
        <ele>637.3</ele>
        <time>1970-01-01T02:19:56.000Z</time>
      </trkpt>
      <trkpt lat="41.039514" lon="-6.760588">
        <ele>637.5</ele>
        <time>1970-01-01T02:19:57.000Z</time>
      </trkpt>
      <trkpt lat="41.039534" lon="-6.760557">
        <ele>637.6</ele>
        <time>1970-01-01T02:19:58.000Z</time>
      </trkpt>
      <trkpt lat="41.039555" lon="-6.760526">
        <ele>637.8</ele>
        <time>1970-01-01T02:19:59.000Z</time>
      </trkpt>
      <trkpt lat="41.039575" lon="-6.760496">
        <ele>638</ele>
        <time>1970-01-01T02:20:00.000Z</time>
      </trkpt>
      <trkpt lat="41.039595" lon="-6.760467">
        <ele>638.1</ele>
        <time>1970-01-01T02:20:01.000Z</time>
      </trkpt>
      <trkpt lat="41.039616" lon="-6.760438">
        <ele>638.3</ele>
        <time>1970-01-01T02:20:02.000Z</time>
      </trkpt>
      <trkpt lat="41.039637" lon="-6.760408">
        <ele>638.5</ele>
        <time>1970-01-01T02:20:03.000Z</time>
      </trkpt>
      <trkpt lat="41.039657" lon="-6.760377">
        <ele>638.6</ele>
        <time>1970-01-01T02:20:04.000Z</time>
      </trkpt>
      <trkpt lat="41.039678" lon="-6.760346">
        <ele>638.8</ele>
        <time>1970-01-01T02:20:05.000Z</time>
      </trkpt>
      <trkpt lat="41.039696" lon="-6.760314">
        <ele>639</ele>
        <time>1970-01-01T02:20:06.000Z</time>
      </trkpt>
      <trkpt lat="41.039714" lon="-6.760284">
        <ele>639.1</ele>
        <time>1970-01-01T02:20:07.000Z</time>
      </trkpt>
      <trkpt lat="41.039733" lon="-6.760254">
        <ele>639.3</ele>
        <time>1970-01-01T02:20:08.000Z</time>
      </trkpt>
      <trkpt lat="41.039753" lon="-6.760224">
        <ele>639.5</ele>
        <time>1970-01-01T02:20:09.000Z</time>
      </trkpt>
      <trkpt lat="41.039772" lon="-6.760194">
        <ele>639.6</ele>
        <time>1970-01-01T02:20:10.000Z</time>
      </trkpt>
      <trkpt lat="41.039791" lon="-6.760164">
        <ele>639.8</ele>
        <time>1970-01-01T02:20:11.000Z</time>
      </trkpt>
      <trkpt lat="41.03981" lon="-6.760135">
        <ele>640</ele>
        <time>1970-01-01T02:20:12.000Z</time>
      </trkpt>
      <trkpt lat="41.03983" lon="-6.760106">
        <ele>640.2</ele>
        <time>1970-01-01T02:20:13.000Z</time>
      </trkpt>
      <trkpt lat="41.039851" lon="-6.760077">
        <ele>640.4</ele>
        <time>1970-01-01T02:20:14.000Z</time>
      </trkpt>
      <trkpt lat="41.039872" lon="-6.760048">
        <ele>640.6</ele>
        <time>1970-01-01T02:20:15.000Z</time>
      </trkpt>
      <trkpt lat="41.039893" lon="-6.760019">
        <ele>640.8</ele>
        <time>1970-01-01T02:20:16.000Z</time>
      </trkpt>
      <trkpt lat="41.039914" lon="-6.759989">
        <ele>641</ele>
        <time>1970-01-01T02:20:17.000Z</time>
      </trkpt>
      <trkpt lat="41.039935" lon="-6.759959">
        <ele>641.2</ele>
        <time>1970-01-01T02:20:18.000Z</time>
      </trkpt>
      <trkpt lat="41.039956" lon="-6.759929">
        <ele>641.4</ele>
        <time>1970-01-01T02:20:19.000Z</time>
      </trkpt>
      <trkpt lat="41.039977" lon="-6.759899">
        <ele>641.6</ele>
        <time>1970-01-01T02:20:20.000Z</time>
      </trkpt>
      <trkpt lat="41.039998" lon="-6.759868">
        <ele>641.8</ele>
        <time>1970-01-01T02:20:21.000Z</time>
      </trkpt>
      <trkpt lat="41.040017" lon="-6.759839">
        <ele>641.9</ele>
        <time>1970-01-01T02:20:22.000Z</time>
      </trkpt>
      <trkpt lat="41.040037" lon="-6.75981">
        <ele>642.1</ele>
        <time>1970-01-01T02:20:23.000Z</time>
      </trkpt>
      <trkpt lat="41.040058" lon="-6.759783">
        <ele>642.3</ele>
        <time>1970-01-01T02:20:24.000Z</time>
      </trkpt>
      <trkpt lat="41.040081" lon="-6.759757">
        <ele>642.5</ele>
        <time>1970-01-01T02:20:25.000Z</time>
      </trkpt>
      <trkpt lat="41.040106" lon="-6.759734">
        <ele>642.6</ele>
        <time>1970-01-01T02:20:26.000Z</time>
      </trkpt>
      <trkpt lat="41.040134" lon="-6.759713">
        <ele>642.8</ele>
        <time>1970-01-01T02:20:27.000Z</time>
      </trkpt>
      <trkpt lat="41.040161" lon="-6.759695">
        <ele>643</ele>
        <time>1970-01-01T02:20:28.000Z</time>
      </trkpt>
      <trkpt lat="41.040188" lon="-6.75968">
        <ele>643.1</ele>
        <time>1970-01-01T02:20:29.000Z</time>
      </trkpt>
      <trkpt lat="41.040216" lon="-6.759669">
        <ele>643.3</ele>
        <time>1970-01-01T02:20:30.000Z</time>
      </trkpt>
      <trkpt lat="41.040245" lon="-6.759662">
        <ele>643.5</ele>
        <time>1970-01-01T02:20:31.000Z</time>
      </trkpt>
      <trkpt lat="41.040276" lon="-6.75966">
        <ele>643.6</ele>
        <time>1970-01-01T02:20:32.000Z</time>
      </trkpt>
      <trkpt lat="41.040306" lon="-6.759665">
        <ele>643.8</ele>
        <time>1970-01-01T02:20:33.000Z</time>
      </trkpt>
      <trkpt lat="41.040336" lon="-6.759677">
        <ele>644</ele>
        <time>1970-01-01T02:20:34.000Z</time>
      </trkpt>
      <trkpt lat="41.040363" lon="-6.759695">
        <ele>644.1</ele>
        <time>1970-01-01T02:20:35.000Z</time>
      </trkpt>
      <trkpt lat="41.040386" lon="-6.75972">
        <ele>644.3</ele>
        <time>1970-01-01T02:20:36.000Z</time>
      </trkpt>
      <trkpt lat="41.040406" lon="-6.759749">
        <ele>644.4</ele>
        <time>1970-01-01T02:20:37.000Z</time>
      </trkpt>
      <trkpt lat="41.040425" lon="-6.759781">
        <ele>644.6</ele>
        <time>1970-01-01T02:20:38.000Z</time>
      </trkpt>
      <trkpt lat="41.040443" lon="-6.759815">
        <ele>644.7</ele>
        <time>1970-01-01T02:20:39.000Z</time>
      </trkpt>
      <trkpt lat="41.040461" lon="-6.759852">
        <ele>644.9</ele>
        <time>1970-01-01T02:20:40.000Z</time>
      </trkpt>
      <trkpt lat="41.040478" lon="-6.75989">
        <ele>645.1</ele>
        <time>1970-01-01T02:20:41.000Z</time>
      </trkpt>
      <trkpt lat="41.040495" lon="-6.75993">
        <ele>645.3</ele>
        <time>1970-01-01T02:20:42.000Z</time>
      </trkpt>
      <trkpt lat="41.04051" lon="-6.759969">
        <ele>645.5</ele>
        <time>1970-01-01T02:20:43.000Z</time>
      </trkpt>
      <trkpt lat="41.040524" lon="-6.760008">
        <ele>645.7</ele>
        <time>1970-01-01T02:20:44.000Z</time>
      </trkpt>
      <trkpt lat="41.040538" lon="-6.760048">
        <ele>645.9</ele>
        <time>1970-01-01T02:20:45.000Z</time>
      </trkpt>
      <trkpt lat="41.040551" lon="-6.760087">
        <ele>646.1</ele>
        <time>1970-01-01T02:20:46.000Z</time>
      </trkpt>
      <trkpt lat="41.040563" lon="-6.760127">
        <ele>646.3</ele>
        <time>1970-01-01T02:20:47.000Z</time>
      </trkpt>
      <trkpt lat="41.040575" lon="-6.760166">
        <ele>646.4</ele>
        <time>1970-01-01T02:20:48.000Z</time>
      </trkpt>
      <trkpt lat="41.040588" lon="-6.760205">
        <ele>646.6</ele>
        <time>1970-01-01T02:20:49.000Z</time>
      </trkpt>
      <trkpt lat="41.0406" lon="-6.760245">
        <ele>646.8</ele>
        <time>1970-01-01T02:20:50.000Z</time>
      </trkpt>
      <trkpt lat="41.040613" lon="-6.760284">
        <ele>647</ele>
        <time>1970-01-01T02:20:51.000Z</time>
      </trkpt>
      <trkpt lat="41.040625" lon="-6.760323">
        <ele>647.1</ele>
        <time>1970-01-01T02:20:52.000Z</time>
      </trkpt>
      <trkpt lat="41.040639" lon="-6.760362">
        <ele>647.3</ele>
        <time>1970-01-01T02:20:53.000Z</time>
      </trkpt>
      <trkpt lat="41.040652" lon="-6.7604">
        <ele>647.5</ele>
        <time>1970-01-01T02:20:54.000Z</time>
      </trkpt>
      <trkpt lat="41.040666" lon="-6.760439">
        <ele>647.7</ele>
        <time>1970-01-01T02:20:55.000Z</time>
      </trkpt>
      <trkpt lat="41.040682" lon="-6.760476">
        <ele>647.9</ele>
        <time>1970-01-01T02:20:56.000Z</time>
      </trkpt>
      <trkpt lat="41.040699" lon="-6.760512">
        <ele>648.1</ele>
        <time>1970-01-01T02:20:57.000Z</time>
      </trkpt>
      <trkpt lat="41.040719" lon="-6.760545">
        <ele>648.2</ele>
        <time>1970-01-01T02:20:58.000Z</time>
      </trkpt>
      <trkpt lat="41.040741" lon="-6.760574">
        <ele>648.4</ele>
        <time>1970-01-01T02:20:59.000Z</time>
      </trkpt>
      <trkpt lat="41.040766" lon="-6.760599">
        <ele>648.6</ele>
        <time>1970-01-01T02:21:00.000Z</time>
      </trkpt>
      <trkpt lat="41.040792" lon="-6.760619">
        <ele>648.8</ele>
        <time>1970-01-01T02:21:01.000Z</time>
      </trkpt>
      <trkpt lat="41.040821" lon="-6.760635">
        <ele>649</ele>
        <time>1970-01-01T02:21:02.000Z</time>
      </trkpt>
      <trkpt lat="41.04085" lon="-6.760647">
        <ele>649.2</ele>
        <time>1970-01-01T02:21:03.000Z</time>
      </trkpt>
      <trkpt lat="41.040879" lon="-6.760654">
        <ele>649.4</ele>
        <time>1970-01-01T02:21:04.000Z</time>
      </trkpt>
      <trkpt lat="41.040908" lon="-6.760655">
        <ele>649.6</ele>
        <time>1970-01-01T02:21:05.000Z</time>
      </trkpt>
      <trkpt lat="41.040937" lon="-6.76065">
        <ele>649.8</ele>
        <time>1970-01-01T02:21:06.000Z</time>
      </trkpt>
      <trkpt lat="41.040965" lon="-6.760641">
        <ele>650</ele>
        <time>1970-01-01T02:21:07.000Z</time>
      </trkpt>
      <trkpt lat="41.040993" lon="-6.760627">
        <ele>650.2</ele>
        <time>1970-01-01T02:21:08.000Z</time>
      </trkpt>
      <trkpt lat="41.04102" lon="-6.760609">
        <ele>650.4</ele>
        <time>1970-01-01T02:21:09.000Z</time>
      </trkpt>
      <trkpt lat="41.041046" lon="-6.760587">
        <ele>650.7</ele>
        <time>1970-01-01T02:21:10.000Z</time>
      </trkpt>
      <trkpt lat="41.041069" lon="-6.760562">
        <ele>650.8</ele>
        <time>1970-01-01T02:21:11.000Z</time>
      </trkpt>
      <trkpt lat="41.041092" lon="-6.760534">
        <ele>650.9</ele>
        <time>1970-01-01T02:21:12.000Z</time>
      </trkpt>
      <trkpt lat="41.041113" lon="-6.760503">
        <ele>651</ele>
        <time>1970-01-01T02:21:13.000Z</time>
      </trkpt>
      <trkpt lat="41.041134" lon="-6.76047">
        <ele>651.2</ele>
        <time>1970-01-01T02:21:14.000Z</time>
      </trkpt>
      <trkpt lat="41.041154" lon="-6.760435">
        <ele>651.3</ele>
        <time>1970-01-01T02:21:15.000Z</time>
      </trkpt>
      <trkpt lat="41.041174" lon="-6.760398">
        <ele>651.4</ele>
        <time>1970-01-01T02:21:16.000Z</time>
      </trkpt>
      <trkpt lat="41.041193" lon="-6.76036">
        <ele>651.6</ele>
        <time>1970-01-01T02:21:17.000Z</time>
      </trkpt>
      <trkpt lat="41.041211" lon="-6.760321">
        <ele>651.8</ele>
        <time>1970-01-01T02:21:18.000Z</time>
      </trkpt>
      <trkpt lat="41.041229" lon="-6.760281">
        <ele>651.9</ele>
        <time>1970-01-01T02:21:19.000Z</time>
      </trkpt>
      <trkpt lat="41.041247" lon="-6.760243">
        <ele>652.1</ele>
        <time>1970-01-01T02:21:20.000Z</time>
      </trkpt>
      <trkpt lat="41.041267" lon="-6.760206">
        <ele>652.3</ele>
        <time>1970-01-01T02:21:21.000Z</time>
      </trkpt>
      <trkpt lat="41.041288" lon="-6.76017">
        <ele>652.5</ele>
        <time>1970-01-01T02:21:22.000Z</time>
      </trkpt>
      <trkpt lat="41.041309" lon="-6.760135">
        <ele>652.7</ele>
        <time>1970-01-01T02:21:23.000Z</time>
      </trkpt>
      <trkpt lat="41.04133" lon="-6.7601">
        <ele>652.9</ele>
        <time>1970-01-01T02:21:24.000Z</time>
      </trkpt>
      <trkpt lat="41.04135" lon="-6.760066">
        <ele>653.1</ele>
        <time>1970-01-01T02:21:25.000Z</time>
      </trkpt>
      <trkpt lat="41.04137" lon="-6.760032">
        <ele>653.2</ele>
        <time>1970-01-01T02:21:26.000Z</time>
      </trkpt>
      <trkpt lat="41.04139" lon="-6.759998">
        <ele>653.4</ele>
        <time>1970-01-01T02:21:27.000Z</time>
      </trkpt>
      <trkpt lat="41.04141" lon="-6.759964">
        <ele>653.6</ele>
        <time>1970-01-01T02:21:28.000Z</time>
      </trkpt>
      <trkpt lat="41.041429" lon="-6.75993">
        <ele>653.8</ele>
        <time>1970-01-01T02:21:29.000Z</time>
      </trkpt>
      <trkpt lat="41.041447" lon="-6.759896">
        <ele>654</ele>
        <time>1970-01-01T02:21:30.000Z</time>
      </trkpt>
      <trkpt lat="41.041466" lon="-6.759861">
        <ele>654.2</ele>
        <time>1970-01-01T02:21:31.000Z</time>
      </trkpt>
      <trkpt lat="41.041484" lon="-6.759826">
        <ele>654.3</ele>
        <time>1970-01-01T02:21:32.000Z</time>
      </trkpt>
      <trkpt lat="41.041503" lon="-6.759792">
        <ele>654.5</ele>
        <time>1970-01-01T02:21:33.000Z</time>
      </trkpt>
      <trkpt lat="41.04152" lon="-6.759759">
        <ele>654.7</ele>
        <time>1970-01-01T02:21:34.000Z</time>
      </trkpt>
      <trkpt lat="41.041539" lon="-6.759726">
        <ele>654.8</ele>
        <time>1970-01-01T02:21:35.000Z</time>
      </trkpt>
      <trkpt lat="41.041558" lon="-6.759692">
        <ele>655</ele>
        <time>1970-01-01T02:21:36.000Z</time>
      </trkpt>
      <trkpt lat="41.041577" lon="-6.759658">
        <ele>655.1</ele>
        <time>1970-01-01T02:21:37.000Z</time>
      </trkpt>
      <trkpt lat="41.041595" lon="-6.759625">
        <ele>655.2</ele>
        <time>1970-01-01T02:21:38.000Z</time>
      </trkpt>
      <trkpt lat="41.041614" lon="-6.759592">
        <ele>655.3</ele>
        <time>1970-01-01T02:21:39.000Z</time>
      </trkpt>
      <trkpt lat="41.041634" lon="-6.759559">
        <ele>655.5</ele>
        <time>1970-01-01T02:21:40.000Z</time>
      </trkpt>
      <trkpt lat="41.041654" lon="-6.759524">
        <ele>655.6</ele>
        <time>1970-01-01T02:21:41.000Z</time>
      </trkpt>
      <trkpt lat="41.041674" lon="-6.759488">
        <ele>655.7</ele>
        <time>1970-01-01T02:21:42.000Z</time>
      </trkpt>
      <trkpt lat="41.041694" lon="-6.75945">
        <ele>655.8</ele>
        <time>1970-01-01T02:21:43.000Z</time>
      </trkpt>
      <trkpt lat="41.041715" lon="-6.759412">
        <ele>655.9</ele>
        <time>1970-01-01T02:21:44.000Z</time>
      </trkpt>
      <trkpt lat="41.041736" lon="-6.759374">
        <ele>656</ele>
        <time>1970-01-01T02:21:45.000Z</time>
      </trkpt>
      <trkpt lat="41.041757" lon="-6.759335">
        <ele>656.1</ele>
        <time>1970-01-01T02:21:46.000Z</time>
      </trkpt>
      <trkpt lat="41.041779" lon="-6.759295">
        <ele>656.2</ele>
        <time>1970-01-01T02:21:47.000Z</time>
      </trkpt>
      <trkpt lat="41.041801" lon="-6.759256">
        <ele>656.2</ele>
        <time>1970-01-01T02:21:48.000Z</time>
      </trkpt>
      <trkpt lat="41.041823" lon="-6.759217">
        <ele>656.3</ele>
        <time>1970-01-01T02:21:49.000Z</time>
      </trkpt>
      <trkpt lat="41.041846" lon="-6.759177">
        <ele>656.3</ele>
        <time>1970-01-01T02:21:50.000Z</time>
      </trkpt>
      <trkpt lat="41.041868" lon="-6.759135">
        <ele>656.4</ele>
        <time>1970-01-01T02:21:51.000Z</time>
      </trkpt>
      <trkpt lat="41.041891" lon="-6.75909">
        <ele>656.4</ele>
        <time>1970-01-01T02:21:52.000Z</time>
      </trkpt>
      <trkpt lat="41.041915" lon="-6.759045">
        <ele>656.4</ele>
        <time>1970-01-01T02:21:53.000Z</time>
      </trkpt>
      <trkpt lat="41.041939" lon="-6.759">
        <ele>656.4</ele>
        <time>1970-01-01T02:21:54.000Z</time>
      </trkpt>
      <trkpt lat="41.041963" lon="-6.758955">
        <ele>656.5</ele>
        <time>1970-01-01T02:21:55.000Z</time>
      </trkpt>
      <trkpt lat="41.041989" lon="-6.758911">
        <ele>656.5</ele>
        <time>1970-01-01T02:21:56.000Z</time>
      </trkpt>
      <trkpt lat="41.042015" lon="-6.758866">
        <ele>656.5</ele>
        <time>1970-01-01T02:21:57.000Z</time>
      </trkpt>
      <trkpt lat="41.042042" lon="-6.75882">
        <ele>656.6</ele>
        <time>1970-01-01T02:21:58.000Z</time>
      </trkpt>
      <trkpt lat="41.042068" lon="-6.758773">
        <ele>656.6</ele>
        <time>1970-01-01T02:21:59.000Z</time>
      </trkpt>
      <trkpt lat="41.042095" lon="-6.758726">
        <ele>656.6</ele>
        <time>1970-01-01T02:22:00.000Z</time>
      </trkpt>
      <trkpt lat="41.042123" lon="-6.758678">
        <ele>656.6</ele>
        <time>1970-01-01T02:22:01.000Z</time>
      </trkpt>
      <trkpt lat="41.042149" lon="-6.758629">
        <ele>656.7</ele>
        <time>1970-01-01T02:22:02.000Z</time>
      </trkpt>
      <trkpt lat="41.042176" lon="-6.75858">
        <ele>656.7</ele>
        <time>1970-01-01T02:22:03.000Z</time>
      </trkpt>
      <trkpt lat="41.042202" lon="-6.758532">
        <ele>656.7</ele>
        <time>1970-01-01T02:22:04.000Z</time>
      </trkpt>
      <trkpt lat="41.042228" lon="-6.758483">
        <ele>656.8</ele>
        <time>1970-01-01T02:22:05.000Z</time>
      </trkpt>
      <trkpt lat="41.042254" lon="-6.758435">
        <ele>656.8</ele>
        <time>1970-01-01T02:22:06.000Z</time>
      </trkpt>
      <trkpt lat="41.042281" lon="-6.758387">
        <ele>656.9</ele>
        <time>1970-01-01T02:22:07.000Z</time>
      </trkpt>
      <trkpt lat="41.042309" lon="-6.758339">
        <ele>656.9</ele>
        <time>1970-01-01T02:22:08.000Z</time>
      </trkpt>
      <trkpt lat="41.042337" lon="-6.758291">
        <ele>657</ele>
        <time>1970-01-01T02:22:09.000Z</time>
      </trkpt>
      <trkpt lat="41.042365" lon="-6.758242">
        <ele>657.1</ele>
        <time>1970-01-01T02:22:10.000Z</time>
      </trkpt>
      <trkpt lat="41.042392" lon="-6.758194">
        <ele>657.2</ele>
        <time>1970-01-01T02:22:11.000Z</time>
      </trkpt>
      <trkpt lat="41.042417" lon="-6.758145">
        <ele>657.3</ele>
        <time>1970-01-01T02:22:12.000Z</time>
      </trkpt>
      <trkpt lat="41.042441" lon="-6.758096">
        <ele>657.4</ele>
        <time>1970-01-01T02:22:13.000Z</time>
      </trkpt>
      <trkpt lat="41.042466" lon="-6.758046">
        <ele>657.4</ele>
        <time>1970-01-01T02:22:14.000Z</time>
      </trkpt>
      <trkpt lat="41.04249" lon="-6.757996">
        <ele>657.5</ele>
        <time>1970-01-01T02:22:15.000Z</time>
      </trkpt>
      <trkpt lat="41.042514" lon="-6.757944">
        <ele>657.6</ele>
        <time>1970-01-01T02:22:16.000Z</time>
      </trkpt>
      <trkpt lat="41.042539" lon="-6.757892">
        <ele>657.6</ele>
        <time>1970-01-01T02:22:17.000Z</time>
      </trkpt>
      <trkpt lat="41.042564" lon="-6.75784">
        <ele>657.6</ele>
        <time>1970-01-01T02:22:18.000Z</time>
      </trkpt>
      <trkpt lat="41.042588" lon="-6.757787">
        <ele>657.7</ele>
        <time>1970-01-01T02:22:19.000Z</time>
      </trkpt>
      <trkpt lat="41.042611" lon="-6.757733">
        <ele>657.7</ele>
        <time>1970-01-01T02:22:20.000Z</time>
      </trkpt>
      <trkpt lat="41.042633" lon="-6.757678">
        <ele>657.7</ele>
        <time>1970-01-01T02:22:21.000Z</time>
      </trkpt>
      <trkpt lat="41.042655" lon="-6.757622">
        <ele>657.7</ele>
        <time>1970-01-01T02:22:22.000Z</time>
      </trkpt>
      <trkpt lat="41.042678" lon="-6.757565">
        <ele>657.8</ele>
        <time>1970-01-01T02:22:23.000Z</time>
      </trkpt>
      <trkpt lat="41.0427" lon="-6.757507">
        <ele>657.8</ele>
        <time>1970-01-01T02:22:24.000Z</time>
      </trkpt>
      <trkpt lat="41.042723" lon="-6.75745">
        <ele>657.8</ele>
        <time>1970-01-01T02:22:25.000Z</time>
      </trkpt>
      <trkpt lat="41.042746" lon="-6.757394">
        <ele>657.9</ele>
        <time>1970-01-01T02:22:26.000Z</time>
      </trkpt>
      <trkpt lat="41.04277" lon="-6.757338">
        <ele>657.9</ele>
        <time>1970-01-01T02:22:27.000Z</time>
      </trkpt>
      <trkpt lat="41.042794" lon="-6.757282">
        <ele>657.9</ele>
        <time>1970-01-01T02:22:28.000Z</time>
      </trkpt>
      <trkpt lat="41.042816" lon="-6.757226">
        <ele>658</ele>
        <time>1970-01-01T02:22:29.000Z</time>
      </trkpt>
      <trkpt lat="41.042838" lon="-6.75717">
        <ele>658</ele>
        <time>1970-01-01T02:22:30.000Z</time>
      </trkpt>
      <trkpt lat="41.042858" lon="-6.757114">
        <ele>658.1</ele>
        <time>1970-01-01T02:22:31.000Z</time>
      </trkpt>
      <trkpt lat="41.042879" lon="-6.757059">
        <ele>658.1</ele>
        <time>1970-01-01T02:22:32.000Z</time>
      </trkpt>
      <trkpt lat="41.0429" lon="-6.757003">
        <ele>658.2</ele>
        <time>1970-01-01T02:22:33.000Z</time>
      </trkpt>
      <trkpt lat="41.042923" lon="-6.756946">
        <ele>658.2</ele>
        <time>1970-01-01T02:22:34.000Z</time>
      </trkpt>
      <trkpt lat="41.042946" lon="-6.756888">
        <ele>658.3</ele>
        <time>1970-01-01T02:22:35.000Z</time>
      </trkpt>
      <trkpt lat="41.04297" lon="-6.75683">
        <ele>658.4</ele>
        <time>1970-01-01T02:22:36.000Z</time>
      </trkpt>
      <trkpt lat="41.042994" lon="-6.756773">
        <ele>658.4</ele>
        <time>1970-01-01T02:22:37.000Z</time>
      </trkpt>
      <trkpt lat="41.043017" lon="-6.756716">
        <ele>658.5</ele>
        <time>1970-01-01T02:22:38.000Z</time>
      </trkpt>
      <trkpt lat="41.04304" lon="-6.756658">
        <ele>658.6</ele>
        <time>1970-01-01T02:22:39.000Z</time>
      </trkpt>
      <trkpt lat="41.043063" lon="-6.7566">
        <ele>658.7</ele>
        <time>1970-01-01T02:22:40.000Z</time>
      </trkpt>
      <trkpt lat="41.043086" lon="-6.75654">
        <ele>658.8</ele>
        <time>1970-01-01T02:22:41.000Z</time>
      </trkpt>
      <trkpt lat="41.043108" lon="-6.75648">
        <ele>658.9</ele>
        <time>1970-01-01T02:22:42.000Z</time>
      </trkpt>
      <trkpt lat="41.04313" lon="-6.756419">
        <ele>659</ele>
        <time>1970-01-01T02:22:43.000Z</time>
      </trkpt>
      <trkpt lat="41.043153" lon="-6.75636">
        <ele>659.1</ele>
        <time>1970-01-01T02:22:44.000Z</time>
      </trkpt>
      <trkpt lat="41.043178" lon="-6.756301">
        <ele>659.2</ele>
        <time>1970-01-01T02:22:45.000Z</time>
      </trkpt>
      <trkpt lat="41.043204" lon="-6.756241">
        <ele>659.3</ele>
        <time>1970-01-01T02:22:46.000Z</time>
      </trkpt>
      <trkpt lat="41.04323" lon="-6.756182">
        <ele>659.5</ele>
        <time>1970-01-01T02:22:47.000Z</time>
      </trkpt>
      <trkpt lat="41.043255" lon="-6.756123">
        <ele>659.6</ele>
        <time>1970-01-01T02:22:48.000Z</time>
      </trkpt>
      <trkpt lat="41.04328" lon="-6.756065">
        <ele>659.7</ele>
        <time>1970-01-01T02:22:49.000Z</time>
      </trkpt>
      <trkpt lat="41.043305" lon="-6.756007">
        <ele>659.8</ele>
        <time>1970-01-01T02:22:50.000Z</time>
      </trkpt>
      <trkpt lat="41.04333" lon="-6.755949">
        <ele>659.9</ele>
        <time>1970-01-01T02:22:51.000Z</time>
      </trkpt>
      <trkpt lat="41.043355" lon="-6.755892">
        <ele>660</ele>
        <time>1970-01-01T02:22:52.000Z</time>
      </trkpt>
      <trkpt lat="41.043381" lon="-6.755835">
        <ele>660.1</ele>
        <time>1970-01-01T02:22:53.000Z</time>
      </trkpt>
      <trkpt lat="41.043407" lon="-6.755778">
        <ele>660.1</ele>
        <time>1970-01-01T02:22:54.000Z</time>
      </trkpt>
      <trkpt lat="41.043432" lon="-6.75572">
        <ele>660.2</ele>
        <time>1970-01-01T02:22:55.000Z</time>
      </trkpt>
      <trkpt lat="41.043455" lon="-6.755663">
        <ele>660.3</ele>
        <time>1970-01-01T02:22:56.000Z</time>
      </trkpt>
      <trkpt lat="41.043479" lon="-6.755605">
        <ele>660.4</ele>
        <time>1970-01-01T02:22:57.000Z</time>
      </trkpt>
      <trkpt lat="41.043503" lon="-6.755547">
        <ele>660.5</ele>
        <time>1970-01-01T02:22:58.000Z</time>
      </trkpt>
      <trkpt lat="41.043526" lon="-6.755488">
        <ele>660.5</ele>
        <time>1970-01-01T02:22:59.000Z</time>
      </trkpt>
      <trkpt lat="41.04355" lon="-6.755428">
        <ele>660.6</ele>
        <time>1970-01-01T02:23:00.000Z</time>
      </trkpt>
      <trkpt lat="41.043574" lon="-6.755367">
        <ele>660.6</ele>
        <time>1970-01-01T02:23:01.000Z</time>
      </trkpt>
      <trkpt lat="41.043598" lon="-6.755306">
        <ele>660.7</ele>
        <time>1970-01-01T02:23:02.000Z</time>
      </trkpt>
      <trkpt lat="41.043623" lon="-6.755244">
        <ele>660.7</ele>
        <time>1970-01-01T02:23:03.000Z</time>
      </trkpt>
      <trkpt lat="41.043649" lon="-6.755182">
        <ele>660.7</ele>
        <time>1970-01-01T02:23:04.000Z</time>
      </trkpt>
      <trkpt lat="41.043676" lon="-6.75512">
        <ele>660.7</ele>
        <time>1970-01-01T02:23:05.000Z</time>
      </trkpt>
      <trkpt lat="41.043703" lon="-6.755055">
        <ele>660.8</ele>
        <time>1970-01-01T02:23:06.000Z</time>
      </trkpt>
      <trkpt lat="41.043731" lon="-6.754989">
        <ele>660.8</ele>
        <time>1970-01-01T02:23:07.000Z</time>
      </trkpt>
      <trkpt lat="41.043757" lon="-6.754922">
        <ele>660.8</ele>
        <time>1970-01-01T02:23:08.000Z</time>
      </trkpt>
      <trkpt lat="41.043784" lon="-6.754855">
        <ele>660.7</ele>
        <time>1970-01-01T02:23:09.000Z</time>
      </trkpt>
      <trkpt lat="41.043811" lon="-6.754788">
        <ele>660.7</ele>
        <time>1970-01-01T02:23:10.000Z</time>
      </trkpt>
      <trkpt lat="41.043839" lon="-6.754722">
        <ele>660.7</ele>
        <time>1970-01-01T02:23:11.000Z</time>
      </trkpt>
      <trkpt lat="41.043866" lon="-6.754656">
        <ele>660.6</ele>
        <time>1970-01-01T02:23:12.000Z</time>
      </trkpt>
      <trkpt lat="41.043894" lon="-6.754589">
        <ele>660.6</ele>
        <time>1970-01-01T02:23:13.000Z</time>
      </trkpt>
      <trkpt lat="41.043921" lon="-6.754523">
        <ele>660.6</ele>
        <time>1970-01-01T02:23:14.000Z</time>
      </trkpt>
      <trkpt lat="41.043948" lon="-6.754457">
        <ele>660.6</ele>
        <time>1970-01-01T02:23:15.000Z</time>
      </trkpt>
      <trkpt lat="41.043976" lon="-6.75439">
        <ele>660.6</ele>
        <time>1970-01-01T02:23:16.000Z</time>
      </trkpt>
      <trkpt lat="41.044003" lon="-6.754322">
        <ele>660.6</ele>
        <time>1970-01-01T02:23:17.000Z</time>
      </trkpt>
      <trkpt lat="41.044031" lon="-6.754254">
        <ele>660.6</ele>
        <time>1970-01-01T02:23:18.000Z</time>
      </trkpt>
      <trkpt lat="41.04406" lon="-6.754184">
        <ele>660.6</ele>
        <time>1970-01-01T02:23:19.000Z</time>
      </trkpt>
      <trkpt lat="41.044089" lon="-6.754114">
        <ele>660.6</ele>
        <time>1970-01-01T02:23:20.000Z</time>
      </trkpt>
      <trkpt lat="41.044117" lon="-6.754043">
        <ele>660.6</ele>
        <time>1970-01-01T02:23:21.000Z</time>
      </trkpt>
      <trkpt lat="41.044145" lon="-6.753974">
        <ele>660.6</ele>
        <time>1970-01-01T02:23:22.000Z</time>
      </trkpt>
      <trkpt lat="41.044174" lon="-6.753907">
        <ele>660.6</ele>
        <time>1970-01-01T02:23:23.000Z</time>
      </trkpt>
      <trkpt lat="41.044205" lon="-6.75384">
        <ele>660.5</ele>
        <time>1970-01-01T02:23:24.000Z</time>
      </trkpt>
      <trkpt lat="41.044238" lon="-6.753775">
        <ele>660.4</ele>
        <time>1970-01-01T02:23:25.000Z</time>
      </trkpt>
      <trkpt lat="41.044273" lon="-6.753712">
        <ele>660.2</ele>
        <time>1970-01-01T02:23:26.000Z</time>
      </trkpt>
      <trkpt lat="41.044313" lon="-6.753652">
        <ele>660.2</ele>
        <time>1970-01-01T02:23:27.000Z</time>
      </trkpt>
      <trkpt lat="41.044356" lon="-6.753595">
        <ele>660.2</ele>
        <time>1970-01-01T02:23:28.000Z</time>
      </trkpt>
      <trkpt lat="41.044401" lon="-6.753541">
        <ele>660.2</ele>
        <time>1970-01-01T02:23:29.000Z</time>
      </trkpt>
      <trkpt lat="41.044449" lon="-6.753492">
        <ele>660.2</ele>
        <time>1970-01-01T02:23:30.000Z</time>
      </trkpt>
      <trkpt lat="41.044499" lon="-6.753448">
        <ele>660.2</ele>
        <time>1970-01-01T02:23:31.000Z</time>
      </trkpt>
      <trkpt lat="41.04455" lon="-6.753411">
        <ele>660.2</ele>
        <time>1970-01-01T02:23:32.000Z</time>
      </trkpt>
      <trkpt lat="41.044603" lon="-6.753379">
        <ele>660.2</ele>
        <time>1970-01-01T02:23:33.000Z</time>
      </trkpt>
      <trkpt lat="41.044658" lon="-6.753352">
        <ele>660.2</ele>
        <time>1970-01-01T02:23:34.000Z</time>
      </trkpt>
      <trkpt lat="41.044714" lon="-6.753329">
        <ele>660.2</ele>
        <time>1970-01-01T02:23:35.000Z</time>
      </trkpt>
      <trkpt lat="41.044772" lon="-6.753309">
        <ele>660.2</ele>
        <time>1970-01-01T02:23:36.000Z</time>
      </trkpt>
      <trkpt lat="41.044831" lon="-6.753293">
        <ele>660.3</ele>
        <time>1970-01-01T02:23:37.000Z</time>
      </trkpt>
      <trkpt lat="41.044892" lon="-6.753281">
        <ele>660.3</ele>
        <time>1970-01-01T02:23:38.000Z</time>
      </trkpt>
      <trkpt lat="41.044953" lon="-6.753275">
        <ele>660.4</ele>
        <time>1970-01-01T02:23:39.000Z</time>
      </trkpt>
      <trkpt lat="41.045012" lon="-6.753273">
        <ele>660.4</ele>
        <time>1970-01-01T02:23:40.000Z</time>
      </trkpt>
      <trkpt lat="41.045069" lon="-6.753272">
        <ele>660.5</ele>
        <time>1970-01-01T02:23:41.000Z</time>
      </trkpt>
      <trkpt lat="41.045125" lon="-6.753272">
        <ele>660.5</ele>
        <time>1970-01-01T02:23:42.000Z</time>
      </trkpt>
      <trkpt lat="41.045178" lon="-6.753272">
        <ele>660.6</ele>
        <time>1970-01-01T02:23:43.000Z</time>
      </trkpt>
      <trkpt lat="41.04523" lon="-6.753273">
        <ele>660.6</ele>
        <time>1970-01-01T02:23:44.000Z</time>
      </trkpt>
      <trkpt lat="41.045281" lon="-6.753274">
        <ele>660.7</ele>
        <time>1970-01-01T02:23:45.000Z</time>
      </trkpt>
      <trkpt lat="41.045331" lon="-6.753275">
        <ele>660.7</ele>
        <time>1970-01-01T02:23:46.000Z</time>
      </trkpt>
      <trkpt lat="41.045379" lon="-6.753277">
        <ele>660.8</ele>
        <time>1970-01-01T02:23:47.000Z</time>
      </trkpt>
      <trkpt lat="41.045426" lon="-6.753278">
        <ele>660.9</ele>
        <time>1970-01-01T02:23:48.000Z</time>
      </trkpt>
      <trkpt lat="41.04547" lon="-6.75328">
        <ele>661</ele>
        <time>1970-01-01T02:23:49.000Z</time>
      </trkpt>
      <trkpt lat="41.045513" lon="-6.753282">
        <ele>661</ele>
        <time>1970-01-01T02:23:50.000Z</time>
      </trkpt>
      <trkpt lat="41.045553" lon="-6.753284">
        <ele>661.1</ele>
        <time>1970-01-01T02:23:51.000Z</time>
      </trkpt>
      <trkpt lat="41.04559" lon="-6.753286">
        <ele>661.1</ele>
        <time>1970-01-01T02:23:52.000Z</time>
      </trkpt>
      <trkpt lat="41.045624" lon="-6.753288">
        <ele>661.1</ele>
        <time>1970-01-01T02:23:53.000Z</time>
      </trkpt>
      <trkpt lat="41.045653" lon="-6.75329">
        <ele>661.1</ele>
        <time>1970-01-01T02:23:54.000Z</time>
      </trkpt>
      <trkpt lat="41.045681" lon="-6.753293">
        <ele>661.1</ele>
        <time>1970-01-01T02:23:55.000Z</time>
      </trkpt>
      <trkpt lat="41.045704" lon="-6.7533">
        <ele>661.1</ele>
        <time>1970-01-01T02:23:56.000Z</time>
      </trkpt>
      <trkpt lat="41.045723" lon="-6.753314">
        <ele>661.1</ele>
        <time>1970-01-01T02:23:57.000Z</time>
      </trkpt>
      <trkpt lat="41.045734" lon="-6.753332">
        <ele>661</ele>
        <time>1970-01-01T02:23:58.000Z</time>
      </trkpt>
      <trkpt lat="41.045742" lon="-6.753353">
        <ele>660.4</ele>
        <time>1970-01-01T02:23:59.000Z</time>
      </trkpt>
      <trkpt lat="41.04575" lon="-6.753376">
        <ele>659.8</ele>
        <time>1970-01-01T02:24:00.000Z</time>
      </trkpt>
      <trkpt lat="41.045757" lon="-6.7534">
        <ele>659.1</ele>
        <time>1970-01-01T02:24:01.000Z</time>
      </trkpt>
      <trkpt lat="41.045765" lon="-6.753427">
        <ele>658.8</ele>
        <time>1970-01-01T02:24:02.000Z</time>
      </trkpt>
      <trkpt lat="41.045776" lon="-6.753457">
        <ele>658.6</ele>
        <time>1970-01-01T02:24:03.000Z</time>
      </trkpt>
      <trkpt lat="41.045797" lon="-6.753494">
        <ele>658.3</ele>
        <time>1970-01-01T02:24:04.000Z</time>
      </trkpt>
      <trkpt lat="41.045824" lon="-6.753532">
        <ele>657.9</ele>
        <time>1970-01-01T02:24:05.000Z</time>
      </trkpt>
      <trkpt lat="41.045856" lon="-6.753573">
        <ele>657.4</ele>
        <time>1970-01-01T02:24:06.000Z</time>
      </trkpt>
      <trkpt lat="41.045888" lon="-6.75361">
        <ele>657</ele>
        <time>1970-01-01T02:24:07.000Z</time>
      </trkpt>
      <trkpt lat="41.045926" lon="-6.753652">
        <ele>656.5</ele>
        <time>1970-01-01T02:24:08.000Z</time>
      </trkpt>
      <trkpt lat="41.045968" lon="-6.753697">
        <ele>655.9</ele>
        <time>1970-01-01T02:24:09.000Z</time>
      </trkpt>
      <trkpt lat="41.046013" lon="-6.753744">
        <ele>655.4</ele>
        <time>1970-01-01T02:24:10.000Z</time>
      </trkpt>
      <trkpt lat="41.046059" lon="-6.753789">
        <ele>654.9</ele>
        <time>1970-01-01T02:24:11.000Z</time>
      </trkpt>
      <trkpt lat="41.046108" lon="-6.753835">
        <ele>654.5</ele>
        <time>1970-01-01T02:24:12.000Z</time>
      </trkpt>
      <trkpt lat="41.046158" lon="-6.753882">
        <ele>654</ele>
        <time>1970-01-01T02:24:13.000Z</time>
      </trkpt>
      <trkpt lat="41.046205" lon="-6.75393">
        <ele>653.4</ele>
        <time>1970-01-01T02:24:14.000Z</time>
      </trkpt>
      <trkpt lat="41.046251" lon="-6.753979">
        <ele>652.8</ele>
        <time>1970-01-01T02:24:15.000Z</time>
      </trkpt>
      <trkpt lat="41.046296" lon="-6.754027">
        <ele>652</ele>
        <time>1970-01-01T02:24:16.000Z</time>
      </trkpt>
      <trkpt lat="41.046339" lon="-6.754075">
        <ele>651.1</ele>
        <time>1970-01-01T02:24:17.000Z</time>
      </trkpt>
      <trkpt lat="41.04638" lon="-6.754127">
        <ele>650.6</ele>
        <time>1970-01-01T02:24:18.000Z</time>
      </trkpt>
      <trkpt lat="41.046411" lon="-6.754189">
        <ele>650.1</ele>
        <time>1970-01-01T02:24:19.000Z</time>
      </trkpt>
      <trkpt lat="41.046424" lon="-6.754259">
        <ele>649.2</ele>
        <time>1970-01-01T02:24:20.000Z</time>
      </trkpt>
      <trkpt lat="41.046424" lon="-6.754336">
        <ele>648.1</ele>
        <time>1970-01-01T02:24:21.000Z</time>
      </trkpt>
      <trkpt lat="41.046419" lon="-6.754419">
        <ele>646.7</ele>
        <time>1970-01-01T02:24:22.000Z</time>
      </trkpt>
      <trkpt lat="41.046418" lon="-6.754511">
        <ele>645.1</ele>
        <time>1970-01-01T02:24:23.000Z</time>
      </trkpt>
      <trkpt lat="41.046421" lon="-6.75461">
        <ele>643.4</ele>
        <time>1970-01-01T02:24:24.000Z</time>
      </trkpt>
      <trkpt lat="41.046432" lon="-6.754713">
        <ele>641.7</ele>
        <time>1970-01-01T02:24:25.000Z</time>
      </trkpt>
      <trkpt lat="41.046453" lon="-6.754824">
        <ele>640.1</ele>
        <time>1970-01-01T02:24:26.000Z</time>
      </trkpt>
      <trkpt lat="41.046484" lon="-6.754951">
        <ele>638.4</ele>
        <time>1970-01-01T02:24:27.000Z</time>
      </trkpt>
      <trkpt lat="41.046526" lon="-6.75509">
        <ele>636.4</ele>
        <time>1970-01-01T02:24:28.000Z</time>
      </trkpt>
      <trkpt lat="41.04657" lon="-6.755231">
        <ele>634.7</ele>
        <time>1970-01-01T02:24:29.000Z</time>
      </trkpt>
      <trkpt lat="41.046616" lon="-6.755365">
        <ele>633.1</ele>
        <time>1970-01-01T02:24:30.000Z</time>
      </trkpt>
      <trkpt lat="41.046659" lon="-6.755492">
        <ele>631.5</ele>
        <time>1970-01-01T02:24:31.000Z</time>
      </trkpt>
      <trkpt lat="41.046701" lon="-6.755616">
        <ele>630.2</ele>
        <time>1970-01-01T02:24:32.000Z</time>
      </trkpt>
      <trkpt lat="41.04674" lon="-6.755735">
        <ele>629</ele>
        <time>1970-01-01T02:24:33.000Z</time>
      </trkpt>
      <trkpt lat="41.046776" lon="-6.755847">
        <ele>627.8</ele>
        <time>1970-01-01T02:24:34.000Z</time>
      </trkpt>
      <trkpt lat="41.046812" lon="-6.755948">
        <ele>626.6</ele>
        <time>1970-01-01T02:24:35.000Z</time>
      </trkpt>
      <trkpt lat="41.046845" lon="-6.756037">
        <ele>625.6</ele>
        <time>1970-01-01T02:24:36.000Z</time>
      </trkpt>
      <trkpt lat="41.04687" lon="-6.756112">
        <ele>624.5</ele>
        <time>1970-01-01T02:24:37.000Z</time>
      </trkpt>
      <trkpt lat="41.04688" lon="-6.756175">
        <ele>623.7</ele>
        <time>1970-01-01T02:24:38.000Z</time>
      </trkpt>
      <trkpt lat="41.046879" lon="-6.756239">
        <ele>622.8</ele>
        <time>1970-01-01T02:24:39.000Z</time>
      </trkpt>
      <trkpt lat="41.046869" lon="-6.756303">
        <ele>621.8</ele>
        <time>1970-01-01T02:24:40.000Z</time>
      </trkpt>
      <trkpt lat="41.046856" lon="-6.756372">
        <ele>621</ele>
        <time>1970-01-01T02:24:41.000Z</time>
      </trkpt>
      <trkpt lat="41.04684" lon="-6.756439">
        <ele>620.7</ele>
        <time>1970-01-01T02:24:42.000Z</time>
      </trkpt>
      <trkpt lat="41.046822" lon="-6.756503">
        <ele>620.6</ele>
        <time>1970-01-01T02:24:43.000Z</time>
      </trkpt>
      <trkpt lat="41.046804" lon="-6.756562">
        <ele>621.8</ele>
        <time>1970-01-01T02:24:44.000Z</time>
      </trkpt>
      <trkpt lat="41.046791" lon="-6.756618">
        <ele>622.4</ele>
        <time>1970-01-01T02:24:45.000Z</time>
      </trkpt>
      <trkpt lat="41.046785" lon="-6.756672">
        <ele>622.4</ele>
        <time>1970-01-01T02:24:46.000Z</time>
      </trkpt>
      <trkpt lat="41.046791" lon="-6.756723">
        <ele>622.2</ele>
        <time>1970-01-01T02:24:47.000Z</time>
      </trkpt>
      <trkpt lat="41.046809" lon="-6.756771">
        <ele>621.9</ele>
        <time>1970-01-01T02:24:48.000Z</time>
      </trkpt>
      <trkpt lat="41.046838" lon="-6.756821">
        <ele>621.5</ele>
        <time>1970-01-01T02:24:49.000Z</time>
      </trkpt>
      <trkpt lat="41.046875" lon="-6.756878">
        <ele>621</ele>
        <time>1970-01-01T02:24:50.000Z</time>
      </trkpt>
      <trkpt lat="41.046917" lon="-6.756936">
        <ele>620.4</ele>
        <time>1970-01-01T02:24:51.000Z</time>
      </trkpt>
      <trkpt lat="41.046961" lon="-6.756997">
        <ele>619.5</ele>
        <time>1970-01-01T02:24:52.000Z</time>
      </trkpt>
      <trkpt lat="41.047002" lon="-6.757063">
        <ele>618.6</ele>
        <time>1970-01-01T02:24:53.000Z</time>
      </trkpt>
      <trkpt lat="41.047035" lon="-6.757138">
        <ele>617.7</ele>
        <time>1970-01-01T02:24:54.000Z</time>
      </trkpt>
      <trkpt lat="41.047055" lon="-6.75722">
        <ele>616.9</ele>
        <time>1970-01-01T02:24:55.000Z</time>
      </trkpt>
      <trkpt lat="41.047063" lon="-6.757306">
        <ele>616.2</ele>
        <time>1970-01-01T02:24:56.000Z</time>
      </trkpt>
      <trkpt lat="41.047058" lon="-6.757395">
        <ele>615.6</ele>
        <time>1970-01-01T02:24:57.000Z</time>
      </trkpt>
      <trkpt lat="41.047042" lon="-6.757484">
        <ele>615.1</ele>
        <time>1970-01-01T02:24:58.000Z</time>
      </trkpt>
      <trkpt lat="41.047016" lon="-6.757576">
        <ele>614.5</ele>
        <time>1970-01-01T02:24:59.000Z</time>
      </trkpt>
      <trkpt lat="41.046982" lon="-6.75767">
        <ele>613.9</ele>
        <time>1970-01-01T02:25:00.000Z</time>
      </trkpt>
      <trkpt lat="41.046943" lon="-6.757763">
        <ele>613.3</ele>
        <time>1970-01-01T02:25:01.000Z</time>
      </trkpt>
      <trkpt lat="41.0469" lon="-6.757853">
        <ele>612.6</ele>
        <time>1970-01-01T02:25:02.000Z</time>
      </trkpt>
      <trkpt lat="41.046853" lon="-6.757932">
        <ele>612</ele>
        <time>1970-01-01T02:25:03.000Z</time>
      </trkpt>
      <trkpt lat="41.046803" lon="-6.758003">
        <ele>611.4</ele>
        <time>1970-01-01T02:25:04.000Z</time>
      </trkpt>
      <trkpt lat="41.046751" lon="-6.758067">
        <ele>610.9</ele>
        <time>1970-01-01T02:25:05.000Z</time>
      </trkpt>
      <trkpt lat="41.0467" lon="-6.758128">
        <ele>610.4</ele>
        <time>1970-01-01T02:25:06.000Z</time>
      </trkpt>
      <trkpt lat="41.046648" lon="-6.758189">
        <ele>609.9</ele>
        <time>1970-01-01T02:25:07.000Z</time>
      </trkpt>
      <trkpt lat="41.046594" lon="-6.758249">
        <ele>609.4</ele>
        <time>1970-01-01T02:25:08.000Z</time>
      </trkpt>
      <trkpt lat="41.04654" lon="-6.758312">
        <ele>609</ele>
        <time>1970-01-01T02:25:09.000Z</time>
      </trkpt>
      <trkpt lat="41.046487" lon="-6.758379">
        <ele>608.6</ele>
        <time>1970-01-01T02:25:10.000Z</time>
      </trkpt>
      <trkpt lat="41.046437" lon="-6.758447">
        <ele>608.2</ele>
        <time>1970-01-01T02:25:11.000Z</time>
      </trkpt>
      <trkpt lat="41.04639" lon="-6.758519">
        <ele>607.8</ele>
        <time>1970-01-01T02:25:12.000Z</time>
      </trkpt>
      <trkpt lat="41.046346" lon="-6.758592">
        <ele>607.4</ele>
        <time>1970-01-01T02:25:13.000Z</time>
      </trkpt>
      <trkpt lat="41.046304" lon="-6.758666">
        <ele>607.1</ele>
        <time>1970-01-01T02:25:14.000Z</time>
      </trkpt>
      <trkpt lat="41.046262" lon="-6.758741">
        <ele>606.7</ele>
        <time>1970-01-01T02:25:15.000Z</time>
      </trkpt>
      <trkpt lat="41.046223" lon="-6.758819">
        <ele>606.4</ele>
        <time>1970-01-01T02:25:16.000Z</time>
      </trkpt>
      <trkpt lat="41.046186" lon="-6.7589">
        <ele>606.1</ele>
        <time>1970-01-01T02:25:17.000Z</time>
      </trkpt>
      <trkpt lat="41.04615" lon="-6.758983">
        <ele>605.7</ele>
        <time>1970-01-01T02:25:18.000Z</time>
      </trkpt>
      <trkpt lat="41.046117" lon="-6.759069">
        <ele>605.4</ele>
        <time>1970-01-01T02:25:19.000Z</time>
      </trkpt>
      <trkpt lat="41.046089" lon="-6.759158">
        <ele>605</ele>
        <time>1970-01-01T02:25:20.000Z</time>
      </trkpt>
      <trkpt lat="41.046065" lon="-6.75925">
        <ele>604.6</ele>
        <time>1970-01-01T02:25:21.000Z</time>
      </trkpt>
      <trkpt lat="41.046045" lon="-6.759346">
        <ele>604.1</ele>
        <time>1970-01-01T02:25:22.000Z</time>
      </trkpt>
      <trkpt lat="41.046033" lon="-6.759445">
        <ele>603.5</ele>
        <time>1970-01-01T02:25:23.000Z</time>
      </trkpt>
      <trkpt lat="41.046022" lon="-6.759549">
        <ele>603</ele>
        <time>1970-01-01T02:25:24.000Z</time>
      </trkpt>
      <trkpt lat="41.046014" lon="-6.759656">
        <ele>602.4</ele>
        <time>1970-01-01T02:25:25.000Z</time>
      </trkpt>
      <trkpt lat="41.046005" lon="-6.759766">
        <ele>601.8</ele>
        <time>1970-01-01T02:25:26.000Z</time>
      </trkpt>
      <trkpt lat="41.046002" lon="-6.759881">
        <ele>601.1</ele>
        <time>1970-01-01T02:25:27.000Z</time>
      </trkpt>
      <trkpt lat="41.046006" lon="-6.76">
        <ele>600.5</ele>
        <time>1970-01-01T02:25:28.000Z</time>
      </trkpt>
      <trkpt lat="41.046015" lon="-6.760121">
        <ele>599.8</ele>
        <time>1970-01-01T02:25:29.000Z</time>
      </trkpt>
      <trkpt lat="41.046025" lon="-6.760243">
        <ele>599.2</ele>
        <time>1970-01-01T02:25:30.000Z</time>
      </trkpt>
      <trkpt lat="41.046035" lon="-6.760367">
        <ele>598.6</ele>
        <time>1970-01-01T02:25:31.000Z</time>
      </trkpt>
      <trkpt lat="41.046048" lon="-6.760494">
        <ele>597.9</ele>
        <time>1970-01-01T02:25:32.000Z</time>
      </trkpt>
      <trkpt lat="41.046061" lon="-6.760627">
        <ele>597</ele>
        <time>1970-01-01T02:25:33.000Z</time>
      </trkpt>
      <trkpt lat="41.046076" lon="-6.760763">
        <ele>596.1</ele>
        <time>1970-01-01T02:25:34.000Z</time>
      </trkpt>
      <trkpt lat="41.04609" lon="-6.760901">
        <ele>595.2</ele>
        <time>1970-01-01T02:25:35.000Z</time>
      </trkpt>
      <trkpt lat="41.046107" lon="-6.761036">
        <ele>594.4</ele>
        <time>1970-01-01T02:25:36.000Z</time>
      </trkpt>
      <trkpt lat="41.046129" lon="-6.761168">
        <ele>593.6</ele>
        <time>1970-01-01T02:25:37.000Z</time>
      </trkpt>
      <trkpt lat="41.046156" lon="-6.761298">
        <ele>592.7</ele>
        <time>1970-01-01T02:25:38.000Z</time>
      </trkpt>
      <trkpt lat="41.046185" lon="-6.761425">
        <ele>591.9</ele>
        <time>1970-01-01T02:25:39.000Z</time>
      </trkpt>
      <trkpt lat="41.046215" lon="-6.761551">
        <ele>591.1</ele>
        <time>1970-01-01T02:25:40.000Z</time>
      </trkpt>
      <trkpt lat="41.046247" lon="-6.761674">
        <ele>590.4</ele>
        <time>1970-01-01T02:25:41.000Z</time>
      </trkpt>
      <trkpt lat="41.046278" lon="-6.761796">
        <ele>589.6</ele>
        <time>1970-01-01T02:25:42.000Z</time>
      </trkpt>
      <trkpt lat="41.046309" lon="-6.761918">
        <ele>588.8</ele>
        <time>1970-01-01T02:25:43.000Z</time>
      </trkpt>
      <trkpt lat="41.046339" lon="-6.762042">
        <ele>588</ele>
        <time>1970-01-01T02:25:44.000Z</time>
      </trkpt>
      <trkpt lat="41.046366" lon="-6.762168">
        <ele>587.2</ele>
        <time>1970-01-01T02:25:45.000Z</time>
      </trkpt>
      <trkpt lat="41.046392" lon="-6.762298">
        <ele>586.4</ele>
        <time>1970-01-01T02:25:46.000Z</time>
      </trkpt>
      <trkpt lat="41.046414" lon="-6.762431">
        <ele>585.6</ele>
        <time>1970-01-01T02:25:47.000Z</time>
      </trkpt>
      <trkpt lat="41.046435" lon="-6.762566">
        <ele>584.7</ele>
        <time>1970-01-01T02:25:48.000Z</time>
      </trkpt>
      <trkpt lat="41.046456" lon="-6.762702">
        <ele>583.9</ele>
        <time>1970-01-01T02:25:49.000Z</time>
      </trkpt>
      <trkpt lat="41.046482" lon="-6.762839">
        <ele>583.1</ele>
        <time>1970-01-01T02:25:50.000Z</time>
      </trkpt>
      <trkpt lat="41.04651" lon="-6.76298">
        <ele>582.2</ele>
        <time>1970-01-01T02:25:51.000Z</time>
      </trkpt>
      <trkpt lat="41.046541" lon="-6.763124">
        <ele>581.3</ele>
        <time>1970-01-01T02:25:52.000Z</time>
      </trkpt>
      <trkpt lat="41.046575" lon="-6.76327">
        <ele>580.3</ele>
        <time>1970-01-01T02:25:53.000Z</time>
      </trkpt>
      <trkpt lat="41.046612" lon="-6.763417">
        <ele>579.4</ele>
        <time>1970-01-01T02:25:54.000Z</time>
      </trkpt>
      <trkpt lat="41.046652" lon="-6.763567">
        <ele>578.4</ele>
        <time>1970-01-01T02:25:55.000Z</time>
      </trkpt>
      <trkpt lat="41.046694" lon="-6.76372">
        <ele>577.5</ele>
        <time>1970-01-01T02:25:56.000Z</time>
      </trkpt>
      <trkpt lat="41.046736" lon="-6.763873">
        <ele>576.5</ele>
        <time>1970-01-01T02:25:57.000Z</time>
      </trkpt>
      <trkpt lat="41.046776" lon="-6.764023">
        <ele>575</ele>
        <time>1970-01-01T02:25:58.000Z</time>
      </trkpt>
      <trkpt lat="41.046812" lon="-6.764167">
        <ele>573.1</ele>
        <time>1970-01-01T02:25:59.000Z</time>
      </trkpt>
      <trkpt lat="41.046842" lon="-6.764307">
        <ele>571.3</ele>
        <time>1970-01-01T02:26:00.000Z</time>
      </trkpt>
      <trkpt lat="41.046865" lon="-6.764443">
        <ele>569.6</ele>
        <time>1970-01-01T02:26:01.000Z</time>
      </trkpt>
      <trkpt lat="41.046878" lon="-6.764576">
        <ele>567.9</ele>
        <time>1970-01-01T02:26:02.000Z</time>
      </trkpt>
      <trkpt lat="41.046883" lon="-6.764706">
        <ele>566.3</ele>
        <time>1970-01-01T02:26:03.000Z</time>
      </trkpt>
      <trkpt lat="41.046879" lon="-6.764832">
        <ele>564.8</ele>
        <time>1970-01-01T02:26:04.000Z</time>
      </trkpt>
      <trkpt lat="41.046876" lon="-6.764958">
        <ele>563.2</ele>
        <time>1970-01-01T02:26:05.000Z</time>
      </trkpt>
      <trkpt lat="41.046882" lon="-6.76508">
        <ele>561.7</ele>
        <time>1970-01-01T02:26:06.000Z</time>
      </trkpt>
      <trkpt lat="41.046902" lon="-6.765198">
        <ele>560.2</ele>
        <time>1970-01-01T02:26:07.000Z</time>
      </trkpt>
      <trkpt lat="41.046934" lon="-6.765309">
        <ele>558.7</ele>
        <time>1970-01-01T02:26:08.000Z</time>
      </trkpt>
      <trkpt lat="41.046975" lon="-6.765416">
        <ele>557.2</ele>
        <time>1970-01-01T02:26:09.000Z</time>
      </trkpt>
      <trkpt lat="41.047017" lon="-6.765522">
        <ele>555.7</ele>
        <time>1970-01-01T02:26:10.000Z</time>
      </trkpt>
      <trkpt lat="41.047058" lon="-6.765626">
        <ele>554.3</ele>
        <time>1970-01-01T02:26:11.000Z</time>
      </trkpt>
      <trkpt lat="41.047095" lon="-6.765726">
        <ele>552.9</ele>
        <time>1970-01-01T02:26:12.000Z</time>
      </trkpt>
      <trkpt lat="41.047128" lon="-6.76582">
        <ele>551.6</ele>
        <time>1970-01-01T02:26:13.000Z</time>
      </trkpt>
      <trkpt lat="41.04716" lon="-6.765905">
        <ele>550.5</ele>
        <time>1970-01-01T02:26:14.000Z</time>
      </trkpt>
      <trkpt lat="41.047195" lon="-6.765978">
        <ele>549.4</ele>
        <time>1970-01-01T02:26:15.000Z</time>
      </trkpt>
      <trkpt lat="41.047234" lon="-6.766041">
        <ele>548.4</ele>
        <time>1970-01-01T02:26:16.000Z</time>
      </trkpt>
      <trkpt lat="41.047283" lon="-6.766095">
        <ele>547.3</ele>
        <time>1970-01-01T02:26:17.000Z</time>
      </trkpt>
      <trkpt lat="41.047341" lon="-6.766142">
        <ele>546.2</ele>
        <time>1970-01-01T02:26:18.000Z</time>
      </trkpt>
      <trkpt lat="41.047408" lon="-6.766183">
        <ele>545</ele>
        <time>1970-01-01T02:26:19.000Z</time>
      </trkpt>
      <trkpt lat="41.047477" lon="-6.766221">
        <ele>543.8</ele>
        <time>1970-01-01T02:26:20.000Z</time>
      </trkpt>
      <trkpt lat="41.047547" lon="-6.766257">
        <ele>542.5</ele>
        <time>1970-01-01T02:26:21.000Z</time>
      </trkpt>
      <trkpt lat="41.04762" lon="-6.766292">
        <ele>541.3</ele>
        <time>1970-01-01T02:26:22.000Z</time>
      </trkpt>
      <trkpt lat="41.047697" lon="-6.766327">
        <ele>539.9</ele>
        <time>1970-01-01T02:26:23.000Z</time>
      </trkpt>
      <trkpt lat="41.047776" lon="-6.766361">
        <ele>538.6</ele>
        <time>1970-01-01T02:26:24.000Z</time>
      </trkpt>
      <trkpt lat="41.047857" lon="-6.766396">
        <ele>537.2</ele>
        <time>1970-01-01T02:26:25.000Z</time>
      </trkpt>
      <trkpt lat="41.04794" lon="-6.766433">
        <ele>535.7</ele>
        <time>1970-01-01T02:26:26.000Z</time>
      </trkpt>
      <trkpt lat="41.048024" lon="-6.76647">
        <ele>534.3</ele>
        <time>1970-01-01T02:26:27.000Z</time>
      </trkpt>
      <trkpt lat="41.048107" lon="-6.766506">
        <ele>532.8</ele>
        <time>1970-01-01T02:26:28.000Z</time>
      </trkpt>
      <trkpt lat="41.048189" lon="-6.76654">
        <ele>531.4</ele>
        <time>1970-01-01T02:26:29.000Z</time>
      </trkpt>
      <trkpt lat="41.048273" lon="-6.766573">
        <ele>530</ele>
        <time>1970-01-01T02:26:30.000Z</time>
      </trkpt>
      <trkpt lat="41.048361" lon="-6.766603">
        <ele>528.5</ele>
        <time>1970-01-01T02:26:31.000Z</time>
      </trkpt>
      <trkpt lat="41.048453" lon="-6.76663">
        <ele>526.9</ele>
        <time>1970-01-01T02:26:32.000Z</time>
      </trkpt>
      <trkpt lat="41.04855" lon="-6.766654">
        <ele>525.3</ele>
        <time>1970-01-01T02:26:33.000Z</time>
      </trkpt>
      <trkpt lat="41.048652" lon="-6.766675">
        <ele>523.6</ele>
        <time>1970-01-01T02:26:34.000Z</time>
      </trkpt>
      <trkpt lat="41.048758" lon="-6.766693">
        <ele>521.9</ele>
        <time>1970-01-01T02:26:35.000Z</time>
      </trkpt>
      <trkpt lat="41.048865" lon="-6.766711">
        <ele>520.1</ele>
        <time>1970-01-01T02:26:36.000Z</time>
      </trkpt>
      <trkpt lat="41.048973" lon="-6.766729">
        <ele>518.3</ele>
        <time>1970-01-01T02:26:37.000Z</time>
      </trkpt>
      <trkpt lat="41.049082" lon="-6.766746">
        <ele>516.5</ele>
        <time>1970-01-01T02:26:38.000Z</time>
      </trkpt>
      <trkpt lat="41.049192" lon="-6.766759">
        <ele>514.7</ele>
        <time>1970-01-01T02:26:39.000Z</time>
      </trkpt>
      <trkpt lat="41.049304" lon="-6.766766">
        <ele>512.8</ele>
        <time>1970-01-01T02:26:40.000Z</time>
      </trkpt>
      <trkpt lat="41.049415" lon="-6.766769">
        <ele>511</ele>
        <time>1970-01-01T02:26:41.000Z</time>
      </trkpt>
      <trkpt lat="41.049523" lon="-6.766768">
        <ele>509.2</ele>
        <time>1970-01-01T02:26:42.000Z</time>
      </trkpt>
      <trkpt lat="41.049627" lon="-6.766764">
        <ele>507.5</ele>
        <time>1970-01-01T02:26:43.000Z</time>
      </trkpt>
      <trkpt lat="41.049727" lon="-6.766756">
        <ele>505.9</ele>
        <time>1970-01-01T02:26:44.000Z</time>
      </trkpt>
      <trkpt lat="41.049823" lon="-6.766746">
        <ele>504.3</ele>
        <time>1970-01-01T02:26:45.000Z</time>
      </trkpt>
      <trkpt lat="41.049917" lon="-6.766737">
        <ele>502.8</ele>
        <time>1970-01-01T02:26:46.000Z</time>
      </trkpt>
      <trkpt lat="41.050011" lon="-6.766735">
        <ele>501.2</ele>
        <time>1970-01-01T02:26:47.000Z</time>
      </trkpt>
      <trkpt lat="41.050106" lon="-6.766741">
        <ele>499.7</ele>
        <time>1970-01-01T02:26:48.000Z</time>
      </trkpt>
      <trkpt lat="41.050204" lon="-6.766751">
        <ele>498</ele>
        <time>1970-01-01T02:26:49.000Z</time>
      </trkpt>
      <trkpt lat="41.050305" lon="-6.766763">
        <ele>496.4</ele>
        <time>1970-01-01T02:26:50.000Z</time>
      </trkpt>
      <trkpt lat="41.050411" lon="-6.766775">
        <ele>494.6</ele>
        <time>1970-01-01T02:26:51.000Z</time>
      </trkpt>
      <trkpt lat="41.050521" lon="-6.766789">
        <ele>492.8</ele>
        <time>1970-01-01T02:26:52.000Z</time>
      </trkpt>
      <trkpt lat="41.050635" lon="-6.766803">
        <ele>490.9</ele>
        <time>1970-01-01T02:26:53.000Z</time>
      </trkpt>
      <trkpt lat="41.050753" lon="-6.766819">
        <ele>489</ele>
        <time>1970-01-01T02:26:54.000Z</time>
      </trkpt>
      <trkpt lat="41.050873" lon="-6.766839">
        <ele>487</ele>
        <time>1970-01-01T02:26:55.000Z</time>
      </trkpt>
      <trkpt lat="41.050997" lon="-6.766863">
        <ele>484.9</ele>
        <time>1970-01-01T02:26:56.000Z</time>
      </trkpt>
      <trkpt lat="41.051125" lon="-6.766895">
        <ele>482.8</ele>
        <time>1970-01-01T02:26:57.000Z</time>
      </trkpt>
      <trkpt lat="41.051259" lon="-6.766935">
        <ele>482.8</ele>
        <time>1970-01-01T02:26:58.000Z</time>
      </trkpt>
      <trkpt lat="41.051394" lon="-6.766981">
        <ele>483.4</ele>
        <time>1970-01-01T02:26:59.000Z</time>
      </trkpt>
      <trkpt lat="41.05153" lon="-6.767028">
        <ele>484</ele>
        <time>1970-01-01T02:27:00.000Z</time>
      </trkpt>
      <trkpt lat="41.051667" lon="-6.767077">
        <ele>484.6</ele>
        <time>1970-01-01T02:27:01.000Z</time>
      </trkpt>
      <trkpt lat="41.051803" lon="-6.767126">
        <ele>485.2</ele>
        <time>1970-01-01T02:27:02.000Z</time>
      </trkpt>
      <trkpt lat="41.051938" lon="-6.767174">
        <ele>485.8</ele>
        <time>1970-01-01T02:27:03.000Z</time>
      </trkpt>
      <trkpt lat="41.052067" lon="-6.767219">
        <ele>486.4</ele>
        <time>1970-01-01T02:27:04.000Z</time>
      </trkpt>
      <trkpt lat="41.052194" lon="-6.767262">
        <ele>487</ele>
        <time>1970-01-01T02:27:05.000Z</time>
      </trkpt>
      <trkpt lat="41.052315" lon="-6.767303">
        <ele>487.5</ele>
        <time>1970-01-01T02:27:06.000Z</time>
      </trkpt>
      <trkpt lat="41.052434" lon="-6.767342">
        <ele>488.1</ele>
        <time>1970-01-01T02:27:07.000Z</time>
      </trkpt>
      <trkpt lat="41.052546" lon="-6.767378">
        <ele>488.5</ele>
        <time>1970-01-01T02:27:08.000Z</time>
      </trkpt>
      <trkpt lat="41.052651" lon="-6.767413">
        <ele>489</ele>
        <time>1970-01-01T02:27:09.000Z</time>
      </trkpt>
      <trkpt lat="41.052747" lon="-6.767446">
        <ele>489.4</ele>
        <time>1970-01-01T02:27:10.000Z</time>
      </trkpt>
      <trkpt lat="41.052834" lon="-6.767478">
        <ele>489.8</ele>
        <time>1970-01-01T02:27:11.000Z</time>
      </trkpt>
      <trkpt lat="41.052917" lon="-6.767507">
        <ele>490.2</ele>
        <time>1970-01-01T02:27:12.000Z</time>
      </trkpt>
      <trkpt lat="41.052996" lon="-6.767533">
        <ele>490.6</ele>
        <time>1970-01-01T02:27:13.000Z</time>
      </trkpt>
      <trkpt lat="41.053075" lon="-6.767555">
        <ele>490.9</ele>
        <time>1970-01-01T02:27:14.000Z</time>
      </trkpt>
      <trkpt lat="41.05315" lon="-6.767572">
        <ele>491.2</ele>
        <time>1970-01-01T02:27:15.000Z</time>
      </trkpt>
      <trkpt lat="41.053225" lon="-6.767588">
        <ele>491.6</ele>
        <time>1970-01-01T02:27:16.000Z</time>
      </trkpt>
      <trkpt lat="41.053299" lon="-6.7676">
        <ele>491.9</ele>
        <time>1970-01-01T02:27:17.000Z</time>
      </trkpt>
      <trkpt lat="41.053374" lon="-6.76761">
        <ele>492.2</ele>
        <time>1970-01-01T02:27:18.000Z</time>
      </trkpt>
      <trkpt lat="41.05345" lon="-6.767616">
        <ele>492.5</ele>
        <time>1970-01-01T02:27:19.000Z</time>
      </trkpt>
      <trkpt lat="41.053526" lon="-6.767621">
        <ele>492.9</ele>
        <time>1970-01-01T02:27:20.000Z</time>
      </trkpt>
      <trkpt lat="41.053601" lon="-6.767623">
        <ele>493.2</ele>
        <time>1970-01-01T02:27:21.000Z</time>
      </trkpt>
      <trkpt lat="41.053676" lon="-6.767624">
        <ele>493.5</ele>
        <time>1970-01-01T02:27:22.000Z</time>
      </trkpt>
      <trkpt lat="41.053751" lon="-6.767623">
        <ele>493.8</ele>
        <time>1970-01-01T02:27:23.000Z</time>
      </trkpt>
      <trkpt lat="41.053826" lon="-6.767621">
        <ele>494.2</ele>
        <time>1970-01-01T02:27:24.000Z</time>
      </trkpt>
      <trkpt lat="41.053902" lon="-6.767618">
        <ele>494.5</ele>
        <time>1970-01-01T02:27:25.000Z</time>
      </trkpt>
      <trkpt lat="41.053977" lon="-6.767614">
        <ele>494.8</ele>
        <time>1970-01-01T02:27:26.000Z</time>
      </trkpt>
      <trkpt lat="41.054054" lon="-6.767608">
        <ele>495.1</ele>
        <time>1970-01-01T02:27:27.000Z</time>
      </trkpt>
      <trkpt lat="41.054133" lon="-6.767599">
        <ele>495.5</ele>
        <time>1970-01-01T02:27:28.000Z</time>
      </trkpt>
      <trkpt lat="41.054214" lon="-6.767587">
        <ele>495.8</ele>
        <time>1970-01-01T02:27:29.000Z</time>
      </trkpt>
      <trkpt lat="41.054295" lon="-6.767575">
        <ele>496.2</ele>
        <time>1970-01-01T02:27:30.000Z</time>
      </trkpt>
      <trkpt lat="41.054377" lon="-6.767564">
        <ele>496.5</ele>
        <time>1970-01-01T02:27:31.000Z</time>
      </trkpt>
      <trkpt lat="41.05446" lon="-6.767554">
        <ele>496.9</ele>
        <time>1970-01-01T02:27:32.000Z</time>
      </trkpt>
      <trkpt lat="41.054543" lon="-6.767545">
        <ele>497.3</ele>
        <time>1970-01-01T02:27:33.000Z</time>
      </trkpt>
      <trkpt lat="41.054625" lon="-6.76754">
        <ele>497.6</ele>
        <time>1970-01-01T02:27:34.000Z</time>
      </trkpt>
      <trkpt lat="41.054706" lon="-6.767539">
        <ele>498</ele>
        <time>1970-01-01T02:27:35.000Z</time>
      </trkpt>
      <trkpt lat="41.054784" lon="-6.76754">
        <ele>498.3</ele>
        <time>1970-01-01T02:27:36.000Z</time>
      </trkpt>
      <trkpt lat="41.054858" lon="-6.767538">
        <ele>498.6</ele>
        <time>1970-01-01T02:27:37.000Z</time>
      </trkpt>
      <trkpt lat="41.054928" lon="-6.767535">
        <ele>498.9</ele>
        <time>1970-01-01T02:27:38.000Z</time>
      </trkpt>
      <trkpt lat="41.054994" lon="-6.76753">
        <ele>499.2</ele>
        <time>1970-01-01T02:27:39.000Z</time>
      </trkpt>
      <trkpt lat="41.055055" lon="-6.767526">
        <ele>499.5</ele>
        <time>1970-01-01T02:27:40.000Z</time>
      </trkpt>
      <trkpt lat="41.055112" lon="-6.767522">
        <ele>499.7</ele>
        <time>1970-01-01T02:27:41.000Z</time>
      </trkpt>
      <trkpt lat="41.055166" lon="-6.767518">
        <ele>499.9</ele>
        <time>1970-01-01T02:27:42.000Z</time>
      </trkpt>
      <trkpt lat="41.055217" lon="-6.767514">
        <ele>500.2</ele>
        <time>1970-01-01T02:27:43.000Z</time>
      </trkpt>
      <trkpt lat="41.055264" lon="-6.767509">
        <ele>500.4</ele>
        <time>1970-01-01T02:27:44.000Z</time>
      </trkpt>
      <trkpt lat="41.055308" lon="-6.767505">
        <ele>500.6</ele>
        <time>1970-01-01T02:27:45.000Z</time>
      </trkpt>
      <trkpt lat="41.055346" lon="-6.767503">
        <ele>500.7</ele>
        <time>1970-01-01T02:27:46.000Z</time>
      </trkpt>
      <trkpt lat="41.055382" lon="-6.767501">
        <ele>500.9</ele>
        <time>1970-01-01T02:27:47.000Z</time>
      </trkpt>
      <trkpt lat="41.055416" lon="-6.7675">
        <ele>501</ele>
        <time>1970-01-01T02:27:48.000Z</time>
      </trkpt>
      <trkpt lat="41.055449" lon="-6.767498">
        <ele>501.2</ele>
        <time>1970-01-01T02:27:49.000Z</time>
      </trkpt>
      <trkpt lat="41.055481" lon="-6.767495">
        <ele>501.3</ele>
        <time>1970-01-01T02:27:50.000Z</time>
      </trkpt>
      <trkpt lat="41.055512" lon="-6.767492">
        <ele>501.4</ele>
        <time>1970-01-01T02:27:51.000Z</time>
      </trkpt>
      <trkpt lat="41.055542" lon="-6.767488">
        <ele>501.6</ele>
        <time>1970-01-01T02:27:52.000Z</time>
      </trkpt>
      <trkpt lat="41.055572" lon="-6.767484">
        <ele>501.7</ele>
        <time>1970-01-01T02:27:53.000Z</time>
      </trkpt>
      <trkpt lat="41.055601" lon="-6.767481">
        <ele>501.8</ele>
        <time>1970-01-01T02:27:54.000Z</time>
      </trkpt>
      <trkpt lat="41.055629" lon="-6.767477">
        <ele>501.9</ele>
        <time>1970-01-01T02:27:55.000Z</time>
      </trkpt>
      <trkpt lat="41.055657" lon="-6.767473">
        <ele>502.1</ele>
        <time>1970-01-01T02:27:56.000Z</time>
      </trkpt>
      <trkpt lat="41.055684" lon="-6.767468">
        <ele>502.2</ele>
        <time>1970-01-01T02:27:57.000Z</time>
      </trkpt>
      <trkpt lat="41.05571" lon="-6.767462">
        <ele>502.3</ele>
        <time>1970-01-01T02:27:58.000Z</time>
      </trkpt>
      <trkpt lat="41.055734" lon="-6.767456">
        <ele>502.4</ele>
        <time>1970-01-01T02:27:59.000Z</time>
      </trkpt>
      <trkpt lat="41.055757" lon="-6.76745">
        <ele>502.5</ele>
        <time>1970-01-01T02:28:00.000Z</time>
      </trkpt>
      <trkpt lat="41.055779" lon="-6.767445">
        <ele>502.6</ele>
        <time>1970-01-01T02:28:01.000Z</time>
      </trkpt>
      <trkpt lat="41.055802" lon="-6.767439">
        <ele>502.7</ele>
        <time>1970-01-01T02:28:02.000Z</time>
      </trkpt>
      <trkpt lat="41.055825" lon="-6.767433">
        <ele>502.8</ele>
        <time>1970-01-01T02:28:03.000Z</time>
      </trkpt>
      <trkpt lat="41.055848" lon="-6.767427">
        <ele>502.9</ele>
        <time>1970-01-01T02:28:04.000Z</time>
      </trkpt>
      <trkpt lat="41.055871" lon="-6.767421">
        <ele>503</ele>
        <time>1970-01-01T02:28:05.000Z</time>
      </trkpt>
      <trkpt lat="41.055894" lon="-6.767414">
        <ele>503.1</ele>
        <time>1970-01-01T02:28:06.000Z</time>
      </trkpt>
      <trkpt lat="41.055917" lon="-6.767405">
        <ele>503.2</ele>
        <time>1970-01-01T02:28:07.000Z</time>
      </trkpt>
      <trkpt lat="41.055939" lon="-6.767396">
        <ele>503.3</ele>
        <time>1970-01-01T02:28:08.000Z</time>
      </trkpt>
      <trkpt lat="41.055961" lon="-6.767387">
        <ele>503.4</ele>
        <time>1970-01-01T02:28:09.000Z</time>
      </trkpt>
      <trkpt lat="41.055983" lon="-6.767377">
        <ele>503.5</ele>
        <time>1970-01-01T02:28:10.000Z</time>
      </trkpt>
      <trkpt lat="41.056006" lon="-6.767367">
        <ele>503.6</ele>
        <time>1970-01-01T02:28:11.000Z</time>
      </trkpt>
      <trkpt lat="41.056028" lon="-6.767356">
        <ele>503.7</ele>
        <time>1970-01-01T02:28:12.000Z</time>
      </trkpt>
      <trkpt lat="41.05605" lon="-6.767345">
        <ele>503.8</ele>
        <time>1970-01-01T02:28:13.000Z</time>
      </trkpt>
      <trkpt lat="41.056071" lon="-6.767333">
        <ele>503.9</ele>
        <time>1970-01-01T02:28:14.000Z</time>
      </trkpt>
      <trkpt lat="41.056092" lon="-6.767321">
        <ele>504</ele>
        <time>1970-01-01T02:28:15.000Z</time>
      </trkpt>
      <trkpt lat="41.056112" lon="-6.767308">
        <ele>504.1</ele>
        <time>1970-01-01T02:28:16.000Z</time>
      </trkpt>
      <trkpt lat="41.056131" lon="-6.767293">
        <ele>504.2</ele>
        <time>1970-01-01T02:28:17.000Z</time>
      </trkpt>
      <trkpt lat="41.05615" lon="-6.767276">
        <ele>504.3</ele>
        <time>1970-01-01T02:28:18.000Z</time>
      </trkpt>
      <trkpt lat="41.056168" lon="-6.767257">
        <ele>504.4</ele>
        <time>1970-01-01T02:28:19.000Z</time>
      </trkpt>
      <trkpt lat="41.056184" lon="-6.767237">
        <ele>504.5</ele>
        <time>1970-01-01T02:28:20.000Z</time>
      </trkpt>
      <trkpt lat="41.0562" lon="-6.767216">
        <ele>504.6</ele>
        <time>1970-01-01T02:28:21.000Z</time>
      </trkpt>
      <trkpt lat="41.056217" lon="-6.767195">
        <ele>504.7</ele>
        <time>1970-01-01T02:28:22.000Z</time>
      </trkpt>
      <trkpt lat="41.056234" lon="-6.767174">
        <ele>504.8</ele>
        <time>1970-01-01T02:28:23.000Z</time>
      </trkpt>
      <trkpt lat="41.056251" lon="-6.767153">
        <ele>504.9</ele>
        <time>1970-01-01T02:28:24.000Z</time>
      </trkpt>
      <trkpt lat="41.056269" lon="-6.767131">
        <ele>505</ele>
        <time>1970-01-01T02:28:25.000Z</time>
      </trkpt>
      <trkpt lat="41.056286" lon="-6.767107">
        <ele>505.1</ele>
        <time>1970-01-01T02:28:26.000Z</time>
      </trkpt>
      <trkpt lat="41.056303" lon="-6.767081">
        <ele>505.2</ele>
        <time>1970-01-01T02:28:27.000Z</time>
      </trkpt>
      <trkpt lat="41.05632" lon="-6.767053">
        <ele>505.3</ele>
        <time>1970-01-01T02:28:28.000Z</time>
      </trkpt>
      <trkpt lat="41.056336" lon="-6.767026">
        <ele>505.4</ele>
        <time>1970-01-01T02:28:29.000Z</time>
      </trkpt>
      <trkpt lat="41.056354" lon="-6.766999">
        <ele>505.6</ele>
        <time>1970-01-01T02:28:30.000Z</time>
      </trkpt>
      <trkpt lat="41.056371" lon="-6.76697">
        <ele>505.7</ele>
        <time>1970-01-01T02:28:31.000Z</time>
      </trkpt>
      <trkpt lat="41.056389" lon="-6.766942">
        <ele>505.8</ele>
        <time>1970-01-01T02:28:32.000Z</time>
      </trkpt>
      <trkpt lat="41.056407" lon="-6.766913">
        <ele>505.9</ele>
        <time>1970-01-01T02:28:33.000Z</time>
      </trkpt>
      <trkpt lat="41.056424" lon="-6.766886">
        <ele>506</ele>
        <time>1970-01-01T02:28:34.000Z</time>
      </trkpt>
      <trkpt lat="41.056441" lon="-6.766859">
        <ele>506.1</ele>
        <time>1970-01-01T02:28:35.000Z</time>
      </trkpt>
      <trkpt lat="41.056459" lon="-6.766833">
        <ele>506.3</ele>
        <time>1970-01-01T02:28:36.000Z</time>
      </trkpt>
      <trkpt lat="41.056478" lon="-6.766805">
        <ele>506.4</ele>
        <time>1970-01-01T02:28:37.000Z</time>
      </trkpt>
      <trkpt lat="41.056496" lon="-6.766777">
        <ele>506.5</ele>
        <time>1970-01-01T02:28:38.000Z</time>
      </trkpt>
      <trkpt lat="41.056513" lon="-6.766749">
        <ele>506.6</ele>
        <time>1970-01-01T02:28:39.000Z</time>
      </trkpt>
      <trkpt lat="41.056531" lon="-6.76672">
        <ele>506.7</ele>
        <time>1970-01-01T02:28:40.000Z</time>
      </trkpt>
      <trkpt lat="41.056549" lon="-6.766691">
        <ele>506.9</ele>
        <time>1970-01-01T02:28:41.000Z</time>
      </trkpt>
      <trkpt lat="41.056567" lon="-6.766661">
        <ele>507</ele>
        <time>1970-01-01T02:28:42.000Z</time>
      </trkpt>
      <trkpt lat="41.056584" lon="-6.76663">
        <ele>507.1</ele>
        <time>1970-01-01T02:28:43.000Z</time>
      </trkpt>
      <trkpt lat="41.056601" lon="-6.766599">
        <ele>507.2</ele>
        <time>1970-01-01T02:28:44.000Z</time>
      </trkpt>
      <trkpt lat="41.056617" lon="-6.766569">
        <ele>507.4</ele>
        <time>1970-01-01T02:28:45.000Z</time>
      </trkpt>
      <trkpt lat="41.056632" lon="-6.766539">
        <ele>507.5</ele>
        <time>1970-01-01T02:28:46.000Z</time>
      </trkpt>
      <trkpt lat="41.056646" lon="-6.766509">
        <ele>507.6</ele>
        <time>1970-01-01T02:28:47.000Z</time>
      </trkpt>
      <trkpt lat="41.05666" lon="-6.76648">
        <ele>507.7</ele>
        <time>1970-01-01T02:28:48.000Z</time>
      </trkpt>
      <trkpt lat="41.056672" lon="-6.766451">
        <ele>507.8</ele>
        <time>1970-01-01T02:28:49.000Z</time>
      </trkpt>
      <trkpt lat="41.056684" lon="-6.766421">
        <ele>507.9</ele>
        <time>1970-01-01T02:28:50.000Z</time>
      </trkpt>
      <trkpt lat="41.056696" lon="-6.766392">
        <ele>508</ele>
        <time>1970-01-01T02:28:51.000Z</time>
      </trkpt>
      <trkpt lat="41.056709" lon="-6.766364">
        <ele>508.1</ele>
        <time>1970-01-01T02:28:52.000Z</time>
      </trkpt>
      <trkpt lat="41.056723" lon="-6.766338">
        <ele>508.2</ele>
        <time>1970-01-01T02:28:53.000Z</time>
      </trkpt>
      <trkpt lat="41.056737" lon="-6.766313">
        <ele>508.3</ele>
        <time>1970-01-01T02:28:54.000Z</time>
      </trkpt>
      <trkpt lat="41.056751" lon="-6.766286">
        <ele>508.4</ele>
        <time>1970-01-01T02:28:55.000Z</time>
      </trkpt>
      <trkpt lat="41.056765" lon="-6.766257">
        <ele>508.6</ele>
        <time>1970-01-01T02:28:56.000Z</time>
      </trkpt>
      <trkpt lat="41.056779" lon="-6.766228">
        <ele>508.7</ele>
        <time>1970-01-01T02:28:57.000Z</time>
      </trkpt>
      <trkpt lat="41.056793" lon="-6.766199">
        <ele>508.8</ele>
        <time>1970-01-01T02:28:58.000Z</time>
      </trkpt>
      <trkpt lat="41.056808" lon="-6.766168">
        <ele>508.9</ele>
        <time>1970-01-01T02:28:59.000Z</time>
      </trkpt>
      <trkpt lat="41.056823" lon="-6.766138">
        <ele>509</ele>
        <time>1970-01-01T02:29:00.000Z</time>
      </trkpt>
      <trkpt lat="41.05684" lon="-6.766106">
        <ele>509.1</ele>
        <time>1970-01-01T02:29:01.000Z</time>
      </trkpt>
      <trkpt lat="41.056856" lon="-6.766076">
        <ele>509.3</ele>
        <time>1970-01-01T02:29:02.000Z</time>
      </trkpt>
      <trkpt lat="41.056872" lon="-6.766045">
        <ele>509.4</ele>
        <time>1970-01-01T02:29:03.000Z</time>
      </trkpt>
      <trkpt lat="41.056888" lon="-6.766015">
        <ele>509.5</ele>
        <time>1970-01-01T02:29:04.000Z</time>
      </trkpt>
      <trkpt lat="41.056903" lon="-6.765984">
        <ele>509.6</ele>
        <time>1970-01-01T02:29:05.000Z</time>
      </trkpt>
      <trkpt lat="41.056917" lon="-6.765954">
        <ele>509.7</ele>
        <time>1970-01-01T02:29:06.000Z</time>
      </trkpt>
      <trkpt lat="41.056931" lon="-6.765925">
        <ele>509.9</ele>
        <time>1970-01-01T02:29:07.000Z</time>
      </trkpt>
      <trkpt lat="41.056944" lon="-6.765894">
        <ele>510</ele>
        <time>1970-01-01T02:29:08.000Z</time>
      </trkpt>
      <trkpt lat="41.056956" lon="-6.765864">
        <ele>510.1</ele>
        <time>1970-01-01T02:29:09.000Z</time>
      </trkpt>
      <trkpt lat="41.056969" lon="-6.765832">
        <ele>510.2</ele>
        <time>1970-01-01T02:29:10.000Z</time>
      </trkpt>
      <trkpt lat="41.056981" lon="-6.765802">
        <ele>510.3</ele>
        <time>1970-01-01T02:29:11.000Z</time>
      </trkpt>
      <trkpt lat="41.056993" lon="-6.76577">
        <ele>510.4</ele>
        <time>1970-01-01T02:29:12.000Z</time>
      </trkpt>
      <trkpt lat="41.057004" lon="-6.765739">
        <ele>510.5</ele>
        <time>1970-01-01T02:29:13.000Z</time>
      </trkpt>
      <trkpt lat="41.057014" lon="-6.765706">
        <ele>510.7</ele>
        <time>1970-01-01T02:29:14.000Z</time>
      </trkpt>
      <trkpt lat="41.057023" lon="-6.765674">
        <ele>510.8</ele>
        <time>1970-01-01T02:29:15.000Z</time>
      </trkpt>
      <trkpt lat="41.057032" lon="-6.765644">
        <ele>510.9</ele>
        <time>1970-01-01T02:29:16.000Z</time>
      </trkpt>
      <trkpt lat="41.057039" lon="-6.765613">
        <ele>511</ele>
        <time>1970-01-01T02:29:17.000Z</time>
      </trkpt>
      <trkpt lat="41.057046" lon="-6.765583">
        <ele>511.1</ele>
        <time>1970-01-01T02:29:18.000Z</time>
      </trkpt>
      <trkpt lat="41.057053" lon="-6.765553">
        <ele>511.2</ele>
        <time>1970-01-01T02:29:19.000Z</time>
      </trkpt>
      <trkpt lat="41.057058" lon="-6.765525">
        <ele>511.3</ele>
        <time>1970-01-01T02:29:20.000Z</time>
      </trkpt>
      <trkpt lat="41.057061" lon="-6.765496">
        <ele>511.4</ele>
        <time>1970-01-01T02:29:21.000Z</time>
      </trkpt>
      <trkpt lat="41.057064" lon="-6.765467">
        <ele>511.5</ele>
        <time>1970-01-01T02:29:22.000Z</time>
      </trkpt>
      <trkpt lat="41.057068" lon="-6.765437">
        <ele>511.6</ele>
        <time>1970-01-01T02:29:23.000Z</time>
      </trkpt>
      <trkpt lat="41.057072" lon="-6.765405">
        <ele>511.7</ele>
        <time>1970-01-01T02:29:24.000Z</time>
      </trkpt>
      <trkpt lat="41.057079" lon="-6.765371">
        <ele>511.8</ele>
        <time>1970-01-01T02:29:25.000Z</time>
      </trkpt>
      <trkpt lat="41.057086" lon="-6.765337">
        <ele>511.9</ele>
        <time>1970-01-01T02:29:26.000Z</time>
      </trkpt>
      <trkpt lat="41.057094" lon="-6.765303">
        <ele>512</ele>
        <time>1970-01-01T02:29:27.000Z</time>
      </trkpt>
      <trkpt lat="41.057102" lon="-6.76527">
        <ele>512.1</ele>
        <time>1970-01-01T02:29:28.000Z</time>
      </trkpt>
      <trkpt lat="41.057111" lon="-6.765236">
        <ele>512.2</ele>
        <time>1970-01-01T02:29:29.000Z</time>
      </trkpt>
      <trkpt lat="41.057119" lon="-6.765203">
        <ele>512.4</ele>
        <time>1970-01-01T02:29:30.000Z</time>
      </trkpt>
      <trkpt lat="41.057128" lon="-6.76517">
        <ele>512.5</ele>
        <time>1970-01-01T02:29:31.000Z</time>
      </trkpt>
      <trkpt lat="41.057136" lon="-6.765135">
        <ele>512.6</ele>
        <time>1970-01-01T02:29:32.000Z</time>
      </trkpt>
      <trkpt lat="41.057143" lon="-6.765099">
        <ele>512.7</ele>
        <time>1970-01-01T02:29:33.000Z</time>
      </trkpt>
      <trkpt lat="41.057149" lon="-6.765062">
        <ele>512.8</ele>
        <time>1970-01-01T02:29:34.000Z</time>
      </trkpt>
      <trkpt lat="41.057156" lon="-6.765026">
        <ele>512.9</ele>
        <time>1970-01-01T02:29:35.000Z</time>
      </trkpt>
      <trkpt lat="41.057164" lon="-6.764991">
        <ele>513.1</ele>
        <time>1970-01-01T02:29:36.000Z</time>
      </trkpt>
      <trkpt lat="41.057172" lon="-6.764956">
        <ele>513.2</ele>
        <time>1970-01-01T02:29:37.000Z</time>
      </trkpt>
      <trkpt lat="41.05718" lon="-6.764921">
        <ele>513.3</ele>
        <time>1970-01-01T02:29:38.000Z</time>
      </trkpt>
      <trkpt lat="41.057186" lon="-6.764885">
        <ele>513.4</ele>
        <time>1970-01-01T02:29:39.000Z</time>
      </trkpt>
      <trkpt lat="41.057191" lon="-6.764848">
        <ele>513.5</ele>
        <time>1970-01-01T02:29:40.000Z</time>
      </trkpt>
      <trkpt lat="41.057196" lon="-6.764811">
        <ele>513.7</ele>
        <time>1970-01-01T02:29:41.000Z</time>
      </trkpt>
      <trkpt lat="41.057201" lon="-6.764776">
        <ele>513.8</ele>
        <time>1970-01-01T02:29:42.000Z</time>
      </trkpt>
      <trkpt lat="41.057205" lon="-6.764741">
        <ele>513.9</ele>
        <time>1970-01-01T02:29:43.000Z</time>
      </trkpt>
      <trkpt lat="41.057208" lon="-6.764706">
        <ele>514</ele>
        <time>1970-01-01T02:29:44.000Z</time>
      </trkpt>
      <trkpt lat="41.057212" lon="-6.764672">
        <ele>514.1</ele>
        <time>1970-01-01T02:29:45.000Z</time>
      </trkpt>
      <trkpt lat="41.057216" lon="-6.764638">
        <ele>514.2</ele>
        <time>1970-01-01T02:29:46.000Z</time>
      </trkpt>
      <trkpt lat="41.05722" lon="-6.764603">
        <ele>514.4</ele>
        <time>1970-01-01T02:29:47.000Z</time>
      </trkpt>
      <trkpt lat="41.057224" lon="-6.764568">
        <ele>514.5</ele>
        <time>1970-01-01T02:29:48.000Z</time>
      </trkpt>
      <trkpt lat="41.057227" lon="-6.764533">
        <ele>514.6</ele>
        <time>1970-01-01T02:29:49.000Z</time>
      </trkpt>
      <trkpt lat="41.05723" lon="-6.764498">
        <ele>514.7</ele>
        <time>1970-01-01T02:29:50.000Z</time>
      </trkpt>
      <trkpt lat="41.057232" lon="-6.764464">
        <ele>514.8</ele>
        <time>1970-01-01T02:29:51.000Z</time>
      </trkpt>
      <trkpt lat="41.057233" lon="-6.764432">
        <ele>514.9</ele>
        <time>1970-01-01T02:29:52.000Z</time>
      </trkpt>
      <trkpt lat="41.057234" lon="-6.764401">
        <ele>515</ele>
        <time>1970-01-01T02:29:53.000Z</time>
      </trkpt>
      <trkpt lat="41.057234" lon="-6.764369">
        <ele>515.1</ele>
        <time>1970-01-01T02:29:54.000Z</time>
      </trkpt>
      <trkpt lat="41.057234" lon="-6.764334">
        <ele>515.2</ele>
        <time>1970-01-01T02:29:55.000Z</time>
      </trkpt>
      <trkpt lat="41.057234" lon="-6.764299">
        <ele>515.3</ele>
        <time>1970-01-01T02:29:56.000Z</time>
      </trkpt>
      <trkpt lat="41.057235" lon="-6.764263">
        <ele>515.5</ele>
        <time>1970-01-01T02:29:57.000Z</time>
      </trkpt>
      <trkpt lat="41.057236" lon="-6.764228">
        <ele>515.6</ele>
        <time>1970-01-01T02:29:58.000Z</time>
      </trkpt>
      <trkpt lat="41.057236" lon="-6.764194">
        <ele>515.7</ele>
        <time>1970-01-01T02:29:59.000Z</time>
      </trkpt>
      <trkpt lat="41.057237" lon="-6.764159">
        <ele>515.8</ele>
        <time>1970-01-01T02:30:00.000Z</time>
      </trkpt>
      <trkpt lat="41.057238" lon="-6.764124">
        <ele>515.9</ele>
        <time>1970-01-01T02:30:01.000Z</time>
      </trkpt>
      <trkpt lat="41.057239" lon="-6.764089">
        <ele>516</ele>
        <time>1970-01-01T02:30:02.000Z</time>
      </trkpt>
      <trkpt lat="41.05724" lon="-6.764054">
        <ele>516.1</ele>
        <time>1970-01-01T02:30:03.000Z</time>
      </trkpt>
      <trkpt lat="41.057241" lon="-6.764019">
        <ele>516.3</ele>
        <time>1970-01-01T02:30:04.000Z</time>
      </trkpt>
      <trkpt lat="41.057243" lon="-6.763985">
        <ele>516.4</ele>
        <time>1970-01-01T02:30:05.000Z</time>
      </trkpt>
      <trkpt lat="41.057244" lon="-6.763952">
        <ele>516.5</ele>
        <time>1970-01-01T02:30:06.000Z</time>
      </trkpt>
      <trkpt lat="41.057246" lon="-6.763916">
        <ele>516.6</ele>
        <time>1970-01-01T02:30:07.000Z</time>
      </trkpt>
      <trkpt lat="41.057248" lon="-6.763881">
        <ele>516.7</ele>
        <time>1970-01-01T02:30:08.000Z</time>
      </trkpt>
      <trkpt lat="41.05725" lon="-6.763846">
        <ele>516.8</ele>
        <time>1970-01-01T02:30:09.000Z</time>
      </trkpt>
      <trkpt lat="41.057252" lon="-6.763813">
        <ele>516.9</ele>
        <time>1970-01-01T02:30:10.000Z</time>
      </trkpt>
      <trkpt lat="41.057255" lon="-6.763779">
        <ele>517</ele>
        <time>1970-01-01T02:30:11.000Z</time>
      </trkpt>
      <trkpt lat="41.057258" lon="-6.763745">
        <ele>517.1</ele>
        <time>1970-01-01T02:30:12.000Z</time>
      </trkpt>
      <trkpt lat="41.057262" lon="-6.76371">
        <ele>517.3</ele>
        <time>1970-01-01T02:30:13.000Z</time>
      </trkpt>
      <trkpt lat="41.057266" lon="-6.763673">
        <ele>517.4</ele>
        <time>1970-01-01T02:30:14.000Z</time>
      </trkpt>
      <trkpt lat="41.05727" lon="-6.763635">
        <ele>517.5</ele>
        <time>1970-01-01T02:30:15.000Z</time>
      </trkpt>
      <trkpt lat="41.057274" lon="-6.763597">
        <ele>517.6</ele>
        <time>1970-01-01T02:30:16.000Z</time>
      </trkpt>
      <trkpt lat="41.057279" lon="-6.763558">
        <ele>517.8</ele>
        <time>1970-01-01T02:30:17.000Z</time>
      </trkpt>
      <trkpt lat="41.057284" lon="-6.76352">
        <ele>517.9</ele>
        <time>1970-01-01T02:30:18.000Z</time>
      </trkpt>
      <trkpt lat="41.057289" lon="-6.763483">
        <ele>518</ele>
        <time>1970-01-01T02:30:19.000Z</time>
      </trkpt>
      <trkpt lat="41.057293" lon="-6.763446">
        <ele>518.1</ele>
        <time>1970-01-01T02:30:20.000Z</time>
      </trkpt>
      <trkpt lat="41.057296" lon="-6.763407">
        <ele>518.3</ele>
        <time>1970-01-01T02:30:21.000Z</time>
      </trkpt>
      <trkpt lat="41.057301" lon="-6.763368">
        <ele>518.4</ele>
        <time>1970-01-01T02:30:22.000Z</time>
      </trkpt>
      <trkpt lat="41.057307" lon="-6.763327">
        <ele>518.5</ele>
        <time>1970-01-01T02:30:23.000Z</time>
      </trkpt>
      <trkpt lat="41.057314" lon="-6.763289">
        <ele>518.7</ele>
        <time>1970-01-01T02:30:24.000Z</time>
      </trkpt>
      <trkpt lat="41.057322" lon="-6.763252">
        <ele>518.8</ele>
        <time>1970-01-01T02:30:25.000Z</time>
      </trkpt>
      <trkpt lat="41.057329" lon="-6.763218">
        <ele>518.9</ele>
        <time>1970-01-01T02:30:26.000Z</time>
      </trkpt>
      <trkpt lat="41.057341" lon="-6.763189">
        <ele>519</ele>
        <time>1970-01-01T02:30:27.000Z</time>
      </trkpt>
      <trkpt lat="41.057359" lon="-6.763172">
        <ele>518.5</ele>
        <time>1970-01-01T02:30:28.000Z</time>
      </trkpt>
      <trkpt lat="41.057381" lon="-6.763169">
        <ele>518.3</ele>
        <time>1970-01-01T02:30:29.000Z</time>
      </trkpt>
      <trkpt lat="41.057409" lon="-6.763182">
        <ele>517.8</ele>
        <time>1970-01-01T02:30:30.000Z</time>
      </trkpt>
      <trkpt lat="41.057439" lon="-6.763209">
        <ele>517.3</ele>
        <time>1970-01-01T02:30:31.000Z</time>
      </trkpt>
      <trkpt lat="41.057477" lon="-6.763252">
        <ele>516.5</ele>
        <time>1970-01-01T02:30:32.000Z</time>
      </trkpt>
      <trkpt lat="41.057521" lon="-6.763304">
        <ele>515.6</ele>
        <time>1970-01-01T02:30:33.000Z</time>
      </trkpt>
      <trkpt lat="41.05757" lon="-6.76336">
        <ele>514.5</ele>
        <time>1970-01-01T02:30:34.000Z</time>
      </trkpt>
      <trkpt lat="41.057623" lon="-6.76342">
        <ele>513.3</ele>
        <time>1970-01-01T02:30:35.000Z</time>
      </trkpt>
      <trkpt lat="41.057679" lon="-6.763479">
        <ele>512.2</ele>
        <time>1970-01-01T02:30:36.000Z</time>
      </trkpt>
      <trkpt lat="41.05774" lon="-6.763529">
        <ele>511.2</ele>
        <time>1970-01-01T02:30:37.000Z</time>
      </trkpt>
      <trkpt lat="41.057806" lon="-6.763572">
        <ele>510.4</ele>
        <time>1970-01-01T02:30:38.000Z</time>
      </trkpt>
      <trkpt lat="41.057881" lon="-6.763617">
        <ele>509.5</ele>
        <time>1970-01-01T02:30:39.000Z</time>
      </trkpt>
      <trkpt lat="41.05796" lon="-6.763669">
        <ele>508.7</ele>
        <time>1970-01-01T02:30:40.000Z</time>
      </trkpt>
      <trkpt lat="41.058039" lon="-6.763727">
        <ele>507.9</ele>
        <time>1970-01-01T02:30:41.000Z</time>
      </trkpt>
      <trkpt lat="41.05811" lon="-6.763791">
        <ele>507.3</ele>
        <time>1970-01-01T02:30:42.000Z</time>
      </trkpt>
      <trkpt lat="41.058175" lon="-6.763863">
        <ele>506.8</ele>
        <time>1970-01-01T02:30:43.000Z</time>
      </trkpt>
      <trkpt lat="41.058233" lon="-6.763944">
        <ele>506.4</ele>
        <time>1970-01-01T02:30:44.000Z</time>
      </trkpt>
      <trkpt lat="41.058284" lon="-6.764032">
        <ele>506</ele>
        <time>1970-01-01T02:30:45.000Z</time>
      </trkpt>
      <trkpt lat="41.058326" lon="-6.764128">
        <ele>505.9</ele>
        <time>1970-01-01T02:30:46.000Z</time>
      </trkpt>
      <trkpt lat="41.05836" lon="-6.764227">
        <ele>505.9</ele>
        <time>1970-01-01T02:30:47.000Z</time>
      </trkpt>
      <trkpt lat="41.058386" lon="-6.764328">
        <ele>505.7</ele>
        <time>1970-01-01T02:30:48.000Z</time>
      </trkpt>
      <trkpt lat="41.058409" lon="-6.76443">
        <ele>505.5</ele>
        <time>1970-01-01T02:30:49.000Z</time>
      </trkpt>
      <trkpt lat="41.058429" lon="-6.764533">
        <ele>505.3</ele>
        <time>1970-01-01T02:30:50.000Z</time>
      </trkpt>
      <trkpt lat="41.058448" lon="-6.764638">
        <ele>505</ele>
        <time>1970-01-01T02:30:51.000Z</time>
      </trkpt>
      <trkpt lat="41.058464" lon="-6.764745">
        <ele>504.6</ele>
        <time>1970-01-01T02:30:52.000Z</time>
      </trkpt>
      <trkpt lat="41.058479" lon="-6.764854">
        <ele>504.3</ele>
        <time>1970-01-01T02:30:53.000Z</time>
      </trkpt>
      <trkpt lat="41.058493" lon="-6.764965">
        <ele>503.8</ele>
        <time>1970-01-01T02:30:54.000Z</time>
      </trkpt>
      <trkpt lat="41.058508" lon="-6.765077">
        <ele>503.4</ele>
        <time>1970-01-01T02:30:55.000Z</time>
      </trkpt>
      <trkpt lat="41.058522" lon="-6.76519">
        <ele>503.1</ele>
        <time>1970-01-01T02:30:56.000Z</time>
      </trkpt>
      <trkpt lat="41.058537" lon="-6.765304">
        <ele>502.8</ele>
        <time>1970-01-01T02:30:57.000Z</time>
      </trkpt>
      <trkpt lat="41.05855" lon="-6.765417">
        <ele>502.5</ele>
        <time>1970-01-01T02:30:58.000Z</time>
      </trkpt>
      <trkpt lat="41.058562" lon="-6.765531">
        <ele>502.2</ele>
        <time>1970-01-01T02:30:59.000Z</time>
      </trkpt>
      <trkpt lat="41.058575" lon="-6.765643">
        <ele>502</ele>
        <time>1970-01-01T02:31:00.000Z</time>
      </trkpt>
      <trkpt lat="41.058593" lon="-6.765753">
        <ele>501.9</ele>
        <time>1970-01-01T02:31:01.000Z</time>
      </trkpt>
      <trkpt lat="41.058613" lon="-6.76586">
        <ele>501.6</ele>
        <time>1970-01-01T02:31:02.000Z</time>
      </trkpt>
      <trkpt lat="41.058637" lon="-6.76596">
        <ele>501.1</ele>
        <time>1970-01-01T02:31:03.000Z</time>
      </trkpt>
      <trkpt lat="41.058663" lon="-6.766052">
        <ele>500.6</ele>
        <time>1970-01-01T02:31:04.000Z</time>
      </trkpt>
      <trkpt lat="41.05869" lon="-6.766135">
        <ele>500</ele>
        <time>1970-01-01T02:31:05.000Z</time>
      </trkpt>
      <trkpt lat="41.058716" lon="-6.766213">
        <ele>499.5</ele>
        <time>1970-01-01T02:31:06.000Z</time>
      </trkpt>
      <trkpt lat="41.058739" lon="-6.766288">
        <ele>499</ele>
        <time>1970-01-01T02:31:07.000Z</time>
      </trkpt>
      <trkpt lat="41.058759" lon="-6.766361">
        <ele>498.4</ele>
        <time>1970-01-01T02:31:08.000Z</time>
      </trkpt>
      <trkpt lat="41.058779" lon="-6.766432">
        <ele>497.9</ele>
        <time>1970-01-01T02:31:09.000Z</time>
      </trkpt>
      <trkpt lat="41.058798" lon="-6.766502">
        <ele>497.4</ele>
        <time>1970-01-01T02:31:10.000Z</time>
      </trkpt>
      <trkpt lat="41.058819" lon="-6.766569">
        <ele>497</ele>
        <time>1970-01-01T02:31:11.000Z</time>
      </trkpt>
      <trkpt lat="41.058839" lon="-6.766634">
        <ele>496.6</ele>
        <time>1970-01-01T02:31:12.000Z</time>
      </trkpt>
      <trkpt lat="41.058859" lon="-6.766697">
        <ele>496.2</ele>
        <time>1970-01-01T02:31:13.000Z</time>
      </trkpt>
      <trkpt lat="41.058879" lon="-6.76676">
        <ele>495.8</ele>
        <time>1970-01-01T02:31:14.000Z</time>
      </trkpt>
      <trkpt lat="41.058899" lon="-6.766823">
        <ele>495.4</ele>
        <time>1970-01-01T02:31:15.000Z</time>
      </trkpt>
      <trkpt lat="41.058921" lon="-6.766885">
        <ele>495.1</ele>
        <time>1970-01-01T02:31:16.000Z</time>
      </trkpt>
      <trkpt lat="41.058945" lon="-6.766948">
        <ele>494.7</ele>
        <time>1970-01-01T02:31:17.000Z</time>
      </trkpt>
      <trkpt lat="41.058971" lon="-6.767012">
        <ele>494.3</ele>
        <time>1970-01-01T02:31:18.000Z</time>
      </trkpt>
      <trkpt lat="41.059" lon="-6.767079">
        <ele>493.8</ele>
        <time>1970-01-01T02:31:19.000Z</time>
      </trkpt>
      <trkpt lat="41.059034" lon="-6.767147">
        <ele>493.3</ele>
        <time>1970-01-01T02:31:20.000Z</time>
      </trkpt>
      <trkpt lat="41.059075" lon="-6.767213">
        <ele>492.5</ele>
        <time>1970-01-01T02:31:21.000Z</time>
      </trkpt>
      <trkpt lat="41.059123" lon="-6.76727">
        <ele>491.5</ele>
        <time>1970-01-01T02:31:22.000Z</time>
      </trkpt>
      <trkpt lat="41.059181" lon="-6.767314">
        <ele>490.3</ele>
        <time>1970-01-01T02:31:23.000Z</time>
      </trkpt>
      <trkpt lat="41.059248" lon="-6.767347">
        <ele>489</ele>
        <time>1970-01-01T02:31:24.000Z</time>
      </trkpt>
      <trkpt lat="41.059321" lon="-6.767371">
        <ele>487.8</ele>
        <time>1970-01-01T02:31:25.000Z</time>
      </trkpt>
      <trkpt lat="41.059398" lon="-6.767391">
        <ele>486.8</ele>
        <time>1970-01-01T02:31:26.000Z</time>
      </trkpt>
      <trkpt lat="41.059474" lon="-6.767405">
        <ele>485.9</ele>
        <time>1970-01-01T02:31:27.000Z</time>
      </trkpt>
      <trkpt lat="41.05955" lon="-6.767416">
        <ele>484.8</ele>
        <time>1970-01-01T02:31:28.000Z</time>
      </trkpt>
      <trkpt lat="41.059626" lon="-6.767424">
        <ele>483.4</ele>
        <time>1970-01-01T02:31:29.000Z</time>
      </trkpt>
      <trkpt lat="41.059702" lon="-6.767429">
        <ele>481.7</ele>
        <time>1970-01-01T02:31:30.000Z</time>
      </trkpt>
      <trkpt lat="41.059778" lon="-6.767431">
        <ele>480.3</ele>
        <time>1970-01-01T02:31:31.000Z</time>
      </trkpt>
      <trkpt lat="41.059855" lon="-6.767432">
        <ele>479.3</ele>
        <time>1970-01-01T02:31:32.000Z</time>
      </trkpt>
      <trkpt lat="41.059932" lon="-6.76743">
        <ele>478.6</ele>
        <time>1970-01-01T02:31:33.000Z</time>
      </trkpt>
      <trkpt lat="41.060009" lon="-6.767425">
        <ele>478.8</ele>
        <time>1970-01-01T02:31:34.000Z</time>
      </trkpt>
      <trkpt lat="41.060085" lon="-6.767415">
        <ele>480.2</ele>
        <time>1970-01-01T02:31:35.000Z</time>
      </trkpt>
      <trkpt lat="41.060159" lon="-6.767401">
        <ele>480.9</ele>
        <time>1970-01-01T02:31:36.000Z</time>
      </trkpt>
      <trkpt lat="41.060233" lon="-6.767385">
        <ele>480.8</ele>
        <time>1970-01-01T02:31:37.000Z</time>
      </trkpt>
      <trkpt lat="41.060306" lon="-6.767369">
        <ele>480.1</ele>
        <time>1970-01-01T02:31:38.000Z</time>
      </trkpt>
      <trkpt lat="41.060379" lon="-6.767355">
        <ele>479.3</ele>
        <time>1970-01-01T02:31:39.000Z</time>
      </trkpt>
      <trkpt lat="41.060451" lon="-6.767347">
        <ele>478.5</ele>
        <time>1970-01-01T02:31:40.000Z</time>
      </trkpt>
      <trkpt lat="41.060522" lon="-6.767348">
        <ele>477.8</ele>
        <time>1970-01-01T02:31:41.000Z</time>
      </trkpt>
      <trkpt lat="41.060593" lon="-6.767362">
        <ele>476.6</ele>
        <time>1970-01-01T02:31:42.000Z</time>
      </trkpt>
      <trkpt lat="41.060665" lon="-6.767389">
        <ele>475.1</ele>
        <time>1970-01-01T02:31:43.000Z</time>
      </trkpt>
      <trkpt lat="41.060739" lon="-6.767426">
        <ele>473.7</ele>
        <time>1970-01-01T02:31:44.000Z</time>
      </trkpt>
      <trkpt lat="41.06081" lon="-6.76747">
        <ele>472.6</ele>
        <time>1970-01-01T02:31:45.000Z</time>
      </trkpt>
      <trkpt lat="41.060875" lon="-6.767523">
        <ele>471.5</ele>
        <time>1970-01-01T02:31:46.000Z</time>
      </trkpt>
      <trkpt lat="41.060936" lon="-6.767586">
        <ele>470</ele>
        <time>1970-01-01T02:31:47.000Z</time>
      </trkpt>
      <trkpt lat="41.060993" lon="-6.767657">
        <ele>468.3</ele>
        <time>1970-01-01T02:31:48.000Z</time>
      </trkpt>
      <trkpt lat="41.061049" lon="-6.767734">
        <ele>466.6</ele>
        <time>1970-01-01T02:31:49.000Z</time>
      </trkpt>
      <trkpt lat="41.061102" lon="-6.767814">
        <ele>465.1</ele>
        <time>1970-01-01T02:31:50.000Z</time>
      </trkpt>
      <trkpt lat="41.061156" lon="-6.767896">
        <ele>464</ele>
        <time>1970-01-01T02:31:51.000Z</time>
      </trkpt>
      <trkpt lat="41.061211" lon="-6.767977">
        <ele>463.1</ele>
        <time>1970-01-01T02:31:52.000Z</time>
      </trkpt>
      <trkpt lat="41.061268" lon="-6.768056">
        <ele>462.2</ele>
        <time>1970-01-01T02:31:53.000Z</time>
      </trkpt>
      <trkpt lat="41.061327" lon="-6.768134">
        <ele>461.2</ele>
        <time>1970-01-01T02:31:54.000Z</time>
      </trkpt>
      <trkpt lat="41.061383" lon="-6.76821">
        <ele>460.1</ele>
        <time>1970-01-01T02:31:55.000Z</time>
      </trkpt>
      <trkpt lat="41.061438" lon="-6.768284">
        <ele>459.2</ele>
        <time>1970-01-01T02:31:56.000Z</time>
      </trkpt>
      <trkpt lat="41.061488" lon="-6.768352">
        <ele>458.4</ele>
        <time>1970-01-01T02:31:57.000Z</time>
      </trkpt>
      <trkpt lat="41.061534" lon="-6.768414">
        <ele>457.5</ele>
        <time>1970-01-01T02:31:58.000Z</time>
      </trkpt>
      <trkpt lat="41.061576" lon="-6.76847">
        <ele>456.4</ele>
        <time>1970-01-01T02:31:59.000Z</time>
      </trkpt>
      <trkpt lat="41.061615" lon="-6.768517">
        <ele>455.4</ele>
        <time>1970-01-01T02:32:00.000Z</time>
      </trkpt>
      <trkpt lat="41.061651" lon="-6.768554">
        <ele>454.4</ele>
        <time>1970-01-01T02:32:01.000Z</time>
      </trkpt>
      <trkpt lat="41.061682" lon="-6.768581">
        <ele>453.5</ele>
        <time>1970-01-01T02:32:02.000Z</time>
      </trkpt>
      <trkpt lat="41.061709" lon="-6.768601">
        <ele>452.8</ele>
        <time>1970-01-01T02:32:03.000Z</time>
      </trkpt>
      <trkpt lat="41.061729" lon="-6.768619">
        <ele>452.3</ele>
        <time>1970-01-01T02:32:04.000Z</time>
      </trkpt>
      <trkpt lat="41.061742" lon="-6.768637">
        <ele>451.8</ele>
        <time>1970-01-01T02:32:05.000Z</time>
      </trkpt>
      <trkpt lat="41.061747" lon="-6.768653">
        <ele>451.5</ele>
        <time>1970-01-01T02:32:06.000Z</time>
      </trkpt>
      <trkpt lat="41.061748" lon="-6.768665">
        <ele>451.3</ele>
        <time>1970-01-01T02:32:07.000Z</time>
      </trkpt>
      <trkpt lat="41.061749" lon="-6.76867">
        <ele>451.3</ele>
        <time>1970-01-01T02:32:08.000Z</time>
      </trkpt>
      <trkpt lat="41.061749" lon="-6.768672">
        <ele>451.2</ele>
        <time>1970-01-01T02:32:09.000Z</time>
      </trkpt>
      <trkpt lat="41.06175" lon="-6.768675">
        <ele>451.2</ele>
        <time>1970-01-01T02:32:10.000Z</time>
      </trkpt>
      <trkpt lat="41.061751" lon="-6.768678">
        <ele>451.1</ele>
        <time>1970-01-01T02:32:11.000Z</time>
      </trkpt>
      <trkpt lat="41.061753" lon="-6.768682">
        <ele>451</ele>
        <time>1970-01-01T02:32:12.000Z</time>
      </trkpt>
      <trkpt lat="41.061756" lon="-6.768685">
        <ele>450.9</ele>
        <time>1970-01-01T02:32:13.000Z</time>
      </trkpt>
      <trkpt lat="41.061759" lon="-6.768687">
        <ele>450.9</ele>
        <time>1970-01-01T02:32:14.000Z</time>
      </trkpt>
      <trkpt lat="41.061759" lon="-6.768687">
        <ele>450.9</ele>
        <time>1970-01-01T02:32:15.000Z</time>
      </trkpt>
      <trkpt lat="41.06176" lon="-6.768688">
        <ele>450.8</ele>
        <time>1970-01-01T02:32:16.000Z</time>
      </trkpt>
      <trkpt lat="41.06176" lon="-6.768688">
        <ele>450.8</ele>
        <time>1970-01-01T02:32:17.000Z</time>
      </trkpt>
      <trkpt lat="41.061761" lon="-6.768688">
        <ele>450.8</ele>
        <time>1970-01-01T02:32:18.000Z</time>
      </trkpt>
      <trkpt lat="41.061761" lon="-6.768688">
        <ele>450.8</ele>
        <time>1970-01-01T02:32:19.000Z</time>
      </trkpt>
      <trkpt lat="41.061757" lon="-6.7687">
        <ele>450.6</ele>
        <time>1970-01-01T02:32:20.000Z</time>
      </trkpt>
      <trkpt lat="41.061754" lon="-6.768706">
        <ele>450.5</ele>
        <time>1970-01-01T02:32:21.000Z</time>
      </trkpt>
      <trkpt lat="41.061748" lon="-6.768719">
        <ele>450.2</ele>
        <time>1970-01-01T02:45:58.000Z</time>
      </trkpt>
      <trkpt lat="41.061738" lon="-6.768739">
        <ele>449.7</ele>
        <time>1970-01-01T02:45:59.000Z</time>
      </trkpt>
      <trkpt lat="41.061725" lon="-6.768765">
        <ele>449.2</ele>
        <time>1970-01-01T02:46:00.000Z</time>
      </trkpt>
      <trkpt lat="41.061713" lon="-6.768798">
        <ele>448.5</ele>
        <time>1970-01-01T02:46:01.000Z</time>
      </trkpt>
      <trkpt lat="41.061704" lon="-6.768834">
        <ele>447.9</ele>
        <time>1970-01-01T02:46:02.000Z</time>
      </trkpt>
      <trkpt lat="41.061698" lon="-6.768872">
        <ele>447.2</ele>
        <time>1970-01-01T02:46:03.000Z</time>
      </trkpt>
      <trkpt lat="41.061695" lon="-6.76891">
        <ele>446.6</ele>
        <time>1970-01-01T02:46:04.000Z</time>
      </trkpt>
      <trkpt lat="41.061694" lon="-6.76895">
        <ele>446</ele>
        <time>1970-01-01T02:46:05.000Z</time>
      </trkpt>
      <trkpt lat="41.061694" lon="-6.768992">
        <ele>445.4</ele>
        <time>1970-01-01T02:46:06.000Z</time>
      </trkpt>
      <trkpt lat="41.061694" lon="-6.769035">
        <ele>444.8</ele>
        <time>1970-01-01T02:46:07.000Z</time>
      </trkpt>
      <trkpt lat="41.061694" lon="-6.769081">
        <ele>444.1</ele>
        <time>1970-01-01T02:46:08.000Z</time>
      </trkpt>
      <trkpt lat="41.061694" lon="-6.769126">
        <ele>443.5</ele>
        <time>1970-01-01T02:46:09.000Z</time>
      </trkpt>
      <trkpt lat="41.061695" lon="-6.769172">
        <ele>442.8</ele>
        <time>1970-01-01T02:46:10.000Z</time>
      </trkpt>
      <trkpt lat="41.061693" lon="-6.769221">
        <ele>442.1</ele>
        <time>1970-01-01T02:46:11.000Z</time>
      </trkpt>
      <trkpt lat="41.06169" lon="-6.769272">
        <ele>441.5</ele>
        <time>1970-01-01T02:46:12.000Z</time>
      </trkpt>
      <trkpt lat="41.061686" lon="-6.769328">
        <ele>440.8</ele>
        <time>1970-01-01T02:46:13.000Z</time>
      </trkpt>
      <trkpt lat="41.061682" lon="-6.769388">
        <ele>440.1</ele>
        <time>1970-01-01T02:46:14.000Z</time>
      </trkpt>
      <trkpt lat="41.061677" lon="-6.769452">
        <ele>439.5</ele>
        <time>1970-01-01T02:46:15.000Z</time>
      </trkpt>
      <trkpt lat="41.061669" lon="-6.769523">
        <ele>439.1</ele>
        <time>1970-01-01T02:46:16.000Z</time>
      </trkpt>
      <trkpt lat="41.061662" lon="-6.769599">
        <ele>438.6</ele>
        <time>1970-01-01T02:46:17.000Z</time>
      </trkpt>
      <trkpt lat="41.061655" lon="-6.769676">
        <ele>438.1</ele>
        <time>1970-01-01T02:46:18.000Z</time>
      </trkpt>
      <trkpt lat="41.061653" lon="-6.769749">
        <ele>437.4</ele>
        <time>1970-01-01T02:46:19.000Z</time>
      </trkpt>
      <trkpt lat="41.061658" lon="-6.769821">
        <ele>436.6</ele>
        <time>1970-01-01T02:46:20.000Z</time>
      </trkpt>
      <trkpt lat="41.06167" lon="-6.769892">
        <ele>435.7</ele>
        <time>1970-01-01T02:46:21.000Z</time>
      </trkpt>
      <trkpt lat="41.061691" lon="-6.769961">
        <ele>434.8</ele>
        <time>1970-01-01T02:46:22.000Z</time>
      </trkpt>
      <trkpt lat="41.061717" lon="-6.770029">
        <ele>434</ele>
        <time>1970-01-01T02:46:23.000Z</time>
      </trkpt>
      <trkpt lat="41.061743" lon="-6.770094">
        <ele>433.2</ele>
        <time>1970-01-01T02:46:24.000Z</time>
      </trkpt>
      <trkpt lat="41.061765" lon="-6.770158">
        <ele>432.2</ele>
        <time>1970-01-01T02:46:25.000Z</time>
      </trkpt>
      <trkpt lat="41.06178" lon="-6.770219">
        <ele>431.3</ele>
        <time>1970-01-01T02:46:26.000Z</time>
      </trkpt>
      <trkpt lat="41.061785" lon="-6.770276">
        <ele>430.4</ele>
        <time>1970-01-01T02:46:27.000Z</time>
      </trkpt>
      <trkpt lat="41.061775" lon="-6.770325">
        <ele>429.6</ele>
        <time>1970-01-01T02:46:28.000Z</time>
      </trkpt>
      <trkpt lat="41.061755" lon="-6.770363">
        <ele>428.8</ele>
        <time>1970-01-01T02:46:29.000Z</time>
      </trkpt>
      <trkpt lat="41.061728" lon="-6.770384">
        <ele>428.1</ele>
        <time>1970-01-01T02:46:30.000Z</time>
      </trkpt>
      <trkpt lat="41.061695" lon="-6.770387">
        <ele>427.4</ele>
        <time>1970-01-01T02:46:31.000Z</time>
      </trkpt>
      <trkpt lat="41.06165" lon="-6.770372">
        <ele>426.4</ele>
        <time>1970-01-01T02:46:32.000Z</time>
      </trkpt>
      <trkpt lat="41.061595" lon="-6.770345">
        <ele>425.1</ele>
        <time>1970-01-01T02:46:33.000Z</time>
      </trkpt>
      <trkpt lat="41.061531" lon="-6.770304">
        <ele>423.6</ele>
        <time>1970-01-01T02:46:34.000Z</time>
      </trkpt>
      <trkpt lat="41.061468" lon="-6.770253">
        <ele>422.6</ele>
        <time>1970-01-01T02:46:35.000Z</time>
      </trkpt>
      <trkpt lat="41.061404" lon="-6.770193">
        <ele>421.9</ele>
        <time>1970-01-01T02:46:36.000Z</time>
      </trkpt>
      <trkpt lat="41.061343" lon="-6.770135">
        <ele>421.4</ele>
        <time>1970-01-01T02:46:37.000Z</time>
      </trkpt>
      <trkpt lat="41.061288" lon="-6.770081">
        <ele>420.8</ele>
        <time>1970-01-01T02:46:38.000Z</time>
      </trkpt>
      <trkpt lat="41.061238" lon="-6.770037">
        <ele>420.1</ele>
        <time>1970-01-01T02:46:39.000Z</time>
      </trkpt>
      <trkpt lat="41.061194" lon="-6.770009">
        <ele>419.2</ele>
        <time>1970-01-01T02:46:40.000Z</time>
      </trkpt>
      <trkpt lat="41.061155" lon="-6.770002">
        <ele>418.5</ele>
        <time>1970-01-01T02:46:41.000Z</time>
      </trkpt>
      <trkpt lat="41.06113" lon="-6.770018">
        <ele>417.9</ele>
        <time>1970-01-01T02:46:42.000Z</time>
      </trkpt>
      <trkpt lat="41.061117" lon="-6.770053">
        <ele>417.2</ele>
        <time>1970-01-01T02:46:43.000Z</time>
      </trkpt>
      <trkpt lat="41.061119" lon="-6.770106">
        <ele>416.3</ele>
        <time>1970-01-01T02:46:44.000Z</time>
      </trkpt>
      <trkpt lat="41.061131" lon="-6.770174">
        <ele>415.3</ele>
        <time>1970-01-01T02:46:45.000Z</time>
      </trkpt>
      <trkpt lat="41.061155" lon="-6.770259">
        <ele>413.9</ele>
        <time>1970-01-01T02:46:46.000Z</time>
      </trkpt>
      <trkpt lat="41.061187" lon="-6.770363">
        <ele>412</ele>
        <time>1970-01-01T02:46:47.000Z</time>
      </trkpt>
      <trkpt lat="41.061224" lon="-6.770479">
        <ele>409.6</ele>
        <time>1970-01-01T02:46:48.000Z</time>
      </trkpt>
      <trkpt lat="41.061259" lon="-6.770598">
        <ele>407.5</ele>
        <time>1970-01-01T02:46:49.000Z</time>
      </trkpt>
      <trkpt lat="41.061294" lon="-6.770718">
        <ele>406</ele>
        <time>1970-01-01T02:46:50.000Z</time>
      </trkpt>
      <trkpt lat="41.061329" lon="-6.77084">
        <ele>405.2</ele>
        <time>1970-01-01T02:46:51.000Z</time>
      </trkpt>
      <trkpt lat="41.061366" lon="-6.770957">
        <ele>404.5</ele>
        <time>1970-01-01T02:46:52.000Z</time>
      </trkpt>
      <trkpt lat="41.061412" lon="-6.771062">
        <ele>403.7</ele>
        <time>1970-01-01T02:46:53.000Z</time>
      </trkpt>
      <trkpt lat="41.061465" lon="-6.77115">
        <ele>402.9</ele>
        <time>1970-01-01T02:46:54.000Z</time>
      </trkpt>
      <trkpt lat="41.061526" lon="-6.771225">
        <ele>402.2</ele>
        <time>1970-01-01T02:46:55.000Z</time>
      </trkpt>
      <trkpt lat="41.061591" lon="-6.771289">
        <ele>401.7</ele>
        <time>1970-01-01T02:46:56.000Z</time>
      </trkpt>
      <trkpt lat="41.061656" lon="-6.771347">
        <ele>401.3</ele>
        <time>1970-01-01T02:46:57.000Z</time>
      </trkpt>
      <trkpt lat="41.061713" lon="-6.771398">
        <ele>400.9</ele>
        <time>1970-01-01T02:46:58.000Z</time>
      </trkpt>
      <trkpt lat="41.061762" lon="-6.771445">
        <ele>400.3</ele>
        <time>1970-01-01T02:46:59.000Z</time>
      </trkpt>
      <trkpt lat="41.061794" lon="-6.771488">
        <ele>399.7</ele>
        <time>1970-01-01T02:47:00.000Z</time>
      </trkpt>
      <trkpt lat="41.061808" lon="-6.77153">
        <ele>399.1</ele>
        <time>1970-01-01T02:47:01.000Z</time>
      </trkpt>
      <trkpt lat="41.061802" lon="-6.771568">
        <ele>398.6</ele>
        <time>1970-01-01T02:47:02.000Z</time>
      </trkpt>
      <trkpt lat="41.061783" lon="-6.771598">
        <ele>398</ele>
        <time>1970-01-01T02:47:03.000Z</time>
      </trkpt>
      <trkpt lat="41.061749" lon="-6.771618">
        <ele>397.2</ele>
        <time>1970-01-01T02:47:04.000Z</time>
      </trkpt>
      <trkpt lat="41.061702" lon="-6.771625">
        <ele>396.3</ele>
        <time>1970-01-01T02:47:05.000Z</time>
      </trkpt>
      <trkpt lat="41.061641" lon="-6.771622">
        <ele>395.1</ele>
        <time>1970-01-01T02:47:06.000Z</time>
      </trkpt>
      <trkpt lat="41.06157" lon="-6.77161">
        <ele>393.8</ele>
        <time>1970-01-01T02:47:07.000Z</time>
      </trkpt>
      <trkpt lat="41.061495" lon="-6.771589">
        <ele>392.4</ele>
        <time>1970-01-01T02:47:08.000Z</time>
      </trkpt>
      <trkpt lat="41.061422" lon="-6.771561">
        <ele>391.2</ele>
        <time>1970-01-01T02:47:09.000Z</time>
      </trkpt>
      <trkpt lat="41.061355" lon="-6.771529">
        <ele>390.3</ele>
        <time>1970-01-01T02:47:10.000Z</time>
      </trkpt>
      <trkpt lat="41.061293" lon="-6.771495">
        <ele>389.6</ele>
        <time>1970-01-01T02:47:11.000Z</time>
      </trkpt>
      <trkpt lat="41.06124" lon="-6.771462">
        <ele>389</ele>
        <time>1970-01-01T02:47:12.000Z</time>
      </trkpt>
      <trkpt lat="41.061198" lon="-6.771437">
        <ele>388.5</ele>
        <time>1970-01-01T02:47:13.000Z</time>
      </trkpt>
      <trkpt lat="41.061166" lon="-6.771427">
        <ele>388.2</ele>
        <time>1970-01-01T02:47:14.000Z</time>
      </trkpt>
      <trkpt lat="41.061147" lon="-6.771436">
        <ele>388</ele>
        <time>1970-01-01T02:47:15.000Z</time>
      </trkpt>
      <trkpt lat="41.061141" lon="-6.771465">
        <ele>387.7</ele>
        <time>1970-01-01T02:47:16.000Z</time>
      </trkpt>
      <trkpt lat="41.061148" lon="-6.771509">
        <ele>387.3</ele>
        <time>1970-01-01T02:47:17.000Z</time>
      </trkpt>
      <trkpt lat="41.061165" lon="-6.77156">
        <ele>386.7</ele>
        <time>1970-01-01T02:47:18.000Z</time>
      </trkpt>
      <trkpt lat="41.061189" lon="-6.771615">
        <ele>385.9</ele>
        <time>1970-01-01T02:47:19.000Z</time>
      </trkpt>
      <trkpt lat="41.061224" lon="-6.771674">
        <ele>384.7</ele>
        <time>1970-01-01T02:47:20.000Z</time>
      </trkpt>
      <trkpt lat="41.06127" lon="-6.771739">
        <ele>383</ele>
        <time>1970-01-01T02:47:21.000Z</time>
      </trkpt>
      <trkpt lat="41.061323" lon="-6.771805">
        <ele>381.4</ele>
        <time>1970-01-01T02:47:22.000Z</time>
      </trkpt>
      <trkpt lat="41.061382" lon="-6.771875">
        <ele>379.7</ele>
        <time>1970-01-01T02:47:23.000Z</time>
      </trkpt>
      <trkpt lat="41.061448" lon="-6.77195">
        <ele>377.9</ele>
        <time>1970-01-01T02:47:24.000Z</time>
      </trkpt>
      <trkpt lat="41.061521" lon="-6.772033">
        <ele>375.9</ele>
        <time>1970-01-01T02:47:25.000Z</time>
      </trkpt>
      <trkpt lat="41.061598" lon="-6.772118">
        <ele>373.8</ele>
        <time>1970-01-01T02:47:26.000Z</time>
      </trkpt>
      <trkpt lat="41.061673" lon="-6.772195">
        <ele>372.1</ele>
        <time>1970-01-01T02:47:27.000Z</time>
      </trkpt>
      <trkpt lat="41.061746" lon="-6.772258">
        <ele>370.6</ele>
        <time>1970-01-01T02:47:28.000Z</time>
      </trkpt>
      <trkpt lat="41.061818" lon="-6.772304">
        <ele>369.2</ele>
        <time>1970-01-01T02:47:29.000Z</time>
      </trkpt>
      <trkpt lat="41.06189" lon="-6.772334">
        <ele>368.2</ele>
        <time>1970-01-01T02:47:30.000Z</time>
      </trkpt>
      <trkpt lat="41.061965" lon="-6.772357">
        <ele>367.4</ele>
        <time>1970-01-01T02:47:31.000Z</time>
      </trkpt>
      <trkpt lat="41.062046" lon="-6.772379">
        <ele>366.8</ele>
        <time>1970-01-01T02:47:32.000Z</time>
      </trkpt>
      <trkpt lat="41.062129" lon="-6.772407">
        <ele>366</ele>
        <time>1970-01-01T02:47:33.000Z</time>
      </trkpt>
      <trkpt lat="41.062212" lon="-6.772439">
        <ele>364.6</ele>
        <time>1970-01-01T02:47:34.000Z</time>
      </trkpt>
      <trkpt lat="41.062293" lon="-6.772475">
        <ele>362.9</ele>
        <time>1970-01-01T02:47:35.000Z</time>
      </trkpt>
      <trkpt lat="41.06237" lon="-6.772512">
        <ele>361.2</ele>
        <time>1970-01-01T02:47:36.000Z</time>
      </trkpt>
      <trkpt lat="41.062447" lon="-6.772552">
        <ele>359.6</ele>
        <time>1970-01-01T02:47:37.000Z</time>
      </trkpt>
      <trkpt lat="41.062524" lon="-6.772598">
        <ele>358</ele>
        <time>1970-01-01T02:47:38.000Z</time>
      </trkpt>
      <trkpt lat="41.062602" lon="-6.772649">
        <ele>356.4</ele>
        <time>1970-01-01T02:47:39.000Z</time>
      </trkpt>
      <trkpt lat="41.062678" lon="-6.772703">
        <ele>354.9</ele>
        <time>1970-01-01T02:47:40.000Z</time>
      </trkpt>
      <trkpt lat="41.062753" lon="-6.772755">
        <ele>353.3</ele>
        <time>1970-01-01T02:47:41.000Z</time>
      </trkpt>
      <trkpt lat="41.062828" lon="-6.772796">
        <ele>351.9</ele>
        <time>1970-01-01T02:47:42.000Z</time>
      </trkpt>
      <trkpt lat="41.062906" lon="-6.772826">
        <ele>350.1</ele>
        <time>1970-01-01T02:47:43.000Z</time>
      </trkpt>
      <trkpt lat="41.062987" lon="-6.77285">
        <ele>348.6</ele>
        <time>1970-01-01T02:47:44.000Z</time>
      </trkpt>
      <trkpt lat="41.063071" lon="-6.772878">
        <ele>347.1</ele>
        <time>1970-01-01T02:47:45.000Z</time>
      </trkpt>
      <trkpt lat="41.063153" lon="-6.772912">
        <ele>345.6</ele>
        <time>1970-01-01T02:47:46.000Z</time>
      </trkpt>
      <trkpt lat="41.063232" lon="-6.772952">
        <ele>344.1</ele>
        <time>1970-01-01T02:47:47.000Z</time>
      </trkpt>
      <trkpt lat="41.063308" lon="-6.772999">
        <ele>342.6</ele>
        <time>1970-01-01T02:47:48.000Z</time>
      </trkpt>
      <trkpt lat="41.063385" lon="-6.77305">
        <ele>341.1</ele>
        <time>1970-01-01T02:47:49.000Z</time>
      </trkpt>
      <trkpt lat="41.063466" lon="-6.773105">
        <ele>339.5</ele>
        <time>1970-01-01T02:47:50.000Z</time>
      </trkpt>
      <trkpt lat="41.06355" lon="-6.773162">
        <ele>337.9</ele>
        <time>1970-01-01T02:47:51.000Z</time>
      </trkpt>
      <trkpt lat="41.063637" lon="-6.773218">
        <ele>336.2</ele>
        <time>1970-01-01T02:47:52.000Z</time>
      </trkpt>
      <trkpt lat="41.063724" lon="-6.773273">
        <ele>334.5</ele>
        <time>1970-01-01T02:47:53.000Z</time>
      </trkpt>
      <trkpt lat="41.063812" lon="-6.773324">
        <ele>332.8</ele>
        <time>1970-01-01T02:47:54.000Z</time>
      </trkpt>
      <trkpt lat="41.063898" lon="-6.773374">
        <ele>331.2</ele>
        <time>1970-01-01T02:47:55.000Z</time>
      </trkpt>
      <trkpt lat="41.06398" lon="-6.773421">
        <ele>329.6</ele>
        <time>1970-01-01T02:47:56.000Z</time>
      </trkpt>
      <trkpt lat="41.064061" lon="-6.773467">
        <ele>328</ele>
        <time>1970-01-01T02:47:57.000Z</time>
      </trkpt>
      <trkpt lat="41.06414" lon="-6.773512">
        <ele>326.5</ele>
        <time>1970-01-01T02:47:58.000Z</time>
      </trkpt>
      <trkpt lat="41.064218" lon="-6.773558">
        <ele>325</ele>
        <time>1970-01-01T02:47:59.000Z</time>
      </trkpt>
      <trkpt lat="41.064292" lon="-6.773606">
        <ele>323.6</ele>
        <time>1970-01-01T02:48:00.000Z</time>
      </trkpt>
      <trkpt lat="41.064364" lon="-6.773653">
        <ele>322.2</ele>
        <time>1970-01-01T02:48:01.000Z</time>
      </trkpt>
      <trkpt lat="41.064433" lon="-6.773696">
        <ele>320.8</ele>
        <time>1970-01-01T02:48:02.000Z</time>
      </trkpt>
      <trkpt lat="41.064503" lon="-6.773736">
        <ele>319.5</ele>
        <time>1970-01-01T02:48:03.000Z</time>
      </trkpt>
      <trkpt lat="41.064573" lon="-6.773774">
        <ele>318.2</ele>
        <time>1970-01-01T02:48:04.000Z</time>
      </trkpt>
      <trkpt lat="41.064642" lon="-6.773812">
        <ele>316.9</ele>
        <time>1970-01-01T02:48:05.000Z</time>
      </trkpt>
      <trkpt lat="41.064707" lon="-6.773848">
        <ele>315.6</ele>
        <time>1970-01-01T02:48:06.000Z</time>
      </trkpt>
      <trkpt lat="41.064767" lon="-6.773887">
        <ele>314.4</ele>
        <time>1970-01-01T02:48:07.000Z</time>
      </trkpt>
      <trkpt lat="41.064819" lon="-6.773933">
        <ele>313.3</ele>
        <time>1970-01-01T02:48:08.000Z</time>
      </trkpt>
      <trkpt lat="41.064865" lon="-6.773985">
        <ele>312.3</ele>
        <time>1970-01-01T02:48:09.000Z</time>
      </trkpt>
      <trkpt lat="41.064906" lon="-6.774044">
        <ele>311.2</ele>
        <time>1970-01-01T02:48:10.000Z</time>
      </trkpt>
      <trkpt lat="41.064946" lon="-6.774104">
        <ele>310.2</ele>
        <time>1970-01-01T02:48:11.000Z</time>
      </trkpt>
      <trkpt lat="41.064981" lon="-6.774151">
        <ele>309.3</ele>
        <time>1970-01-01T02:48:12.000Z</time>
      </trkpt>
      <trkpt lat="41.065007" lon="-6.774176">
        <ele>308.7</ele>
        <time>1970-01-01T02:48:13.000Z</time>
      </trkpt>
      <trkpt lat="41.065029" lon="-6.774173">
        <ele>308.3</ele>
        <time>1970-01-01T02:48:14.000Z</time>
      </trkpt>
      <trkpt lat="41.065046" lon="-6.774147">
        <ele>308</ele>
        <time>1970-01-01T02:48:15.000Z</time>
      </trkpt>
      <trkpt lat="41.065056" lon="-6.774111">
        <ele>307.7</ele>
        <time>1970-01-01T02:48:16.000Z</time>
      </trkpt>
      <trkpt lat="41.065054" lon="-6.774066">
        <ele>307.3</ele>
        <time>1970-01-01T02:48:17.000Z</time>
      </trkpt>
      <trkpt lat="41.06504" lon="-6.774016">
        <ele>306.8</ele>
        <time>1970-01-01T02:48:18.000Z</time>
      </trkpt>
      <trkpt lat="41.06502" lon="-6.773954">
        <ele>306.2</ele>
        <time>1970-01-01T02:48:19.000Z</time>
      </trkpt>
      <trkpt lat="41.064994" lon="-6.77388">
        <ele>305.5</ele>
        <time>1970-01-01T02:48:20.000Z</time>
      </trkpt>
      <trkpt lat="41.064963" lon="-6.773797">
        <ele>304.7</ele>
        <time>1970-01-01T02:48:21.000Z</time>
      </trkpt>
      <trkpt lat="41.064931" lon="-6.773708">
        <ele>303.8</ele>
        <time>1970-01-01T02:48:22.000Z</time>
      </trkpt>
      <trkpt lat="41.064893" lon="-6.773616">
        <ele>302.9</ele>
        <time>1970-01-01T02:48:23.000Z</time>
      </trkpt>
      <trkpt lat="41.064845" lon="-6.77352">
        <ele>301.9</ele>
        <time>1970-01-01T02:48:24.000Z</time>
      </trkpt>
      <trkpt lat="41.064787" lon="-6.773419">
        <ele>300.7</ele>
        <time>1970-01-01T02:48:25.000Z</time>
      </trkpt>
      <trkpt lat="41.064727" lon="-6.773317">
        <ele>299.6</ele>
        <time>1970-01-01T02:48:26.000Z</time>
      </trkpt>
      <trkpt lat="41.064669" lon="-6.773214">
        <ele>298.5</ele>
        <time>1970-01-01T02:48:27.000Z</time>
      </trkpt>
      <trkpt lat="41.064613" lon="-6.773111">
        <ele>297.3</ele>
        <time>1970-01-01T02:48:28.000Z</time>
      </trkpt>
      <trkpt lat="41.064558" lon="-6.773006">
        <ele>296.2</ele>
        <time>1970-01-01T02:48:29.000Z</time>
      </trkpt>
      <trkpt lat="41.064503" lon="-6.772901">
        <ele>295.1</ele>
        <time>1970-01-01T02:48:30.000Z</time>
      </trkpt>
      <trkpt lat="41.064446" lon="-6.772793">
        <ele>293.9</ele>
        <time>1970-01-01T02:48:31.000Z</time>
      </trkpt>
      <trkpt lat="41.064385" lon="-6.772684">
        <ele>292.7</ele>
        <time>1970-01-01T02:48:32.000Z</time>
      </trkpt>
      <trkpt lat="41.064326" lon="-6.772577">
        <ele>291.6</ele>
        <time>1970-01-01T02:48:33.000Z</time>
      </trkpt>
      <trkpt lat="41.064268" lon="-6.772477">
        <ele>290.4</ele>
        <time>1970-01-01T02:48:34.000Z</time>
      </trkpt>
      <trkpt lat="41.064216" lon="-6.772384">
        <ele>289.4</ele>
        <time>1970-01-01T02:48:35.000Z</time>
      </trkpt>
      <trkpt lat="41.064172" lon="-6.772297">
        <ele>288.5</ele>
        <time>1970-01-01T02:48:36.000Z</time>
      </trkpt>
      <trkpt lat="41.064137" lon="-6.772211">
        <ele>287.6</ele>
        <time>1970-01-01T02:48:37.000Z</time>
      </trkpt>
      <trkpt lat="41.064105" lon="-6.772123">
        <ele>286.8</ele>
        <time>1970-01-01T02:48:38.000Z</time>
      </trkpt>
      <trkpt lat="41.064084" lon="-6.772031">
        <ele>285.9</ele>
        <time>1970-01-01T02:48:39.000Z</time>
      </trkpt>
      <trkpt lat="41.064085" lon="-6.771941">
        <ele>285.1</ele>
        <time>1970-01-01T02:48:40.000Z</time>
      </trkpt>
      <trkpt lat="41.064113" lon="-6.771843">
        <ele>284.2</ele>
        <time>1970-01-01T02:48:41.000Z</time>
      </trkpt>
      <trkpt lat="41.064153" lon="-6.771736">
        <ele>283.2</ele>
        <time>1970-01-01T02:48:42.000Z</time>
      </trkpt>
      <trkpt lat="41.064192" lon="-6.771619">
        <ele>282</ele>
        <time>1970-01-01T02:48:43.000Z</time>
      </trkpt>
      <trkpt lat="41.064229" lon="-6.771501">
        <ele>280.9</ele>
        <time>1970-01-01T02:48:44.000Z</time>
      </trkpt>
      <trkpt lat="41.064267" lon="-6.771391">
        <ele>279.8</ele>
        <time>1970-01-01T02:48:45.000Z</time>
      </trkpt>
      <trkpt lat="41.064305" lon="-6.771283">
        <ele>278.8</ele>
        <time>1970-01-01T02:48:46.000Z</time>
      </trkpt>
      <trkpt lat="41.064336" lon="-6.771177">
        <ele>277.8</ele>
        <time>1970-01-01T02:48:47.000Z</time>
      </trkpt>
      <trkpt lat="41.064361" lon="-6.771067">
        <ele>276.8</ele>
        <time>1970-01-01T02:48:48.000Z</time>
      </trkpt>
      <trkpt lat="41.064383" lon="-6.770955">
        <ele>275.7</ele>
        <time>1970-01-01T02:48:49.000Z</time>
      </trkpt>
      <trkpt lat="41.064404" lon="-6.770841">
        <ele>274.7</ele>
        <time>1970-01-01T02:48:50.000Z</time>
      </trkpt>
      <trkpt lat="41.064417" lon="-6.77073">
        <ele>273.7</ele>
        <time>1970-01-01T02:48:51.000Z</time>
      </trkpt>
      <trkpt lat="41.064425" lon="-6.770627">
        <ele>272.8</ele>
        <time>1970-01-01T02:48:52.000Z</time>
      </trkpt>
      <trkpt lat="41.064431" lon="-6.770535">
        <ele>272</ele>
        <time>1970-01-01T02:48:53.000Z</time>
      </trkpt>
      <trkpt lat="41.064447" lon="-6.770467">
        <ele>271.4</ele>
        <time>1970-01-01T02:48:54.000Z</time>
      </trkpt>
      <trkpt lat="41.064468" lon="-6.770429">
        <ele>270.9</ele>
        <time>1970-01-01T02:48:55.000Z</time>
      </trkpt>
      <trkpt lat="41.064497" lon="-6.770421">
        <ele>270.6</ele>
        <time>1970-01-01T02:48:56.000Z</time>
      </trkpt>
      <trkpt lat="41.06453" lon="-6.770432">
        <ele>270.2</ele>
        <time>1970-01-01T02:48:57.000Z</time>
      </trkpt>
      <trkpt lat="41.064562" lon="-6.770461">
        <ele>269.8</ele>
        <time>1970-01-01T02:48:58.000Z</time>
      </trkpt>
      <trkpt lat="41.064588" lon="-6.770506">
        <ele>269.3</ele>
        <time>1970-01-01T02:48:59.000Z</time>
      </trkpt>
      <trkpt lat="41.064604" lon="-6.770568">
        <ele>268.7</ele>
        <time>1970-01-01T02:49:00.000Z</time>
      </trkpt>
      <trkpt lat="41.064619" lon="-6.77064">
        <ele>268</ele>
        <time>1970-01-01T02:49:01.000Z</time>
      </trkpt>
      <trkpt lat="41.064632" lon="-6.770719">
        <ele>267.3</ele>
        <time>1970-01-01T02:49:02.000Z</time>
      </trkpt>
      <trkpt lat="41.064642" lon="-6.770806">
        <ele>266.5</ele>
        <time>1970-01-01T02:49:03.000Z</time>
      </trkpt>
      <trkpt lat="41.064654" lon="-6.770902">
        <ele>265.7</ele>
        <time>1970-01-01T02:49:04.000Z</time>
      </trkpt>
      <trkpt lat="41.064668" lon="-6.771007">
        <ele>264.7</ele>
        <time>1970-01-01T02:49:05.000Z</time>
      </trkpt>
      <trkpt lat="41.064681" lon="-6.771118">
        <ele>263.7</ele>
        <time>1970-01-01T02:49:06.000Z</time>
      </trkpt>
      <trkpt lat="41.06469" lon="-6.771234">
        <ele>262.7</ele>
        <time>1970-01-01T02:49:07.000Z</time>
      </trkpt>
      <trkpt lat="41.064694" lon="-6.771352">
        <ele>261.7</ele>
        <time>1970-01-01T02:49:08.000Z</time>
      </trkpt>
      <trkpt lat="41.064699" lon="-6.771472">
        <ele>260.6</ele>
        <time>1970-01-01T02:49:09.000Z</time>
      </trkpt>
      <trkpt lat="41.064712" lon="-6.771587">
        <ele>259.6</ele>
        <time>1970-01-01T02:49:10.000Z</time>
      </trkpt>
      <trkpt lat="41.064738" lon="-6.771695">
        <ele>258.6</ele>
        <time>1970-01-01T02:49:11.000Z</time>
      </trkpt>
      <trkpt lat="41.064777" lon="-6.771788">
        <ele>257.6</ele>
        <time>1970-01-01T02:49:12.000Z</time>
      </trkpt>
      <trkpt lat="41.06482" lon="-6.771867">
        <ele>256.8</ele>
        <time>1970-01-01T02:49:13.000Z</time>
      </trkpt>
      <trkpt lat="41.064873" lon="-6.771937">
        <ele>255.9</ele>
        <time>1970-01-01T02:49:14.000Z</time>
      </trkpt>
      <trkpt lat="41.064938" lon="-6.772005">
        <ele>254.9</ele>
        <time>1970-01-01T02:49:15.000Z</time>
      </trkpt>
      <trkpt lat="41.06502" lon="-6.772073">
        <ele>253.8</ele>
        <time>1970-01-01T02:49:16.000Z</time>
      </trkpt>
      <trkpt lat="41.065108" lon="-6.772138">
        <ele>252.6</ele>
        <time>1970-01-01T02:49:17.000Z</time>
      </trkpt>
      <trkpt lat="41.065199" lon="-6.7722">
        <ele>251.4</ele>
        <time>1970-01-01T02:49:18.000Z</time>
      </trkpt>
      <trkpt lat="41.065292" lon="-6.772258">
        <ele>250.2</ele>
        <time>1970-01-01T02:49:19.000Z</time>
      </trkpt>
      <trkpt lat="41.065386" lon="-6.77231">
        <ele>249</ele>
        <time>1970-01-01T02:49:20.000Z</time>
      </trkpt>
      <trkpt lat="41.065479" lon="-6.772359">
        <ele>247.9</ele>
        <time>1970-01-01T02:49:21.000Z</time>
      </trkpt>
      <trkpt lat="41.065568" lon="-6.772409">
        <ele>246.7</ele>
        <time>1970-01-01T02:49:22.000Z</time>
      </trkpt>
      <trkpt lat="41.065651" lon="-6.772464">
        <ele>245.7</ele>
        <time>1970-01-01T02:49:23.000Z</time>
      </trkpt>
      <trkpt lat="41.065726" lon="-6.772527">
        <ele>244.6</ele>
        <time>1970-01-01T02:49:24.000Z</time>
      </trkpt>
      <trkpt lat="41.065792" lon="-6.772603">
        <ele>243.6</ele>
        <time>1970-01-01T02:49:25.000Z</time>
      </trkpt>
      <trkpt lat="41.065853" lon="-6.77269">
        <ele>242.5</ele>
        <time>1970-01-01T02:49:26.000Z</time>
      </trkpt>
      <trkpt lat="41.065914" lon="-6.772786">
        <ele>241.4</ele>
        <time>1970-01-01T02:49:27.000Z</time>
      </trkpt>
      <trkpt lat="41.065975" lon="-6.772886">
        <ele>240.3</ele>
        <time>1970-01-01T02:49:28.000Z</time>
      </trkpt>
      <trkpt lat="41.066037" lon="-6.772989">
        <ele>239.1</ele>
        <time>1970-01-01T02:49:29.000Z</time>
      </trkpt>
      <trkpt lat="41.0661" lon="-6.773094">
        <ele>238</ele>
        <time>1970-01-01T02:49:30.000Z</time>
      </trkpt>
      <trkpt lat="41.066163" lon="-6.7732">
        <ele>236.8</ele>
        <time>1970-01-01T02:49:31.000Z</time>
      </trkpt>
      <trkpt lat="41.066228" lon="-6.773308">
        <ele>235.5</ele>
        <time>1970-01-01T02:49:32.000Z</time>
      </trkpt>
      <trkpt lat="41.066292" lon="-6.77342">
        <ele>234.3</ele>
        <time>1970-01-01T02:49:33.000Z</time>
      </trkpt>
      <trkpt lat="41.066356" lon="-6.773535">
        <ele>233</ele>
        <time>1970-01-01T02:49:34.000Z</time>
      </trkpt>
      <trkpt lat="41.06642" lon="-6.773654">
        <ele>231.8</ele>
        <time>1970-01-01T02:49:35.000Z</time>
      </trkpt>
      <trkpt lat="41.066482" lon="-6.773774">
        <ele>230.5</ele>
        <time>1970-01-01T02:49:36.000Z</time>
      </trkpt>
      <trkpt lat="41.066543" lon="-6.773893">
        <ele>229.2</ele>
        <time>1970-01-01T02:49:37.000Z</time>
      </trkpt>
      <trkpt lat="41.0666" lon="-6.774007">
        <ele>228</ele>
        <time>1970-01-01T02:49:38.000Z</time>
      </trkpt>
      <trkpt lat="41.066655" lon="-6.774118">
        <ele>226.8</ele>
        <time>1970-01-01T02:49:39.000Z</time>
      </trkpt>
      <trkpt lat="41.066709" lon="-6.774231">
        <ele>225.6</ele>
        <time>1970-01-01T02:49:40.000Z</time>
      </trkpt>
      <trkpt lat="41.066761" lon="-6.774351">
        <ele>224.4</ele>
        <time>1970-01-01T02:49:41.000Z</time>
      </trkpt>
      <trkpt lat="41.066812" lon="-6.77448">
        <ele>223.1</ele>
        <time>1970-01-01T02:49:42.000Z</time>
      </trkpt>
      <trkpt lat="41.066863" lon="-6.774615">
        <ele>221.8</ele>
        <time>1970-01-01T02:49:43.000Z</time>
      </trkpt>
      <trkpt lat="41.066917" lon="-6.774754">
        <ele>220.4</ele>
        <time>1970-01-01T02:49:44.000Z</time>
      </trkpt>
      <trkpt lat="41.066977" lon="-6.774891">
        <ele>219</ele>
        <time>1970-01-01T02:49:45.000Z</time>
      </trkpt>
      <trkpt lat="41.067042" lon="-6.775024">
        <ele>217.6</ele>
        <time>1970-01-01T02:49:46.000Z</time>
      </trkpt>
      <trkpt lat="41.067116" lon="-6.775148">
        <ele>216.2</ele>
        <time>1970-01-01T02:49:47.000Z</time>
      </trkpt>
      <trkpt lat="41.0672" lon="-6.775253">
        <ele>214.9</ele>
        <time>1970-01-01T02:49:48.000Z</time>
      </trkpt>
      <trkpt lat="41.067291" lon="-6.775339">
        <ele>213.6</ele>
        <time>1970-01-01T02:49:49.000Z</time>
      </trkpt>
      <trkpt lat="41.067386" lon="-6.77541">
        <ele>212.3</ele>
        <time>1970-01-01T02:49:50.000Z</time>
      </trkpt>
      <trkpt lat="41.067483" lon="-6.775468">
        <ele>211.1</ele>
        <time>1970-01-01T02:49:51.000Z</time>
      </trkpt>
      <trkpt lat="41.067585" lon="-6.775514">
        <ele>209.8</ele>
        <time>1970-01-01T02:49:52.000Z</time>
      </trkpt>
      <trkpt lat="41.067684" lon="-6.775549">
        <ele>208.6</ele>
        <time>1970-01-01T02:49:53.000Z</time>
      </trkpt>
      <trkpt lat="41.067777" lon="-6.775588">
        <ele>207.5</ele>
        <time>1970-01-01T02:49:54.000Z</time>
      </trkpt>
      <trkpt lat="41.06786" lon="-6.775638">
        <ele>206.4</ele>
        <time>1970-01-01T02:49:55.000Z</time>
      </trkpt>
      <trkpt lat="41.067929" lon="-6.775701">
        <ele>205.4</ele>
        <time>1970-01-01T02:49:56.000Z</time>
      </trkpt>
      <trkpt lat="41.067987" lon="-6.775771">
        <ele>205.2</ele>
        <time>1970-01-01T02:49:57.000Z</time>
      </trkpt>
      <trkpt lat="41.068031" lon="-6.775834">
        <ele>205.1</ele>
        <time>1970-01-01T02:49:58.000Z</time>
      </trkpt>
      <trkpt lat="41.068063" lon="-6.775875">
        <ele>204.9</ele>
        <time>1970-01-01T02:49:59.000Z</time>
      </trkpt>
      <trkpt lat="41.068082" lon="-6.775888">
        <ele>204.8</ele>
        <time>1970-01-01T02:50:00.000Z</time>
      </trkpt>
      <trkpt lat="41.068096" lon="-6.775881">
        <ele>204.7</ele>
        <time>1970-01-01T02:50:01.000Z</time>
      </trkpt>
      <trkpt lat="41.068106" lon="-6.77586">
        <ele>204.6</ele>
        <time>1970-01-01T02:50:02.000Z</time>
      </trkpt>
      <trkpt lat="41.068073" lon="-6.775781">
        <ele>204.3</ele>
        <time>1970-01-01T02:50:03.000Z</time>
      </trkpt>
      <trkpt lat="41.068041" lon="-6.775726">
        <ele>204.1</ele>
        <time>1970-01-01T02:50:04.000Z</time>
      </trkpt>
      <trkpt lat="41.068009" lon="-6.775672">
        <ele>204</ele>
        <time>1970-01-01T02:50:05.000Z</time>
      </trkpt>
      <trkpt lat="41.067977" lon="-6.775618">
        <ele>203.9</ele>
        <time>1970-01-01T02:50:06.000Z</time>
      </trkpt>
      <trkpt lat="41.067945" lon="-6.775564">
        <ele>203.6</ele>
        <time>1970-01-01T02:50:07.000Z</time>
      </trkpt>
      <trkpt lat="41.067913" lon="-6.775509">
        <ele>203.3</ele>
        <time>1970-01-01T02:50:08.000Z</time>
      </trkpt>
      <trkpt lat="41.067881" lon="-6.775455">
        <ele>203</ele>
        <time>1970-01-01T02:50:09.000Z</time>
      </trkpt>
      <trkpt lat="41.067849" lon="-6.775401">
        <ele>202.6</ele>
        <time>1970-01-01T02:50:10.000Z</time>
      </trkpt>
      <trkpt lat="41.06778" lon="-6.775324">
        <ele>201.9</ele>
        <time>1970-01-01T02:50:11.000Z</time>
      </trkpt>
      <trkpt lat="41.067707" lon="-6.77524">
        <ele>200.9</ele>
        <time>1970-01-01T02:50:12.000Z</time>
      </trkpt>
      <trkpt lat="41.067635" lon="-6.775151">
        <ele>200</ele>
        <time>1970-01-01T02:50:13.000Z</time>
      </trkpt>
      <trkpt lat="41.067567" lon="-6.775058">
        <ele>199.7</ele>
        <time>1970-01-01T02:50:14.000Z</time>
      </trkpt>
      <trkpt lat="41.067507" lon="-6.774965">
        <ele>199.8</ele>
        <time>1970-01-01T02:50:15.000Z</time>
      </trkpt>
      <trkpt lat="41.067453" lon="-6.774876">
        <ele>200.2</ele>
        <time>1970-01-01T02:50:16.000Z</time>
      </trkpt>
      <trkpt lat="41.067403" lon="-6.774791">
        <ele>200.6</ele>
        <time>1970-01-01T02:50:17.000Z</time>
      </trkpt>
      <trkpt lat="41.067359" lon="-6.774713">
        <ele>200.8</ele>
        <time>1970-01-01T02:50:18.000Z</time>
      </trkpt>
      <trkpt lat="41.067323" lon="-6.774641">
        <ele>201</ele>
        <time>1970-01-01T02:50:19.000Z</time>
      </trkpt>
      <trkpt lat="41.067292" lon="-6.77457">
        <ele>201</ele>
        <time>1970-01-01T02:50:20.000Z</time>
      </trkpt>
      <trkpt lat="41.067275" lon="-6.774495">
        <ele>200.7</ele>
        <time>1970-01-01T02:50:21.000Z</time>
      </trkpt>
      <trkpt lat="41.067268" lon="-6.774414">
        <ele>200.1</ele>
        <time>1970-01-01T02:50:22.000Z</time>
      </trkpt>
      <trkpt lat="41.067273" lon="-6.774324">
        <ele>199.3</ele>
        <time>1970-01-01T02:50:23.000Z</time>
      </trkpt>
      <trkpt lat="41.067276" lon="-6.774224">
        <ele>198</ele>
        <time>1970-01-01T02:50:24.000Z</time>
      </trkpt>
      <trkpt lat="41.067264" lon="-6.774119">
        <ele>196.6</ele>
        <time>1970-01-01T02:50:25.000Z</time>
      </trkpt>
      <trkpt lat="41.067241" lon="-6.774019">
        <ele>195.5</ele>
        <time>1970-01-01T02:50:26.000Z</time>
      </trkpt>
      <trkpt lat="41.067211" lon="-6.773933">
        <ele>195.3</ele>
        <time>1970-01-01T02:50:27.000Z</time>
      </trkpt>
      <trkpt lat="41.067187" lon="-6.773862">
        <ele>195.8</ele>
        <time>1970-01-01T02:50:28.000Z</time>
      </trkpt>
      <trkpt lat="41.067166" lon="-6.773801">
        <ele>196.4</ele>
        <time>1970-01-01T02:50:29.000Z</time>
      </trkpt>
      <trkpt lat="41.06715" lon="-6.773743">
        <ele>197</ele>
        <time>1970-01-01T02:50:30.000Z</time>
      </trkpt>
      <trkpt lat="41.067135" lon="-6.773689">
        <ele>197.7</ele>
        <time>1970-01-01T02:50:31.000Z</time>
      </trkpt>
      <trkpt lat="41.067124" lon="-6.773635">
        <ele>198.3</ele>
        <time>1970-01-01T02:50:32.000Z</time>
      </trkpt>
      <trkpt lat="41.067115" lon="-6.773582">
        <ele>198.8</ele>
        <time>1970-01-01T02:50:33.000Z</time>
      </trkpt>
      <trkpt lat="41.067105" lon="-6.773526">
        <ele>199.4</ele>
        <time>1970-01-01T02:50:34.000Z</time>
      </trkpt>
      <trkpt lat="41.067098" lon="-6.77347">
        <ele>199.9</ele>
        <time>1970-01-01T02:50:35.000Z</time>
      </trkpt>
      <trkpt lat="41.067091" lon="-6.773415">
        <ele>200.4</ele>
        <time>1970-01-01T02:50:36.000Z</time>
      </trkpt>
      <trkpt lat="41.067085" lon="-6.773361">
        <ele>200.8</ele>
        <time>1970-01-01T02:50:37.000Z</time>
      </trkpt>
      <trkpt lat="41.067077" lon="-6.773306">
        <ele>201.2</ele>
        <time>1970-01-01T02:50:38.000Z</time>
      </trkpt>
      <trkpt lat="41.067068" lon="-6.773252">
        <ele>201.5</ele>
        <time>1970-01-01T02:50:39.000Z</time>
      </trkpt>
      <trkpt lat="41.067061" lon="-6.773197">
        <ele>201.8</ele>
        <time>1970-01-01T02:50:40.000Z</time>
      </trkpt>
      <trkpt lat="41.067052" lon="-6.773144">
        <ele>201.8</ele>
        <time>1970-01-01T02:50:41.000Z</time>
      </trkpt>
      <trkpt lat="41.067044" lon="-6.77309">
        <ele>201.8</ele>
        <time>1970-01-01T02:50:42.000Z</time>
      </trkpt>
      <trkpt lat="41.067034" lon="-6.773036">
        <ele>201.7</ele>
        <time>1970-01-01T02:50:43.000Z</time>
      </trkpt>
      <trkpt lat="41.067023" lon="-6.77298">
        <ele>201.6</ele>
        <time>1970-01-01T02:50:44.000Z</time>
      </trkpt>
      <trkpt lat="41.067013" lon="-6.772923">
        <ele>201.6</ele>
        <time>1970-01-01T02:50:45.000Z</time>
      </trkpt>
      <trkpt lat="41.067001" lon="-6.772866">
        <ele>201.8</ele>
        <time>1970-01-01T02:50:46.000Z</time>
      </trkpt>
      <trkpt lat="41.066987" lon="-6.77281">
        <ele>202.1</ele>
        <time>1970-01-01T02:50:47.000Z</time>
      </trkpt>
      <trkpt lat="41.06697" lon="-6.772758">
        <ele>202.7</ele>
        <time>1970-01-01T02:50:48.000Z</time>
      </trkpt>
      <trkpt lat="41.066951" lon="-6.772707">
        <ele>203.3</ele>
        <time>1970-01-01T02:50:49.000Z</time>
      </trkpt>
      <trkpt lat="41.066931" lon="-6.772656">
        <ele>204.1</ele>
        <time>1970-01-01T02:50:50.000Z</time>
      </trkpt>
      <trkpt lat="41.066911" lon="-6.772604">
        <ele>204.8</ele>
        <time>1970-01-01T02:50:51.000Z</time>
      </trkpt>
      <trkpt lat="41.066893" lon="-6.772552">
        <ele>205.5</ele>
        <time>1970-01-01T02:50:52.000Z</time>
      </trkpt>
      <trkpt lat="41.066874" lon="-6.772501">
        <ele>206.1</ele>
        <time>1970-01-01T02:50:53.000Z</time>
      </trkpt>
      <trkpt lat="41.066856" lon="-6.772448">
        <ele>206.6</ele>
        <time>1970-01-01T02:50:54.000Z</time>
      </trkpt>
      <trkpt lat="41.066838" lon="-6.772396">
        <ele>206.9</ele>
        <time>1970-01-01T02:50:55.000Z</time>
      </trkpt>
      <trkpt lat="41.066819" lon="-6.772342">
        <ele>207.3</ele>
        <time>1970-01-01T02:50:56.000Z</time>
      </trkpt>
      <trkpt lat="41.066801" lon="-6.772286">
        <ele>207.6</ele>
        <time>1970-01-01T02:50:57.000Z</time>
      </trkpt>
      <trkpt lat="41.066781" lon="-6.772229">
        <ele>208</ele>
        <time>1970-01-01T02:50:58.000Z</time>
      </trkpt>
      <trkpt lat="41.066762" lon="-6.772171">
        <ele>208.5</ele>
        <time>1970-01-01T02:50:59.000Z</time>
      </trkpt>
      <trkpt lat="41.066742" lon="-6.772113">
        <ele>208.9</ele>
        <time>1970-01-01T02:51:00.000Z</time>
      </trkpt>
      <trkpt lat="41.066724" lon="-6.772054">
        <ele>209.4</ele>
        <time>1970-01-01T02:51:01.000Z</time>
      </trkpt>
      <trkpt lat="41.066706" lon="-6.771995">
        <ele>209.8</ele>
        <time>1970-01-01T02:51:02.000Z</time>
      </trkpt>
      <trkpt lat="41.066688" lon="-6.771936">
        <ele>210.1</ele>
        <time>1970-01-01T02:51:03.000Z</time>
      </trkpt>
      <trkpt lat="41.066671" lon="-6.771874">
        <ele>210.4</ele>
        <time>1970-01-01T02:51:04.000Z</time>
      </trkpt>
      <trkpt lat="41.066654" lon="-6.771808">
        <ele>210.6</ele>
        <time>1970-01-01T02:51:05.000Z</time>
      </trkpt>
      <trkpt lat="41.066638" lon="-6.771738">
        <ele>210.7</ele>
        <time>1970-01-01T02:51:06.000Z</time>
      </trkpt>
      <trkpt lat="41.066623" lon="-6.771669">
        <ele>210.7</ele>
        <time>1970-01-01T02:51:07.000Z</time>
      </trkpt>
      <trkpt lat="41.066609" lon="-6.771598">
        <ele>210.7</ele>
        <time>1970-01-01T02:51:08.000Z</time>
      </trkpt>
      <trkpt lat="41.066593" lon="-6.771523">
        <ele>210.5</ele>
        <time>1970-01-01T02:51:09.000Z</time>
      </trkpt>
      <trkpt lat="41.066577" lon="-6.771444">
        <ele>210.4</ele>
        <time>1970-01-01T02:51:10.000Z</time>
      </trkpt>
      <trkpt lat="41.06656" lon="-6.77136">
        <ele>210.3</ele>
        <time>1970-01-01T02:51:11.000Z</time>
      </trkpt>
      <trkpt lat="41.066542" lon="-6.771275">
        <ele>210.2</ele>
        <time>1970-01-01T02:51:12.000Z</time>
      </trkpt>
      <trkpt lat="41.066523" lon="-6.771188">
        <ele>210.2</ele>
        <time>1970-01-01T02:51:13.000Z</time>
      </trkpt>
      <trkpt lat="41.066505" lon="-6.771103">
        <ele>210.3</ele>
        <time>1970-01-01T02:51:14.000Z</time>
      </trkpt>
      <trkpt lat="41.066487" lon="-6.77102">
        <ele>210.5</ele>
        <time>1970-01-01T02:51:15.000Z</time>
      </trkpt>
      <trkpt lat="41.066468" lon="-6.770941">
        <ele>210.6</ele>
        <time>1970-01-01T02:51:16.000Z</time>
      </trkpt>
      <trkpt lat="41.066446" lon="-6.770866">
        <ele>210.8</ele>
        <time>1970-01-01T02:51:17.000Z</time>
      </trkpt>
      <trkpt lat="41.066422" lon="-6.770792">
        <ele>211</ele>
        <time>1970-01-01T02:51:18.000Z</time>
      </trkpt>
      <trkpt lat="41.066394" lon="-6.770719">
        <ele>211.5</ele>
        <time>1970-01-01T02:51:19.000Z</time>
      </trkpt>
      <trkpt lat="41.066364" lon="-6.770654">
        <ele>212</ele>
        <time>1970-01-01T02:51:20.000Z</time>
      </trkpt>
      <trkpt lat="41.066334" lon="-6.770597">
        <ele>212.4</ele>
        <time>1970-01-01T02:51:21.000Z</time>
      </trkpt>
      <trkpt lat="41.066309" lon="-6.770543">
        <ele>212.9</ele>
        <time>1970-01-01T02:51:22.000Z</time>
      </trkpt>
      <trkpt lat="41.066287" lon="-6.77049">
        <ele>213.2</ele>
        <time>1970-01-01T02:51:23.000Z</time>
      </trkpt>
      <trkpt lat="41.066276" lon="-6.77044">
        <ele>213.4</ele>
        <time>1970-01-01T02:51:24.000Z</time>
      </trkpt>
      <trkpt lat="41.066278" lon="-6.770404">
        <ele>213.4</ele>
        <time>1970-01-01T02:51:25.000Z</time>
      </trkpt>
      <trkpt lat="41.066303" lon="-6.770393">
        <ele>213.4</ele>
        <time>1970-01-01T02:51:26.000Z</time>
      </trkpt>
      <trkpt lat="41.066339" lon="-6.770401">
        <ele>213.1</ele>
        <time>1970-01-01T02:51:27.000Z</time>
      </trkpt>
      <trkpt lat="41.066379" lon="-6.77042">
        <ele>212.7</ele>
        <time>1970-01-01T02:51:28.000Z</time>
      </trkpt>
      <trkpt lat="41.066411" lon="-6.770434">
        <ele>212.3</ele>
        <time>1970-01-01T02:51:29.000Z</time>
      </trkpt>
      <trkpt lat="41.066435" lon="-6.770448">
        <ele>212.3</ele>
        <time>1970-01-01T02:51:30.000Z</time>
      </trkpt>
      <trkpt lat="41.066456" lon="-6.770464">
        <ele>212.2</ele>
        <time>1970-01-01T02:51:31.000Z</time>
      </trkpt>
      <trkpt lat="41.066476" lon="-6.770483">
        <ele>212.2</ele>
        <time>1970-01-01T02:51:32.000Z</time>
      </trkpt>
      <trkpt lat="41.066499" lon="-6.770503">
        <ele>212.1</ele>
        <time>1970-01-01T02:51:33.000Z</time>
      </trkpt>
      <trkpt lat="41.06652" lon="-6.770524">
        <ele>212</ele>
        <time>1970-01-01T02:51:34.000Z</time>
      </trkpt>
      <trkpt lat="41.066541" lon="-6.770544">
        <ele>212</ele>
        <time>1970-01-01T02:51:35.000Z</time>
      </trkpt>
      <trkpt lat="41.066562" lon="-6.770564">
        <ele>211.9</ele>
        <time>1970-01-01T02:51:36.000Z</time>
      </trkpt>
      <trkpt lat="41.06658" lon="-6.770584">
        <ele>211.8</ele>
        <time>1970-01-01T02:51:37.000Z</time>
      </trkpt>
      <trkpt lat="41.066598" lon="-6.770602">
        <ele>211.8</ele>
        <time>1970-01-01T02:51:38.000Z</time>
      </trkpt>
      <trkpt lat="41.066614" lon="-6.77062">
        <ele>211.7</ele>
        <time>1970-01-01T02:51:39.000Z</time>
      </trkpt>
      <trkpt lat="41.066632" lon="-6.770636">
        <ele>211.7</ele>
        <time>1970-01-01T02:51:40.000Z</time>
      </trkpt>
      <trkpt lat="41.06665" lon="-6.770652">
        <ele>211.6</ele>
        <time>1970-01-01T02:51:41.000Z</time>
      </trkpt>
      <trkpt lat="41.066667" lon="-6.770667">
        <ele>211.6</ele>
        <time>1970-01-01T02:51:42.000Z</time>
      </trkpt>
      <trkpt lat="41.066683" lon="-6.770682">
        <ele>211.5</ele>
        <time>1970-01-01T02:51:43.000Z</time>
      </trkpt>
      <trkpt lat="41.066698" lon="-6.770696">
        <ele>211.5</ele>
        <time>1970-01-01T02:51:44.000Z</time>
      </trkpt>
      <trkpt lat="41.066714" lon="-6.77071">
        <ele>211.4</ele>
        <time>1970-01-01T02:51:45.000Z</time>
      </trkpt>
      <trkpt lat="41.066729" lon="-6.770724">
        <ele>211.4</ele>
        <time>1970-01-01T02:51:46.000Z</time>
      </trkpt>
      <trkpt lat="41.066744" lon="-6.770738">
        <ele>211.4</ele>
        <time>1970-01-01T02:51:47.000Z</time>
      </trkpt>
      <trkpt lat="41.066759" lon="-6.770751">
        <ele>211.3</ele>
        <time>1970-01-01T02:51:48.000Z</time>
      </trkpt>
      <trkpt lat="41.066772" lon="-6.770763">
        <ele>211.3</ele>
        <time>1970-01-01T02:51:49.000Z</time>
      </trkpt>
      <trkpt lat="41.066785" lon="-6.770775">
        <ele>211.2</ele>
        <time>1970-01-01T02:51:50.000Z</time>
      </trkpt>
      <trkpt lat="41.066797" lon="-6.770789">
        <ele>211.2</ele>
        <time>1970-01-01T02:51:51.000Z</time>
      </trkpt>
      <trkpt lat="41.066808" lon="-6.770804">
        <ele>211.2</ele>
        <time>1970-01-01T02:51:52.000Z</time>
      </trkpt>
      <trkpt lat="41.066821" lon="-6.770819">
        <ele>211.1</ele>
        <time>1970-01-01T02:51:53.000Z</time>
      </trkpt>
      <trkpt lat="41.066833" lon="-6.770831">
        <ele>211.1</ele>
        <time>1970-01-01T02:51:54.000Z</time>
      </trkpt>
      <trkpt lat="41.066846" lon="-6.770842">
        <ele>211</ele>
        <time>1970-01-01T02:51:55.000Z</time>
      </trkpt>
      <trkpt lat="41.066857" lon="-6.770853">
        <ele>211</ele>
        <time>1970-01-01T02:51:56.000Z</time>
      </trkpt>
      <trkpt lat="41.066869" lon="-6.770866">
        <ele>211</ele>
        <time>1970-01-01T02:51:57.000Z</time>
      </trkpt>
      <trkpt lat="41.066883" lon="-6.770879">
        <ele>210.9</ele>
        <time>1970-01-01T02:51:58.000Z</time>
      </trkpt>
      <trkpt lat="41.066898" lon="-6.770892">
        <ele>210.9</ele>
        <time>1970-01-01T02:51:59.000Z</time>
      </trkpt>
      <trkpt lat="41.066911" lon="-6.770906">
        <ele>210.8</ele>
        <time>1970-01-01T02:52:00.000Z</time>
      </trkpt>
      <trkpt lat="41.066921" lon="-6.770918">
        <ele>210.8</ele>
        <time>1970-01-01T02:52:01.000Z</time>
      </trkpt>
      <trkpt lat="41.066931" lon="-6.77093">
        <ele>210.8</ele>
        <time>1970-01-01T02:52:02.000Z</time>
      </trkpt>
      <trkpt lat="41.066942" lon="-6.770941">
        <ele>210.7</ele>
        <time>1970-01-01T02:52:03.000Z</time>
      </trkpt>
      <trkpt lat="41.066953" lon="-6.770953">
        <ele>210.7</ele>
        <time>1970-01-01T02:52:04.000Z</time>
      </trkpt>
      <trkpt lat="41.066964" lon="-6.770966">
        <ele>210.7</ele>
        <time>1970-01-01T02:52:05.000Z</time>
      </trkpt>
      <trkpt lat="41.066976" lon="-6.77098">
        <ele>210.6</ele>
        <time>1970-01-01T02:52:06.000Z</time>
      </trkpt>
      <trkpt lat="41.066989" lon="-6.770994">
        <ele>210.6</ele>
        <time>1970-01-01T02:52:07.000Z</time>
      </trkpt>
      <trkpt lat="41.067002" lon="-6.771009">
        <ele>210.6</ele>
        <time>1970-01-01T02:52:08.000Z</time>
      </trkpt>
      <trkpt lat="41.067017" lon="-6.771023">
        <ele>210.5</ele>
        <time>1970-01-01T02:52:09.000Z</time>
      </trkpt>
      <trkpt lat="41.067031" lon="-6.771037">
        <ele>210.5</ele>
        <time>1970-01-01T02:52:10.000Z</time>
      </trkpt>
      <trkpt lat="41.067045" lon="-6.77105">
        <ele>210.4</ele>
        <time>1970-01-01T02:52:11.000Z</time>
      </trkpt>
      <trkpt lat="41.067059" lon="-6.771064">
        <ele>210.4</ele>
        <time>1970-01-01T02:52:12.000Z</time>
      </trkpt>
      <trkpt lat="41.067073" lon="-6.771078">
        <ele>210.3</ele>
        <time>1970-01-01T02:52:13.000Z</time>
      </trkpt>
      <trkpt lat="41.067088" lon="-6.771092">
        <ele>210.3</ele>
        <time>1970-01-01T02:52:14.000Z</time>
      </trkpt>
      <trkpt lat="41.067101" lon="-6.771106">
        <ele>210.3</ele>
        <time>1970-01-01T02:52:15.000Z</time>
      </trkpt>
      <trkpt lat="41.067114" lon="-6.77112">
        <ele>210.2</ele>
        <time>1970-01-01T02:52:16.000Z</time>
      </trkpt>
      <trkpt lat="41.067125" lon="-6.771132">
        <ele>210.2</ele>
        <time>1970-01-01T02:52:17.000Z</time>
      </trkpt>
      <trkpt lat="41.067136" lon="-6.771147">
        <ele>210.1</ele>
        <time>1970-01-01T02:52:18.000Z</time>
      </trkpt>
      <trkpt lat="41.067147" lon="-6.771164">
        <ele>210.1</ele>
        <time>1970-01-01T02:52:19.000Z</time>
      </trkpt>
      <trkpt lat="41.067161" lon="-6.771185">
        <ele>210.1</ele>
        <time>1970-01-01T02:52:20.000Z</time>
      </trkpt>
      <trkpt lat="41.067178" lon="-6.771208">
        <ele>210</ele>
        <time>1970-01-01T02:52:21.000Z</time>
      </trkpt>
      <trkpt lat="41.067196" lon="-6.77123">
        <ele>209.9</ele>
        <time>1970-01-01T02:52:22.000Z</time>
      </trkpt>
      <trkpt lat="41.067213" lon="-6.771253">
        <ele>209.9</ele>
        <time>1970-01-01T02:52:23.000Z</time>
      </trkpt>
      <trkpt lat="41.067228" lon="-6.771277">
        <ele>209.8</ele>
        <time>1970-01-01T02:52:24.000Z</time>
      </trkpt>
      <trkpt lat="41.067243" lon="-6.771301">
        <ele>209.8</ele>
        <time>1970-01-01T02:52:25.000Z</time>
      </trkpt>
      <trkpt lat="41.067259" lon="-6.771328">
        <ele>209.7</ele>
        <time>1970-01-01T02:52:26.000Z</time>
      </trkpt>
      <trkpt lat="41.067275" lon="-6.771355">
        <ele>209.6</ele>
        <time>1970-01-01T02:52:27.000Z</time>
      </trkpt>
      <trkpt lat="41.06729" lon="-6.771382">
        <ele>209.6</ele>
        <time>1970-01-01T02:52:28.000Z</time>
      </trkpt>
      <trkpt lat="41.067303" lon="-6.771409">
        <ele>209.5</ele>
        <time>1970-01-01T02:52:29.000Z</time>
      </trkpt>
      <trkpt lat="41.067317" lon="-6.771437">
        <ele>209.5</ele>
        <time>1970-01-01T02:52:30.000Z</time>
      </trkpt>
      <trkpt lat="41.067331" lon="-6.771466">
        <ele>209.4</ele>
        <time>1970-01-01T02:52:31.000Z</time>
      </trkpt>
      <trkpt lat="41.067346" lon="-6.771495">
        <ele>209.3</ele>
        <time>1970-01-01T02:52:32.000Z</time>
      </trkpt>
      <trkpt lat="41.067362" lon="-6.771525">
        <ele>209.3</ele>
        <time>1970-01-01T02:52:33.000Z</time>
      </trkpt>
      <trkpt lat="41.067377" lon="-6.771553">
        <ele>209.2</ele>
        <time>1970-01-01T02:52:34.000Z</time>
      </trkpt>
      <trkpt lat="41.067392" lon="-6.771581">
        <ele>209.1</ele>
        <time>1970-01-01T02:52:35.000Z</time>
      </trkpt>
      <trkpt lat="41.067406" lon="-6.77161">
        <ele>209.1</ele>
        <time>1970-01-01T02:52:36.000Z</time>
      </trkpt>
      <trkpt lat="41.067421" lon="-6.771639">
        <ele>209</ele>
        <time>1970-01-01T02:52:37.000Z</time>
      </trkpt>
      <trkpt lat="41.067437" lon="-6.771669">
        <ele>208.9</ele>
        <time>1970-01-01T02:52:38.000Z</time>
      </trkpt>
      <trkpt lat="41.067454" lon="-6.771699">
        <ele>208.9</ele>
        <time>1970-01-01T02:52:39.000Z</time>
      </trkpt>
      <trkpt lat="41.067471" lon="-6.771733">
        <ele>208.8</ele>
        <time>1970-01-01T02:52:40.000Z</time>
      </trkpt>
      <trkpt lat="41.067488" lon="-6.771766">
        <ele>208.7</ele>
        <time>1970-01-01T02:52:41.000Z</time>
      </trkpt>
      <trkpt lat="41.067505" lon="-6.7718">
        <ele>208.6</ele>
        <time>1970-01-01T02:52:42.000Z</time>
      </trkpt>
      <trkpt lat="41.067521" lon="-6.771833">
        <ele>208.6</ele>
        <time>1970-01-01T02:52:43.000Z</time>
      </trkpt>
      <trkpt lat="41.067537" lon="-6.771866">
        <ele>208.5</ele>
        <time>1970-01-01T02:52:44.000Z</time>
      </trkpt>
      <trkpt lat="41.067552" lon="-6.7719">
        <ele>208.4</ele>
        <time>1970-01-01T02:52:45.000Z</time>
      </trkpt>
      <trkpt lat="41.06757" lon="-6.771935">
        <ele>208.4</ele>
        <time>1970-01-01T02:52:46.000Z</time>
      </trkpt>
      <trkpt lat="41.067588" lon="-6.771972">
        <ele>208.3</ele>
        <time>1970-01-01T02:52:47.000Z</time>
      </trkpt>
      <trkpt lat="41.067606" lon="-6.772009">
        <ele>208.2</ele>
        <time>1970-01-01T02:52:48.000Z</time>
      </trkpt>
      <trkpt lat="41.067624" lon="-6.772048">
        <ele>208.1</ele>
        <time>1970-01-01T02:52:49.000Z</time>
      </trkpt>
      <trkpt lat="41.067644" lon="-6.772087">
        <ele>208</ele>
        <time>1970-01-01T02:52:50.000Z</time>
      </trkpt>
      <trkpt lat="41.067663" lon="-6.772128">
        <ele>207.9</ele>
        <time>1970-01-01T02:52:51.000Z</time>
      </trkpt>
      <trkpt lat="41.067682" lon="-6.772168">
        <ele>207.8</ele>
        <time>1970-01-01T02:52:52.000Z</time>
      </trkpt>
      <trkpt lat="41.0677" lon="-6.772207">
        <ele>207.8</ele>
        <time>1970-01-01T02:52:53.000Z</time>
      </trkpt>
      <trkpt lat="41.067718" lon="-6.772246">
        <ele>207.7</ele>
        <time>1970-01-01T02:52:54.000Z</time>
      </trkpt>
      <trkpt lat="41.067737" lon="-6.772286">
        <ele>207.6</ele>
        <time>1970-01-01T02:52:55.000Z</time>
      </trkpt>
      <trkpt lat="41.067756" lon="-6.772326">
        <ele>207.5</ele>
        <time>1970-01-01T02:52:56.000Z</time>
      </trkpt>
      <trkpt lat="41.067777" lon="-6.772369">
        <ele>207.4</ele>
        <time>1970-01-01T02:52:57.000Z</time>
      </trkpt>
      <trkpt lat="41.067798" lon="-6.772414">
        <ele>207.3</ele>
        <time>1970-01-01T02:52:58.000Z</time>
      </trkpt>
      <trkpt lat="41.067821" lon="-6.772459">
        <ele>207.2</ele>
        <time>1970-01-01T02:52:59.000Z</time>
      </trkpt>
      <trkpt lat="41.067844" lon="-6.772505">
        <ele>207.1</ele>
        <time>1970-01-01T02:53:00.000Z</time>
      </trkpt>
      <trkpt lat="41.067869" lon="-6.772551">
        <ele>207</ele>
        <time>1970-01-01T02:53:01.000Z</time>
      </trkpt>
      <trkpt lat="41.067896" lon="-6.772597">
        <ele>206.9</ele>
        <time>1970-01-01T02:53:02.000Z</time>
      </trkpt>
      <trkpt lat="41.067925" lon="-6.772644">
        <ele>206.8</ele>
        <time>1970-01-01T02:53:03.000Z</time>
      </trkpt>
      <trkpt lat="41.067956" lon="-6.772691">
        <ele>206.7</ele>
        <time>1970-01-01T02:53:04.000Z</time>
      </trkpt>
      <trkpt lat="41.06799" lon="-6.77274">
        <ele>206.6</ele>
        <time>1970-01-01T02:53:05.000Z</time>
      </trkpt>
      <trkpt lat="41.06803" lon="-6.772791">
        <ele>206.4</ele>
        <time>1970-01-01T02:53:06.000Z</time>
      </trkpt>
      <trkpt lat="41.068077" lon="-6.772844">
        <ele>206.3</ele>
        <time>1970-01-01T02:53:07.000Z</time>
      </trkpt>
      <trkpt lat="41.068126" lon="-6.772895">
        <ele>206.1</ele>
        <time>1970-01-01T02:53:08.000Z</time>
      </trkpt>
      <trkpt lat="41.068175" lon="-6.772946">
        <ele>206</ele>
        <time>1970-01-01T02:53:09.000Z</time>
      </trkpt>
      <trkpt lat="41.06822" lon="-6.772998">
        <ele>205.8</ele>
        <time>1970-01-01T02:53:10.000Z</time>
      </trkpt>
      <trkpt lat="41.068263" lon="-6.773052">
        <ele>205.7</ele>
        <time>1970-01-01T02:53:11.000Z</time>
      </trkpt>
      <trkpt lat="41.068305" lon="-6.773105">
        <ele>205.5</ele>
        <time>1970-01-01T02:53:12.000Z</time>
      </trkpt>
      <trkpt lat="41.068347" lon="-6.77315">
        <ele>205.4</ele>
        <time>1970-01-01T02:53:13.000Z</time>
      </trkpt>
      <trkpt lat="41.068392" lon="-6.773187">
        <ele>205.3</ele>
        <time>1970-01-01T02:53:14.000Z</time>
      </trkpt>
      <trkpt lat="41.068438" lon="-6.773214">
        <ele>205.2</ele>
        <time>1970-01-01T02:53:15.000Z</time>
      </trkpt>
      <trkpt lat="41.068486" lon="-6.773238">
        <ele>205</ele>
        <time>1970-01-01T02:53:16.000Z</time>
      </trkpt>
      <trkpt lat="41.068533" lon="-6.773261">
        <ele>204.9</ele>
        <time>1970-01-01T02:53:17.000Z</time>
      </trkpt>
      <trkpt lat="41.068582" lon="-6.773288">
        <ele>204.8</ele>
        <time>1970-01-01T02:53:18.000Z</time>
      </trkpt>
      <trkpt lat="41.068632" lon="-6.773317">
        <ele>204.6</ele>
        <time>1970-01-01T02:53:19.000Z</time>
      </trkpt>
      <trkpt lat="41.068686" lon="-6.773344">
        <ele>204.5</ele>
        <time>1970-01-01T02:53:20.000Z</time>
      </trkpt>
      <trkpt lat="41.068746" lon="-6.773367">
        <ele>204.4</ele>
        <time>1970-01-01T02:53:21.000Z</time>
      </trkpt>
      <trkpt lat="41.068811" lon="-6.773385">
        <ele>204.2</ele>
        <time>1970-01-01T02:53:22.000Z</time>
      </trkpt>
      <trkpt lat="41.068879" lon="-6.773399">
        <ele>204</ele>
        <time>1970-01-01T02:53:23.000Z</time>
      </trkpt>
      <trkpt lat="41.068947" lon="-6.773409">
        <ele>203.9</ele>
        <time>1970-01-01T02:53:24.000Z</time>
      </trkpt>
      <trkpt lat="41.069013" lon="-6.773416">
        <ele>203.7</ele>
        <time>1970-01-01T02:53:25.000Z</time>
      </trkpt>
      <trkpt lat="41.069077" lon="-6.773416">
        <ele>203.5</ele>
        <time>1970-01-01T02:53:26.000Z</time>
      </trkpt>
      <trkpt lat="41.069134" lon="-6.7734">
        <ele>203.4</ele>
        <time>1970-01-01T02:53:27.000Z</time>
      </trkpt>
      <trkpt lat="41.069182" lon="-6.773367">
        <ele>203.3</ele>
        <time>1970-01-01T02:53:28.000Z</time>
      </trkpt>
      <trkpt lat="41.06922" lon="-6.773321">
        <ele>203.1</ele>
        <time>1970-01-01T02:53:29.000Z</time>
      </trkpt>
      <trkpt lat="41.069249" lon="-6.773266">
        <ele>203</ele>
        <time>1970-01-01T02:53:30.000Z</time>
      </trkpt>
      <trkpt lat="41.069274" lon="-6.773204">
        <ele>202.9</ele>
        <time>1970-01-01T02:53:31.000Z</time>
      </trkpt>
      <trkpt lat="41.069297" lon="-6.773139">
        <ele>202.8</ele>
        <time>1970-01-01T02:53:32.000Z</time>
      </trkpt>
      <trkpt lat="41.069322" lon="-6.773073">
        <ele>202.6</ele>
        <time>1970-01-01T02:53:33.000Z</time>
      </trkpt>
      <trkpt lat="41.069351" lon="-6.773012">
        <ele>202.5</ele>
        <time>1970-01-01T02:53:34.000Z</time>
      </trkpt>
      <trkpt lat="41.069382" lon="-6.772956">
        <ele>202.4</ele>
        <time>1970-01-01T02:53:35.000Z</time>
      </trkpt>
      <trkpt lat="41.069414" lon="-6.772907">
        <ele>202.3</ele>
        <time>1970-01-01T02:53:36.000Z</time>
      </trkpt>
      <trkpt lat="41.069443" lon="-6.772871">
        <ele>202.2</ele>
        <time>1970-01-01T02:53:37.000Z</time>
      </trkpt>
      <trkpt lat="41.069472" lon="-6.772855">
        <ele>202.1</ele>
        <time>1970-01-01T02:53:38.000Z</time>
      </trkpt>
      <trkpt lat="41.069497" lon="-6.772856">
        <ele>202</ele>
        <time>1970-01-01T02:53:39.000Z</time>
      </trkpt>
      <trkpt lat="41.069512" lon="-6.772872">
        <ele>202</ele>
        <time>1970-01-01T02:53:40.000Z</time>
      </trkpt>
      <trkpt lat="41.069521" lon="-6.772893">
        <ele>201.9</ele>
        <time>1970-01-01T02:53:41.000Z</time>
      </trkpt>
      <trkpt lat="41.069528" lon="-6.772923">
        <ele>201.9</ele>
        <time>1970-01-01T02:53:42.000Z</time>
      </trkpt>
      <trkpt lat="41.069539" lon="-6.772958">
        <ele>201.8</ele>
        <time>1970-01-01T02:53:43.000Z</time>
      </trkpt>
      <trkpt lat="41.069553" lon="-6.773009">
        <ele>201.7</ele>
        <time>1970-01-01T02:53:44.000Z</time>
      </trkpt>
      <trkpt lat="41.069572" lon="-6.773065">
        <ele>201.6</ele>
        <time>1970-01-01T02:53:45.000Z</time>
      </trkpt>
      <trkpt lat="41.069598" lon="-6.77312">
        <ele>201.5</ele>
        <time>1970-01-01T02:53:46.000Z</time>
      </trkpt>
      <trkpt lat="41.069627" lon="-6.773162">
        <ele>201.4</ele>
        <time>1970-01-01T02:53:47.000Z</time>
      </trkpt>
      <trkpt lat="41.069654" lon="-6.773197">
        <ele>201.3</ele>
        <time>1970-01-01T02:53:48.000Z</time>
      </trkpt>
      <trkpt lat="41.069675" lon="-6.773224">
        <ele>201.2</ele>
        <time>1970-01-01T02:53:49.000Z</time>
      </trkpt>
      <trkpt lat="41.06969" lon="-6.773243">
        <ele>201.2</ele>
        <time>1970-01-01T02:53:50.000Z</time>
      </trkpt>
      <trkpt lat="41.069701" lon="-6.773257">
        <ele>201.1</ele>
        <time>1970-01-01T02:53:51.000Z</time>
      </trkpt>
      <trkpt lat="41.069709" lon="-6.773265">
        <ele>201.1</ele>
        <time>1970-01-01T02:53:52.000Z</time>
      </trkpt>
      <trkpt lat="41.069718" lon="-6.773271">
        <ele>201.1</ele>
        <time>1970-01-01T02:53:53.000Z</time>
      </trkpt>
      <trkpt lat="41.069724" lon="-6.773277">
        <ele>201</ele>
        <time>1970-01-01T02:53:54.000Z</time>
      </trkpt>
      <trkpt lat="41.06973" lon="-6.773286">
        <ele>201</ele>
        <time>1970-01-01T02:53:55.000Z</time>
      </trkpt>
      <trkpt lat="41.069735" lon="-6.773297">
        <ele>201</ele>
        <time>1970-01-01T02:53:56.000Z</time>
      </trkpt>
      <trkpt lat="41.069743" lon="-6.773307">
        <ele>201</ele>
        <time>1970-01-01T02:53:57.000Z</time>
      </trkpt>
      <trkpt lat="41.069755" lon="-6.77332">
        <ele>200.9</ele>
        <time>1970-01-01T02:53:58.000Z</time>
      </trkpt>
      <trkpt lat="41.06977" lon="-6.773335">
        <ele>200.9</ele>
        <time>1970-01-01T02:53:59.000Z</time>
      </trkpt>
      <trkpt lat="41.069787" lon="-6.77335">
        <ele>200.8</ele>
        <time>1970-01-01T02:54:00.000Z</time>
      </trkpt>
      <trkpt lat="41.069804" lon="-6.773366">
        <ele>200.8</ele>
        <time>1970-01-01T02:54:01.000Z</time>
      </trkpt>
      <trkpt lat="41.069821" lon="-6.773383">
        <ele>200.7</ele>
        <time>1970-01-01T02:54:02.000Z</time>
      </trkpt>
      <trkpt lat="41.069838" lon="-6.773401">
        <ele>200.7</ele>
        <time>1970-01-01T02:54:03.000Z</time>
      </trkpt>
      <trkpt lat="41.069855" lon="-6.773418">
        <ele>200.6</ele>
        <time>1970-01-01T02:54:04.000Z</time>
      </trkpt>
      <trkpt lat="41.06987" lon="-6.773435">
        <ele>200.6</ele>
        <time>1970-01-01T02:54:05.000Z</time>
      </trkpt>
      <trkpt lat="41.069885" lon="-6.773455">
        <ele>200.5</ele>
        <time>1970-01-01T02:54:06.000Z</time>
      </trkpt>
      <trkpt lat="41.069903" lon="-6.773477">
        <ele>200.5</ele>
        <time>1970-01-01T02:54:07.000Z</time>
      </trkpt>
      <trkpt lat="41.069925" lon="-6.773499">
        <ele>200.4</ele>
        <time>1970-01-01T02:54:08.000Z</time>
      </trkpt>
      <trkpt lat="41.069948" lon="-6.773517">
        <ele>200.3</ele>
        <time>1970-01-01T02:54:09.000Z</time>
      </trkpt>
      <trkpt lat="41.069973" lon="-6.773533">
        <ele>200.3</ele>
        <time>1970-01-01T02:54:10.000Z</time>
      </trkpt>
      <trkpt lat="41.069997" lon="-6.773551">
        <ele>200.2</ele>
        <time>1970-01-01T02:54:11.000Z</time>
      </trkpt>
      <trkpt lat="41.070017" lon="-6.77357">
        <ele>200.2</ele>
        <time>1970-01-01T02:54:12.000Z</time>
      </trkpt>
      <trkpt lat="41.070035" lon="-6.773587">
        <ele>200.1</ele>
        <time>1970-01-01T02:54:13.000Z</time>
      </trkpt>
      <trkpt lat="41.070054" lon="-6.773603">
        <ele>200</ele>
        <time>1970-01-01T02:54:14.000Z</time>
      </trkpt>
      <trkpt lat="41.070073" lon="-6.77362">
        <ele>200</ele>
        <time>1970-01-01T02:54:15.000Z</time>
      </trkpt>
      <trkpt lat="41.070093" lon="-6.773639">
        <ele>199.9</ele>
        <time>1970-01-01T02:54:16.000Z</time>
      </trkpt>
      <trkpt lat="41.070115" lon="-6.773661">
        <ele>199.9</ele>
        <time>1970-01-01T02:54:17.000Z</time>
      </trkpt>
      <trkpt lat="41.070138" lon="-6.773685">
        <ele>199.8</ele>
        <time>1970-01-01T02:54:18.000Z</time>
      </trkpt>
      <trkpt lat="41.070161" lon="-6.773707">
        <ele>199.7</ele>
        <time>1970-01-01T02:54:19.000Z</time>
      </trkpt>
      <trkpt lat="41.070183" lon="-6.773725">
        <ele>199.7</ele>
        <time>1970-01-01T02:54:20.000Z</time>
      </trkpt>
      <trkpt lat="41.070203" lon="-6.773741">
        <ele>199.6</ele>
        <time>1970-01-01T02:54:21.000Z</time>
      </trkpt>
      <trkpt lat="41.070224" lon="-6.773757">
        <ele>199.5</ele>
        <time>1970-01-01T02:54:22.000Z</time>
      </trkpt>
      <trkpt lat="41.070243" lon="-6.773775">
        <ele>199.5</ele>
        <time>1970-01-01T02:54:23.000Z</time>
      </trkpt>
      <trkpt lat="41.070264" lon="-6.773792">
        <ele>199.4</ele>
        <time>1970-01-01T02:54:24.000Z</time>
      </trkpt>
      <trkpt lat="41.070286" lon="-6.773809">
        <ele>199.4</ele>
        <time>1970-01-01T02:54:25.000Z</time>
      </trkpt>
      <trkpt lat="41.070312" lon="-6.773825">
        <ele>199.3</ele>
        <time>1970-01-01T02:54:26.000Z</time>
      </trkpt>
      <trkpt lat="41.07034" lon="-6.77384">
        <ele>199.2</ele>
        <time>1970-01-01T02:54:27.000Z</time>
      </trkpt>
      <trkpt lat="41.070369" lon="-6.773856">
        <ele>199.1</ele>
        <time>1970-01-01T02:54:28.000Z</time>
      </trkpt>
      <trkpt lat="41.070398" lon="-6.773873">
        <ele>199.1</ele>
        <time>1970-01-01T02:54:29.000Z</time>
      </trkpt>
      <trkpt lat="41.070428" lon="-6.773889">
        <ele>199</ele>
        <time>1970-01-01T02:54:30.000Z</time>
      </trkpt>
      <trkpt lat="41.070458" lon="-6.773906">
        <ele>198.9</ele>
        <time>1970-01-01T02:54:31.000Z</time>
      </trkpt>
      <trkpt lat="41.07049" lon="-6.773923">
        <ele>198.8</ele>
        <time>1970-01-01T02:54:32.000Z</time>
      </trkpt>
      <trkpt lat="41.070521" lon="-6.773939">
        <ele>198.7</ele>
        <time>1970-01-01T02:54:33.000Z</time>
      </trkpt>
      <trkpt lat="41.070552" lon="-6.773955">
        <ele>198.7</ele>
        <time>1970-01-01T02:54:34.000Z</time>
      </trkpt>
      <trkpt lat="41.070583" lon="-6.773972">
        <ele>198.6</ele>
        <time>1970-01-01T02:54:35.000Z</time>
      </trkpt>
      <trkpt lat="41.070614" lon="-6.77399">
        <ele>198.5</ele>
        <time>1970-01-01T02:54:36.000Z</time>
      </trkpt>
      <trkpt lat="41.070645" lon="-6.774009">
        <ele>198.4</ele>
        <time>1970-01-01T02:54:37.000Z</time>
      </trkpt>
      <trkpt lat="41.070675" lon="-6.774028">
        <ele>198.3</ele>
        <time>1970-01-01T02:54:38.000Z</time>
      </trkpt>
      <trkpt lat="41.070704" lon="-6.774048">
        <ele>198.3</ele>
        <time>1970-01-01T02:54:39.000Z</time>
      </trkpt>
      <trkpt lat="41.070732" lon="-6.774067">
        <ele>198.2</ele>
        <time>1970-01-01T02:54:40.000Z</time>
      </trkpt>
      <trkpt lat="41.07076" lon="-6.774087">
        <ele>198.1</ele>
        <time>1970-01-01T02:54:41.000Z</time>
      </trkpt>
      <trkpt lat="41.070788" lon="-6.774107">
        <ele>198</ele>
        <time>1970-01-01T02:54:42.000Z</time>
      </trkpt>
      <trkpt lat="41.070816" lon="-6.774128">
        <ele>198</ele>
        <time>1970-01-01T02:54:43.000Z</time>
      </trkpt>
      <trkpt lat="41.070844" lon="-6.774149">
        <ele>197.9</ele>
        <time>1970-01-01T02:54:44.000Z</time>
      </trkpt>
      <trkpt lat="41.070871" lon="-6.77417">
        <ele>197.8</ele>
        <time>1970-01-01T02:54:45.000Z</time>
      </trkpt>
      <trkpt lat="41.070897" lon="-6.774191">
        <ele>197.7</ele>
        <time>1970-01-01T02:54:46.000Z</time>
      </trkpt>
      <trkpt lat="41.07092" lon="-6.774212">
        <ele>197.7</ele>
        <time>1970-01-01T02:54:47.000Z</time>
      </trkpt>
      <trkpt lat="41.070943" lon="-6.774232">
        <ele>197.6</ele>
        <time>1970-01-01T02:54:48.000Z</time>
      </trkpt>
      <trkpt lat="41.070966" lon="-6.774252">
        <ele>197.5</ele>
        <time>1970-01-01T02:54:49.000Z</time>
      </trkpt>
      <trkpt lat="41.07099" lon="-6.774267">
        <ele>197.5</ele>
        <time>1970-01-01T02:54:50.000Z</time>
      </trkpt>
      <trkpt lat="41.071013" lon="-6.77427">
        <ele>197.6</ele>
        <time>1970-01-01T02:54:51.000Z</time>
      </trkpt>
      <trkpt lat="41.07103" lon="-6.774258">
        <ele>197.6</ele>
        <time>1970-01-01T02:54:52.000Z</time>
      </trkpt>
      <trkpt lat="41.071038" lon="-6.774235">
        <ele>197.7</ele>
        <time>1970-01-01T02:54:53.000Z</time>
      </trkpt>
      <trkpt lat="41.071041" lon="-6.774211">
        <ele>197.8</ele>
        <time>1970-01-01T02:54:54.000Z</time>
      </trkpt>
      <trkpt lat="41.07104" lon="-6.774191">
        <ele>197.9</ele>
        <time>1970-01-01T02:54:55.000Z</time>
      </trkpt>
      <trkpt lat="41.071037" lon="-6.774173">
        <ele>198</ele>
        <time>1970-01-01T02:54:56.000Z</time>
      </trkpt>
      <trkpt lat="41.071031" lon="-6.774154">
        <ele>198.2</ele>
        <time>1970-01-01T02:54:57.000Z</time>
      </trkpt>
      <trkpt lat="41.071024" lon="-6.774131">
        <ele>198.4</ele>
        <time>1970-01-01T02:54:58.000Z</time>
      </trkpt>
      <trkpt lat="41.071018" lon="-6.774107">
        <ele>198.6</ele>
        <time>1970-01-01T02:54:59.000Z</time>
      </trkpt>
      <trkpt lat="41.071011" lon="-6.774082">
        <ele>198.9</ele>
        <time>1970-01-01T02:55:00.000Z</time>
      </trkpt>
      <trkpt lat="41.071005" lon="-6.774059">
        <ele>199.1</ele>
        <time>1970-01-01T02:55:01.000Z</time>
      </trkpt>
      <trkpt lat="41.070999" lon="-6.774035">
        <ele>199.4</ele>
        <time>1970-01-01T02:55:02.000Z</time>
      </trkpt>
      <trkpt lat="41.070992" lon="-6.774012">
        <ele>199.7</ele>
        <time>1970-01-01T02:55:03.000Z</time>
      </trkpt>
      <trkpt lat="41.070986" lon="-6.773988">
        <ele>200</ele>
        <time>1970-01-01T02:55:04.000Z</time>
      </trkpt>
      <trkpt lat="41.070979" lon="-6.773963">
        <ele>200.2</ele>
        <time>1970-01-01T02:55:05.000Z</time>
      </trkpt>
      <trkpt lat="41.070973" lon="-6.773936">
        <ele>200.6</ele>
        <time>1970-01-01T02:55:06.000Z</time>
      </trkpt>
      <trkpt lat="41.070966" lon="-6.77391">
        <ele>200.9</ele>
        <time>1970-01-01T02:55:07.000Z</time>
      </trkpt>
      <trkpt lat="41.07096" lon="-6.773883">
        <ele>201.2</ele>
        <time>1970-01-01T02:55:08.000Z</time>
      </trkpt>
      <trkpt lat="41.070954" lon="-6.773857">
        <ele>201.4</ele>
        <time>1970-01-01T02:55:09.000Z</time>
      </trkpt>
      <trkpt lat="41.070948" lon="-6.773831">
        <ele>201.7</ele>
        <time>1970-01-01T02:55:10.000Z</time>
      </trkpt>
      <trkpt lat="41.070941" lon="-6.773805">
        <ele>202</ele>
        <time>1970-01-01T02:55:11.000Z</time>
      </trkpt>
      <trkpt lat="41.070935" lon="-6.773779">
        <ele>202.2</ele>
        <time>1970-01-01T02:55:12.000Z</time>
      </trkpt>
      <trkpt lat="41.070927" lon="-6.773754">
        <ele>202.5</ele>
        <time>1970-01-01T02:55:13.000Z</time>
      </trkpt>
      <trkpt lat="41.070919" lon="-6.77373">
        <ele>202.8</ele>
        <time>1970-01-01T02:55:14.000Z</time>
      </trkpt>
      <trkpt lat="41.070912" lon="-6.773705">
        <ele>203.1</ele>
        <time>1970-01-01T02:55:15.000Z</time>
      </trkpt>
      <trkpt lat="41.070905" lon="-6.77368">
        <ele>203.4</ele>
        <time>1970-01-01T02:55:16.000Z</time>
      </trkpt>
      <trkpt lat="41.070898" lon="-6.773655">
        <ele>203.6</ele>
        <time>1970-01-01T02:55:17.000Z</time>
      </trkpt>
      <trkpt lat="41.07089" lon="-6.773629">
        <ele>203.9</ele>
        <time>1970-01-01T02:55:18.000Z</time>
      </trkpt>
      <trkpt lat="41.070882" lon="-6.773604">
        <ele>204.2</ele>
        <time>1970-01-01T02:55:19.000Z</time>
      </trkpt>
      <trkpt lat="41.070874" lon="-6.773578">
        <ele>204.4</ele>
        <time>1970-01-01T02:55:20.000Z</time>
      </trkpt>
      <trkpt lat="41.070866" lon="-6.773554">
        <ele>204.7</ele>
        <time>1970-01-01T02:55:21.000Z</time>
      </trkpt>
      <trkpt lat="41.070858" lon="-6.77353">
        <ele>204.9</ele>
        <time>1970-01-01T02:55:22.000Z</time>
      </trkpt>
      <trkpt lat="41.070852" lon="-6.773507">
        <ele>205.1</ele>
        <time>1970-01-01T02:55:23.000Z</time>
      </trkpt>
      <trkpt lat="41.070845" lon="-6.773484">
        <ele>205.3</ele>
        <time>1970-01-01T02:55:24.000Z</time>
      </trkpt>
      <trkpt lat="41.070839" lon="-6.773461">
        <ele>205.6</ele>
        <time>1970-01-01T02:55:25.000Z</time>
      </trkpt>
      <trkpt lat="41.070834" lon="-6.773438">
        <ele>205.9</ele>
        <time>1970-01-01T02:55:26.000Z</time>
      </trkpt>
      <trkpt lat="41.070829" lon="-6.773415">
        <ele>206.2</ele>
        <time>1970-01-01T02:55:27.000Z</time>
      </trkpt>
      <trkpt lat="41.070823" lon="-6.77339">
        <ele>206.5</ele>
        <time>1970-01-01T02:55:28.000Z</time>
      </trkpt>
      <trkpt lat="41.070817" lon="-6.773366">
        <ele>206.9</ele>
        <time>1970-01-01T02:55:29.000Z</time>
      </trkpt>
      <trkpt lat="41.07081" lon="-6.773341">
        <ele>207.3</ele>
        <time>1970-01-01T02:55:30.000Z</time>
      </trkpt>
      <trkpt lat="41.070805" lon="-6.773318">
        <ele>207.6</ele>
        <time>1970-01-01T02:55:31.000Z</time>
      </trkpt>
      <trkpt lat="41.070802" lon="-6.773294">
        <ele>208</ele>
        <time>1970-01-01T02:55:32.000Z</time>
      </trkpt>
      <trkpt lat="41.070801" lon="-6.773269">
        <ele>208.4</ele>
        <time>1970-01-01T02:55:33.000Z</time>
      </trkpt>
      <trkpt lat="41.0708" lon="-6.773241">
        <ele>208.8</ele>
        <time>1970-01-01T02:55:34.000Z</time>
      </trkpt>
      <trkpt lat="41.070799" lon="-6.773214">
        <ele>209.2</ele>
        <time>1970-01-01T02:55:35.000Z</time>
      </trkpt>
      <trkpt lat="41.070797" lon="-6.773186">
        <ele>209.6</ele>
        <time>1970-01-01T02:55:36.000Z</time>
      </trkpt>
      <trkpt lat="41.070796" lon="-6.77316">
        <ele>209.9</ele>
        <time>1970-01-01T02:55:37.000Z</time>
      </trkpt>
      <trkpt lat="41.070797" lon="-6.773135">
        <ele>210.2</ele>
        <time>1970-01-01T02:55:38.000Z</time>
      </trkpt>
      <trkpt lat="41.070799" lon="-6.77311">
        <ele>210.5</ele>
        <time>1970-01-01T02:55:39.000Z</time>
      </trkpt>
      <trkpt lat="41.070803" lon="-6.773085">
        <ele>210.8</ele>
        <time>1970-01-01T02:55:40.000Z</time>
      </trkpt>
      <trkpt lat="41.070807" lon="-6.773059">
        <ele>211.1</ele>
        <time>1970-01-01T02:55:41.000Z</time>
      </trkpt>
      <trkpt lat="41.070811" lon="-6.773034">
        <ele>211.3</ele>
        <time>1970-01-01T02:55:42.000Z</time>
      </trkpt>
      <trkpt lat="41.070814" lon="-6.773008">
        <ele>211.5</ele>
        <time>1970-01-01T02:55:43.000Z</time>
      </trkpt>
      <trkpt lat="41.070818" lon="-6.772983">
        <ele>211.8</ele>
        <time>1970-01-01T02:55:44.000Z</time>
      </trkpt>
      <trkpt lat="41.070822" lon="-6.772959">
        <ele>212</ele>
        <time>1970-01-01T02:55:45.000Z</time>
      </trkpt>
      <trkpt lat="41.070827" lon="-6.772936">
        <ele>212.2</ele>
        <time>1970-01-01T02:55:46.000Z</time>
      </trkpt>
      <trkpt lat="41.070834" lon="-6.772914">
        <ele>212.4</ele>
        <time>1970-01-01T02:55:47.000Z</time>
      </trkpt>
      <trkpt lat="41.07084" lon="-6.772892">
        <ele>212.6</ele>
        <time>1970-01-01T02:55:48.000Z</time>
      </trkpt>
      <trkpt lat="41.070847" lon="-6.772871">
        <ele>212.8</ele>
        <time>1970-01-01T02:55:49.000Z</time>
      </trkpt>
      <trkpt lat="41.070854" lon="-6.77285">
        <ele>213</ele>
        <time>1970-01-01T02:55:50.000Z</time>
      </trkpt>
      <trkpt lat="41.070862" lon="-6.77283">
        <ele>213.2</ele>
        <time>1970-01-01T02:55:51.000Z</time>
      </trkpt>
      <trkpt lat="41.070871" lon="-6.77281">
        <ele>213.4</ele>
        <time>1970-01-01T02:55:52.000Z</time>
      </trkpt>
      <trkpt lat="41.07088" lon="-6.77279">
        <ele>213.7</ele>
        <time>1970-01-01T02:55:53.000Z</time>
      </trkpt>
      <trkpt lat="41.070889" lon="-6.77277">
        <ele>213.9</ele>
        <time>1970-01-01T02:55:54.000Z</time>
      </trkpt>
      <trkpt lat="41.070898" lon="-6.772749">
        <ele>214.2</ele>
        <time>1970-01-01T02:55:55.000Z</time>
      </trkpt>
      <trkpt lat="41.070907" lon="-6.772729">
        <ele>214.4</ele>
        <time>1970-01-01T02:55:56.000Z</time>
      </trkpt>
      <trkpt lat="41.070914" lon="-6.772708">
        <ele>214.7</ele>
        <time>1970-01-01T02:55:57.000Z</time>
      </trkpt>
      <trkpt lat="41.070922" lon="-6.772688">
        <ele>214.9</ele>
        <time>1970-01-01T02:55:58.000Z</time>
      </trkpt>
      <trkpt lat="41.07093" lon="-6.772669">
        <ele>215.1</ele>
        <time>1970-01-01T02:55:59.000Z</time>
      </trkpt>
      <trkpt lat="41.07094" lon="-6.772651">
        <ele>215.4</ele>
        <time>1970-01-01T02:56:00.000Z</time>
      </trkpt>
      <trkpt lat="41.07095" lon="-6.772634">
        <ele>215.6</ele>
        <time>1970-01-01T02:56:01.000Z</time>
      </trkpt>
      <trkpt lat="41.070959" lon="-6.772616">
        <ele>215.9</ele>
        <time>1970-01-01T02:56:02.000Z</time>
      </trkpt>
      <trkpt lat="41.070971" lon="-6.772598">
        <ele>216.2</ele>
        <time>1970-01-01T02:56:03.000Z</time>
      </trkpt>
      <trkpt lat="41.070983" lon="-6.77258">
        <ele>216.4</ele>
        <time>1970-01-01T02:56:04.000Z</time>
      </trkpt>
      <trkpt lat="41.070996" lon="-6.772565">
        <ele>216.7</ele>
        <time>1970-01-01T02:56:05.000Z</time>
      </trkpt>
      <trkpt lat="41.071007" lon="-6.772549">
        <ele>217</ele>
        <time>1970-01-01T02:56:06.000Z</time>
      </trkpt>
      <trkpt lat="41.071019" lon="-6.772533">
        <ele>217.2</ele>
        <time>1970-01-01T02:56:07.000Z</time>
      </trkpt>
      <trkpt lat="41.07103" lon="-6.772515">
        <ele>217.5</ele>
        <time>1970-01-01T02:56:08.000Z</time>
      </trkpt>
      <trkpt lat="41.071042" lon="-6.772499">
        <ele>217.8</ele>
        <time>1970-01-01T02:56:09.000Z</time>
      </trkpt>
      <trkpt lat="41.071055" lon="-6.772482">
        <ele>218</ele>
        <time>1970-01-01T02:56:10.000Z</time>
      </trkpt>
      <trkpt lat="41.071068" lon="-6.772466">
        <ele>218.3</ele>
        <time>1970-01-01T02:56:11.000Z</time>
      </trkpt>
      <trkpt lat="41.071081" lon="-6.772451">
        <ele>218.6</ele>
        <time>1970-01-01T02:56:12.000Z</time>
      </trkpt>
      <trkpt lat="41.071094" lon="-6.772436">
        <ele>218.9</ele>
        <time>1970-01-01T02:56:13.000Z</time>
      </trkpt>
      <trkpt lat="41.071107" lon="-6.772419">
        <ele>219.1</ele>
        <time>1970-01-01T02:56:14.000Z</time>
      </trkpt>
      <trkpt lat="41.07112" lon="-6.772405">
        <ele>219.4</ele>
        <time>1970-01-01T02:56:15.000Z</time>
      </trkpt>
      <trkpt lat="41.071135" lon="-6.772392">
        <ele>219.6</ele>
        <time>1970-01-01T02:56:16.000Z</time>
      </trkpt>
      <trkpt lat="41.071152" lon="-6.772381">
        <ele>219.9</ele>
        <time>1970-01-01T02:56:17.000Z</time>
      </trkpt>
      <trkpt lat="41.07117" lon="-6.772371">
        <ele>220.2</ele>
        <time>1970-01-01T02:56:18.000Z</time>
      </trkpt>
      <trkpt lat="41.071188" lon="-6.772361">
        <ele>220.4</ele>
        <time>1970-01-01T02:56:19.000Z</time>
      </trkpt>
      <trkpt lat="41.071206" lon="-6.772353">
        <ele>220.6</ele>
        <time>1970-01-01T02:56:20.000Z</time>
      </trkpt>
      <trkpt lat="41.071224" lon="-6.772346">
        <ele>220.9</ele>
        <time>1970-01-01T02:56:21.000Z</time>
      </trkpt>
      <trkpt lat="41.071241" lon="-6.77234">
        <ele>221.1</ele>
        <time>1970-01-01T02:56:22.000Z</time>
      </trkpt>
      <trkpt lat="41.071259" lon="-6.772333">
        <ele>221.3</ele>
        <time>1970-01-01T02:56:23.000Z</time>
      </trkpt>
      <trkpt lat="41.071277" lon="-6.772326">
        <ele>221.6</ele>
        <time>1970-01-01T02:56:24.000Z</time>
      </trkpt>
      <trkpt lat="41.071294" lon="-6.772318">
        <ele>221.8</ele>
        <time>1970-01-01T02:56:25.000Z</time>
      </trkpt>
      <trkpt lat="41.071313" lon="-6.772309">
        <ele>222</ele>
        <time>1970-01-01T02:56:26.000Z</time>
      </trkpt>
      <trkpt lat="41.071331" lon="-6.772299">
        <ele>222.3</ele>
        <time>1970-01-01T02:56:27.000Z</time>
      </trkpt>
      <trkpt lat="41.071348" lon="-6.772289">
        <ele>222.5</ele>
        <time>1970-01-01T02:56:28.000Z</time>
      </trkpt>
      <trkpt lat="41.071365" lon="-6.772278">
        <ele>222.7</ele>
        <time>1970-01-01T02:56:29.000Z</time>
      </trkpt>
      <trkpt lat="41.071385" lon="-6.772264">
        <ele>223</ele>
        <time>1970-01-01T02:56:30.000Z</time>
      </trkpt>
      <trkpt lat="41.071406" lon="-6.772248">
        <ele>223.2</ele>
        <time>1970-01-01T02:56:31.000Z</time>
      </trkpt>
      <trkpt lat="41.071426" lon="-6.772232">
        <ele>223.4</ele>
        <time>1970-01-01T02:56:32.000Z</time>
      </trkpt>
      <trkpt lat="41.071447" lon="-6.772219">
        <ele>223.6</ele>
        <time>1970-01-01T02:56:33.000Z</time>
      </trkpt>
      <trkpt lat="41.071469" lon="-6.772209">
        <ele>223.8</ele>
        <time>1970-01-01T02:56:34.000Z</time>
      </trkpt>
      <trkpt lat="41.071492" lon="-6.772201">
        <ele>224</ele>
        <time>1970-01-01T02:56:35.000Z</time>
      </trkpt>
      <trkpt lat="41.071515" lon="-6.772194">
        <ele>224.2</ele>
        <time>1970-01-01T02:56:36.000Z</time>
      </trkpt>
      <trkpt lat="41.071539" lon="-6.772188">
        <ele>224.3</ele>
        <time>1970-01-01T02:56:37.000Z</time>
      </trkpt>
      <trkpt lat="41.071564" lon="-6.772179">
        <ele>224.5</ele>
        <time>1970-01-01T02:56:38.000Z</time>
      </trkpt>
      <trkpt lat="41.071589" lon="-6.772166">
        <ele>224.6</ele>
        <time>1970-01-01T02:56:39.000Z</time>
      </trkpt>
      <trkpt lat="41.071617" lon="-6.772148">
        <ele>224.7</ele>
        <time>1970-01-01T02:56:40.000Z</time>
      </trkpt>
      <trkpt lat="41.071646" lon="-6.772128">
        <ele>224.7</ele>
        <time>1970-01-01T02:56:41.000Z</time>
      </trkpt>
      <trkpt lat="41.071675" lon="-6.772105">
        <ele>224.8</ele>
        <time>1970-01-01T02:56:42.000Z</time>
      </trkpt>
      <trkpt lat="41.071703" lon="-6.772081">
        <ele>224.8</ele>
        <time>1970-01-01T02:56:43.000Z</time>
      </trkpt>
      <trkpt lat="41.07173" lon="-6.772052">
        <ele>224.8</ele>
        <time>1970-01-01T02:56:44.000Z</time>
      </trkpt>
      <trkpt lat="41.071758" lon="-6.77202">
        <ele>224.9</ele>
        <time>1970-01-01T02:56:45.000Z</time>
      </trkpt>
      <trkpt lat="41.071787" lon="-6.771985">
        <ele>224.9</ele>
        <time>1970-01-01T02:56:46.000Z</time>
      </trkpt>
      <trkpt lat="41.071818" lon="-6.771948">
        <ele>224.9</ele>
        <time>1970-01-01T02:56:47.000Z</time>
      </trkpt>
      <trkpt lat="41.071853" lon="-6.771909">
        <ele>224.8</ele>
        <time>1970-01-01T02:56:48.000Z</time>
      </trkpt>
      <trkpt lat="41.071893" lon="-6.771874">
        <ele>224.7</ele>
        <time>1970-01-01T02:56:49.000Z</time>
      </trkpt>
      <trkpt lat="41.071937" lon="-6.771849">
        <ele>224.5</ele>
        <time>1970-01-01T02:56:50.000Z</time>
      </trkpt>
      <trkpt lat="41.071982" lon="-6.771836">
        <ele>224.3</ele>
        <time>1970-01-01T02:56:51.000Z</time>
      </trkpt>
      <trkpt lat="41.072025" lon="-6.771833">
        <ele>224.1</ele>
        <time>1970-01-01T02:56:52.000Z</time>
      </trkpt>
      <trkpt lat="41.072066" lon="-6.771835">
        <ele>224.1</ele>
        <time>1970-01-01T02:56:53.000Z</time>
      </trkpt>
      <trkpt lat="41.072104" lon="-6.771839">
        <ele>224.1</ele>
        <time>1970-01-01T02:56:54.000Z</time>
      </trkpt>
      <trkpt lat="41.07214" lon="-6.771841">
        <ele>224.3</ele>
        <time>1970-01-01T02:56:55.000Z</time>
      </trkpt>
      <trkpt lat="41.072175" lon="-6.77184">
        <ele>224.6</ele>
        <time>1970-01-01T02:56:56.000Z</time>
      </trkpt>
      <trkpt lat="41.072208" lon="-6.771838">
        <ele>225</ele>
        <time>1970-01-01T02:56:57.000Z</time>
      </trkpt>
      <trkpt lat="41.072241" lon="-6.771836">
        <ele>225.4</ele>
        <time>1970-01-01T02:56:58.000Z</time>
      </trkpt>
      <trkpt lat="41.072273" lon="-6.771836">
        <ele>225.9</ele>
        <time>1970-01-01T02:56:59.000Z</time>
      </trkpt>
      <trkpt lat="41.072305" lon="-6.771839">
        <ele>226.4</ele>
        <time>1970-01-01T02:57:00.000Z</time>
      </trkpt>
      <trkpt lat="41.072337" lon="-6.771846">
        <ele>226.8</ele>
        <time>1970-01-01T02:57:01.000Z</time>
      </trkpt>
      <trkpt lat="41.072369" lon="-6.771856">
        <ele>227.3</ele>
        <time>1970-01-01T02:57:02.000Z</time>
      </trkpt>
      <trkpt lat="41.072401" lon="-6.771867">
        <ele>227.6</ele>
        <time>1970-01-01T02:57:03.000Z</time>
      </trkpt>
      <trkpt lat="41.072431" lon="-6.77188">
        <ele>227.8</ele>
        <time>1970-01-01T02:57:04.000Z</time>
      </trkpt>
      <trkpt lat="41.072458" lon="-6.771892">
        <ele>228</ele>
        <time>1970-01-01T02:57:05.000Z</time>
      </trkpt>
      <trkpt lat="41.072483" lon="-6.771905">
        <ele>228.1</ele>
        <time>1970-01-01T02:57:06.000Z</time>
      </trkpt>
      <trkpt lat="41.072507" lon="-6.771918">
        <ele>228.1</ele>
        <time>1970-01-01T02:57:07.000Z</time>
      </trkpt>
      <trkpt lat="41.072531" lon="-6.771929">
        <ele>228.1</ele>
        <time>1970-01-01T02:57:08.000Z</time>
      </trkpt>
      <trkpt lat="41.072553" lon="-6.771933">
        <ele>228.2</ele>
        <time>1970-01-01T02:57:09.000Z</time>
      </trkpt>
      <trkpt lat="41.072573" lon="-6.771931">
        <ele>228.2</ele>
        <time>1970-01-01T02:57:10.000Z</time>
      </trkpt>
      <trkpt lat="41.072586" lon="-6.771925">
        <ele>228.2</ele>
        <time>1970-01-01T02:57:11.000Z</time>
      </trkpt>
      <trkpt lat="41.072594" lon="-6.77192">
        <ele>228.2</ele>
        <time>1970-01-01T02:57:12.000Z</time>
      </trkpt>
      <trkpt lat="41.072597" lon="-6.771915">
        <ele>228.2</ele>
        <time>1970-01-01T02:57:13.000Z</time>
      </trkpt>
      <trkpt lat="41.072599" lon="-6.771911">
        <ele>228.2</ele>
        <time>1970-01-01T02:57:14.000Z</time>
      </trkpt>
      <trkpt lat="41.072601" lon="-6.77191">
        <ele>228.2</ele>
        <time>1970-01-01T02:57:15.000Z</time>
      </trkpt>
      <trkpt lat="41.072604" lon="-6.77191">
        <ele>228.2</ele>
        <time>1970-01-01T02:57:16.000Z</time>
      </trkpt>
      <trkpt lat="41.072608" lon="-6.771911">
        <ele>228.2</ele>
        <time>1970-01-01T02:57:17.000Z</time>
      </trkpt>
      <trkpt lat="41.072612" lon="-6.771909">
        <ele>228.2</ele>
        <time>1970-01-01T02:57:18.000Z</time>
      </trkpt>
      <trkpt lat="41.072616" lon="-6.771907">
        <ele>228.2</ele>
        <time>1970-01-01T02:57:19.000Z</time>
      </trkpt>
      <trkpt lat="41.072619" lon="-6.771906">
        <ele>228.2</ele>
        <time>1970-01-01T02:57:20.000Z</time>
      </trkpt>
      <trkpt lat="41.072638" lon="-6.771877">
        <ele>228.2</ele>
        <time>1970-01-01T02:57:21.000Z</time>
      </trkpt>
      <trkpt lat="41.07264" lon="-6.771867">
        <ele>228.2</ele>
        <time>1970-01-01T02:57:22.000Z</time>
      </trkpt>
      <trkpt lat="41.072643" lon="-6.771857">
        <ele>228.2</ele>
        <time>1970-01-01T02:57:29.000Z</time>
      </trkpt>
      <trkpt lat="41.072646" lon="-6.771846">
        <ele>228.3</ele>
        <time>1970-01-01T02:57:30.000Z</time>
      </trkpt>
      <trkpt lat="41.072649" lon="-6.771837">
        <ele>228.4</ele>
        <time>1970-01-01T02:57:31.000Z</time>
      </trkpt>
      <trkpt lat="41.072651" lon="-6.771826">
        <ele>228.5</ele>
        <time>1970-01-01T02:57:32.000Z</time>
      </trkpt>
      <trkpt lat="41.072653" lon="-6.771818">
        <ele>228.6</ele>
        <time>1970-01-01T02:57:33.000Z</time>
      </trkpt>
      <trkpt lat="41.072655" lon="-6.771811">
        <ele>228.7</ele>
        <time>1970-01-01T02:57:34.000Z</time>
      </trkpt>
      <trkpt lat="41.072657" lon="-6.771804">
        <ele>228.7</ele>
        <time>1970-01-01T02:57:35.000Z</time>
      </trkpt>
      <trkpt lat="41.072658" lon="-6.771796">
        <ele>228.8</ele>
        <time>1970-01-01T02:57:36.000Z</time>
      </trkpt>
      <trkpt lat="41.072659" lon="-6.771787">
        <ele>228.9</ele>
        <time>1970-01-01T02:57:37.000Z</time>
      </trkpt>
      <trkpt lat="41.07266" lon="-6.77178">
        <ele>228.9</ele>
        <time>1970-01-01T02:57:38.000Z</time>
      </trkpt>
      <trkpt lat="41.072661" lon="-6.771775">
        <ele>229</ele>
        <time>1970-01-01T02:57:39.000Z</time>
      </trkpt>
      <trkpt lat="41.072662" lon="-6.771772">
        <ele>229</ele>
        <time>1970-01-01T02:57:40.000Z</time>
      </trkpt>
      <trkpt lat="41.072661" lon="-6.77177">
        <ele>229</ele>
        <time>1970-01-01T02:57:41.000Z</time>
      </trkpt>
      <trkpt lat="41.072662" lon="-6.77177">
        <ele>229.1</ele>
        <time>1970-01-01T02:57:42.000Z</time>
      </trkpt>
      <trkpt lat="41.072664" lon="-6.771771">
        <ele>229.1</ele>
        <time>1970-01-01T02:57:43.000Z</time>
      </trkpt>
      <trkpt lat="41.072665" lon="-6.771773">
        <ele>229.1</ele>
        <time>1970-01-01T02:57:44.000Z</time>
      </trkpt>
      <trkpt lat="41.072666" lon="-6.771774">
        <ele>229.1</ele>
        <time>1970-01-01T02:57:45.000Z</time>
      </trkpt>
      <trkpt lat="41.072669" lon="-6.771719">
        <ele>229.6</ele>
        <time>1970-01-01T02:57:46.000Z</time>
      </trkpt>
      <trkpt lat="41.072667" lon="-6.771696">
        <ele>229.8</ele>
        <time>1970-01-01T02:57:47.000Z</time>
      </trkpt>
      <trkpt lat="41.072666" lon="-6.77167">
        <ele>230</ele>
        <time>1970-01-01T02:57:54.000Z</time>
      </trkpt>
      <trkpt lat="41.072664" lon="-6.771641">
        <ele>230.2</ele>
        <time>1970-01-01T02:57:55.000Z</time>
      </trkpt>
      <trkpt lat="41.072664" lon="-6.771607">
        <ele>230.5</ele>
        <time>1970-01-01T02:57:56.000Z</time>
      </trkpt>
      <trkpt lat="41.072663" lon="-6.771568">
        <ele>230.7</ele>
        <time>1970-01-01T02:57:57.000Z</time>
      </trkpt>
      <trkpt lat="41.072665" lon="-6.771529">
        <ele>230.8</ele>
        <time>1970-01-01T02:57:58.000Z</time>
      </trkpt>
      <trkpt lat="41.072668" lon="-6.771491">
        <ele>230.9</ele>
        <time>1970-01-01T02:57:59.000Z</time>
      </trkpt>
      <trkpt lat="41.072677" lon="-6.771455">
        <ele>231</ele>
        <time>1970-01-01T02:58:00.000Z</time>
      </trkpt>
      <trkpt lat="41.07269" lon="-6.771417">
        <ele>231</ele>
        <time>1970-01-01T02:58:01.000Z</time>
      </trkpt>
      <trkpt lat="41.072706" lon="-6.771375">
        <ele>231</ele>
        <time>1970-01-01T02:58:02.000Z</time>
      </trkpt>
      <trkpt lat="41.072724" lon="-6.771326">
        <ele>231</ele>
        <time>1970-01-01T02:58:03.000Z</time>
      </trkpt>
      <trkpt lat="41.072747" lon="-6.771276">
        <ele>230.9</ele>
        <time>1970-01-01T02:58:04.000Z</time>
      </trkpt>
      <trkpt lat="41.072773" lon="-6.771227">
        <ele>230.7</ele>
        <time>1970-01-01T02:58:05.000Z</time>
      </trkpt>
      <trkpt lat="41.0728" lon="-6.77118">
        <ele>230.5</ele>
        <time>1970-01-01T02:58:06.000Z</time>
      </trkpt>
      <trkpt lat="41.072825" lon="-6.771133">
        <ele>230.2</ele>
        <time>1970-01-01T02:58:07.000Z</time>
      </trkpt>
      <trkpt lat="41.072849" lon="-6.771087">
        <ele>229.9</ele>
        <time>1970-01-01T02:58:08.000Z</time>
      </trkpt>
      <trkpt lat="41.072877" lon="-6.771042">
        <ele>229.6</ele>
        <time>1970-01-01T02:58:09.000Z</time>
      </trkpt>
      <trkpt lat="41.072908" lon="-6.770998">
        <ele>229.2</ele>
        <time>1970-01-01T02:58:10.000Z</time>
      </trkpt>
      <trkpt lat="41.072941" lon="-6.770954">
        <ele>228.8</ele>
        <time>1970-01-01T02:58:11.000Z</time>
      </trkpt>
      <trkpt lat="41.07298" lon="-6.770911">
        <ele>228.2</ele>
        <time>1970-01-01T02:58:12.000Z</time>
      </trkpt>
      <trkpt lat="41.073024" lon="-6.770871">
        <ele>227.6</ele>
        <time>1970-01-01T02:58:13.000Z</time>
      </trkpt>
      <trkpt lat="41.073075" lon="-6.770837">
        <ele>227.1</ele>
        <time>1970-01-01T02:58:14.000Z</time>
      </trkpt>
      <trkpt lat="41.073131" lon="-6.770805">
        <ele>226.5</ele>
        <time>1970-01-01T02:58:15.000Z</time>
      </trkpt>
      <trkpt lat="41.073191" lon="-6.770779">
        <ele>225.8</ele>
        <time>1970-01-01T02:58:16.000Z</time>
      </trkpt>
      <trkpt lat="41.073251" lon="-6.770756">
        <ele>225.1</ele>
        <time>1970-01-01T02:58:17.000Z</time>
      </trkpt>
      <trkpt lat="41.073312" lon="-6.770735">
        <ele>224.1</ele>
        <time>1970-01-01T02:58:18.000Z</time>
      </trkpt>
      <trkpt lat="41.073375" lon="-6.770714">
        <ele>223.2</ele>
        <time>1970-01-01T02:58:19.000Z</time>
      </trkpt>
      <trkpt lat="41.073439" lon="-6.77069">
        <ele>222.3</ele>
        <time>1970-01-01T02:58:20.000Z</time>
      </trkpt>
      <trkpt lat="41.0735" lon="-6.770663">
        <ele>221.7</ele>
        <time>1970-01-01T02:58:21.000Z</time>
      </trkpt>
      <trkpt lat="41.073556" lon="-6.770636">
        <ele>221.1</ele>
        <time>1970-01-01T02:58:22.000Z</time>
      </trkpt>
      <trkpt lat="41.073611" lon="-6.770604">
        <ele>220.6</ele>
        <time>1970-01-01T02:58:23.000Z</time>
      </trkpt>
      <trkpt lat="41.073664" lon="-6.770565">
        <ele>220.2</ele>
        <time>1970-01-01T02:58:24.000Z</time>
      </trkpt>
      <trkpt lat="41.073715" lon="-6.770515">
        <ele>219.7</ele>
        <time>1970-01-01T02:58:25.000Z</time>
      </trkpt>
      <trkpt lat="41.073765" lon="-6.770457">
        <ele>219.1</ele>
        <time>1970-01-01T02:58:26.000Z</time>
      </trkpt>
      <trkpt lat="41.073812" lon="-6.770393">
        <ele>218.5</ele>
        <time>1970-01-01T02:58:27.000Z</time>
      </trkpt>
      <trkpt lat="41.073855" lon="-6.770326">
        <ele>217.9</ele>
        <time>1970-01-01T02:58:28.000Z</time>
      </trkpt>
      <trkpt lat="41.073896" lon="-6.770259">
        <ele>217.5</ele>
        <time>1970-01-01T02:58:29.000Z</time>
      </trkpt>
      <trkpt lat="41.073939" lon="-6.770194">
        <ele>217.5</ele>
        <time>1970-01-01T02:58:30.000Z</time>
      </trkpt>
      <trkpt lat="41.073984" lon="-6.770138">
        <ele>217.7</ele>
        <time>1970-01-01T02:58:31.000Z</time>
      </trkpt>
      <trkpt lat="41.07403" lon="-6.770098">
        <ele>217.8</ele>
        <time>1970-01-01T02:58:32.000Z</time>
      </trkpt>
      <trkpt lat="41.074082" lon="-6.770077">
        <ele>217.7</ele>
        <time>1970-01-01T02:58:33.000Z</time>
      </trkpt>
      <trkpt lat="41.074144" lon="-6.77007">
        <ele>217.5</ele>
        <time>1970-01-01T02:58:34.000Z</time>
      </trkpt>
      <trkpt lat="41.074216" lon="-6.770073">
        <ele>217</ele>
        <time>1970-01-01T02:58:35.000Z</time>
      </trkpt>
      <trkpt lat="41.074294" lon="-6.770077">
        <ele>216.2</ele>
        <time>1970-01-01T02:58:36.000Z</time>
      </trkpt>
      <trkpt lat="41.074373" lon="-6.770078">
        <ele>215.5</ele>
        <time>1970-01-01T02:58:37.000Z</time>
      </trkpt>
      <trkpt lat="41.074452" lon="-6.770069">
        <ele>214.9</ele>
        <time>1970-01-01T02:58:38.000Z</time>
      </trkpt>
      <trkpt lat="41.074531" lon="-6.770052">
        <ele>214.5</ele>
        <time>1970-01-01T02:58:39.000Z</time>
      </trkpt>
      <trkpt lat="41.07461" lon="-6.77003">
        <ele>213.9</ele>
        <time>1970-01-01T02:58:40.000Z</time>
      </trkpt>
      <trkpt lat="41.074686" lon="-6.770005">
        <ele>213.4</ele>
        <time>1970-01-01T02:58:41.000Z</time>
      </trkpt>
      <trkpt lat="41.074758" lon="-6.76998">
        <ele>212.9</ele>
        <time>1970-01-01T02:58:42.000Z</time>
      </trkpt>
      <trkpt lat="41.074823" lon="-6.769951">
        <ele>212.5</ele>
        <time>1970-01-01T02:58:43.000Z</time>
      </trkpt>
      <trkpt lat="41.074878" lon="-6.769915">
        <ele>212.2</ele>
        <time>1970-01-01T02:58:44.000Z</time>
      </trkpt>
      <trkpt lat="41.074919" lon="-6.769871">
        <ele>212</ele>
        <time>1970-01-01T02:58:45.000Z</time>
      </trkpt>
      <trkpt lat="41.07495" lon="-6.769813">
        <ele>212</ele>
        <time>1970-01-01T02:58:46.000Z</time>
      </trkpt>
      <trkpt lat="41.074974" lon="-6.769748">
        <ele>212</ele>
        <time>1970-01-01T02:58:47.000Z</time>
      </trkpt>
      <trkpt lat="41.074994" lon="-6.769677">
        <ele>212.1</ele>
        <time>1970-01-01T02:58:48.000Z</time>
      </trkpt>
      <trkpt lat="41.075008" lon="-6.76961">
        <ele>212.1</ele>
        <time>1970-01-01T02:58:49.000Z</time>
      </trkpt>
      <trkpt lat="41.075016" lon="-6.769543">
        <ele>212.3</ele>
        <time>1970-01-01T02:58:50.000Z</time>
      </trkpt>
      <trkpt lat="41.075025" lon="-6.769477">
        <ele>212.6</ele>
        <time>1970-01-01T02:58:51.000Z</time>
      </trkpt>
      <trkpt lat="41.075033" lon="-6.769416">
        <ele>213.1</ele>
        <time>1970-01-01T02:58:52.000Z</time>
      </trkpt>
      <trkpt lat="41.07504" lon="-6.769359">
        <ele>213.7</ele>
        <time>1970-01-01T02:58:53.000Z</time>
      </trkpt>
      <trkpt lat="41.075047" lon="-6.769306">
        <ele>214.3</ele>
        <time>1970-01-01T02:58:54.000Z</time>
      </trkpt>
      <trkpt lat="41.075059" lon="-6.769257">
        <ele>215.1</ele>
        <time>1970-01-01T02:58:55.000Z</time>
      </trkpt>
      <trkpt lat="41.075077" lon="-6.769212">
        <ele>215.8</ele>
        <time>1970-01-01T02:58:56.000Z</time>
      </trkpt>
      <trkpt lat="41.0751" lon="-6.769176">
        <ele>216.4</ele>
        <time>1970-01-01T02:58:57.000Z</time>
      </trkpt>
      <trkpt lat="41.075125" lon="-6.769146">
        <ele>217.1</ele>
        <time>1970-01-01T02:58:58.000Z</time>
      </trkpt>
      <trkpt lat="41.07515" lon="-6.769127">
        <ele>217.5</ele>
        <time>1970-01-01T02:58:59.000Z</time>
      </trkpt>
      <trkpt lat="41.075176" lon="-6.769117">
        <ele>218</ele>
        <time>1970-01-01T02:59:00.000Z</time>
      </trkpt>
      <trkpt lat="41.075203" lon="-6.769116">
        <ele>218.4</ele>
        <time>1970-01-01T02:59:01.000Z</time>
      </trkpt>
      <trkpt lat="41.07523" lon="-6.769121">
        <ele>218.7</ele>
        <time>1970-01-01T02:59:02.000Z</time>
      </trkpt>
      <trkpt lat="41.075259" lon="-6.769128">
        <ele>219.1</ele>
        <time>1970-01-01T02:59:03.000Z</time>
      </trkpt>
      <trkpt lat="41.075288" lon="-6.769137">
        <ele>219.4</ele>
        <time>1970-01-01T02:59:04.000Z</time>
      </trkpt>
      <trkpt lat="41.075317" lon="-6.769148">
        <ele>219.6</ele>
        <time>1970-01-01T02:59:05.000Z</time>
      </trkpt>
      <trkpt lat="41.075346" lon="-6.76916">
        <ele>219.7</ele>
        <time>1970-01-01T02:59:06.000Z</time>
      </trkpt>
      <trkpt lat="41.075375" lon="-6.769173">
        <ele>219.9</ele>
        <time>1970-01-01T02:59:07.000Z</time>
      </trkpt>
      <trkpt lat="41.075405" lon="-6.769186">
        <ele>219.9</ele>
        <time>1970-01-01T02:59:08.000Z</time>
      </trkpt>
      <trkpt lat="41.075434" lon="-6.769199">
        <ele>220</ele>
        <time>1970-01-01T02:59:09.000Z</time>
      </trkpt>
      <trkpt lat="41.075463" lon="-6.769212">
        <ele>220</ele>
        <time>1970-01-01T02:59:10.000Z</time>
      </trkpt>
      <trkpt lat="41.075493" lon="-6.769223">
        <ele>220</ele>
        <time>1970-01-01T02:59:11.000Z</time>
      </trkpt>
      <trkpt lat="41.075524" lon="-6.769233">
        <ele>219.9</ele>
        <time>1970-01-01T02:59:12.000Z</time>
      </trkpt>
      <trkpt lat="41.075555" lon="-6.769241">
        <ele>219.8</ele>
        <time>1970-01-01T02:59:13.000Z</time>
      </trkpt>
      <trkpt lat="41.075586" lon="-6.769249">
        <ele>219.7</ele>
        <time>1970-01-01T02:59:14.000Z</time>
      </trkpt>
      <trkpt lat="41.075616" lon="-6.769254">
        <ele>219.6</ele>
        <time>1970-01-01T02:59:15.000Z</time>
      </trkpt>
      <trkpt lat="41.075645" lon="-6.769258">
        <ele>219.6</ele>
        <time>1970-01-01T02:59:16.000Z</time>
      </trkpt>
      <trkpt lat="41.075673" lon="-6.76926">
        <ele>219.6</ele>
        <time>1970-01-01T02:59:17.000Z</time>
      </trkpt>
      <trkpt lat="41.0757" lon="-6.769261">
        <ele>219.6</ele>
        <time>1970-01-01T02:59:18.000Z</time>
      </trkpt>
      <trkpt lat="41.075728" lon="-6.769261">
        <ele>219.7</ele>
        <time>1970-01-01T02:59:19.000Z</time>
      </trkpt>
      <trkpt lat="41.075756" lon="-6.76926">
        <ele>219.8</ele>
        <time>1970-01-01T02:59:20.000Z</time>
      </trkpt>
      <trkpt lat="41.075785" lon="-6.769258">
        <ele>219.9</ele>
        <time>1970-01-01T02:59:21.000Z</time>
      </trkpt>
      <trkpt lat="41.075814" lon="-6.769253">
        <ele>220</ele>
        <time>1970-01-01T02:59:22.000Z</time>
      </trkpt>
      <trkpt lat="41.075843" lon="-6.769247">
        <ele>220.2</ele>
        <time>1970-01-01T02:59:23.000Z</time>
      </trkpt>
      <trkpt lat="41.075872" lon="-6.769241">
        <ele>220.3</ele>
        <time>1970-01-01T02:59:24.000Z</time>
      </trkpt>
      <trkpt lat="41.075901" lon="-6.769235">
        <ele>220.4</ele>
        <time>1970-01-01T02:59:25.000Z</time>
      </trkpt>
      <trkpt lat="41.075929" lon="-6.769227">
        <ele>220.5</ele>
        <time>1970-01-01T02:59:26.000Z</time>
      </trkpt>
      <trkpt lat="41.075957" lon="-6.769217">
        <ele>220.7</ele>
        <time>1970-01-01T02:59:27.000Z</time>
      </trkpt>
      <trkpt lat="41.075985" lon="-6.769205">
        <ele>220.8</ele>
        <time>1970-01-01T02:59:28.000Z</time>
      </trkpt>
      <trkpt lat="41.076012" lon="-6.76919">
        <ele>220.9</ele>
        <time>1970-01-01T02:59:29.000Z</time>
      </trkpt>
      <trkpt lat="41.076038" lon="-6.769171">
        <ele>221.1</ele>
        <time>1970-01-01T02:59:30.000Z</time>
      </trkpt>
      <trkpt lat="41.076064" lon="-6.769151">
        <ele>221.2</ele>
        <time>1970-01-01T02:59:31.000Z</time>
      </trkpt>
      <trkpt lat="41.076091" lon="-6.76913">
        <ele>221.4</ele>
        <time>1970-01-01T02:59:32.000Z</time>
      </trkpt>
      <trkpt lat="41.076118" lon="-6.769109">
        <ele>221.6</ele>
        <time>1970-01-01T02:59:33.000Z</time>
      </trkpt>
      <trkpt lat="41.076146" lon="-6.769087">
        <ele>221.8</ele>
        <time>1970-01-01T02:59:34.000Z</time>
      </trkpt>
      <trkpt lat="41.076173" lon="-6.769065">
        <ele>222</ele>
        <time>1970-01-01T02:59:35.000Z</time>
      </trkpt>
      <trkpt lat="41.0762" lon="-6.769042">
        <ele>222.2</ele>
        <time>1970-01-01T02:59:36.000Z</time>
      </trkpt>
      <trkpt lat="41.076228" lon="-6.769019">
        <ele>222.4</ele>
        <time>1970-01-01T02:59:37.000Z</time>
      </trkpt>
      <trkpt lat="41.076256" lon="-6.768995">
        <ele>222.7</ele>
        <time>1970-01-01T02:59:38.000Z</time>
      </trkpt>
      <trkpt lat="41.076283" lon="-6.768971">
        <ele>222.9</ele>
        <time>1970-01-01T02:59:39.000Z</time>
      </trkpt>
      <trkpt lat="41.076311" lon="-6.768945">
        <ele>223</ele>
        <time>1970-01-01T02:59:40.000Z</time>
      </trkpt>
      <trkpt lat="41.07634" lon="-6.768918">
        <ele>223.2</ele>
        <time>1970-01-01T02:59:41.000Z</time>
      </trkpt>
      <trkpt lat="41.076367" lon="-6.76889">
        <ele>223.4</ele>
        <time>1970-01-01T02:59:42.000Z</time>
      </trkpt>
      <trkpt lat="41.076393" lon="-6.768861">
        <ele>223.6</ele>
        <time>1970-01-01T02:59:43.000Z</time>
      </trkpt>
      <trkpt lat="41.076414" lon="-6.768836">
        <ele>223.8</ele>
        <time>1970-01-01T02:59:44.000Z</time>
      </trkpt>
      <trkpt lat="41.07643" lon="-6.768815">
        <ele>223.9</ele>
        <time>1970-01-01T02:59:45.000Z</time>
      </trkpt>
      <trkpt lat="41.076441" lon="-6.768799">
        <ele>224</ele>
        <time>1970-01-01T02:59:46.000Z</time>
      </trkpt>
      <trkpt lat="41.07645" lon="-6.768784">
        <ele>224.1</ele>
        <time>1970-01-01T02:59:47.000Z</time>
      </trkpt>
      <trkpt lat="41.07646" lon="-6.768772">
        <ele>224.1</ele>
        <time>1970-01-01T02:59:48.000Z</time>
      </trkpt>
      <trkpt lat="41.076466" lon="-6.768765">
        <ele>224.2</ele>
        <time>1970-01-01T02:59:49.000Z</time>
      </trkpt>
      <trkpt lat="41.076469" lon="-6.768761">
        <ele>224.2</ele>
        <time>1970-01-01T02:59:50.000Z</time>
      </trkpt>
      <trkpt lat="41.076469" lon="-6.768761">
        <ele>224.2</ele>
        <time>1970-01-01T02:59:51.000Z</time>
      </trkpt>
      <trkpt lat="41.076468" lon="-6.768761">
        <ele>224.2</ele>
        <time>1970-01-01T02:59:52.000Z</time>
      </trkpt>
      <trkpt lat="41.076468" lon="-6.768761">
        <ele>224.2</ele>
        <time>1970-01-01T02:59:53.000Z</time>
      </trkpt>
      <trkpt lat="41.076469" lon="-6.76876">
        <ele>224.2</ele>
        <time>1970-01-01T02:59:54.000Z</time>
      </trkpt>
      <trkpt lat="41.07647" lon="-6.768759">
        <ele>224.2</ele>
        <time>1970-01-01T02:59:55.000Z</time>
      </trkpt>
      <trkpt lat="41.076472" lon="-6.768758">
        <ele>224.2</ele>
        <time>1970-01-01T02:59:56.000Z</time>
      </trkpt>
      <trkpt lat="41.07649" lon="-6.768767">
        <ele>224.3</ele>
        <time>1970-01-01T02:59:57.000Z</time>
      </trkpt>
      <trkpt lat="41.076494" lon="-6.768773">
        <ele>224.3</ele>
        <time>1970-01-01T02:59:58.000Z</time>
      </trkpt>
      <trkpt lat="41.076498" lon="-6.768782">
        <ele>224.3</ele>
        <time>1970-01-01T03:00:04.000Z</time>
      </trkpt>
      <trkpt lat="41.076503" lon="-6.76879">
        <ele>224.3</ele>
        <time>1970-01-01T03:00:05.000Z</time>
      </trkpt>
      <trkpt lat="41.076513" lon="-6.7688">
        <ele>224.4</ele>
        <time>1970-01-01T03:00:06.000Z</time>
      </trkpt>
      <trkpt lat="41.076525" lon="-6.768812">
        <ele>224.4</ele>
        <time>1970-01-01T03:00:07.000Z</time>
      </trkpt>
      <trkpt lat="41.076541" lon="-6.768826">
        <ele>224.4</ele>
        <time>1970-01-01T03:00:08.000Z</time>
      </trkpt>
      <trkpt lat="41.076555" lon="-6.768844">
        <ele>224.4</ele>
        <time>1970-01-01T03:00:09.000Z</time>
      </trkpt>
      <trkpt lat="41.076568" lon="-6.768866">
        <ele>224.5</ele>
        <time>1970-01-01T03:00:10.000Z</time>
      </trkpt>
      <trkpt lat="41.076578" lon="-6.768892">
        <ele>224.5</ele>
        <time>1970-01-01T03:00:11.000Z</time>
      </trkpt>
      <trkpt lat="41.076586" lon="-6.768917">
        <ele>224.6</ele>
        <time>1970-01-01T03:00:12.000Z</time>
      </trkpt>
      <trkpt lat="41.076593" lon="-6.768936">
        <ele>224.6</ele>
        <time>1970-01-01T03:00:13.000Z</time>
      </trkpt>
      <trkpt lat="41.076601" lon="-6.76895">
        <ele>224.7</ele>
        <time>1970-01-01T03:00:14.000Z</time>
      </trkpt>
      <trkpt lat="41.07661" lon="-6.76896">
        <ele>224.7</ele>
        <time>1970-01-01T03:00:15.000Z</time>
      </trkpt>
      <trkpt lat="41.076615" lon="-6.768964">
        <ele>224.7</ele>
        <time>1970-01-01T03:00:16.000Z</time>
      </trkpt>
      <trkpt lat="41.076618" lon="-6.768965">
        <ele>224.8</ele>
        <time>1970-01-01T03:00:17.000Z</time>
      </trkpt>
      <trkpt lat="41.076618" lon="-6.768964">
        <ele>224.8</ele>
        <time>1970-01-01T03:00:18.000Z</time>
      </trkpt>
      <trkpt lat="41.076619" lon="-6.768965">
        <ele>224.8</ele>
        <time>1970-01-01T03:00:19.000Z</time>
      </trkpt>
      <trkpt lat="41.07662" lon="-6.768966">
        <ele>224.8</ele>
        <time>1970-01-01T03:00:20.000Z</time>
      </trkpt>
      <trkpt lat="41.076621" lon="-6.768967">
        <ele>224.8</ele>
        <time>1970-01-01T03:00:21.000Z</time>
      </trkpt>
      <trkpt lat="41.076621" lon="-6.768968">
        <ele>224.8</ele>
        <time>1970-01-01T03:00:22.000Z</time>
      </trkpt>
      <trkpt lat="41.076621" lon="-6.768969">
        <ele>224.8</ele>
        <time>1970-01-01T03:00:23.000Z</time>
      </trkpt>
      <trkpt lat="41.076621" lon="-6.76897">
        <ele>224.8</ele>
        <time>1970-01-01T03:00:24.000Z</time>
      </trkpt>
      <trkpt lat="41.0766" lon="-6.768953">
        <ele>224.9</ele>
        <time>1970-01-01T03:00:25.000Z</time>
      </trkpt>
      <trkpt lat="41.076597" lon="-6.768941">
        <ele>225</ele>
        <time>1970-01-01T03:00:26.000Z</time>
      </trkpt>
      <trkpt lat="41.076594" lon="-6.768928">
        <ele>225.1</ele>
        <time>1970-01-01T03:00:45.000Z</time>
      </trkpt>
      <trkpt lat="41.076591" lon="-6.768914">
        <ele>225.1</ele>
        <time>1970-01-01T03:00:46.000Z</time>
      </trkpt>
      <trkpt lat="41.076588" lon="-6.768898">
        <ele>225.2</ele>
        <time>1970-01-01T03:00:47.000Z</time>
      </trkpt>
      <trkpt lat="41.076586" lon="-6.76888">
        <ele>225.3</ele>
        <time>1970-01-01T03:00:48.000Z</time>
      </trkpt>
      <trkpt lat="41.076581" lon="-6.768863">
        <ele>225.4</ele>
        <time>1970-01-01T03:00:49.000Z</time>
      </trkpt>
      <trkpt lat="41.076573" lon="-6.768847">
        <ele>225.5</ele>
        <time>1970-01-01T03:00:50.000Z</time>
      </trkpt>
      <trkpt lat="41.076562" lon="-6.768834">
        <ele>225.6</ele>
        <time>1970-01-01T03:00:51.000Z</time>
      </trkpt>
      <trkpt lat="41.076549" lon="-6.768824">
        <ele>225.7</ele>
        <time>1970-01-01T03:00:52.000Z</time>
      </trkpt>
      <trkpt lat="41.076538" lon="-6.768814">
        <ele>225.8</ele>
        <time>1970-01-01T03:00:53.000Z</time>
      </trkpt>
      <trkpt lat="41.076528" lon="-6.768806">
        <ele>225.9</ele>
        <time>1970-01-01T03:00:54.000Z</time>
      </trkpt>
      <trkpt lat="41.076519" lon="-6.768799">
        <ele>225.9</ele>
        <time>1970-01-01T03:00:55.000Z</time>
      </trkpt>
      <trkpt lat="41.076513" lon="-6.768793">
        <ele>226</ele>
        <time>1970-01-01T03:00:56.000Z</time>
      </trkpt>
      <trkpt lat="41.076508" lon="-6.768788">
        <ele>226</ele>
        <time>1970-01-01T03:00:57.000Z</time>
      </trkpt>
      <trkpt lat="41.076503" lon="-6.768783">
        <ele>226</ele>
        <time>1970-01-01T03:00:58.000Z</time>
      </trkpt>
      <trkpt lat="41.076498" lon="-6.768778">
        <ele>226.1</ele>
        <time>1970-01-01T03:00:59.000Z</time>
      </trkpt>
      <trkpt lat="41.076493" lon="-6.768775">
        <ele>226.1</ele>
        <time>1970-01-01T03:01:00.000Z</time>
      </trkpt>
      <trkpt lat="41.076489" lon="-6.768772">
        <ele>226.1</ele>
        <time>1970-01-01T03:01:01.000Z</time>
      </trkpt>
      <trkpt lat="41.076486" lon="-6.768768">
        <ele>226.1</ele>
        <time>1970-01-01T03:01:02.000Z</time>
      </trkpt>
      <trkpt lat="41.076484" lon="-6.768764">
        <ele>226.2</ele>
        <time>1970-01-01T03:01:03.000Z</time>
      </trkpt>
      <trkpt lat="41.076484" lon="-6.76876">
        <ele>226.2</ele>
        <time>1970-01-01T03:01:04.000Z</time>
      </trkpt>
      <trkpt lat="41.076484" lon="-6.768757">
        <ele>226.2</ele>
        <time>1970-01-01T03:01:05.000Z</time>
      </trkpt>
      <trkpt lat="41.076484" lon="-6.768756">
        <ele>226.2</ele>
        <time>1970-01-01T03:01:06.000Z</time>
      </trkpt>
      <trkpt lat="41.076483" lon="-6.768756">
        <ele>226.2</ele>
        <time>1970-01-01T03:01:07.000Z</time>
      </trkpt>
      <trkpt lat="41.076483" lon="-6.768756">
        <ele>226.2</ele>
        <time>1970-01-01T03:01:08.000Z</time>
      </trkpt>
      <trkpt lat="41.076482" lon="-6.768756">
        <ele>226.2</ele>
        <time>1970-01-01T03:01:09.000Z</time>
      </trkpt>
      <trkpt lat="41.076482" lon="-6.768755">
        <ele>226.2</ele>
        <time>1970-01-01T03:01:10.000Z</time>
      </trkpt>
      <trkpt lat="41.076505" lon="-6.768687">
        <ele>226.5</ele>
        <time>1970-01-01T03:01:11.000Z</time>
      </trkpt>
      <trkpt lat="41.076512" lon="-6.768663">
        <ele>226.6</ele>
        <time>1970-01-01T03:01:12.000Z</time>
      </trkpt>
      <trkpt lat="41.076519" lon="-6.768637">
        <ele>226.8</ele>
        <time>1970-01-01T03:01:22.000Z</time>
      </trkpt>
      <trkpt lat="41.076525" lon="-6.76861">
        <ele>226.9</ele>
        <time>1970-01-01T03:01:23.000Z</time>
      </trkpt>
      <trkpt lat="41.076531" lon="-6.768585">
        <ele>227</ele>
        <time>1970-01-01T03:01:24.000Z</time>
      </trkpt>
      <trkpt lat="41.076537" lon="-6.768562">
        <ele>227.1</ele>
        <time>1970-01-01T03:01:25.000Z</time>
      </trkpt>
      <trkpt lat="41.076542" lon="-6.76854">
        <ele>227.2</ele>
        <time>1970-01-01T03:01:26.000Z</time>
      </trkpt>
      <trkpt lat="41.076547" lon="-6.768518">
        <ele>227.3</ele>
        <time>1970-01-01T03:01:27.000Z</time>
      </trkpt>
      <trkpt lat="41.076552" lon="-6.768495">
        <ele>227.4</ele>
        <time>1970-01-01T03:01:28.000Z</time>
      </trkpt>
      <trkpt lat="41.076555" lon="-6.768473">
        <ele>227.5</ele>
        <time>1970-01-01T03:01:29.000Z</time>
      </trkpt>
      <trkpt lat="41.076557" lon="-6.768453">
        <ele>227.6</ele>
        <time>1970-01-01T03:01:30.000Z</time>
      </trkpt>
      <trkpt lat="41.076557" lon="-6.768431">
        <ele>227.6</ele>
        <time>1970-01-01T03:01:31.000Z</time>
      </trkpt>
      <trkpt lat="41.076556" lon="-6.768405">
        <ele>227.7</ele>
        <time>1970-01-01T03:01:32.000Z</time>
      </trkpt>
      <trkpt lat="41.076555" lon="-6.768373">
        <ele>227.9</ele>
        <time>1970-01-01T03:01:33.000Z</time>
      </trkpt>
      <trkpt lat="41.076554" lon="-6.768337">
        <ele>228</ele>
        <time>1970-01-01T03:01:34.000Z</time>
      </trkpt>
      <trkpt lat="41.076555" lon="-6.7683">
        <ele>228.1</ele>
        <time>1970-01-01T03:01:35.000Z</time>
      </trkpt>
      <trkpt lat="41.076554" lon="-6.768261">
        <ele>228.3</ele>
        <time>1970-01-01T03:01:36.000Z</time>
      </trkpt>
      <trkpt lat="41.076554" lon="-6.768226">
        <ele>228.4</ele>
        <time>1970-01-01T03:01:37.000Z</time>
      </trkpt>
      <trkpt lat="41.076553" lon="-6.768194">
        <ele>228.5</ele>
        <time>1970-01-01T03:01:38.000Z</time>
      </trkpt>
      <trkpt lat="41.076551" lon="-6.768167">
        <ele>228.6</ele>
        <time>1970-01-01T03:01:39.000Z</time>
      </trkpt>
      <trkpt lat="41.076547" lon="-6.768141">
        <ele>228.8</ele>
        <time>1970-01-01T03:01:40.000Z</time>
      </trkpt>
      <trkpt lat="41.07654" lon="-6.768114">
        <ele>228.9</ele>
        <time>1970-01-01T03:01:41.000Z</time>
      </trkpt>
      <trkpt lat="41.076532" lon="-6.768085">
        <ele>229.1</ele>
        <time>1970-01-01T03:01:42.000Z</time>
      </trkpt>
      <trkpt lat="41.076523" lon="-6.768054">
        <ele>229.3</ele>
        <time>1970-01-01T03:01:43.000Z</time>
      </trkpt>
      <trkpt lat="41.076514" lon="-6.768023">
        <ele>229.5</ele>
        <time>1970-01-01T03:01:44.000Z</time>
      </trkpt>
      <trkpt lat="41.076505" lon="-6.767991">
        <ele>229.8</ele>
        <time>1970-01-01T03:01:45.000Z</time>
      </trkpt>
      <trkpt lat="41.076496" lon="-6.767959">
        <ele>230.1</ele>
        <time>1970-01-01T03:01:46.000Z</time>
      </trkpt>
      <trkpt lat="41.076486" lon="-6.767926">
        <ele>230.4</ele>
        <time>1970-01-01T03:01:47.000Z</time>
      </trkpt>
      <trkpt lat="41.076475" lon="-6.767893">
        <ele>230.7</ele>
        <time>1970-01-01T03:01:48.000Z</time>
      </trkpt>
      <trkpt lat="41.076463" lon="-6.767859">
        <ele>231</ele>
        <time>1970-01-01T03:01:49.000Z</time>
      </trkpt>
      <trkpt lat="41.076452" lon="-6.767827">
        <ele>231.4</ele>
        <time>1970-01-01T03:01:50.000Z</time>
      </trkpt>
      <trkpt lat="41.07644" lon="-6.767795">
        <ele>231.7</ele>
        <time>1970-01-01T03:01:51.000Z</time>
      </trkpt>
      <trkpt lat="41.076429" lon="-6.767763">
        <ele>232</ele>
        <time>1970-01-01T03:01:52.000Z</time>
      </trkpt>
      <trkpt lat="41.076417" lon="-6.767732">
        <ele>232.3</ele>
        <time>1970-01-01T03:01:53.000Z</time>
      </trkpt>
      <trkpt lat="41.076404" lon="-6.767701">
        <ele>232.6</ele>
        <time>1970-01-01T03:01:54.000Z</time>
      </trkpt>
      <trkpt lat="41.076392" lon="-6.767671">
        <ele>232.9</ele>
        <time>1970-01-01T03:01:55.000Z</time>
      </trkpt>
      <trkpt lat="41.07638" lon="-6.767638">
        <ele>233.2</ele>
        <time>1970-01-01T03:01:56.000Z</time>
      </trkpt>
      <trkpt lat="41.076368" lon="-6.767604">
        <ele>233.5</ele>
        <time>1970-01-01T03:01:57.000Z</time>
      </trkpt>
      <trkpt lat="41.076357" lon="-6.767569">
        <ele>233.9</ele>
        <time>1970-01-01T03:01:58.000Z</time>
      </trkpt>
      <trkpt lat="41.076347" lon="-6.767536">
        <ele>234.1</ele>
        <time>1970-01-01T03:01:59.000Z</time>
      </trkpt>
      <trkpt lat="41.07634" lon="-6.767501">
        <ele>234.4</ele>
        <time>1970-01-01T03:02:00.000Z</time>
      </trkpt>
      <trkpt lat="41.076333" lon="-6.767465">
        <ele>234.6</ele>
        <time>1970-01-01T03:02:01.000Z</time>
      </trkpt>
      <trkpt lat="41.076326" lon="-6.767427">
        <ele>234.8</ele>
        <time>1970-01-01T03:02:02.000Z</time>
      </trkpt>
      <trkpt lat="41.076319" lon="-6.767389">
        <ele>235</ele>
        <time>1970-01-01T03:02:03.000Z</time>
      </trkpt>
      <trkpt lat="41.076311" lon="-6.76735">
        <ele>235.2</ele>
        <time>1970-01-01T03:02:04.000Z</time>
      </trkpt>
      <trkpt lat="41.076304" lon="-6.767309">
        <ele>235.4</ele>
        <time>1970-01-01T03:02:05.000Z</time>
      </trkpt>
      <trkpt lat="41.076299" lon="-6.767267">
        <ele>235.5</ele>
        <time>1970-01-01T03:02:06.000Z</time>
      </trkpt>
      <trkpt lat="41.076296" lon="-6.767224">
        <ele>235.7</ele>
        <time>1970-01-01T03:02:07.000Z</time>
      </trkpt>
      <trkpt lat="41.076293" lon="-6.767181">
        <ele>235.9</ele>
        <time>1970-01-01T03:02:08.000Z</time>
      </trkpt>
      <trkpt lat="41.076291" lon="-6.767138">
        <ele>236</ele>
        <time>1970-01-01T03:02:09.000Z</time>
      </trkpt>
      <trkpt lat="41.07629" lon="-6.767094">
        <ele>236.2</ele>
        <time>1970-01-01T03:02:10.000Z</time>
      </trkpt>
      <trkpt lat="41.07629" lon="-6.767049">
        <ele>236.4</ele>
        <time>1970-01-01T03:02:11.000Z</time>
      </trkpt>
      <trkpt lat="41.076293" lon="-6.767006">
        <ele>236.5</ele>
        <time>1970-01-01T03:02:12.000Z</time>
      </trkpt>
      <trkpt lat="41.076299" lon="-6.766964">
        <ele>236.7</ele>
        <time>1970-01-01T03:02:13.000Z</time>
      </trkpt>
      <trkpt lat="41.076307" lon="-6.766923">
        <ele>236.9</ele>
        <time>1970-01-01T03:02:14.000Z</time>
      </trkpt>
      <trkpt lat="41.076316" lon="-6.766883">
        <ele>237</ele>
        <time>1970-01-01T03:02:15.000Z</time>
      </trkpt>
      <trkpt lat="41.076326" lon="-6.766842">
        <ele>237.2</ele>
        <time>1970-01-01T03:02:16.000Z</time>
      </trkpt>
      <trkpt lat="41.076337" lon="-6.766801">
        <ele>237.4</ele>
        <time>1970-01-01T03:02:17.000Z</time>
      </trkpt>
      <trkpt lat="41.076348" lon="-6.76676">
        <ele>237.5</ele>
        <time>1970-01-01T03:02:18.000Z</time>
      </trkpt>
      <trkpt lat="41.076359" lon="-6.766719">
        <ele>237.6</ele>
        <time>1970-01-01T03:02:19.000Z</time>
      </trkpt>
      <trkpt lat="41.076371" lon="-6.766679">
        <ele>237.6</ele>
        <time>1970-01-01T03:02:20.000Z</time>
      </trkpt>
      <trkpt lat="41.076386" lon="-6.766644">
        <ele>237.6</ele>
        <time>1970-01-01T03:02:21.000Z</time>
      </trkpt>
      <trkpt lat="41.076404" lon="-6.766614">
        <ele>237.6</ele>
        <time>1970-01-01T03:02:22.000Z</time>
      </trkpt>
      <trkpt lat="41.076425" lon="-6.766591">
        <ele>237.5</ele>
        <time>1970-01-01T03:02:23.000Z</time>
      </trkpt>
      <trkpt lat="41.076446" lon="-6.766575">
        <ele>237.4</ele>
        <time>1970-01-01T03:02:24.000Z</time>
      </trkpt>
      <trkpt lat="41.076469" lon="-6.76657">
        <ele>237.3</ele>
        <time>1970-01-01T03:02:25.000Z</time>
      </trkpt>
      <trkpt lat="41.076491" lon="-6.766575">
        <ele>237.1</ele>
        <time>1970-01-01T03:02:26.000Z</time>
      </trkpt>
      <trkpt lat="41.076515" lon="-6.766587">
        <ele>236.9</ele>
        <time>1970-01-01T03:02:27.000Z</time>
      </trkpt>
      <trkpt lat="41.076539" lon="-6.766609">
        <ele>236.6</ele>
        <time>1970-01-01T03:02:28.000Z</time>
      </trkpt>
      <trkpt lat="41.076563" lon="-6.766638">
        <ele>236.2</ele>
        <time>1970-01-01T03:02:29.000Z</time>
      </trkpt>
      <trkpt lat="41.07659" lon="-6.766675">
        <ele>235.8</ele>
        <time>1970-01-01T03:02:30.000Z</time>
      </trkpt>
      <trkpt lat="41.076619" lon="-6.766709">
        <ele>235.4</ele>
        <time>1970-01-01T03:02:31.000Z</time>
      </trkpt>
      <trkpt lat="41.076653" lon="-6.76674">
        <ele>235</ele>
        <time>1970-01-01T03:02:32.000Z</time>
      </trkpt>
      <trkpt lat="41.07669" lon="-6.766765">
        <ele>234.7</ele>
        <time>1970-01-01T03:02:33.000Z</time>
      </trkpt>
      <trkpt lat="41.07673" lon="-6.766783">
        <ele>234.4</ele>
        <time>1970-01-01T03:02:34.000Z</time>
      </trkpt>
      <trkpt lat="41.076772" lon="-6.766792">
        <ele>234.2</ele>
        <time>1970-01-01T03:02:35.000Z</time>
      </trkpt>
      <trkpt lat="41.076816" lon="-6.766792">
        <ele>234.1</ele>
        <time>1970-01-01T03:02:36.000Z</time>
      </trkpt>
      <trkpt lat="41.07686" lon="-6.766784">
        <ele>233.9</ele>
        <time>1970-01-01T03:02:37.000Z</time>
      </trkpt>
      <trkpt lat="41.076902" lon="-6.766769">
        <ele>233.8</ele>
        <time>1970-01-01T03:02:38.000Z</time>
      </trkpt>
      <trkpt lat="41.076943" lon="-6.766744">
        <ele>233.8</ele>
        <time>1970-01-01T03:02:39.000Z</time>
      </trkpt>
      <trkpt lat="41.076982" lon="-6.766712">
        <ele>233.8</ele>
        <time>1970-01-01T03:02:40.000Z</time>
      </trkpt>
      <trkpt lat="41.077019" lon="-6.766675">
        <ele>233.9</ele>
        <time>1970-01-01T03:02:41.000Z</time>
      </trkpt>
      <trkpt lat="41.077054" lon="-6.766635">
        <ele>234.1</ele>
        <time>1970-01-01T03:02:42.000Z</time>
      </trkpt>
      <trkpt lat="41.077086" lon="-6.766592">
        <ele>234.3</ele>
        <time>1970-01-01T03:02:43.000Z</time>
      </trkpt>
      <trkpt lat="41.077116" lon="-6.766546">
        <ele>234.6</ele>
        <time>1970-01-01T03:02:44.000Z</time>
      </trkpt>
      <trkpt lat="41.077146" lon="-6.7665">
        <ele>234.8</ele>
        <time>1970-01-01T03:02:45.000Z</time>
      </trkpt>
      <trkpt lat="41.077175" lon="-6.766455">
        <ele>235</ele>
        <time>1970-01-01T03:02:46.000Z</time>
      </trkpt>
      <trkpt lat="41.077204" lon="-6.76641">
        <ele>235.1</ele>
        <time>1970-01-01T03:02:47.000Z</time>
      </trkpt>
      <trkpt lat="41.077232" lon="-6.766365">
        <ele>235.3</ele>
        <time>1970-01-01T03:02:48.000Z</time>
      </trkpt>
      <trkpt lat="41.07726" lon="-6.766321">
        <ele>235.5</ele>
        <time>1970-01-01T03:02:49.000Z</time>
      </trkpt>
      <trkpt lat="41.077288" lon="-6.766279">
        <ele>235.7</ele>
        <time>1970-01-01T03:02:50.000Z</time>
      </trkpt>
      <trkpt lat="41.077317" lon="-6.766237">
        <ele>236</ele>
        <time>1970-01-01T03:02:51.000Z</time>
      </trkpt>
      <trkpt lat="41.077344" lon="-6.766196">
        <ele>236.2</ele>
        <time>1970-01-01T03:02:52.000Z</time>
      </trkpt>
      <trkpt lat="41.077371" lon="-6.766155">
        <ele>236.5</ele>
        <time>1970-01-01T03:02:53.000Z</time>
      </trkpt>
      <trkpt lat="41.077397" lon="-6.766113">
        <ele>236.9</ele>
        <time>1970-01-01T03:02:54.000Z</time>
      </trkpt>
      <trkpt lat="41.077424" lon="-6.766071">
        <ele>237.2</ele>
        <time>1970-01-01T03:02:55.000Z</time>
      </trkpt>
      <trkpt lat="41.077449" lon="-6.766029">
        <ele>237.5</ele>
        <time>1970-01-01T03:02:56.000Z</time>
      </trkpt>
      <trkpt lat="41.077474" lon="-6.765989">
        <ele>237.9</ele>
        <time>1970-01-01T03:02:57.000Z</time>
      </trkpt>
      <trkpt lat="41.077498" lon="-6.765951">
        <ele>238.2</ele>
        <time>1970-01-01T03:02:58.000Z</time>
      </trkpt>
      <trkpt lat="41.077523" lon="-6.765912">
        <ele>238.5</ele>
        <time>1970-01-01T03:02:59.000Z</time>
      </trkpt>
      <trkpt lat="41.077548" lon="-6.765876">
        <ele>238.8</ele>
        <time>1970-01-01T03:03:00.000Z</time>
      </trkpt>
      <trkpt lat="41.077576" lon="-6.765843">
        <ele>239.1</ele>
        <time>1970-01-01T03:03:01.000Z</time>
      </trkpt>
      <trkpt lat="41.077607" lon="-6.765818">
        <ele>239.4</ele>
        <time>1970-01-01T03:03:02.000Z</time>
      </trkpt>
      <trkpt lat="41.07764" lon="-6.765805">
        <ele>239.5</ele>
        <time>1970-01-01T03:03:03.000Z</time>
      </trkpt>
      <trkpt lat="41.077675" lon="-6.765807">
        <ele>239.7</ele>
        <time>1970-01-01T03:03:04.000Z</time>
      </trkpt>
      <trkpt lat="41.077705" lon="-6.765823">
        <ele>239.7</ele>
        <time>1970-01-01T03:03:05.000Z</time>
      </trkpt>
      <trkpt lat="41.077731" lon="-6.765854">
        <ele>239.8</ele>
        <time>1970-01-01T03:03:06.000Z</time>
      </trkpt>
      <trkpt lat="41.077751" lon="-6.765895">
        <ele>239.8</ele>
        <time>1970-01-01T03:03:07.000Z</time>
      </trkpt>
      <trkpt lat="41.077769" lon="-6.765944">
        <ele>239.7</ele>
        <time>1970-01-01T03:03:08.000Z</time>
      </trkpt>
      <trkpt lat="41.077787" lon="-6.765998">
        <ele>239.6</ele>
        <time>1970-01-01T03:03:09.000Z</time>
      </trkpt>
      <trkpt lat="41.077804" lon="-6.766059">
        <ele>239.5</ele>
        <time>1970-01-01T03:03:10.000Z</time>
      </trkpt>
      <trkpt lat="41.077823" lon="-6.766121">
        <ele>239.3</ele>
        <time>1970-01-01T03:03:11.000Z</time>
      </trkpt>
      <trkpt lat="41.077842" lon="-6.766185">
        <ele>238.8</ele>
        <time>1970-01-01T03:03:12.000Z</time>
      </trkpt>
      <trkpt lat="41.077863" lon="-6.76625">
        <ele>238.6</ele>
        <time>1970-01-01T03:03:13.000Z</time>
      </trkpt>
      <trkpt lat="41.077886" lon="-6.766315">
        <ele>238.3</ele>
        <time>1970-01-01T03:03:14.000Z</time>
      </trkpt>
      <trkpt lat="41.07791" lon="-6.76638">
        <ele>237.8</ele>
        <time>1970-01-01T03:03:15.000Z</time>
      </trkpt>
      <trkpt lat="41.077936" lon="-6.766446">
        <ele>237.1</ele>
        <time>1970-01-01T03:03:16.000Z</time>
      </trkpt>
      <trkpt lat="41.077965" lon="-6.766512">
        <ele>236.4</ele>
        <time>1970-01-01T03:03:17.000Z</time>
      </trkpt>
      <trkpt lat="41.077996" lon="-6.766578">
        <ele>235.7</ele>
        <time>1970-01-01T03:03:18.000Z</time>
      </trkpt>
      <trkpt lat="41.07803" lon="-6.766644">
        <ele>235.1</ele>
        <time>1970-01-01T03:03:19.000Z</time>
      </trkpt>
      <trkpt lat="41.078067" lon="-6.766709">
        <ele>234.5</ele>
        <time>1970-01-01T03:03:20.000Z</time>
      </trkpt>
      <trkpt lat="41.078107" lon="-6.766769">
        <ele>234</ele>
        <time>1970-01-01T03:03:21.000Z</time>
      </trkpt>
      <trkpt lat="41.07815" lon="-6.766823">
        <ele>233.6</ele>
        <time>1970-01-01T03:03:22.000Z</time>
      </trkpt>
      <trkpt lat="41.078196" lon="-6.766872">
        <ele>233.3</ele>
        <time>1970-01-01T03:03:23.000Z</time>
      </trkpt>
      <trkpt lat="41.078244" lon="-6.766915">
        <ele>233</ele>
        <time>1970-01-01T03:03:24.000Z</time>
      </trkpt>
      <trkpt lat="41.078295" lon="-6.766952">
        <ele>232.8</ele>
        <time>1970-01-01T03:03:25.000Z</time>
      </trkpt>
      <trkpt lat="41.078347" lon="-6.766983">
        <ele>232.6</ele>
        <time>1970-01-01T03:03:26.000Z</time>
      </trkpt>
      <trkpt lat="41.078399" lon="-6.76701">
        <ele>232.6</ele>
        <time>1970-01-01T03:03:27.000Z</time>
      </trkpt>
      <trkpt lat="41.078451" lon="-6.767035">
        <ele>232.6</ele>
        <time>1970-01-01T03:03:28.000Z</time>
      </trkpt>
      <trkpt lat="41.078501" lon="-6.767058">
        <ele>232.7</ele>
        <time>1970-01-01T03:03:29.000Z</time>
      </trkpt>
      <trkpt lat="41.07855" lon="-6.767078">
        <ele>232.8</ele>
        <time>1970-01-01T03:03:30.000Z</time>
      </trkpt>
      <trkpt lat="41.078599" lon="-6.767095">
        <ele>232.8</ele>
        <time>1970-01-01T03:03:31.000Z</time>
      </trkpt>
      <trkpt lat="41.078648" lon="-6.767112">
        <ele>232.8</ele>
        <time>1970-01-01T03:03:32.000Z</time>
      </trkpt>
      <trkpt lat="41.078696" lon="-6.767127">
        <ele>232.8</ele>
        <time>1970-01-01T03:03:33.000Z</time>
      </trkpt>
      <trkpt lat="41.078745" lon="-6.767142">
        <ele>232.9</ele>
        <time>1970-01-01T03:03:34.000Z</time>
      </trkpt>
      <trkpt lat="41.078795" lon="-6.767155">
        <ele>233</ele>
        <time>1970-01-01T03:03:35.000Z</time>
      </trkpt>
      <trkpt lat="41.078844" lon="-6.767167">
        <ele>233.1</ele>
        <time>1970-01-01T03:03:36.000Z</time>
      </trkpt>
      <trkpt lat="41.078893" lon="-6.767178">
        <ele>233.3</ele>
        <time>1970-01-01T03:03:37.000Z</time>
      </trkpt>
      <trkpt lat="41.078941" lon="-6.767186">
        <ele>233.4</ele>
        <time>1970-01-01T03:03:38.000Z</time>
      </trkpt>
      <trkpt lat="41.078989" lon="-6.76719">
        <ele>233.4</ele>
        <time>1970-01-01T03:03:39.000Z</time>
      </trkpt>
      <trkpt lat="41.079039" lon="-6.767191">
        <ele>233.4</ele>
        <time>1970-01-01T03:03:40.000Z</time>
      </trkpt>
      <trkpt lat="41.079091" lon="-6.767192">
        <ele>233.4</ele>
        <time>1970-01-01T03:03:41.000Z</time>
      </trkpt>
      <trkpt lat="41.079143" lon="-6.767195">
        <ele>233.4</ele>
        <time>1970-01-01T03:03:42.000Z</time>
      </trkpt>
      <trkpt lat="41.079194" lon="-6.767206">
        <ele>233.3</ele>
        <time>1970-01-01T03:03:43.000Z</time>
      </trkpt>
      <trkpt lat="41.079242" lon="-6.767227">
        <ele>233.1</ele>
        <time>1970-01-01T03:03:44.000Z</time>
      </trkpt>
      <trkpt lat="41.079288" lon="-6.767256">
        <ele>232.8</ele>
        <time>1970-01-01T03:03:45.000Z</time>
      </trkpt>
      <trkpt lat="41.079331" lon="-6.767291">
        <ele>232.4</ele>
        <time>1970-01-01T03:03:46.000Z</time>
      </trkpt>
      <trkpt lat="41.079373" lon="-6.767329">
        <ele>232</ele>
        <time>1970-01-01T03:03:47.000Z</time>
      </trkpt>
      <trkpt lat="41.079416" lon="-6.76737">
        <ele>231.6</ele>
        <time>1970-01-01T03:03:48.000Z</time>
      </trkpt>
      <trkpt lat="41.07946" lon="-6.767412">
        <ele>231.1</ele>
        <time>1970-01-01T03:03:49.000Z</time>
      </trkpt>
      <trkpt lat="41.079505" lon="-6.76745">
        <ele>230.7</ele>
        <time>1970-01-01T03:03:50.000Z</time>
      </trkpt>
      <trkpt lat="41.079552" lon="-6.76748">
        <ele>230.4</ele>
        <time>1970-01-01T03:03:51.000Z</time>
      </trkpt>
      <trkpt lat="41.079601" lon="-6.767501">
        <ele>230.1</ele>
        <time>1970-01-01T03:03:52.000Z</time>
      </trkpt>
      <trkpt lat="41.07965" lon="-6.767512">
        <ele>229.8</ele>
        <time>1970-01-01T03:03:53.000Z</time>
      </trkpt>
      <trkpt lat="41.0797" lon="-6.767518">
        <ele>229.7</ele>
        <time>1970-01-01T03:03:54.000Z</time>
      </trkpt>
      <trkpt lat="41.079751" lon="-6.767519">
        <ele>229.5</ele>
        <time>1970-01-01T03:03:55.000Z</time>
      </trkpt>
      <trkpt lat="41.079801" lon="-6.767514">
        <ele>229.3</ele>
        <time>1970-01-01T03:03:56.000Z</time>
      </trkpt>
      <trkpt lat="41.079851" lon="-6.767505">
        <ele>229.2</ele>
        <time>1970-01-01T03:03:57.000Z</time>
      </trkpt>
      <trkpt lat="41.079902" lon="-6.767493">
        <ele>229.1</ele>
        <time>1970-01-01T03:03:58.000Z</time>
      </trkpt>
      <trkpt lat="41.079953" lon="-6.767477">
        <ele>228.9</ele>
        <time>1970-01-01T03:03:59.000Z</time>
      </trkpt>
      <trkpt lat="41.080004" lon="-6.767458">
        <ele>228.8</ele>
        <time>1970-01-01T03:04:00.000Z</time>
      </trkpt>
      <trkpt lat="41.080054" lon="-6.767434">
        <ele>228.6</ele>
        <time>1970-01-01T03:04:01.000Z</time>
      </trkpt>
      <trkpt lat="41.080102" lon="-6.76741">
        <ele>228.4</ele>
        <time>1970-01-01T03:04:02.000Z</time>
      </trkpt>
      <trkpt lat="41.080151" lon="-6.767384">
        <ele>228.2</ele>
        <time>1970-01-01T03:04:03.000Z</time>
      </trkpt>
      <trkpt lat="41.0802" lon="-6.767355">
        <ele>228</ele>
        <time>1970-01-01T03:04:04.000Z</time>
      </trkpt>
      <trkpt lat="41.080248" lon="-6.767324">
        <ele>227.8</ele>
        <time>1970-01-01T03:04:05.000Z</time>
      </trkpt>
      <trkpt lat="41.080296" lon="-6.767292">
        <ele>227.6</ele>
        <time>1970-01-01T03:04:06.000Z</time>
      </trkpt>
      <trkpt lat="41.080343" lon="-6.767257">
        <ele>227.4</ele>
        <time>1970-01-01T03:04:07.000Z</time>
      </trkpt>
      <trkpt lat="41.08039" lon="-6.76722">
        <ele>227.3</ele>
        <time>1970-01-01T03:04:08.000Z</time>
      </trkpt>
      <trkpt lat="41.080436" lon="-6.767179">
        <ele>227.2</ele>
        <time>1970-01-01T03:04:09.000Z</time>
      </trkpt>
      <trkpt lat="41.08048" lon="-6.767133">
        <ele>227</ele>
        <time>1970-01-01T03:04:10.000Z</time>
      </trkpt>
      <trkpt lat="41.080521" lon="-6.767083">
        <ele>226.8</ele>
        <time>1970-01-01T03:04:11.000Z</time>
      </trkpt>
      <trkpt lat="41.08056" lon="-6.76703">
        <ele>226.6</ele>
        <time>1970-01-01T03:04:12.000Z</time>
      </trkpt>
      <trkpt lat="41.080595" lon="-6.766974">
        <ele>226.4</ele>
        <time>1970-01-01T03:04:13.000Z</time>
      </trkpt>
      <trkpt lat="41.080628" lon="-6.766918">
        <ele>226.3</ele>
        <time>1970-01-01T03:04:14.000Z</time>
      </trkpt>
      <trkpt lat="41.080659" lon="-6.766861">
        <ele>226.2</ele>
        <time>1970-01-01T03:04:15.000Z</time>
      </trkpt>
      <trkpt lat="41.080688" lon="-6.766804">
        <ele>226.2</ele>
        <time>1970-01-01T03:04:16.000Z</time>
      </trkpt>
      <trkpt lat="41.080715" lon="-6.766746">
        <ele>226.3</ele>
        <time>1970-01-01T03:04:17.000Z</time>
      </trkpt>
      <trkpt lat="41.080742" lon="-6.766689">
        <ele>226.3</ele>
        <time>1970-01-01T03:04:18.000Z</time>
      </trkpt>
      <trkpt lat="41.080768" lon="-6.766631">
        <ele>226.3</ele>
        <time>1970-01-01T03:04:19.000Z</time>
      </trkpt>
      <trkpt lat="41.080793" lon="-6.766573">
        <ele>226.3</ele>
        <time>1970-01-01T03:04:20.000Z</time>
      </trkpt>
      <trkpt lat="41.080818" lon="-6.766515">
        <ele>226.2</ele>
        <time>1970-01-01T03:04:21.000Z</time>
      </trkpt>
      <trkpt lat="41.080843" lon="-6.766455">
        <ele>226.2</ele>
        <time>1970-01-01T03:04:22.000Z</time>
      </trkpt>
      <trkpt lat="41.080868" lon="-6.766394">
        <ele>226.2</ele>
        <time>1970-01-01T03:04:23.000Z</time>
      </trkpt>
      <trkpt lat="41.080893" lon="-6.766332">
        <ele>226.2</ele>
        <time>1970-01-01T03:04:24.000Z</time>
      </trkpt>
      <trkpt lat="41.080919" lon="-6.76627">
        <ele>226.1</ele>
        <time>1970-01-01T03:04:25.000Z</time>
      </trkpt>
      <trkpt lat="41.080943" lon="-6.766209">
        <ele>226.1</ele>
        <time>1970-01-01T03:04:26.000Z</time>
      </trkpt>
      <trkpt lat="41.080968" lon="-6.766148">
        <ele>226</ele>
        <time>1970-01-01T03:04:27.000Z</time>
      </trkpt>
      <trkpt lat="41.080994" lon="-6.766088">
        <ele>226</ele>
        <time>1970-01-01T03:04:28.000Z</time>
      </trkpt>
      <trkpt lat="41.081021" lon="-6.76603">
        <ele>225.9</ele>
        <time>1970-01-01T03:04:29.000Z</time>
      </trkpt>
      <trkpt lat="41.081047" lon="-6.765973">
        <ele>225.8</ele>
        <time>1970-01-01T03:04:30.000Z</time>
      </trkpt>
      <trkpt lat="41.081072" lon="-6.765917">
        <ele>225.8</ele>
        <time>1970-01-01T03:04:31.000Z</time>
      </trkpt>
      <trkpt lat="41.081096" lon="-6.76586">
        <ele>225.7</ele>
        <time>1970-01-01T03:04:32.000Z</time>
      </trkpt>
      <trkpt lat="41.081119" lon="-6.765803">
        <ele>225.6</ele>
        <time>1970-01-01T03:04:33.000Z</time>
      </trkpt>
      <trkpt lat="41.081141" lon="-6.765746">
        <ele>225.5</ele>
        <time>1970-01-01T03:04:34.000Z</time>
      </trkpt>
      <trkpt lat="41.081164" lon="-6.76569">
        <ele>225.4</ele>
        <time>1970-01-01T03:04:35.000Z</time>
      </trkpt>
      <trkpt lat="41.081187" lon="-6.765633">
        <ele>225.3</ele>
        <time>1970-01-01T03:04:36.000Z</time>
      </trkpt>
      <trkpt lat="41.081211" lon="-6.765576">
        <ele>225.3</ele>
        <time>1970-01-01T03:04:37.000Z</time>
      </trkpt>
      <trkpt lat="41.081235" lon="-6.76552">
        <ele>225.3</ele>
        <time>1970-01-01T03:04:38.000Z</time>
      </trkpt>
      <trkpt lat="41.081258" lon="-6.765463">
        <ele>225.4</ele>
        <time>1970-01-01T03:04:39.000Z</time>
      </trkpt>
      <trkpt lat="41.081282" lon="-6.765406">
        <ele>225.5</ele>
        <time>1970-01-01T03:04:40.000Z</time>
      </trkpt>
      <trkpt lat="41.081305" lon="-6.76535">
        <ele>225.6</ele>
        <time>1970-01-01T03:04:41.000Z</time>
      </trkpt>
      <trkpt lat="41.081327" lon="-6.765294">
        <ele>225.7</ele>
        <time>1970-01-01T03:04:42.000Z</time>
      </trkpt>
      <trkpt lat="41.081347" lon="-6.765239">
        <ele>225.8</ele>
        <time>1970-01-01T03:04:43.000Z</time>
      </trkpt>
      <trkpt lat="41.081367" lon="-6.765185">
        <ele>225.9</ele>
        <time>1970-01-01T03:04:44.000Z</time>
      </trkpt>
      <trkpt lat="41.081387" lon="-6.765132">
        <ele>226.1</ele>
        <time>1970-01-01T03:04:45.000Z</time>
      </trkpt>
      <trkpt lat="41.081406" lon="-6.76508">
        <ele>226.4</ele>
        <time>1970-01-01T03:04:46.000Z</time>
      </trkpt>
      <trkpt lat="41.081427" lon="-6.76503">
        <ele>226.6</ele>
        <time>1970-01-01T03:04:47.000Z</time>
      </trkpt>
      <trkpt lat="41.08145" lon="-6.764983">
        <ele>226.9</ele>
        <time>1970-01-01T03:04:48.000Z</time>
      </trkpt>
      <trkpt lat="41.081478" lon="-6.764944">
        <ele>227.1</ele>
        <time>1970-01-01T03:04:49.000Z</time>
      </trkpt>
      <trkpt lat="41.08151" lon="-6.764917">
        <ele>227.2</ele>
        <time>1970-01-01T03:04:50.000Z</time>
      </trkpt>
      <trkpt lat="41.081546" lon="-6.764907">
        <ele>227.3</ele>
        <time>1970-01-01T03:04:51.000Z</time>
      </trkpt>
      <trkpt lat="41.081583" lon="-6.764913">
        <ele>227.4</ele>
        <time>1970-01-01T03:04:52.000Z</time>
      </trkpt>
      <trkpt lat="41.081619" lon="-6.764932">
        <ele>227.4</ele>
        <time>1970-01-01T03:04:53.000Z</time>
      </trkpt>
      <trkpt lat="41.081654" lon="-6.764958">
        <ele>227.4</ele>
        <time>1970-01-01T03:04:54.000Z</time>
      </trkpt>
      <trkpt lat="41.08169" lon="-6.764989">
        <ele>227.3</ele>
        <time>1970-01-01T03:04:55.000Z</time>
      </trkpt>
      <trkpt lat="41.081727" lon="-6.765022">
        <ele>227.3</ele>
        <time>1970-01-01T03:04:56.000Z</time>
      </trkpt>
      <trkpt lat="41.081766" lon="-6.765057">
        <ele>227.2</ele>
        <time>1970-01-01T03:04:57.000Z</time>
      </trkpt>
      <trkpt lat="41.081805" lon="-6.765094">
        <ele>227.1</ele>
        <time>1970-01-01T03:04:58.000Z</time>
      </trkpt>
      <trkpt lat="41.081844" lon="-6.765132">
        <ele>227</ele>
        <time>1970-01-01T03:04:59.000Z</time>
      </trkpt>
      <trkpt lat="41.081884" lon="-6.765171">
        <ele>226.9</ele>
        <time>1970-01-01T03:05:00.000Z</time>
      </trkpt>
      <trkpt lat="41.081923" lon="-6.765209">
        <ele>226.8</ele>
        <time>1970-01-01T03:05:01.000Z</time>
      </trkpt>
      <trkpt lat="41.081964" lon="-6.765248">
        <ele>226.8</ele>
        <time>1970-01-01T03:05:02.000Z</time>
      </trkpt>
      <trkpt lat="41.082005" lon="-6.765286">
        <ele>226.7</ele>
        <time>1970-01-01T03:05:03.000Z</time>
      </trkpt>
      <trkpt lat="41.082047" lon="-6.765323">
        <ele>226.6</ele>
        <time>1970-01-01T03:05:04.000Z</time>
      </trkpt>
      <trkpt lat="41.082089" lon="-6.765361">
        <ele>226.5</ele>
        <time>1970-01-01T03:05:05.000Z</time>
      </trkpt>
      <trkpt lat="41.082131" lon="-6.765399">
        <ele>226.5</ele>
        <time>1970-01-01T03:05:06.000Z</time>
      </trkpt>
      <trkpt lat="41.082173" lon="-6.765438">
        <ele>226.5</ele>
        <time>1970-01-01T03:05:07.000Z</time>
      </trkpt>
      <trkpt lat="41.082215" lon="-6.765478">
        <ele>226.4</ele>
        <time>1970-01-01T03:05:08.000Z</time>
      </trkpt>
      <trkpt lat="41.082258" lon="-6.765519">
        <ele>226.4</ele>
        <time>1970-01-01T03:05:09.000Z</time>
      </trkpt>
      <trkpt lat="41.082302" lon="-6.76556">
        <ele>226.3</ele>
        <time>1970-01-01T03:05:10.000Z</time>
      </trkpt>
      <trkpt lat="41.082346" lon="-6.7656">
        <ele>226.2</ele>
        <time>1970-01-01T03:05:11.000Z</time>
      </trkpt>
      <trkpt lat="41.08239" lon="-6.765642">
        <ele>226.1</ele>
        <time>1970-01-01T03:05:12.000Z</time>
      </trkpt>
      <trkpt lat="41.082435" lon="-6.765683">
        <ele>226.1</ele>
        <time>1970-01-01T03:05:13.000Z</time>
      </trkpt>
      <trkpt lat="41.08248" lon="-6.765723">
        <ele>226</ele>
        <time>1970-01-01T03:05:14.000Z</time>
      </trkpt>
      <trkpt lat="41.082526" lon="-6.765764">
        <ele>225.7</ele>
        <time>1970-01-01T03:05:15.000Z</time>
      </trkpt>
      <trkpt lat="41.082573" lon="-6.765806">
        <ele>225.3</ele>
        <time>1970-01-01T03:05:16.000Z</time>
      </trkpt>
      <trkpt lat="41.08262" lon="-6.765849">
        <ele>224.9</ele>
        <time>1970-01-01T03:05:17.000Z</time>
      </trkpt>
      <trkpt lat="41.082669" lon="-6.76589">
        <ele>224.6</ele>
        <time>1970-01-01T03:05:18.000Z</time>
      </trkpt>
      <trkpt lat="41.082717" lon="-6.765932">
        <ele>224.3</ele>
        <time>1970-01-01T03:05:19.000Z</time>
      </trkpt>
      <trkpt lat="41.082765" lon="-6.765974">
        <ele>224</ele>
        <time>1970-01-01T03:05:20.000Z</time>
      </trkpt>
      <trkpt lat="41.082813" lon="-6.766017">
        <ele>223.6</ele>
        <time>1970-01-01T03:05:21.000Z</time>
      </trkpt>
      <trkpt lat="41.082862" lon="-6.766061">
        <ele>223</ele>
        <time>1970-01-01T03:05:22.000Z</time>
      </trkpt>
      <trkpt lat="41.082912" lon="-6.766107">
        <ele>222.3</ele>
        <time>1970-01-01T03:05:23.000Z</time>
      </trkpt>
      <trkpt lat="41.082961" lon="-6.766152">
        <ele>221.3</ele>
        <time>1970-01-01T03:05:24.000Z</time>
      </trkpt>
      <trkpt lat="41.083011" lon="-6.766196">
        <ele>220</ele>
        <time>1970-01-01T03:05:25.000Z</time>
      </trkpt>
      <trkpt lat="41.083064" lon="-6.766238">
        <ele>219.3</ele>
        <time>1970-01-01T03:05:26.000Z</time>
      </trkpt>
      <trkpt lat="41.083122" lon="-6.766278">
        <ele>218.9</ele>
        <time>1970-01-01T03:05:27.000Z</time>
      </trkpt>
      <trkpt lat="41.083183" lon="-6.766311">
        <ele>218.5</ele>
        <time>1970-01-01T03:05:28.000Z</time>
      </trkpt>
      <trkpt lat="41.083243" lon="-6.766329">
        <ele>218.2</ele>
        <time>1970-01-01T03:05:29.000Z</time>
      </trkpt>
      <trkpt lat="41.083297" lon="-6.766327">
        <ele>217.9</ele>
        <time>1970-01-01T03:05:30.000Z</time>
      </trkpt>
      <trkpt lat="41.08335" lon="-6.766307">
        <ele>217.5</ele>
        <time>1970-01-01T03:05:31.000Z</time>
      </trkpt>
      <trkpt lat="41.083402" lon="-6.766274">
        <ele>217.2</ele>
        <time>1970-01-01T03:05:32.000Z</time>
      </trkpt>
      <trkpt lat="41.083453" lon="-6.766234">
        <ele>217.3</ele>
        <time>1970-01-01T03:05:33.000Z</time>
      </trkpt>
      <trkpt lat="41.0835" lon="-6.766189">
        <ele>217.8</ele>
        <time>1970-01-01T03:05:34.000Z</time>
      </trkpt>
      <trkpt lat="41.083544" lon="-6.766143">
        <ele>219.2</ele>
        <time>1970-01-01T03:05:35.000Z</time>
      </trkpt>
      <trkpt lat="41.083586" lon="-6.766097">
        <ele>220.3</ele>
        <time>1970-01-01T03:05:36.000Z</time>
      </trkpt>
      <trkpt lat="41.083625" lon="-6.766053">
        <ele>220.9</ele>
        <time>1970-01-01T03:05:37.000Z</time>
      </trkpt>
      <trkpt lat="41.083662" lon="-6.76601">
        <ele>221.4</ele>
        <time>1970-01-01T03:05:38.000Z</time>
      </trkpt>
      <trkpt lat="41.083696" lon="-6.765965">
        <ele>221.9</ele>
        <time>1970-01-01T03:05:39.000Z</time>
      </trkpt>
      <trkpt lat="41.083726" lon="-6.765916">
        <ele>222.3</ele>
        <time>1970-01-01T03:05:40.000Z</time>
      </trkpt>
      <trkpt lat="41.083751" lon="-6.765862">
        <ele>222.8</ele>
        <time>1970-01-01T03:05:41.000Z</time>
      </trkpt>
      <trkpt lat="41.083773" lon="-6.765803">
        <ele>223.3</ele>
        <time>1970-01-01T03:05:42.000Z</time>
      </trkpt>
      <trkpt lat="41.083794" lon="-6.765741">
        <ele>223.8</ele>
        <time>1970-01-01T03:05:43.000Z</time>
      </trkpt>
      <trkpt lat="41.083814" lon="-6.765677">
        <ele>224.2</ele>
        <time>1970-01-01T03:05:44.000Z</time>
      </trkpt>
      <trkpt lat="41.083831" lon="-6.765613">
        <ele>224.7</ele>
        <time>1970-01-01T03:05:45.000Z</time>
      </trkpt>
      <trkpt lat="41.083846" lon="-6.765549">
        <ele>225.1</ele>
        <time>1970-01-01T03:05:46.000Z</time>
      </trkpt>
      <trkpt lat="41.083859" lon="-6.765486">
        <ele>225.6</ele>
        <time>1970-01-01T03:05:47.000Z</time>
      </trkpt>
      <trkpt lat="41.083873" lon="-6.765423">
        <ele>226.1</ele>
        <time>1970-01-01T03:05:48.000Z</time>
      </trkpt>
      <trkpt lat="41.083884" lon="-6.76536">
        <ele>226.6</ele>
        <time>1970-01-01T03:05:49.000Z</time>
      </trkpt>
      <trkpt lat="41.083895" lon="-6.7653">
        <ele>227.1</ele>
        <time>1970-01-01T03:05:50.000Z</time>
      </trkpt>
      <trkpt lat="41.083905" lon="-6.765245">
        <ele>227.6</ele>
        <time>1970-01-01T03:05:51.000Z</time>
      </trkpt>
      <trkpt lat="41.083916" lon="-6.765198">
        <ele>228</ele>
        <time>1970-01-01T03:05:52.000Z</time>
      </trkpt>
      <trkpt lat="41.083926" lon="-6.765157">
        <ele>228.4</ele>
        <time>1970-01-01T03:05:53.000Z</time>
      </trkpt>
      <trkpt lat="41.083935" lon="-6.765121">
        <ele>228.7</ele>
        <time>1970-01-01T03:05:54.000Z</time>
      </trkpt>
      <trkpt lat="41.083939" lon="-6.765083">
        <ele>229</ele>
        <time>1970-01-01T03:05:55.000Z</time>
      </trkpt>
      <trkpt lat="41.083943" lon="-6.765045">
        <ele>229.3</ele>
        <time>1970-01-01T03:05:56.000Z</time>
      </trkpt>
      <trkpt lat="41.083949" lon="-6.765004">
        <ele>229.7</ele>
        <time>1970-01-01T03:05:57.000Z</time>
      </trkpt>
      <trkpt lat="41.083956" lon="-6.764961">
        <ele>230</ele>
        <time>1970-01-01T03:05:58.000Z</time>
      </trkpt>
      <trkpt lat="41.083963" lon="-6.764915">
        <ele>230.5</ele>
        <time>1970-01-01T03:05:59.000Z</time>
      </trkpt>
      <trkpt lat="41.08397" lon="-6.76487">
        <ele>230.9</ele>
        <time>1970-01-01T03:06:00.000Z</time>
      </trkpt>
      <trkpt lat="41.083978" lon="-6.764825">
        <ele>231.4</ele>
        <time>1970-01-01T03:06:01.000Z</time>
      </trkpt>
      <trkpt lat="41.083985" lon="-6.764783">
        <ele>231.8</ele>
        <time>1970-01-01T03:06:02.000Z</time>
      </trkpt>
      <trkpt lat="41.083993" lon="-6.764743">
        <ele>232.3</ele>
        <time>1970-01-01T03:06:03.000Z</time>
      </trkpt>
      <trkpt lat="41.084001" lon="-6.764704">
        <ele>232.7</ele>
        <time>1970-01-01T03:06:04.000Z</time>
      </trkpt>
      <trkpt lat="41.084009" lon="-6.764665">
        <ele>233.1</ele>
        <time>1970-01-01T03:06:05.000Z</time>
      </trkpt>
      <trkpt lat="41.084017" lon="-6.764626">
        <ele>233.6</ele>
        <time>1970-01-01T03:06:06.000Z</time>
      </trkpt>
      <trkpt lat="41.084025" lon="-6.764587">
        <ele>234</ele>
        <time>1970-01-01T03:06:07.000Z</time>
      </trkpt>
      <trkpt lat="41.084033" lon="-6.764548">
        <ele>234.4</ele>
        <time>1970-01-01T03:06:08.000Z</time>
      </trkpt>
      <trkpt lat="41.084041" lon="-6.76451">
        <ele>234.8</ele>
        <time>1970-01-01T03:06:09.000Z</time>
      </trkpt>
      <trkpt lat="41.08405" lon="-6.764471">
        <ele>235.3</ele>
        <time>1970-01-01T03:06:10.000Z</time>
      </trkpt>
      <trkpt lat="41.084059" lon="-6.764431">
        <ele>235.7</ele>
        <time>1970-01-01T03:06:11.000Z</time>
      </trkpt>
      <trkpt lat="41.084068" lon="-6.764392">
        <ele>236.1</ele>
        <time>1970-01-01T03:06:12.000Z</time>
      </trkpt>
      <trkpt lat="41.084076" lon="-6.764353">
        <ele>236.5</ele>
        <time>1970-01-01T03:06:13.000Z</time>
      </trkpt>
      <trkpt lat="41.084085" lon="-6.764314">
        <ele>237</ele>
        <time>1970-01-01T03:06:14.000Z</time>
      </trkpt>
      <trkpt lat="41.084096" lon="-6.764277">
        <ele>237.4</ele>
        <time>1970-01-01T03:06:15.000Z</time>
      </trkpt>
      <trkpt lat="41.084108" lon="-6.76424">
        <ele>237.8</ele>
        <time>1970-01-01T03:06:16.000Z</time>
      </trkpt>
      <trkpt lat="41.08412" lon="-6.764204">
        <ele>238.2</ele>
        <time>1970-01-01T03:06:17.000Z</time>
      </trkpt>
      <trkpt lat="41.084131" lon="-6.764168">
        <ele>238.7</ele>
        <time>1970-01-01T03:06:18.000Z</time>
      </trkpt>
      <trkpt lat="41.084141" lon="-6.764131">
        <ele>239.1</ele>
        <time>1970-01-01T03:06:19.000Z</time>
      </trkpt>
      <trkpt lat="41.08415" lon="-6.764093">
        <ele>239.6</ele>
        <time>1970-01-01T03:06:20.000Z</time>
      </trkpt>
      <trkpt lat="41.084158" lon="-6.764054">
        <ele>240.1</ele>
        <time>1970-01-01T03:06:21.000Z</time>
      </trkpt>
      <trkpt lat="41.084167" lon="-6.764014">
        <ele>240.6</ele>
        <time>1970-01-01T03:06:22.000Z</time>
      </trkpt>
      <trkpt lat="41.084174" lon="-6.763973">
        <ele>241.1</ele>
        <time>1970-01-01T03:06:23.000Z</time>
      </trkpt>
      <trkpt lat="41.084182" lon="-6.763933">
        <ele>241.6</ele>
        <time>1970-01-01T03:06:24.000Z</time>
      </trkpt>
      <trkpt lat="41.084189" lon="-6.763893">
        <ele>242.1</ele>
        <time>1970-01-01T03:06:25.000Z</time>
      </trkpt>
      <trkpt lat="41.084194" lon="-6.763853">
        <ele>242.6</ele>
        <time>1970-01-01T03:06:26.000Z</time>
      </trkpt>
      <trkpt lat="41.084199" lon="-6.763811">
        <ele>243.1</ele>
        <time>1970-01-01T03:06:27.000Z</time>
      </trkpt>
      <trkpt lat="41.084202" lon="-6.76377">
        <ele>243.6</ele>
        <time>1970-01-01T03:06:28.000Z</time>
      </trkpt>
      <trkpt lat="41.084203" lon="-6.763731">
        <ele>244</ele>
        <time>1970-01-01T03:06:29.000Z</time>
      </trkpt>
      <trkpt lat="41.084202" lon="-6.763691">
        <ele>244.5</ele>
        <time>1970-01-01T03:06:30.000Z</time>
      </trkpt>
      <trkpt lat="41.084197" lon="-6.763652">
        <ele>244.9</ele>
        <time>1970-01-01T03:06:31.000Z</time>
      </trkpt>
      <trkpt lat="41.084192" lon="-6.763612">
        <ele>245.2</ele>
        <time>1970-01-01T03:06:32.000Z</time>
      </trkpt>
      <trkpt lat="41.084186" lon="-6.763572">
        <ele>245.5</ele>
        <time>1970-01-01T03:06:33.000Z</time>
      </trkpt>
      <trkpt lat="41.08418" lon="-6.763531">
        <ele>245.5</ele>
        <time>1970-01-01T03:06:34.000Z</time>
      </trkpt>
      <trkpt lat="41.084174" lon="-6.763492">
        <ele>245.3</ele>
        <time>1970-01-01T03:06:35.000Z</time>
      </trkpt>
      <trkpt lat="41.084167" lon="-6.763454">
        <ele>244.9</ele>
        <time>1970-01-01T03:06:36.000Z</time>
      </trkpt>
      <trkpt lat="41.084159" lon="-6.763417">
        <ele>244.1</ele>
        <time>1970-01-01T03:06:37.000Z</time>
      </trkpt>
      <trkpt lat="41.084149" lon="-6.76338">
        <ele>243.2</ele>
        <time>1970-01-01T03:06:38.000Z</time>
      </trkpt>
      <trkpt lat="41.084139" lon="-6.763342">
        <ele>242</ele>
        <time>1970-01-01T03:06:39.000Z</time>
      </trkpt>
      <trkpt lat="41.084128" lon="-6.763305">
        <ele>240.6</ele>
        <time>1970-01-01T03:06:40.000Z</time>
      </trkpt>
      <trkpt lat="41.084117" lon="-6.763268">
        <ele>239.9</ele>
        <time>1970-01-01T03:06:41.000Z</time>
      </trkpt>
      <trkpt lat="41.084105" lon="-6.763233">
        <ele>239.9</ele>
        <time>1970-01-01T03:06:42.000Z</time>
      </trkpt>
      <trkpt lat="41.084092" lon="-6.763199">
        <ele>240</ele>
        <time>1970-01-01T03:06:43.000Z</time>
      </trkpt>
      <trkpt lat="41.08408" lon="-6.763164">
        <ele>240.1</ele>
        <time>1970-01-01T03:06:44.000Z</time>
      </trkpt>
      <trkpt lat="41.084068" lon="-6.76313">
        <ele>240.3</ele>
        <time>1970-01-01T03:06:45.000Z</time>
      </trkpt>
      <trkpt lat="41.084055" lon="-6.763094">
        <ele>240.4</ele>
        <time>1970-01-01T03:06:46.000Z</time>
      </trkpt>
      <trkpt lat="41.084042" lon="-6.763058">
        <ele>240.6</ele>
        <time>1970-01-01T03:06:47.000Z</time>
      </trkpt>
      <trkpt lat="41.084028" lon="-6.763023">
        <ele>240.8</ele>
        <time>1970-01-01T03:06:48.000Z</time>
      </trkpt>
      <trkpt lat="41.084014" lon="-6.762988">
        <ele>241.1</ele>
        <time>1970-01-01T03:06:49.000Z</time>
      </trkpt>
      <trkpt lat="41.083999" lon="-6.762953">
        <ele>241.3</ele>
        <time>1970-01-01T03:06:50.000Z</time>
      </trkpt>
      <trkpt lat="41.083985" lon="-6.762918">
        <ele>241.6</ele>
        <time>1970-01-01T03:06:51.000Z</time>
      </trkpt>
      <trkpt lat="41.083971" lon="-6.762883">
        <ele>241.9</ele>
        <time>1970-01-01T03:06:52.000Z</time>
      </trkpt>
      <trkpt lat="41.083958" lon="-6.762848">
        <ele>242.1</ele>
        <time>1970-01-01T03:06:53.000Z</time>
      </trkpt>
      <trkpt lat="41.083946" lon="-6.762813">
        <ele>242.4</ele>
        <time>1970-01-01T03:06:54.000Z</time>
      </trkpt>
      <trkpt lat="41.083936" lon="-6.762776">
        <ele>242.6</ele>
        <time>1970-01-01T03:06:55.000Z</time>
      </trkpt>
      <trkpt lat="41.083928" lon="-6.762738">
        <ele>242.9</ele>
        <time>1970-01-01T03:06:56.000Z</time>
      </trkpt>
      <trkpt lat="41.083923" lon="-6.762699">
        <ele>243.1</ele>
        <time>1970-01-01T03:06:57.000Z</time>
      </trkpt>
      <trkpt lat="41.083923" lon="-6.762662">
        <ele>243.4</ele>
        <time>1970-01-01T03:06:58.000Z</time>
      </trkpt>
      <trkpt lat="41.08393" lon="-6.762627">
        <ele>243.6</ele>
        <time>1970-01-01T03:06:59.000Z</time>
      </trkpt>
      <trkpt lat="41.08394" lon="-6.762595">
        <ele>243.8</ele>
        <time>1970-01-01T03:07:00.000Z</time>
      </trkpt>
      <trkpt lat="41.083951" lon="-6.762566">
        <ele>244.1</ele>
        <time>1970-01-01T03:07:01.000Z</time>
      </trkpt>
      <trkpt lat="41.083965" lon="-6.762537">
        <ele>244.3</ele>
        <time>1970-01-01T03:07:02.000Z</time>
      </trkpt>
      <trkpt lat="41.083981" lon="-6.76251">
        <ele>244.5</ele>
        <time>1970-01-01T03:07:03.000Z</time>
      </trkpt>
      <trkpt lat="41.084" lon="-6.762486">
        <ele>244.6</ele>
        <time>1970-01-01T03:07:04.000Z</time>
      </trkpt>
      <trkpt lat="41.084021" lon="-6.762464">
        <ele>244.8</ele>
        <time>1970-01-01T03:07:05.000Z</time>
      </trkpt>
      <trkpt lat="41.084043" lon="-6.762444">
        <ele>244.9</ele>
        <time>1970-01-01T03:07:06.000Z</time>
      </trkpt>
      <trkpt lat="41.084066" lon="-6.762423">
        <ele>245</ele>
        <time>1970-01-01T03:07:07.000Z</time>
      </trkpt>
      <trkpt lat="41.084089" lon="-6.762403">
        <ele>245.1</ele>
        <time>1970-01-01T03:07:08.000Z</time>
      </trkpt>
      <trkpt lat="41.084111" lon="-6.762384">
        <ele>245.2</ele>
        <time>1970-01-01T03:07:09.000Z</time>
      </trkpt>
      <trkpt lat="41.084134" lon="-6.762366">
        <ele>245.3</ele>
        <time>1970-01-01T03:07:10.000Z</time>
      </trkpt>
      <trkpt lat="41.084156" lon="-6.762346">
        <ele>245.5</ele>
        <time>1970-01-01T03:07:11.000Z</time>
      </trkpt>
      <trkpt lat="41.084179" lon="-6.762324">
        <ele>245.7</ele>
        <time>1970-01-01T03:07:12.000Z</time>
      </trkpt>
      <trkpt lat="41.084201" lon="-6.762302">
        <ele>245.8</ele>
        <time>1970-01-01T03:07:13.000Z</time>
      </trkpt>
      <trkpt lat="41.084224" lon="-6.76228">
        <ele>246</ele>
        <time>1970-01-01T03:07:14.000Z</time>
      </trkpt>
      <trkpt lat="41.084246" lon="-6.762258">
        <ele>246.2</ele>
        <time>1970-01-01T03:07:15.000Z</time>
      </trkpt>
      <trkpt lat="41.084268" lon="-6.762235">
        <ele>246.3</ele>
        <time>1970-01-01T03:07:16.000Z</time>
      </trkpt>
      <trkpt lat="41.08429" lon="-6.762211">
        <ele>246.5</ele>
        <time>1970-01-01T03:07:17.000Z</time>
      </trkpt>
      <trkpt lat="41.084312" lon="-6.762186">
        <ele>246.7</ele>
        <time>1970-01-01T03:07:18.000Z</time>
      </trkpt>
      <trkpt lat="41.084334" lon="-6.762161">
        <ele>246.9</ele>
        <time>1970-01-01T03:07:19.000Z</time>
      </trkpt>
      <trkpt lat="41.084356" lon="-6.762136">
        <ele>247.1</ele>
        <time>1970-01-01T03:07:20.000Z</time>
      </trkpt>
      <trkpt lat="41.084377" lon="-6.762111">
        <ele>247.4</ele>
        <time>1970-01-01T03:07:21.000Z</time>
      </trkpt>
      <trkpt lat="41.084399" lon="-6.762085">
        <ele>247.6</ele>
        <time>1970-01-01T03:07:22.000Z</time>
      </trkpt>
      <trkpt lat="41.084421" lon="-6.762059">
        <ele>247.8</ele>
        <time>1970-01-01T03:07:23.000Z</time>
      </trkpt>
      <trkpt lat="41.084442" lon="-6.762033">
        <ele>247.9</ele>
        <time>1970-01-01T03:07:24.000Z</time>
      </trkpt>
      <trkpt lat="41.084464" lon="-6.762006">
        <ele>248.1</ele>
        <time>1970-01-01T03:07:25.000Z</time>
      </trkpt>
      <trkpt lat="41.084487" lon="-6.761981">
        <ele>248.3</ele>
        <time>1970-01-01T03:07:26.000Z</time>
      </trkpt>
      <trkpt lat="41.084509" lon="-6.761956">
        <ele>248.5</ele>
        <time>1970-01-01T03:07:27.000Z</time>
      </trkpt>
      <trkpt lat="41.084532" lon="-6.76193">
        <ele>248.7</ele>
        <time>1970-01-01T03:07:28.000Z</time>
      </trkpt>
      <trkpt lat="41.084554" lon="-6.761904">
        <ele>248.9</ele>
        <time>1970-01-01T03:07:29.000Z</time>
      </trkpt>
      <trkpt lat="41.084576" lon="-6.761877">
        <ele>249.1</ele>
        <time>1970-01-01T03:07:30.000Z</time>
      </trkpt>
      <trkpt lat="41.084598" lon="-6.761851">
        <ele>249.3</ele>
        <time>1970-01-01T03:07:31.000Z</time>
      </trkpt>
      <trkpt lat="41.08462" lon="-6.761826">
        <ele>249.6</ele>
        <time>1970-01-01T03:07:32.000Z</time>
      </trkpt>
      <trkpt lat="41.084642" lon="-6.761802">
        <ele>249.8</ele>
        <time>1970-01-01T03:07:33.000Z</time>
      </trkpt>
      <trkpt lat="41.084664" lon="-6.761776">
        <ele>250</ele>
        <time>1970-01-01T03:07:34.000Z</time>
      </trkpt>
      <trkpt lat="41.084686" lon="-6.761749">
        <ele>250.2</ele>
        <time>1970-01-01T03:07:35.000Z</time>
      </trkpt>
      <trkpt lat="41.084709" lon="-6.761724">
        <ele>250.5</ele>
        <time>1970-01-01T03:07:36.000Z</time>
      </trkpt>
      <trkpt lat="41.084734" lon="-6.761701">
        <ele>250.6</ele>
        <time>1970-01-01T03:07:37.000Z</time>
      </trkpt>
      <trkpt lat="41.084761" lon="-6.761683">
        <ele>250.8</ele>
        <time>1970-01-01T03:07:38.000Z</time>
      </trkpt>
      <trkpt lat="41.08479" lon="-6.761671">
        <ele>251</ele>
        <time>1970-01-01T03:07:39.000Z</time>
      </trkpt>
      <trkpt lat="41.08482" lon="-6.761666">
        <ele>251.2</ele>
        <time>1970-01-01T03:07:40.000Z</time>
      </trkpt>
      <trkpt lat="41.084849" lon="-6.761668">
        <ele>251.3</ele>
        <time>1970-01-01T03:07:41.000Z</time>
      </trkpt>
      <trkpt lat="41.084877" lon="-6.761675">
        <ele>251.5</ele>
        <time>1970-01-01T03:07:42.000Z</time>
      </trkpt>
      <trkpt lat="41.084904" lon="-6.761688">
        <ele>251.6</ele>
        <time>1970-01-01T03:07:43.000Z</time>
      </trkpt>
      <trkpt lat="41.084931" lon="-6.761706">
        <ele>251.7</ele>
        <time>1970-01-01T03:07:44.000Z</time>
      </trkpt>
      <trkpt lat="41.084957" lon="-6.761729">
        <ele>251.8</ele>
        <time>1970-01-01T03:07:45.000Z</time>
      </trkpt>
      <trkpt lat="41.084982" lon="-6.761754">
        <ele>252</ele>
        <time>1970-01-01T03:07:46.000Z</time>
      </trkpt>
      <trkpt lat="41.085007" lon="-6.76178">
        <ele>252.2</ele>
        <time>1970-01-01T03:07:47.000Z</time>
      </trkpt>
      <trkpt lat="41.085032" lon="-6.761808">
        <ele>252.3</ele>
        <time>1970-01-01T03:07:48.000Z</time>
      </trkpt>
      <trkpt lat="41.085056" lon="-6.761838">
        <ele>252.5</ele>
        <time>1970-01-01T03:07:49.000Z</time>
      </trkpt>
      <trkpt lat="41.08508" lon="-6.761868">
        <ele>252.7</ele>
        <time>1970-01-01T03:07:50.000Z</time>
      </trkpt>
      <trkpt lat="41.085104" lon="-6.761898">
        <ele>252.8</ele>
        <time>1970-01-01T03:07:51.000Z</time>
      </trkpt>
      <trkpt lat="41.085127" lon="-6.761927">
        <ele>252.9</ele>
        <time>1970-01-01T03:07:52.000Z</time>
      </trkpt>
      <trkpt lat="41.085151" lon="-6.761955">
        <ele>253</ele>
        <time>1970-01-01T03:07:53.000Z</time>
      </trkpt>
      <trkpt lat="41.085175" lon="-6.761982">
        <ele>253.1</ele>
        <time>1970-01-01T03:07:54.000Z</time>
      </trkpt>
      <trkpt lat="41.0852" lon="-6.762008">
        <ele>253.2</ele>
        <time>1970-01-01T03:07:55.000Z</time>
      </trkpt>
      <trkpt lat="41.085227" lon="-6.762033">
        <ele>253.4</ele>
        <time>1970-01-01T03:07:56.000Z</time>
      </trkpt>
      <trkpt lat="41.085255" lon="-6.762057">
        <ele>253.5</ele>
        <time>1970-01-01T03:07:57.000Z</time>
      </trkpt>
      <trkpt lat="41.085283" lon="-6.762078">
        <ele>253.7</ele>
        <time>1970-01-01T03:07:58.000Z</time>
      </trkpt>
      <trkpt lat="41.085311" lon="-6.762096">
        <ele>253.8</ele>
        <time>1970-01-01T03:07:59.000Z</time>
      </trkpt>
      <trkpt lat="41.085341" lon="-6.76211">
        <ele>254</ele>
        <time>1970-01-01T03:08:00.000Z</time>
      </trkpt>
      <trkpt lat="41.085372" lon="-6.762119">
        <ele>254.1</ele>
        <time>1970-01-01T03:08:01.000Z</time>
      </trkpt>
      <trkpt lat="41.085403" lon="-6.762123">
        <ele>254.3</ele>
        <time>1970-01-01T03:08:02.000Z</time>
      </trkpt>
      <trkpt lat="41.085434" lon="-6.762121">
        <ele>254.5</ele>
        <time>1970-01-01T03:08:03.000Z</time>
      </trkpt>
      <trkpt lat="41.085464" lon="-6.762116">
        <ele>254.6</ele>
        <time>1970-01-01T03:08:04.000Z</time>
      </trkpt>
      <trkpt lat="41.085494" lon="-6.762108">
        <ele>254.7</ele>
        <time>1970-01-01T03:08:05.000Z</time>
      </trkpt>
      <trkpt lat="41.085525" lon="-6.762099">
        <ele>255.7</ele>
        <time>1970-01-01T03:08:06.000Z</time>
      </trkpt>
      <trkpt lat="41.085556" lon="-6.762089">
        <ele>257</ele>
        <time>1970-01-01T03:08:07.000Z</time>
      </trkpt>
      <trkpt lat="41.085587" lon="-6.762079">
        <ele>258.3</ele>
        <time>1970-01-01T03:08:08.000Z</time>
      </trkpt>
      <trkpt lat="41.085619" lon="-6.762069">
        <ele>259.3</ele>
        <time>1970-01-01T03:08:09.000Z</time>
      </trkpt>
      <trkpt lat="41.08565" lon="-6.76206">
        <ele>260.2</ele>
        <time>1970-01-01T03:08:10.000Z</time>
      </trkpt>
      <trkpt lat="41.085682" lon="-6.762051">
        <ele>260.9</ele>
        <time>1970-01-01T03:08:11.000Z</time>
      </trkpt>
      <trkpt lat="41.085715" lon="-6.762041">
        <ele>261.4</ele>
        <time>1970-01-01T03:08:12.000Z</time>
      </trkpt>
      <trkpt lat="41.085747" lon="-6.762032">
        <ele>261.8</ele>
        <time>1970-01-01T03:08:13.000Z</time>
      </trkpt>
      <trkpt lat="41.085781" lon="-6.762021">
        <ele>262.2</ele>
        <time>1970-01-01T03:08:14.000Z</time>
      </trkpt>
      <trkpt lat="41.085815" lon="-6.76201">
        <ele>262.5</ele>
        <time>1970-01-01T03:08:15.000Z</time>
      </trkpt>
      <trkpt lat="41.08585" lon="-6.761998">
        <ele>262.8</ele>
        <time>1970-01-01T03:08:16.000Z</time>
      </trkpt>
      <trkpt lat="41.085885" lon="-6.761986">
        <ele>263.1</ele>
        <time>1970-01-01T03:08:17.000Z</time>
      </trkpt>
      <trkpt lat="41.08592" lon="-6.761975">
        <ele>263.4</ele>
        <time>1970-01-01T03:08:18.000Z</time>
      </trkpt>
      <trkpt lat="41.085955" lon="-6.761967">
        <ele>263.7</ele>
        <time>1970-01-01T03:08:19.000Z</time>
      </trkpt>
      <trkpt lat="41.085991" lon="-6.761959">
        <ele>264</ele>
        <time>1970-01-01T03:08:20.000Z</time>
      </trkpt>
      <trkpt lat="41.086026" lon="-6.76195">
        <ele>264.2</ele>
        <time>1970-01-01T03:08:21.000Z</time>
      </trkpt>
      <trkpt lat="41.086062" lon="-6.761939">
        <ele>264.5</ele>
        <time>1970-01-01T03:08:22.000Z</time>
      </trkpt>
      <trkpt lat="41.086097" lon="-6.761927">
        <ele>264.8</ele>
        <time>1970-01-01T03:08:23.000Z</time>
      </trkpt>
      <trkpt lat="41.086131" lon="-6.761916">
        <ele>265.1</ele>
        <time>1970-01-01T03:08:24.000Z</time>
      </trkpt>
      <trkpt lat="41.086165" lon="-6.761903">
        <ele>265.3</ele>
        <time>1970-01-01T03:08:25.000Z</time>
      </trkpt>
      <trkpt lat="41.086201" lon="-6.761891">
        <ele>265.5</ele>
        <time>1970-01-01T03:08:26.000Z</time>
      </trkpt>
      <trkpt lat="41.086237" lon="-6.76188">
        <ele>265.6</ele>
        <time>1970-01-01T03:08:27.000Z</time>
      </trkpt>
      <trkpt lat="41.086271" lon="-6.761868">
        <ele>265.7</ele>
        <time>1970-01-01T03:08:28.000Z</time>
      </trkpt>
      <trkpt lat="41.086305" lon="-6.761857">
        <ele>265.8</ele>
        <time>1970-01-01T03:08:29.000Z</time>
      </trkpt>
      <trkpt lat="41.086338" lon="-6.761844">
        <ele>265.9</ele>
        <time>1970-01-01T03:08:30.000Z</time>
      </trkpt>
      <trkpt lat="41.086372" lon="-6.76183">
        <ele>266.1</ele>
        <time>1970-01-01T03:08:31.000Z</time>
      </trkpt>
      <trkpt lat="41.086405" lon="-6.761814">
        <ele>266.2</ele>
        <time>1970-01-01T03:08:32.000Z</time>
      </trkpt>
      <trkpt lat="41.086438" lon="-6.761799">
        <ele>266.4</ele>
        <time>1970-01-01T03:08:33.000Z</time>
      </trkpt>
      <trkpt lat="41.086471" lon="-6.761785">
        <ele>266.5</ele>
        <time>1970-01-01T03:08:34.000Z</time>
      </trkpt>
      <trkpt lat="41.086505" lon="-6.761772">
        <ele>266.7</ele>
        <time>1970-01-01T03:08:35.000Z</time>
      </trkpt>
      <trkpt lat="41.086539" lon="-6.761762">
        <ele>266.8</ele>
        <time>1970-01-01T03:08:36.000Z</time>
      </trkpt>
      <trkpt lat="41.086574" lon="-6.761756">
        <ele>267</ele>
        <time>1970-01-01T03:08:37.000Z</time>
      </trkpt>
      <trkpt lat="41.086608" lon="-6.761752">
        <ele>267.1</ele>
        <time>1970-01-01T03:08:38.000Z</time>
      </trkpt>
      <trkpt lat="41.086643" lon="-6.761752">
        <ele>267.3</ele>
        <time>1970-01-01T03:08:39.000Z</time>
      </trkpt>
      <trkpt lat="41.086677" lon="-6.761755">
        <ele>267.5</ele>
        <time>1970-01-01T03:08:40.000Z</time>
      </trkpt>
      <trkpt lat="41.086713" lon="-6.76176">
        <ele>267.7</ele>
        <time>1970-01-01T03:08:41.000Z</time>
      </trkpt>
      <trkpt lat="41.086748" lon="-6.761766">
        <ele>267.9</ele>
        <time>1970-01-01T03:08:42.000Z</time>
      </trkpt>
      <trkpt lat="41.086782" lon="-6.761776">
        <ele>268</ele>
        <time>1970-01-01T03:08:43.000Z</time>
      </trkpt>
      <trkpt lat="41.086815" lon="-6.761789">
        <ele>268.2</ele>
        <time>1970-01-01T03:08:44.000Z</time>
      </trkpt>
      <trkpt lat="41.086845" lon="-6.761803">
        <ele>268.3</ele>
        <time>1970-01-01T03:08:45.000Z</time>
      </trkpt>
      <trkpt lat="41.086876" lon="-6.761818">
        <ele>268.5</ele>
        <time>1970-01-01T03:08:46.000Z</time>
      </trkpt>
      <trkpt lat="41.086907" lon="-6.761835">
        <ele>268.7</ele>
        <time>1970-01-01T03:08:47.000Z</time>
      </trkpt>
      <trkpt lat="41.086939" lon="-6.761853">
        <ele>268.9</ele>
        <time>1970-01-01T03:08:48.000Z</time>
      </trkpt>
      <trkpt lat="41.086971" lon="-6.761873">
        <ele>269</ele>
        <time>1970-01-01T03:08:49.000Z</time>
      </trkpt>
      <trkpt lat="41.087002" lon="-6.761893">
        <ele>269.2</ele>
        <time>1970-01-01T03:08:50.000Z</time>
      </trkpt>
      <trkpt lat="41.087033" lon="-6.761913">
        <ele>269.4</ele>
        <time>1970-01-01T03:08:51.000Z</time>
      </trkpt>
      <trkpt lat="41.087063" lon="-6.761932">
        <ele>269.6</ele>
        <time>1970-01-01T03:08:52.000Z</time>
      </trkpt>
      <trkpt lat="41.087094" lon="-6.761951">
        <ele>269.9</ele>
        <time>1970-01-01T03:08:53.000Z</time>
      </trkpt>
      <trkpt lat="41.087126" lon="-6.761973">
        <ele>270.1</ele>
        <time>1970-01-01T03:08:54.000Z</time>
      </trkpt>
      <trkpt lat="41.087158" lon="-6.761999">
        <ele>270.3</ele>
        <time>1970-01-01T03:08:55.000Z</time>
      </trkpt>
      <trkpt lat="41.08719" lon="-6.762027">
        <ele>270.5</ele>
        <time>1970-01-01T03:08:56.000Z</time>
      </trkpt>
      <trkpt lat="41.087221" lon="-6.762055">
        <ele>270.6</ele>
        <time>1970-01-01T03:08:57.000Z</time>
      </trkpt>
      <trkpt lat="41.087249" lon="-6.762082">
        <ele>270.8</ele>
        <time>1970-01-01T03:08:58.000Z</time>
      </trkpt>
      <trkpt lat="41.087277" lon="-6.76211">
        <ele>270.9</ele>
        <time>1970-01-01T03:08:59.000Z</time>
      </trkpt>
      <trkpt lat="41.087303" lon="-6.762139">
        <ele>270.9</ele>
        <time>1970-01-01T03:09:00.000Z</time>
      </trkpt>
      <trkpt lat="41.087329" lon="-6.762169">
        <ele>271</ele>
        <time>1970-01-01T03:09:01.000Z</time>
      </trkpt>
      <trkpt lat="41.087354" lon="-6.762199">
        <ele>271.2</ele>
        <time>1970-01-01T03:09:02.000Z</time>
      </trkpt>
      <trkpt lat="41.087379" lon="-6.76223">
        <ele>271.3</ele>
        <time>1970-01-01T03:09:03.000Z</time>
      </trkpt>
      <trkpt lat="41.087405" lon="-6.762263">
        <ele>271.4</ele>
        <time>1970-01-01T03:09:04.000Z</time>
      </trkpt>
      <trkpt lat="41.08743" lon="-6.762296">
        <ele>271.5</ele>
        <time>1970-01-01T03:09:05.000Z</time>
      </trkpt>
      <trkpt lat="41.087455" lon="-6.76233">
        <ele>271.5</ele>
        <time>1970-01-01T03:09:06.000Z</time>
      </trkpt>
      <trkpt lat="41.087479" lon="-6.762363">
        <ele>271.6</ele>
        <time>1970-01-01T03:09:07.000Z</time>
      </trkpt>
      <trkpt lat="41.087504" lon="-6.762396">
        <ele>271.7</ele>
        <time>1970-01-01T03:09:08.000Z</time>
      </trkpt>
      <trkpt lat="41.087528" lon="-6.76243">
        <ele>271.8</ele>
        <time>1970-01-01T03:09:09.000Z</time>
      </trkpt>
      <trkpt lat="41.087553" lon="-6.762463">
        <ele>271.9</ele>
        <time>1970-01-01T03:09:10.000Z</time>
      </trkpt>
      <trkpt lat="41.087576" lon="-6.762498">
        <ele>272</ele>
        <time>1970-01-01T03:09:11.000Z</time>
      </trkpt>
      <trkpt lat="41.0876" lon="-6.762532">
        <ele>272.1</ele>
        <time>1970-01-01T03:09:12.000Z</time>
      </trkpt>
      <trkpt lat="41.087624" lon="-6.762565">
        <ele>272.3</ele>
        <time>1970-01-01T03:09:13.000Z</time>
      </trkpt>
      <trkpt lat="41.087648" lon="-6.762597">
        <ele>272.4</ele>
        <time>1970-01-01T03:09:14.000Z</time>
      </trkpt>
      <trkpt lat="41.087673" lon="-6.76263">
        <ele>272.5</ele>
        <time>1970-01-01T03:09:15.000Z</time>
      </trkpt>
      <trkpt lat="41.087697" lon="-6.762664">
        <ele>272.7</ele>
        <time>1970-01-01T03:09:16.000Z</time>
      </trkpt>
      <trkpt lat="41.087722" lon="-6.762698">
        <ele>272.8</ele>
        <time>1970-01-01T03:09:17.000Z</time>
      </trkpt>
      <trkpt lat="41.087747" lon="-6.762731">
        <ele>273</ele>
        <time>1970-01-01T03:09:18.000Z</time>
      </trkpt>
      <trkpt lat="41.087772" lon="-6.762765">
        <ele>273.2</ele>
        <time>1970-01-01T03:09:19.000Z</time>
      </trkpt>
      <trkpt lat="41.087797" lon="-6.762799">
        <ele>273.3</ele>
        <time>1970-01-01T03:09:20.000Z</time>
      </trkpt>
      <trkpt lat="41.087822" lon="-6.762834">
        <ele>273.5</ele>
        <time>1970-01-01T03:09:21.000Z</time>
      </trkpt>
      <trkpt lat="41.087846" lon="-6.762867">
        <ele>273.6</ele>
        <time>1970-01-01T03:09:22.000Z</time>
      </trkpt>
      <trkpt lat="41.087871" lon="-6.762899">
        <ele>273.3</ele>
        <time>1970-01-01T03:09:23.000Z</time>
      </trkpt>
      <trkpt lat="41.087896" lon="-6.76293">
        <ele>272.8</ele>
        <time>1970-01-01T03:09:24.000Z</time>
      </trkpt>
      <trkpt lat="41.087923" lon="-6.762961">
        <ele>272.3</ele>
        <time>1970-01-01T03:09:25.000Z</time>
      </trkpt>
      <trkpt lat="41.08795" lon="-6.762993">
        <ele>271.8</ele>
        <time>1970-01-01T03:09:26.000Z</time>
      </trkpt>
      <trkpt lat="41.087977" lon="-6.763024">
        <ele>271.3</ele>
        <time>1970-01-01T03:09:27.000Z</time>
      </trkpt>
      <trkpt lat="41.088005" lon="-6.763056">
        <ele>270.8</ele>
        <time>1970-01-01T03:09:28.000Z</time>
      </trkpt>
      <trkpt lat="41.088032" lon="-6.763087">
        <ele>270.3</ele>
        <time>1970-01-01T03:09:29.000Z</time>
      </trkpt>
      <trkpt lat="41.08806" lon="-6.763117">
        <ele>269.9</ele>
        <time>1970-01-01T03:09:30.000Z</time>
      </trkpt>
      <trkpt lat="41.088087" lon="-6.763146">
        <ele>269.4</ele>
        <time>1970-01-01T03:09:31.000Z</time>
      </trkpt>
      <trkpt lat="41.088115" lon="-6.763175">
        <ele>269</ele>
        <time>1970-01-01T03:09:32.000Z</time>
      </trkpt>
      <trkpt lat="41.088142" lon="-6.763202">
        <ele>268.6</ele>
        <time>1970-01-01T03:09:33.000Z</time>
      </trkpt>
      <trkpt lat="41.08817" lon="-6.763229">
        <ele>268.1</ele>
        <time>1970-01-01T03:09:34.000Z</time>
      </trkpt>
      <trkpt lat="41.088198" lon="-6.763254">
        <ele>267.7</ele>
        <time>1970-01-01T03:09:35.000Z</time>
      </trkpt>
      <trkpt lat="41.088227" lon="-6.763279">
        <ele>267.4</ele>
        <time>1970-01-01T03:09:36.000Z</time>
      </trkpt>
      <trkpt lat="41.088257" lon="-6.763302">
        <ele>267.1</ele>
        <time>1970-01-01T03:09:37.000Z</time>
      </trkpt>
      <trkpt lat="41.088287" lon="-6.763323">
        <ele>267</ele>
        <time>1970-01-01T03:09:38.000Z</time>
      </trkpt>
      <trkpt lat="41.088319" lon="-6.763339">
        <ele>268.1</ele>
        <time>1970-01-01T03:09:39.000Z</time>
      </trkpt>
      <trkpt lat="41.088352" lon="-6.763349">
        <ele>269.1</ele>
        <time>1970-01-01T03:09:40.000Z</time>
      </trkpt>
      <trkpt lat="41.088352" lon="-6.763349">
        <ele>269.1</ele>
        <time>1970-01-01T03:09:41.000Z</time>
      </trkpt>
      <trkpt lat="41.088397" lon="-6.76335">
        <ele>270.1</ele>
        <time>1970-01-01T03:09:42.000Z</time>
      </trkpt>
      <trkpt lat="41.088443" lon="-6.763342">
        <ele>270.7</ele>
        <time>1970-01-01T03:09:43.000Z</time>
      </trkpt>
      <trkpt lat="41.088488" lon="-6.763327">
        <ele>270.9</ele>
        <time>1970-01-01T03:09:44.000Z</time>
      </trkpt>
      <trkpt lat="41.088519" lon="-6.763307">
        <ele>270.9</ele>
        <time>1970-01-01T03:09:45.000Z</time>
      </trkpt>
      <trkpt lat="41.088547" lon="-6.76328">
        <ele>270.7</ele>
        <time>1970-01-01T03:09:46.000Z</time>
      </trkpt>
      <trkpt lat="41.088574" lon="-6.763246">
        <ele>270.5</ele>
        <time>1970-01-01T03:09:47.000Z</time>
      </trkpt>
      <trkpt lat="41.0886" lon="-6.763205">
        <ele>270.2</ele>
        <time>1970-01-01T03:09:48.000Z</time>
      </trkpt>
      <trkpt lat="41.088624" lon="-6.763157">
        <ele>269.8</ele>
        <time>1970-01-01T03:09:49.000Z</time>
      </trkpt>
      <trkpt lat="41.088648" lon="-6.763102">
        <ele>269.4</ele>
        <time>1970-01-01T03:09:50.000Z</time>
      </trkpt>
      <trkpt lat="41.08867" lon="-6.76304">
        <ele>268.8</ele>
        <time>1970-01-01T03:09:51.000Z</time>
      </trkpt>
      <trkpt lat="41.088693" lon="-6.762973">
        <ele>268</ele>
        <time>1970-01-01T03:09:52.000Z</time>
      </trkpt>
      <trkpt lat="41.088715" lon="-6.762904">
        <ele>267.1</ele>
        <time>1970-01-01T03:09:53.000Z</time>
      </trkpt>
      <trkpt lat="41.088739" lon="-6.762832">
        <ele>266.4</ele>
        <time>1970-01-01T03:09:54.000Z</time>
      </trkpt>
      <trkpt lat="41.088764" lon="-6.762761">
        <ele>265.8</ele>
        <time>1970-01-01T03:09:55.000Z</time>
      </trkpt>
      <trkpt lat="41.088792" lon="-6.76269">
        <ele>265.3</ele>
        <time>1970-01-01T03:09:56.000Z</time>
      </trkpt>
      <trkpt lat="41.088823" lon="-6.762621">
        <ele>264.9</ele>
        <time>1970-01-01T03:09:57.000Z</time>
      </trkpt>
      <trkpt lat="41.088855" lon="-6.762552">
        <ele>264.3</ele>
        <time>1970-01-01T03:09:58.000Z</time>
      </trkpt>
      <trkpt lat="41.088885" lon="-6.762481">
        <ele>263.7</ele>
        <time>1970-01-01T03:09:59.000Z</time>
      </trkpt>
      <trkpt lat="41.088915" lon="-6.762402">
        <ele>263</ele>
        <time>1970-01-01T03:10:00.000Z</time>
      </trkpt>
      <trkpt lat="41.088948" lon="-6.762317">
        <ele>262.3</ele>
        <time>1970-01-01T03:10:01.000Z</time>
      </trkpt>
      <trkpt lat="41.088986" lon="-6.762232">
        <ele>261.4</ele>
        <time>1970-01-01T03:10:02.000Z</time>
      </trkpt>
      <trkpt lat="41.089034" lon="-6.762155">
        <ele>260.6</ele>
        <time>1970-01-01T03:10:03.000Z</time>
      </trkpt>
      <trkpt lat="41.08909" lon="-6.762087">
        <ele>260</ele>
        <time>1970-01-01T03:10:04.000Z</time>
      </trkpt>
      <trkpt lat="41.089151" lon="-6.762022">
        <ele>259.4</ele>
        <time>1970-01-01T03:10:05.000Z</time>
      </trkpt>
      <trkpt lat="41.089211" lon="-6.761954">
        <ele>259</ele>
        <time>1970-01-01T03:10:06.000Z</time>
      </trkpt>
      <trkpt lat="41.089271" lon="-6.761873">
        <ele>258.5</ele>
        <time>1970-01-01T03:10:07.000Z</time>
      </trkpt>
      <trkpt lat="41.08932" lon="-6.76178">
        <ele>258.2</ele>
        <time>1970-01-01T03:10:08.000Z</time>
      </trkpt>
      <trkpt lat="41.089357" lon="-6.761676">
        <ele>258</ele>
        <time>1970-01-01T03:10:09.000Z</time>
      </trkpt>
      <trkpt lat="41.089383" lon="-6.761574">
        <ele>257.8</ele>
        <time>1970-01-01T03:10:10.000Z</time>
      </trkpt>
      <trkpt lat="41.089407" lon="-6.761474">
        <ele>257.9</ele>
        <time>1970-01-01T03:10:11.000Z</time>
      </trkpt>
      <trkpt lat="41.089435" lon="-6.761379">
        <ele>258</ele>
        <time>1970-01-01T03:10:12.000Z</time>
      </trkpt>
      <trkpt lat="41.089463" lon="-6.761286">
        <ele>258.3</ele>
        <time>1970-01-01T03:10:13.000Z</time>
      </trkpt>
      <trkpt lat="41.08949" lon="-6.761195">
        <ele>258.7</ele>
        <time>1970-01-01T03:10:14.000Z</time>
      </trkpt>
      <trkpt lat="41.089515" lon="-6.761105">
        <ele>259</ele>
        <time>1970-01-01T03:10:15.000Z</time>
      </trkpt>
      <trkpt lat="41.089539" lon="-6.761013">
        <ele>259.2</ele>
        <time>1970-01-01T03:10:16.000Z</time>
      </trkpt>
      <trkpt lat="41.089562" lon="-6.760921">
        <ele>259.4</ele>
        <time>1970-01-01T03:10:17.000Z</time>
      </trkpt>
      <trkpt lat="41.089583" lon="-6.760828">
        <ele>259.7</ele>
        <time>1970-01-01T03:10:18.000Z</time>
      </trkpt>
      <trkpt lat="41.089601" lon="-6.760734">
        <ele>260</ele>
        <time>1970-01-01T03:10:19.000Z</time>
      </trkpt>
      <trkpt lat="41.089614" lon="-6.760642">
        <ele>260.3</ele>
        <time>1970-01-01T03:10:20.000Z</time>
      </trkpt>
      <trkpt lat="41.089624" lon="-6.760551">
        <ele>260.6</ele>
        <time>1970-01-01T03:10:21.000Z</time>
      </trkpt>
      <trkpt lat="41.089632" lon="-6.760462">
        <ele>261</ele>
        <time>1970-01-01T03:10:22.000Z</time>
      </trkpt>
      <trkpt lat="41.089639" lon="-6.760375">
        <ele>261.2</ele>
        <time>1970-01-01T03:10:23.000Z</time>
      </trkpt>
      <trkpt lat="41.089642" lon="-6.760291">
        <ele>261.3</ele>
        <time>1970-01-01T03:10:24.000Z</time>
      </trkpt>
      <trkpt lat="41.08964" lon="-6.760209">
        <ele>261.5</ele>
        <time>1970-01-01T03:10:25.000Z</time>
      </trkpt>
      <trkpt lat="41.089636" lon="-6.760129">
        <ele>261.7</ele>
        <time>1970-01-01T03:10:26.000Z</time>
      </trkpt>
      <trkpt lat="41.08963" lon="-6.76005">
        <ele>261.8</ele>
        <time>1970-01-01T03:10:27.000Z</time>
      </trkpt>
      <trkpt lat="41.089626" lon="-6.759972">
        <ele>261.7</ele>
        <time>1970-01-01T03:10:28.000Z</time>
      </trkpt>
      <trkpt lat="41.08963" lon="-6.759897">
        <ele>261.6</ele>
        <time>1970-01-01T03:10:29.000Z</time>
      </trkpt>
      <trkpt lat="41.089646" lon="-6.759827">
        <ele>261.4</ele>
        <time>1970-01-01T03:10:30.000Z</time>
      </trkpt>
      <trkpt lat="41.089674" lon="-6.759763">
        <ele>261.1</ele>
        <time>1970-01-01T03:10:31.000Z</time>
      </trkpt>
      <trkpt lat="41.08971" lon="-6.759712">
        <ele>260.8</ele>
        <time>1970-01-01T03:10:32.000Z</time>
      </trkpt>
      <trkpt lat="41.089756" lon="-6.759671">
        <ele>260.5</ele>
        <time>1970-01-01T03:10:33.000Z</time>
      </trkpt>
      <trkpt lat="41.089815" lon="-6.759638">
        <ele>260.1</ele>
        <time>1970-01-01T03:10:34.000Z</time>
      </trkpt>
      <trkpt lat="41.089884" lon="-6.759602">
        <ele>259.5</ele>
        <time>1970-01-01T03:10:35.000Z</time>
      </trkpt>
      <trkpt lat="41.089953" lon="-6.759557">
        <ele>258.8</ele>
        <time>1970-01-01T03:10:36.000Z</time>
      </trkpt>
      <trkpt lat="41.090022" lon="-6.759503">
        <ele>257.8</ele>
        <time>1970-01-01T03:10:37.000Z</time>
      </trkpt>
      <trkpt lat="41.090089" lon="-6.759438">
        <ele>256.5</ele>
        <time>1970-01-01T03:10:38.000Z</time>
      </trkpt>
      <trkpt lat="41.090162" lon="-6.759362">
        <ele>255.4</ele>
        <time>1970-01-01T03:10:39.000Z</time>
      </trkpt>
      <trkpt lat="41.09024" lon="-6.759277">
        <ele>254.6</ele>
        <time>1970-01-01T03:10:40.000Z</time>
      </trkpt>
      <trkpt lat="41.090331" lon="-6.759192">
        <ele>253.7</ele>
        <time>1970-01-01T03:10:41.000Z</time>
      </trkpt>
      <trkpt lat="41.09043" lon="-6.759114">
        <ele>252.5</ele>
        <time>1970-01-01T03:10:42.000Z</time>
      </trkpt>
      <trkpt lat="41.090537" lon="-6.759046">
        <ele>251.2</ele>
        <time>1970-01-01T03:10:43.000Z</time>
      </trkpt>
      <trkpt lat="41.090646" lon="-6.758985">
        <ele>250.6</ele>
        <time>1970-01-01T03:10:44.000Z</time>
      </trkpt>
      <trkpt lat="41.090754" lon="-6.758928">
        <ele>250.1</ele>
        <time>1970-01-01T03:10:45.000Z</time>
      </trkpt>
      <trkpt lat="41.090862" lon="-6.758872">
        <ele>249.3</ele>
        <time>1970-01-01T03:10:46.000Z</time>
      </trkpt>
      <trkpt lat="41.090968" lon="-6.758815">
        <ele>248.5</ele>
        <time>1970-01-01T03:10:47.000Z</time>
      </trkpt>
      <trkpt lat="41.091072" lon="-6.758757">
        <ele>247.6</ele>
        <time>1970-01-01T03:10:48.000Z</time>
      </trkpt>
      <trkpt lat="41.091176" lon="-6.758697">
        <ele>246.7</ele>
        <time>1970-01-01T03:10:49.000Z</time>
      </trkpt>
      <trkpt lat="41.091277" lon="-6.758633">
        <ele>245.4</ele>
        <time>1970-01-01T03:10:50.000Z</time>
      </trkpt>
      <trkpt lat="41.091378" lon="-6.758563">
        <ele>243.9</ele>
        <time>1970-01-01T03:10:51.000Z</time>
      </trkpt>
      <trkpt lat="41.091478" lon="-6.758486">
        <ele>242.5</ele>
        <time>1970-01-01T03:10:52.000Z</time>
      </trkpt>
      <trkpt lat="41.091579" lon="-6.758396">
        <ele>241.3</ele>
        <time>1970-01-01T03:10:53.000Z</time>
      </trkpt>
      <trkpt lat="41.09168" lon="-6.758295">
        <ele>239.6</ele>
        <time>1970-01-01T03:10:54.000Z</time>
      </trkpt>
      <trkpt lat="41.091779" lon="-6.758182">
        <ele>237.8</ele>
        <time>1970-01-01T03:10:55.000Z</time>
      </trkpt>
      <trkpt lat="41.091876" lon="-6.75806">
        <ele>236.1</ele>
        <time>1970-01-01T03:10:56.000Z</time>
      </trkpt>
      <trkpt lat="41.091973" lon="-6.757928">
        <ele>234.9</ele>
        <time>1970-01-01T03:10:57.000Z</time>
      </trkpt>
      <trkpt lat="41.09207" lon="-6.757791">
        <ele>234.1</ele>
        <time>1970-01-01T03:10:58.000Z</time>
      </trkpt>
      <trkpt lat="41.092166" lon="-6.757648">
        <ele>232.6</ele>
        <time>1970-01-01T03:10:59.000Z</time>
      </trkpt>
      <trkpt lat="41.092258" lon="-6.757505">
        <ele>231.4</ele>
        <time>1970-01-01T03:11:00.000Z</time>
      </trkpt>
      <trkpt lat="41.092349" lon="-6.757364">
        <ele>231.1</ele>
        <time>1970-01-01T03:11:01.000Z</time>
      </trkpt>
      <trkpt lat="41.092439" lon="-6.757234">
        <ele>231.1</ele>
        <time>1970-01-01T03:11:02.000Z</time>
      </trkpt>
      <trkpt lat="41.092532" lon="-6.757118">
        <ele>231.3</ele>
        <time>1970-01-01T03:11:03.000Z</time>
      </trkpt>
      <trkpt lat="41.092627" lon="-6.757016">
        <ele>231.5</ele>
        <time>1970-01-01T03:11:04.000Z</time>
      </trkpt>
      <trkpt lat="41.092723" lon="-6.756925">
        <ele>231.9</ele>
        <time>1970-01-01T03:11:05.000Z</time>
      </trkpt>
      <trkpt lat="41.09282" lon="-6.756843">
        <ele>232.1</ele>
        <time>1970-01-01T03:11:06.000Z</time>
      </trkpt>
      <trkpt lat="41.092915" lon="-6.75677">
        <ele>232.1</ele>
        <time>1970-01-01T03:11:07.000Z</time>
      </trkpt>
      <trkpt lat="41.093001" lon="-6.756701">
        <ele>232.3</ele>
        <time>1970-01-01T03:11:08.000Z</time>
      </trkpt>
      <trkpt lat="41.093076" lon="-6.756627">
        <ele>232.7</ele>
        <time>1970-01-01T03:11:09.000Z</time>
      </trkpt>
      <trkpt lat="41.093139" lon="-6.756541">
        <ele>232.9</ele>
        <time>1970-01-01T03:11:10.000Z</time>
      </trkpt>
      <trkpt lat="41.093191" lon="-6.756444">
        <ele>232.7</ele>
        <time>1970-01-01T03:11:11.000Z</time>
      </trkpt>
      <trkpt lat="41.09323" lon="-6.756339">
        <ele>232.5</ele>
        <time>1970-01-01T03:11:12.000Z</time>
      </trkpt>
      <trkpt lat="41.093254" lon="-6.756231">
        <ele>232.4</ele>
        <time>1970-01-01T03:11:13.000Z</time>
      </trkpt>
      <trkpt lat="41.093273" lon="-6.75612">
        <ele>232.1</ele>
        <time>1970-01-01T03:11:14.000Z</time>
      </trkpt>
      <trkpt lat="41.093291" lon="-6.756007">
        <ele>231.8</ele>
        <time>1970-01-01T03:11:15.000Z</time>
      </trkpt>
      <trkpt lat="41.093313" lon="-6.755894">
        <ele>231.5</ele>
        <time>1970-01-01T03:11:16.000Z</time>
      </trkpt>
      <trkpt lat="41.093336" lon="-6.755778">
        <ele>231.1</ele>
        <time>1970-01-01T03:11:17.000Z</time>
      </trkpt>
      <trkpt lat="41.093358" lon="-6.755659">
        <ele>230.6</ele>
        <time>1970-01-01T03:11:18.000Z</time>
      </trkpt>
      <trkpt lat="41.093379" lon="-6.755538">
        <ele>229.8</ele>
        <time>1970-01-01T03:11:19.000Z</time>
      </trkpt>
      <trkpt lat="41.093399" lon="-6.755415">
        <ele>229.1</ele>
        <time>1970-01-01T03:11:20.000Z</time>
      </trkpt>
      <trkpt lat="41.093421" lon="-6.755289">
        <ele>228.5</ele>
        <time>1970-01-01T03:11:21.000Z</time>
      </trkpt>
      <trkpt lat="41.093443" lon="-6.75516">
        <ele>228</ele>
        <time>1970-01-01T03:11:22.000Z</time>
      </trkpt>
      <trkpt lat="41.093464" lon="-6.755032">
        <ele>227.5</ele>
        <time>1970-01-01T03:11:23.000Z</time>
      </trkpt>
      <trkpt lat="41.093484" lon="-6.754904">
        <ele>226.8</ele>
        <time>1970-01-01T03:11:24.000Z</time>
      </trkpt>
      <trkpt lat="41.09349" lon="-6.754782">
        <ele>226.1</ele>
        <time>1970-01-01T03:11:25.000Z</time>
      </trkpt>
      <trkpt lat="41.093484" lon="-6.754661">
        <ele>225.3</ele>
        <time>1970-01-01T03:11:26.000Z</time>
      </trkpt>
      <trkpt lat="41.093466" lon="-6.754546">
        <ele>224.6</ele>
        <time>1970-01-01T03:11:27.000Z</time>
      </trkpt>
      <trkpt lat="41.093447" lon="-6.754436">
        <ele>224</ele>
        <time>1970-01-01T03:11:28.000Z</time>
      </trkpt>
      <trkpt lat="41.093428" lon="-6.75433">
        <ele>223.4</ele>
        <time>1970-01-01T03:11:29.000Z</time>
      </trkpt>
      <trkpt lat="41.093411" lon="-6.754228">
        <ele>223</ele>
        <time>1970-01-01T03:11:30.000Z</time>
      </trkpt>
      <trkpt lat="41.093405" lon="-6.754134">
        <ele>222.8</ele>
        <time>1970-01-01T03:11:31.000Z</time>
      </trkpt>
      <trkpt lat="41.09341" lon="-6.754051">
        <ele>222.7</ele>
        <time>1970-01-01T03:11:32.000Z</time>
      </trkpt>
      <trkpt lat="41.093431" lon="-6.753981">
        <ele>222.9</ele>
        <time>1970-01-01T03:11:33.000Z</time>
      </trkpt>
      <trkpt lat="41.093461" lon="-6.753925">
        <ele>222.9</ele>
        <time>1970-01-01T03:11:34.000Z</time>
      </trkpt>
      <trkpt lat="41.093503" lon="-6.753886">
        <ele>222</ele>
        <time>1970-01-01T03:11:35.000Z</time>
      </trkpt>
      <trkpt lat="41.093553" lon="-6.75386">
        <ele>221.1</ele>
        <time>1970-01-01T03:11:36.000Z</time>
      </trkpt>
      <trkpt lat="41.09361" lon="-6.753844">
        <ele>220.5</ele>
        <time>1970-01-01T03:11:37.000Z</time>
      </trkpt>
      <trkpt lat="41.093668" lon="-6.753837">
        <ele>220.2</ele>
        <time>1970-01-01T03:11:38.000Z</time>
      </trkpt>
      <trkpt lat="41.093727" lon="-6.753837">
        <ele>220.1</ele>
        <time>1970-01-01T03:11:39.000Z</time>
      </trkpt>
      <trkpt lat="41.093783" lon="-6.75384">
        <ele>220.1</ele>
        <time>1970-01-01T03:11:40.000Z</time>
      </trkpt>
      <trkpt lat="41.093838" lon="-6.753846">
        <ele>220.2</ele>
        <time>1970-01-01T03:11:41.000Z</time>
      </trkpt>
      <trkpt lat="41.093891" lon="-6.753856">
        <ele>220.3</ele>
        <time>1970-01-01T03:11:42.000Z</time>
      </trkpt>
      <trkpt lat="41.093943" lon="-6.75387">
        <ele>220.5</ele>
        <time>1970-01-01T03:11:43.000Z</time>
      </trkpt>
      <trkpt lat="41.093995" lon="-6.753886">
        <ele>220.7</ele>
        <time>1970-01-01T03:11:44.000Z</time>
      </trkpt>
      <trkpt lat="41.094045" lon="-6.753905">
        <ele>220.8</ele>
        <time>1970-01-01T03:11:45.000Z</time>
      </trkpt>
      <trkpt lat="41.094095" lon="-6.753928">
        <ele>221</ele>
        <time>1970-01-01T03:11:46.000Z</time>
      </trkpt>
      <trkpt lat="41.094145" lon="-6.753954">
        <ele>221.2</ele>
        <time>1970-01-01T03:11:47.000Z</time>
      </trkpt>
      <trkpt lat="41.094195" lon="-6.753981">
        <ele>221.5</ele>
        <time>1970-01-01T03:11:48.000Z</time>
      </trkpt>
      <trkpt lat="41.094243" lon="-6.754009">
        <ele>221.8</ele>
        <time>1970-01-01T03:11:49.000Z</time>
      </trkpt>
      <trkpt lat="41.094289" lon="-6.754038">
        <ele>222.1</ele>
        <time>1970-01-01T03:11:50.000Z</time>
      </trkpt>
      <trkpt lat="41.094334" lon="-6.754069">
        <ele>222.5</ele>
        <time>1970-01-01T03:11:51.000Z</time>
      </trkpt>
      <trkpt lat="41.094377" lon="-6.7541">
        <ele>222.9</ele>
        <time>1970-01-01T03:11:52.000Z</time>
      </trkpt>
      <trkpt lat="41.094417" lon="-6.75413">
        <ele>223.2</ele>
        <time>1970-01-01T03:11:53.000Z</time>
      </trkpt>
      <trkpt lat="41.094456" lon="-6.754158">
        <ele>223.6</ele>
        <time>1970-01-01T03:11:54.000Z</time>
      </trkpt>
      <trkpt lat="41.094493" lon="-6.754186">
        <ele>224</ele>
        <time>1970-01-01T03:11:55.000Z</time>
      </trkpt>
      <trkpt lat="41.094529" lon="-6.754214">
        <ele>224.4</ele>
        <time>1970-01-01T03:11:56.000Z</time>
      </trkpt>
      <trkpt lat="41.094563" lon="-6.754243">
        <ele>224.8</ele>
        <time>1970-01-01T03:11:57.000Z</time>
      </trkpt>
      <trkpt lat="41.094597" lon="-6.754272">
        <ele>225.2</ele>
        <time>1970-01-01T03:11:58.000Z</time>
      </trkpt>
      <trkpt lat="41.094631" lon="-6.754299">
        <ele>225.5</ele>
        <time>1970-01-01T03:11:59.000Z</time>
      </trkpt>
      <trkpt lat="41.094665" lon="-6.754327">
        <ele>225.9</ele>
        <time>1970-01-01T03:12:00.000Z</time>
      </trkpt>
      <trkpt lat="41.0947" lon="-6.754353">
        <ele>226.3</ele>
        <time>1970-01-01T03:12:01.000Z</time>
      </trkpt>
      <trkpt lat="41.094736" lon="-6.754378">
        <ele>226.6</ele>
        <time>1970-01-01T03:12:02.000Z</time>
      </trkpt>
      <trkpt lat="41.094773" lon="-6.754403">
        <ele>226.9</ele>
        <time>1970-01-01T03:12:03.000Z</time>
      </trkpt>
      <trkpt lat="41.09481" lon="-6.754426">
        <ele>227.3</ele>
        <time>1970-01-01T03:12:04.000Z</time>
      </trkpt>
      <trkpt lat="41.094847" lon="-6.754448">
        <ele>227.6</ele>
        <time>1970-01-01T03:12:05.000Z</time>
      </trkpt>
      <trkpt lat="41.094884" lon="-6.754468">
        <ele>227.9</ele>
        <time>1970-01-01T03:12:06.000Z</time>
      </trkpt>
      <trkpt lat="41.094922" lon="-6.754485">
        <ele>228.3</ele>
        <time>1970-01-01T03:12:07.000Z</time>
      </trkpt>
      <trkpt lat="41.09496" lon="-6.7545">
        <ele>228.7</ele>
        <time>1970-01-01T03:12:08.000Z</time>
      </trkpt>
      <trkpt lat="41.094999" lon="-6.754513">
        <ele>229.1</ele>
        <time>1970-01-01T03:12:09.000Z</time>
      </trkpt>
      <trkpt lat="41.095037" lon="-6.754525">
        <ele>229.5</ele>
        <time>1970-01-01T03:12:10.000Z</time>
      </trkpt>
      <trkpt lat="41.095077" lon="-6.754537">
        <ele>229.8</ele>
        <time>1970-01-01T03:12:11.000Z</time>
      </trkpt>
      <trkpt lat="41.095116" lon="-6.754548">
        <ele>230.2</ele>
        <time>1970-01-01T03:12:12.000Z</time>
      </trkpt>
      <trkpt lat="41.095156" lon="-6.754558">
        <ele>230.4</ele>
        <time>1970-01-01T03:12:13.000Z</time>
      </trkpt>
      <trkpt lat="41.095194" lon="-6.754565">
        <ele>230.6</ele>
        <time>1970-01-01T03:12:14.000Z</time>
      </trkpt>
      <trkpt lat="41.095232" lon="-6.754571">
        <ele>230.8</ele>
        <time>1970-01-01T03:12:15.000Z</time>
      </trkpt>
      <trkpt lat="41.095269" lon="-6.754577">
        <ele>231</ele>
        <time>1970-01-01T03:12:16.000Z</time>
      </trkpt>
      <trkpt lat="41.095305" lon="-6.754585">
        <ele>231.2</ele>
        <time>1970-01-01T03:12:17.000Z</time>
      </trkpt>
      <trkpt lat="41.095342" lon="-6.754594">
        <ele>231.5</ele>
        <time>1970-01-01T03:12:18.000Z</time>
      </trkpt>
      <trkpt lat="41.095378" lon="-6.754607">
        <ele>231.7</ele>
        <time>1970-01-01T03:12:19.000Z</time>
      </trkpt>
      <trkpt lat="41.095415" lon="-6.754622">
        <ele>231.9</ele>
        <time>1970-01-01T03:12:20.000Z</time>
      </trkpt>
      <trkpt lat="41.095451" lon="-6.754639">
        <ele>232.1</ele>
        <time>1970-01-01T03:12:21.000Z</time>
      </trkpt>
      <trkpt lat="41.095487" lon="-6.754655">
        <ele>232.4</ele>
        <time>1970-01-01T03:12:22.000Z</time>
      </trkpt>
      <trkpt lat="41.095523" lon="-6.754671">
        <ele>232.6</ele>
        <time>1970-01-01T03:12:23.000Z</time>
      </trkpt>
      <trkpt lat="41.09556" lon="-6.754689">
        <ele>232.8</ele>
        <time>1970-01-01T03:12:24.000Z</time>
      </trkpt>
      <trkpt lat="41.095597" lon="-6.754708">
        <ele>232.9</ele>
        <time>1970-01-01T03:12:25.000Z</time>
      </trkpt>
      <trkpt lat="41.095633" lon="-6.754727">
        <ele>233.1</ele>
        <time>1970-01-01T03:12:26.000Z</time>
      </trkpt>
      <trkpt lat="41.09567" lon="-6.754747">
        <ele>233.2</ele>
        <time>1970-01-01T03:12:27.000Z</time>
      </trkpt>
      <trkpt lat="41.095706" lon="-6.754766">
        <ele>233.3</ele>
        <time>1970-01-01T03:12:28.000Z</time>
      </trkpt>
      <trkpt lat="41.095743" lon="-6.754784">
        <ele>233.4</ele>
        <time>1970-01-01T03:12:29.000Z</time>
      </trkpt>
      <trkpt lat="41.095779" lon="-6.754803">
        <ele>233.5</ele>
        <time>1970-01-01T03:12:30.000Z</time>
      </trkpt>
      <trkpt lat="41.095816" lon="-6.754819">
        <ele>233.6</ele>
        <time>1970-01-01T03:12:31.000Z</time>
      </trkpt>
      <trkpt lat="41.095852" lon="-6.754835">
        <ele>233.6</ele>
        <time>1970-01-01T03:12:32.000Z</time>
      </trkpt>
      <trkpt lat="41.095888" lon="-6.754851">
        <ele>233.7</ele>
        <time>1970-01-01T03:12:33.000Z</time>
      </trkpt>
      <trkpt lat="41.095923" lon="-6.754866">
        <ele>233.8</ele>
        <time>1970-01-01T03:12:34.000Z</time>
      </trkpt>
      <trkpt lat="41.095959" lon="-6.75488">
        <ele>233.8</ele>
        <time>1970-01-01T03:12:35.000Z</time>
      </trkpt>
      <trkpt lat="41.095996" lon="-6.754892">
        <ele>233.7</ele>
        <time>1970-01-01T03:12:36.000Z</time>
      </trkpt>
      <trkpt lat="41.096033" lon="-6.754904">
        <ele>233.5</ele>
        <time>1970-01-01T03:12:37.000Z</time>
      </trkpt>
      <trkpt lat="41.09607" lon="-6.754916">
        <ele>233.1</ele>
        <time>1970-01-01T03:12:38.000Z</time>
      </trkpt>
      <trkpt lat="41.096106" lon="-6.754923">
        <ele>232.7</ele>
        <time>1970-01-01T03:12:39.000Z</time>
      </trkpt>
      <trkpt lat="41.096141" lon="-6.754923">
        <ele>232.5</ele>
        <time>1970-01-01T03:12:40.000Z</time>
      </trkpt>
      <trkpt lat="41.096175" lon="-6.754915">
        <ele>233.1</ele>
        <time>1970-01-01T03:12:41.000Z</time>
      </trkpt>
      <trkpt lat="41.096209" lon="-6.754902">
        <ele>233.7</ele>
        <time>1970-01-01T03:12:42.000Z</time>
      </trkpt>
      <trkpt lat="41.09624" lon="-6.754884">
        <ele>234.3</ele>
        <time>1970-01-01T03:12:43.000Z</time>
      </trkpt>
      <trkpt lat="41.096267" lon="-6.754861">
        <ele>234.8</ele>
        <time>1970-01-01T03:12:44.000Z</time>
      </trkpt>
      <trkpt lat="41.096293" lon="-6.754836">
        <ele>235.3</ele>
        <time>1970-01-01T03:12:45.000Z</time>
      </trkpt>
      <trkpt lat="41.096319" lon="-6.754808">
        <ele>235.7</ele>
        <time>1970-01-01T03:12:46.000Z</time>
      </trkpt>
      <trkpt lat="41.096347" lon="-6.754778">
        <ele>236.2</ele>
        <time>1970-01-01T03:12:47.000Z</time>
      </trkpt>
      <trkpt lat="41.096375" lon="-6.754747">
        <ele>236.6</ele>
        <time>1970-01-01T03:12:48.000Z</time>
      </trkpt>
      <trkpt lat="41.096403" lon="-6.754718">
        <ele>237.1</ele>
        <time>1970-01-01T03:12:49.000Z</time>
      </trkpt>
      <trkpt lat="41.09643" lon="-6.754691">
        <ele>237.6</ele>
        <time>1970-01-01T03:12:50.000Z</time>
      </trkpt>
      <trkpt lat="41.096457" lon="-6.754664">
        <ele>238</ele>
        <time>1970-01-01T03:12:51.000Z</time>
      </trkpt>
      <trkpt lat="41.096483" lon="-6.754637">
        <ele>238.5</ele>
        <time>1970-01-01T03:12:52.000Z</time>
      </trkpt>
      <trkpt lat="41.096508" lon="-6.754609">
        <ele>239</ele>
        <time>1970-01-01T03:12:53.000Z</time>
      </trkpt>
      <trkpt lat="41.096532" lon="-6.75458">
        <ele>239.5</ele>
        <time>1970-01-01T03:12:54.000Z</time>
      </trkpt>
      <trkpt lat="41.096555" lon="-6.754552">
        <ele>240</ele>
        <time>1970-01-01T03:12:55.000Z</time>
      </trkpt>
      <trkpt lat="41.096577" lon="-6.754524">
        <ele>240.5</ele>
        <time>1970-01-01T03:12:56.000Z</time>
      </trkpt>
      <trkpt lat="41.096596" lon="-6.754493">
        <ele>240.9</ele>
        <time>1970-01-01T03:12:57.000Z</time>
      </trkpt>
      <trkpt lat="41.096614" lon="-6.75446">
        <ele>241.4</ele>
        <time>1970-01-01T03:12:58.000Z</time>
      </trkpt>
      <trkpt lat="41.09663" lon="-6.754424">
        <ele>241.8</ele>
        <time>1970-01-01T03:12:59.000Z</time>
      </trkpt>
      <trkpt lat="41.096642" lon="-6.754386">
        <ele>242.3</ele>
        <time>1970-01-01T03:13:00.000Z</time>
      </trkpt>
      <trkpt lat="41.096653" lon="-6.754347">
        <ele>242.8</ele>
        <time>1970-01-01T03:13:01.000Z</time>
      </trkpt>
      <trkpt lat="41.096663" lon="-6.754307">
        <ele>243.3</ele>
        <time>1970-01-01T03:13:02.000Z</time>
      </trkpt>
      <trkpt lat="41.096673" lon="-6.754266">
        <ele>243.8</ele>
        <time>1970-01-01T03:13:03.000Z</time>
      </trkpt>
      <trkpt lat="41.096682" lon="-6.754225">
        <ele>244.3</ele>
        <time>1970-01-01T03:13:04.000Z</time>
      </trkpt>
      <trkpt lat="41.09669" lon="-6.754184">
        <ele>244.8</ele>
        <time>1970-01-01T03:13:05.000Z</time>
      </trkpt>
      <trkpt lat="41.096698" lon="-6.754144">
        <ele>245.3</ele>
        <time>1970-01-01T03:13:06.000Z</time>
      </trkpt>
      <trkpt lat="41.096706" lon="-6.754104">
        <ele>245.8</ele>
        <time>1970-01-01T03:13:07.000Z</time>
      </trkpt>
      <trkpt lat="41.096716" lon="-6.754065">
        <ele>246.3</ele>
        <time>1970-01-01T03:13:08.000Z</time>
      </trkpt>
      <trkpt lat="41.096726" lon="-6.754027">
        <ele>246.8</ele>
        <time>1970-01-01T03:13:09.000Z</time>
      </trkpt>
      <trkpt lat="41.096737" lon="-6.753991">
        <ele>247.2</ele>
        <time>1970-01-01T03:13:10.000Z</time>
      </trkpt>
      <trkpt lat="41.09675" lon="-6.753954">
        <ele>247.7</ele>
        <time>1970-01-01T03:13:11.000Z</time>
      </trkpt>
      <trkpt lat="41.096763" lon="-6.753917">
        <ele>248.2</ele>
        <time>1970-01-01T03:13:12.000Z</time>
      </trkpt>
      <trkpt lat="41.096777" lon="-6.753881">
        <ele>248.6</ele>
        <time>1970-01-01T03:13:13.000Z</time>
      </trkpt>
      <trkpt lat="41.096789" lon="-6.753845">
        <ele>249.1</ele>
        <time>1970-01-01T03:13:14.000Z</time>
      </trkpt>
      <trkpt lat="41.096802" lon="-6.753811">
        <ele>249.5</ele>
        <time>1970-01-01T03:13:15.000Z</time>
      </trkpt>
      <trkpt lat="41.096815" lon="-6.753779">
        <ele>249.9</ele>
        <time>1970-01-01T03:13:16.000Z</time>
      </trkpt>
      <trkpt lat="41.096828" lon="-6.753747">
        <ele>250.2</ele>
        <time>1970-01-01T03:13:17.000Z</time>
      </trkpt>
      <trkpt lat="41.096841" lon="-6.753714">
        <ele>250.6</ele>
        <time>1970-01-01T03:13:18.000Z</time>
      </trkpt>
      <trkpt lat="41.096853" lon="-6.753682">
        <ele>250.9</ele>
        <time>1970-01-01T03:13:19.000Z</time>
      </trkpt>
      <trkpt lat="41.096867" lon="-6.75365">
        <ele>251.2</ele>
        <time>1970-01-01T03:13:20.000Z</time>
      </trkpt>
      <trkpt lat="41.096881" lon="-6.753619">
        <ele>251.6</ele>
        <time>1970-01-01T03:13:21.000Z</time>
      </trkpt>
      <trkpt lat="41.096897" lon="-6.753588">
        <ele>251.9</ele>
        <time>1970-01-01T03:13:22.000Z</time>
      </trkpt>
      <trkpt lat="41.096913" lon="-6.753556">
        <ele>252.4</ele>
        <time>1970-01-01T03:13:23.000Z</time>
      </trkpt>
      <trkpt lat="41.096929" lon="-6.753525">
        <ele>252.8</ele>
        <time>1970-01-01T03:13:24.000Z</time>
      </trkpt>
      <trkpt lat="41.096946" lon="-6.753493">
        <ele>253.2</ele>
        <time>1970-01-01T03:13:25.000Z</time>
      </trkpt>
      <trkpt lat="41.096962" lon="-6.753463">
        <ele>253.6</ele>
        <time>1970-01-01T03:13:26.000Z</time>
      </trkpt>
      <trkpt lat="41.096977" lon="-6.753435">
        <ele>254</ele>
        <time>1970-01-01T03:13:27.000Z</time>
      </trkpt>
      <trkpt lat="41.096993" lon="-6.75341">
        <ele>254.3</ele>
        <time>1970-01-01T03:13:28.000Z</time>
      </trkpt>
      <trkpt lat="41.097008" lon="-6.753386">
        <ele>254.6</ele>
        <time>1970-01-01T03:13:29.000Z</time>
      </trkpt>
      <trkpt lat="41.097021" lon="-6.753362">
        <ele>254.8</ele>
        <time>1970-01-01T03:13:30.000Z</time>
      </trkpt>
      <trkpt lat="41.097033" lon="-6.753336">
        <ele>255</ele>
        <time>1970-01-01T03:13:31.000Z</time>
      </trkpt>
      <trkpt lat="41.097044" lon="-6.753309">
        <ele>255.2</ele>
        <time>1970-01-01T03:13:32.000Z</time>
      </trkpt>
      <trkpt lat="41.097056" lon="-6.753281">
        <ele>255.4</ele>
        <time>1970-01-01T03:13:33.000Z</time>
      </trkpt>
      <trkpt lat="41.097067" lon="-6.753253">
        <ele>255.6</ele>
        <time>1970-01-01T03:13:34.000Z</time>
      </trkpt>
      <trkpt lat="41.097079" lon="-6.753226">
        <ele>255.7</ele>
        <time>1970-01-01T03:13:35.000Z</time>
      </trkpt>
      <trkpt lat="41.097092" lon="-6.753198">
        <ele>255.9</ele>
        <time>1970-01-01T03:13:36.000Z</time>
      </trkpt>
      <trkpt lat="41.097106" lon="-6.753169">
        <ele>256</ele>
        <time>1970-01-01T03:13:37.000Z</time>
      </trkpt>
      <trkpt lat="41.097121" lon="-6.753138">
        <ele>256.1</ele>
        <time>1970-01-01T03:13:38.000Z</time>
      </trkpt>
      <trkpt lat="41.097137" lon="-6.753105">
        <ele>256.2</ele>
        <time>1970-01-01T03:13:39.000Z</time>
      </trkpt>
      <trkpt lat="41.097152" lon="-6.753072">
        <ele>256.3</ele>
        <time>1970-01-01T03:13:40.000Z</time>
      </trkpt>
      <trkpt lat="41.097167" lon="-6.753038">
        <ele>256.4</ele>
        <time>1970-01-01T03:13:41.000Z</time>
      </trkpt>
      <trkpt lat="41.097183" lon="-6.753003">
        <ele>256.5</ele>
        <time>1970-01-01T03:13:42.000Z</time>
      </trkpt>
      <trkpt lat="41.097199" lon="-6.752969">
        <ele>256.5</ele>
        <time>1970-01-01T03:13:43.000Z</time>
      </trkpt>
      <trkpt lat="41.097217" lon="-6.752935">
        <ele>256.5</ele>
        <time>1970-01-01T03:13:44.000Z</time>
      </trkpt>
      <trkpt lat="41.097237" lon="-6.752904">
        <ele>256.6</ele>
        <time>1970-01-01T03:13:45.000Z</time>
      </trkpt>
      <trkpt lat="41.097261" lon="-6.752876">
        <ele>256.6</ele>
        <time>1970-01-01T03:13:46.000Z</time>
      </trkpt>
      <trkpt lat="41.097286" lon="-6.752851">
        <ele>256.6</ele>
        <time>1970-01-01T03:13:47.000Z</time>
      </trkpt>
      <trkpt lat="41.097314" lon="-6.75283">
        <ele>256.7</ele>
        <time>1970-01-01T03:13:48.000Z</time>
      </trkpt>
      <trkpt lat="41.097345" lon="-6.752815">
        <ele>256.7</ele>
        <time>1970-01-01T03:13:49.000Z</time>
      </trkpt>
      <trkpt lat="41.097379" lon="-6.752805">
        <ele>256.8</ele>
        <time>1970-01-01T03:13:50.000Z</time>
      </trkpt>
      <trkpt lat="41.097414" lon="-6.7528">
        <ele>256.9</ele>
        <time>1970-01-01T03:13:51.000Z</time>
      </trkpt>
      <trkpt lat="41.097449" lon="-6.7528">
        <ele>257</ele>
        <time>1970-01-01T03:13:52.000Z</time>
      </trkpt>
      <trkpt lat="41.097481" lon="-6.752803">
        <ele>257.1</ele>
        <time>1970-01-01T03:13:53.000Z</time>
      </trkpt>
      <trkpt lat="41.097512" lon="-6.752808">
        <ele>257.2</ele>
        <time>1970-01-01T03:13:54.000Z</time>
      </trkpt>
      <trkpt lat="41.097544" lon="-6.752813">
        <ele>257.3</ele>
        <time>1970-01-01T03:13:55.000Z</time>
      </trkpt>
      <trkpt lat="41.097576" lon="-6.752817">
        <ele>257.4</ele>
        <time>1970-01-01T03:13:56.000Z</time>
      </trkpt>
      <trkpt lat="41.097608" lon="-6.752823">
        <ele>257.5</ele>
        <time>1970-01-01T03:13:57.000Z</time>
      </trkpt>
      <trkpt lat="41.09764" lon="-6.75283">
        <ele>257.6</ele>
        <time>1970-01-01T03:13:58.000Z</time>
      </trkpt>
      <trkpt lat="41.097671" lon="-6.752836">
        <ele>257.7</ele>
        <time>1970-01-01T03:13:59.000Z</time>
      </trkpt>
      <trkpt lat="41.097701" lon="-6.75284">
        <ele>257.8</ele>
        <time>1970-01-01T03:14:00.000Z</time>
      </trkpt>
      <trkpt lat="41.09773" lon="-6.752842">
        <ele>257.9</ele>
        <time>1970-01-01T03:14:01.000Z</time>
      </trkpt>
      <trkpt lat="41.097758" lon="-6.752843">
        <ele>258</ele>
        <time>1970-01-01T03:14:02.000Z</time>
      </trkpt>
      <trkpt lat="41.097785" lon="-6.752841">
        <ele>258.2</ele>
        <time>1970-01-01T03:14:03.000Z</time>
      </trkpt>
      <trkpt lat="41.097811" lon="-6.752834">
        <ele>258.3</ele>
        <time>1970-01-01T03:14:04.000Z</time>
      </trkpt>
      <trkpt lat="41.097835" lon="-6.75282">
        <ele>258.5</ele>
        <time>1970-01-01T03:14:05.000Z</time>
      </trkpt>
      <trkpt lat="41.097859" lon="-6.752801">
        <ele>258.7</ele>
        <time>1970-01-01T03:14:06.000Z</time>
      </trkpt>
      <trkpt lat="41.097881" lon="-6.752781">
        <ele>258.9</ele>
        <time>1970-01-01T03:14:07.000Z</time>
      </trkpt>
      <trkpt lat="41.097904" lon="-6.75276">
        <ele>259.2</ele>
        <time>1970-01-01T03:14:08.000Z</time>
      </trkpt>
      <trkpt lat="41.097927" lon="-6.752737">
        <ele>259.4</ele>
        <time>1970-01-01T03:14:09.000Z</time>
      </trkpt>
      <trkpt lat="41.097948" lon="-6.752713">
        <ele>259.6</ele>
        <time>1970-01-01T03:14:10.000Z</time>
      </trkpt>
      <trkpt lat="41.097969" lon="-6.752688">
        <ele>259.8</ele>
        <time>1970-01-01T03:14:11.000Z</time>
      </trkpt>
      <trkpt lat="41.097989" lon="-6.752663">
        <ele>260</ele>
        <time>1970-01-01T03:14:12.000Z</time>
      </trkpt>
      <trkpt lat="41.09801" lon="-6.752639">
        <ele>260.2</ele>
        <time>1970-01-01T03:14:13.000Z</time>
      </trkpt>
      <trkpt lat="41.098032" lon="-6.752617">
        <ele>260.4</ele>
        <time>1970-01-01T03:14:14.000Z</time>
      </trkpt>
      <trkpt lat="41.098055" lon="-6.752595">
        <ele>260.6</ele>
        <time>1970-01-01T03:14:15.000Z</time>
      </trkpt>
      <trkpt lat="41.098078" lon="-6.752573">
        <ele>260.8</ele>
        <time>1970-01-01T03:14:16.000Z</time>
      </trkpt>
      <trkpt lat="41.098102" lon="-6.75255">
        <ele>261.1</ele>
        <time>1970-01-01T03:14:17.000Z</time>
      </trkpt>
      <trkpt lat="41.098125" lon="-6.752529">
        <ele>261.3</ele>
        <time>1970-01-01T03:14:18.000Z</time>
      </trkpt>
      <trkpt lat="41.098149" lon="-6.752508">
        <ele>261.7</ele>
        <time>1970-01-01T03:14:19.000Z</time>
      </trkpt>
      <trkpt lat="41.098172" lon="-6.752488">
        <ele>262</ele>
        <time>1970-01-01T03:14:20.000Z</time>
      </trkpt>
      <trkpt lat="41.098195" lon="-6.752467">
        <ele>262.3</ele>
        <time>1970-01-01T03:14:21.000Z</time>
      </trkpt>
      <trkpt lat="41.098217" lon="-6.752446">
        <ele>262.6</ele>
        <time>1970-01-01T03:14:22.000Z</time>
      </trkpt>
      <trkpt lat="41.098239" lon="-6.752426">
        <ele>262.9</ele>
        <time>1970-01-01T03:14:23.000Z</time>
      </trkpt>
      <trkpt lat="41.098261" lon="-6.752406">
        <ele>263.3</ele>
        <time>1970-01-01T03:14:24.000Z</time>
      </trkpt>
      <trkpt lat="41.098283" lon="-6.752388">
        <ele>263.6</ele>
        <time>1970-01-01T03:14:25.000Z</time>
      </trkpt>
      <trkpt lat="41.098305" lon="-6.75237">
        <ele>263.9</ele>
        <time>1970-01-01T03:14:26.000Z</time>
      </trkpt>
      <trkpt lat="41.098327" lon="-6.752353">
        <ele>264.1</ele>
        <time>1970-01-01T03:14:27.000Z</time>
      </trkpt>
      <trkpt lat="41.098348" lon="-6.752336">
        <ele>264.4</ele>
        <time>1970-01-01T03:14:28.000Z</time>
      </trkpt>
      <trkpt lat="41.098369" lon="-6.752319">
        <ele>264.6</ele>
        <time>1970-01-01T03:14:29.000Z</time>
      </trkpt>
      <trkpt lat="41.098392" lon="-6.752302">
        <ele>264.9</ele>
        <time>1970-01-01T03:14:30.000Z</time>
      </trkpt>
      <trkpt lat="41.098415" lon="-6.752287">
        <ele>265.1</ele>
        <time>1970-01-01T03:14:31.000Z</time>
      </trkpt>
      <trkpt lat="41.098439" lon="-6.752273">
        <ele>265.3</ele>
        <time>1970-01-01T03:14:32.000Z</time>
      </trkpt>
      <trkpt lat="41.098464" lon="-6.75226">
        <ele>265.5</ele>
        <time>1970-01-01T03:14:33.000Z</time>
      </trkpt>
      <trkpt lat="41.098488" lon="-6.752247">
        <ele>265.7</ele>
        <time>1970-01-01T03:14:34.000Z</time>
      </trkpt>
      <trkpt lat="41.098512" lon="-6.752237">
        <ele>265.9</ele>
        <time>1970-01-01T03:14:35.000Z</time>
      </trkpt>
      <trkpt lat="41.098536" lon="-6.752226">
        <ele>266.1</ele>
        <time>1970-01-01T03:14:36.000Z</time>
      </trkpt>
      <trkpt lat="41.09856" lon="-6.752218">
        <ele>266.3</ele>
        <time>1970-01-01T03:14:37.000Z</time>
      </trkpt>
      <trkpt lat="41.098585" lon="-6.75221">
        <ele>266.4</ele>
        <time>1970-01-01T03:14:38.000Z</time>
      </trkpt>
      <trkpt lat="41.098611" lon="-6.752204">
        <ele>266.6</ele>
        <time>1970-01-01T03:14:39.000Z</time>
      </trkpt>
      <trkpt lat="41.098639" lon="-6.752199">
        <ele>266.7</ele>
        <time>1970-01-01T03:14:40.000Z</time>
      </trkpt>
      <trkpt lat="41.098666" lon="-6.752192">
        <ele>266.7</ele>
        <time>1970-01-01T03:14:41.000Z</time>
      </trkpt>
      <trkpt lat="41.098694" lon="-6.752184">
        <ele>266.7</ele>
        <time>1970-01-01T03:14:42.000Z</time>
      </trkpt>
      <trkpt lat="41.098723" lon="-6.752176">
        <ele>266.5</ele>
        <time>1970-01-01T03:14:43.000Z</time>
      </trkpt>
      <trkpt lat="41.098752" lon="-6.752168">
        <ele>266.3</ele>
        <time>1970-01-01T03:14:44.000Z</time>
      </trkpt>
      <trkpt lat="41.098782" lon="-6.752159">
        <ele>265.9</ele>
        <time>1970-01-01T03:14:45.000Z</time>
      </trkpt>
      <trkpt lat="41.098811" lon="-6.752148">
        <ele>265.6</ele>
        <time>1970-01-01T03:14:46.000Z</time>
      </trkpt>
      <trkpt lat="41.09884" lon="-6.752135">
        <ele>265.8</ele>
        <time>1970-01-01T03:14:47.000Z</time>
      </trkpt>
      <trkpt lat="41.098868" lon="-6.752118">
        <ele>266.1</ele>
        <time>1970-01-01T03:14:48.000Z</time>
      </trkpt>
      <trkpt lat="41.098897" lon="-6.752101">
        <ele>266.4</ele>
        <time>1970-01-01T03:14:49.000Z</time>
      </trkpt>
      <trkpt lat="41.098926" lon="-6.752082">
        <ele>266.6</ele>
        <time>1970-01-01T03:14:50.000Z</time>
      </trkpt>
      <trkpt lat="41.098955" lon="-6.752062">
        <ele>266.8</ele>
        <time>1970-01-01T03:14:51.000Z</time>
      </trkpt>
      <trkpt lat="41.098983" lon="-6.752043">
        <ele>266.9</ele>
        <time>1970-01-01T03:14:52.000Z</time>
      </trkpt>
      <trkpt lat="41.099011" lon="-6.752023">
        <ele>267.1</ele>
        <time>1970-01-01T03:14:53.000Z</time>
      </trkpt>
      <trkpt lat="41.099039" lon="-6.752004">
        <ele>267.3</ele>
        <time>1970-01-01T03:14:54.000Z</time>
      </trkpt>
      <trkpt lat="41.099066" lon="-6.751983">
        <ele>267.4</ele>
        <time>1970-01-01T03:14:55.000Z</time>
      </trkpt>
      <trkpt lat="41.099091" lon="-6.75196">
        <ele>267.6</ele>
        <time>1970-01-01T03:14:56.000Z</time>
      </trkpt>
      <trkpt lat="41.099117" lon="-6.751937">
        <ele>267.8</ele>
        <time>1970-01-01T03:14:57.000Z</time>
      </trkpt>
      <trkpt lat="41.099141" lon="-6.751912">
        <ele>268</ele>
        <time>1970-01-01T03:14:58.000Z</time>
      </trkpt>
      <trkpt lat="41.099167" lon="-6.751888">
        <ele>268.3</ele>
        <time>1970-01-01T03:14:59.000Z</time>
      </trkpt>
      <trkpt lat="41.099192" lon="-6.751864">
        <ele>268.6</ele>
        <time>1970-01-01T03:15:00.000Z</time>
      </trkpt>
      <trkpt lat="41.099218" lon="-6.751838">
        <ele>268.8</ele>
        <time>1970-01-01T03:15:01.000Z</time>
      </trkpt>
      <trkpt lat="41.099243" lon="-6.751811">
        <ele>269.1</ele>
        <time>1970-01-01T03:15:02.000Z</time>
      </trkpt>
      <trkpt lat="41.099268" lon="-6.751782">
        <ele>269.3</ele>
        <time>1970-01-01T03:15:03.000Z</time>
      </trkpt>
      <trkpt lat="41.099292" lon="-6.751751">
        <ele>269.5</ele>
        <time>1970-01-01T03:15:04.000Z</time>
      </trkpt>
      <trkpt lat="41.099316" lon="-6.751719">
        <ele>269.6</ele>
        <time>1970-01-01T03:15:05.000Z</time>
      </trkpt>
      <trkpt lat="41.099341" lon="-6.751687">
        <ele>269.6</ele>
        <time>1970-01-01T03:15:06.000Z</time>
      </trkpt>
      <trkpt lat="41.099366" lon="-6.751653">
        <ele>269.7</ele>
        <time>1970-01-01T03:15:07.000Z</time>
      </trkpt>
      <trkpt lat="41.099391" lon="-6.751619">
        <ele>269.7</ele>
        <time>1970-01-01T03:15:08.000Z</time>
      </trkpt>
      <trkpt lat="41.099416" lon="-6.751584">
        <ele>269.7</ele>
        <time>1970-01-01T03:15:09.000Z</time>
      </trkpt>
      <trkpt lat="41.099441" lon="-6.751549">
        <ele>269.8</ele>
        <time>1970-01-01T03:15:10.000Z</time>
      </trkpt>
      <trkpt lat="41.099467" lon="-6.751516">
        <ele>269.8</ele>
        <time>1970-01-01T03:15:11.000Z</time>
      </trkpt>
      <trkpt lat="41.099493" lon="-6.751483">
        <ele>269.8</ele>
        <time>1970-01-01T03:15:12.000Z</time>
      </trkpt>
      <trkpt lat="41.09952" lon="-6.751452">
        <ele>269.8</ele>
        <time>1970-01-01T03:15:13.000Z</time>
      </trkpt>
      <trkpt lat="41.099548" lon="-6.751423">
        <ele>269.7</ele>
        <time>1970-01-01T03:15:14.000Z</time>
      </trkpt>
      <trkpt lat="41.099576" lon="-6.751398">
        <ele>269.7</ele>
        <time>1970-01-01T03:15:15.000Z</time>
      </trkpt>
      <trkpt lat="41.099606" lon="-6.751376">
        <ele>269.7</ele>
        <time>1970-01-01T03:15:16.000Z</time>
      </trkpt>
      <trkpt lat="41.099637" lon="-6.751359">
        <ele>269.7</ele>
        <time>1970-01-01T03:15:17.000Z</time>
      </trkpt>
      <trkpt lat="41.099671" lon="-6.751344">
        <ele>269.7</ele>
        <time>1970-01-01T03:15:18.000Z</time>
      </trkpt>
      <trkpt lat="41.099707" lon="-6.751331">
        <ele>269.8</ele>
        <time>1970-01-01T03:15:19.000Z</time>
      </trkpt>
      <trkpt lat="41.099743" lon="-6.751319">
        <ele>269.8</ele>
        <time>1970-01-01T03:15:20.000Z</time>
      </trkpt>
      <trkpt lat="41.099781" lon="-6.751307">
        <ele>269.9</ele>
        <time>1970-01-01T03:15:21.000Z</time>
      </trkpt>
      <trkpt lat="41.09982" lon="-6.751296">
        <ele>269.9</ele>
        <time>1970-01-01T03:15:22.000Z</time>
      </trkpt>
      <trkpt lat="41.09986" lon="-6.751288">
        <ele>270</ele>
        <time>1970-01-01T03:15:23.000Z</time>
      </trkpt>
      <trkpt lat="41.0999" lon="-6.75128">
        <ele>270</ele>
        <time>1970-01-01T03:15:24.000Z</time>
      </trkpt>
      <trkpt lat="41.099941" lon="-6.751274">
        <ele>270</ele>
        <time>1970-01-01T03:15:25.000Z</time>
      </trkpt>
      <trkpt lat="41.099982" lon="-6.751268">
        <ele>270</ele>
        <time>1970-01-01T03:15:26.000Z</time>
      </trkpt>
      <trkpt lat="41.100022" lon="-6.751263">
        <ele>270</ele>
        <time>1970-01-01T03:15:27.000Z</time>
      </trkpt>
      <trkpt lat="41.100061" lon="-6.751257">
        <ele>270</ele>
        <time>1970-01-01T03:15:28.000Z</time>
      </trkpt>
      <trkpt lat="41.1001" lon="-6.751252">
        <ele>270</ele>
        <time>1970-01-01T03:15:29.000Z</time>
      </trkpt>
      <trkpt lat="41.100139" lon="-6.751247">
        <ele>269.9</ele>
        <time>1970-01-01T03:15:30.000Z</time>
      </trkpt>
      <trkpt lat="41.10018" lon="-6.751244">
        <ele>269.9</ele>
        <time>1970-01-01T03:15:31.000Z</time>
      </trkpt>
      <trkpt lat="41.10022" lon="-6.751243">
        <ele>269.9</ele>
        <time>1970-01-01T03:15:32.000Z</time>
      </trkpt>
      <trkpt lat="41.100261" lon="-6.751242">
        <ele>269.9</ele>
        <time>1970-01-01T03:15:33.000Z</time>
      </trkpt>
      <trkpt lat="41.100302" lon="-6.751238">
        <ele>269.8</ele>
        <time>1970-01-01T03:15:34.000Z</time>
      </trkpt>
      <trkpt lat="41.100342" lon="-6.751229">
        <ele>269.8</ele>
        <time>1970-01-01T03:15:35.000Z</time>
      </trkpt>
      <trkpt lat="41.100381" lon="-6.751215">
        <ele>269.8</ele>
        <time>1970-01-01T03:15:36.000Z</time>
      </trkpt>
      <trkpt lat="41.10042" lon="-6.751196">
        <ele>269.7</ele>
        <time>1970-01-01T03:15:37.000Z</time>
      </trkpt>
      <trkpt lat="41.100456" lon="-6.751172">
        <ele>269.7</ele>
        <time>1970-01-01T03:15:38.000Z</time>
      </trkpt>
      <trkpt lat="41.10049" lon="-6.751142">
        <ele>269.7</ele>
        <time>1970-01-01T03:15:39.000Z</time>
      </trkpt>
      <trkpt lat="41.10052" lon="-6.751107">
        <ele>269.6</ele>
        <time>1970-01-01T03:15:40.000Z</time>
      </trkpt>
      <trkpt lat="41.100549" lon="-6.751066">
        <ele>269.6</ele>
        <time>1970-01-01T03:15:41.000Z</time>
      </trkpt>
      <trkpt lat="41.100574" lon="-6.75102">
        <ele>269.6</ele>
        <time>1970-01-01T03:15:42.000Z</time>
      </trkpt>
      <trkpt lat="41.100597" lon="-6.750969">
        <ele>269.6</ele>
        <time>1970-01-01T03:15:43.000Z</time>
      </trkpt>
      <trkpt lat="41.100618" lon="-6.750916">
        <ele>269.6</ele>
        <time>1970-01-01T03:15:44.000Z</time>
      </trkpt>
      <trkpt lat="41.100639" lon="-6.750865">
        <ele>269.5</ele>
        <time>1970-01-01T03:15:45.000Z</time>
      </trkpt>
      <trkpt lat="41.100662" lon="-6.750816">
        <ele>269.5</ele>
        <time>1970-01-01T03:15:46.000Z</time>
      </trkpt>
      <trkpt lat="41.100684" lon="-6.750765">
        <ele>269.4</ele>
        <time>1970-01-01T03:15:47.000Z</time>
      </trkpt>
      <trkpt lat="41.100709" lon="-6.750713">
        <ele>269.4</ele>
        <time>1970-01-01T03:15:48.000Z</time>
      </trkpt>
      <trkpt lat="41.100734" lon="-6.75066">
        <ele>269.3</ele>
        <time>1970-01-01T03:15:49.000Z</time>
      </trkpt>
      <trkpt lat="41.10076" lon="-6.750607">
        <ele>269.2</ele>
        <time>1970-01-01T03:15:50.000Z</time>
      </trkpt>
      <trkpt lat="41.100784" lon="-6.750556">
        <ele>269.1</ele>
        <time>1970-01-01T03:15:51.000Z</time>
      </trkpt>
      <trkpt lat="41.100808" lon="-6.750505">
        <ele>269</ele>
        <time>1970-01-01T03:15:52.000Z</time>
      </trkpt>
      <trkpt lat="41.100834" lon="-6.750453">
        <ele>269</ele>
        <time>1970-01-01T03:15:53.000Z</time>
      </trkpt>
      <trkpt lat="41.100862" lon="-6.750402">
        <ele>268.9</ele>
        <time>1970-01-01T03:15:54.000Z</time>
      </trkpt>
      <trkpt lat="41.100891" lon="-6.750353">
        <ele>268.8</ele>
        <time>1970-01-01T03:15:55.000Z</time>
      </trkpt>
      <trkpt lat="41.10092" lon="-6.750304">
        <ele>268.8</ele>
        <time>1970-01-01T03:15:56.000Z</time>
      </trkpt>
      <trkpt lat="41.100949" lon="-6.750254">
        <ele>268.7</ele>
        <time>1970-01-01T03:15:57.000Z</time>
      </trkpt>
      <trkpt lat="41.100978" lon="-6.750203">
        <ele>268.6</ele>
        <time>1970-01-01T03:15:58.000Z</time>
      </trkpt>
      <trkpt lat="41.101007" lon="-6.750151">
        <ele>268.5</ele>
        <time>1970-01-01T03:15:59.000Z</time>
      </trkpt>
      <trkpt lat="41.101037" lon="-6.750099">
        <ele>268.4</ele>
        <time>1970-01-01T03:16:00.000Z</time>
      </trkpt>
      <trkpt lat="41.101066" lon="-6.750048">
        <ele>268.3</ele>
        <time>1970-01-01T03:16:01.000Z</time>
      </trkpt>
      <trkpt lat="41.101095" lon="-6.749997">
        <ele>268.2</ele>
        <time>1970-01-01T03:16:02.000Z</time>
      </trkpt>
      <trkpt lat="41.101124" lon="-6.749946">
        <ele>268.2</ele>
        <time>1970-01-01T03:16:03.000Z</time>
      </trkpt>
      <trkpt lat="41.101152" lon="-6.749892">
        <ele>268.1</ele>
        <time>1970-01-01T03:16:04.000Z</time>
      </trkpt>
      <trkpt lat="41.10118" lon="-6.749835">
        <ele>268</ele>
        <time>1970-01-01T03:16:05.000Z</time>
      </trkpt>
      <trkpt lat="41.101209" lon="-6.749778">
        <ele>267.9</ele>
        <time>1970-01-01T03:16:06.000Z</time>
      </trkpt>
      <trkpt lat="41.101239" lon="-6.74972">
        <ele>267.7</ele>
        <time>1970-01-01T03:16:07.000Z</time>
      </trkpt>
      <trkpt lat="41.10127" lon="-6.749662">
        <ele>267.5</ele>
        <time>1970-01-01T03:16:08.000Z</time>
      </trkpt>
      <trkpt lat="41.101302" lon="-6.749603">
        <ele>267.3</ele>
        <time>1970-01-01T03:16:09.000Z</time>
      </trkpt>
      <trkpt lat="41.101335" lon="-6.749543">
        <ele>267</ele>
        <time>1970-01-01T03:16:10.000Z</time>
      </trkpt>
      <trkpt lat="41.101369" lon="-6.749481">
        <ele>266.6</ele>
        <time>1970-01-01T03:16:11.000Z</time>
      </trkpt>
      <trkpt lat="41.101402" lon="-6.749417">
        <ele>266.3</ele>
        <time>1970-01-01T03:16:12.000Z</time>
      </trkpt>
      <trkpt lat="41.101435" lon="-6.74935">
        <ele>266.1</ele>
        <time>1970-01-01T03:16:13.000Z</time>
      </trkpt>
      <trkpt lat="41.101467" lon="-6.74928">
        <ele>265.9</ele>
        <time>1970-01-01T03:16:14.000Z</time>
      </trkpt>
      <trkpt lat="41.101499" lon="-6.749211">
        <ele>265.6</ele>
        <time>1970-01-01T03:16:15.000Z</time>
      </trkpt>
      <trkpt lat="41.101531" lon="-6.74914">
        <ele>265.3</ele>
        <time>1970-01-01T03:16:16.000Z</time>
      </trkpt>
      <trkpt lat="41.101563" lon="-6.749069">
        <ele>265.1</ele>
        <time>1970-01-01T03:16:17.000Z</time>
      </trkpt>
      <trkpt lat="41.101593" lon="-6.748996">
        <ele>264.8</ele>
        <time>1970-01-01T03:16:18.000Z</time>
      </trkpt>
      <trkpt lat="41.101621" lon="-6.748921">
        <ele>264.4</ele>
        <time>1970-01-01T03:16:19.000Z</time>
      </trkpt>
      <trkpt lat="41.101646" lon="-6.748845">
        <ele>264.1</ele>
        <time>1970-01-01T03:16:20.000Z</time>
      </trkpt>
      <trkpt lat="41.101667" lon="-6.748768">
        <ele>263.7</ele>
        <time>1970-01-01T03:16:21.000Z</time>
      </trkpt>
      <trkpt lat="41.101686" lon="-6.748689">
        <ele>263.5</ele>
        <time>1970-01-01T03:16:22.000Z</time>
      </trkpt>
      <trkpt lat="41.101708" lon="-6.748612">
        <ele>263.3</ele>
        <time>1970-01-01T03:16:23.000Z</time>
      </trkpt>
      <trkpt lat="41.101737" lon="-6.748543">
        <ele>263</ele>
        <time>1970-01-01T03:16:24.000Z</time>
      </trkpt>
      <trkpt lat="41.101774" lon="-6.748488">
        <ele>262.7</ele>
        <time>1970-01-01T03:16:25.000Z</time>
      </trkpt>
      <trkpt lat="41.101818" lon="-6.748451">
        <ele>262.4</ele>
        <time>1970-01-01T03:16:26.000Z</time>
      </trkpt>
      <trkpt lat="41.101869" lon="-6.748438">
        <ele>262.3</ele>
        <time>1970-01-01T03:16:27.000Z</time>
      </trkpt>
      <trkpt lat="41.10193" lon="-6.748447">
        <ele>262.1</ele>
        <time>1970-01-01T03:16:28.000Z</time>
      </trkpt>
      <trkpt lat="41.101995" lon="-6.748472">
        <ele>261.9</ele>
        <time>1970-01-01T03:16:29.000Z</time>
      </trkpt>
      <trkpt lat="41.102063" lon="-6.7485">
        <ele>261.8</ele>
        <time>1970-01-01T03:16:30.000Z</time>
      </trkpt>
      <trkpt lat="41.102127" lon="-6.748531">
        <ele>261.7</ele>
        <time>1970-01-01T03:16:31.000Z</time>
      </trkpt>
      <trkpt lat="41.102189" lon="-6.748561">
        <ele>261.6</ele>
        <time>1970-01-01T03:16:32.000Z</time>
      </trkpt>
      <trkpt lat="41.102249" lon="-6.748591">
        <ele>261.5</ele>
        <time>1970-01-01T03:16:33.000Z</time>
      </trkpt>
      <trkpt lat="41.102307" lon="-6.748621">
        <ele>261.4</ele>
        <time>1970-01-01T03:16:34.000Z</time>
      </trkpt>
      <trkpt lat="41.102365" lon="-6.748653">
        <ele>261.4</ele>
        <time>1970-01-01T03:16:35.000Z</time>
      </trkpt>
      <trkpt lat="41.102421" lon="-6.748686">
        <ele>261.4</ele>
        <time>1970-01-01T03:16:36.000Z</time>
      </trkpt>
      <trkpt lat="41.102477" lon="-6.748721">
        <ele>261.5</ele>
        <time>1970-01-01T03:16:37.000Z</time>
      </trkpt>
      <trkpt lat="41.102531" lon="-6.748755">
        <ele>261.7</ele>
        <time>1970-01-01T03:16:38.000Z</time>
      </trkpt>
      <trkpt lat="41.102582" lon="-6.748788">
        <ele>261.9</ele>
        <time>1970-01-01T03:16:39.000Z</time>
      </trkpt>
      <trkpt lat="41.102631" lon="-6.748818">
        <ele>261.9</ele>
        <time>1970-01-01T03:16:40.000Z</time>
      </trkpt>
      <trkpt lat="41.10268" lon="-6.748848">
        <ele>261.7</ele>
        <time>1970-01-01T03:16:41.000Z</time>
      </trkpt>
      <trkpt lat="41.102731" lon="-6.748877">
        <ele>261</ele>
        <time>1970-01-01T03:16:42.000Z</time>
      </trkpt>
      <trkpt lat="41.102783" lon="-6.748901">
        <ele>259.5</ele>
        <time>1970-01-01T03:16:43.000Z</time>
      </trkpt>
      <trkpt lat="41.102837" lon="-6.748918">
        <ele>257.1</ele>
        <time>1970-01-01T03:16:44.000Z</time>
      </trkpt>
      <trkpt lat="41.102889" lon="-6.748922">
        <ele>255.7</ele>
        <time>1970-01-01T03:16:45.000Z</time>
      </trkpt>
      <trkpt lat="41.102937" lon="-6.748913">
        <ele>255.7</ele>
        <time>1970-01-01T03:16:46.000Z</time>
      </trkpt>
      <trkpt lat="41.102981" lon="-6.748892">
        <ele>255.7</ele>
        <time>1970-01-01T03:16:47.000Z</time>
      </trkpt>
      <trkpt lat="41.103023" lon="-6.748863">
        <ele>255.7</ele>
        <time>1970-01-01T03:16:48.000Z</time>
      </trkpt>
      <trkpt lat="41.103063" lon="-6.748829">
        <ele>255.8</ele>
        <time>1970-01-01T03:16:49.000Z</time>
      </trkpt>
      <trkpt lat="41.103103" lon="-6.748791">
        <ele>256</ele>
        <time>1970-01-01T03:16:50.000Z</time>
      </trkpt>
      <trkpt lat="41.10314" lon="-6.748747">
        <ele>256.4</ele>
        <time>1970-01-01T03:16:51.000Z</time>
      </trkpt>
      <trkpt lat="41.103176" lon="-6.748699">
        <ele>256.8</ele>
        <time>1970-01-01T03:16:52.000Z</time>
      </trkpt>
      <trkpt lat="41.103211" lon="-6.748648">
        <ele>257.3</ele>
        <time>1970-01-01T03:16:53.000Z</time>
      </trkpt>
      <trkpt lat="41.103247" lon="-6.7486">
        <ele>257.7</ele>
        <time>1970-01-01T03:16:54.000Z</time>
      </trkpt>
      <trkpt lat="41.103285" lon="-6.748556">
        <ele>258.1</ele>
        <time>1970-01-01T03:16:55.000Z</time>
      </trkpt>
      <trkpt lat="41.103323" lon="-6.748514">
        <ele>258.3</ele>
        <time>1970-01-01T03:16:56.000Z</time>
      </trkpt>
      <trkpt lat="41.103361" lon="-6.748475">
        <ele>258.6</ele>
        <time>1970-01-01T03:16:57.000Z</time>
      </trkpt>
      <trkpt lat="41.103398" lon="-6.748437">
        <ele>258.7</ele>
        <time>1970-01-01T03:16:58.000Z</time>
      </trkpt>
      <trkpt lat="41.103437" lon="-6.748397">
        <ele>258.8</ele>
        <time>1970-01-01T03:16:59.000Z</time>
      </trkpt>
      <trkpt lat="41.103475" lon="-6.748356">
        <ele>259</ele>
        <time>1970-01-01T03:17:00.000Z</time>
      </trkpt>
      <trkpt lat="41.103514" lon="-6.748312">
        <ele>259.1</ele>
        <time>1970-01-01T03:17:01.000Z</time>
      </trkpt>
      <trkpt lat="41.103551" lon="-6.748265">
        <ele>259.3</ele>
        <time>1970-01-01T03:17:02.000Z</time>
      </trkpt>
      <trkpt lat="41.103586" lon="-6.748217">
        <ele>259.7</ele>
        <time>1970-01-01T03:17:03.000Z</time>
      </trkpt>
      <trkpt lat="41.10362" lon="-6.748169">
        <ele>260.2</ele>
        <time>1970-01-01T03:17:04.000Z</time>
      </trkpt>
      <trkpt lat="41.103653" lon="-6.748125">
        <ele>260.7</ele>
        <time>1970-01-01T03:17:05.000Z</time>
      </trkpt>
      <trkpt lat="41.103687" lon="-6.748084">
        <ele>261.3</ele>
        <time>1970-01-01T03:17:06.000Z</time>
      </trkpt>
      <trkpt lat="41.10372" lon="-6.748048">
        <ele>261.7</ele>
        <time>1970-01-01T03:17:07.000Z</time>
      </trkpt>
      <trkpt lat="41.103754" lon="-6.748015">
        <ele>261.9</ele>
        <time>1970-01-01T03:17:08.000Z</time>
      </trkpt>
      <trkpt lat="41.103788" lon="-6.747986">
        <ele>262.2</ele>
        <time>1970-01-01T03:17:09.000Z</time>
      </trkpt>
      <trkpt lat="41.10382" lon="-6.747962">
        <ele>262.4</ele>
        <time>1970-01-01T03:17:10.000Z</time>
      </trkpt>
      <trkpt lat="41.10385" lon="-6.74794">
        <ele>262.5</ele>
        <time>1970-01-01T03:17:11.000Z</time>
      </trkpt>
      <trkpt lat="41.103878" lon="-6.747919">
        <ele>262.7</ele>
        <time>1970-01-01T03:17:12.000Z</time>
      </trkpt>
      <trkpt lat="41.103906" lon="-6.747896">
        <ele>262.9</ele>
        <time>1970-01-01T03:17:13.000Z</time>
      </trkpt>
      <trkpt lat="41.103935" lon="-6.747873">
        <ele>263.1</ele>
        <time>1970-01-01T03:17:14.000Z</time>
      </trkpt>
      <trkpt lat="41.103965" lon="-6.74785">
        <ele>263.3</ele>
        <time>1970-01-01T03:17:15.000Z</time>
      </trkpt>
      <trkpt lat="41.103995" lon="-6.747826">
        <ele>263.5</ele>
        <time>1970-01-01T03:17:16.000Z</time>
      </trkpt>
      <trkpt lat="41.104024" lon="-6.747801">
        <ele>263.8</ele>
        <time>1970-01-01T03:17:17.000Z</time>
      </trkpt>
      <trkpt lat="41.104053" lon="-6.747775">
        <ele>264</ele>
        <time>1970-01-01T03:17:18.000Z</time>
      </trkpt>
      <trkpt lat="41.10408" lon="-6.747746">
        <ele>264.3</ele>
        <time>1970-01-01T03:17:19.000Z</time>
      </trkpt>
      <trkpt lat="41.104106" lon="-6.747714">
        <ele>264.6</ele>
        <time>1970-01-01T03:17:20.000Z</time>
      </trkpt>
      <trkpt lat="41.104128" lon="-6.747678">
        <ele>264.9</ele>
        <time>1970-01-01T03:17:21.000Z</time>
      </trkpt>
      <trkpt lat="41.104148" lon="-6.747638">
        <ele>265.2</ele>
        <time>1970-01-01T03:17:22.000Z</time>
      </trkpt>
      <trkpt lat="41.104165" lon="-6.747594">
        <ele>265.5</ele>
        <time>1970-01-01T03:17:23.000Z</time>
      </trkpt>
      <trkpt lat="41.104178" lon="-6.747544">
        <ele>265.7</ele>
        <time>1970-01-01T03:17:24.000Z</time>
      </trkpt>
      <trkpt lat="41.104184" lon="-6.747491">
        <ele>265.9</ele>
        <time>1970-01-01T03:17:25.000Z</time>
      </trkpt>
      <trkpt lat="41.104182" lon="-6.747435">
        <ele>266.1</ele>
        <time>1970-01-01T03:17:26.000Z</time>
      </trkpt>
      <trkpt lat="41.104171" lon="-6.747382">
        <ele>266.3</ele>
        <time>1970-01-01T03:17:27.000Z</time>
      </trkpt>
      <trkpt lat="41.104152" lon="-6.74733">
        <ele>266.6</ele>
        <time>1970-01-01T03:17:28.000Z</time>
      </trkpt>
      <trkpt lat="41.104126" lon="-6.747283">
        <ele>266.9</ele>
        <time>1970-01-01T03:17:29.000Z</time>
      </trkpt>
      <trkpt lat="41.104094" lon="-6.747239">
        <ele>267.4</ele>
        <time>1970-01-01T03:17:30.000Z</time>
      </trkpt>
      <trkpt lat="41.10406" lon="-6.747197">
        <ele>267.7</ele>
        <time>1970-01-01T03:17:31.000Z</time>
      </trkpt>
      <trkpt lat="41.104022" lon="-6.747156">
        <ele>268</ele>
        <time>1970-01-01T03:17:32.000Z</time>
      </trkpt>
      <trkpt lat="41.10398" lon="-6.747117">
        <ele>268.3</ele>
        <time>1970-01-01T03:17:33.000Z</time>
      </trkpt>
      <trkpt lat="41.103936" lon="-6.74708">
        <ele>268.6</ele>
        <time>1970-01-01T03:17:34.000Z</time>
      </trkpt>
      <trkpt lat="41.103891" lon="-6.747043">
        <ele>268.9</ele>
        <time>1970-01-01T03:17:35.000Z</time>
      </trkpt>
      <trkpt lat="41.103847" lon="-6.747006">
        <ele>269.1</ele>
        <time>1970-01-01T03:17:36.000Z</time>
      </trkpt>
      <trkpt lat="41.103802" lon="-6.74697">
        <ele>269.3</ele>
        <time>1970-01-01T03:17:37.000Z</time>
      </trkpt>
      <trkpt lat="41.103758" lon="-6.746933">
        <ele>269.4</ele>
        <time>1970-01-01T03:17:38.000Z</time>
      </trkpt>
      <trkpt lat="41.103714" lon="-6.746894">
        <ele>269.7</ele>
        <time>1970-01-01T03:17:39.000Z</time>
      </trkpt>
      <trkpt lat="41.103671" lon="-6.746854">
        <ele>269.9</ele>
        <time>1970-01-01T03:17:40.000Z</time>
      </trkpt>
      <trkpt lat="41.103627" lon="-6.746814">
        <ele>270.2</ele>
        <time>1970-01-01T03:17:41.000Z</time>
      </trkpt>
      <trkpt lat="41.103583" lon="-6.746774">
        <ele>270.5</ele>
        <time>1970-01-01T03:17:42.000Z</time>
      </trkpt>
      <trkpt lat="41.103538" lon="-6.746736">
        <ele>270.8</ele>
        <time>1970-01-01T03:17:43.000Z</time>
      </trkpt>
      <trkpt lat="41.103322" lon="-6.746548">
        <ele>272.7</ele>
        <time>1970-01-01T03:17:44.000Z</time>
      </trkpt>
      <trkpt lat="41.103279" lon="-6.746512">
        <ele>273.1</ele>
        <time>1970-01-01T03:17:45.000Z</time>
      </trkpt>
      <trkpt lat="41.103217" lon="-6.746456">
        <ele>273.7</ele>
        <time>1970-01-01T03:17:50.000Z</time>
      </trkpt>
      <trkpt lat="41.103197" lon="-6.746437">
        <ele>273.9</ele>
        <time>1970-01-01T03:17:51.000Z</time>
      </trkpt>
      <trkpt lat="41.103156" lon="-6.746398">
        <ele>274.3</ele>
        <time>1970-01-01T03:17:52.000Z</time>
      </trkpt>
      <trkpt lat="41.103117" lon="-6.746361">
        <ele>274.6</ele>
        <time>1970-01-01T03:17:53.000Z</time>
      </trkpt>
      <trkpt lat="41.103079" lon="-6.746323">
        <ele>274.9</ele>
        <time>1970-01-01T03:17:54.000Z</time>
      </trkpt>
      <trkpt lat="41.103041" lon="-6.746285">
        <ele>275.2</ele>
        <time>1970-01-01T03:17:55.000Z</time>
      </trkpt>
      <trkpt lat="41.103006" lon="-6.746243">
        <ele>275.6</ele>
        <time>1970-01-01T03:17:56.000Z</time>
      </trkpt>
      <trkpt lat="41.102971" lon="-6.746199">
        <ele>275.9</ele>
        <time>1970-01-01T03:17:57.000Z</time>
      </trkpt>
      <trkpt lat="41.102938" lon="-6.74615">
        <ele>276.1</ele>
        <time>1970-01-01T03:17:58.000Z</time>
      </trkpt>
      <trkpt lat="41.102907" lon="-6.746099">
        <ele>276.3</ele>
        <time>1970-01-01T03:17:59.000Z</time>
      </trkpt>
      <trkpt lat="41.102878" lon="-6.746045">
        <ele>276.6</ele>
        <time>1970-01-01T03:18:00.000Z</time>
      </trkpt>
      <trkpt lat="41.102852" lon="-6.745992">
        <ele>276.9</ele>
        <time>1970-01-01T03:18:01.000Z</time>
      </trkpt>
      <trkpt lat="41.102828" lon="-6.745939">
        <ele>277.3</ele>
        <time>1970-01-01T03:18:02.000Z</time>
      </trkpt>
      <trkpt lat="41.102806" lon="-6.745887">
        <ele>277.6</ele>
        <time>1970-01-01T03:18:03.000Z</time>
      </trkpt>
      <trkpt lat="41.102784" lon="-6.745837">
        <ele>277.9</ele>
        <time>1970-01-01T03:18:04.000Z</time>
      </trkpt>
      <trkpt lat="41.102766" lon="-6.74579">
        <ele>278.1</ele>
        <time>1970-01-01T03:18:05.000Z</time>
      </trkpt>
      <trkpt lat="41.102748" lon="-6.745746">
        <ele>278.2</ele>
        <time>1970-01-01T03:18:06.000Z</time>
      </trkpt>
      <trkpt lat="41.102732" lon="-6.745702">
        <ele>278.3</ele>
        <time>1970-01-01T03:18:07.000Z</time>
      </trkpt>
      <trkpt lat="41.102715" lon="-6.745656">
        <ele>278.4</ele>
        <time>1970-01-01T03:18:08.000Z</time>
      </trkpt>
      <trkpt lat="41.102696" lon="-6.745608">
        <ele>278.4</ele>
        <time>1970-01-01T03:18:09.000Z</time>
      </trkpt>
      <trkpt lat="41.102676" lon="-6.745559">
        <ele>278.4</ele>
        <time>1970-01-01T03:18:10.000Z</time>
      </trkpt>
      <trkpt lat="41.102651" lon="-6.745508">
        <ele>278.5</ele>
        <time>1970-01-01T03:18:11.000Z</time>
      </trkpt>
      <trkpt lat="41.102626" lon="-6.745456">
        <ele>278.5</ele>
        <time>1970-01-01T03:18:12.000Z</time>
      </trkpt>
      <trkpt lat="41.102599" lon="-6.745406">
        <ele>278.4</ele>
        <time>1970-01-01T03:18:13.000Z</time>
      </trkpt>
      <trkpt lat="41.102575" lon="-6.745356">
        <ele>278.3</ele>
        <time>1970-01-01T03:18:14.000Z</time>
      </trkpt>
      <trkpt lat="41.102558" lon="-6.745305">
        <ele>278.2</ele>
        <time>1970-01-01T03:18:15.000Z</time>
      </trkpt>
      <trkpt lat="41.10255" lon="-6.74525">
        <ele>278</ele>
        <time>1970-01-01T03:18:16.000Z</time>
      </trkpt>
      <trkpt lat="41.102552" lon="-6.745193">
        <ele>277.7</ele>
        <time>1970-01-01T03:18:17.000Z</time>
      </trkpt>
      <trkpt lat="41.102559" lon="-6.745133">
        <ele>277.3</ele>
        <time>1970-01-01T03:18:18.000Z</time>
      </trkpt>
      <trkpt lat="41.102566" lon="-6.745073">
        <ele>276.9</ele>
        <time>1970-01-01T03:18:19.000Z</time>
      </trkpt>
      <trkpt lat="41.102571" lon="-6.745013">
        <ele>276.4</ele>
        <time>1970-01-01T03:18:20.000Z</time>
      </trkpt>
      <trkpt lat="41.102575" lon="-6.744953">
        <ele>276</ele>
        <time>1970-01-01T03:18:21.000Z</time>
      </trkpt>
      <trkpt lat="41.102578" lon="-6.744889">
        <ele>275.6</ele>
        <time>1970-01-01T03:18:22.000Z</time>
      </trkpt>
      <trkpt lat="41.10258" lon="-6.744824">
        <ele>275.4</ele>
        <time>1970-01-01T03:18:23.000Z</time>
      </trkpt>
      <trkpt lat="41.102583" lon="-6.74476">
        <ele>275.1</ele>
        <time>1970-01-01T03:18:24.000Z</time>
      </trkpt>
      <trkpt lat="41.102588" lon="-6.744699">
        <ele>274.9</ele>
        <time>1970-01-01T03:18:25.000Z</time>
      </trkpt>
      <trkpt lat="41.102595" lon="-6.744641">
        <ele>274.7</ele>
        <time>1970-01-01T03:18:26.000Z</time>
      </trkpt>
      <trkpt lat="41.102607" lon="-6.744586">
        <ele>274.5</ele>
        <time>1970-01-01T03:18:27.000Z</time>
      </trkpt>
      <trkpt lat="41.102622" lon="-6.744535">
        <ele>274.4</ele>
        <time>1970-01-01T03:18:28.000Z</time>
      </trkpt>
      <trkpt lat="41.10264" lon="-6.744486">
        <ele>274.2</ele>
        <time>1970-01-01T03:18:29.000Z</time>
      </trkpt>
      <trkpt lat="41.102656" lon="-6.744438">
        <ele>274.1</ele>
        <time>1970-01-01T03:18:30.000Z</time>
      </trkpt>
      <trkpt lat="41.102673" lon="-6.744391">
        <ele>273.9</ele>
        <time>1970-01-01T03:18:31.000Z</time>
      </trkpt>
      <trkpt lat="41.102688" lon="-6.744345">
        <ele>273.6</ele>
        <time>1970-01-01T03:18:32.000Z</time>
      </trkpt>
      <trkpt lat="41.102701" lon="-6.744298">
        <ele>273.4</ele>
        <time>1970-01-01T03:18:33.000Z</time>
      </trkpt>
      <trkpt lat="41.102711" lon="-6.744251">
        <ele>273.1</ele>
        <time>1970-01-01T03:18:34.000Z</time>
      </trkpt>
      <trkpt lat="41.102717" lon="-6.744208">
        <ele>272.8</ele>
        <time>1970-01-01T03:18:35.000Z</time>
      </trkpt>
      <trkpt lat="41.102718" lon="-6.744173">
        <ele>272.6</ele>
        <time>1970-01-01T03:18:36.000Z</time>
      </trkpt>
      <trkpt lat="41.102717" lon="-6.744145">
        <ele>272.5</ele>
        <time>1970-01-01T03:18:37.000Z</time>
      </trkpt>
      <trkpt lat="41.102714" lon="-6.74412">
        <ele>272.6</ele>
        <time>1970-01-01T03:18:38.000Z</time>
      </trkpt>
      <trkpt lat="41.102711" lon="-6.744097">
        <ele>272.7</ele>
        <time>1970-01-01T03:18:39.000Z</time>
      </trkpt>
      <trkpt lat="41.102706" lon="-6.744075">
        <ele>272.8</ele>
        <time>1970-01-01T03:18:40.000Z</time>
      </trkpt>
      <trkpt lat="41.102699" lon="-6.744057">
        <ele>272.8</ele>
        <time>1970-01-01T03:18:41.000Z</time>
      </trkpt>
      <trkpt lat="41.102694" lon="-6.744045">
        <ele>272.9</ele>
        <time>1970-01-01T03:18:42.000Z</time>
      </trkpt>
      <trkpt lat="41.102692" lon="-6.744041">
        <ele>272.9</ele>
        <time>1970-01-01T03:18:43.000Z</time>
      </trkpt>
      <trkpt lat="41.102692" lon="-6.74404">
        <ele>272.9</ele>
        <time>1970-01-01T03:18:44.000Z</time>
      </trkpt>
      <trkpt lat="41.102693" lon="-6.744039">
        <ele>272.9</ele>
        <time>1970-01-01T03:18:45.000Z</time>
      </trkpt>
      <trkpt lat="41.102693" lon="-6.744039">
        <ele>272.9</ele>
        <time>1970-01-01T03:18:46.000Z</time>
      </trkpt>
      <trkpt lat="41.102693" lon="-6.744039">
        <ele>272.9</ele>
        <time>1970-01-01T03:18:47.000Z</time>
      </trkpt>
      <trkpt lat="41.102693" lon="-6.744039">
        <ele>272.9</ele>
        <time>1970-01-01T03:18:48.000Z</time>
      </trkpt>
      <trkpt lat="41.102694" lon="-6.744038">
        <ele>272.9</ele>
        <time>1970-01-01T03:18:49.000Z</time>
      </trkpt>
      <trkpt lat="41.102694" lon="-6.744037">
        <ele>272.9</ele>
        <time>1970-01-01T03:18:50.000Z</time>
      </trkpt>
      <trkpt lat="41.102682" lon="-6.744025">
        <ele>273</ele>
        <time>1970-01-01T03:18:51.000Z</time>
      </trkpt>
      <trkpt lat="41.102679" lon="-6.744018">
        <ele>273</ele>
        <time>1970-01-01T03:18:52.000Z</time>
      </trkpt>
      <trkpt lat="41.102674" lon="-6.74401">
        <ele>273</ele>
        <time>1970-01-01T03:18:59.000Z</time>
      </trkpt>
      <trkpt lat="41.102668" lon="-6.744001">
        <ele>273.1</ele>
        <time>1970-01-01T03:19:00.000Z</time>
      </trkpt>
      <trkpt lat="41.102662" lon="-6.743992">
        <ele>273.1</ele>
        <time>1970-01-01T03:19:01.000Z</time>
      </trkpt>
      <trkpt lat="41.102656" lon="-6.743981">
        <ele>273.1</ele>
        <time>1970-01-01T03:19:02.000Z</time>
      </trkpt>
      <trkpt lat="41.10265" lon="-6.743969">
        <ele>273.2</ele>
        <time>1970-01-01T03:19:03.000Z</time>
      </trkpt>
      <trkpt lat="41.102644" lon="-6.743958">
        <ele>273.2</ele>
        <time>1970-01-01T03:19:04.000Z</time>
      </trkpt>
      <trkpt lat="41.102636" lon="-6.743948">
        <ele>273.3</ele>
        <time>1970-01-01T03:19:05.000Z</time>
      </trkpt>
      <trkpt lat="41.102627" lon="-6.743941">
        <ele>273.3</ele>
        <time>1970-01-01T03:19:06.000Z</time>
      </trkpt>
      <trkpt lat="41.102619" lon="-6.743939">
        <ele>273.4</ele>
        <time>1970-01-01T03:19:07.000Z</time>
      </trkpt>
      <trkpt lat="41.102611" lon="-6.743939">
        <ele>273.4</ele>
        <time>1970-01-01T03:19:08.000Z</time>
      </trkpt>
      <trkpt lat="41.102605" lon="-6.743937">
        <ele>273.4</ele>
        <time>1970-01-01T03:19:09.000Z</time>
      </trkpt>
      <trkpt lat="41.102599" lon="-6.743931">
        <ele>273.4</ele>
        <time>1970-01-01T03:19:10.000Z</time>
      </trkpt>
      <trkpt lat="41.102594" lon="-6.743923">
        <ele>273.5</ele>
        <time>1970-01-01T03:19:11.000Z</time>
      </trkpt>
      <trkpt lat="41.10259" lon="-6.743917">
        <ele>273.5</ele>
        <time>1970-01-01T03:19:12.000Z</time>
      </trkpt>
      <trkpt lat="41.105896" lon="-6.722666">
        <ele>581</ele>
        <time>1970-01-01T00:00:00.000Z</time>
      </trkpt>
      <trkpt lat="41.105896" lon="-6.722666">
        <ele>581</ele>
        <time>1970-01-01T00:00:01.000Z</time>
      </trkpt>
      <trkpt lat="41.105903" lon="-6.722678">
        <ele>581</ele>
        <time>1970-01-01T00:00:02.000Z</time>
      </trkpt>
      <trkpt lat="41.105909" lon="-6.722695">
        <ele>581</ele>
        <time>1970-01-01T00:00:03.000Z</time>
      </trkpt>
      <trkpt lat="41.105916" lon="-6.722714">
        <ele>581.1</ele>
        <time>1970-01-01T00:00:04.000Z</time>
      </trkpt>
      <trkpt lat="41.105922" lon="-6.722738">
        <ele>581.1</ele>
        <time>1970-01-01T00:00:05.000Z</time>
      </trkpt>
      <trkpt lat="41.10593" lon="-6.722764">
        <ele>581.1</ele>
        <time>1970-01-01T00:00:06.000Z</time>
      </trkpt>
      <trkpt lat="41.105938" lon="-6.72279">
        <ele>581.1</ele>
        <time>1970-01-01T00:00:07.000Z</time>
      </trkpt>
      <trkpt lat="41.105946" lon="-6.722816">
        <ele>581.2</ele>
        <time>1970-01-01T00:00:08.000Z</time>
      </trkpt>
      <trkpt lat="41.10595" lon="-6.722843">
        <ele>581.2</ele>
        <time>1970-01-01T00:00:09.000Z</time>
      </trkpt>
      <trkpt lat="41.10595" lon="-6.722873">
        <ele>581.2</ele>
        <time>1970-01-01T00:00:10.000Z</time>
      </trkpt>
      <trkpt lat="41.105946" lon="-6.722904">
        <ele>581.3</ele>
        <time>1970-01-01T00:00:11.000Z</time>
      </trkpt>
      <trkpt lat="41.105941" lon="-6.722932">
        <ele>581.3</ele>
        <time>1970-01-01T00:00:12.000Z</time>
      </trkpt>
      <trkpt lat="41.105934" lon="-6.722957">
        <ele>581.3</ele>
        <time>1970-01-01T00:00:13.000Z</time>
      </trkpt>
      <trkpt lat="41.105923" lon="-6.722979">
        <ele>581.3</ele>
        <time>1970-01-01T00:00:14.000Z</time>
      </trkpt>
      <trkpt lat="41.105908" lon="-6.723001">
        <ele>581.4</ele>
        <time>1970-01-01T00:00:15.000Z</time>
      </trkpt>
      <trkpt lat="41.105892" lon="-6.723023">
        <ele>581.4</ele>
        <time>1970-01-01T00:00:16.000Z</time>
      </trkpt>
      <trkpt lat="41.105873" lon="-6.723044">
        <ele>581.4</ele>
        <time>1970-01-01T00:00:17.000Z</time>
      </trkpt>
      <trkpt lat="41.105851" lon="-6.723061">
        <ele>581.5</ele>
        <time>1970-01-01T00:00:18.000Z</time>
      </trkpt>
      <trkpt lat="41.105823" lon="-6.72307">
        <ele>581.7</ele>
        <time>1970-01-01T00:00:19.000Z</time>
      </trkpt>
      <trkpt lat="41.105796" lon="-6.723072">
        <ele>581.8</ele>
        <time>1970-01-01T00:00:20.000Z</time>
      </trkpt>
      <trkpt lat="41.105769" lon="-6.723067">
        <ele>581.9</ele>
        <time>1970-01-01T00:00:21.000Z</time>
      </trkpt>
      <trkpt lat="41.105744" lon="-6.723059">
        <ele>581.9</ele>
        <time>1970-01-01T00:00:22.000Z</time>
      </trkpt>
      <trkpt lat="41.105722" lon="-6.723046">
        <ele>582</ele>
        <time>1970-01-01T00:00:23.000Z</time>
      </trkpt>
      <trkpt lat="41.105703" lon="-6.723027">
        <ele>582.1</ele>
        <time>1970-01-01T00:00:24.000Z</time>
      </trkpt>
      <trkpt lat="41.105689" lon="-6.723003">
        <ele>582.4</ele>
        <time>1970-01-01T00:00:25.000Z</time>
      </trkpt>
      <trkpt lat="41.105677" lon="-6.722977">
        <ele>582.4</ele>
        <time>1970-01-01T00:00:26.000Z</time>
      </trkpt>
      <trkpt lat="41.105667" lon="-6.722952">
        <ele>582.4</ele>
        <time>1970-01-01T00:00:27.000Z</time>
      </trkpt>
      <trkpt lat="41.105657" lon="-6.722926">
        <ele>582.3</ele>
        <time>1970-01-01T00:00:28.000Z</time>
      </trkpt>
      <trkpt lat="41.105649" lon="-6.722899">
        <ele>582.2</ele>
        <time>1970-01-01T00:00:29.000Z</time>
      </trkpt>
      <trkpt lat="41.10564" lon="-6.722869">
        <ele>582.2</ele>
        <time>1970-01-01T00:00:30.000Z</time>
      </trkpt>
      <trkpt lat="41.105632" lon="-6.722839">
        <ele>582.1</ele>
        <time>1970-01-01T00:00:31.000Z</time>
      </trkpt>
      <trkpt lat="41.105618" lon="-6.722808">
        <ele>582.1</ele>
        <time>1970-01-01T00:00:32.000Z</time>
      </trkpt>
      <trkpt lat="41.105603" lon="-6.722777">
        <ele>582</ele>
        <time>1970-01-01T00:00:33.000Z</time>
      </trkpt>
      <trkpt lat="41.105585" lon="-6.722745">
        <ele>582</ele>
        <time>1970-01-01T00:00:34.000Z</time>
      </trkpt>
      <trkpt lat="41.105569" lon="-6.722712">
        <ele>582</ele>
        <time>1970-01-01T00:00:35.000Z</time>
      </trkpt>
      <trkpt lat="41.105556" lon="-6.722679">
        <ele>581.9</ele>
        <time>1970-01-01T00:00:36.000Z</time>
      </trkpt>
      <trkpt lat="41.105544" lon="-6.722646">
        <ele>581.9</ele>
        <time>1970-01-01T00:00:37.000Z</time>
      </trkpt>
      <trkpt lat="41.105532" lon="-6.722611">
        <ele>581.9</ele>
        <time>1970-01-01T00:00:38.000Z</time>
      </trkpt>
      <trkpt lat="41.10552" lon="-6.722576">
        <ele>581.9</ele>
        <time>1970-01-01T00:00:39.000Z</time>
      </trkpt>
      <trkpt lat="41.105509" lon="-6.722541">
        <ele>581.9</ele>
        <time>1970-01-01T00:00:40.000Z</time>
      </trkpt>
      <trkpt lat="41.105498" lon="-6.722505">
        <ele>581.9</ele>
        <time>1970-01-01T00:00:41.000Z</time>
      </trkpt>
      <trkpt lat="41.105487" lon="-6.722468">
        <ele>582</ele>
        <time>1970-01-01T00:00:42.000Z</time>
      </trkpt>
      <trkpt lat="41.105475" lon="-6.722432">
        <ele>582</ele>
        <time>1970-01-01T00:00:43.000Z</time>
      </trkpt>
      <trkpt lat="41.105464" lon="-6.722397">
        <ele>582</ele>
        <time>1970-01-01T00:00:44.000Z</time>
      </trkpt>
      <trkpt lat="41.105452" lon="-6.722365">
        <ele>582</ele>
        <time>1970-01-01T00:00:45.000Z</time>
      </trkpt>
      <trkpt lat="41.10544" lon="-6.722334">
        <ele>582</ele>
        <time>1970-01-01T00:00:46.000Z</time>
      </trkpt>
      <trkpt lat="41.105426" lon="-6.722303">
        <ele>581.9</ele>
        <time>1970-01-01T00:00:47.000Z</time>
      </trkpt>
      <trkpt lat="41.105414" lon="-6.722269">
        <ele>581.9</ele>
        <time>1970-01-01T00:00:48.000Z</time>
      </trkpt>
      <trkpt lat="41.105401" lon="-6.722236">
        <ele>581.9</ele>
        <time>1970-01-01T00:00:49.000Z</time>
      </trkpt>
      <trkpt lat="41.105391" lon="-6.722204">
        <ele>581.9</ele>
        <time>1970-01-01T00:00:50.000Z</time>
      </trkpt>
      <trkpt lat="41.10538" lon="-6.722172">
        <ele>581.8</ele>
        <time>1970-01-01T00:00:51.000Z</time>
      </trkpt>
      <trkpt lat="41.105369" lon="-6.722139">
        <ele>581.8</ele>
        <time>1970-01-01T00:00:52.000Z</time>
      </trkpt>
      <trkpt lat="41.105357" lon="-6.722107">
        <ele>581.7</ele>
        <time>1970-01-01T00:00:53.000Z</time>
      </trkpt>
      <trkpt lat="41.105345" lon="-6.722074">
        <ele>581.6</ele>
        <time>1970-01-01T00:00:54.000Z</time>
      </trkpt>
      <trkpt lat="41.105331" lon="-6.722041">
        <ele>581.5</ele>
        <time>1970-01-01T00:00:55.000Z</time>
      </trkpt>
      <trkpt lat="41.105316" lon="-6.722009">
        <ele>581.5</ele>
        <time>1970-01-01T00:00:56.000Z</time>
      </trkpt>
      <trkpt lat="41.105299" lon="-6.72198">
        <ele>581.4</ele>
        <time>1970-01-01T00:00:57.000Z</time>
      </trkpt>
      <trkpt lat="41.105281" lon="-6.72195">
        <ele>581.3</ele>
        <time>1970-01-01T00:00:58.000Z</time>
      </trkpt>
      <trkpt lat="41.105262" lon="-6.721919">
        <ele>581.2</ele>
        <time>1970-01-01T00:00:59.000Z</time>
      </trkpt>
      <trkpt lat="41.105244" lon="-6.721888">
        <ele>581</ele>
        <time>1970-01-01T00:01:00.000Z</time>
      </trkpt>
      <trkpt lat="41.105227" lon="-6.721858">
        <ele>581.1</ele>
        <time>1970-01-01T00:01:01.000Z</time>
      </trkpt>
      <trkpt lat="41.10521" lon="-6.721828">
        <ele>581.1</ele>
        <time>1970-01-01T00:01:02.000Z</time>
      </trkpt>
      <trkpt lat="41.105192" lon="-6.721799">
        <ele>581.2</ele>
        <time>1970-01-01T00:01:03.000Z</time>
      </trkpt>
      <trkpt lat="41.105174" lon="-6.721769">
        <ele>581.2</ele>
        <time>1970-01-01T00:01:04.000Z</time>
      </trkpt>
      <trkpt lat="41.105155" lon="-6.721738">
        <ele>581.3</ele>
        <time>1970-01-01T00:01:05.000Z</time>
      </trkpt>
      <trkpt lat="41.105136" lon="-6.721705">
        <ele>581.3</ele>
        <time>1970-01-01T00:01:06.000Z</time>
      </trkpt>
      <trkpt lat="41.105119" lon="-6.721671">
        <ele>581.4</ele>
        <time>1970-01-01T00:01:07.000Z</time>
      </trkpt>
      <trkpt lat="41.105101" lon="-6.721636">
        <ele>581.5</ele>
        <time>1970-01-01T00:01:08.000Z</time>
      </trkpt>
      <trkpt lat="41.105081" lon="-6.721597">
        <ele>581.6</ele>
        <time>1970-01-01T00:01:09.000Z</time>
      </trkpt>
      <trkpt lat="41.105057" lon="-6.721558">
        <ele>581.7</ele>
        <time>1970-01-01T00:01:10.000Z</time>
      </trkpt>
      <trkpt lat="41.105033" lon="-6.721518">
        <ele>581.8</ele>
        <time>1970-01-01T00:01:11.000Z</time>
      </trkpt>
      <trkpt lat="41.105012" lon="-6.721479">
        <ele>581.8</ele>
        <time>1970-01-01T00:01:12.000Z</time>
      </trkpt>
      <trkpt lat="41.104991" lon="-6.721439">
        <ele>581.8</ele>
        <time>1970-01-01T00:01:13.000Z</time>
      </trkpt>
      <trkpt lat="41.104969" lon="-6.721398">
        <ele>581.9</ele>
        <time>1970-01-01T00:01:14.000Z</time>
      </trkpt>
      <trkpt lat="41.104946" lon="-6.721355">
        <ele>581.9</ele>
        <time>1970-01-01T00:01:15.000Z</time>
      </trkpt>
      <trkpt lat="41.104923" lon="-6.721311">
        <ele>582</ele>
        <time>1970-01-01T00:01:16.000Z</time>
      </trkpt>
      <trkpt lat="41.1049" lon="-6.721266">
        <ele>582</ele>
        <time>1970-01-01T00:01:17.000Z</time>
      </trkpt>
      <trkpt lat="41.104879" lon="-6.721221">
        <ele>582.2</ele>
        <time>1970-01-01T00:01:18.000Z</time>
      </trkpt>
      <trkpt lat="41.104855" lon="-6.721175">
        <ele>582.3</ele>
        <time>1970-01-01T00:01:19.000Z</time>
      </trkpt>
      <trkpt lat="41.104831" lon="-6.721129">
        <ele>582.4</ele>
        <time>1970-01-01T00:01:20.000Z</time>
      </trkpt>
      <trkpt lat="41.104807" lon="-6.721086">
        <ele>582.5</ele>
        <time>1970-01-01T00:01:21.000Z</time>
      </trkpt>
      <trkpt lat="41.104784" lon="-6.721045">
        <ele>582.6</ele>
        <time>1970-01-01T00:01:22.000Z</time>
      </trkpt>
      <trkpt lat="41.104761" lon="-6.721009">
        <ele>582.8</ele>
        <time>1970-01-01T00:01:23.000Z</time>
      </trkpt>
      <trkpt lat="41.104738" lon="-6.720974">
        <ele>582.9</ele>
        <time>1970-01-01T00:01:24.000Z</time>
      </trkpt>
      <trkpt lat="41.104714" lon="-6.72094">
        <ele>583</ele>
        <time>1970-01-01T00:01:25.000Z</time>
      </trkpt>
      <trkpt lat="41.104691" lon="-6.720903">
        <ele>583.1</ele>
        <time>1970-01-01T00:01:26.000Z</time>
      </trkpt>
      <trkpt lat="41.104669" lon="-6.720866">
        <ele>583.2</ele>
        <time>1970-01-01T00:01:27.000Z</time>
      </trkpt>
      <trkpt lat="41.104649" lon="-6.720829">
        <ele>583.3</ele>
        <time>1970-01-01T00:01:28.000Z</time>
      </trkpt>
      <trkpt lat="41.10463" lon="-6.720792">
        <ele>583.3</ele>
        <time>1970-01-01T00:01:29.000Z</time>
      </trkpt>
      <trkpt lat="41.104611" lon="-6.720756">
        <ele>583.4</ele>
        <time>1970-01-01T00:01:30.000Z</time>
      </trkpt>
      <trkpt lat="41.104591" lon="-6.720722">
        <ele>583.4</ele>
        <time>1970-01-01T00:01:31.000Z</time>
      </trkpt>
      <trkpt lat="41.104572" lon="-6.72069">
        <ele>583.5</ele>
        <time>1970-01-01T00:01:32.000Z</time>
      </trkpt>
      <trkpt lat="41.104552" lon="-6.72066">
        <ele>583.5</ele>
        <time>1970-01-01T00:01:33.000Z</time>
      </trkpt>
      <trkpt lat="41.104531" lon="-6.720631">
        <ele>583.6</ele>
        <time>1970-01-01T00:01:34.000Z</time>
      </trkpt>
      <trkpt lat="41.10451" lon="-6.7206">
        <ele>583.8</ele>
        <time>1970-01-01T00:01:35.000Z</time>
      </trkpt>
      <trkpt lat="41.104488" lon="-6.720565">
        <ele>584</ele>
        <time>1970-01-01T00:01:36.000Z</time>
      </trkpt>
      <trkpt lat="41.104468" lon="-6.720528">
        <ele>584.2</ele>
        <time>1970-01-01T00:01:37.000Z</time>
      </trkpt>
      <trkpt lat="41.104449" lon="-6.720492">
        <ele>584.3</ele>
        <time>1970-01-01T00:01:38.000Z</time>
      </trkpt>
      <trkpt lat="41.104431" lon="-6.72046">
        <ele>584.4</ele>
        <time>1970-01-01T00:01:39.000Z</time>
      </trkpt>
      <trkpt lat="41.104412" lon="-6.720431">
        <ele>584.6</ele>
        <time>1970-01-01T00:01:40.000Z</time>
      </trkpt>
      <trkpt lat="41.104391" lon="-6.720402">
        <ele>584.7</ele>
        <time>1970-01-01T00:01:41.000Z</time>
      </trkpt>
      <trkpt lat="41.104369" lon="-6.720375">
        <ele>584.8</ele>
        <time>1970-01-01T00:01:42.000Z</time>
      </trkpt>
      <trkpt lat="41.104347" lon="-6.720346">
        <ele>584.9</ele>
        <time>1970-01-01T00:01:43.000Z</time>
      </trkpt>
      <trkpt lat="41.104326" lon="-6.720318">
        <ele>585</ele>
        <time>1970-01-01T00:01:44.000Z</time>
      </trkpt>
      <trkpt lat="41.104306" lon="-6.720289">
        <ele>585.1</ele>
        <time>1970-01-01T00:01:45.000Z</time>
      </trkpt>
      <trkpt lat="41.104286" lon="-6.720257">
        <ele>585.3</ele>
        <time>1970-01-01T00:01:46.000Z</time>
      </trkpt>
      <trkpt lat="41.104262" lon="-6.720223">
        <ele>585.4</ele>
        <time>1970-01-01T00:01:47.000Z</time>
      </trkpt>
      <trkpt lat="41.104238" lon="-6.720187">
        <ele>585.5</ele>
        <time>1970-01-01T00:01:48.000Z</time>
      </trkpt>
      <trkpt lat="41.104211" lon="-6.720151">
        <ele>585.6</ele>
        <time>1970-01-01T00:01:49.000Z</time>
      </trkpt>
      <trkpt lat="41.104189" lon="-6.720118">
        <ele>585.7</ele>
        <time>1970-01-01T00:01:50.000Z</time>
      </trkpt>
      <trkpt lat="41.104162" lon="-6.720087">
        <ele>585.8</ele>
        <time>1970-01-01T00:01:51.000Z</time>
      </trkpt>
      <trkpt lat="41.104131" lon="-6.720055">
        <ele>585.9</ele>
        <time>1970-01-01T00:01:52.000Z</time>
      </trkpt>
      <trkpt lat="41.104098" lon="-6.720025">
        <ele>586</ele>
        <time>1970-01-01T00:01:53.000Z</time>
      </trkpt>
      <trkpt lat="41.104061" lon="-6.719995">
        <ele>585.7</ele>
        <time>1970-01-01T00:01:54.000Z</time>
      </trkpt>
      <trkpt lat="41.104026" lon="-6.719972">
        <ele>585.4</ele>
        <time>1970-01-01T00:01:55.000Z</time>
      </trkpt>
      <trkpt lat="41.103988" lon="-6.719955">
        <ele>585.2</ele>
        <time>1970-01-01T00:01:56.000Z</time>
      </trkpt>
      <trkpt lat="41.10395" lon="-6.71994">
        <ele>584.9</ele>
        <time>1970-01-01T00:01:57.000Z</time>
      </trkpt>
      <trkpt lat="41.103909" lon="-6.719922">
        <ele>584.8</ele>
        <time>1970-01-01T00:01:58.000Z</time>
      </trkpt>
      <trkpt lat="41.103866" lon="-6.719898">
        <ele>584.5</ele>
        <time>1970-01-01T00:01:59.000Z</time>
      </trkpt>
      <trkpt lat="41.103824" lon="-6.719869">
        <ele>584.3</ele>
        <time>1970-01-01T00:02:00.000Z</time>
      </trkpt>
      <trkpt lat="41.103778" lon="-6.719837">
        <ele>584.1</ele>
        <time>1970-01-01T00:02:01.000Z</time>
      </trkpt>
      <trkpt lat="41.103727" lon="-6.719803">
        <ele>583.8</ele>
        <time>1970-01-01T00:02:02.000Z</time>
      </trkpt>
      <trkpt lat="41.103671" lon="-6.719767">
        <ele>583.5</ele>
        <time>1970-01-01T00:02:03.000Z</time>
      </trkpt>
      <trkpt lat="41.103612" lon="-6.719726">
        <ele>583.2</ele>
        <time>1970-01-01T00:02:04.000Z</time>
      </trkpt>
      <trkpt lat="41.103553" lon="-6.719681">
        <ele>582.9</ele>
        <time>1970-01-01T00:02:05.000Z</time>
      </trkpt>
      <trkpt lat="41.103495" lon="-6.719628">
        <ele>582.6</ele>
        <time>1970-01-01T00:02:06.000Z</time>
      </trkpt>
      <trkpt lat="41.103437" lon="-6.719565">
        <ele>582.3</ele>
        <time>1970-01-01T00:02:07.000Z</time>
      </trkpt>
      <trkpt lat="41.103379" lon="-6.719492">
        <ele>582</ele>
        <time>1970-01-01T00:02:08.000Z</time>
      </trkpt>
      <trkpt lat="41.103319" lon="-6.719412">
        <ele>581.6</ele>
        <time>1970-01-01T00:02:09.000Z</time>
      </trkpt>
      <trkpt lat="41.103258" lon="-6.719333">
        <ele>581.2</ele>
        <time>1970-01-01T00:02:10.000Z</time>
      </trkpt>
      <trkpt lat="41.103194" lon="-6.719258">
        <ele>580.6</ele>
        <time>1970-01-01T00:02:11.000Z</time>
      </trkpt>
      <trkpt lat="41.103127" lon="-6.719191">
        <ele>580.1</ele>
        <time>1970-01-01T00:02:12.000Z</time>
      </trkpt>
      <trkpt lat="41.103058" lon="-6.719136">
        <ele>579.6</ele>
        <time>1970-01-01T00:02:13.000Z</time>
      </trkpt>
      <trkpt lat="41.102988" lon="-6.719091">
        <ele>579.3</ele>
        <time>1970-01-01T00:02:14.000Z</time>
      </trkpt>
      <trkpt lat="41.102918" lon="-6.719054">
        <ele>579</ele>
        <time>1970-01-01T00:02:15.000Z</time>
      </trkpt>
      <trkpt lat="41.102848" lon="-6.719024">
        <ele>578.7</ele>
        <time>1970-01-01T00:02:16.000Z</time>
      </trkpt>
      <trkpt lat="41.102781" lon="-6.719003">
        <ele>578.5</ele>
        <time>1970-01-01T00:02:17.000Z</time>
      </trkpt>
      <trkpt lat="41.102718" lon="-6.718996">
        <ele>578.2</ele>
        <time>1970-01-01T00:02:18.000Z</time>
      </trkpt>
      <trkpt lat="41.102655" lon="-6.718999">
        <ele>577.9</ele>
        <time>1970-01-01T00:02:19.000Z</time>
      </trkpt>
      <trkpt lat="41.102595" lon="-6.719009">
        <ele>577.7</ele>
        <time>1970-01-01T00:02:20.000Z</time>
      </trkpt>
      <trkpt lat="41.102538" lon="-6.719017">
        <ele>577.5</ele>
        <time>1970-01-01T00:02:21.000Z</time>
      </trkpt>
      <trkpt lat="41.102483" lon="-6.719023">
        <ele>577.3</ele>
        <time>1970-01-01T00:02:22.000Z</time>
      </trkpt>
      <trkpt lat="41.102428" lon="-6.719026">
        <ele>577.1</ele>
        <time>1970-01-01T00:02:23.000Z</time>
      </trkpt>
      <trkpt lat="41.102374" lon="-6.719026">
        <ele>577</ele>
        <time>1970-01-01T00:02:24.000Z</time>
      </trkpt>
      <trkpt lat="41.102322" lon="-6.719021">
        <ele>576.8</ele>
        <time>1970-01-01T00:02:25.000Z</time>
      </trkpt>
      <trkpt lat="41.102272" lon="-6.71901">
        <ele>576.7</ele>
        <time>1970-01-01T00:02:26.000Z</time>
      </trkpt>
      <trkpt lat="41.102227" lon="-6.718995">
        <ele>576.6</ele>
        <time>1970-01-01T00:02:27.000Z</time>
      </trkpt>
      <trkpt lat="41.102188" lon="-6.718971">
        <ele>576.6</ele>
        <time>1970-01-01T00:02:28.000Z</time>
      </trkpt>
      <trkpt lat="41.102157" lon="-6.718939">
        <ele>576.6</ele>
        <time>1970-01-01T00:02:29.000Z</time>
      </trkpt>
      <trkpt lat="41.102132" lon="-6.718899">
        <ele>576.8</ele>
        <time>1970-01-01T00:02:30.000Z</time>
      </trkpt>
      <trkpt lat="41.102107" lon="-6.718863">
        <ele>576.9</ele>
        <time>1970-01-01T00:02:31.000Z</time>
      </trkpt>
      <trkpt lat="41.102078" lon="-6.718834">
        <ele>576.9</ele>
        <time>1970-01-01T00:02:32.000Z</time>
      </trkpt>
      <trkpt lat="41.102046" lon="-6.718814">
        <ele>576.9</ele>
        <time>1970-01-01T00:02:33.000Z</time>
      </trkpt>
      <trkpt lat="41.102015" lon="-6.7188">
        <ele>576.9</ele>
        <time>1970-01-01T00:02:34.000Z</time>
      </trkpt>
      <trkpt lat="41.101985" lon="-6.718789">
        <ele>577</ele>
        <time>1970-01-01T00:02:35.000Z</time>
      </trkpt>
      <trkpt lat="41.101956" lon="-6.718783">
        <ele>577</ele>
        <time>1970-01-01T00:02:36.000Z</time>
      </trkpt>
      <trkpt lat="41.101925" lon="-6.71878">
        <ele>577</ele>
        <time>1970-01-01T00:02:37.000Z</time>
      </trkpt>
      <trkpt lat="41.101891" lon="-6.718774">
        <ele>577</ele>
        <time>1970-01-01T00:02:38.000Z</time>
      </trkpt>
      <trkpt lat="41.101856" lon="-6.718767">
        <ele>576.9</ele>
        <time>1970-01-01T00:02:39.000Z</time>
      </trkpt>
      <trkpt lat="41.101822" lon="-6.718759">
        <ele>576.8</ele>
        <time>1970-01-01T00:02:40.000Z</time>
      </trkpt>
      <trkpt lat="41.101788" lon="-6.718755">
        <ele>576.7</ele>
        <time>1970-01-01T00:02:41.000Z</time>
      </trkpt>
      <trkpt lat="41.101751" lon="-6.718753">
        <ele>576.6</ele>
        <time>1970-01-01T00:02:42.000Z</time>
      </trkpt>
      <trkpt lat="41.101711" lon="-6.718753">
        <ele>576.5</ele>
        <time>1970-01-01T00:02:43.000Z</time>
      </trkpt>
      <trkpt lat="41.101668" lon="-6.718753">
        <ele>576.4</ele>
        <time>1970-01-01T00:02:44.000Z</time>
      </trkpt>
      <trkpt lat="41.101623" lon="-6.718751">
        <ele>576.4</ele>
        <time>1970-01-01T00:02:45.000Z</time>
      </trkpt>
      <trkpt lat="41.101577" lon="-6.718746">
        <ele>576.3</ele>
        <time>1970-01-01T00:02:46.000Z</time>
      </trkpt>
      <trkpt lat="41.101531" lon="-6.71874">
        <ele>576.3</ele>
        <time>1970-01-01T00:02:47.000Z</time>
      </trkpt>
      <trkpt lat="41.101483" lon="-6.718734">
        <ele>576.2</ele>
        <time>1970-01-01T00:02:48.000Z</time>
      </trkpt>
      <trkpt lat="41.101434" lon="-6.718727">
        <ele>576.1</ele>
        <time>1970-01-01T00:02:49.000Z</time>
      </trkpt>
      <trkpt lat="41.101382" lon="-6.718719">
        <ele>576</ele>
        <time>1970-01-01T00:02:50.000Z</time>
      </trkpt>
      <trkpt lat="41.10133" lon="-6.718709">
        <ele>575.9</ele>
        <time>1970-01-01T00:02:51.000Z</time>
      </trkpt>
      <trkpt lat="41.101279" lon="-6.718698">
        <ele>575.8</ele>
        <time>1970-01-01T00:02:52.000Z</time>
      </trkpt>
      <trkpt lat="41.101229" lon="-6.718685">
        <ele>575.6</ele>
        <time>1970-01-01T00:02:53.000Z</time>
      </trkpt>
      <trkpt lat="41.101182" lon="-6.718668">
        <ele>575.5</ele>
        <time>1970-01-01T00:02:54.000Z</time>
      </trkpt>
      <trkpt lat="41.101137" lon="-6.718647">
        <ele>575.4</ele>
        <time>1970-01-01T00:02:55.000Z</time>
      </trkpt>
      <trkpt lat="41.101094" lon="-6.718622">
        <ele>575.4</ele>
        <time>1970-01-01T00:02:56.000Z</time>
      </trkpt>
      <trkpt lat="41.10105" lon="-6.718597">
        <ele>575.4</ele>
        <time>1970-01-01T00:02:57.000Z</time>
      </trkpt>
      <trkpt lat="41.101007" lon="-6.718571">
        <ele>575.4</ele>
        <time>1970-01-01T00:02:58.000Z</time>
      </trkpt>
      <trkpt lat="41.100964" lon="-6.718545">
        <ele>575.4</ele>
        <time>1970-01-01T00:02:59.000Z</time>
      </trkpt>
      <trkpt lat="41.10092" lon="-6.718517">
        <ele>575.3</ele>
        <time>1970-01-01T00:03:00.000Z</time>
      </trkpt>
      <trkpt lat="41.100875" lon="-6.718491">
        <ele>575.2</ele>
        <time>1970-01-01T00:03:01.000Z</time>
      </trkpt>
      <trkpt lat="41.10083" lon="-6.718464">
        <ele>575</ele>
        <time>1970-01-01T00:03:02.000Z</time>
      </trkpt>
      <trkpt lat="41.100786" lon="-6.718435">
        <ele>574.9</ele>
        <time>1970-01-01T00:03:03.000Z</time>
      </trkpt>
      <trkpt lat="41.100744" lon="-6.718406">
        <ele>574.9</ele>
        <time>1970-01-01T00:03:04.000Z</time>
      </trkpt>
      <trkpt lat="41.100705" lon="-6.718375">
        <ele>574.9</ele>
        <time>1970-01-01T00:03:05.000Z</time>
      </trkpt>
      <trkpt lat="41.100668" lon="-6.71834">
        <ele>575</ele>
        <time>1970-01-01T00:03:06.000Z</time>
      </trkpt>
      <trkpt lat="41.100631" lon="-6.718303">
        <ele>575.1</ele>
        <time>1970-01-01T00:03:07.000Z</time>
      </trkpt>
      <trkpt lat="41.100594" lon="-6.718267">
        <ele>575.1</ele>
        <time>1970-01-01T00:03:08.000Z</time>
      </trkpt>
      <trkpt lat="41.100554" lon="-6.718233">
        <ele>575.1</ele>
        <time>1970-01-01T00:03:09.000Z</time>
      </trkpt>
      <trkpt lat="41.100512" lon="-6.718201">
        <ele>575.1</ele>
        <time>1970-01-01T00:03:10.000Z</time>
      </trkpt>
      <trkpt lat="41.100469" lon="-6.718174">
        <ele>575</ele>
        <time>1970-01-01T00:03:11.000Z</time>
      </trkpt>
      <trkpt lat="41.100423" lon="-6.718153">
        <ele>575</ele>
        <time>1970-01-01T00:03:12.000Z</time>
      </trkpt>
      <trkpt lat="41.100377" lon="-6.718136">
        <ele>575</ele>
        <time>1970-01-01T00:03:13.000Z</time>
      </trkpt>
      <trkpt lat="41.100329" lon="-6.718121">
        <ele>574.9</ele>
        <time>1970-01-01T00:03:14.000Z</time>
      </trkpt>
      <trkpt lat="41.10028" lon="-6.71811">
        <ele>574.9</ele>
        <time>1970-01-01T00:03:15.000Z</time>
      </trkpt>
      <trkpt lat="41.10023" lon="-6.718103">
        <ele>574.8</ele>
        <time>1970-01-01T00:03:16.000Z</time>
      </trkpt>
      <trkpt lat="41.100179" lon="-6.718099">
        <ele>574.6</ele>
        <time>1970-01-01T00:03:17.000Z</time>
      </trkpt>
      <trkpt lat="41.100128" lon="-6.7181">
        <ele>574.4</ele>
        <time>1970-01-01T00:03:18.000Z</time>
      </trkpt>
      <trkpt lat="41.100077" lon="-6.718106">
        <ele>574.1</ele>
        <time>1970-01-01T00:03:19.000Z</time>
      </trkpt>
      <trkpt lat="41.100026" lon="-6.718117">
        <ele>573.8</ele>
        <time>1970-01-01T00:03:20.000Z</time>
      </trkpt>
      <trkpt lat="41.099973" lon="-6.718131">
        <ele>573.6</ele>
        <time>1970-01-01T00:03:21.000Z</time>
      </trkpt>
      <trkpt lat="41.099913" lon="-6.71815">
        <ele>573.4</ele>
        <time>1970-01-01T00:03:22.000Z</time>
      </trkpt>
      <trkpt lat="41.099851" lon="-6.718171">
        <ele>573.2</ele>
        <time>1970-01-01T00:03:23.000Z</time>
      </trkpt>
      <trkpt lat="41.099786" lon="-6.718196">
        <ele>573</ele>
        <time>1970-01-01T00:03:24.000Z</time>
      </trkpt>
      <trkpt lat="41.099721" lon="-6.718221">
        <ele>572.8</ele>
        <time>1970-01-01T00:03:25.000Z</time>
      </trkpt>
      <trkpt lat="41.099655" lon="-6.718246">
        <ele>572.4</ele>
        <time>1970-01-01T00:03:26.000Z</time>
      </trkpt>
      <trkpt lat="41.099589" lon="-6.718268">
        <ele>572.1</ele>
        <time>1970-01-01T00:03:27.000Z</time>
      </trkpt>
      <trkpt lat="41.099524" lon="-6.718287">
        <ele>571.9</ele>
        <time>1970-01-01T00:03:28.000Z</time>
      </trkpt>
      <trkpt lat="41.099459" lon="-6.718302">
        <ele>571.6</ele>
        <time>1970-01-01T00:03:29.000Z</time>
      </trkpt>
      <trkpt lat="41.099393" lon="-6.71832">
        <ele>571.3</ele>
        <time>1970-01-01T00:03:30.000Z</time>
      </trkpt>
      <trkpt lat="41.099328" lon="-6.718341">
        <ele>571</ele>
        <time>1970-01-01T00:03:31.000Z</time>
      </trkpt>
      <trkpt lat="41.099265" lon="-6.718363">
        <ele>570.8</ele>
        <time>1970-01-01T00:03:32.000Z</time>
      </trkpt>
      <trkpt lat="41.099202" lon="-6.718386">
        <ele>570.6</ele>
        <time>1970-01-01T00:03:33.000Z</time>
      </trkpt>
      <trkpt lat="41.099141" lon="-6.718408">
        <ele>570.4</ele>
        <time>1970-01-01T00:03:34.000Z</time>
      </trkpt>
      <trkpt lat="41.099086" lon="-6.71843">
        <ele>570</ele>
        <time>1970-01-01T00:03:35.000Z</time>
      </trkpt>
      <trkpt lat="41.099035" lon="-6.718451">
        <ele>569.3</ele>
        <time>1970-01-01T00:03:36.000Z</time>
      </trkpt>
      <trkpt lat="41.098987" lon="-6.718473">
        <ele>567.8</ele>
        <time>1970-01-01T00:03:37.000Z</time>
      </trkpt>
      <trkpt lat="41.098939" lon="-6.718492">
        <ele>567.6</ele>
        <time>1970-01-01T00:03:38.000Z</time>
      </trkpt>
      <trkpt lat="41.098891" lon="-6.71851">
        <ele>567.5</ele>
        <time>1970-01-01T00:03:39.000Z</time>
      </trkpt>
      <trkpt lat="41.098841" lon="-6.718523">
        <ele>567.3</ele>
        <time>1970-01-01T00:03:40.000Z</time>
      </trkpt>
      <trkpt lat="41.098789" lon="-6.718534">
        <ele>567.2</ele>
        <time>1970-01-01T00:03:41.000Z</time>
      </trkpt>
      <trkpt lat="41.098735" lon="-6.718542">
        <ele>567</ele>
        <time>1970-01-01T00:03:42.000Z</time>
      </trkpt>
      <trkpt lat="41.09868" lon="-6.718551">
        <ele>566.9</ele>
        <time>1970-01-01T00:03:43.000Z</time>
      </trkpt>
      <trkpt lat="41.098623" lon="-6.718563">
        <ele>566.8</ele>
        <time>1970-01-01T00:03:44.000Z</time>
      </trkpt>
      <trkpt lat="41.098565" lon="-6.718577">
        <ele>566.8</ele>
        <time>1970-01-01T00:03:45.000Z</time>
      </trkpt>
      <trkpt lat="41.098505" lon="-6.718592">
        <ele>566.9</ele>
        <time>1970-01-01T00:03:46.000Z</time>
      </trkpt>
      <trkpt lat="41.098443" lon="-6.718609">
        <ele>567.1</ele>
        <time>1970-01-01T00:03:47.000Z</time>
      </trkpt>
      <trkpt lat="41.098379" lon="-6.718628">
        <ele>567.1</ele>
        <time>1970-01-01T00:03:48.000Z</time>
      </trkpt>
      <trkpt lat="41.098313" lon="-6.718651">
        <ele>566.9</ele>
        <time>1970-01-01T00:03:49.000Z</time>
      </trkpt>
      <trkpt lat="41.098244" lon="-6.718674">
        <ele>566.6</ele>
        <time>1970-01-01T00:03:50.000Z</time>
      </trkpt>
      <trkpt lat="41.098171" lon="-6.718699">
        <ele>566.1</ele>
        <time>1970-01-01T00:03:51.000Z</time>
      </trkpt>
      <trkpt lat="41.098097" lon="-6.718722">
        <ele>565.7</ele>
        <time>1970-01-01T00:03:52.000Z</time>
      </trkpt>
      <trkpt lat="41.098023" lon="-6.718735">
        <ele>565.4</ele>
        <time>1970-01-01T00:03:53.000Z</time>
      </trkpt>
      <trkpt lat="41.097951" lon="-6.718737">
        <ele>565.1</ele>
        <time>1970-01-01T00:03:54.000Z</time>
      </trkpt>
      <trkpt lat="41.097882" lon="-6.718729">
        <ele>565</ele>
        <time>1970-01-01T00:03:55.000Z</time>
      </trkpt>
      <trkpt lat="41.097816" lon="-6.718716">
        <ele>564.9</ele>
        <time>1970-01-01T00:03:56.000Z</time>
      </trkpt>
      <trkpt lat="41.097751" lon="-6.718703">
        <ele>564.7</ele>
        <time>1970-01-01T00:03:57.000Z</time>
      </trkpt>
      <trkpt lat="41.097688" lon="-6.718691">
        <ele>564.4</ele>
        <time>1970-01-01T00:03:58.000Z</time>
      </trkpt>
      <trkpt lat="41.097628" lon="-6.718681">
        <ele>564.1</ele>
        <time>1970-01-01T00:03:59.000Z</time>
      </trkpt>
      <trkpt lat="41.097569" lon="-6.718669">
        <ele>563.8</ele>
        <time>1970-01-01T00:04:00.000Z</time>
      </trkpt>
      <trkpt lat="41.097513" lon="-6.718656">
        <ele>563.5</ele>
        <time>1970-01-01T00:04:01.000Z</time>
      </trkpt>
      <trkpt lat="41.097457" lon="-6.718638">
        <ele>563.3</ele>
        <time>1970-01-01T00:04:02.000Z</time>
      </trkpt>
      <trkpt lat="41.097402" lon="-6.718618">
        <ele>563</ele>
        <time>1970-01-01T00:04:03.000Z</time>
      </trkpt>
      <trkpt lat="41.097348" lon="-6.718593">
        <ele>562.8</ele>
        <time>1970-01-01T00:04:04.000Z</time>
      </trkpt>
      <trkpt lat="41.097294" lon="-6.718566">
        <ele>562.5</ele>
        <time>1970-01-01T00:04:05.000Z</time>
      </trkpt>
      <trkpt lat="41.097239" lon="-6.71854">
        <ele>562.2</ele>
        <time>1970-01-01T00:04:06.000Z</time>
      </trkpt>
      <trkpt lat="41.097185" lon="-6.718517">
        <ele>561.9</ele>
        <time>1970-01-01T00:04:07.000Z</time>
      </trkpt>
      <trkpt lat="41.097131" lon="-6.718498">
        <ele>561.7</ele>
        <time>1970-01-01T00:04:08.000Z</time>
      </trkpt>
      <trkpt lat="41.097076" lon="-6.718483">
        <ele>561.4</ele>
        <time>1970-01-01T00:04:09.000Z</time>
      </trkpt>
      <trkpt lat="41.097021" lon="-6.718473">
        <ele>561</ele>
        <time>1970-01-01T00:04:10.000Z</time>
      </trkpt>
      <trkpt lat="41.096969" lon="-6.71847">
        <ele>560.6</ele>
        <time>1970-01-01T00:04:11.000Z</time>
      </trkpt>
      <trkpt lat="41.096917" lon="-6.718474">
        <ele>560.2</ele>
        <time>1970-01-01T00:04:12.000Z</time>
      </trkpt>
      <trkpt lat="41.096866" lon="-6.718483">
        <ele>559.9</ele>
        <time>1970-01-01T00:04:13.000Z</time>
      </trkpt>
      <trkpt lat="41.096815" lon="-6.718495">
        <ele>559.5</ele>
        <time>1970-01-01T00:04:14.000Z</time>
      </trkpt>
      <trkpt lat="41.096765" lon="-6.718514">
        <ele>559.3</ele>
        <time>1970-01-01T00:04:15.000Z</time>
      </trkpt>
      <trkpt lat="41.096718" lon="-6.718536">
        <ele>559.1</ele>
        <time>1970-01-01T00:04:16.000Z</time>
      </trkpt>
      <trkpt lat="41.096671" lon="-6.718561">
        <ele>559</ele>
        <time>1970-01-01T00:04:17.000Z</time>
      </trkpt>
      <trkpt lat="41.096625" lon="-6.718587">
        <ele>558.8</ele>
        <time>1970-01-01T00:04:18.000Z</time>
      </trkpt>
      <trkpt lat="41.09658" lon="-6.718615">
        <ele>558.7</ele>
        <time>1970-01-01T00:04:19.000Z</time>
      </trkpt>
      <trkpt lat="41.096534" lon="-6.718643">
        <ele>558.5</ele>
        <time>1970-01-01T00:04:20.000Z</time>
      </trkpt>
      <trkpt lat="41.096488" lon="-6.718671">
        <ele>558.3</ele>
        <time>1970-01-01T00:04:21.000Z</time>
      </trkpt>
      <trkpt lat="41.096438" lon="-6.718695">
        <ele>558.1</ele>
        <time>1970-01-01T00:04:22.000Z</time>
      </trkpt>
      <trkpt lat="41.096387" lon="-6.718715">
        <ele>557.9</ele>
        <time>1970-01-01T00:04:23.000Z</time>
      </trkpt>
      <trkpt lat="41.096334" lon="-6.718731">
        <ele>557.8</ele>
        <time>1970-01-01T00:04:24.000Z</time>
      </trkpt>
      <trkpt lat="41.096281" lon="-6.718745">
        <ele>557.6</ele>
        <time>1970-01-01T00:04:25.000Z</time>
      </trkpt>
      <trkpt lat="41.096228" lon="-6.718755">
        <ele>557.5</ele>
        <time>1970-01-01T00:04:26.000Z</time>
      </trkpt>
      <trkpt lat="41.096176" lon="-6.718762">
        <ele>557.4</ele>
        <time>1970-01-01T00:04:27.000Z</time>
      </trkpt>
      <trkpt lat="41.096125" lon="-6.718763">
        <ele>557.3</ele>
        <time>1970-01-01T00:04:28.000Z</time>
      </trkpt>
      <trkpt lat="41.096076" lon="-6.718756">
        <ele>557.2</ele>
        <time>1970-01-01T00:04:29.000Z</time>
      </trkpt>
      <trkpt lat="41.096029" lon="-6.718736">
        <ele>557.1</ele>
        <time>1970-01-01T00:04:30.000Z</time>
      </trkpt>
      <trkpt lat="41.095987" lon="-6.718701">
        <ele>557</ele>
        <time>1970-01-01T00:04:31.000Z</time>
      </trkpt>
      <trkpt lat="41.095951" lon="-6.718654">
        <ele>557.3</ele>
        <time>1970-01-01T00:04:32.000Z</time>
      </trkpt>
      <trkpt lat="41.095923" lon="-6.718598">
        <ele>557.4</ele>
        <time>1970-01-01T00:04:33.000Z</time>
      </trkpt>
      <trkpt lat="41.095904" lon="-6.718538">
        <ele>557.5</ele>
        <time>1970-01-01T00:04:34.000Z</time>
      </trkpt>
      <trkpt lat="41.095894" lon="-6.718475">
        <ele>557.6</ele>
        <time>1970-01-01T00:04:35.000Z</time>
      </trkpt>
      <trkpt lat="41.095889" lon="-6.71841">
        <ele>557.7</ele>
        <time>1970-01-01T00:04:36.000Z</time>
      </trkpt>
      <trkpt lat="41.095885" lon="-6.718341">
        <ele>557.7</ele>
        <time>1970-01-01T00:04:37.000Z</time>
      </trkpt>
      <trkpt lat="41.095879" lon="-6.718271">
        <ele>557.8</ele>
        <time>1970-01-01T00:04:38.000Z</time>
      </trkpt>
      <trkpt lat="41.095868" lon="-6.718206">
        <ele>557.8</ele>
        <time>1970-01-01T00:04:39.000Z</time>
      </trkpt>
      <trkpt lat="41.09585" lon="-6.718154">
        <ele>557.8</ele>
        <time>1970-01-01T00:04:40.000Z</time>
      </trkpt>
      <trkpt lat="41.095821" lon="-6.718115">
        <ele>557.8</ele>
        <time>1970-01-01T00:04:41.000Z</time>
      </trkpt>
      <trkpt lat="41.095785" lon="-6.718088">
        <ele>557.8</ele>
        <time>1970-01-01T00:04:42.000Z</time>
      </trkpt>
      <trkpt lat="41.095744" lon="-6.718064">
        <ele>557.7</ele>
        <time>1970-01-01T00:04:43.000Z</time>
      </trkpt>
      <trkpt lat="41.095705" lon="-6.718043">
        <ele>557.7</ele>
        <time>1970-01-01T00:04:44.000Z</time>
      </trkpt>
      <trkpt lat="41.095667" lon="-6.71802">
        <ele>557.6</ele>
        <time>1970-01-01T00:04:45.000Z</time>
      </trkpt>
      <trkpt lat="41.095629" lon="-6.717999">
        <ele>557.6</ele>
        <time>1970-01-01T00:04:46.000Z</time>
      </trkpt>
      <trkpt lat="41.095592" lon="-6.717976">
        <ele>557.6</ele>
        <time>1970-01-01T00:04:47.000Z</time>
      </trkpt>
      <trkpt lat="41.095556" lon="-6.717951">
        <ele>557.7</ele>
        <time>1970-01-01T00:04:48.000Z</time>
      </trkpt>
      <trkpt lat="41.095521" lon="-6.717925">
        <ele>557.7</ele>
        <time>1970-01-01T00:04:49.000Z</time>
      </trkpt>
      <trkpt lat="41.095487" lon="-6.717898">
        <ele>557.8</ele>
        <time>1970-01-01T00:04:50.000Z</time>
      </trkpt>
      <trkpt lat="41.095455" lon="-6.71787">
        <ele>557.9</ele>
        <time>1970-01-01T00:04:51.000Z</time>
      </trkpt>
      <trkpt lat="41.095423" lon="-6.717842">
        <ele>558</ele>
        <time>1970-01-01T00:04:52.000Z</time>
      </trkpt>
      <trkpt lat="41.095392" lon="-6.717815">
        <ele>558.2</ele>
        <time>1970-01-01T00:04:53.000Z</time>
      </trkpt>
      <trkpt lat="41.095362" lon="-6.71779">
        <ele>558.3</ele>
        <time>1970-01-01T00:04:54.000Z</time>
      </trkpt>
      <trkpt lat="41.095332" lon="-6.717766">
        <ele>558.5</ele>
        <time>1970-01-01T00:04:55.000Z</time>
      </trkpt>
      <trkpt lat="41.095303" lon="-6.717741">
        <ele>558.6</ele>
        <time>1970-01-01T00:04:56.000Z</time>
      </trkpt>
      <trkpt lat="41.095275" lon="-6.717715">
        <ele>558.8</ele>
        <time>1970-01-01T00:04:57.000Z</time>
      </trkpt>
      <trkpt lat="41.095248" lon="-6.717691">
        <ele>558.9</ele>
        <time>1970-01-01T00:04:58.000Z</time>
      </trkpt>
      <trkpt lat="41.095221" lon="-6.717666">
        <ele>559</ele>
        <time>1970-01-01T00:04:59.000Z</time>
      </trkpt>
      <trkpt lat="41.095195" lon="-6.717643">
        <ele>559.2</ele>
        <time>1970-01-01T00:05:00.000Z</time>
      </trkpt>
      <trkpt lat="41.095169" lon="-6.71762">
        <ele>559.3</ele>
        <time>1970-01-01T00:05:01.000Z</time>
      </trkpt>
      <trkpt lat="41.095144" lon="-6.717599">
        <ele>559.5</ele>
        <time>1970-01-01T00:05:02.000Z</time>
      </trkpt>
      <trkpt lat="41.095119" lon="-6.717578">
        <ele>559.7</ele>
        <time>1970-01-01T00:05:03.000Z</time>
      </trkpt>
      <trkpt lat="41.095096" lon="-6.717556">
        <ele>559.9</ele>
        <time>1970-01-01T00:05:04.000Z</time>
      </trkpt>
      <trkpt lat="41.095071" lon="-6.717535">
        <ele>560.1</ele>
        <time>1970-01-01T00:05:05.000Z</time>
      </trkpt>
      <trkpt lat="41.095046" lon="-6.717515">
        <ele>560.3</ele>
        <time>1970-01-01T00:05:06.000Z</time>
      </trkpt>
      <trkpt lat="41.095021" lon="-6.717495">
        <ele>560.5</ele>
        <time>1970-01-01T00:05:07.000Z</time>
      </trkpt>
      <trkpt lat="41.094996" lon="-6.717475">
        <ele>560.6</ele>
        <time>1970-01-01T00:05:08.000Z</time>
      </trkpt>
      <trkpt lat="41.09497" lon="-6.717459">
        <ele>560.8</ele>
        <time>1970-01-01T00:05:09.000Z</time>
      </trkpt>
      <trkpt lat="41.09494" lon="-6.717446">
        <ele>561</ele>
        <time>1970-01-01T00:05:10.000Z</time>
      </trkpt>
      <trkpt lat="41.09491" lon="-6.717435">
        <ele>561.1</ele>
        <time>1970-01-01T00:05:11.000Z</time>
      </trkpt>
      <trkpt lat="41.094879" lon="-6.717426">
        <ele>561.3</ele>
        <time>1970-01-01T00:05:12.000Z</time>
      </trkpt>
      <trkpt lat="41.094849" lon="-6.717418">
        <ele>561.5</ele>
        <time>1970-01-01T00:05:13.000Z</time>
      </trkpt>
      <trkpt lat="41.09482" lon="-6.71741">
        <ele>561.6</ele>
        <time>1970-01-01T00:05:14.000Z</time>
      </trkpt>
      <trkpt lat="41.09479" lon="-6.717403">
        <ele>561.8</ele>
        <time>1970-01-01T00:05:15.000Z</time>
      </trkpt>
      <trkpt lat="41.09476" lon="-6.717396">
        <ele>561.9</ele>
        <time>1970-01-01T00:05:16.000Z</time>
      </trkpt>
      <trkpt lat="41.094729" lon="-6.71739">
        <ele>562</ele>
        <time>1970-01-01T00:05:17.000Z</time>
      </trkpt>
      <trkpt lat="41.094697" lon="-6.717386">
        <ele>562.1</ele>
        <time>1970-01-01T00:05:18.000Z</time>
      </trkpt>
      <trkpt lat="41.094666" lon="-6.717383">
        <ele>562.2</ele>
        <time>1970-01-01T00:05:19.000Z</time>
      </trkpt>
      <trkpt lat="41.094636" lon="-6.717379">
        <ele>562.3</ele>
        <time>1970-01-01T00:05:20.000Z</time>
      </trkpt>
      <trkpt lat="41.094607" lon="-6.717376">
        <ele>562.4</ele>
        <time>1970-01-01T00:05:21.000Z</time>
      </trkpt>
      <trkpt lat="41.09458" lon="-6.717374">
        <ele>562.5</ele>
        <time>1970-01-01T00:05:22.000Z</time>
      </trkpt>
      <trkpt lat="41.094553" lon="-6.717373">
        <ele>562.6</ele>
        <time>1970-01-01T00:05:23.000Z</time>
      </trkpt>
      <trkpt lat="41.094524" lon="-6.717372">
        <ele>562.7</ele>
        <time>1970-01-01T00:05:24.000Z</time>
      </trkpt>
      <trkpt lat="41.094495" lon="-6.71737">
        <ele>562.8</ele>
        <time>1970-01-01T00:05:25.000Z</time>
      </trkpt>
      <trkpt lat="41.094465" lon="-6.717369">
        <ele>563</ele>
        <time>1970-01-01T00:05:26.000Z</time>
      </trkpt>
      <trkpt lat="41.094435" lon="-6.717368">
        <ele>563.1</ele>
        <time>1970-01-01T00:05:27.000Z</time>
      </trkpt>
      <trkpt lat="41.094405" lon="-6.717366">
        <ele>563.2</ele>
        <time>1970-01-01T00:05:28.000Z</time>
      </trkpt>
      <trkpt lat="41.094373" lon="-6.717363">
        <ele>563.3</ele>
        <time>1970-01-01T00:05:29.000Z</time>
      </trkpt>
      <trkpt lat="41.094341" lon="-6.717359">
        <ele>563.4</ele>
        <time>1970-01-01T00:05:30.000Z</time>
      </trkpt>
      <trkpt lat="41.094311" lon="-6.717353">
        <ele>563.5</ele>
        <time>1970-01-01T00:05:31.000Z</time>
      </trkpt>
      <trkpt lat="41.09428" lon="-6.717346">
        <ele>563.6</ele>
        <time>1970-01-01T00:05:32.000Z</time>
      </trkpt>
      <trkpt lat="41.094251" lon="-6.717339">
        <ele>563.7</ele>
        <time>1970-01-01T00:05:33.000Z</time>
      </trkpt>
      <trkpt lat="41.09422" lon="-6.717332">
        <ele>563.7</ele>
        <time>1970-01-01T00:05:34.000Z</time>
      </trkpt>
      <trkpt lat="41.094189" lon="-6.717326">
        <ele>563.8</ele>
        <time>1970-01-01T00:05:35.000Z</time>
      </trkpt>
      <trkpt lat="41.09416" lon="-6.717319">
        <ele>563.8</ele>
        <time>1970-01-01T00:05:36.000Z</time>
      </trkpt>
      <trkpt lat="41.09413" lon="-6.717312">
        <ele>563.9</ele>
        <time>1970-01-01T00:05:37.000Z</time>
      </trkpt>
      <trkpt lat="41.094101" lon="-6.717305">
        <ele>563.9</ele>
        <time>1970-01-01T00:05:38.000Z</time>
      </trkpt>
      <trkpt lat="41.094069" lon="-6.717298">
        <ele>564</ele>
        <time>1970-01-01T00:05:39.000Z</time>
      </trkpt>
      <trkpt lat="41.094038" lon="-6.717293">
        <ele>564</ele>
        <time>1970-01-01T00:05:40.000Z</time>
      </trkpt>
      <trkpt lat="41.094007" lon="-6.717288">
        <ele>564.1</ele>
        <time>1970-01-01T00:05:41.000Z</time>
      </trkpt>
      <trkpt lat="41.093977" lon="-6.717283">
        <ele>564.1</ele>
        <time>1970-01-01T00:05:42.000Z</time>
      </trkpt>
      <trkpt lat="41.093946" lon="-6.717278">
        <ele>564.2</ele>
        <time>1970-01-01T00:05:43.000Z</time>
      </trkpt>
      <trkpt lat="41.093914" lon="-6.717272">
        <ele>564.2</ele>
        <time>1970-01-01T00:05:44.000Z</time>
      </trkpt>
      <trkpt lat="41.093881" lon="-6.717266">
        <ele>564.3</ele>
        <time>1970-01-01T00:05:45.000Z</time>
      </trkpt>
      <trkpt lat="41.093848" lon="-6.717261">
        <ele>564.3</ele>
        <time>1970-01-01T00:05:46.000Z</time>
      </trkpt>
      <trkpt lat="41.093816" lon="-6.717254">
        <ele>564.4</ele>
        <time>1970-01-01T00:05:47.000Z</time>
      </trkpt>
      <trkpt lat="41.093784" lon="-6.717248">
        <ele>564.4</ele>
        <time>1970-01-01T00:05:48.000Z</time>
      </trkpt>
      <trkpt lat="41.093753" lon="-6.717242">
        <ele>564.5</ele>
        <time>1970-01-01T00:05:49.000Z</time>
      </trkpt>
      <trkpt lat="41.093721" lon="-6.717237">
        <ele>564.5</ele>
        <time>1970-01-01T00:05:50.000Z</time>
      </trkpt>
      <trkpt lat="41.093688" lon="-6.717233">
        <ele>564.6</ele>
        <time>1970-01-01T00:05:51.000Z</time>
      </trkpt>
      <trkpt lat="41.093656" lon="-6.717225">
        <ele>564.7</ele>
        <time>1970-01-01T00:05:52.000Z</time>
      </trkpt>
      <trkpt lat="41.093625" lon="-6.717215">
        <ele>564.7</ele>
        <time>1970-01-01T00:05:53.000Z</time>
      </trkpt>
      <trkpt lat="41.093594" lon="-6.717201">
        <ele>564.8</ele>
        <time>1970-01-01T00:05:54.000Z</time>
      </trkpt>
      <trkpt lat="41.093562" lon="-6.717185">
        <ele>565</ele>
        <time>1970-01-01T00:05:55.000Z</time>
      </trkpt>
      <trkpt lat="41.093531" lon="-6.717169">
        <ele>565.1</ele>
        <time>1970-01-01T00:05:56.000Z</time>
      </trkpt>
      <trkpt lat="41.093501" lon="-6.717152">
        <ele>565.2</ele>
        <time>1970-01-01T00:05:57.000Z</time>
      </trkpt>
      <trkpt lat="41.093471" lon="-6.717135">
        <ele>565.3</ele>
        <time>1970-01-01T00:05:58.000Z</time>
      </trkpt>
      <trkpt lat="41.09344" lon="-6.71712">
        <ele>565.4</ele>
        <time>1970-01-01T00:05:59.000Z</time>
      </trkpt>
      <trkpt lat="41.093409" lon="-6.717109">
        <ele>565.5</ele>
        <time>1970-01-01T00:06:00.000Z</time>
      </trkpt>
      <trkpt lat="41.093383" lon="-6.717101">
        <ele>565.6</ele>
        <time>1970-01-01T00:06:01.000Z</time>
      </trkpt>
      <trkpt lat="41.093361" lon="-6.717093">
        <ele>565.7</ele>
        <time>1970-01-01T00:06:02.000Z</time>
      </trkpt>
      <trkpt lat="41.093341" lon="-6.717085">
        <ele>565.8</ele>
        <time>1970-01-01T00:06:03.000Z</time>
      </trkpt>
      <trkpt lat="41.093319" lon="-6.717079">
        <ele>565.9</ele>
        <time>1970-01-01T00:06:04.000Z</time>
      </trkpt>
      <trkpt lat="41.093295" lon="-6.717076">
        <ele>566</ele>
        <time>1970-01-01T00:06:05.000Z</time>
      </trkpt>
      <trkpt lat="41.093268" lon="-6.717076">
        <ele>566.1</ele>
        <time>1970-01-01T00:06:06.000Z</time>
      </trkpt>
      <trkpt lat="41.093239" lon="-6.717077">
        <ele>566.2</ele>
        <time>1970-01-01T00:06:07.000Z</time>
      </trkpt>
      <trkpt lat="41.093209" lon="-6.717081">
        <ele>566.2</ele>
        <time>1970-01-01T00:06:08.000Z</time>
      </trkpt>
      <trkpt lat="41.093178" lon="-6.717089">
        <ele>566</ele>
        <time>1970-01-01T00:06:09.000Z</time>
      </trkpt>
      <trkpt lat="41.093149" lon="-6.717102">
        <ele>565.9</ele>
        <time>1970-01-01T00:06:10.000Z</time>
      </trkpt>
      <trkpt lat="41.093125" lon="-6.717119">
        <ele>565.8</ele>
        <time>1970-01-01T00:06:11.000Z</time>
      </trkpt>
      <trkpt lat="41.093106" lon="-6.717137">
        <ele>565.7</ele>
        <time>1970-01-01T00:06:12.000Z</time>
      </trkpt>
      <trkpt lat="41.09309" lon="-6.717153">
        <ele>565.6</ele>
        <time>1970-01-01T00:06:13.000Z</time>
      </trkpt>
      <trkpt lat="41.093077" lon="-6.717165">
        <ele>565.6</ele>
        <time>1970-01-01T00:06:14.000Z</time>
      </trkpt>
      <trkpt lat="41.093063" lon="-6.717171">
        <ele>565.5</ele>
        <time>1970-01-01T00:06:15.000Z</time>
      </trkpt>
      <trkpt lat="41.093048" lon="-6.717172">
        <ele>565.5</ele>
        <time>1970-01-01T00:06:16.000Z</time>
      </trkpt>
      <trkpt lat="41.093034" lon="-6.717169">
        <ele>565.5</ele>
        <time>1970-01-01T00:06:17.000Z</time>
      </trkpt>
      <trkpt lat="41.093021" lon="-6.71716">
        <ele>565.5</ele>
        <time>1970-01-01T00:06:18.000Z</time>
      </trkpt>
      <trkpt lat="41.09301" lon="-6.717146">
        <ele>565.5</ele>
        <time>1970-01-01T00:06:19.000Z</time>
      </trkpt>
      <trkpt lat="41.093002" lon="-6.717128">
        <ele>565.5</ele>
        <time>1970-01-01T00:06:20.000Z</time>
      </trkpt>
      <trkpt lat="41.092994" lon="-6.71711">
        <ele>565.5</ele>
        <time>1970-01-01T00:06:21.000Z</time>
      </trkpt>
      <trkpt lat="41.092986" lon="-6.717095">
        <ele>565.5</ele>
        <time>1970-01-01T00:06:22.000Z</time>
      </trkpt>
      <trkpt lat="41.092975" lon="-6.717083">
        <ele>565.6</ele>
        <time>1970-01-01T00:06:23.000Z</time>
      </trkpt>
      <trkpt lat="41.092962" lon="-6.717077">
        <ele>565.6</ele>
        <time>1970-01-01T00:06:24.000Z</time>
      </trkpt>
      <trkpt lat="41.092948" lon="-6.717076">
        <ele>565.7</ele>
        <time>1970-01-01T00:06:25.000Z</time>
      </trkpt>
      <trkpt lat="41.092936" lon="-6.717079">
        <ele>565.7</ele>
        <time>1970-01-01T00:06:26.000Z</time>
      </trkpt>
      <trkpt lat="41.092924" lon="-6.717086">
        <ele>565.8</ele>
        <time>1970-01-01T00:06:27.000Z</time>
      </trkpt>
      <trkpt lat="41.092914" lon="-6.717096">
        <ele>565.8</ele>
        <time>1970-01-01T00:06:28.000Z</time>
      </trkpt>
      <trkpt lat="41.092903" lon="-6.717107">
        <ele>565.9</ele>
        <time>1970-01-01T00:06:29.000Z</time>
      </trkpt>
      <trkpt lat="41.092892" lon="-6.717118">
        <ele>566</ele>
        <time>1970-01-01T00:06:30.000Z</time>
      </trkpt>
      <trkpt lat="41.09288" lon="-6.717127">
        <ele>566.1</ele>
        <time>1970-01-01T00:06:31.000Z</time>
      </trkpt>
      <trkpt lat="41.092867" lon="-6.717136">
        <ele>566.2</ele>
        <time>1970-01-01T00:06:32.000Z</time>
      </trkpt>
      <trkpt lat="41.092853" lon="-6.717145">
        <ele>566.3</ele>
        <time>1970-01-01T00:06:33.000Z</time>
      </trkpt>
      <trkpt lat="41.092837" lon="-6.717156">
        <ele>566.4</ele>
        <time>1970-01-01T00:06:34.000Z</time>
      </trkpt>
      <trkpt lat="41.09282" lon="-6.717167">
        <ele>566.5</ele>
        <time>1970-01-01T00:06:35.000Z</time>
      </trkpt>
      <trkpt lat="41.092802" lon="-6.717179">
        <ele>566.6</ele>
        <time>1970-01-01T00:06:36.000Z</time>
      </trkpt>
      <trkpt lat="41.092784" lon="-6.717191">
        <ele>566.8</ele>
        <time>1970-01-01T00:06:37.000Z</time>
      </trkpt>
      <trkpt lat="41.092765" lon="-6.717201">
        <ele>566.9</ele>
        <time>1970-01-01T00:06:38.000Z</time>
      </trkpt>
      <trkpt lat="41.092747" lon="-6.717211">
        <ele>567</ele>
        <time>1970-01-01T00:06:39.000Z</time>
      </trkpt>
      <trkpt lat="41.092729" lon="-6.717219">
        <ele>567.1</ele>
        <time>1970-01-01T00:06:40.000Z</time>
      </trkpt>
      <trkpt lat="41.09271" lon="-6.717227">
        <ele>567.2</ele>
        <time>1970-01-01T00:06:41.000Z</time>
      </trkpt>
      <trkpt lat="41.092692" lon="-6.717236">
        <ele>567.3</ele>
        <time>1970-01-01T00:06:42.000Z</time>
      </trkpt>
      <trkpt lat="41.092675" lon="-6.717244">
        <ele>567.4</ele>
        <time>1970-01-01T00:06:43.000Z</time>
      </trkpt>
      <trkpt lat="41.092657" lon="-6.717253">
        <ele>567.5</ele>
        <time>1970-01-01T00:06:44.000Z</time>
      </trkpt>
      <trkpt lat="41.092637" lon="-6.717262">
        <ele>567.6</ele>
        <time>1970-01-01T00:06:45.000Z</time>
      </trkpt>
      <trkpt lat="41.092619" lon="-6.717274">
        <ele>567.7</ele>
        <time>1970-01-01T00:06:46.000Z</time>
      </trkpt>
      <trkpt lat="41.0926" lon="-6.717286">
        <ele>567.7</ele>
        <time>1970-01-01T00:06:47.000Z</time>
      </trkpt>
      <trkpt lat="41.092579" lon="-6.717299">
        <ele>567.8</ele>
        <time>1970-01-01T00:06:48.000Z</time>
      </trkpt>
      <trkpt lat="41.092556" lon="-6.717313">
        <ele>567.8</ele>
        <time>1970-01-01T00:06:49.000Z</time>
      </trkpt>
      <trkpt lat="41.092531" lon="-6.717326">
        <ele>567.9</ele>
        <time>1970-01-01T00:06:50.000Z</time>
      </trkpt>
      <trkpt lat="41.092505" lon="-6.717337">
        <ele>567.9</ele>
        <time>1970-01-01T00:06:51.000Z</time>
      </trkpt>
      <trkpt lat="41.092477" lon="-6.717346">
        <ele>568</ele>
        <time>1970-01-01T00:06:52.000Z</time>
      </trkpt>
      <trkpt lat="41.092449" lon="-6.717354">
        <ele>568</ele>
        <time>1970-01-01T00:06:53.000Z</time>
      </trkpt>
      <trkpt lat="41.092421" lon="-6.717361">
        <ele>568</ele>
        <time>1970-01-01T00:06:54.000Z</time>
      </trkpt>
      <trkpt lat="41.092393" lon="-6.717369">
        <ele>568.1</ele>
        <time>1970-01-01T00:06:55.000Z</time>
      </trkpt>
      <trkpt lat="41.092365" lon="-6.717377">
        <ele>568.1</ele>
        <time>1970-01-01T00:06:56.000Z</time>
      </trkpt>
      <trkpt lat="41.092337" lon="-6.717384">
        <ele>568.2</ele>
        <time>1970-01-01T00:06:57.000Z</time>
      </trkpt>
      <trkpt lat="41.092309" lon="-6.717391">
        <ele>568.3</ele>
        <time>1970-01-01T00:06:58.000Z</time>
      </trkpt>
      <trkpt lat="41.09228" lon="-6.717397">
        <ele>568.4</ele>
        <time>1970-01-01T00:06:59.000Z</time>
      </trkpt>
      <trkpt lat="41.092251" lon="-6.717403">
        <ele>568.6</ele>
        <time>1970-01-01T00:07:00.000Z</time>
      </trkpt>
      <trkpt lat="41.092221" lon="-6.717409">
        <ele>568.7</ele>
        <time>1970-01-01T00:07:01.000Z</time>
      </trkpt>
      <trkpt lat="41.092192" lon="-6.717416">
        <ele>568.8</ele>
        <time>1970-01-01T00:07:02.000Z</time>
      </trkpt>
      <trkpt lat="41.092165" lon="-6.717425">
        <ele>569</ele>
        <time>1970-01-01T00:07:03.000Z</time>
      </trkpt>
      <trkpt lat="41.092139" lon="-6.717434">
        <ele>569.1</ele>
        <time>1970-01-01T00:07:04.000Z</time>
      </trkpt>
      <trkpt lat="41.092115" lon="-6.717442">
        <ele>569.2</ele>
        <time>1970-01-01T00:07:05.000Z</time>
      </trkpt>
      <trkpt lat="41.092091" lon="-6.717448">
        <ele>569.4</ele>
        <time>1970-01-01T00:07:06.000Z</time>
      </trkpt>
      <trkpt lat="41.092069" lon="-6.717454">
        <ele>569.5</ele>
        <time>1970-01-01T00:07:07.000Z</time>
      </trkpt>
      <trkpt lat="41.092048" lon="-6.717463">
        <ele>569.6</ele>
        <time>1970-01-01T00:07:08.000Z</time>
      </trkpt>
      <trkpt lat="41.092028" lon="-6.717474">
        <ele>569.7</ele>
        <time>1970-01-01T00:07:09.000Z</time>
      </trkpt>
      <trkpt lat="41.092009" lon="-6.717487">
        <ele>569.8</ele>
        <time>1970-01-01T00:07:10.000Z</time>
      </trkpt>
      <trkpt lat="41.091991" lon="-6.717502">
        <ele>570</ele>
        <time>1970-01-01T00:07:11.000Z</time>
      </trkpt>
      <trkpt lat="41.091973" lon="-6.717517">
        <ele>570.1</ele>
        <time>1970-01-01T00:07:12.000Z</time>
      </trkpt>
      <trkpt lat="41.091955" lon="-6.717533">
        <ele>570.3</ele>
        <time>1970-01-01T00:07:13.000Z</time>
      </trkpt>
      <trkpt lat="41.091939" lon="-6.717549">
        <ele>570.4</ele>
        <time>1970-01-01T00:07:14.000Z</time>
      </trkpt>
      <trkpt lat="41.091923" lon="-6.717566">
        <ele>570.5</ele>
        <time>1970-01-01T00:07:15.000Z</time>
      </trkpt>
      <trkpt lat="41.09191" lon="-6.717581">
        <ele>570.6</ele>
        <time>1970-01-01T00:07:16.000Z</time>
      </trkpt>
      <trkpt lat="41.091898" lon="-6.717594">
        <ele>570.7</ele>
        <time>1970-01-01T00:07:17.000Z</time>
      </trkpt>
      <trkpt lat="41.091887" lon="-6.717608">
        <ele>570.8</ele>
        <time>1970-01-01T00:07:18.000Z</time>
      </trkpt>
      <trkpt lat="41.091873" lon="-6.717621">
        <ele>570.8</ele>
        <time>1970-01-01T00:07:19.000Z</time>
      </trkpt>
      <trkpt lat="41.091857" lon="-6.717635">
        <ele>570.9</ele>
        <time>1970-01-01T00:07:20.000Z</time>
      </trkpt>
      <trkpt lat="41.091838" lon="-6.71765">
        <ele>571</ele>
        <time>1970-01-01T00:07:21.000Z</time>
      </trkpt>
      <trkpt lat="41.091817" lon="-6.717667">
        <ele>571</ele>
        <time>1970-01-01T00:07:22.000Z</time>
      </trkpt>
      <trkpt lat="41.091796" lon="-6.717684">
        <ele>571.1</ele>
        <time>1970-01-01T00:07:23.000Z</time>
      </trkpt>
      <trkpt lat="41.091775" lon="-6.717701">
        <ele>571.2</ele>
        <time>1970-01-01T00:07:24.000Z</time>
      </trkpt>
      <trkpt lat="41.091755" lon="-6.717716">
        <ele>571.3</ele>
        <time>1970-01-01T00:07:25.000Z</time>
      </trkpt>
      <trkpt lat="41.091733" lon="-6.717731">
        <ele>571.4</ele>
        <time>1970-01-01T00:07:26.000Z</time>
      </trkpt>
      <trkpt lat="41.091712" lon="-6.717744">
        <ele>571.5</ele>
        <time>1970-01-01T00:07:27.000Z</time>
      </trkpt>
      <trkpt lat="41.091688" lon="-6.717755">
        <ele>571.6</ele>
        <time>1970-01-01T00:07:28.000Z</time>
      </trkpt>
      <trkpt lat="41.091664" lon="-6.717767">
        <ele>571.7</ele>
        <time>1970-01-01T00:07:29.000Z</time>
      </trkpt>
      <trkpt lat="41.091638" lon="-6.717778">
        <ele>571.8</ele>
        <time>1970-01-01T00:07:30.000Z</time>
      </trkpt>
      <trkpt lat="41.091612" lon="-6.717789">
        <ele>571.8</ele>
        <time>1970-01-01T00:07:31.000Z</time>
      </trkpt>
      <trkpt lat="41.091586" lon="-6.717798">
        <ele>571.9</ele>
        <time>1970-01-01T00:07:32.000Z</time>
      </trkpt>
      <trkpt lat="41.09156" lon="-6.717807">
        <ele>572</ele>
        <time>1970-01-01T00:07:33.000Z</time>
      </trkpt>
      <trkpt lat="41.091533" lon="-6.717818">
        <ele>572.1</ele>
        <time>1970-01-01T00:07:34.000Z</time>
      </trkpt>
      <trkpt lat="41.091505" lon="-6.717829">
        <ele>572.2</ele>
        <time>1970-01-01T00:07:35.000Z</time>
      </trkpt>
      <trkpt lat="41.091477" lon="-6.717839">
        <ele>572.3</ele>
        <time>1970-01-01T00:07:36.000Z</time>
      </trkpt>
      <trkpt lat="41.09145" lon="-6.717849">
        <ele>572.3</ele>
        <time>1970-01-01T00:07:37.000Z</time>
      </trkpt>
      <trkpt lat="41.091422" lon="-6.71786">
        <ele>572.4</ele>
        <time>1970-01-01T00:07:38.000Z</time>
      </trkpt>
      <trkpt lat="41.091394" lon="-6.71787">
        <ele>572.4</ele>
        <time>1970-01-01T00:07:39.000Z</time>
      </trkpt>
      <trkpt lat="41.091365" lon="-6.717881">
        <ele>572.4</ele>
        <time>1970-01-01T00:07:40.000Z</time>
      </trkpt>
      <trkpt lat="41.091338" lon="-6.71789">
        <ele>572.4</ele>
        <time>1970-01-01T00:07:41.000Z</time>
      </trkpt>
      <trkpt lat="41.091311" lon="-6.717898">
        <ele>572.4</ele>
        <time>1970-01-01T00:07:42.000Z</time>
      </trkpt>
      <trkpt lat="41.091282" lon="-6.717907">
        <ele>572.4</ele>
        <time>1970-01-01T00:07:43.000Z</time>
      </trkpt>
      <trkpt lat="41.091253" lon="-6.717916">
        <ele>572.4</ele>
        <time>1970-01-01T00:07:44.000Z</time>
      </trkpt>
      <trkpt lat="41.091224" lon="-6.717927">
        <ele>572.3</ele>
        <time>1970-01-01T00:07:45.000Z</time>
      </trkpt>
      <trkpt lat="41.091194" lon="-6.717936">
        <ele>572.3</ele>
        <time>1970-01-01T00:07:46.000Z</time>
      </trkpt>
      <trkpt lat="41.091165" lon="-6.717946">
        <ele>572.2</ele>
        <time>1970-01-01T00:07:47.000Z</time>
      </trkpt>
      <trkpt lat="41.091135" lon="-6.717953">
        <ele>572.1</ele>
        <time>1970-01-01T00:07:48.000Z</time>
      </trkpt>
      <trkpt lat="41.091105" lon="-6.717962">
        <ele>572.1</ele>
        <time>1970-01-01T00:07:49.000Z</time>
      </trkpt>
      <trkpt lat="41.091072" lon="-6.717971">
        <ele>572</ele>
        <time>1970-01-01T00:07:50.000Z</time>
      </trkpt>
      <trkpt lat="41.091038" lon="-6.717981">
        <ele>572</ele>
        <time>1970-01-01T00:07:51.000Z</time>
      </trkpt>
      <trkpt lat="41.091003" lon="-6.71799">
        <ele>572</ele>
        <time>1970-01-01T00:07:52.000Z</time>
      </trkpt>
      <trkpt lat="41.090966" lon="-6.718">
        <ele>572.1</ele>
        <time>1970-01-01T00:07:53.000Z</time>
      </trkpt>
      <trkpt lat="41.090927" lon="-6.718009">
        <ele>572.2</ele>
        <time>1970-01-01T00:07:54.000Z</time>
      </trkpt>
      <trkpt lat="41.090888" lon="-6.718019">
        <ele>572.3</ele>
        <time>1970-01-01T00:07:55.000Z</time>
      </trkpt>
      <trkpt lat="41.09085" lon="-6.71803">
        <ele>572.4</ele>
        <time>1970-01-01T00:07:56.000Z</time>
      </trkpt>
      <trkpt lat="41.090814" lon="-6.718041">
        <ele>572.5</ele>
        <time>1970-01-01T00:07:57.000Z</time>
      </trkpt>
      <trkpt lat="41.090778" lon="-6.718053">
        <ele>572.6</ele>
        <time>1970-01-01T00:07:58.000Z</time>
      </trkpt>
      <trkpt lat="41.090742" lon="-6.718064">
        <ele>572.8</ele>
        <time>1970-01-01T00:07:59.000Z</time>
      </trkpt>
      <trkpt lat="41.090705" lon="-6.718077">
        <ele>573</ele>
        <time>1970-01-01T00:08:00.000Z</time>
      </trkpt>
      <trkpt lat="41.090668" lon="-6.71809">
        <ele>573.2</ele>
        <time>1970-01-01T00:08:01.000Z</time>
      </trkpt>
      <trkpt lat="41.090632" lon="-6.718104">
        <ele>573.4</ele>
        <time>1970-01-01T00:08:02.000Z</time>
      </trkpt>
      <trkpt lat="41.090599" lon="-6.718117">
        <ele>573.7</ele>
        <time>1970-01-01T00:08:03.000Z</time>
      </trkpt>
      <trkpt lat="41.090568" lon="-6.718131">
        <ele>573.9</ele>
        <time>1970-01-01T00:08:04.000Z</time>
      </trkpt>
      <trkpt lat="41.090541" lon="-6.718144">
        <ele>574.1</ele>
        <time>1970-01-01T00:08:05.000Z</time>
      </trkpt>
      <trkpt lat="41.090516" lon="-6.718156">
        <ele>574.3</ele>
        <time>1970-01-01T00:08:06.000Z</time>
      </trkpt>
      <trkpt lat="41.090492" lon="-6.718169">
        <ele>574.6</ele>
        <time>1970-01-01T00:08:07.000Z</time>
      </trkpt>
      <trkpt lat="41.090469" lon="-6.718183">
        <ele>574.8</ele>
        <time>1970-01-01T00:08:08.000Z</time>
      </trkpt>
      <trkpt lat="41.090446" lon="-6.718198">
        <ele>575.1</ele>
        <time>1970-01-01T00:08:09.000Z</time>
      </trkpt>
      <trkpt lat="41.090424" lon="-6.718216">
        <ele>575.4</ele>
        <time>1970-01-01T00:08:10.000Z</time>
      </trkpt>
      <trkpt lat="41.090402" lon="-6.718234">
        <ele>575.7</ele>
        <time>1970-01-01T00:08:11.000Z</time>
      </trkpt>
      <trkpt lat="41.090381" lon="-6.718254">
        <ele>576</ele>
        <time>1970-01-01T00:08:12.000Z</time>
      </trkpt>
      <trkpt lat="41.09036" lon="-6.718273">
        <ele>576.4</ele>
        <time>1970-01-01T00:08:13.000Z</time>
      </trkpt>
      <trkpt lat="41.09034" lon="-6.718293">
        <ele>576.7</ele>
        <time>1970-01-01T00:08:14.000Z</time>
      </trkpt>
      <trkpt lat="41.090319" lon="-6.718312">
        <ele>577</ele>
        <time>1970-01-01T00:08:15.000Z</time>
      </trkpt>
      <trkpt lat="41.090297" lon="-6.71833">
        <ele>577.3</ele>
        <time>1970-01-01T00:08:16.000Z</time>
      </trkpt>
      <trkpt lat="41.090276" lon="-6.71835">
        <ele>577.7</ele>
        <time>1970-01-01T00:08:17.000Z</time>
      </trkpt>
      <trkpt lat="41.090255" lon="-6.718371">
        <ele>578</ele>
        <time>1970-01-01T00:08:18.000Z</time>
      </trkpt>
      <trkpt lat="41.090234" lon="-6.718392">
        <ele>578.2</ele>
        <time>1970-01-01T00:08:19.000Z</time>
      </trkpt>
      <trkpt lat="41.090212" lon="-6.718414">
        <ele>578.5</ele>
        <time>1970-01-01T00:08:20.000Z</time>
      </trkpt>
      <trkpt lat="41.090191" lon="-6.718435">
        <ele>578.6</ele>
        <time>1970-01-01T00:08:21.000Z</time>
      </trkpt>
      <trkpt lat="41.090169" lon="-6.718456">
        <ele>578.8</ele>
        <time>1970-01-01T00:08:22.000Z</time>
      </trkpt>
      <trkpt lat="41.090148" lon="-6.718476">
        <ele>578.9</ele>
        <time>1970-01-01T00:08:23.000Z</time>
      </trkpt>
      <trkpt lat="41.090128" lon="-6.718494">
        <ele>579</ele>
        <time>1970-01-01T00:08:24.000Z</time>
      </trkpt>
      <trkpt lat="41.090108" lon="-6.71851">
        <ele>579</ele>
        <time>1970-01-01T00:08:25.000Z</time>
      </trkpt>
      <trkpt lat="41.090089" lon="-6.718527">
        <ele>579.1</ele>
        <time>1970-01-01T00:08:26.000Z</time>
      </trkpt>
      <trkpt lat="41.09007" lon="-6.718544">
        <ele>579.1</ele>
        <time>1970-01-01T00:08:27.000Z</time>
      </trkpt>
      <trkpt lat="41.090054" lon="-6.718562">
        <ele>579.1</ele>
        <time>1970-01-01T00:08:28.000Z</time>
      </trkpt>
      <trkpt lat="41.090037" lon="-6.71858">
        <ele>579.1</ele>
        <time>1970-01-01T00:08:29.000Z</time>
      </trkpt>
      <trkpt lat="41.090019" lon="-6.718598">
        <ele>579.1</ele>
        <time>1970-01-01T00:08:30.000Z</time>
      </trkpt>
      <trkpt lat="41.09" lon="-6.718615">
        <ele>579</ele>
        <time>1970-01-01T00:08:31.000Z</time>
      </trkpt>
      <trkpt lat="41.089977" lon="-6.718634">
        <ele>578.9</ele>
        <time>1970-01-01T00:08:32.000Z</time>
      </trkpt>
      <trkpt lat="41.089952" lon="-6.718655">
        <ele>578.7</ele>
        <time>1970-01-01T00:08:33.000Z</time>
      </trkpt>
      <trkpt lat="41.089925" lon="-6.718678">
        <ele>578.5</ele>
        <time>1970-01-01T00:08:34.000Z</time>
      </trkpt>
      <trkpt lat="41.089896" lon="-6.718703">
        <ele>578.2</ele>
        <time>1970-01-01T00:08:35.000Z</time>
      </trkpt>
      <trkpt lat="41.089863" lon="-6.71873">
        <ele>577.9</ele>
        <time>1970-01-01T00:08:36.000Z</time>
      </trkpt>
      <trkpt lat="41.089826" lon="-6.718762">
        <ele>577.5</ele>
        <time>1970-01-01T00:08:37.000Z</time>
      </trkpt>
      <trkpt lat="41.089785" lon="-6.718797">
        <ele>577</ele>
        <time>1970-01-01T00:08:38.000Z</time>
      </trkpt>
      <trkpt lat="41.089739" lon="-6.718837">
        <ele>576.5</ele>
        <time>1970-01-01T00:08:39.000Z</time>
      </trkpt>
      <trkpt lat="41.08969" lon="-6.718882">
        <ele>576</ele>
        <time>1970-01-01T00:08:40.000Z</time>
      </trkpt>
      <trkpt lat="41.089636" lon="-6.718932">
        <ele>575.4</ele>
        <time>1970-01-01T00:08:41.000Z</time>
      </trkpt>
      <trkpt lat="41.089579" lon="-6.71899">
        <ele>574.9</ele>
        <time>1970-01-01T00:08:42.000Z</time>
      </trkpt>
      <trkpt lat="41.089516" lon="-6.719055">
        <ele>574.3</ele>
        <time>1970-01-01T00:08:43.000Z</time>
      </trkpt>
      <trkpt lat="41.089449" lon="-6.719124">
        <ele>573.3</ele>
        <time>1970-01-01T00:08:44.000Z</time>
      </trkpt>
      <trkpt lat="41.08938" lon="-6.719196">
        <ele>571.9</ele>
        <time>1970-01-01T00:08:45.000Z</time>
      </trkpt>
      <trkpt lat="41.089307" lon="-6.719267">
        <ele>570.5</ele>
        <time>1970-01-01T00:08:46.000Z</time>
      </trkpt>
      <trkpt lat="41.089231" lon="-6.719339">
        <ele>569</ele>
        <time>1970-01-01T00:08:47.000Z</time>
      </trkpt>
      <trkpt lat="41.089153" lon="-6.719412">
        <ele>567.9</ele>
        <time>1970-01-01T00:08:48.000Z</time>
      </trkpt>
      <trkpt lat="41.089073" lon="-6.719487">
        <ele>567</ele>
        <time>1970-01-01T00:08:49.000Z</time>
      </trkpt>
      <trkpt lat="41.088994" lon="-6.719564">
        <ele>566.2</ele>
        <time>1970-01-01T00:08:50.000Z</time>
      </trkpt>
      <trkpt lat="41.088915" lon="-6.719644">
        <ele>565.5</ele>
        <time>1970-01-01T00:08:51.000Z</time>
      </trkpt>
      <trkpt lat="41.088839" lon="-6.719721">
        <ele>564.9</ele>
        <time>1970-01-01T00:08:52.000Z</time>
      </trkpt>
      <trkpt lat="41.088767" lon="-6.719793">
        <ele>564.7</ele>
        <time>1970-01-01T00:08:53.000Z</time>
      </trkpt>
      <trkpt lat="41.088704" lon="-6.719863">
        <ele>564.7</ele>
        <time>1970-01-01T00:08:54.000Z</time>
      </trkpt>
      <trkpt lat="41.088658" lon="-6.719939">
        <ele>564.8</ele>
        <time>1970-01-01T00:08:55.000Z</time>
      </trkpt>
      <trkpt lat="41.088635" lon="-6.720022">
        <ele>565</ele>
        <time>1970-01-01T00:08:56.000Z</time>
      </trkpt>
      <trkpt lat="41.088635" lon="-6.72011">
        <ele>565.2</ele>
        <time>1970-01-01T00:08:57.000Z</time>
      </trkpt>
      <trkpt lat="41.08864" lon="-6.720195">
        <ele>565.6</ele>
        <time>1970-01-01T00:08:58.000Z</time>
      </trkpt>
      <trkpt lat="41.088642" lon="-6.720271">
        <ele>566</ele>
        <time>1970-01-01T00:08:59.000Z</time>
      </trkpt>
      <trkpt lat="41.088636" lon="-6.720336">
        <ele>566.5</ele>
        <time>1970-01-01T00:09:00.000Z</time>
      </trkpt>
      <trkpt lat="41.088627" lon="-6.720388">
        <ele>566.9</ele>
        <time>1970-01-01T00:09:01.000Z</time>
      </trkpt>
      <trkpt lat="41.088616" lon="-6.720431">
        <ele>567.2</ele>
        <time>1970-01-01T00:09:02.000Z</time>
      </trkpt>
      <trkpt lat="41.088603" lon="-6.720468">
        <ele>567.6</ele>
        <time>1970-01-01T00:09:03.000Z</time>
      </trkpt>
      <trkpt lat="41.08859" lon="-6.720503">
        <ele>567.9</ele>
        <time>1970-01-01T00:09:04.000Z</time>
      </trkpt>
      <trkpt lat="41.088575" lon="-6.720533">
        <ele>568.3</ele>
        <time>1970-01-01T00:09:05.000Z</time>
      </trkpt>
      <trkpt lat="41.088557" lon="-6.72056">
        <ele>568.7</ele>
        <time>1970-01-01T00:09:06.000Z</time>
      </trkpt>
      <trkpt lat="41.088536" lon="-6.720581">
        <ele>569.1</ele>
        <time>1970-01-01T00:09:07.000Z</time>
      </trkpt>
      <trkpt lat="41.088515" lon="-6.7206">
        <ele>569.5</ele>
        <time>1970-01-01T00:09:08.000Z</time>
      </trkpt>
      <trkpt lat="41.088494" lon="-6.720618">
        <ele>569.9</ele>
        <time>1970-01-01T00:09:09.000Z</time>
      </trkpt>
      <trkpt lat="41.088472" lon="-6.720634">
        <ele>570.3</ele>
        <time>1970-01-01T00:09:10.000Z</time>
      </trkpt>
      <trkpt lat="41.088451" lon="-6.720646">
        <ele>570.6</ele>
        <time>1970-01-01T00:09:11.000Z</time>
      </trkpt>
      <trkpt lat="41.088428" lon="-6.720659">
        <ele>571</ele>
        <time>1970-01-01T00:09:12.000Z</time>
      </trkpt>
      <trkpt lat="41.088403" lon="-6.72067">
        <ele>571.4</ele>
        <time>1970-01-01T00:09:13.000Z</time>
      </trkpt>
      <trkpt lat="41.088377" lon="-6.720681">
        <ele>571.8</ele>
        <time>1970-01-01T00:09:14.000Z</time>
      </trkpt>
      <trkpt lat="41.088351" lon="-6.72069">
        <ele>572.2</ele>
        <time>1970-01-01T00:09:15.000Z</time>
      </trkpt>
      <trkpt lat="41.088324" lon="-6.7207">
        <ele>572.5</ele>
        <time>1970-01-01T00:09:16.000Z</time>
      </trkpt>
      <trkpt lat="41.088297" lon="-6.720709">
        <ele>572.8</ele>
        <time>1970-01-01T00:09:17.000Z</time>
      </trkpt>
      <trkpt lat="41.08827" lon="-6.720718">
        <ele>573</ele>
        <time>1970-01-01T00:09:18.000Z</time>
      </trkpt>
      <trkpt lat="41.088243" lon="-6.720727">
        <ele>573.3</ele>
        <time>1970-01-01T00:09:19.000Z</time>
      </trkpt>
      <trkpt lat="41.088216" lon="-6.720737">
        <ele>573.6</ele>
        <time>1970-01-01T00:09:20.000Z</time>
      </trkpt>
      <trkpt lat="41.088187" lon="-6.720749">
        <ele>573.9</ele>
        <time>1970-01-01T00:09:21.000Z</time>
      </trkpt>
      <trkpt lat="41.088158" lon="-6.720759">
        <ele>574.2</ele>
        <time>1970-01-01T00:09:22.000Z</time>
      </trkpt>
      <trkpt lat="41.088128" lon="-6.720769">
        <ele>574.5</ele>
        <time>1970-01-01T00:09:23.000Z</time>
      </trkpt>
      <trkpt lat="41.0881" lon="-6.720778">
        <ele>574.8</ele>
        <time>1970-01-01T00:09:24.000Z</time>
      </trkpt>
      <trkpt lat="41.08807" lon="-6.720787">
        <ele>575.1</ele>
        <time>1970-01-01T00:09:25.000Z</time>
      </trkpt>
      <trkpt lat="41.088041" lon="-6.720797">
        <ele>575.3</ele>
        <time>1970-01-01T00:09:26.000Z</time>
      </trkpt>
      <trkpt lat="41.088012" lon="-6.720808">
        <ele>575.6</ele>
        <time>1970-01-01T00:09:27.000Z</time>
      </trkpt>
      <trkpt lat="41.087983" lon="-6.72082">
        <ele>575.8</ele>
        <time>1970-01-01T00:09:28.000Z</time>
      </trkpt>
      <trkpt lat="41.087954" lon="-6.720831">
        <ele>576.1</ele>
        <time>1970-01-01T00:09:29.000Z</time>
      </trkpt>
      <trkpt lat="41.087925" lon="-6.720841">
        <ele>576.4</ele>
        <time>1970-01-01T00:09:30.000Z</time>
      </trkpt>
      <trkpt lat="41.087896" lon="-6.72085">
        <ele>576.6</ele>
        <time>1970-01-01T00:09:31.000Z</time>
      </trkpt>
      <trkpt lat="41.087865" lon="-6.720858">
        <ele>576.9</ele>
        <time>1970-01-01T00:09:32.000Z</time>
      </trkpt>
      <trkpt lat="41.087835" lon="-6.720866">
        <ele>577.1</ele>
        <time>1970-01-01T00:09:33.000Z</time>
      </trkpt>
      <trkpt lat="41.087806" lon="-6.720875">
        <ele>577.3</ele>
        <time>1970-01-01T00:09:34.000Z</time>
      </trkpt>
      <trkpt lat="41.087777" lon="-6.720883">
        <ele>577.5</ele>
        <time>1970-01-01T00:09:35.000Z</time>
      </trkpt>
      <trkpt lat="41.087748" lon="-6.72089">
        <ele>577.6</ele>
        <time>1970-01-01T00:09:36.000Z</time>
      </trkpt>
      <trkpt lat="41.087719" lon="-6.720898">
        <ele>577.7</ele>
        <time>1970-01-01T00:09:37.000Z</time>
      </trkpt>
      <trkpt lat="41.087691" lon="-6.720905">
        <ele>577.8</ele>
        <time>1970-01-01T00:09:38.000Z</time>
      </trkpt>
      <trkpt lat="41.087663" lon="-6.720913">
        <ele>577.9</ele>
        <time>1970-01-01T00:09:39.000Z</time>
      </trkpt>
      <trkpt lat="41.087635" lon="-6.720921">
        <ele>578</ele>
        <time>1970-01-01T00:09:40.000Z</time>
      </trkpt>
      <trkpt lat="41.087607" lon="-6.720929">
        <ele>578</ele>
        <time>1970-01-01T00:09:41.000Z</time>
      </trkpt>
      <trkpt lat="41.08758" lon="-6.720938">
        <ele>578.1</ele>
        <time>1970-01-01T00:09:42.000Z</time>
      </trkpt>
      <trkpt lat="41.087554" lon="-6.720948">
        <ele>578.2</ele>
        <time>1970-01-01T00:09:43.000Z</time>
      </trkpt>
      <trkpt lat="41.087528" lon="-6.720959">
        <ele>578.3</ele>
        <time>1970-01-01T00:09:44.000Z</time>
      </trkpt>
      <trkpt lat="41.087501" lon="-6.720969">
        <ele>578.4</ele>
        <time>1970-01-01T00:09:45.000Z</time>
      </trkpt>
      <trkpt lat="41.087473" lon="-6.720978">
        <ele>578.5</ele>
        <time>1970-01-01T00:09:46.000Z</time>
      </trkpt>
      <trkpt lat="41.087447" lon="-6.720989">
        <ele>578.7</ele>
        <time>1970-01-01T00:09:47.000Z</time>
      </trkpt>
      <trkpt lat="41.087418" lon="-6.721001">
        <ele>578.8</ele>
        <time>1970-01-01T00:09:48.000Z</time>
      </trkpt>
      <trkpt lat="41.087388" lon="-6.721013">
        <ele>579</ele>
        <time>1970-01-01T00:09:49.000Z</time>
      </trkpt>
      <trkpt lat="41.087358" lon="-6.721024">
        <ele>579.3</ele>
        <time>1970-01-01T00:09:50.000Z</time>
      </trkpt>
      <trkpt lat="41.087329" lon="-6.721036">
        <ele>579.5</ele>
        <time>1970-01-01T00:09:51.000Z</time>
      </trkpt>
      <trkpt lat="41.087302" lon="-6.721048">
        <ele>579.6</ele>
        <time>1970-01-01T00:09:52.000Z</time>
      </trkpt>
      <trkpt lat="41.087276" lon="-6.72106">
        <ele>579.8</ele>
        <time>1970-01-01T00:09:53.000Z</time>
      </trkpt>
      <trkpt lat="41.087248" lon="-6.721072">
        <ele>580</ele>
        <time>1970-01-01T00:09:54.000Z</time>
      </trkpt>
      <trkpt lat="41.087221" lon="-6.721086">
        <ele>580.1</ele>
        <time>1970-01-01T00:09:55.000Z</time>
      </trkpt>
      <trkpt lat="41.087193" lon="-6.721101">
        <ele>580.3</ele>
        <time>1970-01-01T00:09:56.000Z</time>
      </trkpt>
      <trkpt lat="41.087166" lon="-6.721116">
        <ele>580.4</ele>
        <time>1970-01-01T00:09:57.000Z</time>
      </trkpt>
      <trkpt lat="41.087139" lon="-6.721131">
        <ele>580.5</ele>
        <time>1970-01-01T00:09:58.000Z</time>
      </trkpt>
      <trkpt lat="41.087112" lon="-6.721146">
        <ele>580.6</ele>
        <time>1970-01-01T00:09:59.000Z</time>
      </trkpt>
      <trkpt lat="41.087085" lon="-6.721162">
        <ele>580.7</ele>
        <time>1970-01-01T00:10:00.000Z</time>
      </trkpt>
      <trkpt lat="41.087058" lon="-6.721177">
        <ele>580.8</ele>
        <time>1970-01-01T00:10:01.000Z</time>
      </trkpt>
      <trkpt lat="41.087029" lon="-6.721191">
        <ele>580.9</ele>
        <time>1970-01-01T00:10:02.000Z</time>
      </trkpt>
      <trkpt lat="41.086999" lon="-6.721202">
        <ele>581.1</ele>
        <time>1970-01-01T00:10:03.000Z</time>
      </trkpt>
      <trkpt lat="41.086969" lon="-6.721214">
        <ele>581.3</ele>
        <time>1970-01-01T00:10:04.000Z</time>
      </trkpt>
      <trkpt lat="41.086939" lon="-6.721224">
        <ele>581.5</ele>
        <time>1970-01-01T00:10:05.000Z</time>
      </trkpt>
      <trkpt lat="41.086909" lon="-6.721235">
        <ele>581.7</ele>
        <time>1970-01-01T00:10:06.000Z</time>
      </trkpt>
      <trkpt lat="41.086881" lon="-6.721245">
        <ele>581.8</ele>
        <time>1970-01-01T00:10:07.000Z</time>
      </trkpt>
      <trkpt lat="41.086851" lon="-6.721256">
        <ele>582</ele>
        <time>1970-01-01T00:10:08.000Z</time>
      </trkpt>
      <trkpt lat="41.086823" lon="-6.721266">
        <ele>582.2</ele>
        <time>1970-01-01T00:10:09.000Z</time>
      </trkpt>
      <trkpt lat="41.086795" lon="-6.721275">
        <ele>582.4</ele>
        <time>1970-01-01T00:10:10.000Z</time>
      </trkpt>
      <trkpt lat="41.086767" lon="-6.721283">
        <ele>582.6</ele>
        <time>1970-01-01T00:10:11.000Z</time>
      </trkpt>
      <trkpt lat="41.086739" lon="-6.721291">
        <ele>582.8</ele>
        <time>1970-01-01T00:10:12.000Z</time>
      </trkpt>
      <trkpt lat="41.086711" lon="-6.7213">
        <ele>583</ele>
        <time>1970-01-01T00:10:13.000Z</time>
      </trkpt>
      <trkpt lat="41.086685" lon="-6.721311">
        <ele>583.2</ele>
        <time>1970-01-01T00:10:14.000Z</time>
      </trkpt>
      <trkpt lat="41.086659" lon="-6.721323">
        <ele>583.4</ele>
        <time>1970-01-01T00:10:15.000Z</time>
      </trkpt>
      <trkpt lat="41.086633" lon="-6.721337">
        <ele>583.6</ele>
        <time>1970-01-01T00:10:16.000Z</time>
      </trkpt>
      <trkpt lat="41.086607" lon="-6.721352">
        <ele>583.8</ele>
        <time>1970-01-01T00:10:17.000Z</time>
      </trkpt>
      <trkpt lat="41.086581" lon="-6.721369">
        <ele>583.9</ele>
        <time>1970-01-01T00:10:18.000Z</time>
      </trkpt>
      <trkpt lat="41.086555" lon="-6.721387">
        <ele>584.1</ele>
        <time>1970-01-01T00:10:19.000Z</time>
      </trkpt>
      <trkpt lat="41.08653" lon="-6.721405">
        <ele>584.3</ele>
        <time>1970-01-01T00:10:20.000Z</time>
      </trkpt>
      <trkpt lat="41.086505" lon="-6.721422">
        <ele>584.4</ele>
        <time>1970-01-01T00:10:21.000Z</time>
      </trkpt>
      <trkpt lat="41.086479" lon="-6.721441">
        <ele>584.6</ele>
        <time>1970-01-01T00:10:22.000Z</time>
      </trkpt>
      <trkpt lat="41.086454" lon="-6.721461">
        <ele>584.8</ele>
        <time>1970-01-01T00:10:23.000Z</time>
      </trkpt>
      <trkpt lat="41.086429" lon="-6.721482">
        <ele>585</ele>
        <time>1970-01-01T00:10:24.000Z</time>
      </trkpt>
      <trkpt lat="41.086404" lon="-6.721502">
        <ele>585.2</ele>
        <time>1970-01-01T00:10:25.000Z</time>
      </trkpt>
      <trkpt lat="41.086379" lon="-6.721521">
        <ele>585.4</ele>
        <time>1970-01-01T00:10:26.000Z</time>
      </trkpt>
      <trkpt lat="41.086354" lon="-6.72154">
        <ele>585.6</ele>
        <time>1970-01-01T00:10:27.000Z</time>
      </trkpt>
      <trkpt lat="41.08633" lon="-6.72156">
        <ele>585.8</ele>
        <time>1970-01-01T00:10:28.000Z</time>
      </trkpt>
      <trkpt lat="41.086307" lon="-6.72158">
        <ele>586</ele>
        <time>1970-01-01T00:10:29.000Z</time>
      </trkpt>
      <trkpt lat="41.086284" lon="-6.721599">
        <ele>586.2</ele>
        <time>1970-01-01T00:10:30.000Z</time>
      </trkpt>
      <trkpt lat="41.08626" lon="-6.721617">
        <ele>586.4</ele>
        <time>1970-01-01T00:10:31.000Z</time>
      </trkpt>
      <trkpt lat="41.086236" lon="-6.721635">
        <ele>586.6</ele>
        <time>1970-01-01T00:10:32.000Z</time>
      </trkpt>
      <trkpt lat="41.086213" lon="-6.721653">
        <ele>586.8</ele>
        <time>1970-01-01T00:10:33.000Z</time>
      </trkpt>
      <trkpt lat="41.086188" lon="-6.72167">
        <ele>587</ele>
        <time>1970-01-01T00:10:34.000Z</time>
      </trkpt>
      <trkpt lat="41.086164" lon="-6.721688">
        <ele>587.2</ele>
        <time>1970-01-01T00:10:35.000Z</time>
      </trkpt>
      <trkpt lat="41.086139" lon="-6.721705">
        <ele>587.5</ele>
        <time>1970-01-01T00:10:36.000Z</time>
      </trkpt>
      <trkpt lat="41.086116" lon="-6.721723">
        <ele>587.7</ele>
        <time>1970-01-01T00:10:37.000Z</time>
      </trkpt>
      <trkpt lat="41.086093" lon="-6.721739">
        <ele>587.8</ele>
        <time>1970-01-01T00:10:38.000Z</time>
      </trkpt>
      <trkpt lat="41.086069" lon="-6.721755">
        <ele>588</ele>
        <time>1970-01-01T00:10:39.000Z</time>
      </trkpt>
      <trkpt lat="41.086045" lon="-6.721772">
        <ele>588.2</ele>
        <time>1970-01-01T00:10:40.000Z</time>
      </trkpt>
      <trkpt lat="41.086021" lon="-6.721788">
        <ele>588.4</ele>
        <time>1970-01-01T00:10:41.000Z</time>
      </trkpt>
      <trkpt lat="41.085996" lon="-6.721805">
        <ele>588.6</ele>
        <time>1970-01-01T00:10:42.000Z</time>
      </trkpt>
      <trkpt lat="41.085971" lon="-6.721822">
        <ele>588.7</ele>
        <time>1970-01-01T00:10:43.000Z</time>
      </trkpt>
      <trkpt lat="41.085947" lon="-6.72184">
        <ele>588.8</ele>
        <time>1970-01-01T00:10:44.000Z</time>
      </trkpt>
      <trkpt lat="41.085922" lon="-6.721859">
        <ele>589</ele>
        <time>1970-01-01T00:10:45.000Z</time>
      </trkpt>
      <trkpt lat="41.085899" lon="-6.721878">
        <ele>589.2</ele>
        <time>1970-01-01T00:10:46.000Z</time>
      </trkpt>
      <trkpt lat="41.085876" lon="-6.721898">
        <ele>589.3</ele>
        <time>1970-01-01T00:10:47.000Z</time>
      </trkpt>
      <trkpt lat="41.085854" lon="-6.721918">
        <ele>589.5</ele>
        <time>1970-01-01T00:10:48.000Z</time>
      </trkpt>
      <trkpt lat="41.085831" lon="-6.721939">
        <ele>589.8</ele>
        <time>1970-01-01T00:10:49.000Z</time>
      </trkpt>
      <trkpt lat="41.085809" lon="-6.721961">
        <ele>590</ele>
        <time>1970-01-01T00:10:50.000Z</time>
      </trkpt>
      <trkpt lat="41.085786" lon="-6.721982">
        <ele>590.3</ele>
        <time>1970-01-01T00:10:51.000Z</time>
      </trkpt>
      <trkpt lat="41.085763" lon="-6.722005">
        <ele>590.5</ele>
        <time>1970-01-01T00:10:52.000Z</time>
      </trkpt>
      <trkpt lat="41.085741" lon="-6.722028">
        <ele>590.8</ele>
        <time>1970-01-01T00:10:53.000Z</time>
      </trkpt>
      <trkpt lat="41.085719" lon="-6.722051">
        <ele>591</ele>
        <time>1970-01-01T00:10:54.000Z</time>
      </trkpt>
      <trkpt lat="41.085697" lon="-6.722073">
        <ele>591.2</ele>
        <time>1970-01-01T00:10:55.000Z</time>
      </trkpt>
      <trkpt lat="41.085674" lon="-6.722096">
        <ele>591.4</ele>
        <time>1970-01-01T00:10:56.000Z</time>
      </trkpt>
      <trkpt lat="41.085652" lon="-6.72212">
        <ele>591.7</ele>
        <time>1970-01-01T00:10:57.000Z</time>
      </trkpt>
      <trkpt lat="41.08563" lon="-6.722144">
        <ele>591.9</ele>
        <time>1970-01-01T00:10:58.000Z</time>
      </trkpt>
      <trkpt lat="41.085609" lon="-6.722167">
        <ele>592.1</ele>
        <time>1970-01-01T00:10:59.000Z</time>
      </trkpt>
      <trkpt lat="41.085588" lon="-6.722191">
        <ele>592.3</ele>
        <time>1970-01-01T00:11:00.000Z</time>
      </trkpt>
      <trkpt lat="41.085567" lon="-6.722214">
        <ele>592.5</ele>
        <time>1970-01-01T00:11:01.000Z</time>
      </trkpt>
      <trkpt lat="41.085546" lon="-6.722236">
        <ele>592.7</ele>
        <time>1970-01-01T00:11:02.000Z</time>
      </trkpt>
      <trkpt lat="41.085524" lon="-6.722259">
        <ele>592.9</ele>
        <time>1970-01-01T00:11:03.000Z</time>
      </trkpt>
      <trkpt lat="41.085503" lon="-6.722283">
        <ele>593.1</ele>
        <time>1970-01-01T00:11:04.000Z</time>
      </trkpt>
      <trkpt lat="41.085483" lon="-6.722308">
        <ele>593.3</ele>
        <time>1970-01-01T00:11:05.000Z</time>
      </trkpt>
      <trkpt lat="41.085462" lon="-6.722332">
        <ele>593.5</ele>
        <time>1970-01-01T00:11:06.000Z</time>
      </trkpt>
      <trkpt lat="41.085441" lon="-6.722355">
        <ele>593.7</ele>
        <time>1970-01-01T00:11:07.000Z</time>
      </trkpt>
      <trkpt lat="41.08542" lon="-6.722379">
        <ele>593.9</ele>
        <time>1970-01-01T00:11:08.000Z</time>
      </trkpt>
      <trkpt lat="41.0854" lon="-6.722404">
        <ele>594</ele>
        <time>1970-01-01T00:11:09.000Z</time>
      </trkpt>
      <trkpt lat="41.085379" lon="-6.722429">
        <ele>594.2</ele>
        <time>1970-01-01T00:11:10.000Z</time>
      </trkpt>
      <trkpt lat="41.085358" lon="-6.722453">
        <ele>594.4</ele>
        <time>1970-01-01T00:11:11.000Z</time>
      </trkpt>
      <trkpt lat="41.085338" lon="-6.722479">
        <ele>594.6</ele>
        <time>1970-01-01T00:11:12.000Z</time>
      </trkpt>
      <trkpt lat="41.085318" lon="-6.722505">
        <ele>594.7</ele>
        <time>1970-01-01T00:11:13.000Z</time>
      </trkpt>
      <trkpt lat="41.085298" lon="-6.722532">
        <ele>594.9</ele>
        <time>1970-01-01T00:11:14.000Z</time>
      </trkpt>
      <trkpt lat="41.085277" lon="-6.72256">
        <ele>595</ele>
        <time>1970-01-01T00:11:15.000Z</time>
      </trkpt>
      <trkpt lat="41.085257" lon="-6.722587">
        <ele>595.2</ele>
        <time>1970-01-01T00:11:16.000Z</time>
      </trkpt>
      <trkpt lat="41.085238" lon="-6.722615">
        <ele>595.3</ele>
        <time>1970-01-01T00:11:17.000Z</time>
      </trkpt>
      <trkpt lat="41.085219" lon="-6.722642">
        <ele>595.5</ele>
        <time>1970-01-01T00:11:18.000Z</time>
      </trkpt>
      <trkpt lat="41.085199" lon="-6.722669">
        <ele>595.6</ele>
        <time>1970-01-01T00:11:19.000Z</time>
      </trkpt>
      <trkpt lat="41.085179" lon="-6.722696">
        <ele>595.6</ele>
        <time>1970-01-01T00:11:20.000Z</time>
      </trkpt>
      <trkpt lat="41.08516" lon="-6.722723">
        <ele>595.5</ele>
        <time>1970-01-01T00:11:21.000Z</time>
      </trkpt>
      <trkpt lat="41.085141" lon="-6.72275">
        <ele>595.4</ele>
        <time>1970-01-01T00:11:22.000Z</time>
      </trkpt>
      <trkpt lat="41.085122" lon="-6.722778">
        <ele>595</ele>
        <time>1970-01-01T00:11:23.000Z</time>
      </trkpt>
      <trkpt lat="41.085102" lon="-6.722805">
        <ele>594.6</ele>
        <time>1970-01-01T00:11:24.000Z</time>
      </trkpt>
      <trkpt lat="41.085083" lon="-6.722832">
        <ele>594.1</ele>
        <time>1970-01-01T00:11:25.000Z</time>
      </trkpt>
      <trkpt lat="41.085064" lon="-6.722859">
        <ele>594.1</ele>
        <time>1970-01-01T00:11:26.000Z</time>
      </trkpt>
      <trkpt lat="41.085044" lon="-6.722885">
        <ele>594.1</ele>
        <time>1970-01-01T00:11:27.000Z</time>
      </trkpt>
      <trkpt lat="41.085026" lon="-6.722912">
        <ele>594.1</ele>
        <time>1970-01-01T00:11:28.000Z</time>
      </trkpt>
      <trkpt lat="41.085007" lon="-6.722939">
        <ele>594.2</ele>
        <time>1970-01-01T00:11:29.000Z</time>
      </trkpt>
      <trkpt lat="41.084988" lon="-6.722966">
        <ele>594.3</ele>
        <time>1970-01-01T00:11:30.000Z</time>
      </trkpt>
      <trkpt lat="41.084968" lon="-6.722995">
        <ele>594.3</ele>
        <time>1970-01-01T00:11:31.000Z</time>
      </trkpt>
      <trkpt lat="41.084949" lon="-6.723024">
        <ele>594.4</ele>
        <time>1970-01-01T00:11:32.000Z</time>
      </trkpt>
      <trkpt lat="41.08493" lon="-6.723054">
        <ele>594.5</ele>
        <time>1970-01-01T00:11:33.000Z</time>
      </trkpt>
      <trkpt lat="41.084911" lon="-6.723083">
        <ele>594.6</ele>
        <time>1970-01-01T00:11:34.000Z</time>
      </trkpt>
      <trkpt lat="41.084892" lon="-6.723112">
        <ele>594.7</ele>
        <time>1970-01-01T00:11:35.000Z</time>
      </trkpt>
      <trkpt lat="41.084873" lon="-6.723139">
        <ele>594.8</ele>
        <time>1970-01-01T00:11:36.000Z</time>
      </trkpt>
      <trkpt lat="41.084854" lon="-6.723166">
        <ele>594.9</ele>
        <time>1970-01-01T00:11:37.000Z</time>
      </trkpt>
      <trkpt lat="41.084835" lon="-6.723192">
        <ele>595</ele>
        <time>1970-01-01T00:11:38.000Z</time>
      </trkpt>
      <trkpt lat="41.084816" lon="-6.723219">
        <ele>595.1</ele>
        <time>1970-01-01T00:11:39.000Z</time>
      </trkpt>
      <trkpt lat="41.084796" lon="-6.723247">
        <ele>595.2</ele>
        <time>1970-01-01T00:11:40.000Z</time>
      </trkpt>
      <trkpt lat="41.084775" lon="-6.723274">
        <ele>595.3</ele>
        <time>1970-01-01T00:11:41.000Z</time>
      </trkpt>
      <trkpt lat="41.084754" lon="-6.723301">
        <ele>595.4</ele>
        <time>1970-01-01T00:11:42.000Z</time>
      </trkpt>
      <trkpt lat="41.084735" lon="-6.723329">
        <ele>595.5</ele>
        <time>1970-01-01T00:11:43.000Z</time>
      </trkpt>
      <trkpt lat="41.084715" lon="-6.723359">
        <ele>595.6</ele>
        <time>1970-01-01T00:11:44.000Z</time>
      </trkpt>
      <trkpt lat="41.084696" lon="-6.723387">
        <ele>595.7</ele>
        <time>1970-01-01T00:11:45.000Z</time>
      </trkpt>
      <trkpt lat="41.084676" lon="-6.723414">
        <ele>595.8</ele>
        <time>1970-01-01T00:11:46.000Z</time>
      </trkpt>
      <trkpt lat="41.084656" lon="-6.723441">
        <ele>595.9</ele>
        <time>1970-01-01T00:11:47.000Z</time>
      </trkpt>
      <trkpt lat="41.084636" lon="-6.723468">
        <ele>596</ele>
        <time>1970-01-01T00:11:48.000Z</time>
      </trkpt>
      <trkpt lat="41.084615" lon="-6.723495">
        <ele>596.2</ele>
        <time>1970-01-01T00:11:49.000Z</time>
      </trkpt>
      <trkpt lat="41.084595" lon="-6.723522">
        <ele>596.3</ele>
        <time>1970-01-01T00:11:50.000Z</time>
      </trkpt>
      <trkpt lat="41.084576" lon="-6.723549">
        <ele>596.4</ele>
        <time>1970-01-01T00:11:51.000Z</time>
      </trkpt>
      <trkpt lat="41.084556" lon="-6.723575">
        <ele>596.6</ele>
        <time>1970-01-01T00:11:52.000Z</time>
      </trkpt>
      <trkpt lat="41.084536" lon="-6.723601">
        <ele>596.7</ele>
        <time>1970-01-01T00:11:53.000Z</time>
      </trkpt>
      <trkpt lat="41.084517" lon="-6.723628">
        <ele>596.8</ele>
        <time>1970-01-01T00:11:54.000Z</time>
      </trkpt>
      <trkpt lat="41.084496" lon="-6.723655">
        <ele>597</ele>
        <time>1970-01-01T00:11:55.000Z</time>
      </trkpt>
      <trkpt lat="41.084476" lon="-6.723684">
        <ele>597.1</ele>
        <time>1970-01-01T00:11:56.000Z</time>
      </trkpt>
      <trkpt lat="41.084457" lon="-6.723713">
        <ele>597.2</ele>
        <time>1970-01-01T00:11:57.000Z</time>
      </trkpt>
      <trkpt lat="41.084439" lon="-6.723743">
        <ele>597.4</ele>
        <time>1970-01-01T00:11:58.000Z</time>
      </trkpt>
      <trkpt lat="41.084421" lon="-6.723773">
        <ele>597.5</ele>
        <time>1970-01-01T00:11:59.000Z</time>
      </trkpt>
      <trkpt lat="41.084403" lon="-6.723803">
        <ele>597.6</ele>
        <time>1970-01-01T00:12:00.000Z</time>
      </trkpt>
      <trkpt lat="41.084386" lon="-6.723832">
        <ele>597.7</ele>
        <time>1970-01-01T00:12:01.000Z</time>
      </trkpt>
      <trkpt lat="41.084369" lon="-6.723861">
        <ele>597.8</ele>
        <time>1970-01-01T00:12:02.000Z</time>
      </trkpt>
      <trkpt lat="41.084353" lon="-6.723892">
        <ele>597.9</ele>
        <time>1970-01-01T00:12:03.000Z</time>
      </trkpt>
      <trkpt lat="41.084336" lon="-6.723925">
        <ele>598</ele>
        <time>1970-01-01T00:12:04.000Z</time>
      </trkpt>
      <trkpt lat="41.084319" lon="-6.723961">
        <ele>598.1</ele>
        <time>1970-01-01T00:12:05.000Z</time>
      </trkpt>
      <trkpt lat="41.084302" lon="-6.723997">
        <ele>598.2</ele>
        <time>1970-01-01T00:12:06.000Z</time>
      </trkpt>
      <trkpt lat="41.084286" lon="-6.724032">
        <ele>598.4</ele>
        <time>1970-01-01T00:12:07.000Z</time>
      </trkpt>
      <trkpt lat="41.08427" lon="-6.724064">
        <ele>598.5</ele>
        <time>1970-01-01T00:12:08.000Z</time>
      </trkpt>
      <trkpt lat="41.084254" lon="-6.724096">
        <ele>598.6</ele>
        <time>1970-01-01T00:12:09.000Z</time>
      </trkpt>
      <trkpt lat="41.084239" lon="-6.724127">
        <ele>598.7</ele>
        <time>1970-01-01T00:12:10.000Z</time>
      </trkpt>
      <trkpt lat="41.084224" lon="-6.724157">
        <ele>598.8</ele>
        <time>1970-01-01T00:12:11.000Z</time>
      </trkpt>
      <trkpt lat="41.084209" lon="-6.724186">
        <ele>598.9</ele>
        <time>1970-01-01T00:12:12.000Z</time>
      </trkpt>
      <trkpt lat="41.084192" lon="-6.724216">
        <ele>599</ele>
        <time>1970-01-01T00:12:13.000Z</time>
      </trkpt>
      <trkpt lat="41.084175" lon="-6.724245">
        <ele>599.2</ele>
        <time>1970-01-01T00:12:14.000Z</time>
      </trkpt>
      <trkpt lat="41.084158" lon="-6.724273">
        <ele>599.4</ele>
        <time>1970-01-01T00:12:15.000Z</time>
      </trkpt>
      <trkpt lat="41.084139" lon="-6.724299">
        <ele>599.6</ele>
        <time>1970-01-01T00:12:16.000Z</time>
      </trkpt>
      <trkpt lat="41.08412" lon="-6.724323">
        <ele>599.8</ele>
        <time>1970-01-01T00:12:17.000Z</time>
      </trkpt>
      <trkpt lat="41.084099" lon="-6.724346">
        <ele>600</ele>
        <time>1970-01-01T00:12:18.000Z</time>
      </trkpt>
      <trkpt lat="41.084078" lon="-6.724368">
        <ele>600.2</ele>
        <time>1970-01-01T00:12:19.000Z</time>
      </trkpt>
      <trkpt lat="41.084056" lon="-6.724388">
        <ele>600.4</ele>
        <time>1970-01-01T00:12:20.000Z</time>
      </trkpt>
      <trkpt lat="41.084033" lon="-6.724405">
        <ele>600.7</ele>
        <time>1970-01-01T00:12:21.000Z</time>
      </trkpt>
      <trkpt lat="41.08401" lon="-6.724422">
        <ele>600.9</ele>
        <time>1970-01-01T00:12:22.000Z</time>
      </trkpt>
      <trkpt lat="41.083986" lon="-6.724437">
        <ele>601.1</ele>
        <time>1970-01-01T00:12:23.000Z</time>
      </trkpt>
      <trkpt lat="41.083962" lon="-6.724452">
        <ele>601.3</ele>
        <time>1970-01-01T00:12:24.000Z</time>
      </trkpt>
      <trkpt lat="41.083937" lon="-6.724465">
        <ele>601.6</ele>
        <time>1970-01-01T00:12:25.000Z</time>
      </trkpt>
      <trkpt lat="41.083913" lon="-6.724478">
        <ele>601.8</ele>
        <time>1970-01-01T00:12:26.000Z</time>
      </trkpt>
      <trkpt lat="41.083887" lon="-6.724491">
        <ele>602.1</ele>
        <time>1970-01-01T00:12:27.000Z</time>
      </trkpt>
      <trkpt lat="41.083861" lon="-6.724504">
        <ele>602.4</ele>
        <time>1970-01-01T00:12:28.000Z</time>
      </trkpt>
      <trkpt lat="41.083835" lon="-6.724516">
        <ele>602.6</ele>
        <time>1970-01-01T00:12:29.000Z</time>
      </trkpt>
      <trkpt lat="41.083808" lon="-6.72453">
        <ele>602.9</ele>
        <time>1970-01-01T00:12:30.000Z</time>
      </trkpt>
      <trkpt lat="41.083781" lon="-6.724543">
        <ele>603.2</ele>
        <time>1970-01-01T00:12:31.000Z</time>
      </trkpt>
      <trkpt lat="41.083756" lon="-6.724555">
        <ele>603.4</ele>
        <time>1970-01-01T00:12:32.000Z</time>
      </trkpt>
      <trkpt lat="41.08373" lon="-6.724566">
        <ele>603.7</ele>
        <time>1970-01-01T00:12:33.000Z</time>
      </trkpt>
      <trkpt lat="41.083704" lon="-6.724577">
        <ele>604</ele>
        <time>1970-01-01T00:12:34.000Z</time>
      </trkpt>
      <trkpt lat="41.083678" lon="-6.72459">
        <ele>604.2</ele>
        <time>1970-01-01T00:12:35.000Z</time>
      </trkpt>
      <trkpt lat="41.083653" lon="-6.724606">
        <ele>604.5</ele>
        <time>1970-01-01T00:12:36.000Z</time>
      </trkpt>
      <trkpt lat="41.083628" lon="-6.724621">
        <ele>604.7</ele>
        <time>1970-01-01T00:12:37.000Z</time>
      </trkpt>
      <trkpt lat="41.083602" lon="-6.724636">
        <ele>605</ele>
        <time>1970-01-01T00:12:38.000Z</time>
      </trkpt>
      <trkpt lat="41.083575" lon="-6.724652">
        <ele>605.2</ele>
        <time>1970-01-01T00:12:39.000Z</time>
      </trkpt>
      <trkpt lat="41.083549" lon="-6.724667">
        <ele>605.3</ele>
        <time>1970-01-01T00:12:40.000Z</time>
      </trkpt>
      <trkpt lat="41.083523" lon="-6.724683">
        <ele>605.5</ele>
        <time>1970-01-01T00:12:41.000Z</time>
      </trkpt>
      <trkpt lat="41.083497" lon="-6.724697">
        <ele>605.6</ele>
        <time>1970-01-01T00:12:42.000Z</time>
      </trkpt>
      <trkpt lat="41.08347" lon="-6.724712">
        <ele>605.8</ele>
        <time>1970-01-01T00:12:43.000Z</time>
      </trkpt>
      <trkpt lat="41.083443" lon="-6.724726">
        <ele>605.9</ele>
        <time>1970-01-01T00:12:44.000Z</time>
      </trkpt>
      <trkpt lat="41.083415" lon="-6.724739">
        <ele>606.1</ele>
        <time>1970-01-01T00:12:45.000Z</time>
      </trkpt>
      <trkpt lat="41.083387" lon="-6.724751">
        <ele>606.3</ele>
        <time>1970-01-01T00:12:46.000Z</time>
      </trkpt>
      <trkpt lat="41.083358" lon="-6.724762">
        <ele>606.4</ele>
        <time>1970-01-01T00:12:47.000Z</time>
      </trkpt>
      <trkpt lat="41.083329" lon="-6.724773">
        <ele>606.6</ele>
        <time>1970-01-01T00:12:48.000Z</time>
      </trkpt>
      <trkpt lat="41.0833" lon="-6.724784">
        <ele>606.8</ele>
        <time>1970-01-01T00:12:49.000Z</time>
      </trkpt>
      <trkpt lat="41.083269" lon="-6.724794">
        <ele>606.9</ele>
        <time>1970-01-01T00:12:50.000Z</time>
      </trkpt>
      <trkpt lat="41.083238" lon="-6.724802">
        <ele>607</ele>
        <time>1970-01-01T00:12:51.000Z</time>
      </trkpt>
      <trkpt lat="41.083207" lon="-6.724811">
        <ele>607.2</ele>
        <time>1970-01-01T00:12:52.000Z</time>
      </trkpt>
      <trkpt lat="41.083176" lon="-6.724819">
        <ele>607.3</ele>
        <time>1970-01-01T00:12:53.000Z</time>
      </trkpt>
      <trkpt lat="41.083147" lon="-6.724828">
        <ele>607.4</ele>
        <time>1970-01-01T00:12:54.000Z</time>
      </trkpt>
      <trkpt lat="41.083117" lon="-6.724836">
        <ele>607.5</ele>
        <time>1970-01-01T00:12:55.000Z</time>
      </trkpt>
      <trkpt lat="41.083087" lon="-6.724845">
        <ele>607.6</ele>
        <time>1970-01-01T00:12:56.000Z</time>
      </trkpt>
      <trkpt lat="41.083057" lon="-6.724855">
        <ele>607.7</ele>
        <time>1970-01-01T00:12:57.000Z</time>
      </trkpt>
      <trkpt lat="41.083027" lon="-6.724864">
        <ele>607.7</ele>
        <time>1970-01-01T00:12:58.000Z</time>
      </trkpt>
      <trkpt lat="41.082997" lon="-6.724874">
        <ele>607.8</ele>
        <time>1970-01-01T00:12:59.000Z</time>
      </trkpt>
      <trkpt lat="41.082967" lon="-6.724883">
        <ele>607.9</ele>
        <time>1970-01-01T00:13:00.000Z</time>
      </trkpt>
      <trkpt lat="41.082938" lon="-6.724892">
        <ele>608</ele>
        <time>1970-01-01T00:13:01.000Z</time>
      </trkpt>
      <trkpt lat="41.08291" lon="-6.724902">
        <ele>608</ele>
        <time>1970-01-01T00:13:02.000Z</time>
      </trkpt>
      <trkpt lat="41.082881" lon="-6.724913">
        <ele>608.1</ele>
        <time>1970-01-01T00:13:03.000Z</time>
      </trkpt>
      <trkpt lat="41.082853" lon="-6.724924">
        <ele>608.2</ele>
        <time>1970-01-01T00:13:04.000Z</time>
      </trkpt>
      <trkpt lat="41.082825" lon="-6.724936">
        <ele>608.2</ele>
        <time>1970-01-01T00:13:05.000Z</time>
      </trkpt>
      <trkpt lat="41.082796" lon="-6.724946">
        <ele>608.3</ele>
        <time>1970-01-01T00:13:06.000Z</time>
      </trkpt>
      <trkpt lat="41.082767" lon="-6.724957">
        <ele>608.4</ele>
        <time>1970-01-01T00:13:07.000Z</time>
      </trkpt>
      <trkpt lat="41.082738" lon="-6.724967">
        <ele>608.5</ele>
        <time>1970-01-01T00:13:08.000Z</time>
      </trkpt>
      <trkpt lat="41.082711" lon="-6.724978">
        <ele>608.6</ele>
        <time>1970-01-01T00:13:09.000Z</time>
      </trkpt>
      <trkpt lat="41.082685" lon="-6.724991">
        <ele>608.7</ele>
        <time>1970-01-01T00:13:10.000Z</time>
      </trkpt>
      <trkpt lat="41.082659" lon="-6.725005">
        <ele>608.8</ele>
        <time>1970-01-01T00:13:11.000Z</time>
      </trkpt>
      <trkpt lat="41.082634" lon="-6.725021">
        <ele>608.9</ele>
        <time>1970-01-01T00:13:12.000Z</time>
      </trkpt>
      <trkpt lat="41.082608" lon="-6.725037">
        <ele>609.1</ele>
        <time>1970-01-01T00:13:13.000Z</time>
      </trkpt>
      <trkpt lat="41.082582" lon="-6.725054">
        <ele>609.2</ele>
        <time>1970-01-01T00:13:14.000Z</time>
      </trkpt>
      <trkpt lat="41.082556" lon="-6.725073">
        <ele>609.3</ele>
        <time>1970-01-01T00:13:15.000Z</time>
      </trkpt>
      <trkpt lat="41.082531" lon="-6.725093">
        <ele>609.4</ele>
        <time>1970-01-01T00:13:16.000Z</time>
      </trkpt>
      <trkpt lat="41.082506" lon="-6.725114">
        <ele>609.5</ele>
        <time>1970-01-01T00:13:17.000Z</time>
      </trkpt>
      <trkpt lat="41.082482" lon="-6.725135">
        <ele>609.6</ele>
        <time>1970-01-01T00:13:18.000Z</time>
      </trkpt>
      <trkpt lat="41.082459" lon="-6.725155">
        <ele>609.7</ele>
        <time>1970-01-01T00:13:19.000Z</time>
      </trkpt>
      <trkpt lat="41.082436" lon="-6.725175">
        <ele>609.8</ele>
        <time>1970-01-01T00:13:20.000Z</time>
      </trkpt>
      <trkpt lat="41.082413" lon="-6.725193">
        <ele>610</ele>
        <time>1970-01-01T00:13:21.000Z</time>
      </trkpt>
      <trkpt lat="41.082389" lon="-6.725212">
        <ele>610.1</ele>
        <time>1970-01-01T00:13:22.000Z</time>
      </trkpt>
      <trkpt lat="41.082366" lon="-6.725232">
        <ele>610.2</ele>
        <time>1970-01-01T00:13:23.000Z</time>
      </trkpt>
      <trkpt lat="41.082342" lon="-6.725251">
        <ele>610.4</ele>
        <time>1970-01-01T00:13:24.000Z</time>
      </trkpt>
      <trkpt lat="41.082318" lon="-6.725271">
        <ele>610.5</ele>
        <time>1970-01-01T00:13:25.000Z</time>
      </trkpt>
      <trkpt lat="41.082293" lon="-6.725289">
        <ele>610.7</ele>
        <time>1970-01-01T00:13:26.000Z</time>
      </trkpt>
      <trkpt lat="41.082268" lon="-6.725307">
        <ele>610.9</ele>
        <time>1970-01-01T00:13:27.000Z</time>
      </trkpt>
      <trkpt lat="41.082243" lon="-6.725325">
        <ele>611</ele>
        <time>1970-01-01T00:13:28.000Z</time>
      </trkpt>
      <trkpt lat="41.082218" lon="-6.725344">
        <ele>611.2</ele>
        <time>1970-01-01T00:13:29.000Z</time>
      </trkpt>
      <trkpt lat="41.082194" lon="-6.725364">
        <ele>611.4</ele>
        <time>1970-01-01T00:13:30.000Z</time>
      </trkpt>
      <trkpt lat="41.082168" lon="-6.725383">
        <ele>611.5</ele>
        <time>1970-01-01T00:13:31.000Z</time>
      </trkpt>
      <trkpt lat="41.082144" lon="-6.725404">
        <ele>611.7</ele>
        <time>1970-01-01T00:13:32.000Z</time>
      </trkpt>
      <trkpt lat="41.08212" lon="-6.725424">
        <ele>611.9</ele>
        <time>1970-01-01T00:13:33.000Z</time>
      </trkpt>
      <trkpt lat="41.082095" lon="-6.725444">
        <ele>612</ele>
        <time>1970-01-01T00:13:34.000Z</time>
      </trkpt>
      <trkpt lat="41.08207" lon="-6.725464">
        <ele>612.2</ele>
        <time>1970-01-01T00:13:35.000Z</time>
      </trkpt>
      <trkpt lat="41.082045" lon="-6.725484">
        <ele>612.4</ele>
        <time>1970-01-01T00:13:36.000Z</time>
      </trkpt>
      <trkpt lat="41.082019" lon="-6.725504">
        <ele>612.6</ele>
        <time>1970-01-01T00:13:37.000Z</time>
      </trkpt>
      <trkpt lat="41.081993" lon="-6.725523">
        <ele>612.8</ele>
        <time>1970-01-01T00:13:38.000Z</time>
      </trkpt>
      <trkpt lat="41.081966" lon="-6.72554">
        <ele>613</ele>
        <time>1970-01-01T00:13:39.000Z</time>
      </trkpt>
      <trkpt lat="41.08194" lon="-6.725558">
        <ele>613.2</ele>
        <time>1970-01-01T00:13:40.000Z</time>
      </trkpt>
      <trkpt lat="41.081913" lon="-6.725573">
        <ele>613.3</ele>
        <time>1970-01-01T00:13:41.000Z</time>
      </trkpt>
      <trkpt lat="41.081887" lon="-6.725587">
        <ele>613.5</ele>
        <time>1970-01-01T00:13:42.000Z</time>
      </trkpt>
      <trkpt lat="41.081859" lon="-6.725598">
        <ele>613.7</ele>
        <time>1970-01-01T00:13:43.000Z</time>
      </trkpt>
      <trkpt lat="41.081832" lon="-6.725608">
        <ele>613.8</ele>
        <time>1970-01-01T00:13:44.000Z</time>
      </trkpt>
      <trkpt lat="41.081804" lon="-6.725618">
        <ele>614</ele>
        <time>1970-01-01T00:13:45.000Z</time>
      </trkpt>
      <trkpt lat="41.081776" lon="-6.725628">
        <ele>614.1</ele>
        <time>1970-01-01T00:13:46.000Z</time>
      </trkpt>
      <trkpt lat="41.08175" lon="-6.725639">
        <ele>614.3</ele>
        <time>1970-01-01T00:13:47.000Z</time>
      </trkpt>
      <trkpt lat="41.081723" lon="-6.725649">
        <ele>614.4</ele>
        <time>1970-01-01T00:13:48.000Z</time>
      </trkpt>
      <trkpt lat="41.081696" lon="-6.72566">
        <ele>614.6</ele>
        <time>1970-01-01T00:13:49.000Z</time>
      </trkpt>
      <trkpt lat="41.081669" lon="-6.72567">
        <ele>614.8</ele>
        <time>1970-01-01T00:13:50.000Z</time>
      </trkpt>
      <trkpt lat="41.081642" lon="-6.725681">
        <ele>614.9</ele>
        <time>1970-01-01T00:13:51.000Z</time>
      </trkpt>
      <trkpt lat="41.081616" lon="-6.725693">
        <ele>615.1</ele>
        <time>1970-01-01T00:13:52.000Z</time>
      </trkpt>
      <trkpt lat="41.081589" lon="-6.725707">
        <ele>615.3</ele>
        <time>1970-01-01T00:13:53.000Z</time>
      </trkpt>
      <trkpt lat="41.081562" lon="-6.725721">
        <ele>615.5</ele>
        <time>1970-01-01T00:13:54.000Z</time>
      </trkpt>
      <trkpt lat="41.081534" lon="-6.725736">
        <ele>615.6</ele>
        <time>1970-01-01T00:13:55.000Z</time>
      </trkpt>
      <trkpt lat="41.081507" lon="-6.725751">
        <ele>615.8</ele>
        <time>1970-01-01T00:13:56.000Z</time>
      </trkpt>
      <trkpt lat="41.08148" lon="-6.725767">
        <ele>616</ele>
        <time>1970-01-01T00:13:57.000Z</time>
      </trkpt>
      <trkpt lat="41.081453" lon="-6.725785">
        <ele>616.2</ele>
        <time>1970-01-01T00:13:58.000Z</time>
      </trkpt>
      <trkpt lat="41.081427" lon="-6.725801">
        <ele>616.3</ele>
        <time>1970-01-01T00:13:59.000Z</time>
      </trkpt>
      <trkpt lat="41.081402" lon="-6.725818">
        <ele>616.5</ele>
        <time>1970-01-01T00:14:00.000Z</time>
      </trkpt>
      <trkpt lat="41.081377" lon="-6.725834">
        <ele>616.7</ele>
        <time>1970-01-01T00:14:01.000Z</time>
      </trkpt>
      <trkpt lat="41.081353" lon="-6.725852">
        <ele>616.9</ele>
        <time>1970-01-01T00:14:02.000Z</time>
      </trkpt>
      <trkpt lat="41.081328" lon="-6.725868">
        <ele>617.1</ele>
        <time>1970-01-01T00:14:03.000Z</time>
      </trkpt>
      <trkpt lat="41.081302" lon="-6.725881">
        <ele>617.4</ele>
        <time>1970-01-01T00:14:04.000Z</time>
      </trkpt>
      <trkpt lat="41.081273" lon="-6.72589">
        <ele>617.6</ele>
        <time>1970-01-01T00:14:05.000Z</time>
      </trkpt>
      <trkpt lat="41.081243" lon="-6.725897">
        <ele>617.8</ele>
        <time>1970-01-01T00:14:06.000Z</time>
      </trkpt>
      <trkpt lat="41.081213" lon="-6.725904">
        <ele>617.7</ele>
        <time>1970-01-01T00:14:07.000Z</time>
      </trkpt>
      <trkpt lat="41.081184" lon="-6.725913">
        <ele>617.7</ele>
        <time>1970-01-01T00:14:08.000Z</time>
      </trkpt>
      <trkpt lat="41.081156" lon="-6.725923">
        <ele>617.6</ele>
        <time>1970-01-01T00:14:09.000Z</time>
      </trkpt>
      <trkpt lat="41.081128" lon="-6.725935">
        <ele>617.6</ele>
        <time>1970-01-01T00:14:10.000Z</time>
      </trkpt>
      <trkpt lat="41.081099" lon="-6.725948">
        <ele>617.5</ele>
        <time>1970-01-01T00:14:11.000Z</time>
      </trkpt>
      <trkpt lat="41.08107" lon="-6.72596">
        <ele>617.5</ele>
        <time>1970-01-01T00:14:12.000Z</time>
      </trkpt>
      <trkpt lat="41.081038" lon="-6.725971">
        <ele>617.5</ele>
        <time>1970-01-01T00:14:13.000Z</time>
      </trkpt>
      <trkpt lat="41.081006" lon="-6.725982">
        <ele>617.4</ele>
        <time>1970-01-01T00:14:14.000Z</time>
      </trkpt>
      <trkpt lat="41.080975" lon="-6.725994">
        <ele>617.4</ele>
        <time>1970-01-01T00:14:15.000Z</time>
      </trkpt>
      <trkpt lat="41.080943" lon="-6.726005">
        <ele>617.4</ele>
        <time>1970-01-01T00:14:16.000Z</time>
      </trkpt>
      <trkpt lat="41.080911" lon="-6.726017">
        <ele>617.4</ele>
        <time>1970-01-01T00:14:17.000Z</time>
      </trkpt>
      <trkpt lat="41.080879" lon="-6.726028">
        <ele>617.3</ele>
        <time>1970-01-01T00:14:18.000Z</time>
      </trkpt>
      <trkpt lat="41.080847" lon="-6.72604">
        <ele>617.3</ele>
        <time>1970-01-01T00:14:19.000Z</time>
      </trkpt>
      <trkpt lat="41.080814" lon="-6.726052">
        <ele>617.2</ele>
        <time>1970-01-01T00:14:20.000Z</time>
      </trkpt>
      <trkpt lat="41.080781" lon="-6.726063">
        <ele>617.2</ele>
        <time>1970-01-01T00:14:21.000Z</time>
      </trkpt>
      <trkpt lat="41.080748" lon="-6.726074">
        <ele>617.1</ele>
        <time>1970-01-01T00:14:22.000Z</time>
      </trkpt>
      <trkpt lat="41.080716" lon="-6.726086">
        <ele>617</ele>
        <time>1970-01-01T00:14:23.000Z</time>
      </trkpt>
      <trkpt lat="41.080683" lon="-6.726098">
        <ele>616.9</ele>
        <time>1970-01-01T00:14:24.000Z</time>
      </trkpt>
      <trkpt lat="41.080651" lon="-6.726112">
        <ele>617.2</ele>
        <time>1970-01-01T00:14:25.000Z</time>
      </trkpt>
      <trkpt lat="41.080618" lon="-6.726126">
        <ele>617.3</ele>
        <time>1970-01-01T00:14:26.000Z</time>
      </trkpt>
      <trkpt lat="41.080586" lon="-6.72614">
        <ele>617.4</ele>
        <time>1970-01-01T00:14:27.000Z</time>
      </trkpt>
      <trkpt lat="41.080554" lon="-6.726154">
        <ele>617.5</ele>
        <time>1970-01-01T00:14:28.000Z</time>
      </trkpt>
      <trkpt lat="41.080521" lon="-6.726168">
        <ele>617.6</ele>
        <time>1970-01-01T00:14:29.000Z</time>
      </trkpt>
      <trkpt lat="41.080489" lon="-6.726183">
        <ele>617.7</ele>
        <time>1970-01-01T00:14:30.000Z</time>
      </trkpt>
      <trkpt lat="41.080455" lon="-6.726197">
        <ele>617.8</ele>
        <time>1970-01-01T00:14:31.000Z</time>
      </trkpt>
      <trkpt lat="41.080422" lon="-6.726212">
        <ele>617.9</ele>
        <time>1970-01-01T00:14:32.000Z</time>
      </trkpt>
      <trkpt lat="41.080388" lon="-6.726226">
        <ele>618</ele>
        <time>1970-01-01T00:14:33.000Z</time>
      </trkpt>
      <trkpt lat="41.080353" lon="-6.726241">
        <ele>618.1</ele>
        <time>1970-01-01T00:14:34.000Z</time>
      </trkpt>
      <trkpt lat="41.080318" lon="-6.726257">
        <ele>618.2</ele>
        <time>1970-01-01T00:14:35.000Z</time>
      </trkpt>
      <trkpt lat="41.080283" lon="-6.726272">
        <ele>618.3</ele>
        <time>1970-01-01T00:14:36.000Z</time>
      </trkpt>
      <trkpt lat="41.080248" lon="-6.726287">
        <ele>618.5</ele>
        <time>1970-01-01T00:14:37.000Z</time>
      </trkpt>
      <trkpt lat="41.080214" lon="-6.7263">
        <ele>618.6</ele>
        <time>1970-01-01T00:14:38.000Z</time>
      </trkpt>
      <trkpt lat="41.080178" lon="-6.726313">
        <ele>618.8</ele>
        <time>1970-01-01T00:14:39.000Z</time>
      </trkpt>
      <trkpt lat="41.080142" lon="-6.726326">
        <ele>618.9</ele>
        <time>1970-01-01T00:14:40.000Z</time>
      </trkpt>
      <trkpt lat="41.080104" lon="-6.72634">
        <ele>619</ele>
        <time>1970-01-01T00:14:41.000Z</time>
      </trkpt>
      <trkpt lat="41.080066" lon="-6.726354">
        <ele>619</ele>
        <time>1970-01-01T00:14:42.000Z</time>
      </trkpt>
      <trkpt lat="41.080028" lon="-6.726367">
        <ele>619</ele>
        <time>1970-01-01T00:14:43.000Z</time>
      </trkpt>
      <trkpt lat="41.079991" lon="-6.726379">
        <ele>619</ele>
        <time>1970-01-01T00:14:44.000Z</time>
      </trkpt>
      <trkpt lat="41.079953" lon="-6.726389">
        <ele>619</ele>
        <time>1970-01-01T00:14:45.000Z</time>
      </trkpt>
      <trkpt lat="41.079915" lon="-6.726398">
        <ele>618.9</ele>
        <time>1970-01-01T00:14:46.000Z</time>
      </trkpt>
      <trkpt lat="41.079876" lon="-6.726406">
        <ele>618.8</ele>
        <time>1970-01-01T00:14:47.000Z</time>
      </trkpt>
      <trkpt lat="41.079836" lon="-6.726414">
        <ele>618.6</ele>
        <time>1970-01-01T00:14:48.000Z</time>
      </trkpt>
      <trkpt lat="41.079795" lon="-6.726418">
        <ele>618.5</ele>
        <time>1970-01-01T00:14:49.000Z</time>
      </trkpt>
      <trkpt lat="41.079752" lon="-6.726418">
        <ele>618.6</ele>
        <time>1970-01-01T00:14:50.000Z</time>
      </trkpt>
      <trkpt lat="41.079705" lon="-6.726415">
        <ele>618.7</ele>
        <time>1970-01-01T00:14:51.000Z</time>
      </trkpt>
      <trkpt lat="41.079657" lon="-6.726405">
        <ele>618.6</ele>
        <time>1970-01-01T00:14:52.000Z</time>
      </trkpt>
      <trkpt lat="41.079607" lon="-6.726388">
        <ele>618.5</ele>
        <time>1970-01-01T00:14:53.000Z</time>
      </trkpt>
      <trkpt lat="41.079556" lon="-6.726361">
        <ele>618.2</ele>
        <time>1970-01-01T00:14:54.000Z</time>
      </trkpt>
      <trkpt lat="41.079504" lon="-6.726329">
        <ele>617.9</ele>
        <time>1970-01-01T00:14:55.000Z</time>
      </trkpt>
      <trkpt lat="41.07945" lon="-6.726294">
        <ele>617.6</ele>
        <time>1970-01-01T00:14:56.000Z</time>
      </trkpt>
      <trkpt lat="41.079396" lon="-6.72626">
        <ele>617.2</ele>
        <time>1970-01-01T00:14:57.000Z</time>
      </trkpt>
      <trkpt lat="41.079339" lon="-6.726228">
        <ele>616.9</ele>
        <time>1970-01-01T00:14:58.000Z</time>
      </trkpt>
      <trkpt lat="41.07928" lon="-6.726199">
        <ele>616.5</ele>
        <time>1970-01-01T00:14:59.000Z</time>
      </trkpt>
      <trkpt lat="41.079217" lon="-6.726176">
        <ele>616.1</ele>
        <time>1970-01-01T00:15:00.000Z</time>
      </trkpt>
      <trkpt lat="41.079151" lon="-6.726159">
        <ele>615.8</ele>
        <time>1970-01-01T00:15:01.000Z</time>
      </trkpt>
      <trkpt lat="41.079083" lon="-6.726147">
        <ele>615.5</ele>
        <time>1970-01-01T00:15:02.000Z</time>
      </trkpt>
      <trkpt lat="41.079014" lon="-6.72614">
        <ele>615.2</ele>
        <time>1970-01-01T00:15:03.000Z</time>
      </trkpt>
      <trkpt lat="41.078945" lon="-6.726135">
        <ele>614.8</ele>
        <time>1970-01-01T00:15:04.000Z</time>
      </trkpt>
      <trkpt lat="41.078876" lon="-6.726134">
        <ele>614.5</ele>
        <time>1970-01-01T00:15:05.000Z</time>
      </trkpt>
      <trkpt lat="41.078807" lon="-6.726137">
        <ele>614.2</ele>
        <time>1970-01-01T00:15:06.000Z</time>
      </trkpt>
      <trkpt lat="41.078737" lon="-6.726141">
        <ele>613.8</ele>
        <time>1970-01-01T00:15:07.000Z</time>
      </trkpt>
      <trkpt lat="41.078667" lon="-6.726147">
        <ele>613.5</ele>
        <time>1970-01-01T00:15:08.000Z</time>
      </trkpt>
      <trkpt lat="41.078595" lon="-6.726151">
        <ele>613.3</ele>
        <time>1970-01-01T00:15:09.000Z</time>
      </trkpt>
      <trkpt lat="41.078523" lon="-6.726154">
        <ele>613.1</ele>
        <time>1970-01-01T00:15:10.000Z</time>
      </trkpt>
      <trkpt lat="41.078452" lon="-6.726155">
        <ele>612.9</ele>
        <time>1970-01-01T00:15:11.000Z</time>
      </trkpt>
      <trkpt lat="41.078381" lon="-6.726155">
        <ele>612.7</ele>
        <time>1970-01-01T00:15:12.000Z</time>
      </trkpt>
      <trkpt lat="41.078312" lon="-6.726156">
        <ele>612.6</ele>
        <time>1970-01-01T00:15:13.000Z</time>
      </trkpt>
      <trkpt lat="41.078243" lon="-6.72616">
        <ele>612.6</ele>
        <time>1970-01-01T00:15:14.000Z</time>
      </trkpt>
      <trkpt lat="41.078178" lon="-6.726169">
        <ele>612.6</ele>
        <time>1970-01-01T00:15:15.000Z</time>
      </trkpt>
      <trkpt lat="41.078116" lon="-6.726181">
        <ele>612.5</ele>
        <time>1970-01-01T00:15:16.000Z</time>
      </trkpt>
      <trkpt lat="41.078059" lon="-6.726196">
        <ele>612.4</ele>
        <time>1970-01-01T00:15:17.000Z</time>
      </trkpt>
      <trkpt lat="41.078005" lon="-6.726212">
        <ele>612.3</ele>
        <time>1970-01-01T00:15:18.000Z</time>
      </trkpt>
      <trkpt lat="41.077955" lon="-6.726228">
        <ele>612.3</ele>
        <time>1970-01-01T00:15:19.000Z</time>
      </trkpt>
      <trkpt lat="41.077907" lon="-6.726247">
        <ele>612.3</ele>
        <time>1970-01-01T00:15:20.000Z</time>
      </trkpt>
      <trkpt lat="41.07786" lon="-6.726268">
        <ele>612.4</ele>
        <time>1970-01-01T00:15:21.000Z</time>
      </trkpt>
      <trkpt lat="41.077814" lon="-6.726292">
        <ele>612.4</ele>
        <time>1970-01-01T00:15:22.000Z</time>
      </trkpt>
      <trkpt lat="41.07777" lon="-6.726321">
        <ele>612.4</ele>
        <time>1970-01-01T00:15:23.000Z</time>
      </trkpt>
      <trkpt lat="41.077727" lon="-6.726352">
        <ele>612.5</ele>
        <time>1970-01-01T00:15:24.000Z</time>
      </trkpt>
      <trkpt lat="41.077685" lon="-6.726385">
        <ele>612.5</ele>
        <time>1970-01-01T00:15:25.000Z</time>
      </trkpt>
      <trkpt lat="41.077644" lon="-6.726419">
        <ele>612.5</ele>
        <time>1970-01-01T00:15:26.000Z</time>
      </trkpt>
      <trkpt lat="41.077604" lon="-6.726455">
        <ele>612.5</ele>
        <time>1970-01-01T00:15:27.000Z</time>
      </trkpt>
      <trkpt lat="41.077565" lon="-6.726494">
        <ele>612.5</ele>
        <time>1970-01-01T00:15:28.000Z</time>
      </trkpt>
      <trkpt lat="41.077527" lon="-6.726536">
        <ele>612.4</ele>
        <time>1970-01-01T00:15:29.000Z</time>
      </trkpt>
      <trkpt lat="41.07749" lon="-6.726584">
        <ele>612.3</ele>
        <time>1970-01-01T00:15:30.000Z</time>
      </trkpt>
      <trkpt lat="41.077453" lon="-6.726636">
        <ele>612.2</ele>
        <time>1970-01-01T00:15:31.000Z</time>
      </trkpt>
      <trkpt lat="41.077415" lon="-6.726686">
        <ele>612</ele>
        <time>1970-01-01T00:15:32.000Z</time>
      </trkpt>
      <trkpt lat="41.077375" lon="-6.726731">
        <ele>611.9</ele>
        <time>1970-01-01T00:15:33.000Z</time>
      </trkpt>
      <trkpt lat="41.077333" lon="-6.726773">
        <ele>611.8</ele>
        <time>1970-01-01T00:15:34.000Z</time>
      </trkpt>
      <trkpt lat="41.077289" lon="-6.726812">
        <ele>611.8</ele>
        <time>1970-01-01T00:15:35.000Z</time>
      </trkpt>
      <trkpt lat="41.077244" lon="-6.72685">
        <ele>611.7</ele>
        <time>1970-01-01T00:15:36.000Z</time>
      </trkpt>
      <trkpt lat="41.0772" lon="-6.726888">
        <ele>611.8</ele>
        <time>1970-01-01T00:15:37.000Z</time>
      </trkpt>
      <trkpt lat="41.077157" lon="-6.726926">
        <ele>611.8</ele>
        <time>1970-01-01T00:15:38.000Z</time>
      </trkpt>
      <trkpt lat="41.077114" lon="-6.726965">
        <ele>611.8</ele>
        <time>1970-01-01T00:15:39.000Z</time>
      </trkpt>
      <trkpt lat="41.077072" lon="-6.727008">
        <ele>611.7</ele>
        <time>1970-01-01T00:15:40.000Z</time>
      </trkpt>
      <trkpt lat="41.077029" lon="-6.727057">
        <ele>611.6</ele>
        <time>1970-01-01T00:15:41.000Z</time>
      </trkpt>
      <trkpt lat="41.076988" lon="-6.727112">
        <ele>611.5</ele>
        <time>1970-01-01T00:15:42.000Z</time>
      </trkpt>
      <trkpt lat="41.076947" lon="-6.727172">
        <ele>611.3</ele>
        <time>1970-01-01T00:15:43.000Z</time>
      </trkpt>
      <trkpt lat="41.076906" lon="-6.727237">
        <ele>611</ele>
        <time>1970-01-01T00:15:44.000Z</time>
      </trkpt>
      <trkpt lat="41.076864" lon="-6.727304">
        <ele>610.6</ele>
        <time>1970-01-01T00:15:45.000Z</time>
      </trkpt>
      <trkpt lat="41.076819" lon="-6.72737">
        <ele>610.2</ele>
        <time>1970-01-01T00:15:46.000Z</time>
      </trkpt>
      <trkpt lat="41.076768" lon="-6.727432">
        <ele>609.8</ele>
        <time>1970-01-01T00:15:47.000Z</time>
      </trkpt>
      <trkpt lat="41.076712" lon="-6.727489">
        <ele>609.3</ele>
        <time>1970-01-01T00:15:48.000Z</time>
      </trkpt>
      <trkpt lat="41.076652" lon="-6.727543">
        <ele>608.9</ele>
        <time>1970-01-01T00:15:49.000Z</time>
      </trkpt>
      <trkpt lat="41.076586" lon="-6.727592">
        <ele>608.4</ele>
        <time>1970-01-01T00:15:50.000Z</time>
      </trkpt>
      <trkpt lat="41.076516" lon="-6.727639">
        <ele>607.9</ele>
        <time>1970-01-01T00:15:51.000Z</time>
      </trkpt>
      <trkpt lat="41.076442" lon="-6.727682">
        <ele>607.3</ele>
        <time>1970-01-01T00:15:52.000Z</time>
      </trkpt>
      <trkpt lat="41.076366" lon="-6.727723">
        <ele>606.6</ele>
        <time>1970-01-01T00:15:53.000Z</time>
      </trkpt>
      <trkpt lat="41.076285" lon="-6.727763">
        <ele>605.9</ele>
        <time>1970-01-01T00:15:54.000Z</time>
      </trkpt>
      <trkpt lat="41.076199" lon="-6.727805">
        <ele>604.9</ele>
        <time>1970-01-01T00:15:55.000Z</time>
      </trkpt>
      <trkpt lat="41.076106" lon="-6.727848">
        <ele>603.9</ele>
        <time>1970-01-01T00:15:56.000Z</time>
      </trkpt>
      <trkpt lat="41.076011" lon="-6.727891">
        <ele>602.7</ele>
        <time>1970-01-01T00:15:57.000Z</time>
      </trkpt>
      <trkpt lat="41.075914" lon="-6.727937">
        <ele>601.7</ele>
        <time>1970-01-01T00:15:58.000Z</time>
      </trkpt>
      <trkpt lat="41.075818" lon="-6.727985">
        <ele>601.4</ele>
        <time>1970-01-01T00:15:59.000Z</time>
      </trkpt>
      <trkpt lat="41.075726" lon="-6.728039">
        <ele>601.1</ele>
        <time>1970-01-01T00:16:00.000Z</time>
      </trkpt>
      <trkpt lat="41.075637" lon="-6.728096">
        <ele>600.8</ele>
        <time>1970-01-01T00:16:01.000Z</time>
      </trkpt>
      <trkpt lat="41.075552" lon="-6.728156">
        <ele>600.5</ele>
        <time>1970-01-01T00:16:02.000Z</time>
      </trkpt>
      <trkpt lat="41.075471" lon="-6.72822">
        <ele>600.2</ele>
        <time>1970-01-01T00:16:03.000Z</time>
      </trkpt>
      <trkpt lat="41.075393" lon="-6.728286">
        <ele>599.9</ele>
        <time>1970-01-01T00:16:04.000Z</time>
      </trkpt>
      <trkpt lat="41.075315" lon="-6.728354">
        <ele>599.6</ele>
        <time>1970-01-01T00:16:05.000Z</time>
      </trkpt>
      <trkpt lat="41.075236" lon="-6.728424">
        <ele>599.3</ele>
        <time>1970-01-01T00:16:06.000Z</time>
      </trkpt>
      <trkpt lat="41.075156" lon="-6.728497">
        <ele>599</ele>
        <time>1970-01-01T00:16:07.000Z</time>
      </trkpt>
      <trkpt lat="41.075073" lon="-6.728569">
        <ele>598.6</ele>
        <time>1970-01-01T00:16:08.000Z</time>
      </trkpt>
      <trkpt lat="41.074988" lon="-6.728641">
        <ele>598.3</ele>
        <time>1970-01-01T00:16:09.000Z</time>
      </trkpt>
      <trkpt lat="41.0749" lon="-6.728712">
        <ele>598</ele>
        <time>1970-01-01T00:16:10.000Z</time>
      </trkpt>
      <trkpt lat="41.074813" lon="-6.728786">
        <ele>597.7</ele>
        <time>1970-01-01T00:16:11.000Z</time>
      </trkpt>
      <trkpt lat="41.074729" lon="-6.728866">
        <ele>597.3</ele>
        <time>1970-01-01T00:16:12.000Z</time>
      </trkpt>
      <trkpt lat="41.074651" lon="-6.728945">
        <ele>597</ele>
        <time>1970-01-01T00:16:13.000Z</time>
      </trkpt>
      <trkpt lat="41.074573" lon="-6.729013">
        <ele>596.7</ele>
        <time>1970-01-01T00:16:14.000Z</time>
      </trkpt>
      <trkpt lat="41.074495" lon="-6.729062">
        <ele>596.5</ele>
        <time>1970-01-01T00:16:15.000Z</time>
      </trkpt>
      <trkpt lat="41.074418" lon="-6.729089">
        <ele>596.2</ele>
        <time>1970-01-01T00:16:16.000Z</time>
      </trkpt>
      <trkpt lat="41.074345" lon="-6.729093">
        <ele>596.1</ele>
        <time>1970-01-01T00:16:17.000Z</time>
      </trkpt>
      <trkpt lat="41.074282" lon="-6.72908">
        <ele>596.1</ele>
        <time>1970-01-01T00:16:18.000Z</time>
      </trkpt>
      <trkpt lat="41.074222" lon="-6.729057">
        <ele>595.8</ele>
        <time>1970-01-01T00:16:19.000Z</time>
      </trkpt>
      <trkpt lat="41.074167" lon="-6.72903">
        <ele>595.8</ele>
        <time>1970-01-01T00:16:20.000Z</time>
      </trkpt>
      <trkpt lat="41.074114" lon="-6.729">
        <ele>595.7</ele>
        <time>1970-01-01T00:16:21.000Z</time>
      </trkpt>
      <trkpt lat="41.074063" lon="-6.728971">
        <ele>595.8</ele>
        <time>1970-01-01T00:16:22.000Z</time>
      </trkpt>
      <trkpt lat="41.074016" lon="-6.728953">
        <ele>595.9</ele>
        <time>1970-01-01T00:16:23.000Z</time>
      </trkpt>
      <trkpt lat="41.073978" lon="-6.728952">
        <ele>596</ele>
        <time>1970-01-01T00:16:24.000Z</time>
      </trkpt>
      <trkpt lat="41.073947" lon="-6.72897">
        <ele>595.9</ele>
        <time>1970-01-01T00:16:25.000Z</time>
      </trkpt>
      <trkpt lat="41.073921" lon="-6.729002">
        <ele>595.5</ele>
        <time>1970-01-01T00:16:26.000Z</time>
      </trkpt>
      <trkpt lat="41.073897" lon="-6.729042">
        <ele>595.4</ele>
        <time>1970-01-01T00:16:27.000Z</time>
      </trkpt>
      <trkpt lat="41.073874" lon="-6.729086">
        <ele>595.2</ele>
        <time>1970-01-01T00:16:28.000Z</time>
      </trkpt>
      <trkpt lat="41.073854" lon="-6.729129">
        <ele>594.9</ele>
        <time>1970-01-01T00:16:29.000Z</time>
      </trkpt>
      <trkpt lat="41.073834" lon="-6.729169">
        <ele>594.8</ele>
        <time>1970-01-01T00:16:30.000Z</time>
      </trkpt>
      <trkpt lat="41.073815" lon="-6.729207">
        <ele>594.9</ele>
        <time>1970-01-01T00:16:31.000Z</time>
      </trkpt>
      <trkpt lat="41.073794" lon="-6.729243">
        <ele>594.6</ele>
        <time>1970-01-01T00:16:32.000Z</time>
      </trkpt>
      <trkpt lat="41.073772" lon="-6.729274">
        <ele>594.7</ele>
        <time>1970-01-01T00:16:33.000Z</time>
      </trkpt>
      <trkpt lat="41.073749" lon="-6.729303">
        <ele>594.8</ele>
        <time>1970-01-01T00:16:34.000Z</time>
      </trkpt>
      <trkpt lat="41.073727" lon="-6.72933">
        <ele>594.7</ele>
        <time>1970-01-01T00:16:35.000Z</time>
      </trkpt>
      <trkpt lat="41.073704" lon="-6.729355">
        <ele>594.8</ele>
        <time>1970-01-01T00:16:36.000Z</time>
      </trkpt>
      <trkpt lat="41.073679" lon="-6.729379">
        <ele>595.1</ele>
        <time>1970-01-01T00:16:37.000Z</time>
      </trkpt>
      <trkpt lat="41.073654" lon="-6.729401">
        <ele>595.3</ele>
        <time>1970-01-01T00:16:38.000Z</time>
      </trkpt>
      <trkpt lat="41.073627" lon="-6.729422">
        <ele>595.2</ele>
        <time>1970-01-01T00:16:39.000Z</time>
      </trkpt>
      <trkpt lat="41.0736" lon="-6.729441">
        <ele>595.4</ele>
        <time>1970-01-01T00:16:40.000Z</time>
      </trkpt>
      <trkpt lat="41.073572" lon="-6.72946">
        <ele>595.7</ele>
        <time>1970-01-01T00:16:41.000Z</time>
      </trkpt>
      <trkpt lat="41.073545" lon="-6.72948">
        <ele>595.9</ele>
        <time>1970-01-01T00:16:42.000Z</time>
      </trkpt>
      <trkpt lat="41.073518" lon="-6.729503">
        <ele>596.1</ele>
        <time>1970-01-01T00:16:43.000Z</time>
      </trkpt>
      <trkpt lat="41.073491" lon="-6.729527">
        <ele>596.3</ele>
        <time>1970-01-01T00:16:44.000Z</time>
      </trkpt>
      <trkpt lat="41.073465" lon="-6.729552">
        <ele>596.2</ele>
        <time>1970-01-01T00:16:45.000Z</time>
      </trkpt>
      <trkpt lat="41.073438" lon="-6.729577">
        <ele>596.4</ele>
        <time>1970-01-01T00:16:46.000Z</time>
      </trkpt>
      <trkpt lat="41.073411" lon="-6.729601">
        <ele>596.6</ele>
        <time>1970-01-01T00:16:47.000Z</time>
      </trkpt>
      <trkpt lat="41.073384" lon="-6.729624">
        <ele>596.9</ele>
        <time>1970-01-01T00:16:48.000Z</time>
      </trkpt>
      <trkpt lat="41.073356" lon="-6.729644">
        <ele>597.2</ele>
        <time>1970-01-01T00:16:49.000Z</time>
      </trkpt>
      <trkpt lat="41.073327" lon="-6.729663">
        <ele>597.5</ele>
        <time>1970-01-01T00:16:50.000Z</time>
      </trkpt>
      <trkpt lat="41.073298" lon="-6.72968">
        <ele>597.8</ele>
        <time>1970-01-01T00:16:51.000Z</time>
      </trkpt>
      <trkpt lat="41.07327" lon="-6.729696">
        <ele>597.6</ele>
        <time>1970-01-01T00:16:52.000Z</time>
      </trkpt>
      <trkpt lat="41.073242" lon="-6.729713">
        <ele>597.9</ele>
        <time>1970-01-01T00:16:53.000Z</time>
      </trkpt>
      <trkpt lat="41.073213" lon="-6.729728">
        <ele>598.2</ele>
        <time>1970-01-01T00:16:54.000Z</time>
      </trkpt>
      <trkpt lat="41.073183" lon="-6.729741">
        <ele>598.4</ele>
        <time>1970-01-01T00:16:55.000Z</time>
      </trkpt>
      <trkpt lat="41.073151" lon="-6.729752">
        <ele>598.6</ele>
        <time>1970-01-01T00:16:56.000Z</time>
      </trkpt>
      <trkpt lat="41.07312" lon="-6.729762">
        <ele>598.8</ele>
        <time>1970-01-01T00:16:57.000Z</time>
      </trkpt>
      <trkpt lat="41.073088" lon="-6.729771">
        <ele>599</ele>
        <time>1970-01-01T00:16:58.000Z</time>
      </trkpt>
      <trkpt lat="41.073057" lon="-6.729781">
        <ele>599.2</ele>
        <time>1970-01-01T00:16:59.000Z</time>
      </trkpt>
      <trkpt lat="41.073026" lon="-6.729789">
        <ele>599.3</ele>
        <time>1970-01-01T00:17:00.000Z</time>
      </trkpt>
      <trkpt lat="41.072993" lon="-6.729799">
        <ele>599.4</ele>
        <time>1970-01-01T00:17:01.000Z</time>
      </trkpt>
      <trkpt lat="41.072961" lon="-6.729807">
        <ele>599.5</ele>
        <time>1970-01-01T00:17:02.000Z</time>
      </trkpt>
      <trkpt lat="41.072927" lon="-6.729816">
        <ele>599.5</ele>
        <time>1970-01-01T00:17:03.000Z</time>
      </trkpt>
      <trkpt lat="41.072894" lon="-6.729826">
        <ele>599.5</ele>
        <time>1970-01-01T00:17:04.000Z</time>
      </trkpt>
      <trkpt lat="41.07286" lon="-6.729836">
        <ele>599.5</ele>
        <time>1970-01-01T00:17:05.000Z</time>
      </trkpt>
      <trkpt lat="41.072825" lon="-6.729846">
        <ele>599.4</ele>
        <time>1970-01-01T00:17:06.000Z</time>
      </trkpt>
      <trkpt lat="41.072792" lon="-6.729855">
        <ele>599.3</ele>
        <time>1970-01-01T00:17:07.000Z</time>
      </trkpt>
      <trkpt lat="41.072758" lon="-6.729865">
        <ele>599.2</ele>
        <time>1970-01-01T00:17:08.000Z</time>
      </trkpt>
      <trkpt lat="41.072723" lon="-6.729874">
        <ele>599.1</ele>
        <time>1970-01-01T00:17:09.000Z</time>
      </trkpt>
      <trkpt lat="41.072685" lon="-6.729882">
        <ele>599.1</ele>
        <time>1970-01-01T00:17:10.000Z</time>
      </trkpt>
      <trkpt lat="41.072646" lon="-6.729889">
        <ele>598.9</ele>
        <time>1970-01-01T00:17:11.000Z</time>
      </trkpt>
      <trkpt lat="41.072605" lon="-6.729893">
        <ele>598.8</ele>
        <time>1970-01-01T00:17:12.000Z</time>
      </trkpt>
      <trkpt lat="41.072563" lon="-6.729896">
        <ele>598.7</ele>
        <time>1970-01-01T00:17:13.000Z</time>
      </trkpt>
      <trkpt lat="41.072521" lon="-6.729898">
        <ele>598.7</ele>
        <time>1970-01-01T00:17:14.000Z</time>
      </trkpt>
      <trkpt lat="41.072477" lon="-6.729901">
        <ele>598.5</ele>
        <time>1970-01-01T00:17:15.000Z</time>
      </trkpt>
      <trkpt lat="41.072431" lon="-6.729903">
        <ele>598.4</ele>
        <time>1970-01-01T00:17:16.000Z</time>
      </trkpt>
      <trkpt lat="41.072384" lon="-6.729906">
        <ele>598.3</ele>
        <time>1970-01-01T00:17:17.000Z</time>
      </trkpt>
      <trkpt lat="41.072333" lon="-6.729908">
        <ele>598.2</ele>
        <time>1970-01-01T00:17:18.000Z</time>
      </trkpt>
      <trkpt lat="41.072282" lon="-6.729907">
        <ele>598</ele>
        <time>1970-01-01T00:17:19.000Z</time>
      </trkpt>
      <trkpt lat="41.072229" lon="-6.729903">
        <ele>597.7</ele>
        <time>1970-01-01T00:17:20.000Z</time>
      </trkpt>
      <trkpt lat="41.072176" lon="-6.729893">
        <ele>597.7</ele>
        <time>1970-01-01T00:17:21.000Z</time>
      </trkpt>
      <trkpt lat="41.072124" lon="-6.729878">
        <ele>597.4</ele>
        <time>1970-01-01T00:17:22.000Z</time>
      </trkpt>
      <trkpt lat="41.072072" lon="-6.729863">
        <ele>597.1</ele>
        <time>1970-01-01T00:17:23.000Z</time>
      </trkpt>
      <trkpt lat="41.072018" lon="-6.729858">
        <ele>597</ele>
        <time>1970-01-01T00:17:24.000Z</time>
      </trkpt>
      <trkpt lat="41.071965" lon="-6.729872">
        <ele>596.5</ele>
        <time>1970-01-01T00:17:25.000Z</time>
      </trkpt>
      <trkpt lat="41.071912" lon="-6.729904">
        <ele>596</ele>
        <time>1970-01-01T00:17:26.000Z</time>
      </trkpt>
      <trkpt lat="41.071857" lon="-6.729943">
        <ele>595.6</ele>
        <time>1970-01-01T00:17:27.000Z</time>
      </trkpt>
      <trkpt lat="41.0718" lon="-6.729982">
        <ele>595.3</ele>
        <time>1970-01-01T00:17:28.000Z</time>
      </trkpt>
      <trkpt lat="41.071743" lon="-6.730017">
        <ele>595</ele>
        <time>1970-01-01T00:17:29.000Z</time>
      </trkpt>
      <trkpt lat="41.071688" lon="-6.730051">
        <ele>594.8</ele>
        <time>1970-01-01T00:17:30.000Z</time>
      </trkpt>
      <trkpt lat="41.071638" lon="-6.730084">
        <ele>594.6</ele>
        <time>1970-01-01T00:17:31.000Z</time>
      </trkpt>
      <trkpt lat="41.071591" lon="-6.730114">
        <ele>594.5</ele>
        <time>1970-01-01T00:17:32.000Z</time>
      </trkpt>
      <trkpt lat="41.071546" lon="-6.730143">
        <ele>594.6</ele>
        <time>1970-01-01T00:17:33.000Z</time>
      </trkpt>
      <trkpt lat="41.071504" lon="-6.73017">
        <ele>594.7</ele>
        <time>1970-01-01T00:17:34.000Z</time>
      </trkpt>
      <trkpt lat="41.071466" lon="-6.730197">
        <ele>594.8</ele>
        <time>1970-01-01T00:17:35.000Z</time>
      </trkpt>
      <trkpt lat="41.071429" lon="-6.730225">
        <ele>594.9</ele>
        <time>1970-01-01T00:17:36.000Z</time>
      </trkpt>
      <trkpt lat="41.071393" lon="-6.730253">
        <ele>595</ele>
        <time>1970-01-01T00:17:37.000Z</time>
      </trkpt>
      <trkpt lat="41.071358" lon="-6.730283">
        <ele>595.2</ele>
        <time>1970-01-01T00:17:38.000Z</time>
      </trkpt>
      <trkpt lat="41.071324" lon="-6.730309">
        <ele>595.4</ele>
        <time>1970-01-01T00:17:39.000Z</time>
      </trkpt>
      <trkpt lat="41.071291" lon="-6.730334">
        <ele>595.6</ele>
        <time>1970-01-01T00:17:40.000Z</time>
      </trkpt>
      <trkpt lat="41.071259" lon="-6.730357">
        <ele>595.9</ele>
        <time>1970-01-01T00:17:41.000Z</time>
      </trkpt>
      <trkpt lat="41.071228" lon="-6.730381">
        <ele>596.1</ele>
        <time>1970-01-01T00:17:42.000Z</time>
      </trkpt>
      <trkpt lat="41.071196" lon="-6.730405">
        <ele>596.4</ele>
        <time>1970-01-01T00:17:43.000Z</time>
      </trkpt>
      <trkpt lat="41.071164" lon="-6.730431">
        <ele>596.6</ele>
        <time>1970-01-01T00:17:44.000Z</time>
      </trkpt>
      <trkpt lat="41.071131" lon="-6.730459">
        <ele>596.7</ele>
        <time>1970-01-01T00:17:45.000Z</time>
      </trkpt>
      <trkpt lat="41.071098" lon="-6.73049">
        <ele>596.8</ele>
        <time>1970-01-01T00:17:46.000Z</time>
      </trkpt>
      <trkpt lat="41.071065" lon="-6.730523">
        <ele>596.8</ele>
        <time>1970-01-01T00:17:47.000Z</time>
      </trkpt>
      <trkpt lat="41.071034" lon="-6.730561">
        <ele>596.8</ele>
        <time>1970-01-01T00:17:48.000Z</time>
      </trkpt>
      <trkpt lat="41.071004" lon="-6.730602">
        <ele>596.7</ele>
        <time>1970-01-01T00:17:49.000Z</time>
      </trkpt>
      <trkpt lat="41.070978" lon="-6.730648">
        <ele>596.7</ele>
        <time>1970-01-01T00:17:50.000Z</time>
      </trkpt>
      <trkpt lat="41.070957" lon="-6.7307">
        <ele>596.6</ele>
        <time>1970-01-01T00:17:51.000Z</time>
      </trkpt>
      <trkpt lat="41.070941" lon="-6.730758">
        <ele>596.5</ele>
        <time>1970-01-01T00:17:52.000Z</time>
      </trkpt>
      <trkpt lat="41.070928" lon="-6.730822">
        <ele>596.3</ele>
        <time>1970-01-01T00:17:53.000Z</time>
      </trkpt>
      <trkpt lat="41.070918" lon="-6.73089">
        <ele>596.1</ele>
        <time>1970-01-01T00:17:54.000Z</time>
      </trkpt>
      <trkpt lat="41.070911" lon="-6.730962">
        <ele>595.9</ele>
        <time>1970-01-01T00:17:55.000Z</time>
      </trkpt>
      <trkpt lat="41.070907" lon="-6.731035">
        <ele>595.5</ele>
        <time>1970-01-01T00:17:56.000Z</time>
      </trkpt>
      <trkpt lat="41.070906" lon="-6.731111">
        <ele>595.2</ele>
        <time>1970-01-01T00:17:57.000Z</time>
      </trkpt>
      <trkpt lat="41.070906" lon="-6.731188">
        <ele>594.9</ele>
        <time>1970-01-01T00:17:58.000Z</time>
      </trkpt>
      <trkpt lat="41.070906" lon="-6.731267">
        <ele>594.5</ele>
        <time>1970-01-01T00:17:59.000Z</time>
      </trkpt>
      <trkpt lat="41.070907" lon="-6.731346">
        <ele>594.2</ele>
        <time>1970-01-01T00:18:00.000Z</time>
      </trkpt>
      <trkpt lat="41.07091" lon="-6.731426">
        <ele>594</ele>
        <time>1970-01-01T00:18:01.000Z</time>
      </trkpt>
      <trkpt lat="41.070913" lon="-6.731509">
        <ele>593.8</ele>
        <time>1970-01-01T00:18:02.000Z</time>
      </trkpt>
      <trkpt lat="41.070918" lon="-6.731594">
        <ele>593.5</ele>
        <time>1970-01-01T00:18:03.000Z</time>
      </trkpt>
      <trkpt lat="41.070925" lon="-6.73168">
        <ele>593.1</ele>
        <time>1970-01-01T00:18:04.000Z</time>
      </trkpt>
      <trkpt lat="41.070935" lon="-6.731767">
        <ele>592.6</ele>
        <time>1970-01-01T00:18:05.000Z</time>
      </trkpt>
      <trkpt lat="41.070947" lon="-6.731856">
        <ele>592.1</ele>
        <time>1970-01-01T00:18:06.000Z</time>
      </trkpt>
      <trkpt lat="41.07096" lon="-6.731946">
        <ele>591.6</ele>
        <time>1970-01-01T00:18:07.000Z</time>
      </trkpt>
      <trkpt lat="41.070973" lon="-6.732039">
        <ele>591</ele>
        <time>1970-01-01T00:18:08.000Z</time>
      </trkpt>
      <trkpt lat="41.070987" lon="-6.732134">
        <ele>590.6</ele>
        <time>1970-01-01T00:18:09.000Z</time>
      </trkpt>
      <trkpt lat="41.071003" lon="-6.732231">
        <ele>590.2</ele>
        <time>1970-01-01T00:18:10.000Z</time>
      </trkpt>
      <trkpt lat="41.07102" lon="-6.73233">
        <ele>589.7</ele>
        <time>1970-01-01T00:18:11.000Z</time>
      </trkpt>
      <trkpt lat="41.07104" lon="-6.73243">
        <ele>589.1</ele>
        <time>1970-01-01T00:18:12.000Z</time>
      </trkpt>
      <trkpt lat="41.071061" lon="-6.732533">
        <ele>588.5</ele>
        <time>1970-01-01T00:18:13.000Z</time>
      </trkpt>
      <trkpt lat="41.071085" lon="-6.732637">
        <ele>587.9</ele>
        <time>1970-01-01T00:18:14.000Z</time>
      </trkpt>
      <trkpt lat="41.071112" lon="-6.732743">
        <ele>587.3</ele>
        <time>1970-01-01T00:18:15.000Z</time>
      </trkpt>
      <trkpt lat="41.071142" lon="-6.732849">
        <ele>586.8</ele>
        <time>1970-01-01T00:18:16.000Z</time>
      </trkpt>
      <trkpt lat="41.071176" lon="-6.732955">
        <ele>586.4</ele>
        <time>1970-01-01T00:18:17.000Z</time>
      </trkpt>
      <trkpt lat="41.071212" lon="-6.733058">
        <ele>586.1</ele>
        <time>1970-01-01T00:18:18.000Z</time>
      </trkpt>
      <trkpt lat="41.071249" lon="-6.733157">
        <ele>585.7</ele>
        <time>1970-01-01T00:18:19.000Z</time>
      </trkpt>
      <trkpt lat="41.071287" lon="-6.733254">
        <ele>585.4</ele>
        <time>1970-01-01T00:18:20.000Z</time>
      </trkpt>
      <trkpt lat="41.071325" lon="-6.73335">
        <ele>585</ele>
        <time>1970-01-01T00:18:21.000Z</time>
      </trkpt>
      <trkpt lat="41.071361" lon="-6.733443">
        <ele>584.8</ele>
        <time>1970-01-01T00:18:22.000Z</time>
      </trkpt>
      <trkpt lat="41.071394" lon="-6.733536">
        <ele>584.5</ele>
        <time>1970-01-01T00:18:23.000Z</time>
      </trkpt>
      <trkpt lat="41.071422" lon="-6.733628">
        <ele>584.3</ele>
        <time>1970-01-01T00:18:24.000Z</time>
      </trkpt>
      <trkpt lat="41.071446" lon="-6.73372">
        <ele>584.2</ele>
        <time>1970-01-01T00:18:25.000Z</time>
      </trkpt>
      <trkpt lat="41.071465" lon="-6.733812">
        <ele>584.2</ele>
        <time>1970-01-01T00:18:26.000Z</time>
      </trkpt>
      <trkpt lat="41.07148" lon="-6.733903">
        <ele>584.2</ele>
        <time>1970-01-01T00:18:27.000Z</time>
      </trkpt>
      <trkpt lat="41.071493" lon="-6.733993">
        <ele>584.1</ele>
        <time>1970-01-01T00:18:28.000Z</time>
      </trkpt>
      <trkpt lat="41.071505" lon="-6.734082">
        <ele>583.9</ele>
        <time>1970-01-01T00:18:29.000Z</time>
      </trkpt>
      <trkpt lat="41.071516" lon="-6.734172">
        <ele>583.6</ele>
        <time>1970-01-01T00:18:30.000Z</time>
      </trkpt>
      <trkpt lat="41.071527" lon="-6.734265">
        <ele>583.1</ele>
        <time>1970-01-01T00:18:31.000Z</time>
      </trkpt>
      <trkpt lat="41.071537" lon="-6.73436">
        <ele>582.7</ele>
        <time>1970-01-01T00:18:32.000Z</time>
      </trkpt>
      <trkpt lat="41.071546" lon="-6.734458">
        <ele>582.1</ele>
        <time>1970-01-01T00:18:33.000Z</time>
      </trkpt>
      <trkpt lat="41.071556" lon="-6.734559">
        <ele>581.6</ele>
        <time>1970-01-01T00:18:34.000Z</time>
      </trkpt>
      <trkpt lat="41.071566" lon="-6.734663">
        <ele>581.1</ele>
        <time>1970-01-01T00:18:35.000Z</time>
      </trkpt>
      <trkpt lat="41.071579" lon="-6.734768">
        <ele>580.8</ele>
        <time>1970-01-01T00:18:36.000Z</time>
      </trkpt>
      <trkpt lat="41.071594" lon="-6.734874">
        <ele>580.4</ele>
        <time>1970-01-01T00:18:37.000Z</time>
      </trkpt>
      <trkpt lat="41.071611" lon="-6.734981">
        <ele>580.1</ele>
        <time>1970-01-01T00:18:38.000Z</time>
      </trkpt>
      <trkpt lat="41.071632" lon="-6.735087">
        <ele>579.7</ele>
        <time>1970-01-01T00:18:39.000Z</time>
      </trkpt>
      <trkpt lat="41.071655" lon="-6.735193">
        <ele>579.3</ele>
        <time>1970-01-01T00:18:40.000Z</time>
      </trkpt>
      <trkpt lat="41.071679" lon="-6.735297">
        <ele>579</ele>
        <time>1970-01-01T00:18:41.000Z</time>
      </trkpt>
      <trkpt lat="41.071703" lon="-6.735399">
        <ele>578.6</ele>
        <time>1970-01-01T00:18:42.000Z</time>
      </trkpt>
      <trkpt lat="41.071728" lon="-6.7355">
        <ele>578.1</ele>
        <time>1970-01-01T00:18:43.000Z</time>
      </trkpt>
      <trkpt lat="41.071754" lon="-6.7356">
        <ele>577.5</ele>
        <time>1970-01-01T00:18:44.000Z</time>
      </trkpt>
      <trkpt lat="41.071781" lon="-6.7357">
        <ele>577.1</ele>
        <time>1970-01-01T00:18:45.000Z</time>
      </trkpt>
      <trkpt lat="41.071809" lon="-6.735798">
        <ele>576.7</ele>
        <time>1970-01-01T00:18:46.000Z</time>
      </trkpt>
      <trkpt lat="41.071837" lon="-6.735896">
        <ele>576.2</ele>
        <time>1970-01-01T00:18:47.000Z</time>
      </trkpt>
      <trkpt lat="41.071866" lon="-6.735993">
        <ele>575.8</ele>
        <time>1970-01-01T00:18:48.000Z</time>
      </trkpt>
      <trkpt lat="41.071895" lon="-6.736089">
        <ele>575.5</ele>
        <time>1970-01-01T00:18:49.000Z</time>
      </trkpt>
      <trkpt lat="41.071924" lon="-6.736183">
        <ele>575.1</ele>
        <time>1970-01-01T00:18:50.000Z</time>
      </trkpt>
      <trkpt lat="41.071953" lon="-6.736275">
        <ele>574.8</ele>
        <time>1970-01-01T00:18:51.000Z</time>
      </trkpt>
      <trkpt lat="41.071982" lon="-6.736367">
        <ele>574.5</ele>
        <time>1970-01-01T00:18:52.000Z</time>
      </trkpt>
      <trkpt lat="41.072009" lon="-6.736458">
        <ele>574.2</ele>
        <time>1970-01-01T00:18:53.000Z</time>
      </trkpt>
      <trkpt lat="41.072036" lon="-6.736547">
        <ele>574</ele>
        <time>1970-01-01T00:18:54.000Z</time>
      </trkpt>
      <trkpt lat="41.072062" lon="-6.736634">
        <ele>573.8</ele>
        <time>1970-01-01T00:18:55.000Z</time>
      </trkpt>
      <trkpt lat="41.072086" lon="-6.736718">
        <ele>573.7</ele>
        <time>1970-01-01T00:18:56.000Z</time>
      </trkpt>
      <trkpt lat="41.072108" lon="-6.736801">
        <ele>573.6</ele>
        <time>1970-01-01T00:18:57.000Z</time>
      </trkpt>
      <trkpt lat="41.072129" lon="-6.736882">
        <ele>573.5</ele>
        <time>1970-01-01T00:18:58.000Z</time>
      </trkpt>
      <trkpt lat="41.072151" lon="-6.736961">
        <ele>573.4</ele>
        <time>1970-01-01T00:18:59.000Z</time>
      </trkpt>
      <trkpt lat="41.072173" lon="-6.737041">
        <ele>573.3</ele>
        <time>1970-01-01T00:19:00.000Z</time>
      </trkpt>
      <trkpt lat="41.072195" lon="-6.737119">
        <ele>573.1</ele>
        <time>1970-01-01T00:19:01.000Z</time>
      </trkpt>
      <trkpt lat="41.072217" lon="-6.737198">
        <ele>572.8</ele>
        <time>1970-01-01T00:19:02.000Z</time>
      </trkpt>
      <trkpt lat="41.072237" lon="-6.737277">
        <ele>572.5</ele>
        <time>1970-01-01T00:19:03.000Z</time>
      </trkpt>
      <trkpt lat="41.072257" lon="-6.737357">
        <ele>572.2</ele>
        <time>1970-01-01T00:19:04.000Z</time>
      </trkpt>
      <trkpt lat="41.072277" lon="-6.737436">
        <ele>572</ele>
        <time>1970-01-01T00:19:05.000Z</time>
      </trkpt>
      <trkpt lat="41.072297" lon="-6.737517">
        <ele>571.7</ele>
        <time>1970-01-01T00:19:06.000Z</time>
      </trkpt>
      <trkpt lat="41.072316" lon="-6.7376">
        <ele>571.4</ele>
        <time>1970-01-01T00:19:07.000Z</time>
      </trkpt>
      <trkpt lat="41.072336" lon="-6.737683">
        <ele>571.1</ele>
        <time>1970-01-01T00:19:08.000Z</time>
      </trkpt>
      <trkpt lat="41.072358" lon="-6.737769">
        <ele>570.7</ele>
        <time>1970-01-01T00:19:09.000Z</time>
      </trkpt>
      <trkpt lat="41.072381" lon="-6.737856">
        <ele>570.4</ele>
        <time>1970-01-01T00:19:10.000Z</time>
      </trkpt>
      <trkpt lat="41.072406" lon="-6.737946">
        <ele>570.2</ele>
        <time>1970-01-01T00:19:11.000Z</time>
      </trkpt>
      <trkpt lat="41.072432" lon="-6.738037">
        <ele>569.9</ele>
        <time>1970-01-01T00:19:12.000Z</time>
      </trkpt>
      <trkpt lat="41.072458" lon="-6.73813">
        <ele>569.6</ele>
        <time>1970-01-01T00:19:13.000Z</time>
      </trkpt>
      <trkpt lat="41.072483" lon="-6.738225">
        <ele>569.3</ele>
        <time>1970-01-01T00:19:14.000Z</time>
      </trkpt>
      <trkpt lat="41.072505" lon="-6.738324">
        <ele>569</ele>
        <time>1970-01-01T00:19:15.000Z</time>
      </trkpt>
      <trkpt lat="41.072522" lon="-6.738426">
        <ele>568.5</ele>
        <time>1970-01-01T00:19:16.000Z</time>
      </trkpt>
      <trkpt lat="41.072535" lon="-6.738531">
        <ele>568.1</ele>
        <time>1970-01-01T00:19:17.000Z</time>
      </trkpt>
      <trkpt lat="41.072544" lon="-6.738641">
        <ele>567.7</ele>
        <time>1970-01-01T00:19:18.000Z</time>
      </trkpt>
      <trkpt lat="41.072553" lon="-6.738753">
        <ele>567.4</ele>
        <time>1970-01-01T00:19:19.000Z</time>
      </trkpt>
      <trkpt lat="41.072562" lon="-6.738866">
        <ele>567</ele>
        <time>1970-01-01T00:19:20.000Z</time>
      </trkpt>
      <trkpt lat="41.072571" lon="-6.738979">
        <ele>566.6</ele>
        <time>1970-01-01T00:19:21.000Z</time>
      </trkpt>
      <trkpt lat="41.072579" lon="-6.739091">
        <ele>566.3</ele>
        <time>1970-01-01T00:19:22.000Z</time>
      </trkpt>
      <trkpt lat="41.072586" lon="-6.7392">
        <ele>566.2</ele>
        <time>1970-01-01T00:19:23.000Z</time>
      </trkpt>
      <trkpt lat="41.072593" lon="-6.739305">
        <ele>566.3</ele>
        <time>1970-01-01T00:19:24.000Z</time>
      </trkpt>
      <trkpt lat="41.0726" lon="-6.739406">
        <ele>566.2</ele>
        <time>1970-01-01T00:19:25.000Z</time>
      </trkpt>
      <trkpt lat="41.072606" lon="-6.739501">
        <ele>566.1</ele>
        <time>1970-01-01T00:19:26.000Z</time>
      </trkpt>
      <trkpt lat="41.072611" lon="-6.739592">
        <ele>566</ele>
        <time>1970-01-01T00:19:27.000Z</time>
      </trkpt>
      <trkpt lat="41.072616" lon="-6.739679">
        <ele>565.9</ele>
        <time>1970-01-01T00:19:28.000Z</time>
      </trkpt>
      <trkpt lat="41.07262" lon="-6.739763">
        <ele>565.8</ele>
        <time>1970-01-01T00:19:29.000Z</time>
      </trkpt>
      <trkpt lat="41.072625" lon="-6.739845">
        <ele>565.7</ele>
        <time>1970-01-01T00:19:30.000Z</time>
      </trkpt>
      <trkpt lat="41.072631" lon="-6.739926">
        <ele>565.7</ele>
        <time>1970-01-01T00:19:31.000Z</time>
      </trkpt>
      <trkpt lat="41.072637" lon="-6.740007">
        <ele>565.7</ele>
        <time>1970-01-01T00:19:32.000Z</time>
      </trkpt>
      <trkpt lat="41.072643" lon="-6.740088">
        <ele>565.7</ele>
        <time>1970-01-01T00:19:33.000Z</time>
      </trkpt>
      <trkpt lat="41.072647" lon="-6.740168">
        <ele>565.6</ele>
        <time>1970-01-01T00:19:34.000Z</time>
      </trkpt>
      <trkpt lat="41.07265" lon="-6.740248">
        <ele>565.6</ele>
        <time>1970-01-01T00:19:35.000Z</time>
      </trkpt>
      <trkpt lat="41.072653" lon="-6.740325">
        <ele>565.6</ele>
        <time>1970-01-01T00:19:36.000Z</time>
      </trkpt>
      <trkpt lat="41.072652" lon="-6.740401">
        <ele>565.6</ele>
        <time>1970-01-01T00:19:37.000Z</time>
      </trkpt>
      <trkpt lat="41.072651" lon="-6.740475">
        <ele>565.6</ele>
        <time>1970-01-01T00:19:38.000Z</time>
      </trkpt>
      <trkpt lat="41.072649" lon="-6.740548">
        <ele>565.7</ele>
        <time>1970-01-01T00:19:39.000Z</time>
      </trkpt>
      <trkpt lat="41.072647" lon="-6.74062">
        <ele>565.7</ele>
        <time>1970-01-01T00:19:40.000Z</time>
      </trkpt>
      <trkpt lat="41.072644" lon="-6.740692">
        <ele>565.8</ele>
        <time>1970-01-01T00:19:41.000Z</time>
      </trkpt>
      <trkpt lat="41.072642" lon="-6.740765">
        <ele>565.9</ele>
        <time>1970-01-01T00:19:42.000Z</time>
      </trkpt>
      <trkpt lat="41.072641" lon="-6.740839">
        <ele>566</ele>
        <time>1970-01-01T00:19:43.000Z</time>
      </trkpt>
      <trkpt lat="41.072639" lon="-6.740912">
        <ele>566.1</ele>
        <time>1970-01-01T00:19:44.000Z</time>
      </trkpt>
      <trkpt lat="41.072634" lon="-6.740984">
        <ele>566.2</ele>
        <time>1970-01-01T00:19:45.000Z</time>
      </trkpt>
      <trkpt lat="41.072622" lon="-6.74105">
        <ele>566.3</ele>
        <time>1970-01-01T00:19:46.000Z</time>
      </trkpt>
      <trkpt lat="41.072598" lon="-6.741104">
        <ele>566.3</ele>
        <time>1970-01-01T00:19:47.000Z</time>
      </trkpt>
      <trkpt lat="41.072563" lon="-6.741143">
        <ele>566.3</ele>
        <time>1970-01-01T00:19:48.000Z</time>
      </trkpt>
      <trkpt lat="41.072519" lon="-6.741166">
        <ele>566.3</ele>
        <time>1970-01-01T00:19:49.000Z</time>
      </trkpt>
      <trkpt lat="41.072475" lon="-6.741172">
        <ele>566.3</ele>
        <time>1970-01-01T00:19:50.000Z</time>
      </trkpt>
      <trkpt lat="41.07243" lon="-6.741162">
        <ele>566.2</ele>
        <time>1970-01-01T00:19:51.000Z</time>
      </trkpt>
      <trkpt lat="41.072385" lon="-6.741141">
        <ele>566.1</ele>
        <time>1970-01-01T00:19:52.000Z</time>
      </trkpt>
      <trkpt lat="41.072339" lon="-6.741115">
        <ele>566</ele>
        <time>1970-01-01T00:19:53.000Z</time>
      </trkpt>
      <trkpt lat="41.07229" lon="-6.741084">
        <ele>565.9</ele>
        <time>1970-01-01T00:19:54.000Z</time>
      </trkpt>
      <trkpt lat="41.072238" lon="-6.741049">
        <ele>565.7</ele>
        <time>1970-01-01T00:19:55.000Z</time>
      </trkpt>
      <trkpt lat="41.072183" lon="-6.741009">
        <ele>565.5</ele>
        <time>1970-01-01T00:19:56.000Z</time>
      </trkpt>
      <trkpt lat="41.072126" lon="-6.740968">
        <ele>565.3</ele>
        <time>1970-01-01T00:19:57.000Z</time>
      </trkpt>
      <trkpt lat="41.072068" lon="-6.740925">
        <ele>565</ele>
        <time>1970-01-01T00:19:58.000Z</time>
      </trkpt>
      <trkpt lat="41.072006" lon="-6.740884">
        <ele>564.8</ele>
        <time>1970-01-01T00:19:59.000Z</time>
      </trkpt>
      <trkpt lat="41.071942" lon="-6.740842">
        <ele>564.5</ele>
        <time>1970-01-01T00:20:00.000Z</time>
      </trkpt>
      <trkpt lat="41.071875" lon="-6.740797">
        <ele>564.2</ele>
        <time>1970-01-01T00:20:01.000Z</time>
      </trkpt>
      <trkpt lat="41.071805" lon="-6.740747">
        <ele>563.9</ele>
        <time>1970-01-01T00:20:02.000Z</time>
      </trkpt>
      <trkpt lat="41.071732" lon="-6.740695">
        <ele>563.4</ele>
        <time>1970-01-01T00:20:03.000Z</time>
      </trkpt>
      <trkpt lat="41.071654" lon="-6.74064">
        <ele>562.7</ele>
        <time>1970-01-01T00:20:04.000Z</time>
      </trkpt>
      <trkpt lat="41.071571" lon="-6.740583">
        <ele>561.7</ele>
        <time>1970-01-01T00:20:05.000Z</time>
      </trkpt>
      <trkpt lat="41.071484" lon="-6.740523">
        <ele>560.3</ele>
        <time>1970-01-01T00:20:06.000Z</time>
      </trkpt>
      <trkpt lat="41.071392" lon="-6.740461">
        <ele>558.7</ele>
        <time>1970-01-01T00:20:07.000Z</time>
      </trkpt>
      <trkpt lat="41.071295" lon="-6.740398">
        <ele>557.4</ele>
        <time>1970-01-01T00:20:08.000Z</time>
      </trkpt>
      <trkpt lat="41.071196" lon="-6.740337">
        <ele>556.3</ele>
        <time>1970-01-01T00:20:09.000Z</time>
      </trkpt>
      <trkpt lat="41.071097" lon="-6.740277">
        <ele>555.6</ele>
        <time>1970-01-01T00:20:10.000Z</time>
      </trkpt>
      <trkpt lat="41.071001" lon="-6.740222">
        <ele>555.8</ele>
        <time>1970-01-01T00:20:11.000Z</time>
      </trkpt>
      <trkpt lat="41.070914" lon="-6.740172">
        <ele>556.3</ele>
        <time>1970-01-01T00:20:12.000Z</time>
      </trkpt>
      <trkpt lat="41.070835" lon="-6.740127">
        <ele>556.7</ele>
        <time>1970-01-01T00:20:13.000Z</time>
      </trkpt>
      <trkpt lat="41.070763" lon="-6.740086">
        <ele>557</ele>
        <time>1970-01-01T00:20:14.000Z</time>
      </trkpt>
      <trkpt lat="41.070698" lon="-6.740048">
        <ele>557.4</ele>
        <time>1970-01-01T00:20:15.000Z</time>
      </trkpt>
      <trkpt lat="41.070637" lon="-6.740014">
        <ele>557.7</ele>
        <time>1970-01-01T00:20:16.000Z</time>
      </trkpt>
      <trkpt lat="41.07058" lon="-6.739981">
        <ele>558.1</ele>
        <time>1970-01-01T00:20:17.000Z</time>
      </trkpt>
      <trkpt lat="41.070524" lon="-6.739949">
        <ele>558.4</ele>
        <time>1970-01-01T00:20:18.000Z</time>
      </trkpt>
      <trkpt lat="41.070469" lon="-6.739917">
        <ele>558.7</ele>
        <time>1970-01-01T00:20:19.000Z</time>
      </trkpt>
      <trkpt lat="41.070413" lon="-6.739885">
        <ele>558.8</ele>
        <time>1970-01-01T00:20:20.000Z</time>
      </trkpt>
      <trkpt lat="41.070356" lon="-6.739853">
        <ele>559</ele>
        <time>1970-01-01T00:20:21.000Z</time>
      </trkpt>
      <trkpt lat="41.0703" lon="-6.73982">
        <ele>559.2</ele>
        <time>1970-01-01T00:20:22.000Z</time>
      </trkpt>
      <trkpt lat="41.070245" lon="-6.739788">
        <ele>559.4</ele>
        <time>1970-01-01T00:20:23.000Z</time>
      </trkpt>
      <trkpt lat="41.070191" lon="-6.739757">
        <ele>559.6</ele>
        <time>1970-01-01T00:20:24.000Z</time>
      </trkpt>
      <trkpt lat="41.070139" lon="-6.739727">
        <ele>559.9</ele>
        <time>1970-01-01T00:20:25.000Z</time>
      </trkpt>
      <trkpt lat="41.070087" lon="-6.739698">
        <ele>560.1</ele>
        <time>1970-01-01T00:20:26.000Z</time>
      </trkpt>
      <trkpt lat="41.070035" lon="-6.739667">
        <ele>560.5</ele>
        <time>1970-01-01T00:20:27.000Z</time>
      </trkpt>
      <trkpt lat="41.069982" lon="-6.739636">
        <ele>560.8</ele>
        <time>1970-01-01T00:20:28.000Z</time>
      </trkpt>
      <trkpt lat="41.069928" lon="-6.739605">
        <ele>561.2</ele>
        <time>1970-01-01T00:20:29.000Z</time>
      </trkpt>
      <trkpt lat="41.069874" lon="-6.739576">
        <ele>561.4</ele>
        <time>1970-01-01T00:20:30.000Z</time>
      </trkpt>
      <trkpt lat="41.06982" lon="-6.739545">
        <ele>561.6</ele>
        <time>1970-01-01T00:20:31.000Z</time>
      </trkpt>
      <trkpt lat="41.069767" lon="-6.739513">
        <ele>561.7</ele>
        <time>1970-01-01T00:20:32.000Z</time>
      </trkpt>
      <trkpt lat="41.069714" lon="-6.739482">
        <ele>561.7</ele>
        <time>1970-01-01T00:20:33.000Z</time>
      </trkpt>
      <trkpt lat="41.069661" lon="-6.739451">
        <ele>561.7</ele>
        <time>1970-01-01T00:20:34.000Z</time>
      </trkpt>
      <trkpt lat="41.069608" lon="-6.739421">
        <ele>561.7</ele>
        <time>1970-01-01T00:20:35.000Z</time>
      </trkpt>
      <trkpt lat="41.069555" lon="-6.73939">
        <ele>561.7</ele>
        <time>1970-01-01T00:20:36.000Z</time>
      </trkpt>
      <trkpt lat="41.069501" lon="-6.739357">
        <ele>561.8</ele>
        <time>1970-01-01T00:20:37.000Z</time>
      </trkpt>
      <trkpt lat="41.069446" lon="-6.739324">
        <ele>561.9</ele>
        <time>1970-01-01T00:20:38.000Z</time>
      </trkpt>
      <trkpt lat="41.069389" lon="-6.739291">
        <ele>562.1</ele>
        <time>1970-01-01T00:20:39.000Z</time>
      </trkpt>
      <trkpt lat="41.069332" lon="-6.739257">
        <ele>562.4</ele>
        <time>1970-01-01T00:20:40.000Z</time>
      </trkpt>
      <trkpt lat="41.069274" lon="-6.739223">
        <ele>562.6</ele>
        <time>1970-01-01T00:20:41.000Z</time>
      </trkpt>
      <trkpt lat="41.069216" lon="-6.739191">
        <ele>562.8</ele>
        <time>1970-01-01T00:20:42.000Z</time>
      </trkpt>
      <trkpt lat="41.069159" lon="-6.73916">
        <ele>563.1</ele>
        <time>1970-01-01T00:20:43.000Z</time>
      </trkpt>
      <trkpt lat="41.069104" lon="-6.739131">
        <ele>563.4</ele>
        <time>1970-01-01T00:20:44.000Z</time>
      </trkpt>
      <trkpt lat="41.069052" lon="-6.739104">
        <ele>563.7</ele>
        <time>1970-01-01T00:20:45.000Z</time>
      </trkpt>
      <trkpt lat="41.069004" lon="-6.73908">
        <ele>564</ele>
        <time>1970-01-01T00:20:46.000Z</time>
      </trkpt>
      <trkpt lat="41.06896" lon="-6.739057">
        <ele>564.4</ele>
        <time>1970-01-01T00:20:47.000Z</time>
      </trkpt>
      <trkpt lat="41.068919" lon="-6.739035">
        <ele>564.8</ele>
        <time>1970-01-01T00:20:48.000Z</time>
      </trkpt>
      <trkpt lat="41.06888" lon="-6.739014">
        <ele>565.2</ele>
        <time>1970-01-01T00:20:49.000Z</time>
      </trkpt>
      <trkpt lat="41.068843" lon="-6.738995">
        <ele>565.7</ele>
        <time>1970-01-01T00:20:50.000Z</time>
      </trkpt>
      <trkpt lat="41.06881" lon="-6.738973">
        <ele>566.1</ele>
        <time>1970-01-01T00:20:51.000Z</time>
      </trkpt>
      <trkpt lat="41.068778" lon="-6.738952">
        <ele>566.5</ele>
        <time>1970-01-01T00:20:52.000Z</time>
      </trkpt>
      <trkpt lat="41.068747" lon="-6.738931">
        <ele>566.9</ele>
        <time>1970-01-01T00:20:53.000Z</time>
      </trkpt>
      <trkpt lat="41.068715" lon="-6.738913">
        <ele>567.2</ele>
        <time>1970-01-01T00:20:54.000Z</time>
      </trkpt>
      <trkpt lat="41.068681" lon="-6.738895">
        <ele>567.4</ele>
        <time>1970-01-01T00:20:55.000Z</time>
      </trkpt>
      <trkpt lat="41.068646" lon="-6.738879">
        <ele>567.7</ele>
        <time>1970-01-01T00:20:56.000Z</time>
      </trkpt>
      <trkpt lat="41.068612" lon="-6.738862">
        <ele>567.8</ele>
        <time>1970-01-01T00:20:57.000Z</time>
      </trkpt>
      <trkpt lat="41.068578" lon="-6.738845">
        <ele>568</ele>
        <time>1970-01-01T00:20:58.000Z</time>
      </trkpt>
      <trkpt lat="41.068545" lon="-6.738827">
        <ele>568.1</ele>
        <time>1970-01-01T00:20:59.000Z</time>
      </trkpt>
      <trkpt lat="41.068512" lon="-6.738808">
        <ele>568.2</ele>
        <time>1970-01-01T00:21:00.000Z</time>
      </trkpt>
      <trkpt lat="41.068479" lon="-6.738786">
        <ele>568.3</ele>
        <time>1970-01-01T00:21:01.000Z</time>
      </trkpt>
      <trkpt lat="41.068446" lon="-6.738763">
        <ele>568.3</ele>
        <time>1970-01-01T00:21:02.000Z</time>
      </trkpt>
      <trkpt lat="41.068411" lon="-6.738739">
        <ele>568.3</ele>
        <time>1970-01-01T00:21:03.000Z</time>
      </trkpt>
      <trkpt lat="41.068374" lon="-6.738716">
        <ele>568.4</ele>
        <time>1970-01-01T00:21:04.000Z</time>
      </trkpt>
      <trkpt lat="41.068333" lon="-6.738693">
        <ele>568.3</ele>
        <time>1970-01-01T00:21:05.000Z</time>
      </trkpt>
      <trkpt lat="41.068292" lon="-6.738668">
        <ele>568.2</ele>
        <time>1970-01-01T00:21:06.000Z</time>
      </trkpt>
      <trkpt lat="41.068248" lon="-6.738642">
        <ele>568</ele>
        <time>1970-01-01T00:21:07.000Z</time>
      </trkpt>
      <trkpt lat="41.068201" lon="-6.738613">
        <ele>567.6</ele>
        <time>1970-01-01T00:21:08.000Z</time>
      </trkpt>
      <trkpt lat="41.068149" lon="-6.738584">
        <ele>567.2</ele>
        <time>1970-01-01T00:21:09.000Z</time>
      </trkpt>
      <trkpt lat="41.068094" lon="-6.738553">
        <ele>566.6</ele>
        <time>1970-01-01T00:21:10.000Z</time>
      </trkpt>
      <trkpt lat="41.068034" lon="-6.738519">
        <ele>566.1</ele>
        <time>1970-01-01T00:21:11.000Z</time>
      </trkpt>
      <trkpt lat="41.067971" lon="-6.738483">
        <ele>565.4</ele>
        <time>1970-01-01T00:21:12.000Z</time>
      </trkpt>
      <trkpt lat="41.067906" lon="-6.738444">
        <ele>564.8</ele>
        <time>1970-01-01T00:21:13.000Z</time>
      </trkpt>
      <trkpt lat="41.067839" lon="-6.738405">
        <ele>564.3</ele>
        <time>1970-01-01T00:21:14.000Z</time>
      </trkpt>
      <trkpt lat="41.067769" lon="-6.738367">
        <ele>563.7</ele>
        <time>1970-01-01T00:21:15.000Z</time>
      </trkpt>
      <trkpt lat="41.067696" lon="-6.738331">
        <ele>563.2</ele>
        <time>1970-01-01T00:21:16.000Z</time>
      </trkpt>
      <trkpt lat="41.067622" lon="-6.738297">
        <ele>562.8</ele>
        <time>1970-01-01T00:21:17.000Z</time>
      </trkpt>
      <trkpt lat="41.067548" lon="-6.738267">
        <ele>562.5</ele>
        <time>1970-01-01T00:21:18.000Z</time>
      </trkpt>
      <trkpt lat="41.067477" lon="-6.73824">
        <ele>562.4</ele>
        <time>1970-01-01T00:21:19.000Z</time>
      </trkpt>
      <trkpt lat="41.067408" lon="-6.738216">
        <ele>562.5</ele>
        <time>1970-01-01T00:21:20.000Z</time>
      </trkpt>
      <trkpt lat="41.067341" lon="-6.738195">
        <ele>562.6</ele>
        <time>1970-01-01T00:21:21.000Z</time>
      </trkpt>
      <trkpt lat="41.067278" lon="-6.738176">
        <ele>562.9</ele>
        <time>1970-01-01T00:21:22.000Z</time>
      </trkpt>
      <trkpt lat="41.06722" lon="-6.738159">
        <ele>563.2</ele>
        <time>1970-01-01T00:21:23.000Z</time>
      </trkpt>
      <trkpt lat="41.067168" lon="-6.738146">
        <ele>563.6</ele>
        <time>1970-01-01T00:21:24.000Z</time>
      </trkpt>
      <trkpt lat="41.067121" lon="-6.738137">
        <ele>563.9</ele>
        <time>1970-01-01T00:21:25.000Z</time>
      </trkpt>
      <trkpt lat="41.067077" lon="-6.738129">
        <ele>564.1</ele>
        <time>1970-01-01T00:21:26.000Z</time>
      </trkpt>
      <trkpt lat="41.067036" lon="-6.738119">
        <ele>564.3</ele>
        <time>1970-01-01T00:21:27.000Z</time>
      </trkpt>
      <trkpt lat="41.066996" lon="-6.738109">
        <ele>564.4</ele>
        <time>1970-01-01T00:21:28.000Z</time>
      </trkpt>
      <trkpt lat="41.066957" lon="-6.7381">
        <ele>564.5</ele>
        <time>1970-01-01T00:21:29.000Z</time>
      </trkpt>
      <trkpt lat="41.06692" lon="-6.738091">
        <ele>564.4</ele>
        <time>1970-01-01T00:21:30.000Z</time>
      </trkpt>
      <trkpt lat="41.066884" lon="-6.738083">
        <ele>564.1</ele>
        <time>1970-01-01T00:21:31.000Z</time>
      </trkpt>
      <trkpt lat="41.06685" lon="-6.738074">
        <ele>563.7</ele>
        <time>1970-01-01T00:21:32.000Z</time>
      </trkpt>
      <trkpt lat="41.066817" lon="-6.738066">
        <ele>563.1</ele>
        <time>1970-01-01T00:21:33.000Z</time>
      </trkpt>
      <trkpt lat="41.066784" lon="-6.738059">
        <ele>562</ele>
        <time>1970-01-01T00:21:34.000Z</time>
      </trkpt>
      <trkpt lat="41.066752" lon="-6.738051">
        <ele>562.3</ele>
        <time>1970-01-01T00:21:35.000Z</time>
      </trkpt>
      <trkpt lat="41.066722" lon="-6.738043">
        <ele>562.6</ele>
        <time>1970-01-01T00:21:36.000Z</time>
      </trkpt>
      <trkpt lat="41.066692" lon="-6.738036">
        <ele>562.9</ele>
        <time>1970-01-01T00:21:37.000Z</time>
      </trkpt>
      <trkpt lat="41.066662" lon="-6.73803">
        <ele>563.2</ele>
        <time>1970-01-01T00:21:38.000Z</time>
      </trkpt>
      <trkpt lat="41.066632" lon="-6.738024">
        <ele>563.5</ele>
        <time>1970-01-01T00:21:39.000Z</time>
      </trkpt>
      <trkpt lat="41.066603" lon="-6.738016">
        <ele>563.7</ele>
        <time>1970-01-01T00:21:40.000Z</time>
      </trkpt>
      <trkpt lat="41.066574" lon="-6.738008">
        <ele>564</ele>
        <time>1970-01-01T00:21:41.000Z</time>
      </trkpt>
      <trkpt lat="41.066545" lon="-6.738">
        <ele>564.2</ele>
        <time>1970-01-01T00:21:42.000Z</time>
      </trkpt>
      <trkpt lat="41.066516" lon="-6.737994">
        <ele>564.5</ele>
        <time>1970-01-01T00:21:43.000Z</time>
      </trkpt>
      <trkpt lat="41.066487" lon="-6.737987">
        <ele>564.7</ele>
        <time>1970-01-01T00:21:44.000Z</time>
      </trkpt>
      <trkpt lat="41.066459" lon="-6.73798">
        <ele>565</ele>
        <time>1970-01-01T00:21:45.000Z</time>
      </trkpt>
      <trkpt lat="41.066431" lon="-6.73797">
        <ele>565.2</ele>
        <time>1970-01-01T00:21:46.000Z</time>
      </trkpt>
      <trkpt lat="41.066403" lon="-6.737961">
        <ele>565.5</ele>
        <time>1970-01-01T00:21:47.000Z</time>
      </trkpt>
      <trkpt lat="41.066376" lon="-6.737951">
        <ele>565.7</ele>
        <time>1970-01-01T00:21:48.000Z</time>
      </trkpt>
      <trkpt lat="41.066349" lon="-6.737943">
        <ele>566</ele>
        <time>1970-01-01T00:21:49.000Z</time>
      </trkpt>
      <trkpt lat="41.066323" lon="-6.737934">
        <ele>566.2</ele>
        <time>1970-01-01T00:21:50.000Z</time>
      </trkpt>
      <trkpt lat="41.066298" lon="-6.737926">
        <ele>566.4</ele>
        <time>1970-01-01T00:21:51.000Z</time>
      </trkpt>
      <trkpt lat="41.066273" lon="-6.73792">
        <ele>566.7</ele>
        <time>1970-01-01T00:21:52.000Z</time>
      </trkpt>
      <trkpt lat="41.066248" lon="-6.737914">
        <ele>566.9</ele>
        <time>1970-01-01T00:21:53.000Z</time>
      </trkpt>
      <trkpt lat="41.066223" lon="-6.737909">
        <ele>567.1</ele>
        <time>1970-01-01T00:21:54.000Z</time>
      </trkpt>
      <trkpt lat="41.066197" lon="-6.737905">
        <ele>567.3</ele>
        <time>1970-01-01T00:21:55.000Z</time>
      </trkpt>
      <trkpt lat="41.066171" lon="-6.737901">
        <ele>567.5</ele>
        <time>1970-01-01T00:21:56.000Z</time>
      </trkpt>
      <trkpt lat="41.066145" lon="-6.737896">
        <ele>567.7</ele>
        <time>1970-01-01T00:21:57.000Z</time>
      </trkpt>
      <trkpt lat="41.06612" lon="-6.73789">
        <ele>567.9</ele>
        <time>1970-01-01T00:21:58.000Z</time>
      </trkpt>
      <trkpt lat="41.066094" lon="-6.737884">
        <ele>568.1</ele>
        <time>1970-01-01T00:21:59.000Z</time>
      </trkpt>
      <trkpt lat="41.066069" lon="-6.737878">
        <ele>568.3</ele>
        <time>1970-01-01T00:22:00.000Z</time>
      </trkpt>
      <trkpt lat="41.066043" lon="-6.737873">
        <ele>568.6</ele>
        <time>1970-01-01T00:22:01.000Z</time>
      </trkpt>
      <trkpt lat="41.066017" lon="-6.737866">
        <ele>568.8</ele>
        <time>1970-01-01T00:22:02.000Z</time>
      </trkpt>
      <trkpt lat="41.065992" lon="-6.737859">
        <ele>569.1</ele>
        <time>1970-01-01T00:22:03.000Z</time>
      </trkpt>
      <trkpt lat="41.065967" lon="-6.737851">
        <ele>569.3</ele>
        <time>1970-01-01T00:22:04.000Z</time>
      </trkpt>
      <trkpt lat="41.065941" lon="-6.737844">
        <ele>569.6</ele>
        <time>1970-01-01T00:22:05.000Z</time>
      </trkpt>
      <trkpt lat="41.065915" lon="-6.737837">
        <ele>569.8</ele>
        <time>1970-01-01T00:22:06.000Z</time>
      </trkpt>
      <trkpt lat="41.06589" lon="-6.73783">
        <ele>570.1</ele>
        <time>1970-01-01T00:22:07.000Z</time>
      </trkpt>
      <trkpt lat="41.065864" lon="-6.737824">
        <ele>570.3</ele>
        <time>1970-01-01T00:22:08.000Z</time>
      </trkpt>
      <trkpt lat="41.065839" lon="-6.737817">
        <ele>570.6</ele>
        <time>1970-01-01T00:22:09.000Z</time>
      </trkpt>
      <trkpt lat="41.065813" lon="-6.737811">
        <ele>570.8</ele>
        <time>1970-01-01T00:22:10.000Z</time>
      </trkpt>
      <trkpt lat="41.065789" lon="-6.737805">
        <ele>571.1</ele>
        <time>1970-01-01T00:22:11.000Z</time>
      </trkpt>
      <trkpt lat="41.065764" lon="-6.737798">
        <ele>571.4</ele>
        <time>1970-01-01T00:22:12.000Z</time>
      </trkpt>
      <trkpt lat="41.06574" lon="-6.737792">
        <ele>571.7</ele>
        <time>1970-01-01T00:22:13.000Z</time>
      </trkpt>
      <trkpt lat="41.065715" lon="-6.737786">
        <ele>572</ele>
        <time>1970-01-01T00:22:14.000Z</time>
      </trkpt>
      <trkpt lat="41.065689" lon="-6.737781">
        <ele>572.4</ele>
        <time>1970-01-01T00:22:15.000Z</time>
      </trkpt>
      <trkpt lat="41.065664" lon="-6.737777">
        <ele>572.7</ele>
        <time>1970-01-01T00:22:16.000Z</time>
      </trkpt>
      <trkpt lat="41.065639" lon="-6.737771">
        <ele>573.1</ele>
        <time>1970-01-01T00:22:17.000Z</time>
      </trkpt>
      <trkpt lat="41.065614" lon="-6.737765">
        <ele>573.4</ele>
        <time>1970-01-01T00:22:18.000Z</time>
      </trkpt>
      <trkpt lat="41.065591" lon="-6.737757">
        <ele>573.7</ele>
        <time>1970-01-01T00:22:19.000Z</time>
      </trkpt>
      <trkpt lat="41.065567" lon="-6.73775">
        <ele>574</ele>
        <time>1970-01-01T00:22:20.000Z</time>
      </trkpt>
      <trkpt lat="41.065543" lon="-6.737744">
        <ele>574.3</ele>
        <time>1970-01-01T00:22:21.000Z</time>
      </trkpt>
      <trkpt lat="41.065519" lon="-6.73774">
        <ele>574.6</ele>
        <time>1970-01-01T00:22:22.000Z</time>
      </trkpt>
      <trkpt lat="41.065495" lon="-6.737735">
        <ele>574.8</ele>
        <time>1970-01-01T00:22:23.000Z</time>
      </trkpt>
      <trkpt lat="41.065472" lon="-6.737732">
        <ele>575</ele>
        <time>1970-01-01T00:22:24.000Z</time>
      </trkpt>
      <trkpt lat="41.065449" lon="-6.737728">
        <ele>575.3</ele>
        <time>1970-01-01T00:22:25.000Z</time>
      </trkpt>
      <trkpt lat="41.065426" lon="-6.737726">
        <ele>575.5</ele>
        <time>1970-01-01T00:22:26.000Z</time>
      </trkpt>
      <trkpt lat="41.065403" lon="-6.737722">
        <ele>575.7</ele>
        <time>1970-01-01T00:22:27.000Z</time>
      </trkpt>
      <trkpt lat="41.065381" lon="-6.737718">
        <ele>575.9</ele>
        <time>1970-01-01T00:22:28.000Z</time>
      </trkpt>
      <trkpt lat="41.065359" lon="-6.737712">
        <ele>576.1</ele>
        <time>1970-01-01T00:22:29.000Z</time>
      </trkpt>
      <trkpt lat="41.065336" lon="-6.737707">
        <ele>576.3</ele>
        <time>1970-01-01T00:22:30.000Z</time>
      </trkpt>
      <trkpt lat="41.065314" lon="-6.737703">
        <ele>576.6</ele>
        <time>1970-01-01T00:22:31.000Z</time>
      </trkpt>
      <trkpt lat="41.065291" lon="-6.737699">
        <ele>576.8</ele>
        <time>1970-01-01T00:22:32.000Z</time>
      </trkpt>
      <trkpt lat="41.065269" lon="-6.737696">
        <ele>577</ele>
        <time>1970-01-01T00:22:33.000Z</time>
      </trkpt>
      <trkpt lat="41.065246" lon="-6.737693">
        <ele>577.3</ele>
        <time>1970-01-01T00:22:34.000Z</time>
      </trkpt>
      <trkpt lat="41.065223" lon="-6.737692">
        <ele>577.6</ele>
        <time>1970-01-01T00:22:35.000Z</time>
      </trkpt>
      <trkpt lat="41.0652" lon="-6.73769">
        <ele>577.8</ele>
        <time>1970-01-01T00:22:36.000Z</time>
      </trkpt>
      <trkpt lat="41.065177" lon="-6.737687">
        <ele>578.2</ele>
        <time>1970-01-01T00:22:37.000Z</time>
      </trkpt>
      <trkpt lat="41.065153" lon="-6.737683">
        <ele>578.5</ele>
        <time>1970-01-01T00:22:38.000Z</time>
      </trkpt>
      <trkpt lat="41.06513" lon="-6.737678">
        <ele>578.8</ele>
        <time>1970-01-01T00:22:39.000Z</time>
      </trkpt>
      <trkpt lat="41.065106" lon="-6.737674">
        <ele>579.1</ele>
        <time>1970-01-01T00:22:40.000Z</time>
      </trkpt>
      <trkpt lat="41.065082" lon="-6.737669">
        <ele>579.4</ele>
        <time>1970-01-01T00:22:41.000Z</time>
      </trkpt>
      <trkpt lat="41.065058" lon="-6.737666">
        <ele>579.7</ele>
        <time>1970-01-01T00:22:42.000Z</time>
      </trkpt>
      <trkpt lat="41.065034" lon="-6.737664">
        <ele>580</ele>
        <time>1970-01-01T00:22:43.000Z</time>
      </trkpt>
      <trkpt lat="41.06501" lon="-6.737662">
        <ele>580.3</ele>
        <time>1970-01-01T00:22:44.000Z</time>
      </trkpt>
      <trkpt lat="41.064985" lon="-6.737661">
        <ele>580.5</ele>
        <time>1970-01-01T00:22:45.000Z</time>
      </trkpt>
      <trkpt lat="41.06496" lon="-6.737661">
        <ele>580.7</ele>
        <time>1970-01-01T00:22:46.000Z</time>
      </trkpt>
      <trkpt lat="41.064934" lon="-6.737662">
        <ele>580.9</ele>
        <time>1970-01-01T00:22:47.000Z</time>
      </trkpt>
      <trkpt lat="41.064909" lon="-6.737663">
        <ele>581.1</ele>
        <time>1970-01-01T00:22:48.000Z</time>
      </trkpt>
      <trkpt lat="41.064883" lon="-6.737662">
        <ele>581.3</ele>
        <time>1970-01-01T00:22:49.000Z</time>
      </trkpt>
      <trkpt lat="41.064857" lon="-6.73766">
        <ele>581.4</ele>
        <time>1970-01-01T00:22:50.000Z</time>
      </trkpt>
      <trkpt lat="41.06483" lon="-6.737656">
        <ele>581.5</ele>
        <time>1970-01-01T00:22:51.000Z</time>
      </trkpt>
      <trkpt lat="41.064803" lon="-6.737654">
        <ele>581.6</ele>
        <time>1970-01-01T00:22:52.000Z</time>
      </trkpt>
      <trkpt lat="41.064775" lon="-6.737651">
        <ele>581.8</ele>
        <time>1970-01-01T00:22:53.000Z</time>
      </trkpt>
      <trkpt lat="41.064748" lon="-6.737647">
        <ele>582.1</ele>
        <time>1970-01-01T00:22:54.000Z</time>
      </trkpt>
      <trkpt lat="41.06472" lon="-6.737642">
        <ele>582.4</ele>
        <time>1970-01-01T00:22:55.000Z</time>
      </trkpt>
      <trkpt lat="41.064691" lon="-6.737639">
        <ele>582.7</ele>
        <time>1970-01-01T00:22:56.000Z</time>
      </trkpt>
      <trkpt lat="41.064661" lon="-6.737637">
        <ele>582.9</ele>
        <time>1970-01-01T00:22:57.000Z</time>
      </trkpt>
      <trkpt lat="41.06463" lon="-6.737635">
        <ele>583.1</ele>
        <time>1970-01-01T00:22:58.000Z</time>
      </trkpt>
      <trkpt lat="41.064599" lon="-6.737631">
        <ele>583.2</ele>
        <time>1970-01-01T00:22:59.000Z</time>
      </trkpt>
      <trkpt lat="41.064567" lon="-6.737627">
        <ele>583.3</ele>
        <time>1970-01-01T00:23:00.000Z</time>
      </trkpt>
      <trkpt lat="41.064534" lon="-6.737624">
        <ele>583.3</ele>
        <time>1970-01-01T00:23:01.000Z</time>
      </trkpt>
      <trkpt lat="41.0645" lon="-6.737621">
        <ele>583.3</ele>
        <time>1970-01-01T00:23:02.000Z</time>
      </trkpt>
      <trkpt lat="41.064465" lon="-6.737618">
        <ele>583.3</ele>
        <time>1970-01-01T00:23:03.000Z</time>
      </trkpt>
      <trkpt lat="41.06443" lon="-6.737612">
        <ele>583.3</ele>
        <time>1970-01-01T00:23:04.000Z</time>
      </trkpt>
      <trkpt lat="41.064394" lon="-6.737606">
        <ele>583.3</ele>
        <time>1970-01-01T00:23:05.000Z</time>
      </trkpt>
      <trkpt lat="41.064358" lon="-6.737601">
        <ele>583.3</ele>
        <time>1970-01-01T00:23:06.000Z</time>
      </trkpt>
      <trkpt lat="41.064321" lon="-6.737598">
        <ele>583.3</ele>
        <time>1970-01-01T00:23:07.000Z</time>
      </trkpt>
      <trkpt lat="41.064285" lon="-6.737595">
        <ele>583.2</ele>
        <time>1970-01-01T00:23:08.000Z</time>
      </trkpt>
      <trkpt lat="41.064248" lon="-6.737591">
        <ele>583.2</ele>
        <time>1970-01-01T00:23:09.000Z</time>
      </trkpt>
      <trkpt lat="41.06421" lon="-6.737588">
        <ele>583.2</ele>
        <time>1970-01-01T00:23:10.000Z</time>
      </trkpt>
      <trkpt lat="41.064171" lon="-6.737584">
        <ele>583.1</ele>
        <time>1970-01-01T00:23:11.000Z</time>
      </trkpt>
      <trkpt lat="41.064132" lon="-6.73758">
        <ele>583.1</ele>
        <time>1970-01-01T00:23:12.000Z</time>
      </trkpt>
      <trkpt lat="41.064092" lon="-6.737575">
        <ele>583.1</ele>
        <time>1970-01-01T00:23:13.000Z</time>
      </trkpt>
      <trkpt lat="41.06405" lon="-6.73757">
        <ele>583</ele>
        <time>1970-01-01T00:23:14.000Z</time>
      </trkpt>
      <trkpt lat="41.064008" lon="-6.737565">
        <ele>583</ele>
        <time>1970-01-01T00:23:15.000Z</time>
      </trkpt>
      <trkpt lat="41.063965" lon="-6.737558">
        <ele>582.9</ele>
        <time>1970-01-01T00:23:16.000Z</time>
      </trkpt>
      <trkpt lat="41.063921" lon="-6.73755">
        <ele>582.9</ele>
        <time>1970-01-01T00:23:17.000Z</time>
      </trkpt>
      <trkpt lat="41.063876" lon="-6.737541">
        <ele>582.8</ele>
        <time>1970-01-01T00:23:18.000Z</time>
      </trkpt>
      <trkpt lat="41.063832" lon="-6.737531">
        <ele>582.6</ele>
        <time>1970-01-01T00:23:19.000Z</time>
      </trkpt>
      <trkpt lat="41.063787" lon="-6.737522">
        <ele>582.5</ele>
        <time>1970-01-01T00:23:20.000Z</time>
      </trkpt>
      <trkpt lat="41.063743" lon="-6.737513">
        <ele>582.4</ele>
        <time>1970-01-01T00:23:21.000Z</time>
      </trkpt>
      <trkpt lat="41.063697" lon="-6.737505">
        <ele>582.2</ele>
        <time>1970-01-01T00:23:22.000Z</time>
      </trkpt>
      <trkpt lat="41.063652" lon="-6.737496">
        <ele>582.1</ele>
        <time>1970-01-01T00:23:23.000Z</time>
      </trkpt>
      <trkpt lat="41.063607" lon="-6.737488">
        <ele>582</ele>
        <time>1970-01-01T00:23:24.000Z</time>
      </trkpt>
      <trkpt lat="41.063562" lon="-6.737482">
        <ele>581.9</ele>
        <time>1970-01-01T00:23:25.000Z</time>
      </trkpt>
      <trkpt lat="41.063517" lon="-6.737476">
        <ele>581.8</ele>
        <time>1970-01-01T00:23:26.000Z</time>
      </trkpt>
      <trkpt lat="41.063473" lon="-6.737472">
        <ele>581.7</ele>
        <time>1970-01-01T00:23:27.000Z</time>
      </trkpt>
      <trkpt lat="41.06343" lon="-6.737467">
        <ele>581.6</ele>
        <time>1970-01-01T00:23:28.000Z</time>
      </trkpt>
      <trkpt lat="41.063389" lon="-6.737463">
        <ele>581.5</ele>
        <time>1970-01-01T00:23:29.000Z</time>
      </trkpt>
      <trkpt lat="41.063348" lon="-6.737462">
        <ele>581.4</ele>
        <time>1970-01-01T00:23:30.000Z</time>
      </trkpt>
      <trkpt lat="41.063308" lon="-6.737462">
        <ele>581.4</ele>
        <time>1970-01-01T00:23:31.000Z</time>
      </trkpt>
      <trkpt lat="41.063267" lon="-6.737464">
        <ele>581.3</ele>
        <time>1970-01-01T00:23:32.000Z</time>
      </trkpt>
      <trkpt lat="41.063226" lon="-6.737465">
        <ele>581.1</ele>
        <time>1970-01-01T00:23:33.000Z</time>
      </trkpt>
      <trkpt lat="41.063186" lon="-6.737465">
        <ele>581</ele>
        <time>1970-01-01T00:23:34.000Z</time>
      </trkpt>
      <trkpt lat="41.063145" lon="-6.737465">
        <ele>580.9</ele>
        <time>1970-01-01T00:23:35.000Z</time>
      </trkpt>
      <trkpt lat="41.063105" lon="-6.737464">
        <ele>580.7</ele>
        <time>1970-01-01T00:23:36.000Z</time>
      </trkpt>
      <trkpt lat="41.063066" lon="-6.737462">
        <ele>580.7</ele>
        <time>1970-01-01T00:23:37.000Z</time>
      </trkpt>
      <trkpt lat="41.063027" lon="-6.737459">
        <ele>580.6</ele>
        <time>1970-01-01T00:23:38.000Z</time>
      </trkpt>
      <trkpt lat="41.062987" lon="-6.737457">
        <ele>580.5</ele>
        <time>1970-01-01T00:23:39.000Z</time>
      </trkpt>
      <trkpt lat="41.062948" lon="-6.737456">
        <ele>580.4</ele>
        <time>1970-01-01T00:23:40.000Z</time>
      </trkpt>
      <trkpt lat="41.062907" lon="-6.737456">
        <ele>580.4</ele>
        <time>1970-01-01T00:23:41.000Z</time>
      </trkpt>
      <trkpt lat="41.062865" lon="-6.737456">
        <ele>580.3</ele>
        <time>1970-01-01T00:23:42.000Z</time>
      </trkpt>
      <trkpt lat="41.062823" lon="-6.737456">
        <ele>580.2</ele>
        <time>1970-01-01T00:23:43.000Z</time>
      </trkpt>
      <trkpt lat="41.06278" lon="-6.737456">
        <ele>580.2</ele>
        <time>1970-01-01T00:23:44.000Z</time>
      </trkpt>
      <trkpt lat="41.062737" lon="-6.737455">
        <ele>580.2</ele>
        <time>1970-01-01T00:23:45.000Z</time>
      </trkpt>
      <trkpt lat="41.062695" lon="-6.737454">
        <ele>580.3</ele>
        <time>1970-01-01T00:23:46.000Z</time>
      </trkpt>
      <trkpt lat="41.062653" lon="-6.737453">
        <ele>580.3</ele>
        <time>1970-01-01T00:23:47.000Z</time>
      </trkpt>
      <trkpt lat="41.062611" lon="-6.737452">
        <ele>580.3</ele>
        <time>1970-01-01T00:23:48.000Z</time>
      </trkpt>
      <trkpt lat="41.062568" lon="-6.737451">
        <ele>580.4</ele>
        <time>1970-01-01T00:23:49.000Z</time>
      </trkpt>
      <trkpt lat="41.062524" lon="-6.737451">
        <ele>580.4</ele>
        <time>1970-01-01T00:23:50.000Z</time>
      </trkpt>
      <trkpt lat="41.062481" lon="-6.737452">
        <ele>580.3</ele>
        <time>1970-01-01T00:23:51.000Z</time>
      </trkpt>
      <trkpt lat="41.062438" lon="-6.737454">
        <ele>580.3</ele>
        <time>1970-01-01T00:23:52.000Z</time>
      </trkpt>
      <trkpt lat="41.062393" lon="-6.737456">
        <ele>580.2</ele>
        <time>1970-01-01T00:23:53.000Z</time>
      </trkpt>
      <trkpt lat="41.062347" lon="-6.73746">
        <ele>580</ele>
        <time>1970-01-01T00:23:54.000Z</time>
      </trkpt>
      <trkpt lat="41.062299" lon="-6.737462">
        <ele>579.9</ele>
        <time>1970-01-01T00:23:55.000Z</time>
      </trkpt>
      <trkpt lat="41.06225" lon="-6.737465">
        <ele>579.7</ele>
        <time>1970-01-01T00:23:56.000Z</time>
      </trkpt>
      <trkpt lat="41.062199" lon="-6.737469">
        <ele>579.5</ele>
        <time>1970-01-01T00:23:57.000Z</time>
      </trkpt>
      <trkpt lat="41.062146" lon="-6.737474">
        <ele>579.4</ele>
        <time>1970-01-01T00:23:58.000Z</time>
      </trkpt>
      <trkpt lat="41.062091" lon="-6.737478">
        <ele>579.2</ele>
        <time>1970-01-01T00:23:59.000Z</time>
      </trkpt>
      <trkpt lat="41.062033" lon="-6.737482">
        <ele>579.1</ele>
        <time>1970-01-01T00:24:00.000Z</time>
      </trkpt>
      <trkpt lat="41.06197" lon="-6.737486">
        <ele>578.8</ele>
        <time>1970-01-01T00:24:01.000Z</time>
      </trkpt>
      <trkpt lat="41.061905" lon="-6.73749">
        <ele>578.7</ele>
        <time>1970-01-01T00:24:02.000Z</time>
      </trkpt>
      <trkpt lat="41.061837" lon="-6.737488">
        <ele>578.4</ele>
        <time>1970-01-01T00:24:03.000Z</time>
      </trkpt>
      <trkpt lat="41.06177" lon="-6.737476">
        <ele>577.9</ele>
        <time>1970-01-01T00:24:04.000Z</time>
      </trkpt>
      <trkpt lat="41.061702" lon="-6.737451">
        <ele>577.3</ele>
        <time>1970-01-01T00:24:05.000Z</time>
      </trkpt>
      <trkpt lat="41.061633" lon="-6.737417">
        <ele>576.6</ele>
        <time>1970-01-01T00:24:06.000Z</time>
      </trkpt>
      <trkpt lat="41.06156" lon="-6.737379">
        <ele>575.9</ele>
        <time>1970-01-01T00:24:07.000Z</time>
      </trkpt>
      <trkpt lat="41.061484" lon="-6.737337">
        <ele>575.2</ele>
        <time>1970-01-01T00:24:08.000Z</time>
      </trkpt>
      <trkpt lat="41.061404" lon="-6.737291">
        <ele>574.4</ele>
        <time>1970-01-01T00:24:09.000Z</time>
      </trkpt>
      <trkpt lat="41.061319" lon="-6.737243">
        <ele>573.4</ele>
        <time>1970-01-01T00:24:10.000Z</time>
      </trkpt>
      <trkpt lat="41.061232" lon="-6.737193">
        <ele>572.2</ele>
        <time>1970-01-01T00:24:11.000Z</time>
      </trkpt>
      <trkpt lat="41.061143" lon="-6.737139">
        <ele>571.2</ele>
        <time>1970-01-01T00:24:12.000Z</time>
      </trkpt>
      <trkpt lat="41.061052" lon="-6.737085">
        <ele>570.5</ele>
        <time>1970-01-01T00:24:13.000Z</time>
      </trkpt>
      <trkpt lat="41.06096" lon="-6.737031">
        <ele>569.8</ele>
        <time>1970-01-01T00:24:14.000Z</time>
      </trkpt>
      <trkpt lat="41.060865" lon="-6.73698">
        <ele>569</ele>
        <time>1970-01-01T00:24:15.000Z</time>
      </trkpt>
      <trkpt lat="41.06077" lon="-6.736929">
        <ele>568.2</ele>
        <time>1970-01-01T00:24:16.000Z</time>
      </trkpt>
      <trkpt lat="41.060676" lon="-6.736879">
        <ele>567.7</ele>
        <time>1970-01-01T00:24:17.000Z</time>
      </trkpt>
      <trkpt lat="41.060586" lon="-6.736827">
        <ele>567.1</ele>
        <time>1970-01-01T00:24:18.000Z</time>
      </trkpt>
      <trkpt lat="41.060499" lon="-6.736777">
        <ele>566.5</ele>
        <time>1970-01-01T00:24:19.000Z</time>
      </trkpt>
      <trkpt lat="41.060419" lon="-6.736731">
        <ele>566</ele>
        <time>1970-01-01T00:24:20.000Z</time>
      </trkpt>
      <trkpt lat="41.060343" lon="-6.736689">
        <ele>565.8</ele>
        <time>1970-01-01T00:24:21.000Z</time>
      </trkpt>
      <trkpt lat="41.060273" lon="-6.736654">
        <ele>565.5</ele>
        <time>1970-01-01T00:24:22.000Z</time>
      </trkpt>
      <trkpt lat="41.060208" lon="-6.736624">
        <ele>565.4</ele>
        <time>1970-01-01T00:24:23.000Z</time>
      </trkpt>
      <trkpt lat="41.060146" lon="-6.736601">
        <ele>565.4</ele>
        <time>1970-01-01T00:24:24.000Z</time>
      </trkpt>
      <trkpt lat="41.060085" lon="-6.736583">
        <ele>565.5</ele>
        <time>1970-01-01T00:24:25.000Z</time>
      </trkpt>
      <trkpt lat="41.060027" lon="-6.736569">
        <ele>565.6</ele>
        <time>1970-01-01T00:24:26.000Z</time>
      </trkpt>
      <trkpt lat="41.059974" lon="-6.736561">
        <ele>565.8</ele>
        <time>1970-01-01T00:24:27.000Z</time>
      </trkpt>
      <trkpt lat="41.059925" lon="-6.736556">
        <ele>566</ele>
        <time>1970-01-01T00:24:28.000Z</time>
      </trkpt>
      <trkpt lat="41.059878" lon="-6.736554">
        <ele>566.2</ele>
        <time>1970-01-01T00:24:29.000Z</time>
      </trkpt>
      <trkpt lat="41.059832" lon="-6.736555">
        <ele>566.5</ele>
        <time>1970-01-01T00:24:30.000Z</time>
      </trkpt>
      <trkpt lat="41.059787" lon="-6.736559">
        <ele>566.8</ele>
        <time>1970-01-01T00:24:31.000Z</time>
      </trkpt>
      <trkpt lat="41.059743" lon="-6.736564">
        <ele>567.2</ele>
        <time>1970-01-01T00:24:32.000Z</time>
      </trkpt>
      <trkpt lat="41.0597" lon="-6.736569">
        <ele>567.6</ele>
        <time>1970-01-01T00:24:33.000Z</time>
      </trkpt>
      <trkpt lat="41.059658" lon="-6.736574">
        <ele>568.1</ele>
        <time>1970-01-01T00:24:34.000Z</time>
      </trkpt>
      <trkpt lat="41.059617" lon="-6.736579">
        <ele>568.7</ele>
        <time>1970-01-01T00:24:35.000Z</time>
      </trkpt>
      <trkpt lat="41.059575" lon="-6.736584">
        <ele>569.4</ele>
        <time>1970-01-01T00:24:36.000Z</time>
      </trkpt>
      <trkpt lat="41.059535" lon="-6.73659">
        <ele>570.1</ele>
        <time>1970-01-01T00:24:37.000Z</time>
      </trkpt>
      <trkpt lat="41.059495" lon="-6.736598">
        <ele>570.7</ele>
        <time>1970-01-01T00:24:38.000Z</time>
      </trkpt>
      <trkpt lat="41.059455" lon="-6.736606">
        <ele>571.3</ele>
        <time>1970-01-01T00:24:39.000Z</time>
      </trkpt>
      <trkpt lat="41.059416" lon="-6.736614">
        <ele>571.9</ele>
        <time>1970-01-01T00:24:40.000Z</time>
      </trkpt>
      <trkpt lat="41.059378" lon="-6.736621">
        <ele>572.5</ele>
        <time>1970-01-01T00:24:41.000Z</time>
      </trkpt>
      <trkpt lat="41.059341" lon="-6.736628">
        <ele>573</ele>
        <time>1970-01-01T00:24:42.000Z</time>
      </trkpt>
      <trkpt lat="41.059305" lon="-6.736636">
        <ele>573.5</ele>
        <time>1970-01-01T00:24:43.000Z</time>
      </trkpt>
      <trkpt lat="41.05927" lon="-6.736645">
        <ele>574</ele>
        <time>1970-01-01T00:24:44.000Z</time>
      </trkpt>
      <trkpt lat="41.059237" lon="-6.736656">
        <ele>574.4</ele>
        <time>1970-01-01T00:24:45.000Z</time>
      </trkpt>
      <trkpt lat="41.059207" lon="-6.73667">
        <ele>574.8</ele>
        <time>1970-01-01T00:24:46.000Z</time>
      </trkpt>
      <trkpt lat="41.059178" lon="-6.736687">
        <ele>575.1</ele>
        <time>1970-01-01T00:24:47.000Z</time>
      </trkpt>
      <trkpt lat="41.059152" lon="-6.736707">
        <ele>575.4</ele>
        <time>1970-01-01T00:24:48.000Z</time>
      </trkpt>
      <trkpt lat="41.059127" lon="-6.736727">
        <ele>575.7</ele>
        <time>1970-01-01T00:24:49.000Z</time>
      </trkpt>
      <trkpt lat="41.059103" lon="-6.736748">
        <ele>575.9</ele>
        <time>1970-01-01T00:24:50.000Z</time>
      </trkpt>
      <trkpt lat="41.059081" lon="-6.736771">
        <ele>576.1</ele>
        <time>1970-01-01T00:24:51.000Z</time>
      </trkpt>
      <trkpt lat="41.059059" lon="-6.736794">
        <ele>576.4</ele>
        <time>1970-01-01T00:24:52.000Z</time>
      </trkpt>
      <trkpt lat="41.059037" lon="-6.736816">
        <ele>576.6</ele>
        <time>1970-01-01T00:24:53.000Z</time>
      </trkpt>
      <trkpt lat="41.059014" lon="-6.736838">
        <ele>576.8</ele>
        <time>1970-01-01T00:24:54.000Z</time>
      </trkpt>
      <trkpt lat="41.05899" lon="-6.736858">
        <ele>577.1</ele>
        <time>1970-01-01T00:24:55.000Z</time>
      </trkpt>
      <trkpt lat="41.058966" lon="-6.736877">
        <ele>577.4</ele>
        <time>1970-01-01T00:24:56.000Z</time>
      </trkpt>
      <trkpt lat="41.058943" lon="-6.736893">
        <ele>577.6</ele>
        <time>1970-01-01T00:24:57.000Z</time>
      </trkpt>
      <trkpt lat="41.058919" lon="-6.736907">
        <ele>577.9</ele>
        <time>1970-01-01T00:24:58.000Z</time>
      </trkpt>
      <trkpt lat="41.058896" lon="-6.736922">
        <ele>578.2</ele>
        <time>1970-01-01T00:24:59.000Z</time>
      </trkpt>
      <trkpt lat="41.058872" lon="-6.736936">
        <ele>578.4</ele>
        <time>1970-01-01T00:25:00.000Z</time>
      </trkpt>
      <trkpt lat="41.058848" lon="-6.73695">
        <ele>578.7</ele>
        <time>1970-01-01T00:25:01.000Z</time>
      </trkpt>
      <trkpt lat="41.058824" lon="-6.736963">
        <ele>579</ele>
        <time>1970-01-01T00:25:02.000Z</time>
      </trkpt>
      <trkpt lat="41.058801" lon="-6.736975">
        <ele>579.2</ele>
        <time>1970-01-01T00:25:03.000Z</time>
      </trkpt>
      <trkpt lat="41.058777" lon="-6.736985">
        <ele>579.4</ele>
        <time>1970-01-01T00:25:04.000Z</time>
      </trkpt>
      <trkpt lat="41.058752" lon="-6.736995">
        <ele>579.7</ele>
        <time>1970-01-01T00:25:05.000Z</time>
      </trkpt>
      <trkpt lat="41.058726" lon="-6.737006">
        <ele>579.9</ele>
        <time>1970-01-01T00:25:06.000Z</time>
      </trkpt>
      <trkpt lat="41.058701" lon="-6.737016">
        <ele>580.1</ele>
        <time>1970-01-01T00:25:07.000Z</time>
      </trkpt>
      <trkpt lat="41.058677" lon="-6.737025">
        <ele>580.4</ele>
        <time>1970-01-01T00:25:08.000Z</time>
      </trkpt>
      <trkpt lat="41.058652" lon="-6.737034">
        <ele>580.6</ele>
        <time>1970-01-01T00:25:09.000Z</time>
      </trkpt>
      <trkpt lat="41.058628" lon="-6.737042">
        <ele>580.9</ele>
        <time>1970-01-01T00:25:10.000Z</time>
      </trkpt>
      <trkpt lat="41.058602" lon="-6.73705">
        <ele>581.2</ele>
        <time>1970-01-01T00:25:11.000Z</time>
      </trkpt>
      <trkpt lat="41.058578" lon="-6.737058">
        <ele>581.5</ele>
        <time>1970-01-01T00:25:12.000Z</time>
      </trkpt>
      <trkpt lat="41.058553" lon="-6.737066">
        <ele>581.9</ele>
        <time>1970-01-01T00:25:13.000Z</time>
      </trkpt>
      <trkpt lat="41.058528" lon="-6.737073">
        <ele>582.2</ele>
        <time>1970-01-01T00:25:14.000Z</time>
      </trkpt>
      <trkpt lat="41.058503" lon="-6.73708">
        <ele>582.6</ele>
        <time>1970-01-01T00:25:15.000Z</time>
      </trkpt>
      <trkpt lat="41.058477" lon="-6.737086">
        <ele>582.9</ele>
        <time>1970-01-01T00:25:16.000Z</time>
      </trkpt>
      <trkpt lat="41.058451" lon="-6.737092">
        <ele>583.3</ele>
        <time>1970-01-01T00:25:17.000Z</time>
      </trkpt>
      <trkpt lat="41.058426" lon="-6.7371">
        <ele>583.6</ele>
        <time>1970-01-01T00:25:18.000Z</time>
      </trkpt>
      <trkpt lat="41.058399" lon="-6.737107">
        <ele>583.9</ele>
        <time>1970-01-01T00:25:19.000Z</time>
      </trkpt>
      <trkpt lat="41.058374" lon="-6.737114">
        <ele>584.2</ele>
        <time>1970-01-01T00:25:20.000Z</time>
      </trkpt>
      <trkpt lat="41.058348" lon="-6.737119">
        <ele>584.5</ele>
        <time>1970-01-01T00:25:21.000Z</time>
      </trkpt>
      <trkpt lat="41.058322" lon="-6.737124">
        <ele>584.7</ele>
        <time>1970-01-01T00:25:22.000Z</time>
      </trkpt>
      <trkpt lat="41.058297" lon="-6.737129">
        <ele>585</ele>
        <time>1970-01-01T00:25:23.000Z</time>
      </trkpt>
      <trkpt lat="41.058271" lon="-6.737134">
        <ele>585.3</ele>
        <time>1970-01-01T00:25:24.000Z</time>
      </trkpt>
      <trkpt lat="41.058245" lon="-6.73714">
        <ele>585.6</ele>
        <time>1970-01-01T00:25:25.000Z</time>
      </trkpt>
      <trkpt lat="41.05822" lon="-6.737145">
        <ele>585.9</ele>
        <time>1970-01-01T00:25:26.000Z</time>
      </trkpt>
      <trkpt lat="41.058194" lon="-6.73715">
        <ele>586.1</ele>
        <time>1970-01-01T00:25:27.000Z</time>
      </trkpt>
      <trkpt lat="41.058166" lon="-6.737152">
        <ele>586.4</ele>
        <time>1970-01-01T00:25:28.000Z</time>
      </trkpt>
      <trkpt lat="41.058138" lon="-6.737154">
        <ele>586.7</ele>
        <time>1970-01-01T00:25:29.000Z</time>
      </trkpt>
      <trkpt lat="41.058109" lon="-6.737157">
        <ele>587</ele>
        <time>1970-01-01T00:25:30.000Z</time>
      </trkpt>
      <trkpt lat="41.058081" lon="-6.73716">
        <ele>587.2</ele>
        <time>1970-01-01T00:25:31.000Z</time>
      </trkpt>
      <trkpt lat="41.058054" lon="-6.737163">
        <ele>587.5</ele>
        <time>1970-01-01T00:25:32.000Z</time>
      </trkpt>
      <trkpt lat="41.058028" lon="-6.737165">
        <ele>587.8</ele>
        <time>1970-01-01T00:25:33.000Z</time>
      </trkpt>
      <trkpt lat="41.058003" lon="-6.737168">
        <ele>588</ele>
        <time>1970-01-01T00:25:34.000Z</time>
      </trkpt>
      <trkpt lat="41.057978" lon="-6.737172">
        <ele>588.2</ele>
        <time>1970-01-01T00:25:35.000Z</time>
      </trkpt>
      <trkpt lat="41.057954" lon="-6.737178">
        <ele>588.5</ele>
        <time>1970-01-01T00:25:36.000Z</time>
      </trkpt>
      <trkpt lat="41.057932" lon="-6.737184">
        <ele>588.7</ele>
        <time>1970-01-01T00:25:37.000Z</time>
      </trkpt>
      <trkpt lat="41.057909" lon="-6.73719">
        <ele>589</ele>
        <time>1970-01-01T00:25:38.000Z</time>
      </trkpt>
      <trkpt lat="41.057887" lon="-6.737194">
        <ele>589.3</ele>
        <time>1970-01-01T00:25:39.000Z</time>
      </trkpt>
      <trkpt lat="41.057864" lon="-6.737198">
        <ele>589.6</ele>
        <time>1970-01-01T00:25:40.000Z</time>
      </trkpt>
      <trkpt lat="41.057842" lon="-6.737202">
        <ele>589.9</ele>
        <time>1970-01-01T00:25:41.000Z</time>
      </trkpt>
      <trkpt lat="41.057821" lon="-6.737207">
        <ele>590.2</ele>
        <time>1970-01-01T00:25:42.000Z</time>
      </trkpt>
      <trkpt lat="41.057799" lon="-6.737211">
        <ele>590.5</ele>
        <time>1970-01-01T00:25:43.000Z</time>
      </trkpt>
      <trkpt lat="41.057778" lon="-6.737216">
        <ele>590.8</ele>
        <time>1970-01-01T00:25:44.000Z</time>
      </trkpt>
      <trkpt lat="41.057757" lon="-6.737221">
        <ele>591.1</ele>
        <time>1970-01-01T00:25:45.000Z</time>
      </trkpt>
      <trkpt lat="41.057736" lon="-6.737225">
        <ele>591.3</ele>
        <time>1970-01-01T00:25:46.000Z</time>
      </trkpt>
      <trkpt lat="41.057715" lon="-6.737229">
        <ele>591.6</ele>
        <time>1970-01-01T00:25:47.000Z</time>
      </trkpt>
      <trkpt lat="41.057693" lon="-6.737234">
        <ele>591.9</ele>
        <time>1970-01-01T00:25:48.000Z</time>
      </trkpt>
      <trkpt lat="41.057671" lon="-6.737237">
        <ele>592.2</ele>
        <time>1970-01-01T00:25:49.000Z</time>
      </trkpt>
      <trkpt lat="41.057649" lon="-6.737241">
        <ele>592.5</ele>
        <time>1970-01-01T00:25:50.000Z</time>
      </trkpt>
      <trkpt lat="41.057627" lon="-6.737245">
        <ele>592.7</ele>
        <time>1970-01-01T00:25:51.000Z</time>
      </trkpt>
      <trkpt lat="41.057606" lon="-6.737248">
        <ele>593</ele>
        <time>1970-01-01T00:25:52.000Z</time>
      </trkpt>
      <trkpt lat="41.057585" lon="-6.737252">
        <ele>593.2</ele>
        <time>1970-01-01T00:25:53.000Z</time>
      </trkpt>
      <trkpt lat="41.057564" lon="-6.737255">
        <ele>593.5</ele>
        <time>1970-01-01T00:25:54.000Z</time>
      </trkpt>
      <trkpt lat="41.057543" lon="-6.737258">
        <ele>593.7</ele>
        <time>1970-01-01T00:25:55.000Z</time>
      </trkpt>
      <trkpt lat="41.057521" lon="-6.737261">
        <ele>594</ele>
        <time>1970-01-01T00:25:56.000Z</time>
      </trkpt>
      <trkpt lat="41.057499" lon="-6.737265">
        <ele>594.2</ele>
        <time>1970-01-01T00:25:57.000Z</time>
      </trkpt>
      <trkpt lat="41.057477" lon="-6.737271">
        <ele>594.5</ele>
        <time>1970-01-01T00:25:58.000Z</time>
      </trkpt>
      <trkpt lat="41.057454" lon="-6.737278">
        <ele>594.7</ele>
        <time>1970-01-01T00:25:59.000Z</time>
      </trkpt>
      <trkpt lat="41.057432" lon="-6.737284">
        <ele>595</ele>
        <time>1970-01-01T00:26:00.000Z</time>
      </trkpt>
      <trkpt lat="41.05741" lon="-6.737289">
        <ele>595.2</ele>
        <time>1970-01-01T00:26:01.000Z</time>
      </trkpt>
      <trkpt lat="41.057388" lon="-6.737294">
        <ele>595.4</ele>
        <time>1970-01-01T00:26:02.000Z</time>
      </trkpt>
      <trkpt lat="41.057367" lon="-6.737301">
        <ele>595.6</ele>
        <time>1970-01-01T00:26:03.000Z</time>
      </trkpt>
      <trkpt lat="41.057346" lon="-6.737311">
        <ele>595.9</ele>
        <time>1970-01-01T00:26:04.000Z</time>
      </trkpt>
      <trkpt lat="41.057327" lon="-6.737321">
        <ele>596.1</ele>
        <time>1970-01-01T00:26:05.000Z</time>
      </trkpt>
      <trkpt lat="41.057309" lon="-6.737331">
        <ele>596.3</ele>
        <time>1970-01-01T00:26:06.000Z</time>
      </trkpt>
      <trkpt lat="41.057291" lon="-6.737342">
        <ele>596.5</ele>
        <time>1970-01-01T00:26:07.000Z</time>
      </trkpt>
      <trkpt lat="41.057274" lon="-6.737354">
        <ele>596.7</ele>
        <time>1970-01-01T00:26:08.000Z</time>
      </trkpt>
      <trkpt lat="41.057256" lon="-6.737367">
        <ele>597</ele>
        <time>1970-01-01T00:26:09.000Z</time>
      </trkpt>
      <trkpt lat="41.057238" lon="-6.737382">
        <ele>597.2</ele>
        <time>1970-01-01T00:26:10.000Z</time>
      </trkpt>
      <trkpt lat="41.05722" lon="-6.737399">
        <ele>597.5</ele>
        <time>1970-01-01T00:26:11.000Z</time>
      </trkpt>
      <trkpt lat="41.057202" lon="-6.737417">
        <ele>597.7</ele>
        <time>1970-01-01T00:26:12.000Z</time>
      </trkpt>
      <trkpt lat="41.057185" lon="-6.737435">
        <ele>598</ele>
        <time>1970-01-01T00:26:13.000Z</time>
      </trkpt>
      <trkpt lat="41.057168" lon="-6.737451">
        <ele>598.3</ele>
        <time>1970-01-01T00:26:14.000Z</time>
      </trkpt>
      <trkpt lat="41.057151" lon="-6.737463">
        <ele>598.5</ele>
        <time>1970-01-01T00:26:15.000Z</time>
      </trkpt>
      <trkpt lat="41.057135" lon="-6.737473">
        <ele>598.8</ele>
        <time>1970-01-01T00:26:16.000Z</time>
      </trkpt>
      <trkpt lat="41.057118" lon="-6.737482">
        <ele>599</ele>
        <time>1970-01-01T00:26:17.000Z</time>
      </trkpt>
      <trkpt lat="41.057103" lon="-6.737491">
        <ele>599.3</ele>
        <time>1970-01-01T00:26:18.000Z</time>
      </trkpt>
      <trkpt lat="41.057089" lon="-6.737497">
        <ele>599.5</ele>
        <time>1970-01-01T00:26:19.000Z</time>
      </trkpt>
      <trkpt lat="41.057075" lon="-6.737502">
        <ele>599.7</ele>
        <time>1970-01-01T00:26:20.000Z</time>
      </trkpt>
      <trkpt lat="41.057061" lon="-6.737504">
        <ele>599.9</ele>
        <time>1970-01-01T00:26:21.000Z</time>
      </trkpt>
      <trkpt lat="41.05705" lon="-6.737503">
        <ele>600.1</ele>
        <time>1970-01-01T00:26:22.000Z</time>
      </trkpt>
      <trkpt lat="41.05704" lon="-6.737502">
        <ele>600.2</ele>
        <time>1970-01-01T00:26:23.000Z</time>
      </trkpt>
      <trkpt lat="41.057029" lon="-6.737499">
        <ele>600.4</ele>
        <time>1970-01-01T00:26:24.000Z</time>
      </trkpt>
      <trkpt lat="41.057019" lon="-6.737494">
        <ele>600.5</ele>
        <time>1970-01-01T00:26:25.000Z</time>
      </trkpt>
      <trkpt lat="41.05701" lon="-6.737487">
        <ele>600.6</ele>
        <time>1970-01-01T00:26:26.000Z</time>
      </trkpt>
      <trkpt lat="41.057002" lon="-6.737482">
        <ele>600.8</ele>
        <time>1970-01-01T00:26:27.000Z</time>
      </trkpt>
      <trkpt lat="41.056993" lon="-6.737482">
        <ele>601.5</ele>
        <time>1970-01-01T00:26:28.000Z</time>
      </trkpt>
      <trkpt lat="41.056984" lon="-6.737486">
        <ele>601.5</ele>
        <time>1970-01-01T00:26:29.000Z</time>
      </trkpt>
      <trkpt lat="41.056975" lon="-6.737493">
        <ele>601.5</ele>
        <time>1970-01-01T00:26:30.000Z</time>
      </trkpt>
      <trkpt lat="41.056967" lon="-6.737501">
        <ele>601.5</ele>
        <time>1970-01-01T00:26:31.000Z</time>
      </trkpt>
      <trkpt lat="41.05696" lon="-6.73751">
        <ele>601.5</ele>
        <time>1970-01-01T00:26:32.000Z</time>
      </trkpt>
      <trkpt lat="41.056954" lon="-6.737522">
        <ele>601.5</ele>
        <time>1970-01-01T00:26:33.000Z</time>
      </trkpt>
      <trkpt lat="41.056949" lon="-6.737533">
        <ele>601.5</ele>
        <time>1970-01-01T00:26:34.000Z</time>
      </trkpt>
      <trkpt lat="41.056943" lon="-6.737544">
        <ele>601.5</ele>
        <time>1970-01-01T00:26:35.000Z</time>
      </trkpt>
      <trkpt lat="41.056936" lon="-6.737554">
        <ele>601.5</ele>
        <time>1970-01-01T00:26:36.000Z</time>
      </trkpt>
      <trkpt lat="41.056927" lon="-6.737567">
        <ele>601.5</ele>
        <time>1970-01-01T00:26:37.000Z</time>
      </trkpt>
      <trkpt lat="41.056917" lon="-6.737581">
        <ele>601.5</ele>
        <time>1970-01-01T00:26:38.000Z</time>
      </trkpt>
      <trkpt lat="41.056908" lon="-6.737596">
        <ele>601.5</ele>
        <time>1970-01-01T00:26:39.000Z</time>
      </trkpt>
      <trkpt lat="41.056898" lon="-6.737612">
        <ele>601.5</ele>
        <time>1970-01-01T00:26:40.000Z</time>
      </trkpt>
      <trkpt lat="41.056888" lon="-6.737631">
        <ele>601.5</ele>
        <time>1970-01-01T00:26:41.000Z</time>
      </trkpt>
      <trkpt lat="41.056878" lon="-6.737654">
        <ele>601.5</ele>
        <time>1970-01-01T00:26:42.000Z</time>
      </trkpt>
      <trkpt lat="41.056868" lon="-6.737679">
        <ele>601.5</ele>
        <time>1970-01-01T00:26:43.000Z</time>
      </trkpt>
      <trkpt lat="41.056858" lon="-6.737706">
        <ele>601.5</ele>
        <time>1970-01-01T00:26:44.000Z</time>
      </trkpt>
      <trkpt lat="41.056846" lon="-6.737735">
        <ele>601.5</ele>
        <time>1970-01-01T00:26:45.000Z</time>
      </trkpt>
      <trkpt lat="41.056833" lon="-6.737765">
        <ele>601.5</ele>
        <time>1970-01-01T00:26:46.000Z</time>
      </trkpt>
      <trkpt lat="41.056818" lon="-6.737796">
        <ele>601.5</ele>
        <time>1970-01-01T00:26:47.000Z</time>
      </trkpt>
      <trkpt lat="41.056804" lon="-6.737829">
        <ele>601.5</ele>
        <time>1970-01-01T00:26:48.000Z</time>
      </trkpt>
      <trkpt lat="41.056789" lon="-6.737865">
        <ele>601.5</ele>
        <time>1970-01-01T00:26:49.000Z</time>
      </trkpt>
      <trkpt lat="41.056775" lon="-6.737902">
        <ele>601.5</ele>
        <time>1970-01-01T00:26:50.000Z</time>
      </trkpt>
      <trkpt lat="41.056759" lon="-6.737939">
        <ele>601.5</ele>
        <time>1970-01-01T00:26:51.000Z</time>
      </trkpt>
      <trkpt lat="41.056744" lon="-6.737976">
        <ele>601.5</ele>
        <time>1970-01-01T00:26:52.000Z</time>
      </trkpt>
      <trkpt lat="41.056727" lon="-6.738014">
        <ele>601.5</ele>
        <time>1970-01-01T00:26:53.000Z</time>
      </trkpt>
      <trkpt lat="41.056711" lon="-6.738054">
        <ele>601.5</ele>
        <time>1970-01-01T00:26:54.000Z</time>
      </trkpt>
      <trkpt lat="41.056694" lon="-6.738095">
        <ele>601.5</ele>
        <time>1970-01-01T00:26:55.000Z</time>
      </trkpt>
      <trkpt lat="41.056676" lon="-6.738137">
        <ele>601.5</ele>
        <time>1970-01-01T00:26:56.000Z</time>
      </trkpt>
      <trkpt lat="41.056659" lon="-6.738179">
        <ele>601.5</ele>
        <time>1970-01-01T00:26:57.000Z</time>
      </trkpt>
      <trkpt lat="41.056642" lon="-6.738221">
        <ele>601.5</ele>
        <time>1970-01-01T00:26:58.000Z</time>
      </trkpt>
      <trkpt lat="41.056625" lon="-6.738263">
        <ele>601.5</ele>
        <time>1970-01-01T00:26:59.000Z</time>
      </trkpt>
      <trkpt lat="41.056607" lon="-6.738303">
        <ele>601.5</ele>
        <time>1970-01-01T00:27:00.000Z</time>
      </trkpt>
      <trkpt lat="41.05659" lon="-6.738344">
        <ele>601.5</ele>
        <time>1970-01-01T00:27:01.000Z</time>
      </trkpt>
      <trkpt lat="41.056573" lon="-6.738383">
        <ele>601.5</ele>
        <time>1970-01-01T00:27:02.000Z</time>
      </trkpt>
      <trkpt lat="41.056556" lon="-6.738423">
        <ele>601.5</ele>
        <time>1970-01-01T00:27:03.000Z</time>
      </trkpt>
      <trkpt lat="41.056538" lon="-6.738466">
        <ele>601.4</ele>
        <time>1970-01-01T00:27:04.000Z</time>
      </trkpt>
      <trkpt lat="41.05652" lon="-6.738509">
        <ele>601.4</ele>
        <time>1970-01-01T00:27:05.000Z</time>
      </trkpt>
      <trkpt lat="41.0565" lon="-6.738552">
        <ele>601.5</ele>
        <time>1970-01-01T00:27:06.000Z</time>
      </trkpt>
      <trkpt lat="41.056482" lon="-6.738594">
        <ele>601.5</ele>
        <time>1970-01-01T00:27:07.000Z</time>
      </trkpt>
      <trkpt lat="41.056463" lon="-6.738635">
        <ele>601.5</ele>
        <time>1970-01-01T00:27:08.000Z</time>
      </trkpt>
      <trkpt lat="41.056445" lon="-6.738677">
        <ele>601.5</ele>
        <time>1970-01-01T00:27:09.000Z</time>
      </trkpt>
      <trkpt lat="41.056426" lon="-6.738722">
        <ele>601.5</ele>
        <time>1970-01-01T00:27:10.000Z</time>
      </trkpt>
      <trkpt lat="41.056407" lon="-6.738769">
        <ele>601.5</ele>
        <time>1970-01-01T00:27:11.000Z</time>
      </trkpt>
      <trkpt lat="41.056387" lon="-6.738815">
        <ele>601.5</ele>
        <time>1970-01-01T00:27:12.000Z</time>
      </trkpt>
      <trkpt lat="41.056366" lon="-6.73886">
        <ele>601.5</ele>
        <time>1970-01-01T00:27:13.000Z</time>
      </trkpt>
      <trkpt lat="41.056346" lon="-6.738905">
        <ele>601.6</ele>
        <time>1970-01-01T00:27:14.000Z</time>
      </trkpt>
      <trkpt lat="41.056328" lon="-6.73895">
        <ele>601.6</ele>
        <time>1970-01-01T00:27:15.000Z</time>
      </trkpt>
      <trkpt lat="41.05631" lon="-6.738997">
        <ele>601.6</ele>
        <time>1970-01-01T00:27:16.000Z</time>
      </trkpt>
      <trkpt lat="41.056291" lon="-6.739045">
        <ele>601.6</ele>
        <time>1970-01-01T00:27:17.000Z</time>
      </trkpt>
      <trkpt lat="41.056271" lon="-6.739092">
        <ele>601.6</ele>
        <time>1970-01-01T00:27:18.000Z</time>
      </trkpt>
      <trkpt lat="41.05625" lon="-6.739139">
        <ele>601.6</ele>
        <time>1970-01-01T00:27:19.000Z</time>
      </trkpt>
      <trkpt lat="41.05623" lon="-6.739187">
        <ele>601.6</ele>
        <time>1970-01-01T00:27:20.000Z</time>
      </trkpt>
      <trkpt lat="41.05621" lon="-6.739235">
        <ele>601.6</ele>
        <time>1970-01-01T00:27:21.000Z</time>
      </trkpt>
      <trkpt lat="41.05619" lon="-6.739284">
        <ele>601.6</ele>
        <time>1970-01-01T00:27:22.000Z</time>
      </trkpt>
      <trkpt lat="41.05617" lon="-6.739333">
        <ele>601.6</ele>
        <time>1970-01-01T00:27:23.000Z</time>
      </trkpt>
      <trkpt lat="41.056149" lon="-6.739381">
        <ele>601.6</ele>
        <time>1970-01-01T00:27:24.000Z</time>
      </trkpt>
      <trkpt lat="41.056129" lon="-6.73943">
        <ele>601.5</ele>
        <time>1970-01-01T00:27:25.000Z</time>
      </trkpt>
      <trkpt lat="41.056108" lon="-6.73948">
        <ele>601.5</ele>
        <time>1970-01-01T00:27:26.000Z</time>
      </trkpt>
      <trkpt lat="41.056087" lon="-6.739529">
        <ele>601.5</ele>
        <time>1970-01-01T00:27:27.000Z</time>
      </trkpt>
      <trkpt lat="41.056066" lon="-6.739579">
        <ele>601.4</ele>
        <time>1970-01-01T00:27:28.000Z</time>
      </trkpt>
      <trkpt lat="41.056045" lon="-6.739629">
        <ele>601.4</ele>
        <time>1970-01-01T00:27:29.000Z</time>
      </trkpt>
      <trkpt lat="41.056024" lon="-6.73968">
        <ele>601.4</ele>
        <time>1970-01-01T00:27:30.000Z</time>
      </trkpt>
      <trkpt lat="41.056003" lon="-6.739731">
        <ele>601.3</ele>
        <time>1970-01-01T00:27:31.000Z</time>
      </trkpt>
      <trkpt lat="41.055983" lon="-6.739782">
        <ele>601.3</ele>
        <time>1970-01-01T00:27:32.000Z</time>
      </trkpt>
      <trkpt lat="41.055962" lon="-6.739832">
        <ele>601.2</ele>
        <time>1970-01-01T00:27:33.000Z</time>
      </trkpt>
      <trkpt lat="41.055941" lon="-6.739882">
        <ele>601.2</ele>
        <time>1970-01-01T00:27:34.000Z</time>
      </trkpt>
      <trkpt lat="41.055919" lon="-6.739932">
        <ele>601.2</ele>
        <time>1970-01-01T00:27:35.000Z</time>
      </trkpt>
      <trkpt lat="41.055897" lon="-6.739983">
        <ele>601.2</ele>
        <time>1970-01-01T00:27:36.000Z</time>
      </trkpt>
      <trkpt lat="41.055875" lon="-6.740033">
        <ele>601.2</ele>
        <time>1970-01-01T00:27:37.000Z</time>
      </trkpt>
      <trkpt lat="41.055853" lon="-6.740084">
        <ele>601.2</ele>
        <time>1970-01-01T00:27:38.000Z</time>
      </trkpt>
      <trkpt lat="41.055832" lon="-6.740135">
        <ele>601.2</ele>
        <time>1970-01-01T00:27:39.000Z</time>
      </trkpt>
      <trkpt lat="41.055811" lon="-6.740186">
        <ele>601.2</ele>
        <time>1970-01-01T00:27:40.000Z</time>
      </trkpt>
      <trkpt lat="41.055789" lon="-6.740238">
        <ele>601.2</ele>
        <time>1970-01-01T00:27:41.000Z</time>
      </trkpt>
      <trkpt lat="41.055766" lon="-6.74029">
        <ele>601.2</ele>
        <time>1970-01-01T00:27:42.000Z</time>
      </trkpt>
      <trkpt lat="41.055743" lon="-6.740342">
        <ele>601.2</ele>
        <time>1970-01-01T00:27:43.000Z</time>
      </trkpt>
      <trkpt lat="41.055721" lon="-6.740394">
        <ele>601.2</ele>
        <time>1970-01-01T00:27:44.000Z</time>
      </trkpt>
      <trkpt lat="41.055699" lon="-6.740445">
        <ele>601.2</ele>
        <time>1970-01-01T00:27:45.000Z</time>
      </trkpt>
      <trkpt lat="41.055677" lon="-6.740496">
        <ele>601.2</ele>
        <time>1970-01-01T00:27:46.000Z</time>
      </trkpt>
      <trkpt lat="41.055655" lon="-6.740548">
        <ele>601.2</ele>
        <time>1970-01-01T00:27:47.000Z</time>
      </trkpt>
      <trkpt lat="41.055632" lon="-6.740601">
        <ele>601.2</ele>
        <time>1970-01-01T00:27:48.000Z</time>
      </trkpt>
      <trkpt lat="41.05561" lon="-6.740653">
        <ele>601.2</ele>
        <time>1970-01-01T00:27:49.000Z</time>
      </trkpt>
      <trkpt lat="41.055589" lon="-6.740703">
        <ele>601.2</ele>
        <time>1970-01-01T00:27:50.000Z</time>
      </trkpt>
      <trkpt lat="41.055567" lon="-6.740753">
        <ele>601.3</ele>
        <time>1970-01-01T00:27:51.000Z</time>
      </trkpt>
      <trkpt lat="41.055546" lon="-6.740804">
        <ele>601.3</ele>
        <time>1970-01-01T00:27:52.000Z</time>
      </trkpt>
      <trkpt lat="41.055525" lon="-6.740856">
        <ele>601.3</ele>
        <time>1970-01-01T00:27:53.000Z</time>
      </trkpt>
      <trkpt lat="41.055503" lon="-6.74091">
        <ele>602.2</ele>
        <time>1970-01-01T00:27:54.000Z</time>
      </trkpt>
      <trkpt lat="41.05548" lon="-6.740965">
        <ele>602.5</ele>
        <time>1970-01-01T00:27:55.000Z</time>
      </trkpt>
      <trkpt lat="41.055456" lon="-6.741019">
        <ele>602.8</ele>
        <time>1970-01-01T00:27:56.000Z</time>
      </trkpt>
      <trkpt lat="41.055433" lon="-6.741071">
        <ele>602.9</ele>
        <time>1970-01-01T00:27:57.000Z</time>
      </trkpt>
      <trkpt lat="41.05541" lon="-6.741122">
        <ele>603</ele>
        <time>1970-01-01T00:27:58.000Z</time>
      </trkpt>
      <trkpt lat="41.055387" lon="-6.741175">
        <ele>603.1</ele>
        <time>1970-01-01T00:27:59.000Z</time>
      </trkpt>
      <trkpt lat="41.055366" lon="-6.741227">
        <ele>603.1</ele>
        <time>1970-01-01T00:28:00.000Z</time>
      </trkpt>
      <trkpt lat="41.055346" lon="-6.741279">
        <ele>603.1</ele>
        <time>1970-01-01T00:28:01.000Z</time>
      </trkpt>
      <trkpt lat="41.055324" lon="-6.74133">
        <ele>603.1</ele>
        <time>1970-01-01T00:28:02.000Z</time>
      </trkpt>
      <trkpt lat="41.055302" lon="-6.741382">
        <ele>603.1</ele>
        <time>1970-01-01T00:28:03.000Z</time>
      </trkpt>
      <trkpt lat="41.05528" lon="-6.741434">
        <ele>603.1</ele>
        <time>1970-01-01T00:28:04.000Z</time>
      </trkpt>
      <trkpt lat="41.055258" lon="-6.741486">
        <ele>603.1</ele>
        <time>1970-01-01T00:28:05.000Z</time>
      </trkpt>
      <trkpt lat="41.055236" lon="-6.741539">
        <ele>603.1</ele>
        <time>1970-01-01T00:28:06.000Z</time>
      </trkpt>
      <trkpt lat="41.055213" lon="-6.741591">
        <ele>603.1</ele>
        <time>1970-01-01T00:28:07.000Z</time>
      </trkpt>
      <trkpt lat="41.055192" lon="-6.741642">
        <ele>603.2</ele>
        <time>1970-01-01T00:28:08.000Z</time>
      </trkpt>
      <trkpt lat="41.055171" lon="-6.741692">
        <ele>603.2</ele>
        <time>1970-01-01T00:28:09.000Z</time>
      </trkpt>
      <trkpt lat="41.05515" lon="-6.741742">
        <ele>603.3</ele>
        <time>1970-01-01T00:28:10.000Z</time>
      </trkpt>
      <trkpt lat="41.055129" lon="-6.741792">
        <ele>603.3</ele>
        <time>1970-01-01T00:28:11.000Z</time>
      </trkpt>
      <trkpt lat="41.055108" lon="-6.741841">
        <ele>603.4</ele>
        <time>1970-01-01T00:28:12.000Z</time>
      </trkpt>
      <trkpt lat="41.055087" lon="-6.741891">
        <ele>603.5</ele>
        <time>1970-01-01T00:28:13.000Z</time>
      </trkpt>
      <trkpt lat="41.055065" lon="-6.741941">
        <ele>603.6</ele>
        <time>1970-01-01T00:28:14.000Z</time>
      </trkpt>
      <trkpt lat="41.055043" lon="-6.741991">
        <ele>603.7</ele>
        <time>1970-01-01T00:28:15.000Z</time>
      </trkpt>
      <trkpt lat="41.055022" lon="-6.74204">
        <ele>603.8</ele>
        <time>1970-01-01T00:28:16.000Z</time>
      </trkpt>
      <trkpt lat="41.055" lon="-6.742089">
        <ele>603.9</ele>
        <time>1970-01-01T00:28:17.000Z</time>
      </trkpt>
      <trkpt lat="41.054978" lon="-6.742136">
        <ele>604</ele>
        <time>1970-01-01T00:28:18.000Z</time>
      </trkpt>
      <trkpt lat="41.054954" lon="-6.742182">
        <ele>604.1</ele>
        <time>1970-01-01T00:28:19.000Z</time>
      </trkpt>
      <trkpt lat="41.05493" lon="-6.742228">
        <ele>604.2</ele>
        <time>1970-01-01T00:28:20.000Z</time>
      </trkpt>
      <trkpt lat="41.054904" lon="-6.742273">
        <ele>604.3</ele>
        <time>1970-01-01T00:28:21.000Z</time>
      </trkpt>
      <trkpt lat="41.054878" lon="-6.742318">
        <ele>604.5</ele>
        <time>1970-01-01T00:28:22.000Z</time>
      </trkpt>
      <trkpt lat="41.054852" lon="-6.742361">
        <ele>604.6</ele>
        <time>1970-01-01T00:28:23.000Z</time>
      </trkpt>
      <trkpt lat="41.054825" lon="-6.742404">
        <ele>604.7</ele>
        <time>1970-01-01T00:28:24.000Z</time>
      </trkpt>
      <trkpt lat="41.054798" lon="-6.742446">
        <ele>604.8</ele>
        <time>1970-01-01T00:28:25.000Z</time>
      </trkpt>
      <trkpt lat="41.054771" lon="-6.742489">
        <ele>605</ele>
        <time>1970-01-01T00:28:26.000Z</time>
      </trkpt>
      <trkpt lat="41.054743" lon="-6.742532">
        <ele>605.1</ele>
        <time>1970-01-01T00:28:27.000Z</time>
      </trkpt>
      <trkpt lat="41.054713" lon="-6.742572">
        <ele>605.2</ele>
        <time>1970-01-01T00:28:28.000Z</time>
      </trkpt>
      <trkpt lat="41.054683" lon="-6.742612">
        <ele>605.2</ele>
        <time>1970-01-01T00:28:29.000Z</time>
      </trkpt>
      <trkpt lat="41.054652" lon="-6.74265">
        <ele>605.3</ele>
        <time>1970-01-01T00:28:30.000Z</time>
      </trkpt>
      <trkpt lat="41.054621" lon="-6.742689">
        <ele>605.4</ele>
        <time>1970-01-01T00:28:31.000Z</time>
      </trkpt>
      <trkpt lat="41.054589" lon="-6.742727">
        <ele>605.5</ele>
        <time>1970-01-01T00:28:32.000Z</time>
      </trkpt>
      <trkpt lat="41.054558" lon="-6.742764">
        <ele>605.6</ele>
        <time>1970-01-01T00:28:33.000Z</time>
      </trkpt>
      <trkpt lat="41.054527" lon="-6.742799">
        <ele>605.7</ele>
        <time>1970-01-01T00:28:34.000Z</time>
      </trkpt>
      <trkpt lat="41.054494" lon="-6.742834">
        <ele>605.8</ele>
        <time>1970-01-01T00:28:35.000Z</time>
      </trkpt>
      <trkpt lat="41.05446" lon="-6.742868">
        <ele>605.9</ele>
        <time>1970-01-01T00:28:36.000Z</time>
      </trkpt>
      <trkpt lat="41.054425" lon="-6.742903">
        <ele>605.9</ele>
        <time>1970-01-01T00:28:37.000Z</time>
      </trkpt>
      <trkpt lat="41.05439" lon="-6.742937">
        <ele>606</ele>
        <time>1970-01-01T00:28:38.000Z</time>
      </trkpt>
      <trkpt lat="41.054355" lon="-6.74297">
        <ele>606.1</ele>
        <time>1970-01-01T00:28:39.000Z</time>
      </trkpt>
      <trkpt lat="41.054318" lon="-6.743002">
        <ele>606.2</ele>
        <time>1970-01-01T00:28:40.000Z</time>
      </trkpt>
      <trkpt lat="41.054282" lon="-6.743034">
        <ele>606.3</ele>
        <time>1970-01-01T00:28:41.000Z</time>
      </trkpt>
      <trkpt lat="41.054244" lon="-6.743066">
        <ele>606.4</ele>
        <time>1970-01-01T00:28:42.000Z</time>
      </trkpt>
      <trkpt lat="41.054208" lon="-6.743098">
        <ele>606.5</ele>
        <time>1970-01-01T00:28:43.000Z</time>
      </trkpt>
      <trkpt lat="41.054171" lon="-6.743129">
        <ele>606.6</ele>
        <time>1970-01-01T00:28:44.000Z</time>
      </trkpt>
      <trkpt lat="41.054136" lon="-6.743158">
        <ele>606.7</ele>
        <time>1970-01-01T00:28:45.000Z</time>
      </trkpt>
      <trkpt lat="41.0541" lon="-6.743187">
        <ele>606.8</ele>
        <time>1970-01-01T00:28:46.000Z</time>
      </trkpt>
      <trkpt lat="41.054065" lon="-6.743216">
        <ele>606.9</ele>
        <time>1970-01-01T00:28:47.000Z</time>
      </trkpt>
      <trkpt lat="41.05403" lon="-6.743245">
        <ele>607</ele>
        <time>1970-01-01T00:28:48.000Z</time>
      </trkpt>
      <trkpt lat="41.053994" lon="-6.743275">
        <ele>607.1</ele>
        <time>1970-01-01T00:28:49.000Z</time>
      </trkpt>
      <trkpt lat="41.053959" lon="-6.743305">
        <ele>607.2</ele>
        <time>1970-01-01T00:28:50.000Z</time>
      </trkpt>
      <trkpt lat="41.053923" lon="-6.743337">
        <ele>607.2</ele>
        <time>1970-01-01T00:28:51.000Z</time>
      </trkpt>
      <trkpt lat="41.053886" lon="-6.743369">
        <ele>607.3</ele>
        <time>1970-01-01T00:28:52.000Z</time>
      </trkpt>
      <trkpt lat="41.053849" lon="-6.7434">
        <ele>607.4</ele>
        <time>1970-01-01T00:28:53.000Z</time>
      </trkpt>
      <trkpt lat="41.053812" lon="-6.743431">
        <ele>607.4</ele>
        <time>1970-01-01T00:28:54.000Z</time>
      </trkpt>
      <trkpt lat="41.053776" lon="-6.743462">
        <ele>607.5</ele>
        <time>1970-01-01T00:28:55.000Z</time>
      </trkpt>
      <trkpt lat="41.053741" lon="-6.743493">
        <ele>607.6</ele>
        <time>1970-01-01T00:28:56.000Z</time>
      </trkpt>
      <trkpt lat="41.053705" lon="-6.743526">
        <ele>607.6</ele>
        <time>1970-01-01T00:28:57.000Z</time>
      </trkpt>
      <trkpt lat="41.053669" lon="-6.743559">
        <ele>607.7</ele>
        <time>1970-01-01T00:28:58.000Z</time>
      </trkpt>
      <trkpt lat="41.053633" lon="-6.743591">
        <ele>607.8</ele>
        <time>1970-01-01T00:28:59.000Z</time>
      </trkpt>
      <trkpt lat="41.053597" lon="-6.743621">
        <ele>607.9</ele>
        <time>1970-01-01T00:29:00.000Z</time>
      </trkpt>
      <trkpt lat="41.05356" lon="-6.743652">
        <ele>608</ele>
        <time>1970-01-01T00:29:01.000Z</time>
      </trkpt>
      <trkpt lat="41.053523" lon="-6.743683">
        <ele>608.1</ele>
        <time>1970-01-01T00:29:02.000Z</time>
      </trkpt>
      <trkpt lat="41.053486" lon="-6.743714">
        <ele>608.2</ele>
        <time>1970-01-01T00:29:03.000Z</time>
      </trkpt>
      <trkpt lat="41.053449" lon="-6.743746">
        <ele>608.3</ele>
        <time>1970-01-01T00:29:04.000Z</time>
      </trkpt>
      <trkpt lat="41.053411" lon="-6.743778">
        <ele>608.4</ele>
        <time>1970-01-01T00:29:05.000Z</time>
      </trkpt>
      <trkpt lat="41.053375" lon="-6.74381">
        <ele>608.5</ele>
        <time>1970-01-01T00:29:06.000Z</time>
      </trkpt>
      <trkpt lat="41.053338" lon="-6.743842">
        <ele>608.6</ele>
        <time>1970-01-01T00:29:07.000Z</time>
      </trkpt>
      <trkpt lat="41.053302" lon="-6.743874">
        <ele>608.7</ele>
        <time>1970-01-01T00:29:08.000Z</time>
      </trkpt>
      <trkpt lat="41.053266" lon="-6.743906">
        <ele>608.7</ele>
        <time>1970-01-01T00:29:09.000Z</time>
      </trkpt>
      <trkpt lat="41.05323" lon="-6.743937">
        <ele>608.8</ele>
        <time>1970-01-01T00:29:10.000Z</time>
      </trkpt>
      <trkpt lat="41.053193" lon="-6.743968">
        <ele>608.9</ele>
        <time>1970-01-01T00:29:11.000Z</time>
      </trkpt>
      <trkpt lat="41.053156" lon="-6.744">
        <ele>609</ele>
        <time>1970-01-01T00:29:12.000Z</time>
      </trkpt>
      <trkpt lat="41.053118" lon="-6.744032">
        <ele>609.1</ele>
        <time>1970-01-01T00:29:13.000Z</time>
      </trkpt>
      <trkpt lat="41.053082" lon="-6.744064">
        <ele>609.2</ele>
        <time>1970-01-01T00:29:14.000Z</time>
      </trkpt>
      <trkpt lat="41.053045" lon="-6.744096">
        <ele>609.4</ele>
        <time>1970-01-01T00:29:15.000Z</time>
      </trkpt>
      <trkpt lat="41.053009" lon="-6.744127">
        <ele>609.5</ele>
        <time>1970-01-01T00:29:16.000Z</time>
      </trkpt>
      <trkpt lat="41.052974" lon="-6.744157">
        <ele>609.6</ele>
        <time>1970-01-01T00:29:17.000Z</time>
      </trkpt>
      <trkpt lat="41.05294" lon="-6.744187">
        <ele>609.6</ele>
        <time>1970-01-01T00:29:18.000Z</time>
      </trkpt>
      <trkpt lat="41.052906" lon="-6.744217">
        <ele>609.7</ele>
        <time>1970-01-01T00:29:19.000Z</time>
      </trkpt>
      <trkpt lat="41.052872" lon="-6.744248">
        <ele>609.8</ele>
        <time>1970-01-01T00:29:20.000Z</time>
      </trkpt>
      <trkpt lat="41.052836" lon="-6.744278">
        <ele>609.9</ele>
        <time>1970-01-01T00:29:21.000Z</time>
      </trkpt>
      <trkpt lat="41.052801" lon="-6.744308">
        <ele>610</ele>
        <time>1970-01-01T00:29:22.000Z</time>
      </trkpt>
      <trkpt lat="41.052766" lon="-6.744338">
        <ele>610.1</ele>
        <time>1970-01-01T00:29:23.000Z</time>
      </trkpt>
      <trkpt lat="41.052731" lon="-6.744369">
        <ele>610.2</ele>
        <time>1970-01-01T00:29:24.000Z</time>
      </trkpt>
      <trkpt lat="41.052694" lon="-6.7444">
        <ele>610.3</ele>
        <time>1970-01-01T00:29:25.000Z</time>
      </trkpt>
      <trkpt lat="41.052657" lon="-6.744433">
        <ele>610.4</ele>
        <time>1970-01-01T00:29:26.000Z</time>
      </trkpt>
      <trkpt lat="41.05262" lon="-6.744466">
        <ele>610.5</ele>
        <time>1970-01-01T00:29:27.000Z</time>
      </trkpt>
      <trkpt lat="41.052585" lon="-6.744498">
        <ele>610.6</ele>
        <time>1970-01-01T00:29:28.000Z</time>
      </trkpt>
      <trkpt lat="41.052549" lon="-6.744529">
        <ele>610.6</ele>
        <time>1970-01-01T00:29:29.000Z</time>
      </trkpt>
      <trkpt lat="41.052514" lon="-6.74456">
        <ele>610.7</ele>
        <time>1970-01-01T00:29:30.000Z</time>
      </trkpt>
      <trkpt lat="41.052479" lon="-6.744589">
        <ele>610.8</ele>
        <time>1970-01-01T00:29:31.000Z</time>
      </trkpt>
      <trkpt lat="41.052443" lon="-6.744618">
        <ele>610.9</ele>
        <time>1970-01-01T00:29:32.000Z</time>
      </trkpt>
      <trkpt lat="41.052406" lon="-6.744648">
        <ele>610.9</ele>
        <time>1970-01-01T00:29:33.000Z</time>
      </trkpt>
      <trkpt lat="41.052369" lon="-6.74468">
        <ele>611</ele>
        <time>1970-01-01T00:29:34.000Z</time>
      </trkpt>
      <trkpt lat="41.052333" lon="-6.744712">
        <ele>611.1</ele>
        <time>1970-01-01T00:29:35.000Z</time>
      </trkpt>
      <trkpt lat="41.052297" lon="-6.744745">
        <ele>611.2</ele>
        <time>1970-01-01T00:29:36.000Z</time>
      </trkpt>
      <trkpt lat="41.052261" lon="-6.744777">
        <ele>611.3</ele>
        <time>1970-01-01T00:29:37.000Z</time>
      </trkpt>
      <trkpt lat="41.052225" lon="-6.744809">
        <ele>611.4</ele>
        <time>1970-01-01T00:29:38.000Z</time>
      </trkpt>
      <trkpt lat="41.052188" lon="-6.744841">
        <ele>611.5</ele>
        <time>1970-01-01T00:29:39.000Z</time>
      </trkpt>
      <trkpt lat="41.052151" lon="-6.744873">
        <ele>611.6</ele>
        <time>1970-01-01T00:29:40.000Z</time>
      </trkpt>
      <trkpt lat="41.052114" lon="-6.744905">
        <ele>611.7</ele>
        <time>1970-01-01T00:29:41.000Z</time>
      </trkpt>
      <trkpt lat="41.052077" lon="-6.744937">
        <ele>611.8</ele>
        <time>1970-01-01T00:29:42.000Z</time>
      </trkpt>
      <trkpt lat="41.052041" lon="-6.744968">
        <ele>611.9</ele>
        <time>1970-01-01T00:29:43.000Z</time>
      </trkpt>
      <trkpt lat="41.052004" lon="-6.745">
        <ele>612</ele>
        <time>1970-01-01T00:29:44.000Z</time>
      </trkpt>
      <trkpt lat="41.051967" lon="-6.745031">
        <ele>612</ele>
        <time>1970-01-01T00:29:45.000Z</time>
      </trkpt>
      <trkpt lat="41.051931" lon="-6.745063">
        <ele>612.1</ele>
        <time>1970-01-01T00:29:46.000Z</time>
      </trkpt>
      <trkpt lat="41.051895" lon="-6.745095">
        <ele>612.2</ele>
        <time>1970-01-01T00:29:47.000Z</time>
      </trkpt>
      <trkpt lat="41.05186" lon="-6.745126">
        <ele>612.3</ele>
        <time>1970-01-01T00:29:48.000Z</time>
      </trkpt>
      <trkpt lat="41.051824" lon="-6.745157">
        <ele>612.4</ele>
        <time>1970-01-01T00:29:49.000Z</time>
      </trkpt>
      <trkpt lat="41.051788" lon="-6.745188">
        <ele>612.5</ele>
        <time>1970-01-01T00:29:50.000Z</time>
      </trkpt>
      <trkpt lat="41.051752" lon="-6.745218">
        <ele>612.6</ele>
        <time>1970-01-01T00:29:51.000Z</time>
      </trkpt>
      <trkpt lat="41.051716" lon="-6.745248">
        <ele>612.7</ele>
        <time>1970-01-01T00:29:52.000Z</time>
      </trkpt>
      <trkpt lat="41.05168" lon="-6.745277">
        <ele>612.8</ele>
        <time>1970-01-01T00:29:53.000Z</time>
      </trkpt>
      <trkpt lat="41.051642" lon="-6.745306">
        <ele>612.9</ele>
        <time>1970-01-01T00:29:54.000Z</time>
      </trkpt>
      <trkpt lat="41.051606" lon="-6.745337">
        <ele>612.9</ele>
        <time>1970-01-01T00:29:55.000Z</time>
      </trkpt>
      <trkpt lat="41.05157" lon="-6.745369">
        <ele>613</ele>
        <time>1970-01-01T00:29:56.000Z</time>
      </trkpt>
      <trkpt lat="41.051534" lon="-6.745402">
        <ele>613.1</ele>
        <time>1970-01-01T00:29:57.000Z</time>
      </trkpt>
      <trkpt lat="41.051498" lon="-6.745434">
        <ele>613.1</ele>
        <time>1970-01-01T00:29:58.000Z</time>
      </trkpt>
      <trkpt lat="41.051463" lon="-6.745466">
        <ele>613.2</ele>
        <time>1970-01-01T00:29:59.000Z</time>
      </trkpt>
      <trkpt lat="41.051427" lon="-6.745498">
        <ele>613.2</ele>
        <time>1970-01-01T00:30:00.000Z</time>
      </trkpt>
      <trkpt lat="41.051391" lon="-6.745529">
        <ele>613.3</ele>
        <time>1970-01-01T00:30:01.000Z</time>
      </trkpt>
      <trkpt lat="41.051355" lon="-6.74556">
        <ele>613.4</ele>
        <time>1970-01-01T00:30:02.000Z</time>
      </trkpt>
      <trkpt lat="41.05132" lon="-6.74559">
        <ele>613.5</ele>
        <time>1970-01-01T00:30:03.000Z</time>
      </trkpt>
      <trkpt lat="41.051284" lon="-6.74562">
        <ele>613.6</ele>
        <time>1970-01-01T00:30:04.000Z</time>
      </trkpt>
      <trkpt lat="41.051249" lon="-6.745649">
        <ele>613.6</ele>
        <time>1970-01-01T00:30:05.000Z</time>
      </trkpt>
      <trkpt lat="41.051214" lon="-6.745678">
        <ele>613.7</ele>
        <time>1970-01-01T00:30:06.000Z</time>
      </trkpt>
      <trkpt lat="41.051179" lon="-6.745708">
        <ele>613.7</ele>
        <time>1970-01-01T00:30:07.000Z</time>
      </trkpt>
      <trkpt lat="41.051143" lon="-6.745739">
        <ele>613.8</ele>
        <time>1970-01-01T00:30:08.000Z</time>
      </trkpt>
      <trkpt lat="41.051108" lon="-6.745771">
        <ele>613.8</ele>
        <time>1970-01-01T00:30:09.000Z</time>
      </trkpt>
      <trkpt lat="41.051071" lon="-6.745803">
        <ele>613.8</ele>
        <time>1970-01-01T00:30:10.000Z</time>
      </trkpt>
      <trkpt lat="41.051035" lon="-6.745834">
        <ele>613.9</ele>
        <time>1970-01-01T00:30:11.000Z</time>
      </trkpt>
      <trkpt lat="41.050998" lon="-6.745865">
        <ele>613.9</ele>
        <time>1970-01-01T00:30:12.000Z</time>
      </trkpt>
      <trkpt lat="41.050963" lon="-6.745897">
        <ele>614</ele>
        <time>1970-01-01T00:30:13.000Z</time>
      </trkpt>
      <trkpt lat="41.050928" lon="-6.745929">
        <ele>614</ele>
        <time>1970-01-01T00:30:14.000Z</time>
      </trkpt>
      <trkpt lat="41.050893" lon="-6.74596">
        <ele>614.1</ele>
        <time>1970-01-01T00:30:15.000Z</time>
      </trkpt>
      <trkpt lat="41.050857" lon="-6.745989">
        <ele>614.1</ele>
        <time>1970-01-01T00:30:16.000Z</time>
      </trkpt>
      <trkpt lat="41.050821" lon="-6.746018">
        <ele>614.2</ele>
        <time>1970-01-01T00:30:17.000Z</time>
      </trkpt>
      <trkpt lat="41.050784" lon="-6.746048">
        <ele>614.3</ele>
        <time>1970-01-01T00:30:18.000Z</time>
      </trkpt>
      <trkpt lat="41.050749" lon="-6.746078">
        <ele>614.3</ele>
        <time>1970-01-01T00:30:19.000Z</time>
      </trkpt>
      <trkpt lat="41.050714" lon="-6.746109">
        <ele>614.4</ele>
        <time>1970-01-01T00:30:20.000Z</time>
      </trkpt>
      <trkpt lat="41.050678" lon="-6.746139">
        <ele>614.5</ele>
        <time>1970-01-01T00:30:21.000Z</time>
      </trkpt>
      <trkpt lat="41.050643" lon="-6.746169">
        <ele>614.6</ele>
        <time>1970-01-01T00:30:22.000Z</time>
      </trkpt>
      <trkpt lat="41.050608" lon="-6.746199">
        <ele>614.7</ele>
        <time>1970-01-01T00:30:23.000Z</time>
      </trkpt>
      <trkpt lat="41.050572" lon="-6.74623">
        <ele>614.8</ele>
        <time>1970-01-01T00:30:24.000Z</time>
      </trkpt>
      <trkpt lat="41.050536" lon="-6.74626">
        <ele>614.9</ele>
        <time>1970-01-01T00:30:25.000Z</time>
      </trkpt>
      <trkpt lat="41.0505" lon="-6.74629">
        <ele>615.1</ele>
        <time>1970-01-01T00:30:26.000Z</time>
      </trkpt>
      <trkpt lat="41.050465" lon="-6.74632">
        <ele>615.3</ele>
        <time>1970-01-01T00:30:27.000Z</time>
      </trkpt>
      <trkpt lat="41.050431" lon="-6.746348">
        <ele>615.5</ele>
        <time>1970-01-01T00:30:28.000Z</time>
      </trkpt>
      <trkpt lat="41.050397" lon="-6.746376">
        <ele>615.7</ele>
        <time>1970-01-01T00:30:29.000Z</time>
      </trkpt>
      <trkpt lat="41.050363" lon="-6.746404">
        <ele>616</ele>
        <time>1970-01-01T00:30:30.000Z</time>
      </trkpt>
      <trkpt lat="41.050329" lon="-6.746432">
        <ele>616.2</ele>
        <time>1970-01-01T00:30:31.000Z</time>
      </trkpt>
      <trkpt lat="41.050296" lon="-6.746463">
        <ele>616.4</ele>
        <time>1970-01-01T00:30:32.000Z</time>
      </trkpt>
      <trkpt lat="41.050263" lon="-6.746494">
        <ele>616.7</ele>
        <time>1970-01-01T00:30:33.000Z</time>
      </trkpt>
      <trkpt lat="41.05023" lon="-6.746524">
        <ele>616.9</ele>
        <time>1970-01-01T00:30:34.000Z</time>
      </trkpt>
      <trkpt lat="41.050201" lon="-6.746554">
        <ele>617.3</ele>
        <time>1970-01-01T00:30:35.000Z</time>
      </trkpt>
      <trkpt lat="41.050178" lon="-6.746585">
        <ele>617.8</ele>
        <time>1970-01-01T00:30:36.000Z</time>
      </trkpt>
      <trkpt lat="41.050159" lon="-6.746619">
        <ele>618.3</ele>
        <time>1970-01-01T00:30:37.000Z</time>
      </trkpt>
      <trkpt lat="41.050143" lon="-6.746655">
        <ele>618.8</ele>
        <time>1970-01-01T00:30:38.000Z</time>
      </trkpt>
      <trkpt lat="41.050128" lon="-6.746692">
        <ele>619.3</ele>
        <time>1970-01-01T00:30:39.000Z</time>
      </trkpt>
      <trkpt lat="41.050117" lon="-6.746729">
        <ele>619.7</ele>
        <time>1970-01-01T00:30:40.000Z</time>
      </trkpt>
      <trkpt lat="41.050109" lon="-6.746765">
        <ele>620.2</ele>
        <time>1970-01-01T00:30:41.000Z</time>
      </trkpt>
      <trkpt lat="41.050103" lon="-6.746799">
        <ele>621.3</ele>
        <time>1970-01-01T00:30:42.000Z</time>
      </trkpt>
      <trkpt lat="41.050099" lon="-6.746829">
        <ele>621.5</ele>
        <time>1970-01-01T00:30:43.000Z</time>
      </trkpt>
      <trkpt lat="41.050097" lon="-6.746855">
        <ele>621.6</ele>
        <time>1970-01-01T00:30:44.000Z</time>
      </trkpt>
      <trkpt lat="41.050098" lon="-6.746876">
        <ele>621.7</ele>
        <time>1970-01-01T00:30:45.000Z</time>
      </trkpt>
      <trkpt lat="41.050094" lon="-6.746895">
        <ele>621.8</ele>
        <time>1970-01-01T00:30:46.000Z</time>
      </trkpt>
      <trkpt lat="41.050085" lon="-6.746909">
        <ele>621.9</ele>
        <time>1970-01-01T00:30:47.000Z</time>
      </trkpt>
      <trkpt lat="41.048394" lon="-6.748102">
        <ele>630.2</ele>
        <time>1970-01-01T00:30:48.000Z</time>
      </trkpt>
      <trkpt lat="41.048369" lon="-6.748126">
        <ele>630.4</ele>
        <time>1970-01-01T00:30:49.000Z</time>
      </trkpt>
      <trkpt lat="41.048344" lon="-6.748148">
        <ele>630.6</ele>
        <time>1970-01-01T00:32:08.000Z</time>
      </trkpt>
      <trkpt lat="41.048319" lon="-6.748169">
        <ele>630.8</ele>
        <time>1970-01-01T00:32:09.000Z</time>
      </trkpt>
      <trkpt lat="41.048293" lon="-6.748191">
        <ele>631</ele>
        <time>1970-01-01T00:32:10.000Z</time>
      </trkpt>
      <trkpt lat="41.048267" lon="-6.748214">
        <ele>631.2</ele>
        <time>1970-01-01T00:32:11.000Z</time>
      </trkpt>
      <trkpt lat="41.048241" lon="-6.748238">
        <ele>631.3</ele>
        <time>1970-01-01T00:32:12.000Z</time>
      </trkpt>
      <trkpt lat="41.048216" lon="-6.748263">
        <ele>631.6</ele>
        <time>1970-01-01T00:32:13.000Z</time>
      </trkpt>
      <trkpt lat="41.048192" lon="-6.748288">
        <ele>631.8</ele>
        <time>1970-01-01T00:32:14.000Z</time>
      </trkpt>
      <trkpt lat="41.048168" lon="-6.748314">
        <ele>632</ele>
        <time>1970-01-01T00:32:15.000Z</time>
      </trkpt>
      <trkpt lat="41.048145" lon="-6.748338">
        <ele>632.2</ele>
        <time>1970-01-01T00:32:16.000Z</time>
      </trkpt>
      <trkpt lat="41.048121" lon="-6.748362">
        <ele>632.4</ele>
        <time>1970-01-01T00:32:17.000Z</time>
      </trkpt>
      <trkpt lat="41.048099" lon="-6.748388">
        <ele>632.6</ele>
        <time>1970-01-01T00:32:18.000Z</time>
      </trkpt>
      <trkpt lat="41.048077" lon="-6.748415">
        <ele>632.8</ele>
        <time>1970-01-01T00:32:19.000Z</time>
      </trkpt>
      <trkpt lat="41.048056" lon="-6.748443">
        <ele>633</ele>
        <time>1970-01-01T00:32:20.000Z</time>
      </trkpt>
      <trkpt lat="41.048035" lon="-6.748471">
        <ele>633.2</ele>
        <time>1970-01-01T00:32:21.000Z</time>
      </trkpt>
      <trkpt lat="41.048013" lon="-6.748499">
        <ele>633.4</ele>
        <time>1970-01-01T00:32:22.000Z</time>
      </trkpt>
      <trkpt lat="41.047992" lon="-6.748526">
        <ele>633.5</ele>
        <time>1970-01-01T00:32:23.000Z</time>
      </trkpt>
      <trkpt lat="41.04797" lon="-6.748554">
        <ele>633.7</ele>
        <time>1970-01-01T00:32:24.000Z</time>
      </trkpt>
      <trkpt lat="41.04795" lon="-6.748582">
        <ele>633.9</ele>
        <time>1970-01-01T00:32:25.000Z</time>
      </trkpt>
      <trkpt lat="41.047931" lon="-6.74861">
        <ele>634</ele>
        <time>1970-01-01T00:32:26.000Z</time>
      </trkpt>
      <trkpt lat="41.047911" lon="-6.748639">
        <ele>634.2</ele>
        <time>1970-01-01T00:32:27.000Z</time>
      </trkpt>
      <trkpt lat="41.04789" lon="-6.748669">
        <ele>634.4</ele>
        <time>1970-01-01T00:32:28.000Z</time>
      </trkpt>
      <trkpt lat="41.04787" lon="-6.7487">
        <ele>634.6</ele>
        <time>1970-01-01T00:32:29.000Z</time>
      </trkpt>
      <trkpt lat="41.04785" lon="-6.748731">
        <ele>634.8</ele>
        <time>1970-01-01T00:32:30.000Z</time>
      </trkpt>
      <trkpt lat="41.047831" lon="-6.748761">
        <ele>634.9</ele>
        <time>1970-01-01T00:32:31.000Z</time>
      </trkpt>
      <trkpt lat="41.047814" lon="-6.748791">
        <ele>635.1</ele>
        <time>1970-01-01T00:32:32.000Z</time>
      </trkpt>
      <trkpt lat="41.047797" lon="-6.748821">
        <ele>635.3</ele>
        <time>1970-01-01T00:32:33.000Z</time>
      </trkpt>
      <trkpt lat="41.04778" lon="-6.748852">
        <ele>635.4</ele>
        <time>1970-01-01T00:32:34.000Z</time>
      </trkpt>
      <trkpt lat="41.047764" lon="-6.748883">
        <ele>635.6</ele>
        <time>1970-01-01T00:32:35.000Z</time>
      </trkpt>
      <trkpt lat="41.047749" lon="-6.748915">
        <ele>635.8</ele>
        <time>1970-01-01T00:32:36.000Z</time>
      </trkpt>
      <trkpt lat="41.047734" lon="-6.748946">
        <ele>636</ele>
        <time>1970-01-01T00:32:37.000Z</time>
      </trkpt>
      <trkpt lat="41.047719" lon="-6.748979">
        <ele>636.1</ele>
        <time>1970-01-01T00:32:38.000Z</time>
      </trkpt>
      <trkpt lat="41.047704" lon="-6.749012">
        <ele>636.3</ele>
        <time>1970-01-01T00:32:39.000Z</time>
      </trkpt>
      <trkpt lat="41.047689" lon="-6.749044">
        <ele>636.5</ele>
        <time>1970-01-01T00:32:40.000Z</time>
      </trkpt>
      <trkpt lat="41.047675" lon="-6.749077">
        <ele>636.7</ele>
        <time>1970-01-01T00:32:41.000Z</time>
      </trkpt>
      <trkpt lat="41.04766" lon="-6.74911">
        <ele>636.9</ele>
        <time>1970-01-01T00:32:42.000Z</time>
      </trkpt>
      <trkpt lat="41.047647" lon="-6.749144">
        <ele>637.1</ele>
        <time>1970-01-01T00:32:43.000Z</time>
      </trkpt>
      <trkpt lat="41.047633" lon="-6.749175">
        <ele>637.3</ele>
        <time>1970-01-01T00:32:44.000Z</time>
      </trkpt>
      <trkpt lat="41.047619" lon="-6.749207">
        <ele>637.5</ele>
        <time>1970-01-01T00:32:45.000Z</time>
      </trkpt>
      <trkpt lat="41.047605" lon="-6.74924">
        <ele>637.7</ele>
        <time>1970-01-01T00:32:46.000Z</time>
      </trkpt>
      <trkpt lat="41.047592" lon="-6.749277">
        <ele>637.8</ele>
        <time>1970-01-01T00:32:47.000Z</time>
      </trkpt>
      <trkpt lat="41.047579" lon="-6.749315">
        <ele>638</ele>
        <time>1970-01-01T00:32:48.000Z</time>
      </trkpt>
      <trkpt lat="41.047566" lon="-6.749353">
        <ele>638.2</ele>
        <time>1970-01-01T00:32:49.000Z</time>
      </trkpt>
      <trkpt lat="41.047553" lon="-6.749389">
        <ele>638.4</ele>
        <time>1970-01-01T00:32:50.000Z</time>
      </trkpt>
      <trkpt lat="41.047539" lon="-6.749426">
        <ele>638.6</ele>
        <time>1970-01-01T00:32:51.000Z</time>
      </trkpt>
      <trkpt lat="41.047524" lon="-6.749462">
        <ele>638.8</ele>
        <time>1970-01-01T00:32:52.000Z</time>
      </trkpt>
      <trkpt lat="41.04751" lon="-6.749499">
        <ele>639</ele>
        <time>1970-01-01T00:32:53.000Z</time>
      </trkpt>
      <trkpt lat="41.047498" lon="-6.749538">
        <ele>639.2</ele>
        <time>1970-01-01T00:32:54.000Z</time>
      </trkpt>
      <trkpt lat="41.047488" lon="-6.749576">
        <ele>639.4</ele>
        <time>1970-01-01T00:32:55.000Z</time>
      </trkpt>
      <trkpt lat="41.047479" lon="-6.749613">
        <ele>639.6</ele>
        <time>1970-01-01T00:32:56.000Z</time>
      </trkpt>
      <trkpt lat="41.047471" lon="-6.749649">
        <ele>639.8</ele>
        <time>1970-01-01T00:32:57.000Z</time>
      </trkpt>
      <trkpt lat="41.047463" lon="-6.749686">
        <ele>640</ele>
        <time>1970-01-01T00:32:58.000Z</time>
      </trkpt>
      <trkpt lat="41.047455" lon="-6.749722">
        <ele>640.2</ele>
        <time>1970-01-01T00:32:59.000Z</time>
      </trkpt>
      <trkpt lat="41.047446" lon="-6.749759">
        <ele>640.5</ele>
        <time>1970-01-01T00:33:00.000Z</time>
      </trkpt>
      <trkpt lat="41.047439" lon="-6.749795">
        <ele>640.7</ele>
        <time>1970-01-01T00:33:01.000Z</time>
      </trkpt>
      <trkpt lat="41.047433" lon="-6.749831">
        <ele>640.9</ele>
        <time>1970-01-01T00:33:02.000Z</time>
      </trkpt>
      <trkpt lat="41.047427" lon="-6.749866">
        <ele>641.1</ele>
        <time>1970-01-01T00:33:03.000Z</time>
      </trkpt>
      <trkpt lat="41.047421" lon="-6.749903">
        <ele>641.3</ele>
        <time>1970-01-01T00:33:04.000Z</time>
      </trkpt>
      <trkpt lat="41.047415" lon="-6.74994">
        <ele>641.5</ele>
        <time>1970-01-01T00:33:05.000Z</time>
      </trkpt>
      <trkpt lat="41.047409" lon="-6.749979">
        <ele>641.7</ele>
        <time>1970-01-01T00:33:06.000Z</time>
      </trkpt>
      <trkpt lat="41.047403" lon="-6.750019">
        <ele>641.9</ele>
        <time>1970-01-01T00:33:07.000Z</time>
      </trkpt>
      <trkpt lat="41.047396" lon="-6.75006">
        <ele>642.1</ele>
        <time>1970-01-01T00:33:08.000Z</time>
      </trkpt>
      <trkpt lat="41.04739" lon="-6.750101">
        <ele>642.3</ele>
        <time>1970-01-01T00:33:09.000Z</time>
      </trkpt>
      <trkpt lat="41.047383" lon="-6.750142">
        <ele>642.6</ele>
        <time>1970-01-01T00:33:10.000Z</time>
      </trkpt>
      <trkpt lat="41.047377" lon="-6.750183">
        <ele>642.8</ele>
        <time>1970-01-01T00:33:11.000Z</time>
      </trkpt>
      <trkpt lat="41.047372" lon="-6.750223">
        <ele>643</ele>
        <time>1970-01-01T00:33:12.000Z</time>
      </trkpt>
      <trkpt lat="41.047367" lon="-6.750263">
        <ele>643.2</ele>
        <time>1970-01-01T00:33:13.000Z</time>
      </trkpt>
      <trkpt lat="41.047363" lon="-6.750304">
        <ele>643.4</ele>
        <time>1970-01-01T00:33:14.000Z</time>
      </trkpt>
      <trkpt lat="41.047359" lon="-6.750345">
        <ele>643.6</ele>
        <time>1970-01-01T00:33:15.000Z</time>
      </trkpt>
      <trkpt lat="41.047354" lon="-6.750386">
        <ele>643.8</ele>
        <time>1970-01-01T00:33:16.000Z</time>
      </trkpt>
      <trkpt lat="41.047349" lon="-6.750424">
        <ele>644</ele>
        <time>1970-01-01T00:33:17.000Z</time>
      </trkpt>
      <trkpt lat="41.047345" lon="-6.750458">
        <ele>644.1</ele>
        <time>1970-01-01T00:33:18.000Z</time>
      </trkpt>
      <trkpt lat="41.047342" lon="-6.750488">
        <ele>644.2</ele>
        <time>1970-01-01T00:33:19.000Z</time>
      </trkpt>
      <trkpt lat="41.047339" lon="-6.750515">
        <ele>644.3</ele>
        <time>1970-01-01T00:33:20.000Z</time>
      </trkpt>
      <trkpt lat="41.047335" lon="-6.75054">
        <ele>644.4</ele>
        <time>1970-01-01T00:33:21.000Z</time>
      </trkpt>
      <trkpt lat="41.047331" lon="-6.750565">
        <ele>644.6</ele>
        <time>1970-01-01T00:33:22.000Z</time>
      </trkpt>
      <trkpt lat="41.047329" lon="-6.750589">
        <ele>644.8</ele>
        <time>1970-01-01T00:33:23.000Z</time>
      </trkpt>
      <trkpt lat="41.047326" lon="-6.750614">
        <ele>644.9</ele>
        <time>1970-01-01T00:33:24.000Z</time>
      </trkpt>
      <trkpt lat="41.047323" lon="-6.750638">
        <ele>645</ele>
        <time>1970-01-01T00:33:25.000Z</time>
      </trkpt>
      <trkpt lat="41.04732" lon="-6.750661">
        <ele>645.1</ele>
        <time>1970-01-01T00:33:26.000Z</time>
      </trkpt>
      <trkpt lat="41.047317" lon="-6.750681">
        <ele>645.2</ele>
        <time>1970-01-01T00:33:27.000Z</time>
      </trkpt>
      <trkpt lat="41.047316" lon="-6.750696">
        <ele>645.3</ele>
        <time>1970-01-01T00:33:28.000Z</time>
      </trkpt>
      <trkpt lat="41.047315" lon="-6.750705">
        <ele>645.3</ele>
        <time>1970-01-01T00:33:29.000Z</time>
      </trkpt>
      <trkpt lat="41.047315" lon="-6.750709">
        <ele>645.3</ele>
        <time>1970-01-01T00:33:30.000Z</time>
      </trkpt>
      <trkpt lat="41.047313" lon="-6.750713">
        <ele>645.3</ele>
        <time>1970-01-01T00:33:31.000Z</time>
      </trkpt>
      <trkpt lat="41.047312" lon="-6.750716">
        <ele>645.4</ele>
        <time>1970-01-01T00:33:32.000Z</time>
      </trkpt>
      <trkpt lat="41.047311" lon="-6.750717">
        <ele>645.4</ele>
        <time>1970-01-01T00:33:33.000Z</time>
      </trkpt>
      <trkpt lat="41.047311" lon="-6.750719">
        <ele>645.4</ele>
        <time>1970-01-01T00:33:34.000Z</time>
      </trkpt>
      <trkpt lat="41.047311" lon="-6.750719">
        <ele>645.4</ele>
        <time>1970-01-01T00:33:35.000Z</time>
      </trkpt>
      <trkpt lat="41.047312" lon="-6.75072">
        <ele>645.4</ele>
        <time>1970-01-01T00:33:36.000Z</time>
      </trkpt>
      <trkpt lat="41.047292" lon="-6.750778">
        <ele>645.7</ele>
        <time>1970-01-01T00:33:37.000Z</time>
      </trkpt>
      <trkpt lat="41.047289" lon="-6.750805">
        <ele>645.8</ele>
        <time>1970-01-01T00:33:38.000Z</time>
      </trkpt>
      <trkpt lat="41.047288" lon="-6.750833">
        <ele>646</ele>
        <time>1970-01-01T00:33:48.000Z</time>
      </trkpt>
      <trkpt lat="41.047287" lon="-6.750866">
        <ele>646.1</ele>
        <time>1970-01-01T00:33:49.000Z</time>
      </trkpt>
      <trkpt lat="41.047284" lon="-6.750901">
        <ele>646.3</ele>
        <time>1970-01-01T00:33:50.000Z</time>
      </trkpt>
      <trkpt lat="41.04728" lon="-6.750936">
        <ele>646.4</ele>
        <time>1970-01-01T00:33:51.000Z</time>
      </trkpt>
      <trkpt lat="41.047275" lon="-6.75097">
        <ele>646.6</ele>
        <time>1970-01-01T00:33:52.000Z</time>
      </trkpt>
      <trkpt lat="41.047271" lon="-6.751002">
        <ele>646.7</ele>
        <time>1970-01-01T00:33:53.000Z</time>
      </trkpt>
      <trkpt lat="41.047266" lon="-6.751032">
        <ele>646.9</ele>
        <time>1970-01-01T00:33:54.000Z</time>
      </trkpt>
      <trkpt lat="41.047263" lon="-6.751061">
        <ele>647</ele>
        <time>1970-01-01T00:33:55.000Z</time>
      </trkpt>
      <trkpt lat="41.04726" lon="-6.751089">
        <ele>647.1</ele>
        <time>1970-01-01T00:33:56.000Z</time>
      </trkpt>
      <trkpt lat="41.047257" lon="-6.751116">
        <ele>647.3</ele>
        <time>1970-01-01T00:33:57.000Z</time>
      </trkpt>
      <trkpt lat="41.047255" lon="-6.751143">
        <ele>647.4</ele>
        <time>1970-01-01T00:33:58.000Z</time>
      </trkpt>
      <trkpt lat="41.047252" lon="-6.751169">
        <ele>647.5</ele>
        <time>1970-01-01T00:33:59.000Z</time>
      </trkpt>
      <trkpt lat="41.047251" lon="-6.751195">
        <ele>647.6</ele>
        <time>1970-01-01T00:34:00.000Z</time>
      </trkpt>
      <trkpt lat="41.04725" lon="-6.751221">
        <ele>647.7</ele>
        <time>1970-01-01T00:34:01.000Z</time>
      </trkpt>
      <trkpt lat="41.047249" lon="-6.751248">
        <ele>647.8</ele>
        <time>1970-01-01T00:34:02.000Z</time>
      </trkpt>
      <trkpt lat="41.047247" lon="-6.751275">
        <ele>647.9</ele>
        <time>1970-01-01T00:34:03.000Z</time>
      </trkpt>
      <trkpt lat="41.047243" lon="-6.751301">
        <ele>648</ele>
        <time>1970-01-01T00:34:04.000Z</time>
      </trkpt>
      <trkpt lat="41.047239" lon="-6.751327">
        <ele>648.1</ele>
        <time>1970-01-01T00:34:05.000Z</time>
      </trkpt>
      <trkpt lat="41.047235" lon="-6.751354">
        <ele>648.2</ele>
        <time>1970-01-01T00:34:06.000Z</time>
      </trkpt>
      <trkpt lat="41.047232" lon="-6.751379">
        <ele>648.3</ele>
        <time>1970-01-01T00:34:07.000Z</time>
      </trkpt>
      <trkpt lat="41.047228" lon="-6.751403">
        <ele>648.4</ele>
        <time>1970-01-01T00:34:08.000Z</time>
      </trkpt>
      <trkpt lat="41.047224" lon="-6.751426">
        <ele>648.5</ele>
        <time>1970-01-01T00:34:09.000Z</time>
      </trkpt>
      <trkpt lat="41.047221" lon="-6.751448">
        <ele>648.6</ele>
        <time>1970-01-01T00:34:10.000Z</time>
      </trkpt>
      <trkpt lat="41.047217" lon="-6.751471">
        <ele>648.7</ele>
        <time>1970-01-01T00:34:11.000Z</time>
      </trkpt>
      <trkpt lat="41.047214" lon="-6.751494">
        <ele>648.8</ele>
        <time>1970-01-01T00:34:12.000Z</time>
      </trkpt>
      <trkpt lat="41.047211" lon="-6.751516">
        <ele>648.9</ele>
        <time>1970-01-01T00:34:13.000Z</time>
      </trkpt>
      <trkpt lat="41.047207" lon="-6.751538">
        <ele>649</ele>
        <time>1970-01-01T00:34:14.000Z</time>
      </trkpt>
      <trkpt lat="41.047205" lon="-6.751558">
        <ele>649.1</ele>
        <time>1970-01-01T00:34:15.000Z</time>
      </trkpt>
      <trkpt lat="41.047202" lon="-6.751579">
        <ele>649.2</ele>
        <time>1970-01-01T00:34:16.000Z</time>
      </trkpt>
      <trkpt lat="41.047199" lon="-6.751601">
        <ele>649.3</ele>
        <time>1970-01-01T00:34:17.000Z</time>
      </trkpt>
      <trkpt lat="41.047196" lon="-6.751623">
        <ele>649.4</ele>
        <time>1970-01-01T00:34:18.000Z</time>
      </trkpt>
      <trkpt lat="41.047193" lon="-6.751647">
        <ele>649.6</ele>
        <time>1970-01-01T00:34:19.000Z</time>
      </trkpt>
      <trkpt lat="41.047189" lon="-6.751672">
        <ele>649.7</ele>
        <time>1970-01-01T00:34:20.000Z</time>
      </trkpt>
      <trkpt lat="41.047187" lon="-6.751698">
        <ele>649.8</ele>
        <time>1970-01-01T00:34:21.000Z</time>
      </trkpt>
      <trkpt lat="41.047184" lon="-6.751724">
        <ele>649.9</ele>
        <time>1970-01-01T00:34:22.000Z</time>
      </trkpt>
      <trkpt lat="41.04718" lon="-6.75175">
        <ele>650.1</ele>
        <time>1970-01-01T00:34:23.000Z</time>
      </trkpt>
      <trkpt lat="41.047175" lon="-6.751775">
        <ele>650.2</ele>
        <time>1970-01-01T00:34:24.000Z</time>
      </trkpt>
      <trkpt lat="41.047169" lon="-6.7518">
        <ele>650.3</ele>
        <time>1970-01-01T00:34:25.000Z</time>
      </trkpt>
      <trkpt lat="41.047162" lon="-6.751825">
        <ele>650.4</ele>
        <time>1970-01-01T00:34:26.000Z</time>
      </trkpt>
      <trkpt lat="41.047155" lon="-6.751848">
        <ele>650.6</ele>
        <time>1970-01-01T00:34:27.000Z</time>
      </trkpt>
      <trkpt lat="41.047148" lon="-6.751871">
        <ele>650.7</ele>
        <time>1970-01-01T00:34:28.000Z</time>
      </trkpt>
      <trkpt lat="41.04714" lon="-6.751893">
        <ele>650.8</ele>
        <time>1970-01-01T00:34:29.000Z</time>
      </trkpt>
      <trkpt lat="41.047132" lon="-6.751916">
        <ele>650.9</ele>
        <time>1970-01-01T00:34:30.000Z</time>
      </trkpt>
      <trkpt lat="41.047124" lon="-6.75194">
        <ele>651</ele>
        <time>1970-01-01T00:34:31.000Z</time>
      </trkpt>
      <trkpt lat="41.047115" lon="-6.751963">
        <ele>651.2</ele>
        <time>1970-01-01T00:34:32.000Z</time>
      </trkpt>
      <trkpt lat="41.047106" lon="-6.751985">
        <ele>651.3</ele>
        <time>1970-01-01T00:34:33.000Z</time>
      </trkpt>
      <trkpt lat="41.047097" lon="-6.752006">
        <ele>651.4</ele>
        <time>1970-01-01T00:34:34.000Z</time>
      </trkpt>
      <trkpt lat="41.047088" lon="-6.752026">
        <ele>651.5</ele>
        <time>1970-01-01T00:34:35.000Z</time>
      </trkpt>
      <trkpt lat="41.047079" lon="-6.752045">
        <ele>651.6</ele>
        <time>1970-01-01T00:34:36.000Z</time>
      </trkpt>
      <trkpt lat="41.047067" lon="-6.752065">
        <ele>651.7</ele>
        <time>1970-01-01T00:34:37.000Z</time>
      </trkpt>
      <trkpt lat="41.047055" lon="-6.752086">
        <ele>651.9</ele>
        <time>1970-01-01T00:34:38.000Z</time>
      </trkpt>
      <trkpt lat="41.047042" lon="-6.752107">
        <ele>652</ele>
        <time>1970-01-01T00:34:39.000Z</time>
      </trkpt>
      <trkpt lat="41.047029" lon="-6.752127">
        <ele>652.1</ele>
        <time>1970-01-01T00:34:40.000Z</time>
      </trkpt>
      <trkpt lat="41.047016" lon="-6.752145">
        <ele>652.3</ele>
        <time>1970-01-01T00:34:41.000Z</time>
      </trkpt>
      <trkpt lat="41.047002" lon="-6.752164">
        <ele>652.5</ele>
        <time>1970-01-01T00:34:42.000Z</time>
      </trkpt>
      <trkpt lat="41.046988" lon="-6.752185">
        <ele>652.7</ele>
        <time>1970-01-01T00:34:43.000Z</time>
      </trkpt>
      <trkpt lat="41.046974" lon="-6.752205">
        <ele>652.9</ele>
        <time>1970-01-01T00:34:44.000Z</time>
      </trkpt>
      <trkpt lat="41.046957" lon="-6.752225">
        <ele>653.1</ele>
        <time>1970-01-01T00:34:45.000Z</time>
      </trkpt>
      <trkpt lat="41.04694" lon="-6.752242">
        <ele>653.2</ele>
        <time>1970-01-01T00:34:46.000Z</time>
      </trkpt>
      <trkpt lat="41.046923" lon="-6.752257">
        <ele>653.4</ele>
        <time>1970-01-01T00:34:47.000Z</time>
      </trkpt>
      <trkpt lat="41.046906" lon="-6.752271">
        <ele>653.6</ele>
        <time>1970-01-01T00:34:48.000Z</time>
      </trkpt>
      <trkpt lat="41.046891" lon="-6.752285">
        <ele>653.7</ele>
        <time>1970-01-01T00:34:49.000Z</time>
      </trkpt>
      <trkpt lat="41.046877" lon="-6.7523">
        <ele>653.9</ele>
        <time>1970-01-01T00:34:50.000Z</time>
      </trkpt>
      <trkpt lat="41.046864" lon="-6.752318">
        <ele>654</ele>
        <time>1970-01-01T00:34:51.000Z</time>
      </trkpt>
      <trkpt lat="41.046852" lon="-6.752335">
        <ele>654.2</ele>
        <time>1970-01-01T00:34:52.000Z</time>
      </trkpt>
      <trkpt lat="41.046836" lon="-6.752352">
        <ele>654.4</ele>
        <time>1970-01-01T00:34:53.000Z</time>
      </trkpt>
      <trkpt lat="41.046819" lon="-6.752369">
        <ele>654.6</ele>
        <time>1970-01-01T00:34:54.000Z</time>
      </trkpt>
      <trkpt lat="41.046799" lon="-6.752386">
        <ele>654.8</ele>
        <time>1970-01-01T00:34:55.000Z</time>
      </trkpt>
      <trkpt lat="41.046781" lon="-6.752403">
        <ele>654.9</ele>
        <time>1970-01-01T00:34:56.000Z</time>
      </trkpt>
      <trkpt lat="41.046763" lon="-6.752422">
        <ele>655.1</ele>
        <time>1970-01-01T00:34:57.000Z</time>
      </trkpt>
      <trkpt lat="41.046746" lon="-6.752439">
        <ele>655.3</ele>
        <time>1970-01-01T00:34:58.000Z</time>
      </trkpt>
      <trkpt lat="41.046731" lon="-6.752457">
        <ele>655.5</ele>
        <time>1970-01-01T00:34:59.000Z</time>
      </trkpt>
      <trkpt lat="41.046717" lon="-6.752471">
        <ele>655.6</ele>
        <time>1970-01-01T00:35:00.000Z</time>
      </trkpt>
      <trkpt lat="41.046703" lon="-6.752483">
        <ele>655.7</ele>
        <time>1970-01-01T00:35:01.000Z</time>
      </trkpt>
      <trkpt lat="41.046688" lon="-6.752493">
        <ele>655.9</ele>
        <time>1970-01-01T00:35:02.000Z</time>
      </trkpt>
      <trkpt lat="41.046673" lon="-6.752505">
        <ele>656</ele>
        <time>1970-01-01T00:35:03.000Z</time>
      </trkpt>
      <trkpt lat="41.04666" lon="-6.752519">
        <ele>656.1</ele>
        <time>1970-01-01T00:35:04.000Z</time>
      </trkpt>
      <trkpt lat="41.046646" lon="-6.752535">
        <ele>656.3</ele>
        <time>1970-01-01T00:35:05.000Z</time>
      </trkpt>
      <trkpt lat="41.046632" lon="-6.752552">
        <ele>656.4</ele>
        <time>1970-01-01T00:35:06.000Z</time>
      </trkpt>
      <trkpt lat="41.046616" lon="-6.752568">
        <ele>656.6</ele>
        <time>1970-01-01T00:35:07.000Z</time>
      </trkpt>
      <trkpt lat="41.046599" lon="-6.752582">
        <ele>656.7</ele>
        <time>1970-01-01T00:35:08.000Z</time>
      </trkpt>
      <trkpt lat="41.046583" lon="-6.752596">
        <ele>656.9</ele>
        <time>1970-01-01T00:35:09.000Z</time>
      </trkpt>
      <trkpt lat="41.046565" lon="-6.752611">
        <ele>657.1</ele>
        <time>1970-01-01T00:35:10.000Z</time>
      </trkpt>
      <trkpt lat="41.046548" lon="-6.752628">
        <ele>657.2</ele>
        <time>1970-01-01T00:35:11.000Z</time>
      </trkpt>
      <trkpt lat="41.046533" lon="-6.752648">
        <ele>657.4</ele>
        <time>1970-01-01T00:35:12.000Z</time>
      </trkpt>
      <trkpt lat="41.046518" lon="-6.752667">
        <ele>657.6</ele>
        <time>1970-01-01T00:35:13.000Z</time>
      </trkpt>
      <trkpt lat="41.046502" lon="-6.752684">
        <ele>657.8</ele>
        <time>1970-01-01T00:35:14.000Z</time>
      </trkpt>
      <trkpt lat="41.046486" lon="-6.7527">
        <ele>658.1</ele>
        <time>1970-01-01T00:35:15.000Z</time>
      </trkpt>
      <trkpt lat="41.046469" lon="-6.752716">
        <ele>658.2</ele>
        <time>1970-01-01T00:35:16.000Z</time>
      </trkpt>
      <trkpt lat="41.046453" lon="-6.752731">
        <ele>658.3</ele>
        <time>1970-01-01T00:35:17.000Z</time>
      </trkpt>
      <trkpt lat="41.046435" lon="-6.752746">
        <ele>658.4</ele>
        <time>1970-01-01T00:35:18.000Z</time>
      </trkpt>
      <trkpt lat="41.046418" lon="-6.752763">
        <ele>658.5</ele>
        <time>1970-01-01T00:35:19.000Z</time>
      </trkpt>
      <trkpt lat="41.046399" lon="-6.75278">
        <ele>658.5</ele>
        <time>1970-01-01T00:35:20.000Z</time>
      </trkpt>
      <trkpt lat="41.04638" lon="-6.752798">
        <ele>658.6</ele>
        <time>1970-01-01T00:35:21.000Z</time>
      </trkpt>
      <trkpt lat="41.046362" lon="-6.752814">
        <ele>658.7</ele>
        <time>1970-01-01T00:35:22.000Z</time>
      </trkpt>
      <trkpt lat="41.046345" lon="-6.75283">
        <ele>658.8</ele>
        <time>1970-01-01T00:35:23.000Z</time>
      </trkpt>
      <trkpt lat="41.04633" lon="-6.752848">
        <ele>658.9</ele>
        <time>1970-01-01T00:35:24.000Z</time>
      </trkpt>
      <trkpt lat="41.046315" lon="-6.752865">
        <ele>659.1</ele>
        <time>1970-01-01T00:35:25.000Z</time>
      </trkpt>
      <trkpt lat="41.0463" lon="-6.752881">
        <ele>659.2</ele>
        <time>1970-01-01T00:35:26.000Z</time>
      </trkpt>
      <trkpt lat="41.046283" lon="-6.752896">
        <ele>659.3</ele>
        <time>1970-01-01T00:35:27.000Z</time>
      </trkpt>
      <trkpt lat="41.046267" lon="-6.752912">
        <ele>659.4</ele>
        <time>1970-01-01T00:35:28.000Z</time>
      </trkpt>
      <trkpt lat="41.046251" lon="-6.752931">
        <ele>659.6</ele>
        <time>1970-01-01T00:35:29.000Z</time>
      </trkpt>
      <trkpt lat="41.046235" lon="-6.752955">
        <ele>659.7</ele>
        <time>1970-01-01T00:35:30.000Z</time>
      </trkpt>
      <trkpt lat="41.046222" lon="-6.752982">
        <ele>659.9</ele>
        <time>1970-01-01T00:35:31.000Z</time>
      </trkpt>
      <trkpt lat="41.046209" lon="-6.753007">
        <ele>660</ele>
        <time>1970-01-01T00:35:32.000Z</time>
      </trkpt>
      <trkpt lat="41.046197" lon="-6.75303">
        <ele>660.2</ele>
        <time>1970-01-01T00:35:33.000Z</time>
      </trkpt>
      <trkpt lat="41.046187" lon="-6.753049">
        <ele>660.3</ele>
        <time>1970-01-01T00:35:34.000Z</time>
      </trkpt>
      <trkpt lat="41.046177" lon="-6.753066">
        <ele>660.4</ele>
        <time>1970-01-01T00:35:35.000Z</time>
      </trkpt>
      <trkpt lat="41.046162" lon="-6.75308">
        <ele>660.5</ele>
        <time>1970-01-01T00:35:36.000Z</time>
      </trkpt>
      <trkpt lat="41.046137" lon="-6.753092">
        <ele>660.6</ele>
        <time>1970-01-01T00:35:37.000Z</time>
      </trkpt>
      <trkpt lat="41.046108" lon="-6.753102">
        <ele>660.8</ele>
        <time>1970-01-01T00:35:38.000Z</time>
      </trkpt>
      <trkpt lat="41.046077" lon="-6.753108">
        <ele>661.1</ele>
        <time>1970-01-01T00:35:39.000Z</time>
      </trkpt>
      <trkpt lat="41.046049" lon="-6.753107">
        <ele>661.2</ele>
        <time>1970-01-01T00:35:40.000Z</time>
      </trkpt>
      <trkpt lat="41.046025" lon="-6.7531">
        <ele>661.3</ele>
        <time>1970-01-01T00:35:41.000Z</time>
      </trkpt>
      <trkpt lat="41.046002" lon="-6.753091">
        <ele>661.4</ele>
        <time>1970-01-01T00:35:42.000Z</time>
      </trkpt>
      <trkpt lat="41.045982" lon="-6.75308">
        <ele>661.5</ele>
        <time>1970-01-01T00:35:43.000Z</time>
      </trkpt>
      <trkpt lat="41.045963" lon="-6.753069">
        <ele>661.6</ele>
        <time>1970-01-01T00:35:44.000Z</time>
      </trkpt>
      <trkpt lat="41.045943" lon="-6.753056">
        <ele>661.7</ele>
        <time>1970-01-01T00:35:45.000Z</time>
      </trkpt>
      <trkpt lat="41.045922" lon="-6.753042">
        <ele>661.7</ele>
        <time>1970-01-01T00:35:46.000Z</time>
      </trkpt>
      <trkpt lat="41.045902" lon="-6.753027">
        <ele>661.8</ele>
        <time>1970-01-01T00:35:47.000Z</time>
      </trkpt>
      <trkpt lat="41.045884" lon="-6.753012">
        <ele>661.9</ele>
        <time>1970-01-01T00:35:48.000Z</time>
      </trkpt>
      <trkpt lat="41.045866" lon="-6.752998">
        <ele>662</ele>
        <time>1970-01-01T00:35:49.000Z</time>
      </trkpt>
      <trkpt lat="41.045848" lon="-6.752984">
        <ele>662.1</ele>
        <time>1970-01-01T00:35:50.000Z</time>
      </trkpt>
      <trkpt lat="41.04583" lon="-6.75297">
        <ele>662.2</ele>
        <time>1970-01-01T00:35:51.000Z</time>
      </trkpt>
      <trkpt lat="41.045812" lon="-6.752958">
        <ele>662.2</ele>
        <time>1970-01-01T00:35:52.000Z</time>
      </trkpt>
      <trkpt lat="41.045795" lon="-6.752946">
        <ele>662.3</ele>
        <time>1970-01-01T00:35:53.000Z</time>
      </trkpt>
      <trkpt lat="41.045778" lon="-6.752933">
        <ele>662.4</ele>
        <time>1970-01-01T00:35:54.000Z</time>
      </trkpt>
      <trkpt lat="41.04576" lon="-6.75292">
        <ele>662.5</ele>
        <time>1970-01-01T00:35:55.000Z</time>
      </trkpt>
      <trkpt lat="41.045742" lon="-6.752907">
        <ele>662.6</ele>
        <time>1970-01-01T00:35:56.000Z</time>
      </trkpt>
      <trkpt lat="41.045726" lon="-6.752894">
        <ele>662.6</ele>
        <time>1970-01-01T00:35:57.000Z</time>
      </trkpt>
      <trkpt lat="41.045711" lon="-6.752881">
        <ele>662.7</ele>
        <time>1970-01-01T00:35:58.000Z</time>
      </trkpt>
      <trkpt lat="41.045695" lon="-6.752868">
        <ele>662.8</ele>
        <time>1970-01-01T00:35:59.000Z</time>
      </trkpt>
      <trkpt lat="41.045677" lon="-6.752857">
        <ele>662.9</ele>
        <time>1970-01-01T00:36:00.000Z</time>
      </trkpt>
      <trkpt lat="41.045657" lon="-6.752846">
        <ele>662.9</ele>
        <time>1970-01-01T00:36:01.000Z</time>
      </trkpt>
      <trkpt lat="41.045635" lon="-6.752837">
        <ele>663</ele>
        <time>1970-01-01T00:36:02.000Z</time>
      </trkpt>
      <trkpt lat="41.045614" lon="-6.752827">
        <ele>663.1</ele>
        <time>1970-01-01T00:36:03.000Z</time>
      </trkpt>
      <trkpt lat="41.045593" lon="-6.752816">
        <ele>663.2</ele>
        <time>1970-01-01T00:36:04.000Z</time>
      </trkpt>
      <trkpt lat="41.045574" lon="-6.752804">
        <ele>663.3</ele>
        <time>1970-01-01T00:36:05.000Z</time>
      </trkpt>
      <trkpt lat="41.045556" lon="-6.752793">
        <ele>663.4</ele>
        <time>1970-01-01T00:36:06.000Z</time>
      </trkpt>
      <trkpt lat="41.045537" lon="-6.752784">
        <ele>663.5</ele>
        <time>1970-01-01T00:36:07.000Z</time>
      </trkpt>
      <trkpt lat="41.045518" lon="-6.752776">
        <ele>663.5</ele>
        <time>1970-01-01T00:36:08.000Z</time>
      </trkpt>
      <trkpt lat="41.045499" lon="-6.752766">
        <ele>663.6</ele>
        <time>1970-01-01T00:36:09.000Z</time>
      </trkpt>
      <trkpt lat="41.045481" lon="-6.752755">
        <ele>663.7</ele>
        <time>1970-01-01T00:36:10.000Z</time>
      </trkpt>
      <trkpt lat="41.045463" lon="-6.752745">
        <ele>663.8</ele>
        <time>1970-01-01T00:36:11.000Z</time>
      </trkpt>
      <trkpt lat="41.045444" lon="-6.752735">
        <ele>663.9</ele>
        <time>1970-01-01T00:36:12.000Z</time>
      </trkpt>
      <trkpt lat="41.045425" lon="-6.752723">
        <ele>663.9</ele>
        <time>1970-01-01T00:36:13.000Z</time>
      </trkpt>
      <trkpt lat="41.045405" lon="-6.75271">
        <ele>664</ele>
        <time>1970-01-01T00:36:14.000Z</time>
      </trkpt>
      <trkpt lat="41.045385" lon="-6.752697">
        <ele>664.1</ele>
        <time>1970-01-01T00:36:15.000Z</time>
      </trkpt>
      <trkpt lat="41.045364" lon="-6.752685">
        <ele>664.2</ele>
        <time>1970-01-01T00:36:16.000Z</time>
      </trkpt>
      <trkpt lat="41.045343" lon="-6.752672">
        <ele>664.3</ele>
        <time>1970-01-01T00:36:17.000Z</time>
      </trkpt>
      <trkpt lat="41.045323" lon="-6.752662">
        <ele>664.4</ele>
        <time>1970-01-01T00:36:18.000Z</time>
      </trkpt>
      <trkpt lat="41.045305" lon="-6.752652">
        <ele>664.7</ele>
        <time>1970-01-01T00:36:19.000Z</time>
      </trkpt>
      <trkpt lat="41.045288" lon="-6.752643">
        <ele>664.9</ele>
        <time>1970-01-01T00:36:20.000Z</time>
      </trkpt>
      <trkpt lat="41.045271" lon="-6.752631">
        <ele>665.2</ele>
        <time>1970-01-01T00:36:21.000Z</time>
      </trkpt>
      <trkpt lat="41.045254" lon="-6.75262">
        <ele>665.4</ele>
        <time>1970-01-01T00:36:22.000Z</time>
      </trkpt>
      <trkpt lat="41.045236" lon="-6.752609">
        <ele>665.7</ele>
        <time>1970-01-01T00:36:23.000Z</time>
      </trkpt>
      <trkpt lat="41.04522" lon="-6.752597">
        <ele>666</ele>
        <time>1970-01-01T00:36:24.000Z</time>
      </trkpt>
      <trkpt lat="41.045203" lon="-6.752587">
        <ele>666.3</ele>
        <time>1970-01-01T00:36:25.000Z</time>
      </trkpt>
      <trkpt lat="41.045185" lon="-6.752577">
        <ele>666.6</ele>
        <time>1970-01-01T00:36:26.000Z</time>
      </trkpt>
      <trkpt lat="41.045167" lon="-6.752568">
        <ele>666.9</ele>
        <time>1970-01-01T00:36:27.000Z</time>
      </trkpt>
      <trkpt lat="41.045151" lon="-6.752559">
        <ele>667.2</ele>
        <time>1970-01-01T00:36:28.000Z</time>
      </trkpt>
      <trkpt lat="41.045136" lon="-6.75255">
        <ele>667.4</ele>
        <time>1970-01-01T00:36:29.000Z</time>
      </trkpt>
      <trkpt lat="41.045123" lon="-6.752543">
        <ele>667.6</ele>
        <time>1970-01-01T00:36:30.000Z</time>
      </trkpt>
      <trkpt lat="41.045109" lon="-6.752537">
        <ele>667.7</ele>
        <time>1970-01-01T00:36:31.000Z</time>
      </trkpt>
      <trkpt lat="41.045094" lon="-6.752533">
        <ele>667.9</ele>
        <time>1970-01-01T00:36:32.000Z</time>
      </trkpt>
      <trkpt lat="41.045076" lon="-6.752528">
        <ele>668</ele>
        <time>1970-01-01T00:36:33.000Z</time>
      </trkpt>
      <trkpt lat="41.045053" lon="-6.752523">
        <ele>668.2</ele>
        <time>1970-01-01T00:36:34.000Z</time>
      </trkpt>
      <trkpt lat="41.045029" lon="-6.752515">
        <ele>668.3</ele>
        <time>1970-01-01T00:36:35.000Z</time>
      </trkpt>
      <trkpt lat="41.045004" lon="-6.75251">
        <ele>668.3</ele>
        <time>1970-01-01T00:36:36.000Z</time>
      </trkpt>
      <trkpt lat="41.04498" lon="-6.752507">
        <ele>668.4</ele>
        <time>1970-01-01T00:36:37.000Z</time>
      </trkpt>
      <trkpt lat="41.044956" lon="-6.752505">
        <ele>668.3</ele>
        <time>1970-01-01T00:36:38.000Z</time>
      </trkpt>
      <trkpt lat="41.044934" lon="-6.752502">
        <ele>668.3</ele>
        <time>1970-01-01T00:36:39.000Z</time>
      </trkpt>
      <trkpt lat="41.044913" lon="-6.752499">
        <ele>668.2</ele>
        <time>1970-01-01T00:36:40.000Z</time>
      </trkpt>
      <trkpt lat="41.044892" lon="-6.752492">
        <ele>668.1</ele>
        <time>1970-01-01T00:36:41.000Z</time>
      </trkpt>
      <trkpt lat="41.044872" lon="-6.752485">
        <ele>668</ele>
        <time>1970-01-01T00:36:42.000Z</time>
      </trkpt>
      <trkpt lat="41.044852" lon="-6.752474">
        <ele>667.9</ele>
        <time>1970-01-01T00:36:43.000Z</time>
      </trkpt>
      <trkpt lat="41.04483" lon="-6.75246">
        <ele>667.7</ele>
        <time>1970-01-01T00:36:44.000Z</time>
      </trkpt>
      <trkpt lat="41.044807" lon="-6.752442">
        <ele>667.5</ele>
        <time>1970-01-01T00:36:45.000Z</time>
      </trkpt>
      <trkpt lat="41.044787" lon="-6.752422">
        <ele>667.2</ele>
        <time>1970-01-01T00:36:46.000Z</time>
      </trkpt>
      <trkpt lat="41.044772" lon="-6.7524">
        <ele>667</ele>
        <time>1970-01-01T00:36:47.000Z</time>
      </trkpt>
      <trkpt lat="41.044759" lon="-6.752377">
        <ele>667.1</ele>
        <time>1970-01-01T00:36:48.000Z</time>
      </trkpt>
      <trkpt lat="41.044748" lon="-6.752354">
        <ele>667.2</ele>
        <time>1970-01-01T00:36:49.000Z</time>
      </trkpt>
      <trkpt lat="41.044737" lon="-6.75233">
        <ele>667.3</ele>
        <time>1970-01-01T00:36:50.000Z</time>
      </trkpt>
      <trkpt lat="41.044724" lon="-6.752306">
        <ele>667.4</ele>
        <time>1970-01-01T00:36:51.000Z</time>
      </trkpt>
      <trkpt lat="41.044711" lon="-6.752282">
        <ele>667.5</ele>
        <time>1970-01-01T00:36:52.000Z</time>
      </trkpt>
      <trkpt lat="41.044697" lon="-6.752259">
        <ele>667.6</ele>
        <time>1970-01-01T00:36:53.000Z</time>
      </trkpt>
      <trkpt lat="41.044685" lon="-6.752237">
        <ele>667.7</ele>
        <time>1970-01-01T00:36:54.000Z</time>
      </trkpt>
      <trkpt lat="41.04467" lon="-6.752214">
        <ele>667.9</ele>
        <time>1970-01-01T00:36:55.000Z</time>
      </trkpt>
      <trkpt lat="41.044655" lon="-6.752191">
        <ele>668</ele>
        <time>1970-01-01T00:36:56.000Z</time>
      </trkpt>
      <trkpt lat="41.044637" lon="-6.752171">
        <ele>668.2</ele>
        <time>1970-01-01T00:36:57.000Z</time>
      </trkpt>
      <trkpt lat="41.04462" lon="-6.752153">
        <ele>668.4</ele>
        <time>1970-01-01T00:36:58.000Z</time>
      </trkpt>
      <trkpt lat="41.044599" lon="-6.75214">
        <ele>668.6</ele>
        <time>1970-01-01T00:36:59.000Z</time>
      </trkpt>
      <trkpt lat="41.044578" lon="-6.752128">
        <ele>668.8</ele>
        <time>1970-01-01T00:37:00.000Z</time>
      </trkpt>
      <trkpt lat="41.044556" lon="-6.752117">
        <ele>669</ele>
        <time>1970-01-01T00:37:01.000Z</time>
      </trkpt>
      <trkpt lat="41.044533" lon="-6.752108">
        <ele>669.2</ele>
        <time>1970-01-01T00:37:02.000Z</time>
      </trkpt>
      <trkpt lat="41.044511" lon="-6.752098">
        <ele>669.4</ele>
        <time>1970-01-01T00:37:03.000Z</time>
      </trkpt>
      <trkpt lat="41.044487" lon="-6.752089">
        <ele>669.6</ele>
        <time>1970-01-01T00:37:04.000Z</time>
      </trkpt>
      <trkpt lat="41.044464" lon="-6.752082">
        <ele>669.8</ele>
        <time>1970-01-01T00:37:05.000Z</time>
      </trkpt>
      <trkpt lat="41.044441" lon="-6.752074">
        <ele>670</ele>
        <time>1970-01-01T00:37:06.000Z</time>
      </trkpt>
      <trkpt lat="41.044417" lon="-6.752065">
        <ele>670.3</ele>
        <time>1970-01-01T00:37:07.000Z</time>
      </trkpt>
      <trkpt lat="41.044393" lon="-6.752055">
        <ele>670.5</ele>
        <time>1970-01-01T00:37:08.000Z</time>
      </trkpt>
      <trkpt lat="41.04437" lon="-6.752045">
        <ele>670.7</ele>
        <time>1970-01-01T00:37:09.000Z</time>
      </trkpt>
      <trkpt lat="41.044349" lon="-6.752037">
        <ele>670.9</ele>
        <time>1970-01-01T00:37:10.000Z</time>
      </trkpt>
      <trkpt lat="41.044328" lon="-6.752029">
        <ele>671.1</ele>
        <time>1970-01-01T00:37:11.000Z</time>
      </trkpt>
      <trkpt lat="41.044308" lon="-6.75202">
        <ele>671.3</ele>
        <time>1970-01-01T00:37:12.000Z</time>
      </trkpt>
      <trkpt lat="41.044287" lon="-6.752011">
        <ele>671.5</ele>
        <time>1970-01-01T00:37:13.000Z</time>
      </trkpt>
      <trkpt lat="41.044268" lon="-6.752002">
        <ele>671.7</ele>
        <time>1970-01-01T00:37:14.000Z</time>
      </trkpt>
      <trkpt lat="41.044251" lon="-6.751994">
        <ele>671.8</ele>
        <time>1970-01-01T00:37:15.000Z</time>
      </trkpt>
      <trkpt lat="41.044234" lon="-6.751986">
        <ele>671.9</ele>
        <time>1970-01-01T00:37:16.000Z</time>
      </trkpt>
      <trkpt lat="41.04422" lon="-6.751979">
        <ele>672</ele>
        <time>1970-01-01T00:37:17.000Z</time>
      </trkpt>
      <trkpt lat="41.044207" lon="-6.751974">
        <ele>672.1</ele>
        <time>1970-01-01T00:37:18.000Z</time>
      </trkpt>
      <trkpt lat="41.044198" lon="-6.75197">
        <ele>672.1</ele>
        <time>1970-01-01T00:37:19.000Z</time>
      </trkpt>
      <trkpt lat="41.044192" lon="-6.751967">
        <ele>672.2</ele>
        <time>1970-01-01T00:37:20.000Z</time>
      </trkpt>
      <trkpt lat="41.044186" lon="-6.751964">
        <ele>672.4</ele>
        <time>1970-01-01T00:37:21.000Z</time>
      </trkpt>
      <trkpt lat="41.044179" lon="-6.75196">
        <ele>672.5</ele>
        <time>1970-01-01T00:37:22.000Z</time>
      </trkpt>
      <trkpt lat="41.044172" lon="-6.751955">
        <ele>672.5</ele>
        <time>1970-01-01T00:37:23.000Z</time>
      </trkpt>
      <trkpt lat="41.044165" lon="-6.751948">
        <ele>672.5</ele>
        <time>1970-01-01T00:37:24.000Z</time>
      </trkpt>
      <trkpt lat="41.044159" lon="-6.751941">
        <ele>672.6</ele>
        <time>1970-01-01T00:37:25.000Z</time>
      </trkpt>
      <trkpt lat="41.044154" lon="-6.751934">
        <ele>672.6</ele>
        <time>1970-01-01T00:37:26.000Z</time>
      </trkpt>
      <trkpt lat="41.044145" lon="-6.751927">
        <ele>672.6</ele>
        <time>1970-01-01T00:37:27.000Z</time>
      </trkpt>
      <trkpt lat="41.044133" lon="-6.751919">
        <ele>672.7</ele>
        <time>1970-01-01T00:37:28.000Z</time>
      </trkpt>
      <trkpt lat="41.044119" lon="-6.75191">
        <ele>672.8</ele>
        <time>1970-01-01T00:37:29.000Z</time>
      </trkpt>
      <trkpt lat="41.044106" lon="-6.751901">
        <ele>672.8</ele>
        <time>1970-01-01T00:37:30.000Z</time>
      </trkpt>
      <trkpt lat="41.044093" lon="-6.75189">
        <ele>672.9</ele>
        <time>1970-01-01T00:37:31.000Z</time>
      </trkpt>
      <trkpt lat="41.04408" lon="-6.751879">
        <ele>673</ele>
        <time>1970-01-01T00:37:32.000Z</time>
      </trkpt>
      <trkpt lat="41.044068" lon="-6.751868">
        <ele>673</ele>
        <time>1970-01-01T00:37:33.000Z</time>
      </trkpt>
      <trkpt lat="41.044056" lon="-6.751855">
        <ele>673.1</ele>
        <time>1970-01-01T00:37:34.000Z</time>
      </trkpt>
      <trkpt lat="41.044042" lon="-6.751842">
        <ele>673.2</ele>
        <time>1970-01-01T00:37:35.000Z</time>
      </trkpt>
      <trkpt lat="41.044027" lon="-6.751829">
        <ele>673.2</ele>
        <time>1970-01-01T00:37:36.000Z</time>
      </trkpt>
      <trkpt lat="41.044013" lon="-6.751817">
        <ele>673.3</ele>
        <time>1970-01-01T00:37:37.000Z</time>
      </trkpt>
      <trkpt lat="41.043999" lon="-6.751806">
        <ele>673.4</ele>
        <time>1970-01-01T00:37:38.000Z</time>
      </trkpt>
      <trkpt lat="41.043986" lon="-6.751793">
        <ele>673.5</ele>
        <time>1970-01-01T00:37:39.000Z</time>
      </trkpt>
      <trkpt lat="41.043972" lon="-6.75178">
        <ele>673.5</ele>
        <time>1970-01-01T00:37:40.000Z</time>
      </trkpt>
      <trkpt lat="41.043957" lon="-6.751766">
        <ele>673.6</ele>
        <time>1970-01-01T00:37:41.000Z</time>
      </trkpt>
      <trkpt lat="41.043941" lon="-6.751751">
        <ele>673.7</ele>
        <time>1970-01-01T00:37:42.000Z</time>
      </trkpt>
      <trkpt lat="41.043926" lon="-6.751736">
        <ele>673.8</ele>
        <time>1970-01-01T00:37:43.000Z</time>
      </trkpt>
      <trkpt lat="41.043913" lon="-6.751721">
        <ele>673.9</ele>
        <time>1970-01-01T00:37:44.000Z</time>
      </trkpt>
      <trkpt lat="41.043901" lon="-6.751706">
        <ele>673.9</ele>
        <time>1970-01-01T00:37:45.000Z</time>
      </trkpt>
      <trkpt lat="41.04389" lon="-6.751689">
        <ele>674</ele>
        <time>1970-01-01T00:37:46.000Z</time>
      </trkpt>
      <trkpt lat="41.043877" lon="-6.751672">
        <ele>674.1</ele>
        <time>1970-01-01T00:37:47.000Z</time>
      </trkpt>
      <trkpt lat="41.043864" lon="-6.751655">
        <ele>674.2</ele>
        <time>1970-01-01T00:37:48.000Z</time>
      </trkpt>
      <trkpt lat="41.043851" lon="-6.751638">
        <ele>674.2</ele>
        <time>1970-01-01T00:37:49.000Z</time>
      </trkpt>
      <trkpt lat="41.043837" lon="-6.75162">
        <ele>674.3</ele>
        <time>1970-01-01T00:37:50.000Z</time>
      </trkpt>
      <trkpt lat="41.043823" lon="-6.751602">
        <ele>674.4</ele>
        <time>1970-01-01T00:37:51.000Z</time>
      </trkpt>
      <trkpt lat="41.043808" lon="-6.751584">
        <ele>674.5</ele>
        <time>1970-01-01T00:37:52.000Z</time>
      </trkpt>
      <trkpt lat="41.043795" lon="-6.751565">
        <ele>674.6</ele>
        <time>1970-01-01T00:37:53.000Z</time>
      </trkpt>
      <trkpt lat="41.04378" lon="-6.751547">
        <ele>674.7</ele>
        <time>1970-01-01T00:37:54.000Z</time>
      </trkpt>
      <trkpt lat="41.043767" lon="-6.751528">
        <ele>674.7</ele>
        <time>1970-01-01T00:37:55.000Z</time>
      </trkpt>
      <trkpt lat="41.043753" lon="-6.751508">
        <ele>674.8</ele>
        <time>1970-01-01T00:37:56.000Z</time>
      </trkpt>
      <trkpt lat="41.043741" lon="-6.751487">
        <ele>674.9</ele>
        <time>1970-01-01T00:37:57.000Z</time>
      </trkpt>
      <trkpt lat="41.043727" lon="-6.751465">
        <ele>675</ele>
        <time>1970-01-01T00:37:58.000Z</time>
      </trkpt>
      <trkpt lat="41.043713" lon="-6.751444">
        <ele>675.1</ele>
        <time>1970-01-01T00:37:59.000Z</time>
      </trkpt>
      <trkpt lat="41.043698" lon="-6.751422">
        <ele>675.2</ele>
        <time>1970-01-01T00:38:00.000Z</time>
      </trkpt>
      <trkpt lat="41.043682" lon="-6.751399">
        <ele>675.3</ele>
        <time>1970-01-01T00:38:01.000Z</time>
      </trkpt>
      <trkpt lat="41.043664" lon="-6.751375">
        <ele>675.4</ele>
        <time>1970-01-01T00:38:02.000Z</time>
      </trkpt>
      <trkpt lat="41.043645" lon="-6.751353">
        <ele>675.5</ele>
        <time>1970-01-01T00:38:03.000Z</time>
      </trkpt>
      <trkpt lat="41.043625" lon="-6.751333">
        <ele>675.6</ele>
        <time>1970-01-01T00:38:04.000Z</time>
      </trkpt>
      <trkpt lat="41.043605" lon="-6.751311">
        <ele>675.8</ele>
        <time>1970-01-01T00:38:05.000Z</time>
      </trkpt>
      <trkpt lat="41.043584" lon="-6.751288">
        <ele>675.9</ele>
        <time>1970-01-01T00:38:06.000Z</time>
      </trkpt>
      <trkpt lat="41.043557" lon="-6.751263">
        <ele>676</ele>
        <time>1970-01-01T00:38:07.000Z</time>
      </trkpt>
      <trkpt lat="41.043529" lon="-6.751239">
        <ele>676.2</ele>
        <time>1970-01-01T00:38:08.000Z</time>
      </trkpt>
      <trkpt lat="41.043503" lon="-6.751216">
        <ele>676.3</ele>
        <time>1970-01-01T00:38:09.000Z</time>
      </trkpt>
      <trkpt lat="41.043479" lon="-6.751198">
        <ele>676.4</ele>
        <time>1970-01-01T00:38:10.000Z</time>
      </trkpt>
      <trkpt lat="41.043455" lon="-6.75118">
        <ele>676.5</ele>
        <time>1970-01-01T00:38:11.000Z</time>
      </trkpt>
      <trkpt lat="41.04343" lon="-6.751162">
        <ele>676.7</ele>
        <time>1970-01-01T00:38:12.000Z</time>
      </trkpt>
      <trkpt lat="41.043405" lon="-6.751141">
        <ele>676.8</ele>
        <time>1970-01-01T00:38:13.000Z</time>
      </trkpt>
      <trkpt lat="41.04338" lon="-6.751119">
        <ele>676.9</ele>
        <time>1970-01-01T00:38:14.000Z</time>
      </trkpt>
      <trkpt lat="41.043355" lon="-6.751096">
        <ele>677</ele>
        <time>1970-01-01T00:38:15.000Z</time>
      </trkpt>
      <trkpt lat="41.04333" lon="-6.751071">
        <ele>677.2</ele>
        <time>1970-01-01T00:38:16.000Z</time>
      </trkpt>
      <trkpt lat="41.043306" lon="-6.751048">
        <ele>677.3</ele>
        <time>1970-01-01T00:38:17.000Z</time>
      </trkpt>
      <trkpt lat="41.04328" lon="-6.751025">
        <ele>677.4</ele>
        <time>1970-01-01T00:38:18.000Z</time>
      </trkpt>
      <trkpt lat="41.043254" lon="-6.751002">
        <ele>677.6</ele>
        <time>1970-01-01T00:38:19.000Z</time>
      </trkpt>
      <trkpt lat="41.043226" lon="-6.75098">
        <ele>677.7</ele>
        <time>1970-01-01T00:38:20.000Z</time>
      </trkpt>
      <trkpt lat="41.043199" lon="-6.750957">
        <ele>677.9</ele>
        <time>1970-01-01T00:38:21.000Z</time>
      </trkpt>
      <trkpt lat="41.043172" lon="-6.750934">
        <ele>678</ele>
        <time>1970-01-01T00:38:22.000Z</time>
      </trkpt>
      <trkpt lat="41.043143" lon="-6.750911">
        <ele>678.2</ele>
        <time>1970-01-01T00:38:23.000Z</time>
      </trkpt>
      <trkpt lat="41.043115" lon="-6.750888">
        <ele>678.3</ele>
        <time>1970-01-01T00:38:24.000Z</time>
      </trkpt>
      <trkpt lat="41.043084" lon="-6.750861">
        <ele>678.5</ele>
        <time>1970-01-01T00:38:25.000Z</time>
      </trkpt>
      <trkpt lat="41.043048" lon="-6.750829">
        <ele>678.6</ele>
        <time>1970-01-01T00:38:26.000Z</time>
      </trkpt>
      <trkpt lat="41.043007" lon="-6.750791">
        <ele>678.9</ele>
        <time>1970-01-01T00:38:27.000Z</time>
      </trkpt>
      <trkpt lat="41.042963" lon="-6.750752">
        <ele>679.1</ele>
        <time>1970-01-01T00:38:28.000Z</time>
      </trkpt>
      <trkpt lat="41.042917" lon="-6.750712">
        <ele>679.3</ele>
        <time>1970-01-01T00:38:29.000Z</time>
      </trkpt>
      <trkpt lat="41.042865" lon="-6.750671">
        <ele>679.6</ele>
        <time>1970-01-01T00:38:30.000Z</time>
      </trkpt>
      <trkpt lat="41.042808" lon="-6.750631">
        <ele>678</ele>
        <time>1970-01-01T00:38:31.000Z</time>
      </trkpt>
      <trkpt lat="41.042751" lon="-6.750593">
        <ele>677</ele>
        <time>1970-01-01T00:38:32.000Z</time>
      </trkpt>
      <trkpt lat="41.042696" lon="-6.750557">
        <ele>676</ele>
        <time>1970-01-01T00:38:33.000Z</time>
      </trkpt>
      <trkpt lat="41.042645" lon="-6.750526">
        <ele>675.1</ele>
        <time>1970-01-01T00:38:34.000Z</time>
      </trkpt>
      <trkpt lat="41.042591" lon="-6.750497">
        <ele>674.2</ele>
        <time>1970-01-01T00:38:35.000Z</time>
      </trkpt>
      <trkpt lat="41.042535" lon="-6.75047">
        <ele>673.2</ele>
        <time>1970-01-01T00:38:36.000Z</time>
      </trkpt>
      <trkpt lat="41.042478" lon="-6.750445">
        <ele>672.2</ele>
        <time>1970-01-01T00:38:37.000Z</time>
      </trkpt>
      <trkpt lat="41.042424" lon="-6.750424">
        <ele>671.3</ele>
        <time>1970-01-01T00:38:38.000Z</time>
      </trkpt>
      <trkpt lat="41.042378" lon="-6.750408">
        <ele>670.6</ele>
        <time>1970-01-01T00:38:39.000Z</time>
      </trkpt>
      <trkpt lat="41.042342" lon="-6.750396">
        <ele>670</ele>
        <time>1970-01-01T00:38:40.000Z</time>
      </trkpt>
      <trkpt lat="41.042314" lon="-6.750382">
        <ele>669.5</ele>
        <time>1970-01-01T00:38:41.000Z</time>
      </trkpt>
      <trkpt lat="41.04229" lon="-6.750369">
        <ele>669.1</ele>
        <time>1970-01-01T00:38:42.000Z</time>
      </trkpt>
      <trkpt lat="41.042266" lon="-6.750359">
        <ele>668.7</ele>
        <time>1970-01-01T00:38:43.000Z</time>
      </trkpt>
      <trkpt lat="41.042242" lon="-6.750351">
        <ele>668.3</ele>
        <time>1970-01-01T00:38:44.000Z</time>
      </trkpt>
      <trkpt lat="41.042217" lon="-6.750345">
        <ele>667.8</ele>
        <time>1970-01-01T00:38:45.000Z</time>
      </trkpt>
      <trkpt lat="41.042191" lon="-6.750338">
        <ele>667.4</ele>
        <time>1970-01-01T00:38:46.000Z</time>
      </trkpt>
      <trkpt lat="41.042167" lon="-6.750332">
        <ele>667</ele>
        <time>1970-01-01T00:38:47.000Z</time>
      </trkpt>
      <trkpt lat="41.042142" lon="-6.750327">
        <ele>666.6</ele>
        <time>1970-01-01T00:38:48.000Z</time>
      </trkpt>
      <trkpt lat="41.042115" lon="-6.750321">
        <ele>666.2</ele>
        <time>1970-01-01T00:38:49.000Z</time>
      </trkpt>
      <trkpt lat="41.042086" lon="-6.750316">
        <ele>665.7</ele>
        <time>1970-01-01T00:38:50.000Z</time>
      </trkpt>
      <trkpt lat="41.042053" lon="-6.750314">
        <ele>665.2</ele>
        <time>1970-01-01T00:38:51.000Z</time>
      </trkpt>
      <trkpt lat="41.04202" lon="-6.750313">
        <ele>664.6</ele>
        <time>1970-01-01T00:38:52.000Z</time>
      </trkpt>
      <trkpt lat="41.041983" lon="-6.750314">
        <ele>664</ele>
        <time>1970-01-01T00:38:53.000Z</time>
      </trkpt>
      <trkpt lat="41.041946" lon="-6.750314">
        <ele>663.5</ele>
        <time>1970-01-01T00:38:54.000Z</time>
      </trkpt>
      <trkpt lat="41.041909" lon="-6.750314">
        <ele>662.9</ele>
        <time>1970-01-01T00:38:55.000Z</time>
      </trkpt>
      <trkpt lat="41.041872" lon="-6.750313">
        <ele>662.3</ele>
        <time>1970-01-01T00:38:56.000Z</time>
      </trkpt>
      <trkpt lat="41.041832" lon="-6.750313">
        <ele>661.6</ele>
        <time>1970-01-01T00:38:57.000Z</time>
      </trkpt>
      <trkpt lat="41.041783" lon="-6.750317">
        <ele>660.8</ele>
        <time>1970-01-01T00:38:58.000Z</time>
      </trkpt>
      <trkpt lat="41.041724" lon="-6.750325">
        <ele>659.9</ele>
        <time>1970-01-01T00:38:59.000Z</time>
      </trkpt>
      <trkpt lat="41.041663" lon="-6.750333">
        <ele>658.9</ele>
        <time>1970-01-01T00:39:00.000Z</time>
      </trkpt>
      <trkpt lat="41.041609" lon="-6.750339">
        <ele>658</ele>
        <time>1970-01-01T00:39:01.000Z</time>
      </trkpt>
      <trkpt lat="41.041567" lon="-6.750342">
        <ele>657.3</ele>
        <time>1970-01-01T00:39:02.000Z</time>
      </trkpt>
      <trkpt lat="41.041534" lon="-6.750347">
        <ele>656.8</ele>
        <time>1970-01-01T00:39:03.000Z</time>
      </trkpt>
      <trkpt lat="41.0415" lon="-6.750354">
        <ele>656.2</ele>
        <time>1970-01-01T00:39:04.000Z</time>
      </trkpt>
      <trkpt lat="41.041468" lon="-6.750364">
        <ele>655.7</ele>
        <time>1970-01-01T00:39:05.000Z</time>
      </trkpt>
      <trkpt lat="41.041434" lon="-6.750374">
        <ele>655.1</ele>
        <time>1970-01-01T00:39:06.000Z</time>
      </trkpt>
      <trkpt lat="41.041399" lon="-6.750388">
        <ele>654.6</ele>
        <time>1970-01-01T00:39:07.000Z</time>
      </trkpt>
      <trkpt lat="41.041363" lon="-6.750402">
        <ele>654</ele>
        <time>1970-01-01T00:39:08.000Z</time>
      </trkpt>
      <trkpt lat="41.041327" lon="-6.750416">
        <ele>653.4</ele>
        <time>1970-01-01T00:39:09.000Z</time>
      </trkpt>
      <trkpt lat="41.041292" lon="-6.750428">
        <ele>652.8</ele>
        <time>1970-01-01T00:39:10.000Z</time>
      </trkpt>
      <trkpt lat="41.041257" lon="-6.750436">
        <ele>652.2</ele>
        <time>1970-01-01T00:39:11.000Z</time>
      </trkpt>
      <trkpt lat="41.041224" lon="-6.750442">
        <ele>651.7</ele>
        <time>1970-01-01T00:39:12.000Z</time>
      </trkpt>
      <trkpt lat="41.041196" lon="-6.750447">
        <ele>651.2</ele>
        <time>1970-01-01T00:39:13.000Z</time>
      </trkpt>
      <trkpt lat="41.041176" lon="-6.75045">
        <ele>650.9</ele>
        <time>1970-01-01T00:39:14.000Z</time>
      </trkpt>
      <trkpt lat="41.041164" lon="-6.750452">
        <ele>650.7</ele>
        <time>1970-01-01T00:39:15.000Z</time>
      </trkpt>
      <trkpt lat="41.041154" lon="-6.750453">
        <ele>650.5</ele>
        <time>1970-01-01T00:39:16.000Z</time>
      </trkpt>
      <trkpt lat="41.041144" lon="-6.750455">
        <ele>650.4</ele>
        <time>1970-01-01T00:39:17.000Z</time>
      </trkpt>
      <trkpt lat="41.041133" lon="-6.750456">
        <ele>650.2</ele>
        <time>1970-01-01T00:39:18.000Z</time>
      </trkpt>
      <trkpt lat="41.041122" lon="-6.750458">
        <ele>650</ele>
        <time>1970-01-01T00:39:19.000Z</time>
      </trkpt>
      <trkpt lat="41.041111" lon="-6.75046">
        <ele>649.8</ele>
        <time>1970-01-01T00:39:20.000Z</time>
      </trkpt>
      <trkpt lat="41.041101" lon="-6.750461">
        <ele>649.7</ele>
        <time>1970-01-01T00:39:21.000Z</time>
      </trkpt>
      <trkpt lat="41.041092" lon="-6.750462">
        <ele>649.5</ele>
        <time>1970-01-01T00:39:22.000Z</time>
      </trkpt>
      <trkpt lat="41.041083" lon="-6.750464">
        <ele>649.4</ele>
        <time>1970-01-01T00:39:23.000Z</time>
      </trkpt>
      <trkpt lat="41.041074" lon="-6.750465">
        <ele>649.2</ele>
        <time>1970-01-01T00:39:24.000Z</time>
      </trkpt>
      <trkpt lat="41.041067" lon="-6.750467">
        <ele>649.1</ele>
        <time>1970-01-01T00:39:25.000Z</time>
      </trkpt>
      <trkpt lat="41.041063" lon="-6.750468">
        <ele>649</ele>
        <time>1970-01-01T00:39:26.000Z</time>
      </trkpt>
      <trkpt lat="41.041061" lon="-6.750469">
        <ele>649</ele>
        <time>1970-01-01T00:39:27.000Z</time>
      </trkpt>
      <trkpt lat="41.041059" lon="-6.750468">
        <ele>649</ele>
        <time>1970-01-01T00:39:28.000Z</time>
      </trkpt>
      <trkpt lat="41.041056" lon="-6.750469">
        <ele>648.9</ele>
        <time>1970-01-01T00:39:29.000Z</time>
      </trkpt>
      <trkpt lat="41.041054" lon="-6.750469">
        <ele>648.9</ele>
        <time>1970-01-01T00:39:30.000Z</time>
      </trkpt>
      <trkpt lat="41.041053" lon="-6.75047">
        <ele>648.9</ele>
        <time>1970-01-01T00:39:31.000Z</time>
      </trkpt>
      <trkpt lat="41.040983" lon="-6.750485">
        <ele>647.7</ele>
        <time>1970-01-01T00:39:32.000Z</time>
      </trkpt>
      <trkpt lat="41.040964" lon="-6.750488">
        <ele>647.4</ele>
        <time>1970-01-01T00:39:33.000Z</time>
      </trkpt>
      <trkpt lat="41.04094" lon="-6.750487">
        <ele>647</ele>
        <time>1970-01-01T00:39:53.000Z</time>
      </trkpt>
      <trkpt lat="41.040911" lon="-6.750487">
        <ele>646.6</ele>
        <time>1970-01-01T00:39:54.000Z</time>
      </trkpt>
      <trkpt lat="41.040877" lon="-6.750487">
        <ele>646</ele>
        <time>1970-01-01T00:39:55.000Z</time>
      </trkpt>
      <trkpt lat="41.040843" lon="-6.750491">
        <ele>645.5</ele>
        <time>1970-01-01T00:39:56.000Z</time>
      </trkpt>
      <trkpt lat="41.040816" lon="-6.750497">
        <ele>645</ele>
        <time>1970-01-01T00:39:57.000Z</time>
      </trkpt>
      <trkpt lat="41.040794" lon="-6.750504">
        <ele>644.7</ele>
        <time>1970-01-01T00:39:58.000Z</time>
      </trkpt>
      <trkpt lat="41.040775" lon="-6.750509">
        <ele>644.4</ele>
        <time>1970-01-01T00:39:59.000Z</time>
      </trkpt>
      <trkpt lat="41.040758" lon="-6.750511">
        <ele>644.1</ele>
        <time>1970-01-01T00:40:00.000Z</time>
      </trkpt>
      <trkpt lat="41.040739" lon="-6.750513">
        <ele>643.8</ele>
        <time>1970-01-01T00:40:01.000Z</time>
      </trkpt>
      <trkpt lat="41.040719" lon="-6.750515">
        <ele>643.4</ele>
        <time>1970-01-01T00:40:02.000Z</time>
      </trkpt>
      <trkpt lat="41.040696" lon="-6.750516">
        <ele>643.1</ele>
        <time>1970-01-01T00:40:03.000Z</time>
      </trkpt>
      <trkpt lat="41.040672" lon="-6.750519">
        <ele>642.7</ele>
        <time>1970-01-01T00:40:04.000Z</time>
      </trkpt>
      <trkpt lat="41.040649" lon="-6.750521">
        <ele>642.3</ele>
        <time>1970-01-01T00:40:05.000Z</time>
      </trkpt>
      <trkpt lat="41.04063" lon="-6.750523">
        <ele>642</ele>
        <time>1970-01-01T00:40:06.000Z</time>
      </trkpt>
      <trkpt lat="41.040612" lon="-6.750524">
        <ele>641.7</ele>
        <time>1970-01-01T00:40:07.000Z</time>
      </trkpt>
      <trkpt lat="41.040593" lon="-6.750525">
        <ele>641.4</ele>
        <time>1970-01-01T00:40:08.000Z</time>
      </trkpt>
      <trkpt lat="41.040574" lon="-6.750527">
        <ele>641.1</ele>
        <time>1970-01-01T00:40:09.000Z</time>
      </trkpt>
      <trkpt lat="41.040555" lon="-6.750529">
        <ele>640.8</ele>
        <time>1970-01-01T00:40:10.000Z</time>
      </trkpt>
      <trkpt lat="41.040538" lon="-6.750532">
        <ele>640.5</ele>
        <time>1970-01-01T00:40:11.000Z</time>
      </trkpt>
      <trkpt lat="41.040524" lon="-6.750533">
        <ele>640.3</ele>
        <time>1970-01-01T00:40:12.000Z</time>
      </trkpt>
      <trkpt lat="41.040513" lon="-6.750534">
        <ele>640.1</ele>
        <time>1970-01-01T00:40:13.000Z</time>
      </trkpt>
      <trkpt lat="41.040503" lon="-6.750535">
        <ele>640</ele>
        <time>1970-01-01T00:40:14.000Z</time>
      </trkpt>
      <trkpt lat="41.040492" lon="-6.750536">
        <ele>639.8</ele>
        <time>1970-01-01T00:40:15.000Z</time>
      </trkpt>
      <trkpt lat="41.04048" lon="-6.750537">
        <ele>639.6</ele>
        <time>1970-01-01T00:40:16.000Z</time>
      </trkpt>
      <trkpt lat="41.040469" lon="-6.750538">
        <ele>639.4</ele>
        <time>1970-01-01T00:40:17.000Z</time>
      </trkpt>
      <trkpt lat="41.040457" lon="-6.750541">
        <ele>639.2</ele>
        <time>1970-01-01T00:40:18.000Z</time>
      </trkpt>
      <trkpt lat="41.040445" lon="-6.750543">
        <ele>639</ele>
        <time>1970-01-01T00:40:19.000Z</time>
      </trkpt>
      <trkpt lat="41.040432" lon="-6.750545">
        <ele>638.8</ele>
        <time>1970-01-01T00:40:20.000Z</time>
      </trkpt>
      <trkpt lat="41.04042" lon="-6.750548">
        <ele>638.6</ele>
        <time>1970-01-01T00:40:21.000Z</time>
      </trkpt>
      <trkpt lat="41.040409" lon="-6.750551">
        <ele>638.4</ele>
        <time>1970-01-01T00:40:22.000Z</time>
      </trkpt>
      <trkpt lat="41.040399" lon="-6.750554">
        <ele>638.3</ele>
        <time>1970-01-01T00:40:23.000Z</time>
      </trkpt>
      <trkpt lat="41.040388" lon="-6.750556">
        <ele>638.1</ele>
        <time>1970-01-01T00:40:24.000Z</time>
      </trkpt>
      <trkpt lat="41.040378" lon="-6.750557">
        <ele>637.9</ele>
        <time>1970-01-01T00:40:25.000Z</time>
      </trkpt>
      <trkpt lat="41.040365" lon="-6.750557">
        <ele>637.7</ele>
        <time>1970-01-01T00:40:26.000Z</time>
      </trkpt>
      <trkpt lat="41.04035" lon="-6.750557">
        <ele>637.5</ele>
        <time>1970-01-01T00:40:27.000Z</time>
      </trkpt>
      <trkpt lat="41.040334" lon="-6.750559">
        <ele>637.2</ele>
        <time>1970-01-01T00:40:28.000Z</time>
      </trkpt>
      <trkpt lat="41.040316" lon="-6.750559">
        <ele>636.9</ele>
        <time>1970-01-01T00:40:29.000Z</time>
      </trkpt>
      <trkpt lat="41.040298" lon="-6.750557">
        <ele>636.6</ele>
        <time>1970-01-01T00:40:30.000Z</time>
      </trkpt>
      <trkpt lat="41.040279" lon="-6.75055">
        <ele>636.3</ele>
        <time>1970-01-01T00:40:31.000Z</time>
      </trkpt>
      <trkpt lat="41.040259" lon="-6.750542">
        <ele>636</ele>
        <time>1970-01-01T00:40:32.000Z</time>
      </trkpt>
      <trkpt lat="41.04024" lon="-6.75053">
        <ele>635.6</ele>
        <time>1970-01-01T00:40:33.000Z</time>
      </trkpt>
      <trkpt lat="41.040222" lon="-6.750515">
        <ele>635.3</ele>
        <time>1970-01-01T00:40:34.000Z</time>
      </trkpt>
      <trkpt lat="41.040206" lon="-6.750498">
        <ele>635</ele>
        <time>1970-01-01T00:40:35.000Z</time>
      </trkpt>
      <trkpt lat="41.04019" lon="-6.75048">
        <ele>634.6</ele>
        <time>1970-01-01T00:40:36.000Z</time>
      </trkpt>
      <trkpt lat="41.040174" lon="-6.750464">
        <ele>634.3</ele>
        <time>1970-01-01T00:40:37.000Z</time>
      </trkpt>
      <trkpt lat="41.040158" lon="-6.750449">
        <ele>634</ele>
        <time>1970-01-01T00:40:38.000Z</time>
      </trkpt>
      <trkpt lat="41.040142" lon="-6.750433">
        <ele>633.7</ele>
        <time>1970-01-01T00:40:39.000Z</time>
      </trkpt>
      <trkpt lat="41.040126" lon="-6.750419">
        <ele>633.4</ele>
        <time>1970-01-01T00:40:40.000Z</time>
      </trkpt>
      <trkpt lat="41.04011" lon="-6.750403">
        <ele>633</ele>
        <time>1970-01-01T00:40:41.000Z</time>
      </trkpt>
      <trkpt lat="41.040093" lon="-6.75038">
        <ele>632.6</ele>
        <time>1970-01-01T00:40:42.000Z</time>
      </trkpt>
      <trkpt lat="41.040074" lon="-6.750349">
        <ele>632.2</ele>
        <time>1970-01-01T00:40:43.000Z</time>
      </trkpt>
      <trkpt lat="41.040051" lon="-6.750314">
        <ele>631.6</ele>
        <time>1970-01-01T00:40:44.000Z</time>
      </trkpt>
      <trkpt lat="41.040024" lon="-6.750278">
        <ele>631</ele>
        <time>1970-01-01T00:40:45.000Z</time>
      </trkpt>
      <trkpt lat="41.039998" lon="-6.750242">
        <ele>630.4</ele>
        <time>1970-01-01T00:40:46.000Z</time>
      </trkpt>
      <trkpt lat="41.039967" lon="-6.750199">
        <ele>629.6</ele>
        <time>1970-01-01T00:40:47.000Z</time>
      </trkpt>
      <trkpt lat="41.039934" lon="-6.750158">
        <ele>628.9</ele>
        <time>1970-01-01T00:40:48.000Z</time>
      </trkpt>
      <trkpt lat="41.039897" lon="-6.750121">
        <ele>628.2</ele>
        <time>1970-01-01T00:40:49.000Z</time>
      </trkpt>
      <trkpt lat="41.039861" lon="-6.750095">
        <ele>627.5</ele>
        <time>1970-01-01T00:40:50.000Z</time>
      </trkpt>
      <trkpt lat="41.039826" lon="-6.750077">
        <ele>626.9</ele>
        <time>1970-01-01T00:40:51.000Z</time>
      </trkpt>
      <trkpt lat="41.039793" lon="-6.750063">
        <ele>626.3</ele>
        <time>1970-01-01T00:40:52.000Z</time>
      </trkpt>
      <trkpt lat="41.039762" lon="-6.75005">
        <ele>625.8</ele>
        <time>1970-01-01T00:40:53.000Z</time>
      </trkpt>
      <trkpt lat="41.039733" lon="-6.750037">
        <ele>625.3</ele>
        <time>1970-01-01T00:40:54.000Z</time>
      </trkpt>
      <trkpt lat="41.039705" lon="-6.750022">
        <ele>624.8</ele>
        <time>1970-01-01T00:40:55.000Z</time>
      </trkpt>
      <trkpt lat="41.039678" lon="-6.750008">
        <ele>624.4</ele>
        <time>1970-01-01T00:40:56.000Z</time>
      </trkpt>
      <trkpt lat="41.03965" lon="-6.749993">
        <ele>623.9</ele>
        <time>1970-01-01T00:40:57.000Z</time>
      </trkpt>
      <trkpt lat="41.039619" lon="-6.749976">
        <ele>623.3</ele>
        <time>1970-01-01T00:40:58.000Z</time>
      </trkpt>
      <trkpt lat="41.039584" lon="-6.749959">
        <ele>622.7</ele>
        <time>1970-01-01T00:40:59.000Z</time>
      </trkpt>
      <trkpt lat="41.039547" lon="-6.74994">
        <ele>622.1</ele>
        <time>1970-01-01T00:41:00.000Z</time>
      </trkpt>
      <trkpt lat="41.039509" lon="-6.749921">
        <ele>621.5</ele>
        <time>1970-01-01T00:41:01.000Z</time>
      </trkpt>
      <trkpt lat="41.039471" lon="-6.749902">
        <ele>620.8</ele>
        <time>1970-01-01T00:41:02.000Z</time>
      </trkpt>
      <trkpt lat="41.039432" lon="-6.749885">
        <ele>620.1</ele>
        <time>1970-01-01T00:41:03.000Z</time>
      </trkpt>
      <trkpt lat="41.039392" lon="-6.749867">
        <ele>619.5</ele>
        <time>1970-01-01T00:41:04.000Z</time>
      </trkpt>
      <trkpt lat="41.039352" lon="-6.749845">
        <ele>618.8</ele>
        <time>1970-01-01T00:41:05.000Z</time>
      </trkpt>
      <trkpt lat="41.039315" lon="-6.749814">
        <ele>618.1</ele>
        <time>1970-01-01T00:41:06.000Z</time>
      </trkpt>
      <trkpt lat="41.039281" lon="-6.749779">
        <ele>617.4</ele>
        <time>1970-01-01T00:41:07.000Z</time>
      </trkpt>
      <trkpt lat="41.03925" lon="-6.749748">
        <ele>616.7</ele>
        <time>1970-01-01T00:41:08.000Z</time>
      </trkpt>
      <trkpt lat="41.039221" lon="-6.749724">
        <ele>616.2</ele>
        <time>1970-01-01T00:41:09.000Z</time>
      </trkpt>
      <trkpt lat="41.039194" lon="-6.749702">
        <ele>615.7</ele>
        <time>1970-01-01T00:41:10.000Z</time>
      </trkpt>
      <trkpt lat="41.039173" lon="-6.749681">
        <ele>615.2</ele>
        <time>1970-01-01T00:41:11.000Z</time>
      </trkpt>
      <trkpt lat="41.039152" lon="-6.749657">
        <ele>614.8</ele>
        <time>1970-01-01T00:41:12.000Z</time>
      </trkpt>
      <trkpt lat="41.039131" lon="-6.749635">
        <ele>614.4</ele>
        <time>1970-01-01T00:41:13.000Z</time>
      </trkpt>
      <trkpt lat="41.039104" lon="-6.749617">
        <ele>613.9</ele>
        <time>1970-01-01T00:41:14.000Z</time>
      </trkpt>
      <trkpt lat="41.039068" lon="-6.749607">
        <ele>613.3</ele>
        <time>1970-01-01T00:41:15.000Z</time>
      </trkpt>
      <trkpt lat="41.039024" lon="-6.7496">
        <ele>612.6</ele>
        <time>1970-01-01T00:41:16.000Z</time>
      </trkpt>
      <trkpt lat="41.038981" lon="-6.749593">
        <ele>611.9</ele>
        <time>1970-01-01T00:41:17.000Z</time>
      </trkpt>
      <trkpt lat="41.038943" lon="-6.749583">
        <ele>611.3</ele>
        <time>1970-01-01T00:41:18.000Z</time>
      </trkpt>
      <trkpt lat="41.038913" lon="-6.749574">
        <ele>610.8</ele>
        <time>1970-01-01T00:41:19.000Z</time>
      </trkpt>
      <trkpt lat="41.038882" lon="-6.749564">
        <ele>610.2</ele>
        <time>1970-01-01T00:41:20.000Z</time>
      </trkpt>
      <trkpt lat="41.038849" lon="-6.749554">
        <ele>609.7</ele>
        <time>1970-01-01T00:41:21.000Z</time>
      </trkpt>
      <trkpt lat="41.038812" lon="-6.749546">
        <ele>609.1</ele>
        <time>1970-01-01T00:41:22.000Z</time>
      </trkpt>
      <trkpt lat="41.038771" lon="-6.749541">
        <ele>608.4</ele>
        <time>1970-01-01T00:41:23.000Z</time>
      </trkpt>
      <trkpt lat="41.038731" lon="-6.74954">
        <ele>607.8</ele>
        <time>1970-01-01T00:41:24.000Z</time>
      </trkpt>
      <trkpt lat="41.038694" lon="-6.749544">
        <ele>607.2</ele>
        <time>1970-01-01T00:41:25.000Z</time>
      </trkpt>
      <trkpt lat="41.038658" lon="-6.749551">
        <ele>606.6</ele>
        <time>1970-01-01T00:41:26.000Z</time>
      </trkpt>
      <trkpt lat="41.038622" lon="-6.749561">
        <ele>606</ele>
        <time>1970-01-01T00:41:27.000Z</time>
      </trkpt>
      <trkpt lat="41.038584" lon="-6.749566">
        <ele>605.4</ele>
        <time>1970-01-01T00:41:28.000Z</time>
      </trkpt>
      <trkpt lat="41.038547" lon="-6.74957">
        <ele>604.8</ele>
        <time>1970-01-01T00:41:29.000Z</time>
      </trkpt>
      <trkpt lat="41.038512" lon="-6.749572">
        <ele>604.2</ele>
        <time>1970-01-01T00:41:30.000Z</time>
      </trkpt>
      <trkpt lat="41.03848" lon="-6.749579">
        <ele>603.7</ele>
        <time>1970-01-01T00:41:31.000Z</time>
      </trkpt>
      <trkpt lat="41.038449" lon="-6.749586">
        <ele>603.2</ele>
        <time>1970-01-01T00:41:32.000Z</time>
      </trkpt>
      <trkpt lat="41.03842" lon="-6.749592">
        <ele>602.7</ele>
        <time>1970-01-01T00:41:33.000Z</time>
      </trkpt>
      <trkpt lat="41.038392" lon="-6.749597">
        <ele>602.3</ele>
        <time>1970-01-01T00:41:34.000Z</time>
      </trkpt>
      <trkpt lat="41.038366" lon="-6.7496">
        <ele>601.9</ele>
        <time>1970-01-01T00:41:35.000Z</time>
      </trkpt>
      <trkpt lat="41.038341" lon="-6.749601">
        <ele>601.5</ele>
        <time>1970-01-01T00:41:36.000Z</time>
      </trkpt>
      <trkpt lat="41.038318" lon="-6.749601">
        <ele>601.1</ele>
        <time>1970-01-01T00:41:37.000Z</time>
      </trkpt>
      <trkpt lat="41.038296" lon="-6.7496">
        <ele>600.7</ele>
        <time>1970-01-01T00:41:38.000Z</time>
      </trkpt>
      <trkpt lat="41.038274" lon="-6.749601">
        <ele>600.4</ele>
        <time>1970-01-01T00:41:39.000Z</time>
      </trkpt>
      <trkpt lat="41.038247" lon="-6.749602">
        <ele>599.9</ele>
        <time>1970-01-01T00:41:40.000Z</time>
      </trkpt>
      <trkpt lat="41.038219" lon="-6.749605">
        <ele>599.5</ele>
        <time>1970-01-01T00:41:41.000Z</time>
      </trkpt>
      <trkpt lat="41.038193" lon="-6.74961">
        <ele>599.1</ele>
        <time>1970-01-01T00:41:42.000Z</time>
      </trkpt>
      <trkpt lat="41.038171" lon="-6.749617">
        <ele>598.7</ele>
        <time>1970-01-01T00:41:43.000Z</time>
      </trkpt>
      <trkpt lat="41.038151" lon="-6.749624">
        <ele>598.4</ele>
        <time>1970-01-01T00:41:44.000Z</time>
      </trkpt>
      <trkpt lat="41.038133" lon="-6.749629">
        <ele>598.1</ele>
        <time>1970-01-01T00:41:45.000Z</time>
      </trkpt>
      <trkpt lat="41.038115" lon="-6.749631">
        <ele>597.8</ele>
        <time>1970-01-01T00:41:46.000Z</time>
      </trkpt>
      <trkpt lat="41.038095" lon="-6.749628">
        <ele>597.5</ele>
        <time>1970-01-01T00:41:47.000Z</time>
      </trkpt>
      <trkpt lat="41.038075" lon="-6.749624">
        <ele>597.1</ele>
        <time>1970-01-01T00:41:48.000Z</time>
      </trkpt>
      <trkpt lat="41.038054" lon="-6.749624">
        <ele>596.8</ele>
        <time>1970-01-01T00:41:49.000Z</time>
      </trkpt>
      <trkpt lat="41.038021" lon="-6.749641">
        <ele>596.2</ele>
        <time>1970-01-01T00:41:50.000Z</time>
      </trkpt>
      <trkpt lat="41.038005" lon="-6.749655">
        <ele>595.9</ele>
        <time>1970-01-01T00:41:51.000Z</time>
      </trkpt>
      <trkpt lat="41.037988" lon="-6.749669">
        <ele>595.6</ele>
        <time>1970-01-01T00:41:52.000Z</time>
      </trkpt>
      <trkpt lat="41.037972" lon="-6.749684">
        <ele>595.3</ele>
        <time>1970-01-01T00:41:53.000Z</time>
      </trkpt>
      <trkpt lat="41.037955" lon="-6.749698">
        <ele>595</ele>
        <time>1970-01-01T00:41:54.000Z</time>
      </trkpt>
      <trkpt lat="41.037938" lon="-6.749712">
        <ele>594.8</ele>
        <time>1970-01-01T00:41:55.000Z</time>
      </trkpt>
      <trkpt lat="41.037922" lon="-6.749726">
        <ele>594.5</ele>
        <time>1970-01-01T00:41:56.000Z</time>
      </trkpt>
      <trkpt lat="41.037905" lon="-6.74974">
        <ele>594.2</ele>
        <time>1970-01-01T00:41:57.000Z</time>
      </trkpt>
      <trkpt lat="41.037888" lon="-6.749754">
        <ele>593.9</ele>
        <time>1970-01-01T00:41:58.000Z</time>
      </trkpt>
      <trkpt lat="41.037872" lon="-6.749769">
        <ele>593.6</ele>
        <time>1970-01-01T00:41:59.000Z</time>
      </trkpt>
      <trkpt lat="41.037855" lon="-6.749783">
        <ele>593.2</ele>
        <time>1970-01-01T00:42:00.000Z</time>
      </trkpt>
      <trkpt lat="41.037839" lon="-6.749797">
        <ele>592.9</ele>
        <time>1970-01-01T00:43:18.000Z</time>
      </trkpt>
      <trkpt lat="41.037822" lon="-6.749811">
        <ele>592.6</ele>
        <time>1970-01-01T00:43:19.000Z</time>
      </trkpt>
      <trkpt lat="41.037778" lon="-6.749848">
        <ele>591.7</ele>
        <time>1970-01-01T00:43:20.000Z</time>
      </trkpt>
      <trkpt lat="41.037731" lon="-6.749888">
        <ele>590.7</ele>
        <time>1970-01-01T00:43:21.000Z</time>
      </trkpt>
      <trkpt lat="41.037679" lon="-6.749928">
        <ele>589.8</ele>
        <time>1970-01-01T00:43:22.000Z</time>
      </trkpt>
      <trkpt lat="41.03762" lon="-6.749967">
        <ele>588.7</ele>
        <time>1970-01-01T00:43:23.000Z</time>
      </trkpt>
      <trkpt lat="41.037556" lon="-6.750005">
        <ele>587.4</ele>
        <time>1970-01-01T00:43:24.000Z</time>
      </trkpt>
      <trkpt lat="41.037486" lon="-6.750043">
        <ele>586.1</ele>
        <time>1970-01-01T00:43:25.000Z</time>
      </trkpt>
      <trkpt lat="41.037409" lon="-6.750082">
        <ele>584.7</ele>
        <time>1970-01-01T00:43:26.000Z</time>
      </trkpt>
      <trkpt lat="41.037325" lon="-6.750122">
        <ele>583.3</ele>
        <time>1970-01-01T00:43:27.000Z</time>
      </trkpt>
      <trkpt lat="41.037239" lon="-6.750165">
        <ele>581.8</ele>
        <time>1970-01-01T00:43:28.000Z</time>
      </trkpt>
      <trkpt lat="41.037152" lon="-6.750211">
        <ele>580.2</ele>
        <time>1970-01-01T00:43:29.000Z</time>
      </trkpt>
      <trkpt lat="41.037066" lon="-6.750263">
        <ele>578.7</ele>
        <time>1970-01-01T00:43:30.000Z</time>
      </trkpt>
      <trkpt lat="41.036978" lon="-6.750321">
        <ele>577.1</ele>
        <time>1970-01-01T00:43:31.000Z</time>
      </trkpt>
      <trkpt lat="41.036886" lon="-6.750383">
        <ele>575.4</ele>
        <time>1970-01-01T00:43:32.000Z</time>
      </trkpt>
      <trkpt lat="41.036792" lon="-6.750446">
        <ele>573.6</ele>
        <time>1970-01-01T00:43:33.000Z</time>
      </trkpt>
      <trkpt lat="41.036697" lon="-6.750507">
        <ele>572</ele>
        <time>1970-01-01T00:43:34.000Z</time>
      </trkpt>
      <trkpt lat="41.0366" lon="-6.750567">
        <ele>570.4</ele>
        <time>1970-01-01T00:43:35.000Z</time>
      </trkpt>
      <trkpt lat="41.036502" lon="-6.750625">
        <ele>568.9</ele>
        <time>1970-01-01T00:43:36.000Z</time>
      </trkpt>
      <trkpt lat="41.036404" lon="-6.750677">
        <ele>567.3</ele>
        <time>1970-01-01T00:43:37.000Z</time>
      </trkpt>
      <trkpt lat="41.036308" lon="-6.750716">
        <ele>566</ele>
        <time>1970-01-01T00:43:38.000Z</time>
      </trkpt>
      <trkpt lat="41.036214" lon="-6.750739">
        <ele>565</ele>
        <time>1970-01-01T00:43:39.000Z</time>
      </trkpt>
      <trkpt lat="41.036123" lon="-6.750754">
        <ele>564.3</ele>
        <time>1970-01-01T00:43:40.000Z</time>
      </trkpt>
      <trkpt lat="41.036037" lon="-6.750775">
        <ele>564</ele>
        <time>1970-01-01T00:43:41.000Z</time>
      </trkpt>
      <trkpt lat="41.035963" lon="-6.750817">
        <ele>563.7</ele>
        <time>1970-01-01T00:43:42.000Z</time>
      </trkpt>
      <trkpt lat="41.035902" lon="-6.750878">
        <ele>563.4</ele>
        <time>1970-01-01T00:43:43.000Z</time>
      </trkpt>
      <trkpt lat="41.035851" lon="-6.750956">
        <ele>563</ele>
        <time>1970-01-01T00:43:44.000Z</time>
      </trkpt>
      <trkpt lat="41.035813" lon="-6.751042">
        <ele>562.6</ele>
        <time>1970-01-01T00:43:45.000Z</time>
      </trkpt>
      <trkpt lat="41.035783" lon="-6.751131">
        <ele>562.1</ele>
        <time>1970-01-01T00:43:46.000Z</time>
      </trkpt>
      <trkpt lat="41.035761" lon="-6.751223">
        <ele>561.5</ele>
        <time>1970-01-01T00:43:47.000Z</time>
      </trkpt>
      <trkpt lat="41.035737" lon="-6.751319">
        <ele>560.7</ele>
        <time>1970-01-01T00:43:48.000Z</time>
      </trkpt>
      <trkpt lat="41.035712" lon="-6.751418">
        <ele>560</ele>
        <time>1970-01-01T00:43:49.000Z</time>
      </trkpt>
      <trkpt lat="41.035685" lon="-6.751517">
        <ele>559.2</ele>
        <time>1970-01-01T00:43:50.000Z</time>
      </trkpt>
      <trkpt lat="41.035657" lon="-6.751617">
        <ele>558.5</ele>
        <time>1970-01-01T00:43:51.000Z</time>
      </trkpt>
      <trkpt lat="41.035623" lon="-6.751718">
        <ele>557.9</ele>
        <time>1970-01-01T00:43:52.000Z</time>
      </trkpt>
      <trkpt lat="41.035583" lon="-6.751819">
        <ele>557.3</ele>
        <time>1970-01-01T00:43:53.000Z</time>
      </trkpt>
      <trkpt lat="41.035537" lon="-6.751917">
        <ele>556.8</ele>
        <time>1970-01-01T00:43:54.000Z</time>
      </trkpt>
      <trkpt lat="41.035483" lon="-6.752005">
        <ele>556.4</ele>
        <time>1970-01-01T00:43:55.000Z</time>
      </trkpt>
      <trkpt lat="41.035419" lon="-6.752082">
        <ele>555.8</ele>
        <time>1970-01-01T00:43:56.000Z</time>
      </trkpt>
      <trkpt lat="41.035348" lon="-6.752148">
        <ele>555.2</ele>
        <time>1970-01-01T00:43:57.000Z</time>
      </trkpt>
      <trkpt lat="41.03527" lon="-6.752203">
        <ele>554.3</ele>
        <time>1970-01-01T00:43:58.000Z</time>
      </trkpt>
      <trkpt lat="41.035191" lon="-6.752247">
        <ele>553.2</ele>
        <time>1970-01-01T00:43:59.000Z</time>
      </trkpt>
      <trkpt lat="41.035109" lon="-6.752274">
        <ele>552.2</ele>
        <time>1970-01-01T00:44:00.000Z</time>
      </trkpt>
      <trkpt lat="41.035028" lon="-6.752292">
        <ele>551.3</ele>
        <time>1970-01-01T00:44:01.000Z</time>
      </trkpt>
      <trkpt lat="41.034945" lon="-6.752304">
        <ele>550.4</ele>
        <time>1970-01-01T00:44:02.000Z</time>
      </trkpt>
      <trkpt lat="41.034858" lon="-6.752323">
        <ele>549.5</ele>
        <time>1970-01-01T00:44:03.000Z</time>
      </trkpt>
      <trkpt lat="41.034768" lon="-6.752344">
        <ele>548.8</ele>
        <time>1970-01-01T00:44:04.000Z</time>
      </trkpt>
      <trkpt lat="41.034677" lon="-6.752368">
        <ele>548.3</ele>
        <time>1970-01-01T00:44:05.000Z</time>
      </trkpt>
      <trkpt lat="41.034587" lon="-6.752393">
        <ele>547.9</ele>
        <time>1970-01-01T00:44:06.000Z</time>
      </trkpt>
      <trkpt lat="41.034499" lon="-6.752418">
        <ele>547.4</ele>
        <time>1970-01-01T00:44:07.000Z</time>
      </trkpt>
      <trkpt lat="41.034412" lon="-6.75244">
        <ele>546.8</ele>
        <time>1970-01-01T00:44:08.000Z</time>
      </trkpt>
      <trkpt lat="41.034326" lon="-6.752458">
        <ele>546.3</ele>
        <time>1970-01-01T00:44:09.000Z</time>
      </trkpt>
      <trkpt lat="41.034242" lon="-6.752476">
        <ele>545.9</ele>
        <time>1970-01-01T00:44:10.000Z</time>
      </trkpt>
      <trkpt lat="41.034163" lon="-6.752496">
        <ele>545.6</ele>
        <time>1970-01-01T00:44:11.000Z</time>
      </trkpt>
      <trkpt lat="41.034089" lon="-6.752522">
        <ele>545.2</ele>
        <time>1970-01-01T00:44:12.000Z</time>
      </trkpt>
      <trkpt lat="41.03402" lon="-6.752557">
        <ele>544.5</ele>
        <time>1970-01-01T00:44:13.000Z</time>
      </trkpt>
      <trkpt lat="41.033959" lon="-6.752601">
        <ele>543.2</ele>
        <time>1970-01-01T00:44:14.000Z</time>
      </trkpt>
      <trkpt lat="41.033908" lon="-6.752647">
        <ele>541.3</ele>
        <time>1970-01-01T00:44:15.000Z</time>
      </trkpt>
      <trkpt lat="41.033869" lon="-6.752693">
        <ele>540.4</ele>
        <time>1970-01-01T00:44:16.000Z</time>
      </trkpt>
      <trkpt lat="41.03384" lon="-6.752739">
        <ele>540</ele>
        <time>1970-01-01T00:44:17.000Z</time>
      </trkpt>
      <trkpt lat="41.033818" lon="-6.752781">
        <ele>539.6</ele>
        <time>1970-01-01T00:44:18.000Z</time>
      </trkpt>
      <trkpt lat="41.033798" lon="-6.752819">
        <ele>539.1</ele>
        <time>1970-01-01T00:44:19.000Z</time>
      </trkpt>
      <trkpt lat="41.033779" lon="-6.752856">
        <ele>538.6</ele>
        <time>1970-01-01T00:44:20.000Z</time>
      </trkpt>
      <trkpt lat="41.033762" lon="-6.752894">
        <ele>538.1</ele>
        <time>1970-01-01T00:44:21.000Z</time>
      </trkpt>
      <trkpt lat="41.03375" lon="-6.75293">
        <ele>537.6</ele>
        <time>1970-01-01T00:44:22.000Z</time>
      </trkpt>
      <trkpt lat="41.033741" lon="-6.75296">
        <ele>537.3</ele>
        <time>1970-01-01T00:44:23.000Z</time>
      </trkpt>
      <trkpt lat="41.033734" lon="-6.752986">
        <ele>537</ele>
        <time>1970-01-01T00:44:24.000Z</time>
      </trkpt>
      <trkpt lat="41.033726" lon="-6.753009">
        <ele>536.7</ele>
        <time>1970-01-01T00:44:25.000Z</time>
      </trkpt>
      <trkpt lat="41.033719" lon="-6.753031">
        <ele>536.4</ele>
        <time>1970-01-01T00:44:26.000Z</time>
      </trkpt>
      <trkpt lat="41.033712" lon="-6.753055">
        <ele>536.2</ele>
        <time>1970-01-01T00:44:27.000Z</time>
      </trkpt>
      <trkpt lat="41.033706" lon="-6.753083">
        <ele>535.9</ele>
        <time>1970-01-01T00:44:28.000Z</time>
      </trkpt>
      <trkpt lat="41.033701" lon="-6.753116">
        <ele>535.6</ele>
        <time>1970-01-01T00:44:29.000Z</time>
      </trkpt>
      <trkpt lat="41.0337" lon="-6.753152">
        <ele>535.3</ele>
        <time>1970-01-01T00:44:30.000Z</time>
      </trkpt>
      <trkpt lat="41.033701" lon="-6.753183">
        <ele>535</ele>
        <time>1970-01-01T00:44:31.000Z</time>
      </trkpt>
      <trkpt lat="41.033704" lon="-6.753207">
        <ele>534.9</ele>
        <time>1970-01-01T00:44:32.000Z</time>
      </trkpt>
      <trkpt lat="41.033707" lon="-6.753224">
        <ele>534.7</ele>
        <time>1970-01-01T00:44:33.000Z</time>
      </trkpt>
      <trkpt lat="41.033711" lon="-6.753238">
        <ele>534.6</ele>
        <time>1970-01-01T00:44:34.000Z</time>
      </trkpt>
      <trkpt lat="41.033714" lon="-6.753252">
        <ele>534.5</ele>
        <time>1970-01-01T00:44:35.000Z</time>
      </trkpt>
      <trkpt lat="41.033718" lon="-6.753265">
        <ele>534.4</ele>
        <time>1970-01-01T00:44:36.000Z</time>
      </trkpt>
      <trkpt lat="41.033721" lon="-6.753276">
        <ele>534.4</ele>
        <time>1970-01-01T00:44:37.000Z</time>
      </trkpt>
      <trkpt lat="41.033724" lon="-6.753285">
        <ele>534.3</ele>
        <time>1970-01-01T00:44:38.000Z</time>
      </trkpt>
      <trkpt lat="41.033728" lon="-6.753294">
        <ele>534.3</ele>
        <time>1970-01-01T00:44:39.000Z</time>
      </trkpt>
      <trkpt lat="41.033733" lon="-6.7533">
        <ele>534.2</ele>
        <time>1970-01-01T00:44:40.000Z</time>
      </trkpt>
      <trkpt lat="41.03374" lon="-6.753305">
        <ele>534.2</ele>
        <time>1970-01-01T00:44:41.000Z</time>
      </trkpt>
      <trkpt lat="41.033746" lon="-6.753308">
        <ele>534.2</ele>
        <time>1970-01-01T00:44:42.000Z</time>
      </trkpt>
      <trkpt lat="41.033751" lon="-6.753312">
        <ele>534.1</ele>
        <time>1970-01-01T00:44:43.000Z</time>
      </trkpt>
      <trkpt lat="41.033755" lon="-6.753315">
        <ele>534.1</ele>
        <time>1970-01-01T00:44:44.000Z</time>
      </trkpt>
      <trkpt lat="41.033758" lon="-6.753319">
        <ele>534.1</ele>
        <time>1970-01-01T00:44:45.000Z</time>
      </trkpt>
      <trkpt lat="41.033758" lon="-6.753321">
        <ele>534.1</ele>
        <time>1970-01-01T00:44:46.000Z</time>
      </trkpt>
      <trkpt lat="41.03376" lon="-6.753324">
        <ele>534.1</ele>
        <time>1970-01-01T00:44:47.000Z</time>
      </trkpt>
      <trkpt lat="41.033762" lon="-6.753329">
        <ele>534.1</ele>
        <time>1970-01-01T00:44:48.000Z</time>
      </trkpt>
      <trkpt lat="41.033765" lon="-6.753334">
        <ele>534.1</ele>
        <time>1970-01-01T00:44:49.000Z</time>
      </trkpt>
      <trkpt lat="41.033767" lon="-6.75334">
        <ele>534.1</ele>
        <time>1970-01-01T00:44:50.000Z</time>
      </trkpt>
      <trkpt lat="41.03377" lon="-6.753346">
        <ele>534.1</ele>
        <time>1970-01-01T00:44:51.000Z</time>
      </trkpt>
      <trkpt lat="41.033772" lon="-6.753352">
        <ele>534.1</ele>
        <time>1970-01-01T00:44:52.000Z</time>
      </trkpt>
      <trkpt lat="41.033775" lon="-6.753358">
        <ele>534.1</ele>
        <time>1970-01-01T00:44:53.000Z</time>
      </trkpt>
      <trkpt lat="41.033778" lon="-6.753366">
        <ele>534.1</ele>
        <time>1970-01-01T00:44:54.000Z</time>
      </trkpt>
      <trkpt lat="41.033784" lon="-6.753379">
        <ele>534.1</ele>
        <time>1970-01-01T00:44:55.000Z</time>
      </trkpt>
      <trkpt lat="41.033789" lon="-6.753395">
        <ele>534.2</ele>
        <time>1970-01-01T00:44:56.000Z</time>
      </trkpt>
      <trkpt lat="41.033792" lon="-6.753412">
        <ele>534.3</ele>
        <time>1970-01-01T00:44:57.000Z</time>
      </trkpt>
      <trkpt lat="41.033793" lon="-6.753432">
        <ele>534.4</ele>
        <time>1970-01-01T00:44:58.000Z</time>
      </trkpt>
      <trkpt lat="41.033795" lon="-6.753458">
        <ele>534.7</ele>
        <time>1970-01-01T00:44:59.000Z</time>
      </trkpt>
      <trkpt lat="41.033796" lon="-6.753486">
        <ele>534.9</ele>
        <time>1970-01-01T00:45:00.000Z</time>
      </trkpt>
      <trkpt lat="41.033798" lon="-6.753512">
        <ele>535.2</ele>
        <time>1970-01-01T00:45:01.000Z</time>
      </trkpt>
      <trkpt lat="41.033799" lon="-6.753531">
        <ele>535.5</ele>
        <time>1970-01-01T00:45:02.000Z</time>
      </trkpt>
      <trkpt lat="41.033799" lon="-6.753545">
        <ele>535.7</ele>
        <time>1970-01-01T00:45:03.000Z</time>
      </trkpt>
      <trkpt lat="41.033796" lon="-6.753558">
        <ele>535.8</ele>
        <time>1970-01-01T00:45:04.000Z</time>
      </trkpt>
      <trkpt lat="41.033792" lon="-6.75357">
        <ele>536</ele>
        <time>1970-01-01T00:45:05.000Z</time>
      </trkpt>
      <trkpt lat="41.033788" lon="-6.753586">
        <ele>536.2</ele>
        <time>1970-01-01T00:45:06.000Z</time>
      </trkpt>
      <trkpt lat="41.033784" lon="-6.753605">
        <ele>536.4</ele>
        <time>1970-01-01T00:45:07.000Z</time>
      </trkpt>
      <trkpt lat="41.03378" lon="-6.753628">
        <ele>536.7</ele>
        <time>1970-01-01T00:45:08.000Z</time>
      </trkpt>
      <trkpt lat="41.033774" lon="-6.753654">
        <ele>536.9</ele>
        <time>1970-01-01T00:45:09.000Z</time>
      </trkpt>
      <trkpt lat="41.033765" lon="-6.753682">
        <ele>537.2</ele>
        <time>1970-01-01T00:45:10.000Z</time>
      </trkpt>
      <trkpt lat="41.033756" lon="-6.75371">
        <ele>537.4</ele>
        <time>1970-01-01T00:45:11.000Z</time>
      </trkpt>
      <trkpt lat="41.033745" lon="-6.753738">
        <ele>537.6</ele>
        <time>1970-01-01T00:45:12.000Z</time>
      </trkpt>
      <trkpt lat="41.033733" lon="-6.753767">
        <ele>537.7</ele>
        <time>1970-01-01T00:45:13.000Z</time>
      </trkpt>
      <trkpt lat="41.033719" lon="-6.753797">
        <ele>537.8</ele>
        <time>1970-01-01T00:45:14.000Z</time>
      </trkpt>
      <trkpt lat="41.033701" lon="-6.753831">
        <ele>537.8</ele>
        <time>1970-01-01T00:45:15.000Z</time>
      </trkpt>
      <trkpt lat="41.03368" lon="-6.753865">
        <ele>537.8</ele>
        <time>1970-01-01T00:45:16.000Z</time>
      </trkpt>
      <trkpt lat="41.033657" lon="-6.753902">
        <ele>537.8</ele>
        <time>1970-01-01T00:45:17.000Z</time>
      </trkpt>
      <trkpt lat="41.033634" lon="-6.753938">
        <ele>537.8</ele>
        <time>1970-01-01T00:45:18.000Z</time>
      </trkpt>
      <trkpt lat="41.033612" lon="-6.753973">
        <ele>537.8</ele>
        <time>1970-01-01T00:45:19.000Z</time>
      </trkpt>
      <trkpt lat="41.033593" lon="-6.754006">
        <ele>537.9</ele>
        <time>1970-01-01T00:45:20.000Z</time>
      </trkpt>
      <trkpt lat="41.033575" lon="-6.754037">
        <ele>538</ele>
        <time>1970-01-01T00:45:21.000Z</time>
      </trkpt>
      <trkpt lat="41.033559" lon="-6.754066">
        <ele>538.1</ele>
        <time>1970-01-01T00:45:22.000Z</time>
      </trkpt>
      <trkpt lat="41.033542" lon="-6.754093">
        <ele>538.2</ele>
        <time>1970-01-01T00:45:23.000Z</time>
      </trkpt>
      <trkpt lat="41.033525" lon="-6.754122">
        <ele>538.3</ele>
        <time>1970-01-01T00:45:24.000Z</time>
      </trkpt>
      <trkpt lat="41.033502" lon="-6.754156">
        <ele>538.4</ele>
        <time>1970-01-01T00:45:25.000Z</time>
      </trkpt>
      <trkpt lat="41.033476" lon="-6.754192">
        <ele>538.6</ele>
        <time>1970-01-01T00:45:26.000Z</time>
      </trkpt>
      <trkpt lat="41.033444" lon="-6.754232">
        <ele>538.7</ele>
        <time>1970-01-01T00:45:27.000Z</time>
      </trkpt>
      <trkpt lat="41.033411" lon="-6.754272">
        <ele>538.7</ele>
        <time>1970-01-01T00:45:28.000Z</time>
      </trkpt>
      <trkpt lat="41.033376" lon="-6.754314">
        <ele>538.6</ele>
        <time>1970-01-01T00:45:29.000Z</time>
      </trkpt>
      <trkpt lat="41.03334" lon="-6.754356">
        <ele>538.4</ele>
        <time>1970-01-01T00:45:30.000Z</time>
      </trkpt>
      <trkpt lat="41.033304" lon="-6.7544">
        <ele>538.1</ele>
        <time>1970-01-01T00:45:31.000Z</time>
      </trkpt>
      <trkpt lat="41.033269" lon="-6.754444">
        <ele>537.8</ele>
        <time>1970-01-01T00:45:32.000Z</time>
      </trkpt>
      <trkpt lat="41.033234" lon="-6.754483">
        <ele>537.5</ele>
        <time>1970-01-01T00:45:33.000Z</time>
      </trkpt>
      <trkpt lat="41.033197" lon="-6.754515">
        <ele>537.3</ele>
        <time>1970-01-01T00:45:34.000Z</time>
      </trkpt>
      <trkpt lat="41.033157" lon="-6.754543">
        <ele>537.1</ele>
        <time>1970-01-01T00:45:35.000Z</time>
      </trkpt>
      <trkpt lat="41.033115" lon="-6.754572">
        <ele>537</ele>
        <time>1970-01-01T00:45:36.000Z</time>
      </trkpt>
      <trkpt lat="41.033073" lon="-6.754604">
        <ele>536.9</ele>
        <time>1970-01-01T00:45:37.000Z</time>
      </trkpt>
      <trkpt lat="41.033035" lon="-6.75464">
        <ele>536.7</ele>
        <time>1970-01-01T00:45:38.000Z</time>
      </trkpt>
      <trkpt lat="41.033003" lon="-6.754679">
        <ele>536.6</ele>
        <time>1970-01-01T00:45:39.000Z</time>
      </trkpt>
      <trkpt lat="41.032978" lon="-6.754717">
        <ele>536.4</ele>
        <time>1970-01-01T00:45:40.000Z</time>
      </trkpt>
      <trkpt lat="41.03296" lon="-6.754755">
        <ele>536.3</ele>
        <time>1970-01-01T00:45:41.000Z</time>
      </trkpt>
      <trkpt lat="41.032947" lon="-6.754792">
        <ele>536.2</ele>
        <time>1970-01-01T00:45:42.000Z</time>
      </trkpt>
      <trkpt lat="41.032935" lon="-6.754828">
        <ele>536.1</ele>
        <time>1970-01-01T00:45:43.000Z</time>
      </trkpt>
      <trkpt lat="41.032921" lon="-6.754862">
        <ele>536.1</ele>
        <time>1970-01-01T00:45:44.000Z</time>
      </trkpt>
      <trkpt lat="41.032908" lon="-6.754894">
        <ele>536.1</ele>
        <time>1970-01-01T00:45:45.000Z</time>
      </trkpt>
      <trkpt lat="41.032896" lon="-6.754923">
        <ele>536.1</ele>
        <time>1970-01-01T00:45:46.000Z</time>
      </trkpt>
      <trkpt lat="41.032885" lon="-6.754954">
        <ele>536.2</ele>
        <time>1970-01-01T00:45:47.000Z</time>
      </trkpt>
      <trkpt lat="41.032874" lon="-6.754983">
        <ele>536.2</ele>
        <time>1970-01-01T00:45:48.000Z</time>
      </trkpt>
      <trkpt lat="41.032864" lon="-6.755011">
        <ele>536.4</ele>
        <time>1970-01-01T00:45:49.000Z</time>
      </trkpt>
      <trkpt lat="41.032851" lon="-6.755035">
        <ele>536.5</ele>
        <time>1970-01-01T00:45:50.000Z</time>
      </trkpt>
      <trkpt lat="41.032836" lon="-6.75506">
        <ele>536.6</ele>
        <time>1970-01-01T00:45:51.000Z</time>
      </trkpt>
      <trkpt lat="41.032818" lon="-6.755083">
        <ele>536.8</ele>
        <time>1970-01-01T00:45:52.000Z</time>
      </trkpt>
      <trkpt lat="41.032801" lon="-6.755109">
        <ele>536.9</ele>
        <time>1970-01-01T00:45:53.000Z</time>
      </trkpt>
      <trkpt lat="41.032783" lon="-6.755133">
        <ele>537.1</ele>
        <time>1970-01-01T00:45:54.000Z</time>
      </trkpt>
      <trkpt lat="41.032765" lon="-6.755156">
        <ele>537.2</ele>
        <time>1970-01-01T00:45:55.000Z</time>
      </trkpt>
      <trkpt lat="41.032745" lon="-6.755175">
        <ele>537.3</ele>
        <time>1970-01-01T00:45:56.000Z</time>
      </trkpt>
      <trkpt lat="41.032724" lon="-6.755189">
        <ele>537.4</ele>
        <time>1970-01-01T00:45:57.000Z</time>
      </trkpt>
      <trkpt lat="41.0327" lon="-6.755199">
        <ele>537.5</ele>
        <time>1970-01-01T00:45:58.000Z</time>
      </trkpt>
      <trkpt lat="41.032672" lon="-6.755208">
        <ele>537.5</ele>
        <time>1970-01-01T00:45:59.000Z</time>
      </trkpt>
      <trkpt lat="41.032644" lon="-6.755216">
        <ele>537.6</ele>
        <time>1970-01-01T00:46:00.000Z</time>
      </trkpt>
      <trkpt lat="41.032618" lon="-6.75522">
        <ele>537.7</ele>
        <time>1970-01-01T00:46:01.000Z</time>
      </trkpt>
      <trkpt lat="41.032595" lon="-6.755221">
        <ele>537.8</ele>
        <time>1970-01-01T00:46:02.000Z</time>
      </trkpt>
      <trkpt lat="41.032574" lon="-6.755221">
        <ele>537.9</ele>
        <time>1970-01-01T00:46:03.000Z</time>
      </trkpt>
      <trkpt lat="41.032553" lon="-6.75522">
        <ele>538</ele>
        <time>1970-01-01T00:46:04.000Z</time>
      </trkpt>
      <trkpt lat="41.032529" lon="-6.755221">
        <ele>538.1</ele>
        <time>1970-01-01T00:46:05.000Z</time>
      </trkpt>
      <trkpt lat="41.032501" lon="-6.755229">
        <ele>538.3</ele>
        <time>1970-01-01T00:46:06.000Z</time>
      </trkpt>
      <trkpt lat="41.032472" lon="-6.755244">
        <ele>538.3</ele>
        <time>1970-01-01T00:46:07.000Z</time>
      </trkpt>
      <trkpt lat="41.032449" lon="-6.755274">
        <ele>538.2</ele>
        <time>1970-01-01T00:46:08.000Z</time>
      </trkpt>
      <trkpt lat="41.032431" lon="-6.755311">
        <ele>538.1</ele>
        <time>1970-01-01T00:46:09.000Z</time>
      </trkpt>
      <trkpt lat="41.032416" lon="-6.755357">
        <ele>537.9</ele>
        <time>1970-01-01T00:46:10.000Z</time>
      </trkpt>
      <trkpt lat="41.032402" lon="-6.755403">
        <ele>537.8</ele>
        <time>1970-01-01T00:46:11.000Z</time>
      </trkpt>
      <trkpt lat="41.032386" lon="-6.755445">
        <ele>537.6</ele>
        <time>1970-01-01T00:46:12.000Z</time>
      </trkpt>
      <trkpt lat="41.032372" lon="-6.755485">
        <ele>537.4</ele>
        <time>1970-01-01T00:46:13.000Z</time>
      </trkpt>
      <trkpt lat="41.032357" lon="-6.755516">
        <ele>537.3</ele>
        <time>1970-01-01T00:46:14.000Z</time>
      </trkpt>
      <trkpt lat="41.032341" lon="-6.755545">
        <ele>537.3</ele>
        <time>1970-01-01T00:46:15.000Z</time>
      </trkpt>
      <trkpt lat="41.032322" lon="-6.75557">
        <ele>537.2</ele>
        <time>1970-01-01T00:46:16.000Z</time>
      </trkpt>
      <trkpt lat="41.032298" lon="-6.755593">
        <ele>537.2</ele>
        <time>1970-01-01T00:46:17.000Z</time>
      </trkpt>
      <trkpt lat="41.032268" lon="-6.755611">
        <ele>537.2</ele>
        <time>1970-01-01T00:46:18.000Z</time>
      </trkpt>
      <trkpt lat="41.032234" lon="-6.755626">
        <ele>537.2</ele>
        <time>1970-01-01T00:46:19.000Z</time>
      </trkpt>
      <trkpt lat="41.032196" lon="-6.755638">
        <ele>537.2</ele>
        <time>1970-01-01T00:46:20.000Z</time>
      </trkpt>
      <trkpt lat="41.03216" lon="-6.755648">
        <ele>537.2</ele>
        <time>1970-01-01T00:46:21.000Z</time>
      </trkpt>
      <trkpt lat="41.032124" lon="-6.755656">
        <ele>537.1</ele>
        <time>1970-01-01T00:46:22.000Z</time>
      </trkpt>
      <trkpt lat="41.032088" lon="-6.755662">
        <ele>537</ele>
        <time>1970-01-01T00:46:23.000Z</time>
      </trkpt>
      <trkpt lat="41.03205" lon="-6.755664">
        <ele>536.8</ele>
        <time>1970-01-01T00:46:24.000Z</time>
      </trkpt>
      <trkpt lat="41.032012" lon="-6.755665">
        <ele>536.6</ele>
        <time>1970-01-01T00:46:25.000Z</time>
      </trkpt>
      <trkpt lat="41.031974" lon="-6.755663">
        <ele>536.3</ele>
        <time>1970-01-01T00:46:26.000Z</time>
      </trkpt>
      <trkpt lat="41.031938" lon="-6.755662">
        <ele>536</ele>
        <time>1970-01-01T00:46:27.000Z</time>
      </trkpt>
      <trkpt lat="41.031902" lon="-6.755661">
        <ele>535.7</ele>
        <time>1970-01-01T00:46:28.000Z</time>
      </trkpt>
      <trkpt lat="41.031867" lon="-6.75566">
        <ele>535.3</ele>
        <time>1970-01-01T00:46:29.000Z</time>
      </trkpt>
      <trkpt lat="41.031835" lon="-6.755661">
        <ele>535</ele>
        <time>1970-01-01T00:46:30.000Z</time>
      </trkpt>
      <trkpt lat="41.031805" lon="-6.755661">
        <ele>534.7</ele>
        <time>1970-01-01T00:46:31.000Z</time>
      </trkpt>
      <trkpt lat="41.031768" lon="-6.755664">
        <ele>534.4</ele>
        <time>1970-01-01T00:46:32.000Z</time>
      </trkpt>
      <trkpt lat="41.031725" lon="-6.755667">
        <ele>533.9</ele>
        <time>1970-01-01T00:46:33.000Z</time>
      </trkpt>
      <trkpt lat="41.031679" lon="-6.755672">
        <ele>533.3</ele>
        <time>1970-01-01T00:46:34.000Z</time>
      </trkpt>
      <trkpt lat="41.031638" lon="-6.755676">
        <ele>532.7</ele>
        <time>1970-01-01T00:46:35.000Z</time>
      </trkpt>
      <trkpt lat="41.0316" lon="-6.755679">
        <ele>532.1</ele>
        <time>1970-01-01T00:46:36.000Z</time>
      </trkpt>
      <trkpt lat="41.031563" lon="-6.755683">
        <ele>531.5</ele>
        <time>1970-01-01T00:46:37.000Z</time>
      </trkpt>
      <trkpt lat="41.031531" lon="-6.755688">
        <ele>530.9</ele>
        <time>1970-01-01T00:46:38.000Z</time>
      </trkpt>
      <trkpt lat="41.031503" lon="-6.755693">
        <ele>530.5</ele>
        <time>1970-01-01T00:46:39.000Z</time>
      </trkpt>
      <trkpt lat="41.031479" lon="-6.755696">
        <ele>530.2</ele>
        <time>1970-01-01T00:46:40.000Z</time>
      </trkpt>
      <trkpt lat="41.031454" lon="-6.755694">
        <ele>529.9</ele>
        <time>1970-01-01T00:46:41.000Z</time>
      </trkpt>
      <trkpt lat="41.031431" lon="-6.755688">
        <ele>529.6</ele>
        <time>1970-01-01T00:46:42.000Z</time>
      </trkpt>
      <trkpt lat="41.031406" lon="-6.755683">
        <ele>529.2</ele>
        <time>1970-01-01T00:46:43.000Z</time>
      </trkpt>
      <trkpt lat="41.031379" lon="-6.755678">
        <ele>528.9</ele>
        <time>1970-01-01T00:46:44.000Z</time>
      </trkpt>
      <trkpt lat="41.031352" lon="-6.75567">
        <ele>528.5</ele>
        <time>1970-01-01T00:46:45.000Z</time>
      </trkpt>
      <trkpt lat="41.031326" lon="-6.755659">
        <ele>528.2</ele>
        <time>1970-01-01T00:46:46.000Z</time>
      </trkpt>
      <trkpt lat="41.0313" lon="-6.755648">
        <ele>527.8</ele>
        <time>1970-01-01T00:46:47.000Z</time>
      </trkpt>
      <trkpt lat="41.031268" lon="-6.755636">
        <ele>527.3</ele>
        <time>1970-01-01T00:46:48.000Z</time>
      </trkpt>
      <trkpt lat="41.031232" lon="-6.755626">
        <ele>526.7</ele>
        <time>1970-01-01T00:46:49.000Z</time>
      </trkpt>
      <trkpt lat="41.031193" lon="-6.755619">
        <ele>526.2</ele>
        <time>1970-01-01T00:46:50.000Z</time>
      </trkpt>
      <trkpt lat="41.031153" lon="-6.755616">
        <ele>525.6</ele>
        <time>1970-01-01T00:46:51.000Z</time>
      </trkpt>
      <trkpt lat="41.031115" lon="-6.755619">
        <ele>525.2</ele>
        <time>1970-01-01T00:46:52.000Z</time>
      </trkpt>
      <trkpt lat="41.031078" lon="-6.755631">
        <ele>524.7</ele>
        <time>1970-01-01T00:46:53.000Z</time>
      </trkpt>
      <trkpt lat="41.031041" lon="-6.755652">
        <ele>524.2</ele>
        <time>1970-01-01T00:46:54.000Z</time>
      </trkpt>
      <trkpt lat="41.031002" lon="-6.755675">
        <ele>523.7</ele>
        <time>1970-01-01T00:46:55.000Z</time>
      </trkpt>
      <trkpt lat="41.030969" lon="-6.755697">
        <ele>523.2</ele>
        <time>1970-01-01T00:46:56.000Z</time>
      </trkpt>
      <trkpt lat="41.030944" lon="-6.755714">
        <ele>522.8</ele>
        <time>1970-01-01T00:46:57.000Z</time>
      </trkpt>
      <trkpt lat="41.03092" lon="-6.755729">
        <ele>522.5</ele>
        <time>1970-01-01T00:46:58.000Z</time>
      </trkpt>
      <trkpt lat="41.030892" lon="-6.755742">
        <ele>522.1</ele>
        <time>1970-01-01T00:46:59.000Z</time>
      </trkpt>
      <trkpt lat="41.030862" lon="-6.755759">
        <ele>521.6</ele>
        <time>1970-01-01T00:47:00.000Z</time>
      </trkpt>
      <trkpt lat="41.030835" lon="-6.755777">
        <ele>521.2</ele>
        <time>1970-01-01T00:47:01.000Z</time>
      </trkpt>
      <trkpt lat="41.030813" lon="-6.755795">
        <ele>520.9</ele>
        <time>1970-01-01T00:47:02.000Z</time>
      </trkpt>
      <trkpt lat="41.030791" lon="-6.755808">
        <ele>520.6</ele>
        <time>1970-01-01T00:47:03.000Z</time>
      </trkpt>
      <trkpt lat="41.03077" lon="-6.755821">
        <ele>520.3</ele>
        <time>1970-01-01T00:47:04.000Z</time>
      </trkpt>
      <trkpt lat="41.030747" lon="-6.755837">
        <ele>519.9</ele>
        <time>1970-01-01T00:47:05.000Z</time>
      </trkpt>
      <trkpt lat="41.030725" lon="-6.755857">
        <ele>519.6</ele>
        <time>1970-01-01T00:47:06.000Z</time>
      </trkpt>
      <trkpt lat="41.030704" lon="-6.755879">
        <ele>519.2</ele>
        <time>1970-01-01T00:47:07.000Z</time>
      </trkpt>
      <trkpt lat="41.030685" lon="-6.755904">
        <ele>518.9</ele>
        <time>1970-01-01T00:47:08.000Z</time>
      </trkpt>
      <trkpt lat="41.030668" lon="-6.755929">
        <ele>517.7</ele>
        <time>1970-01-01T00:47:09.000Z</time>
      </trkpt>
      <trkpt lat="41.030654" lon="-6.755953">
        <ele>517.8</ele>
        <time>1970-01-01T00:47:10.000Z</time>
      </trkpt>
      <trkpt lat="41.030641" lon="-6.755974">
        <ele>517.9</ele>
        <time>1970-01-01T00:47:11.000Z</time>
      </trkpt>
      <trkpt lat="41.030628" lon="-6.755993">
        <ele>518</ele>
        <time>1970-01-01T00:47:12.000Z</time>
      </trkpt>
      <trkpt lat="41.030614" lon="-6.756011">
        <ele>518.1</ele>
        <time>1970-01-01T00:47:13.000Z</time>
      </trkpt>
      <trkpt lat="41.030601" lon="-6.756029">
        <ele>518.2</ele>
        <time>1970-01-01T00:47:14.000Z</time>
      </trkpt>
      <trkpt lat="41.03059" lon="-6.756047">
        <ele>518.3</ele>
        <time>1970-01-01T00:47:15.000Z</time>
      </trkpt>
      <trkpt lat="41.030581" lon="-6.756065">
        <ele>518.4</ele>
        <time>1970-01-01T00:47:16.000Z</time>
      </trkpt>
      <trkpt lat="41.030574" lon="-6.756086">
        <ele>518.4</ele>
        <time>1970-01-01T00:47:17.000Z</time>
      </trkpt>
      <trkpt lat="41.030569" lon="-6.756113">
        <ele>518.5</ele>
        <time>1970-01-01T00:47:18.000Z</time>
      </trkpt>
      <trkpt lat="41.030566" lon="-6.756143">
        <ele>518.6</ele>
        <time>1970-01-01T00:47:19.000Z</time>
      </trkpt>
      <trkpt lat="41.030566" lon="-6.75617">
        <ele>518.7</ele>
        <time>1970-01-01T00:47:20.000Z</time>
      </trkpt>
      <trkpt lat="41.030569" lon="-6.756197">
        <ele>518.8</ele>
        <time>1970-01-01T00:47:21.000Z</time>
      </trkpt>
      <trkpt lat="41.030574" lon="-6.756221">
        <ele>518.8</ele>
        <time>1970-01-01T00:47:22.000Z</time>
      </trkpt>
      <trkpt lat="41.030579" lon="-6.756244">
        <ele>518.9</ele>
        <time>1970-01-01T00:47:23.000Z</time>
      </trkpt>
      <trkpt lat="41.030582" lon="-6.756265">
        <ele>518.9</ele>
        <time>1970-01-01T00:47:24.000Z</time>
      </trkpt>
      <trkpt lat="41.030585" lon="-6.756286">
        <ele>519</ele>
        <time>1970-01-01T00:47:25.000Z</time>
      </trkpt>
      <trkpt lat="41.030587" lon="-6.756309">
        <ele>519</ele>
        <time>1970-01-01T00:47:26.000Z</time>
      </trkpt>
      <trkpt lat="41.030588" lon="-6.756331">
        <ele>519.1</ele>
        <time>1970-01-01T00:47:27.000Z</time>
      </trkpt>
      <trkpt lat="41.030584" lon="-6.75635">
        <ele>518.8</ele>
        <time>1970-01-01T00:47:28.000Z</time>
      </trkpt>
      <trkpt lat="41.030578" lon="-6.756362">
        <ele>518.8</ele>
        <time>1970-01-01T00:47:29.000Z</time>
      </trkpt>
      <trkpt lat="41.030568" lon="-6.756367">
        <ele>518.8</ele>
        <time>1970-01-01T00:47:30.000Z</time>
      </trkpt>
      <trkpt lat="41.030556" lon="-6.756365">
        <ele>518.8</ele>
        <time>1970-01-01T00:47:31.000Z</time>
      </trkpt>
      <trkpt lat="41.030544" lon="-6.75636">
        <ele>518.9</ele>
        <time>1970-01-01T00:47:32.000Z</time>
      </trkpt>
      <trkpt lat="41.030535" lon="-6.75635">
        <ele>518.9</ele>
        <time>1970-01-01T00:47:33.000Z</time>
      </trkpt>
      <trkpt lat="41.03053" lon="-6.756339">
        <ele>518.9</ele>
        <time>1970-01-01T00:47:34.000Z</time>
      </trkpt>
      <trkpt lat="41.030525" lon="-6.756326">
        <ele>518.9</ele>
        <time>1970-01-01T00:47:35.000Z</time>
      </trkpt>
      <trkpt lat="41.03052" lon="-6.756309">
        <ele>518.9</ele>
        <time>1970-01-01T00:47:36.000Z</time>
      </trkpt>
      <trkpt lat="41.03051" lon="-6.756295">
        <ele>518.9</ele>
        <time>1970-01-01T00:47:37.000Z</time>
      </trkpt>
      <trkpt lat="41.0305" lon="-6.756288">
        <ele>519.1</ele>
        <time>1970-01-01T00:47:38.000Z</time>
      </trkpt>
      <trkpt lat="41.03049" lon="-6.756293">
        <ele>518.8</ele>
        <time>1970-01-01T00:47:39.000Z</time>
      </trkpt>
      <trkpt lat="41.030483" lon="-6.756302">
        <ele>518.7</ele>
        <time>1970-01-01T00:47:40.000Z</time>
      </trkpt>
      <trkpt lat="41.030478" lon="-6.756308">
        <ele>518.5</ele>
        <time>1970-01-01T00:47:41.000Z</time>
      </trkpt>
      <trkpt lat="41.030475" lon="-6.756308">
        <ele>518.5</ele>
        <time>1970-01-01T00:47:42.000Z</time>
      </trkpt>
      <trkpt lat="41.030474" lon="-6.756307">
        <ele>518.5</ele>
        <time>1970-01-01T00:47:43.000Z</time>
      </trkpt>
      <trkpt lat="41.030474" lon="-6.756308">
        <ele>518.4</ele>
        <time>1970-01-01T00:47:44.000Z</time>
      </trkpt>
      <trkpt lat="41.030474" lon="-6.756309">
        <ele>518.4</ele>
        <time>1970-01-01T00:47:45.000Z</time>
      </trkpt>
      <trkpt lat="41.030474" lon="-6.756309">
        <ele>518.4</ele>
        <time>1970-01-01T00:47:46.000Z</time>
      </trkpt>
      <trkpt lat="41.030474" lon="-6.756309">
        <ele>518.4</ele>
        <time>1970-01-01T00:47:47.000Z</time>
      </trkpt>
      <trkpt lat="41.030473" lon="-6.756309">
        <ele>518.4</ele>
        <time>1970-01-01T00:47:48.000Z</time>
      </trkpt>
      <trkpt lat="41.030467" lon="-6.756338">
        <ele>518</ele>
        <time>1970-01-01T00:47:49.000Z</time>
      </trkpt>
      <trkpt lat="41.030468" lon="-6.756343">
        <ele>517.9</ele>
        <time>1970-01-01T00:47:50.000Z</time>
      </trkpt>
      <trkpt lat="41.030467" lon="-6.756349">
        <ele>517.9</ele>
        <time>1970-01-01T00:48:11.000Z</time>
      </trkpt>
      <trkpt lat="41.030468" lon="-6.756355">
        <ele>517.8</ele>
        <time>1970-01-01T00:48:12.000Z</time>
      </trkpt>
      <trkpt lat="41.030468" lon="-6.756361">
        <ele>517.7</ele>
        <time>1970-01-01T00:48:13.000Z</time>
      </trkpt>
      <trkpt lat="41.030469" lon="-6.756367">
        <ele>517.6</ele>
        <time>1970-01-01T00:48:14.000Z</time>
      </trkpt>
      <trkpt lat="41.030471" lon="-6.756375">
        <ele>517.5</ele>
        <time>1970-01-01T00:48:15.000Z</time>
      </trkpt>
      <trkpt lat="41.030474" lon="-6.756384">
        <ele>517.4</ele>
        <time>1970-01-01T00:48:16.000Z</time>
      </trkpt>
      <trkpt lat="41.030477" lon="-6.756398">
        <ele>517.2</ele>
        <time>1970-01-01T00:48:17.000Z</time>
      </trkpt>
      <trkpt lat="41.03048" lon="-6.756416">
        <ele>516.9</ele>
        <time>1970-01-01T00:48:18.000Z</time>
      </trkpt>
      <trkpt lat="41.030485" lon="-6.756445">
        <ele>516.5</ele>
        <time>1970-01-01T00:48:19.000Z</time>
      </trkpt>
      <trkpt lat="41.030496" lon="-6.756487">
        <ele>515.9</ele>
        <time>1970-01-01T00:48:20.000Z</time>
      </trkpt>
      <trkpt lat="41.030519" lon="-6.756543">
        <ele>515.1</ele>
        <time>1970-01-01T00:48:21.000Z</time>
      </trkpt>
      <trkpt lat="41.03055" lon="-6.756604">
        <ele>514.1</ele>
        <time>1970-01-01T00:48:22.000Z</time>
      </trkpt>
      <trkpt lat="41.030588" lon="-6.756672">
        <ele>512.9</ele>
        <time>1970-01-01T00:48:23.000Z</time>
      </trkpt>
      <trkpt lat="41.030634" lon="-6.756741">
        <ele>511.7</ele>
        <time>1970-01-01T00:48:24.000Z</time>
      </trkpt>
      <trkpt lat="41.030688" lon="-6.756811">
        <ele>510.3</ele>
        <time>1970-01-01T00:48:25.000Z</time>
      </trkpt>
      <trkpt lat="41.030742" lon="-6.756876">
        <ele>509</ele>
        <time>1970-01-01T00:48:26.000Z</time>
      </trkpt>
      <trkpt lat="41.030793" lon="-6.756938">
        <ele>507.8</ele>
        <time>1970-01-01T00:48:27.000Z</time>
      </trkpt>
      <trkpt lat="41.03084" lon="-6.756995">
        <ele>506.7</ele>
        <time>1970-01-01T00:48:28.000Z</time>
      </trkpt>
      <trkpt lat="41.030879" lon="-6.757042">
        <ele>505.7</ele>
        <time>1970-01-01T00:48:29.000Z</time>
      </trkpt>
      <trkpt lat="41.03091" lon="-6.757079">
        <ele>505</ele>
        <time>1970-01-01T00:48:30.000Z</time>
      </trkpt>
      <trkpt lat="41.030936" lon="-6.757105">
        <ele>504.4</ele>
        <time>1970-01-01T00:48:31.000Z</time>
      </trkpt>
      <trkpt lat="41.030956" lon="-6.757128">
        <ele>503.9</ele>
        <time>1970-01-01T00:48:32.000Z</time>
      </trkpt>
      <trkpt lat="41.030968" lon="-6.75715">
        <ele>503.6</ele>
        <time>1970-01-01T00:48:33.000Z</time>
      </trkpt>
      <trkpt lat="41.030969" lon="-6.757169">
        <ele>503.3</ele>
        <time>1970-01-01T00:48:34.000Z</time>
      </trkpt>
      <trkpt lat="41.030957" lon="-6.757182">
        <ele>503</ele>
        <time>1970-01-01T00:48:35.000Z</time>
      </trkpt>
      <trkpt lat="41.030937" lon="-6.757186">
        <ele>502.7</ele>
        <time>1970-01-01T00:48:36.000Z</time>
      </trkpt>
      <trkpt lat="41.030908" lon="-6.757182">
        <ele>502.2</ele>
        <time>1970-01-01T00:48:37.000Z</time>
      </trkpt>
      <trkpt lat="41.030873" lon="-6.757169">
        <ele>501.5</ele>
        <time>1970-01-01T00:48:38.000Z</time>
      </trkpt>
      <trkpt lat="41.030828" lon="-6.757153">
        <ele>500.7</ele>
        <time>1970-01-01T00:48:39.000Z</time>
      </trkpt>
      <trkpt lat="41.030779" lon="-6.757135">
        <ele>499.8</ele>
        <time>1970-01-01T00:48:40.000Z</time>
      </trkpt>
      <trkpt lat="41.030725" lon="-6.757119">
        <ele>498.8</ele>
        <time>1970-01-01T00:48:41.000Z</time>
      </trkpt>
      <trkpt lat="41.030669" lon="-6.757104">
        <ele>497.8</ele>
        <time>1970-01-01T00:48:42.000Z</time>
      </trkpt>
      <trkpt lat="41.030609" lon="-6.75709">
        <ele>496.7</ele>
        <time>1970-01-01T00:48:43.000Z</time>
      </trkpt>
      <trkpt lat="41.03055" lon="-6.757079">
        <ele>495.6</ele>
        <time>1970-01-01T00:48:44.000Z</time>
      </trkpt>
      <trkpt lat="41.030491" lon="-6.757072">
        <ele>494.6</ele>
        <time>1970-01-01T00:48:45.000Z</time>
      </trkpt>
      <trkpt lat="41.03043" lon="-6.757068">
        <ele>493.5</ele>
        <time>1970-01-01T00:48:46.000Z</time>
      </trkpt>
      <trkpt lat="41.030369" lon="-6.757064">
        <ele>492.4</ele>
        <time>1970-01-01T00:48:47.000Z</time>
      </trkpt>
      <trkpt lat="41.030307" lon="-6.75706">
        <ele>491.3</ele>
        <time>1970-01-01T00:48:48.000Z</time>
      </trkpt>
      <trkpt lat="41.030246" lon="-6.757056">
        <ele>490.2</ele>
        <time>1970-01-01T00:48:49.000Z</time>
      </trkpt>
      <trkpt lat="41.030186" lon="-6.757048">
        <ele>489.1</ele>
        <time>1970-01-01T00:48:50.000Z</time>
      </trkpt>
      <trkpt lat="41.030126" lon="-6.757036">
        <ele>488</ele>
        <time>1970-01-01T00:48:51.000Z</time>
      </trkpt>
      <trkpt lat="41.030067" lon="-6.757016">
        <ele>486.9</ele>
        <time>1970-01-01T00:48:52.000Z</time>
      </trkpt>
      <trkpt lat="41.030007" lon="-6.756989">
        <ele>485.8</ele>
        <time>1970-01-01T00:48:53.000Z</time>
      </trkpt>
      <trkpt lat="41.029947" lon="-6.756955">
        <ele>484.6</ele>
        <time>1970-01-01T00:48:54.000Z</time>
      </trkpt>
      <trkpt lat="41.029887" lon="-6.756917">
        <ele>483.5</ele>
        <time>1970-01-01T00:48:55.000Z</time>
      </trkpt>
      <trkpt lat="41.029827" lon="-6.756874">
        <ele>482.2</ele>
        <time>1970-01-01T00:48:56.000Z</time>
      </trkpt>
      <trkpt lat="41.029768" lon="-6.756827">
        <ele>481</ele>
        <time>1970-01-01T00:48:57.000Z</time>
      </trkpt>
      <trkpt lat="41.029711" lon="-6.756778">
        <ele>479.8</ele>
        <time>1970-01-01T00:48:58.000Z</time>
      </trkpt>
      <trkpt lat="41.029657" lon="-6.75673">
        <ele>478.6</ele>
        <time>1970-01-01T00:48:59.000Z</time>
      </trkpt>
      <trkpt lat="41.029604" lon="-6.756684">
        <ele>477.5</ele>
        <time>1970-01-01T00:49:00.000Z</time>
      </trkpt>
      <trkpt lat="41.029553" lon="-6.756639">
        <ele>476.4</ele>
        <time>1970-01-01T00:49:01.000Z</time>
      </trkpt>
      <trkpt lat="41.029504" lon="-6.756593">
        <ele>475.3</ele>
        <time>1970-01-01T00:49:02.000Z</time>
      </trkpt>
      <trkpt lat="41.029458" lon="-6.756546">
        <ele>474.3</ele>
        <time>1970-01-01T00:49:03.000Z</time>
      </trkpt>
      <trkpt lat="41.029416" lon="-6.756501">
        <ele>473.3</ele>
        <time>1970-01-01T00:49:04.000Z</time>
      </trkpt>
      <trkpt lat="41.029379" lon="-6.756457">
        <ele>472.5</ele>
        <time>1970-01-01T00:49:05.000Z</time>
      </trkpt>
      <trkpt lat="41.029348" lon="-6.756417">
        <ele>471.7</ele>
        <time>1970-01-01T00:49:06.000Z</time>
      </trkpt>
      <trkpt lat="41.029321" lon="-6.756375">
        <ele>470.9</ele>
        <time>1970-01-01T00:49:07.000Z</time>
      </trkpt>
      <trkpt lat="41.029297" lon="-6.75633">
        <ele>470.2</ele>
        <time>1970-01-01T00:49:08.000Z</time>
      </trkpt>
      <trkpt lat="41.029276" lon="-6.75628">
        <ele>469.4</ele>
        <time>1970-01-01T00:49:09.000Z</time>
      </trkpt>
      <trkpt lat="41.02926" lon="-6.756229">
        <ele>468.7</ele>
        <time>1970-01-01T00:49:10.000Z</time>
      </trkpt>
      <trkpt lat="41.029249" lon="-6.756181">
        <ele>468</ele>
        <time>1970-01-01T00:49:11.000Z</time>
      </trkpt>
      <trkpt lat="41.029235" lon="-6.756142">
        <ele>467.4</ele>
        <time>1970-01-01T00:49:12.000Z</time>
      </trkpt>
      <trkpt lat="41.029214" lon="-6.756121">
        <ele>467</ele>
        <time>1970-01-01T00:49:13.000Z</time>
      </trkpt>
      <trkpt lat="41.029182" lon="-6.756116">
        <ele>466.4</ele>
        <time>1970-01-01T00:49:14.000Z</time>
      </trkpt>
      <trkpt lat="41.029144" lon="-6.756125">
        <ele>465.7</ele>
        <time>1970-01-01T00:49:15.000Z</time>
      </trkpt>
      <trkpt lat="41.029098" lon="-6.756138">
        <ele>464.9</ele>
        <time>1970-01-01T00:49:16.000Z</time>
      </trkpt>
      <trkpt lat="41.029053" lon="-6.756158">
        <ele>464</ele>
        <time>1970-01-01T00:49:17.000Z</time>
      </trkpt>
      <trkpt lat="41.029011" lon="-6.756186">
        <ele>463.2</ele>
        <time>1970-01-01T00:49:18.000Z</time>
      </trkpt>
      <trkpt lat="41.028978" lon="-6.756227">
        <ele>462.4</ele>
        <time>1970-01-01T00:49:19.000Z</time>
      </trkpt>
      <trkpt lat="41.028957" lon="-6.75628">
        <ele>461.6</ele>
        <time>1970-01-01T00:49:20.000Z</time>
      </trkpt>
      <trkpt lat="41.028943" lon="-6.756343">
        <ele>460.7</ele>
        <time>1970-01-01T00:49:21.000Z</time>
      </trkpt>
      <trkpt lat="41.028944" lon="-6.756413">
        <ele>459.7</ele>
        <time>1970-01-01T00:49:22.000Z</time>
      </trkpt>
      <trkpt lat="41.028957" lon="-6.756491">
        <ele>458.7</ele>
        <time>1970-01-01T00:49:23.000Z</time>
      </trkpt>
      <trkpt lat="41.028978" lon="-6.75658">
        <ele>457.4</ele>
        <time>1970-01-01T00:49:24.000Z</time>
      </trkpt>
      <trkpt lat="41.029002" lon="-6.756673">
        <ele>456.1</ele>
        <time>1970-01-01T00:49:25.000Z</time>
      </trkpt>
      <trkpt lat="41.029026" lon="-6.756771">
        <ele>454.7</ele>
        <time>1970-01-01T00:49:26.000Z</time>
      </trkpt>
      <trkpt lat="41.029056" lon="-6.756874">
        <ele>454</ele>
        <time>1970-01-01T00:49:27.000Z</time>
      </trkpt>
      <trkpt lat="41.029086" lon="-6.756984">
        <ele>454.3</ele>
        <time>1970-01-01T00:49:28.000Z</time>
      </trkpt>
      <trkpt lat="41.029115" lon="-6.757095">
        <ele>454.7</ele>
        <time>1970-01-01T00:49:29.000Z</time>
      </trkpt>
      <trkpt lat="41.02914" lon="-6.757205">
        <ele>455</ele>
        <time>1970-01-01T00:49:30.000Z</time>
      </trkpt>
      <trkpt lat="41.029163" lon="-6.757312">
        <ele>455.3</ele>
        <time>1970-01-01T00:49:31.000Z</time>
      </trkpt>
      <trkpt lat="41.029189" lon="-6.75742">
        <ele>455.6</ele>
        <time>1970-01-01T00:49:32.000Z</time>
      </trkpt>
      <trkpt lat="41.029219" lon="-6.757529">
        <ele>456</ele>
        <time>1970-01-01T00:49:33.000Z</time>
      </trkpt>
      <trkpt lat="41.029253" lon="-6.757638">
        <ele>456.3</ele>
        <time>1970-01-01T00:49:34.000Z</time>
      </trkpt>
      <trkpt lat="41.029291" lon="-6.757747">
        <ele>456.6</ele>
        <time>1970-01-01T00:49:35.000Z</time>
      </trkpt>
      <trkpt lat="41.02933" lon="-6.757856">
        <ele>457</ele>
        <time>1970-01-01T00:49:36.000Z</time>
      </trkpt>
      <trkpt lat="41.029369" lon="-6.757964">
        <ele>457.3</ele>
        <time>1970-01-01T00:49:37.000Z</time>
      </trkpt>
      <trkpt lat="41.029406" lon="-6.758068">
        <ele>457.6</ele>
        <time>1970-01-01T00:49:38.000Z</time>
      </trkpt>
      <trkpt lat="41.029443" lon="-6.758166">
        <ele>458</ele>
        <time>1970-01-01T00:49:39.000Z</time>
      </trkpt>
      <trkpt lat="41.029484" lon="-6.758258">
        <ele>458.3</ele>
        <time>1970-01-01T00:49:40.000Z</time>
      </trkpt>
      <trkpt lat="41.029532" lon="-6.758341">
        <ele>458.6</ele>
        <time>1970-01-01T00:49:41.000Z</time>
      </trkpt>
      <trkpt lat="41.029587" lon="-6.758414">
        <ele>458.8</ele>
        <time>1970-01-01T00:49:42.000Z</time>
      </trkpt>
      <trkpt lat="41.029648" lon="-6.758482">
        <ele>459.1</ele>
        <time>1970-01-01T00:49:43.000Z</time>
      </trkpt>
      <trkpt lat="41.029713" lon="-6.758549">
        <ele>459.4</ele>
        <time>1970-01-01T00:49:44.000Z</time>
      </trkpt>
      <trkpt lat="41.029779" lon="-6.758616">
        <ele>459.8</ele>
        <time>1970-01-01T00:49:45.000Z</time>
      </trkpt>
      <trkpt lat="41.029844" lon="-6.758684">
        <ele>460.1</ele>
        <time>1970-01-01T00:49:46.000Z</time>
      </trkpt>
      <trkpt lat="41.029907" lon="-6.758752">
        <ele>460.4</ele>
        <time>1970-01-01T00:49:47.000Z</time>
      </trkpt>
      <trkpt lat="41.029966" lon="-6.75882">
        <ele>460.7</ele>
        <time>1970-01-01T00:49:48.000Z</time>
      </trkpt>
      <trkpt lat="41.030018" lon="-6.758892">
        <ele>460.9</ele>
        <time>1970-01-01T00:49:49.000Z</time>
      </trkpt>
      <trkpt lat="41.03006" lon="-6.758968">
        <ele>461.2</ele>
        <time>1970-01-01T00:49:50.000Z</time>
      </trkpt>
      <trkpt lat="41.030093" lon="-6.759049">
        <ele>461.5</ele>
        <time>1970-01-01T00:49:51.000Z</time>
      </trkpt>
      <trkpt lat="41.030123" lon="-6.759134">
        <ele>461.7</ele>
        <time>1970-01-01T00:49:52.000Z</time>
      </trkpt>
      <trkpt lat="41.030155" lon="-6.759219">
        <ele>462</ele>
        <time>1970-01-01T00:49:53.000Z</time>
      </trkpt>
      <trkpt lat="41.030197" lon="-6.7593">
        <ele>462.3</ele>
        <time>1970-01-01T00:49:54.000Z</time>
      </trkpt>
      <trkpt lat="41.030244" lon="-6.759378">
        <ele>462.6</ele>
        <time>1970-01-01T00:49:55.000Z</time>
      </trkpt>
      <trkpt lat="41.030298" lon="-6.759452">
        <ele>462.9</ele>
        <time>1970-01-01T00:49:56.000Z</time>
      </trkpt>
      <trkpt lat="41.030354" lon="-6.759525">
        <ele>463.2</ele>
        <time>1970-01-01T00:49:57.000Z</time>
      </trkpt>
      <trkpt lat="41.030411" lon="-6.759594">
        <ele>463.4</ele>
        <time>1970-01-01T00:49:58.000Z</time>
      </trkpt>
      <trkpt lat="41.030466" lon="-6.759661">
        <ele>463.7</ele>
        <time>1970-01-01T00:49:59.000Z</time>
      </trkpt>
      <trkpt lat="41.030515" lon="-6.759731">
        <ele>464</ele>
        <time>1970-01-01T00:50:00.000Z</time>
      </trkpt>
      <trkpt lat="41.030556" lon="-6.759801">
        <ele>464.2</ele>
        <time>1970-01-01T00:50:01.000Z</time>
      </trkpt>
      <trkpt lat="41.030586" lon="-6.759869">
        <ele>464.5</ele>
        <time>1970-01-01T00:50:02.000Z</time>
      </trkpt>
      <trkpt lat="41.030598" lon="-6.75993">
        <ele>464.6</ele>
        <time>1970-01-01T00:50:03.000Z</time>
      </trkpt>
      <trkpt lat="41.030596" lon="-6.759986">
        <ele>464.8</ele>
        <time>1970-01-01T00:50:04.000Z</time>
      </trkpt>
      <trkpt lat="41.030581" lon="-6.760038">
        <ele>465</ele>
        <time>1970-01-01T00:50:05.000Z</time>
      </trkpt>
      <trkpt lat="41.030563" lon="-6.760086">
        <ele>465.1</ele>
        <time>1970-01-01T00:50:06.000Z</time>
      </trkpt>
      <trkpt lat="41.030543" lon="-6.760138">
        <ele>465.3</ele>
        <time>1970-01-01T00:50:07.000Z</time>
      </trkpt>
      <trkpt lat="41.030527" lon="-6.760194">
        <ele>465.4</ele>
        <time>1970-01-01T00:50:08.000Z</time>
      </trkpt>
      <trkpt lat="41.030518" lon="-6.760254">
        <ele>465.6</ele>
        <time>1970-01-01T00:50:09.000Z</time>
      </trkpt>
      <trkpt lat="41.030531" lon="-6.7603">
        <ele>465.8</ele>
        <time>1970-01-01T00:50:10.000Z</time>
      </trkpt>
      <trkpt lat="41.030555" lon="-6.760347">
        <ele>465.9</ele>
        <time>1970-01-01T00:50:11.000Z</time>
      </trkpt>
      <trkpt lat="41.030588" lon="-6.760391">
        <ele>466.1</ele>
        <time>1970-01-01T00:50:12.000Z</time>
      </trkpt>
      <trkpt lat="41.030613" lon="-6.760445">
        <ele>466.3</ele>
        <time>1970-01-01T00:50:13.000Z</time>
      </trkpt>
      <trkpt lat="41.03064" lon="-6.760494">
        <ele>466.4</ele>
        <time>1970-01-01T00:50:14.000Z</time>
      </trkpt>
      <trkpt lat="41.030666" lon="-6.760541">
        <ele>466.6</ele>
        <time>1970-01-01T00:50:15.000Z</time>
      </trkpt>
      <trkpt lat="41.030693" lon="-6.760585">
        <ele>466.8</ele>
        <time>1970-01-01T00:50:16.000Z</time>
      </trkpt>
      <trkpt lat="41.030719" lon="-6.760626">
        <ele>466.9</ele>
        <time>1970-01-01T00:50:17.000Z</time>
      </trkpt>
      <trkpt lat="41.030744" lon="-6.760667">
        <ele>467.1</ele>
        <time>1970-01-01T00:50:18.000Z</time>
      </trkpt>
      <trkpt lat="41.030765" lon="-6.760709">
        <ele>467.2</ele>
        <time>1970-01-01T00:50:19.000Z</time>
      </trkpt>
      <trkpt lat="41.030784" lon="-6.76075">
        <ele>467.3</ele>
        <time>1970-01-01T00:50:20.000Z</time>
      </trkpt>
      <trkpt lat="41.0308" lon="-6.760792">
        <ele>467.5</ele>
        <time>1970-01-01T00:50:21.000Z</time>
      </trkpt>
      <trkpt lat="41.030813" lon="-6.760834">
        <ele>467.6</ele>
        <time>1970-01-01T00:50:22.000Z</time>
      </trkpt>
      <trkpt lat="41.030825" lon="-6.760877">
        <ele>467.7</ele>
        <time>1970-01-01T00:50:23.000Z</time>
      </trkpt>
      <trkpt lat="41.030837" lon="-6.760922">
        <ele>467.9</ele>
        <time>1970-01-01T00:50:24.000Z</time>
      </trkpt>
      <trkpt lat="41.030849" lon="-6.760967">
        <ele>468</ele>
        <time>1970-01-01T00:50:25.000Z</time>
      </trkpt>
      <trkpt lat="41.03086" lon="-6.76101">
        <ele>468.1</ele>
        <time>1970-01-01T00:50:26.000Z</time>
      </trkpt>
      <trkpt lat="41.030874" lon="-6.761055">
        <ele>468.3</ele>
        <time>1970-01-01T00:50:27.000Z</time>
      </trkpt>
      <trkpt lat="41.030887" lon="-6.7611">
        <ele>468.4</ele>
        <time>1970-01-01T00:50:28.000Z</time>
      </trkpt>
      <trkpt lat="41.0309" lon="-6.761147">
        <ele>468.5</ele>
        <time>1970-01-01T00:50:29.000Z</time>
      </trkpt>
      <trkpt lat="41.030911" lon="-6.761194">
        <ele>468.7</ele>
        <time>1970-01-01T00:50:30.000Z</time>
      </trkpt>
      <trkpt lat="41.030922" lon="-6.761241">
        <ele>468.8</ele>
        <time>1970-01-01T00:50:31.000Z</time>
      </trkpt>
      <trkpt lat="41.030932" lon="-6.761287">
        <ele>469</ele>
        <time>1970-01-01T00:50:32.000Z</time>
      </trkpt>
      <trkpt lat="41.030942" lon="-6.761332">
        <ele>469.1</ele>
        <time>1970-01-01T00:50:33.000Z</time>
      </trkpt>
      <trkpt lat="41.030953" lon="-6.761377">
        <ele>469.2</ele>
        <time>1970-01-01T00:50:34.000Z</time>
      </trkpt>
      <trkpt lat="41.030964" lon="-6.761421">
        <ele>469.4</ele>
        <time>1970-01-01T00:50:35.000Z</time>
      </trkpt>
      <trkpt lat="41.030975" lon="-6.761465">
        <ele>469.5</ele>
        <time>1970-01-01T00:50:36.000Z</time>
      </trkpt>
      <trkpt lat="41.030988" lon="-6.761509">
        <ele>469.6</ele>
        <time>1970-01-01T00:50:37.000Z</time>
      </trkpt>
      <trkpt lat="41.031" lon="-6.761552">
        <ele>469.8</ele>
        <time>1970-01-01T00:50:38.000Z</time>
      </trkpt>
      <trkpt lat="41.031012" lon="-6.761595">
        <ele>469.9</ele>
        <time>1970-01-01T00:50:39.000Z</time>
      </trkpt>
      <trkpt lat="41.031019" lon="-6.761635">
        <ele>470</ele>
        <time>1970-01-01T00:50:40.000Z</time>
      </trkpt>
      <trkpt lat="41.031023" lon="-6.761673">
        <ele>470.1</ele>
        <time>1970-01-01T00:50:41.000Z</time>
      </trkpt>
      <trkpt lat="41.031023" lon="-6.761712">
        <ele>470.2</ele>
        <time>1970-01-01T00:50:42.000Z</time>
      </trkpt>
      <trkpt lat="41.031023" lon="-6.761751">
        <ele>470.3</ele>
        <time>1970-01-01T00:50:43.000Z</time>
      </trkpt>
      <trkpt lat="41.031021" lon="-6.761789">
        <ele>470.4</ele>
        <time>1970-01-01T00:50:44.000Z</time>
      </trkpt>
      <trkpt lat="41.031015" lon="-6.761827">
        <ele>470.5</ele>
        <time>1970-01-01T00:50:45.000Z</time>
      </trkpt>
      <trkpt lat="41.031007" lon="-6.761864">
        <ele>470.7</ele>
        <time>1970-01-01T00:50:46.000Z</time>
      </trkpt>
      <trkpt lat="41.030995" lon="-6.761903">
        <ele>470.8</ele>
        <time>1970-01-01T00:50:47.000Z</time>
      </trkpt>
      <trkpt lat="41.030981" lon="-6.761939">
        <ele>470.9</ele>
        <time>1970-01-01T00:50:48.000Z</time>
      </trkpt>
      <trkpt lat="41.030966" lon="-6.761974">
        <ele>471</ele>
        <time>1970-01-01T00:50:49.000Z</time>
      </trkpt>
      <trkpt lat="41.03095" lon="-6.762006">
        <ele>471.1</ele>
        <time>1970-01-01T00:50:50.000Z</time>
      </trkpt>
      <trkpt lat="41.030934" lon="-6.762037">
        <ele>471.2</ele>
        <time>1970-01-01T00:50:51.000Z</time>
      </trkpt>
      <trkpt lat="41.030919" lon="-6.762066">
        <ele>471.3</ele>
        <time>1970-01-01T00:50:52.000Z</time>
      </trkpt>
      <trkpt lat="41.030904" lon="-6.762095">
        <ele>471.4</ele>
        <time>1970-01-01T00:50:53.000Z</time>
      </trkpt>
      <trkpt lat="41.030889" lon="-6.762125">
        <ele>471.5</ele>
        <time>1970-01-01T00:50:54.000Z</time>
      </trkpt>
      <trkpt lat="41.030874" lon="-6.762155">
        <ele>471.6</ele>
        <time>1970-01-01T00:50:55.000Z</time>
      </trkpt>
      <trkpt lat="41.030858" lon="-6.762187">
        <ele>471.7</ele>
        <time>1970-01-01T00:50:56.000Z</time>
      </trkpt>
      <trkpt lat="41.030842" lon="-6.762219">
        <ele>471.8</ele>
        <time>1970-01-01T00:50:57.000Z</time>
      </trkpt>
      <trkpt lat="41.030826" lon="-6.762252">
        <ele>471.9</ele>
        <time>1970-01-01T00:50:58.000Z</time>
      </trkpt>
      <trkpt lat="41.030811" lon="-6.762285">
        <ele>472.1</ele>
        <time>1970-01-01T00:50:59.000Z</time>
      </trkpt>
      <trkpt lat="41.030798" lon="-6.762318">
        <ele>472.2</ele>
        <time>1970-01-01T00:51:00.000Z</time>
      </trkpt>
      <trkpt lat="41.030785" lon="-6.762351">
        <ele>472.3</ele>
        <time>1970-01-01T00:51:01.000Z</time>
      </trkpt>
      <trkpt lat="41.030774" lon="-6.762384">
        <ele>472.4</ele>
        <time>1970-01-01T00:51:02.000Z</time>
      </trkpt>
      <trkpt lat="41.030764" lon="-6.762418">
        <ele>472.5</ele>
        <time>1970-01-01T00:51:03.000Z</time>
      </trkpt>
      <trkpt lat="41.030756" lon="-6.762453">
        <ele>472.6</ele>
        <time>1970-01-01T00:51:04.000Z</time>
      </trkpt>
      <trkpt lat="41.030749" lon="-6.762487">
        <ele>472.7</ele>
        <time>1970-01-01T00:51:05.000Z</time>
      </trkpt>
      <trkpt lat="41.030743" lon="-6.762522">
        <ele>472.8</ele>
        <time>1970-01-01T00:51:06.000Z</time>
      </trkpt>
      <trkpt lat="41.030738" lon="-6.762556">
        <ele>472.9</ele>
        <time>1970-01-01T00:51:07.000Z</time>
      </trkpt>
      <trkpt lat="41.030733" lon="-6.762589">
        <ele>473</ele>
        <time>1970-01-01T00:51:08.000Z</time>
      </trkpt>
      <trkpt lat="41.030726" lon="-6.762623">
        <ele>473.1</ele>
        <time>1970-01-01T00:51:09.000Z</time>
      </trkpt>
      <trkpt lat="41.030719" lon="-6.762657">
        <ele>473.2</ele>
        <time>1970-01-01T00:51:10.000Z</time>
      </trkpt>
      <trkpt lat="41.030713" lon="-6.762691">
        <ele>473.3</ele>
        <time>1970-01-01T00:51:11.000Z</time>
      </trkpt>
      <trkpt lat="41.030706" lon="-6.762726">
        <ele>473.4</ele>
        <time>1970-01-01T00:51:12.000Z</time>
      </trkpt>
      <trkpt lat="41.0307" lon="-6.762761">
        <ele>473.5</ele>
        <time>1970-01-01T00:51:13.000Z</time>
      </trkpt>
      <trkpt lat="41.030695" lon="-6.762793">
        <ele>473.6</ele>
        <time>1970-01-01T00:51:14.000Z</time>
      </trkpt>
      <trkpt lat="41.03069" lon="-6.762823">
        <ele>473.6</ele>
        <time>1970-01-01T00:51:15.000Z</time>
      </trkpt>
      <trkpt lat="41.030685" lon="-6.762852">
        <ele>473.7</ele>
        <time>1970-01-01T00:51:16.000Z</time>
      </trkpt>
      <trkpt lat="41.03068" lon="-6.762881">
        <ele>473.8</ele>
        <time>1970-01-01T00:51:17.000Z</time>
      </trkpt>
      <trkpt lat="41.030676" lon="-6.762911">
        <ele>473.9</ele>
        <time>1970-01-01T00:51:18.000Z</time>
      </trkpt>
      <trkpt lat="41.030673" lon="-6.762941">
        <ele>474</ele>
        <time>1970-01-01T00:51:19.000Z</time>
      </trkpt>
      <trkpt lat="41.03067" lon="-6.76297">
        <ele>474.1</ele>
        <time>1970-01-01T00:51:20.000Z</time>
      </trkpt>
      <trkpt lat="41.030669" lon="-6.762999">
        <ele>474.1</ele>
        <time>1970-01-01T00:51:21.000Z</time>
      </trkpt>
      <trkpt lat="41.030668" lon="-6.763028">
        <ele>474.2</ele>
        <time>1970-01-01T00:51:22.000Z</time>
      </trkpt>
      <trkpt lat="41.030666" lon="-6.763057">
        <ele>474.3</ele>
        <time>1970-01-01T00:51:23.000Z</time>
      </trkpt>
      <trkpt lat="41.030664" lon="-6.763088">
        <ele>474.4</ele>
        <time>1970-01-01T00:51:24.000Z</time>
      </trkpt>
      <trkpt lat="41.030664" lon="-6.763118">
        <ele>474.5</ele>
        <time>1970-01-01T00:51:25.000Z</time>
      </trkpt>
      <trkpt lat="41.030663" lon="-6.763147">
        <ele>474.6</ele>
        <time>1970-01-01T00:51:26.000Z</time>
      </trkpt>
      <trkpt lat="41.030662" lon="-6.763175">
        <ele>474.6</ele>
        <time>1970-01-01T00:51:27.000Z</time>
      </trkpt>
      <trkpt lat="41.030659" lon="-6.763201">
        <ele>474.7</ele>
        <time>1970-01-01T00:51:28.000Z</time>
      </trkpt>
      <trkpt lat="41.030655" lon="-6.763228">
        <ele>474.8</ele>
        <time>1970-01-01T00:51:29.000Z</time>
      </trkpt>
      <trkpt lat="41.030653" lon="-6.763254">
        <ele>474.9</ele>
        <time>1970-01-01T00:51:30.000Z</time>
      </trkpt>
      <trkpt lat="41.03065" lon="-6.763281">
        <ele>474.9</ele>
        <time>1970-01-01T00:51:31.000Z</time>
      </trkpt>
      <trkpt lat="41.030649" lon="-6.763307">
        <ele>475</ele>
        <time>1970-01-01T00:51:32.000Z</time>
      </trkpt>
      <trkpt lat="41.030646" lon="-6.763332">
        <ele>475.1</ele>
        <time>1970-01-01T00:51:33.000Z</time>
      </trkpt>
      <trkpt lat="41.030644" lon="-6.763356">
        <ele>475.2</ele>
        <time>1970-01-01T00:51:34.000Z</time>
      </trkpt>
      <trkpt lat="41.03064" lon="-6.76338">
        <ele>475.2</ele>
        <time>1970-01-01T00:51:35.000Z</time>
      </trkpt>
      <trkpt lat="41.030638" lon="-6.763406">
        <ele>475.3</ele>
        <time>1970-01-01T00:51:36.000Z</time>
      </trkpt>
      <trkpt lat="41.030637" lon="-6.763431">
        <ele>475.4</ele>
        <time>1970-01-01T00:51:37.000Z</time>
      </trkpt>
      <trkpt lat="41.030635" lon="-6.763457">
        <ele>475.4</ele>
        <time>1970-01-01T00:51:38.000Z</time>
      </trkpt>
      <trkpt lat="41.030633" lon="-6.763482">
        <ele>475.5</ele>
        <time>1970-01-01T00:51:39.000Z</time>
      </trkpt>
      <trkpt lat="41.030631" lon="-6.763508">
        <ele>475.6</ele>
        <time>1970-01-01T00:51:40.000Z</time>
      </trkpt>
      <trkpt lat="41.030627" lon="-6.763533">
        <ele>475.7</ele>
        <time>1970-01-01T00:51:41.000Z</time>
      </trkpt>
      <trkpt lat="41.030625" lon="-6.763558">
        <ele>475.7</ele>
        <time>1970-01-01T00:51:42.000Z</time>
      </trkpt>
      <trkpt lat="41.030622" lon="-6.763583">
        <ele>475.8</ele>
        <time>1970-01-01T00:51:43.000Z</time>
      </trkpt>
      <trkpt lat="41.03062" lon="-6.763609">
        <ele>475.9</ele>
        <time>1970-01-01T00:51:44.000Z</time>
      </trkpt>
      <trkpt lat="41.030619" lon="-6.763635">
        <ele>476</ele>
        <time>1970-01-01T00:51:45.000Z</time>
      </trkpt>
      <trkpt lat="41.030618" lon="-6.76366">
        <ele>476</ele>
        <time>1970-01-01T00:51:46.000Z</time>
      </trkpt>
      <trkpt lat="41.030618" lon="-6.763685">
        <ele>476.1</ele>
        <time>1970-01-01T00:51:47.000Z</time>
      </trkpt>
      <trkpt lat="41.030616" lon="-6.763709">
        <ele>476.2</ele>
        <time>1970-01-01T00:51:48.000Z</time>
      </trkpt>
      <trkpt lat="41.030614" lon="-6.763734">
        <ele>476.2</ele>
        <time>1970-01-01T00:51:49.000Z</time>
      </trkpt>
      <trkpt lat="41.030612" lon="-6.763758">
        <ele>476.3</ele>
        <time>1970-01-01T00:51:50.000Z</time>
      </trkpt>
      <trkpt lat="41.03061" lon="-6.763782">
        <ele>476.4</ele>
        <time>1970-01-01T00:51:51.000Z</time>
      </trkpt>
      <trkpt lat="41.030608" lon="-6.763805">
        <ele>476.4</ele>
        <time>1970-01-01T00:51:52.000Z</time>
      </trkpt>
      <trkpt lat="41.030606" lon="-6.763829">
        <ele>476.5</ele>
        <time>1970-01-01T00:51:53.000Z</time>
      </trkpt>
      <trkpt lat="41.030604" lon="-6.763855">
        <ele>476.6</ele>
        <time>1970-01-01T00:51:54.000Z</time>
      </trkpt>
      <trkpt lat="41.030603" lon="-6.763882">
        <ele>476.7</ele>
        <time>1970-01-01T00:51:55.000Z</time>
      </trkpt>
      <trkpt lat="41.030603" lon="-6.76391">
        <ele>476.7</ele>
        <time>1970-01-01T00:51:56.000Z</time>
      </trkpt>
      <trkpt lat="41.030605" lon="-6.763938">
        <ele>476.8</ele>
        <time>1970-01-01T00:51:57.000Z</time>
      </trkpt>
      <trkpt lat="41.030607" lon="-6.763965">
        <ele>476.9</ele>
        <time>1970-01-01T00:51:58.000Z</time>
      </trkpt>
      <trkpt lat="41.030607" lon="-6.763991">
        <ele>477</ele>
        <time>1970-01-01T00:51:59.000Z</time>
      </trkpt>
      <trkpt lat="41.030608" lon="-6.764016">
        <ele>477</ele>
        <time>1970-01-01T00:52:00.000Z</time>
      </trkpt>
      <trkpt lat="41.030607" lon="-6.76404">
        <ele>477.1</ele>
        <time>1970-01-01T00:52:01.000Z</time>
      </trkpt>
      <trkpt lat="41.030608" lon="-6.764065">
        <ele>477.2</ele>
        <time>1970-01-01T00:52:02.000Z</time>
      </trkpt>
      <trkpt lat="41.030609" lon="-6.76409">
        <ele>477.2</ele>
        <time>1970-01-01T00:52:03.000Z</time>
      </trkpt>
      <trkpt lat="41.03061" lon="-6.764113">
        <ele>477.3</ele>
        <time>1970-01-01T00:52:04.000Z</time>
      </trkpt>
      <trkpt lat="41.030612" lon="-6.764136">
        <ele>477.4</ele>
        <time>1970-01-01T00:52:05.000Z</time>
      </trkpt>
      <trkpt lat="41.030614" lon="-6.76416">
        <ele>477.4</ele>
        <time>1970-01-01T00:52:06.000Z</time>
      </trkpt>
      <trkpt lat="41.030617" lon="-6.764184">
        <ele>477.5</ele>
        <time>1970-01-01T00:52:07.000Z</time>
      </trkpt>
      <trkpt lat="41.03062" lon="-6.764207">
        <ele>477.6</ele>
        <time>1970-01-01T00:52:08.000Z</time>
      </trkpt>
      <trkpt lat="41.030623" lon="-6.764229">
        <ele>477.6</ele>
        <time>1970-01-01T00:52:09.000Z</time>
      </trkpt>
      <trkpt lat="41.030626" lon="-6.764251">
        <ele>477.7</ele>
        <time>1970-01-01T00:52:10.000Z</time>
      </trkpt>
      <trkpt lat="41.030629" lon="-6.764273">
        <ele>477.8</ele>
        <time>1970-01-01T00:52:11.000Z</time>
      </trkpt>
      <trkpt lat="41.030632" lon="-6.764295">
        <ele>477.8</ele>
        <time>1970-01-01T00:52:12.000Z</time>
      </trkpt>
      <trkpt lat="41.030635" lon="-6.764316">
        <ele>477.9</ele>
        <time>1970-01-01T00:52:13.000Z</time>
      </trkpt>
      <trkpt lat="41.030638" lon="-6.764337">
        <ele>478</ele>
        <time>1970-01-01T00:52:14.000Z</time>
      </trkpt>
      <trkpt lat="41.030641" lon="-6.764357">
        <ele>478</ele>
        <time>1970-01-01T00:52:15.000Z</time>
      </trkpt>
      <trkpt lat="41.030644" lon="-6.764379">
        <ele>478.1</ele>
        <time>1970-01-01T00:52:16.000Z</time>
      </trkpt>
      <trkpt lat="41.030648" lon="-6.764401">
        <ele>478.1</ele>
        <time>1970-01-01T00:52:17.000Z</time>
      </trkpt>
      <trkpt lat="41.030652" lon="-6.764424">
        <ele>478.2</ele>
        <time>1970-01-01T00:52:18.000Z</time>
      </trkpt>
      <trkpt lat="41.030658" lon="-6.764446">
        <ele>478.3</ele>
        <time>1970-01-01T00:52:19.000Z</time>
      </trkpt>
      <trkpt lat="41.030664" lon="-6.764469">
        <ele>478.3</ele>
        <time>1970-01-01T00:52:20.000Z</time>
      </trkpt>
      <trkpt lat="41.03067" lon="-6.76449">
        <ele>478.4</ele>
        <time>1970-01-01T00:52:21.000Z</time>
      </trkpt>
      <trkpt lat="41.030675" lon="-6.764512">
        <ele>478.5</ele>
        <time>1970-01-01T00:52:22.000Z</time>
      </trkpt>
      <trkpt lat="41.030681" lon="-6.764533">
        <ele>478.5</ele>
        <time>1970-01-01T00:52:23.000Z</time>
      </trkpt>
      <trkpt lat="41.030685" lon="-6.764554">
        <ele>478.6</ele>
        <time>1970-01-01T00:52:24.000Z</time>
      </trkpt>
      <trkpt lat="41.030691" lon="-6.764575">
        <ele>478.7</ele>
        <time>1970-01-01T00:52:25.000Z</time>
      </trkpt>
      <trkpt lat="41.030697" lon="-6.764597">
        <ele>478.7</ele>
        <time>1970-01-01T00:52:26.000Z</time>
      </trkpt>
      <trkpt lat="41.030704" lon="-6.76462">
        <ele>478.8</ele>
        <time>1970-01-01T00:52:27.000Z</time>
      </trkpt>
      <trkpt lat="41.030711" lon="-6.764641">
        <ele>478.9</ele>
        <time>1970-01-01T00:52:28.000Z</time>
      </trkpt>
      <trkpt lat="41.030718" lon="-6.76466">
        <ele>478.9</ele>
        <time>1970-01-01T00:52:29.000Z</time>
      </trkpt>
      <trkpt lat="41.030725" lon="-6.764679">
        <ele>479</ele>
        <time>1970-01-01T00:52:30.000Z</time>
      </trkpt>
      <trkpt lat="41.030732" lon="-6.764699">
        <ele>479</ele>
        <time>1970-01-01T00:52:31.000Z</time>
      </trkpt>
      <trkpt lat="41.030739" lon="-6.764721">
        <ele>479.1</ele>
        <time>1970-01-01T00:52:32.000Z</time>
      </trkpt>
      <trkpt lat="41.030746" lon="-6.764744">
        <ele>479.2</ele>
        <time>1970-01-01T00:52:33.000Z</time>
      </trkpt>
      <trkpt lat="41.030755" lon="-6.764766">
        <ele>479.2</ele>
        <time>1970-01-01T00:52:34.000Z</time>
      </trkpt>
      <trkpt lat="41.030765" lon="-6.764788">
        <ele>479.3</ele>
        <time>1970-01-01T00:52:35.000Z</time>
      </trkpt>
      <trkpt lat="41.030776" lon="-6.764812">
        <ele>479.4</ele>
        <time>1970-01-01T00:52:36.000Z</time>
      </trkpt>
      <trkpt lat="41.030787" lon="-6.764836">
        <ele>479.5</ele>
        <time>1970-01-01T00:52:37.000Z</time>
      </trkpt>
      <trkpt lat="41.030798" lon="-6.764861">
        <ele>479.6</ele>
        <time>1970-01-01T00:52:38.000Z</time>
      </trkpt>
      <trkpt lat="41.030809" lon="-6.764886">
        <ele>479.6</ele>
        <time>1970-01-01T00:52:39.000Z</time>
      </trkpt>
      <trkpt lat="41.030821" lon="-6.764912">
        <ele>479.7</ele>
        <time>1970-01-01T00:52:40.000Z</time>
      </trkpt>
      <trkpt lat="41.030834" lon="-6.76494">
        <ele>479.8</ele>
        <time>1970-01-01T00:52:41.000Z</time>
      </trkpt>
      <trkpt lat="41.030847" lon="-6.764969">
        <ele>479.9</ele>
        <time>1970-01-01T00:52:42.000Z</time>
      </trkpt>
      <trkpt lat="41.030861" lon="-6.764998">
        <ele>480</ele>
        <time>1970-01-01T00:52:43.000Z</time>
      </trkpt>
      <trkpt lat="41.030875" lon="-6.765026">
        <ele>480.1</ele>
        <time>1970-01-01T00:52:44.000Z</time>
      </trkpt>
      <trkpt lat="41.030888" lon="-6.765055">
        <ele>480.2</ele>
        <time>1970-01-01T00:52:45.000Z</time>
      </trkpt>
      <trkpt lat="41.0309" lon="-6.765083">
        <ele>480.3</ele>
        <time>1970-01-01T00:52:46.000Z</time>
      </trkpt>
      <trkpt lat="41.030911" lon="-6.765113">
        <ele>480.4</ele>
        <time>1970-01-01T00:52:47.000Z</time>
      </trkpt>
      <trkpt lat="41.030923" lon="-6.765144">
        <ele>480.5</ele>
        <time>1970-01-01T00:52:48.000Z</time>
      </trkpt>
      <trkpt lat="41.030935" lon="-6.765175">
        <ele>480.6</ele>
        <time>1970-01-01T00:52:49.000Z</time>
      </trkpt>
      <trkpt lat="41.030948" lon="-6.765208">
        <ele>480.7</ele>
        <time>1970-01-01T00:52:50.000Z</time>
      </trkpt>
      <trkpt lat="41.030961" lon="-6.765242">
        <ele>480.8</ele>
        <time>1970-01-01T00:52:51.000Z</time>
      </trkpt>
      <trkpt lat="41.030975" lon="-6.765277">
        <ele>480.9</ele>
        <time>1970-01-01T00:52:52.000Z</time>
      </trkpt>
      <trkpt lat="41.030988" lon="-6.765312">
        <ele>481</ele>
        <time>1970-01-01T00:52:53.000Z</time>
      </trkpt>
      <trkpt lat="41.031002" lon="-6.765346">
        <ele>481.1</ele>
        <time>1970-01-01T00:52:54.000Z</time>
      </trkpt>
      <trkpt lat="41.031015" lon="-6.76538">
        <ele>481.2</ele>
        <time>1970-01-01T00:52:55.000Z</time>
      </trkpt>
      <trkpt lat="41.031027" lon="-6.765414">
        <ele>481.3</ele>
        <time>1970-01-01T00:52:56.000Z</time>
      </trkpt>
      <trkpt lat="41.031039" lon="-6.765447">
        <ele>481.4</ele>
        <time>1970-01-01T00:52:57.000Z</time>
      </trkpt>
      <trkpt lat="41.031051" lon="-6.76548">
        <ele>481.5</ele>
        <time>1970-01-01T00:52:58.000Z</time>
      </trkpt>
      <trkpt lat="41.031063" lon="-6.765512">
        <ele>481.6</ele>
        <time>1970-01-01T00:52:59.000Z</time>
      </trkpt>
      <trkpt lat="41.031076" lon="-6.765545">
        <ele>481.8</ele>
        <time>1970-01-01T00:53:00.000Z</time>
      </trkpt>
      <trkpt lat="41.031088" lon="-6.765578">
        <ele>481.9</ele>
        <time>1970-01-01T00:53:01.000Z</time>
      </trkpt>
      <trkpt lat="41.0311" lon="-6.765613">
        <ele>482</ele>
        <time>1970-01-01T00:53:02.000Z</time>
      </trkpt>
      <trkpt lat="41.031113" lon="-6.765646">
        <ele>482.1</ele>
        <time>1970-01-01T00:53:03.000Z</time>
      </trkpt>
      <trkpt lat="41.031125" lon="-6.765679">
        <ele>482.2</ele>
        <time>1970-01-01T00:53:04.000Z</time>
      </trkpt>
      <trkpt lat="41.031137" lon="-6.765712">
        <ele>482.3</ele>
        <time>1970-01-01T00:53:05.000Z</time>
      </trkpt>
      <trkpt lat="41.031148" lon="-6.765744">
        <ele>482.4</ele>
        <time>1970-01-01T00:53:06.000Z</time>
      </trkpt>
      <trkpt lat="41.031158" lon="-6.765776">
        <ele>482.5</ele>
        <time>1970-01-01T00:53:07.000Z</time>
      </trkpt>
      <trkpt lat="41.031167" lon="-6.765808">
        <ele>482.6</ele>
        <time>1970-01-01T00:53:08.000Z</time>
      </trkpt>
      <trkpt lat="41.031176" lon="-6.76584">
        <ele>482.7</ele>
        <time>1970-01-01T00:53:09.000Z</time>
      </trkpt>
      <trkpt lat="41.031185" lon="-6.765874">
        <ele>482.8</ele>
        <time>1970-01-01T00:53:10.000Z</time>
      </trkpt>
      <trkpt lat="41.031192" lon="-6.76591">
        <ele>482.9</ele>
        <time>1970-01-01T00:53:11.000Z</time>
      </trkpt>
      <trkpt lat="41.031198" lon="-6.765946">
        <ele>483</ele>
        <time>1970-01-01T00:53:12.000Z</time>
      </trkpt>
      <trkpt lat="41.031204" lon="-6.765983">
        <ele>483.1</ele>
        <time>1970-01-01T00:53:13.000Z</time>
      </trkpt>
      <trkpt lat="41.03121" lon="-6.766023">
        <ele>483.2</ele>
        <time>1970-01-01T00:53:14.000Z</time>
      </trkpt>
      <trkpt lat="41.031215" lon="-6.766065">
        <ele>483.3</ele>
        <time>1970-01-01T00:53:15.000Z</time>
      </trkpt>
      <trkpt lat="41.031218" lon="-6.76611">
        <ele>483.4</ele>
        <time>1970-01-01T00:53:16.000Z</time>
      </trkpt>
      <trkpt lat="41.031221" lon="-6.766157">
        <ele>483.6</ele>
        <time>1970-01-01T00:53:17.000Z</time>
      </trkpt>
      <trkpt lat="41.031222" lon="-6.766205">
        <ele>483.7</ele>
        <time>1970-01-01T00:53:18.000Z</time>
      </trkpt>
      <trkpt lat="41.031223" lon="-6.766253">
        <ele>483.9</ele>
        <time>1970-01-01T00:53:19.000Z</time>
      </trkpt>
      <trkpt lat="41.031225" lon="-6.766302">
        <ele>484</ele>
        <time>1970-01-01T00:53:20.000Z</time>
      </trkpt>
      <trkpt lat="41.031226" lon="-6.76635">
        <ele>484.1</ele>
        <time>1970-01-01T00:53:21.000Z</time>
      </trkpt>
      <trkpt lat="41.031226" lon="-6.766397">
        <ele>484.3</ele>
        <time>1970-01-01T00:53:22.000Z</time>
      </trkpt>
      <trkpt lat="41.031224" lon="-6.766442">
        <ele>484.4</ele>
        <time>1970-01-01T00:53:23.000Z</time>
      </trkpt>
      <trkpt lat="41.031222" lon="-6.766486">
        <ele>484.5</ele>
        <time>1970-01-01T00:53:24.000Z</time>
      </trkpt>
      <trkpt lat="41.031219" lon="-6.766528">
        <ele>484.6</ele>
        <time>1970-01-01T00:53:25.000Z</time>
      </trkpt>
      <trkpt lat="41.031217" lon="-6.766571">
        <ele>484.8</ele>
        <time>1970-01-01T00:53:26.000Z</time>
      </trkpt>
      <trkpt lat="41.031213" lon="-6.766614">
        <ele>484.9</ele>
        <time>1970-01-01T00:53:27.000Z</time>
      </trkpt>
      <trkpt lat="41.031209" lon="-6.766656">
        <ele>485</ele>
        <time>1970-01-01T00:53:28.000Z</time>
      </trkpt>
      <trkpt lat="41.031203" lon="-6.766699">
        <ele>485.1</ele>
        <time>1970-01-01T00:53:29.000Z</time>
      </trkpt>
      <trkpt lat="41.031196" lon="-6.76674">
        <ele>485.2</ele>
        <time>1970-01-01T00:53:30.000Z</time>
      </trkpt>
      <trkpt lat="41.031189" lon="-6.76678">
        <ele>485.4</ele>
        <time>1970-01-01T00:53:31.000Z</time>
      </trkpt>
      <trkpt lat="41.031182" lon="-6.766819">
        <ele>485.5</ele>
        <time>1970-01-01T00:53:32.000Z</time>
      </trkpt>
      <trkpt lat="41.031174" lon="-6.766858">
        <ele>485.6</ele>
        <time>1970-01-01T00:53:33.000Z</time>
      </trkpt>
      <trkpt lat="41.031167" lon="-6.766896">
        <ele>485.7</ele>
        <time>1970-01-01T00:53:34.000Z</time>
      </trkpt>
      <trkpt lat="41.031162" lon="-6.766934">
        <ele>485.8</ele>
        <time>1970-01-01T00:53:35.000Z</time>
      </trkpt>
      <trkpt lat="41.031156" lon="-6.766971">
        <ele>485.9</ele>
        <time>1970-01-01T00:53:36.000Z</time>
      </trkpt>
      <trkpt lat="41.031149" lon="-6.767006">
        <ele>486</ele>
        <time>1970-01-01T00:53:37.000Z</time>
      </trkpt>
      <trkpt lat="41.031142" lon="-6.767039">
        <ele>486.1</ele>
        <time>1970-01-01T00:53:38.000Z</time>
      </trkpt>
      <trkpt lat="41.031135" lon="-6.767071">
        <ele>486.2</ele>
        <time>1970-01-01T00:53:39.000Z</time>
      </trkpt>
      <trkpt lat="41.031127" lon="-6.767101">
        <ele>486.3</ele>
        <time>1970-01-01T00:53:40.000Z</time>
      </trkpt>
      <trkpt lat="41.03112" lon="-6.76713">
        <ele>486.4</ele>
        <time>1970-01-01T00:53:41.000Z</time>
      </trkpt>
      <trkpt lat="41.031113" lon="-6.767158">
        <ele>486.5</ele>
        <time>1970-01-01T00:53:42.000Z</time>
      </trkpt>
      <trkpt lat="41.031107" lon="-6.767186">
        <ele>486.5</ele>
        <time>1970-01-01T00:53:43.000Z</time>
      </trkpt>
      <trkpt lat="41.0311" lon="-6.767216">
        <ele>486.7</ele>
        <time>1970-01-01T00:53:44.000Z</time>
      </trkpt>
      <trkpt lat="41.031095" lon="-6.767245">
        <ele>486.9</ele>
        <time>1970-01-01T00:53:45.000Z</time>
      </trkpt>
      <trkpt lat="41.03109" lon="-6.767275">
        <ele>487.1</ele>
        <time>1970-01-01T00:53:46.000Z</time>
      </trkpt>
      <trkpt lat="41.031087" lon="-6.767303">
        <ele>487.4</ele>
        <time>1970-01-01T00:53:47.000Z</time>
      </trkpt>
      <trkpt lat="41.031084" lon="-6.767331">
        <ele>487.6</ele>
        <time>1970-01-01T00:53:48.000Z</time>
      </trkpt>
      <trkpt lat="41.031083" lon="-6.767361">
        <ele>487.8</ele>
        <time>1970-01-01T00:53:49.000Z</time>
      </trkpt>
      <trkpt lat="41.031083" lon="-6.76739">
        <ele>488</ele>
        <time>1970-01-01T00:53:50.000Z</time>
      </trkpt>
      <trkpt lat="41.031084" lon="-6.767419">
        <ele>488.2</ele>
        <time>1970-01-01T00:53:51.000Z</time>
      </trkpt>
      <trkpt lat="41.031086" lon="-6.767446">
        <ele>488.4</ele>
        <time>1970-01-01T00:53:52.000Z</time>
      </trkpt>
      <trkpt lat="41.031089" lon="-6.767473">
        <ele>488.6</ele>
        <time>1970-01-01T00:53:53.000Z</time>
      </trkpt>
      <trkpt lat="41.031093" lon="-6.767499">
        <ele>488.8</ele>
        <time>1970-01-01T00:53:54.000Z</time>
      </trkpt>
      <trkpt lat="41.031097" lon="-6.767523">
        <ele>489</ele>
        <time>1970-01-01T00:53:55.000Z</time>
      </trkpt>
      <trkpt lat="41.031102" lon="-6.767547">
        <ele>489.2</ele>
        <time>1970-01-01T00:53:56.000Z</time>
      </trkpt>
      <trkpt lat="41.031107" lon="-6.767572">
        <ele>489.4</ele>
        <time>1970-01-01T00:53:57.000Z</time>
      </trkpt>
      <trkpt lat="41.031112" lon="-6.767596">
        <ele>489.6</ele>
        <time>1970-01-01T00:53:58.000Z</time>
      </trkpt>
      <trkpt lat="41.031116" lon="-6.76762">
        <ele>489.8</ele>
        <time>1970-01-01T00:53:59.000Z</time>
      </trkpt>
      <trkpt lat="41.03112" lon="-6.767643">
        <ele>489.9</ele>
        <time>1970-01-01T00:54:00.000Z</time>
      </trkpt>
      <trkpt lat="41.031124" lon="-6.767666">
        <ele>490.1</ele>
        <time>1970-01-01T00:54:01.000Z</time>
      </trkpt>
      <trkpt lat="41.031129" lon="-6.767689">
        <ele>490.3</ele>
        <time>1970-01-01T00:54:02.000Z</time>
      </trkpt>
      <trkpt lat="41.031133" lon="-6.767713">
        <ele>490.5</ele>
        <time>1970-01-01T00:54:03.000Z</time>
      </trkpt>
      <trkpt lat="41.031138" lon="-6.767738">
        <ele>490.7</ele>
        <time>1970-01-01T00:54:04.000Z</time>
      </trkpt>
      <trkpt lat="41.031141" lon="-6.767762">
        <ele>490.8</ele>
        <time>1970-01-01T00:54:05.000Z</time>
      </trkpt>
      <trkpt lat="41.031144" lon="-6.767787">
        <ele>491</ele>
        <time>1970-01-01T00:54:06.000Z</time>
      </trkpt>
      <trkpt lat="41.031146" lon="-6.767811">
        <ele>491.2</ele>
        <time>1970-01-01T00:54:07.000Z</time>
      </trkpt>
      <trkpt lat="41.031148" lon="-6.767836">
        <ele>491.4</ele>
        <time>1970-01-01T00:54:08.000Z</time>
      </trkpt>
      <trkpt lat="41.03115" lon="-6.767859">
        <ele>491.6</ele>
        <time>1970-01-01T00:54:09.000Z</time>
      </trkpt>
      <trkpt lat="41.03115" lon="-6.767882">
        <ele>491.7</ele>
        <time>1970-01-01T00:54:10.000Z</time>
      </trkpt>
      <trkpt lat="41.031151" lon="-6.767906">
        <ele>491.9</ele>
        <time>1970-01-01T00:54:11.000Z</time>
      </trkpt>
      <trkpt lat="41.031151" lon="-6.767929">
        <ele>492.1</ele>
        <time>1970-01-01T00:54:12.000Z</time>
      </trkpt>
      <trkpt lat="41.031152" lon="-6.767953">
        <ele>492.3</ele>
        <time>1970-01-01T00:54:13.000Z</time>
      </trkpt>
      <trkpt lat="41.031153" lon="-6.767977">
        <ele>492.4</ele>
        <time>1970-01-01T00:54:14.000Z</time>
      </trkpt>
      <trkpt lat="41.031153" lon="-6.768002">
        <ele>492.6</ele>
        <time>1970-01-01T00:54:15.000Z</time>
      </trkpt>
      <trkpt lat="41.031153" lon="-6.768027">
        <ele>492.8</ele>
        <time>1970-01-01T00:54:16.000Z</time>
      </trkpt>
      <trkpt lat="41.031153" lon="-6.768052">
        <ele>493</ele>
        <time>1970-01-01T00:54:17.000Z</time>
      </trkpt>
      <trkpt lat="41.031152" lon="-6.768077">
        <ele>493.2</ele>
        <time>1970-01-01T00:54:18.000Z</time>
      </trkpt>
      <trkpt lat="41.031151" lon="-6.768102">
        <ele>493.4</ele>
        <time>1970-01-01T00:54:19.000Z</time>
      </trkpt>
      <trkpt lat="41.03115" lon="-6.768126">
        <ele>493.6</ele>
        <time>1970-01-01T00:54:20.000Z</time>
      </trkpt>
      <trkpt lat="41.031151" lon="-6.76815">
        <ele>493.7</ele>
        <time>1970-01-01T00:54:21.000Z</time>
      </trkpt>
      <trkpt lat="41.031152" lon="-6.768175">
        <ele>493.9</ele>
        <time>1970-01-01T00:54:22.000Z</time>
      </trkpt>
      <trkpt lat="41.031154" lon="-6.7682">
        <ele>494.1</ele>
        <time>1970-01-01T00:54:23.000Z</time>
      </trkpt>
      <trkpt lat="41.031156" lon="-6.768225">
        <ele>494.3</ele>
        <time>1970-01-01T00:54:24.000Z</time>
      </trkpt>
      <trkpt lat="41.031158" lon="-6.76825">
        <ele>494.5</ele>
        <time>1970-01-01T00:54:25.000Z</time>
      </trkpt>
      <trkpt lat="41.031159" lon="-6.768276">
        <ele>494.7</ele>
        <time>1970-01-01T00:54:26.000Z</time>
      </trkpt>
      <trkpt lat="41.03116" lon="-6.7683">
        <ele>494.9</ele>
        <time>1970-01-01T00:54:27.000Z</time>
      </trkpt>
      <trkpt lat="41.031161" lon="-6.768324">
        <ele>495</ele>
        <time>1970-01-01T00:54:28.000Z</time>
      </trkpt>
      <trkpt lat="41.031163" lon="-6.768347">
        <ele>495.2</ele>
        <time>1970-01-01T00:54:29.000Z</time>
      </trkpt>
      <trkpt lat="41.031165" lon="-6.768371">
        <ele>495.4</ele>
        <time>1970-01-01T00:54:30.000Z</time>
      </trkpt>
      <trkpt lat="41.031166" lon="-6.768395">
        <ele>495.6</ele>
        <time>1970-01-01T00:54:31.000Z</time>
      </trkpt>
      <trkpt lat="41.031165" lon="-6.768421">
        <ele>495.8</ele>
        <time>1970-01-01T00:54:32.000Z</time>
      </trkpt>
      <trkpt lat="41.031163" lon="-6.768449">
        <ele>496</ele>
        <time>1970-01-01T00:54:33.000Z</time>
      </trkpt>
      <trkpt lat="41.031159" lon="-6.768478">
        <ele>496.2</ele>
        <time>1970-01-01T00:54:34.000Z</time>
      </trkpt>
      <trkpt lat="41.031156" lon="-6.768509">
        <ele>496.4</ele>
        <time>1970-01-01T00:54:35.000Z</time>
      </trkpt>
      <trkpt lat="41.031153" lon="-6.768539">
        <ele>496.6</ele>
        <time>1970-01-01T00:54:36.000Z</time>
      </trkpt>
      <trkpt lat="41.031149" lon="-6.76857">
        <ele>496.9</ele>
        <time>1970-01-01T00:54:37.000Z</time>
      </trkpt>
      <trkpt lat="41.031142" lon="-6.768602">
        <ele>497.1</ele>
        <time>1970-01-01T00:54:38.000Z</time>
      </trkpt>
      <trkpt lat="41.031131" lon="-6.768636">
        <ele>497.4</ele>
        <time>1970-01-01T00:54:39.000Z</time>
      </trkpt>
      <trkpt lat="41.03112" lon="-6.768669">
        <ele>497.7</ele>
        <time>1970-01-01T00:54:40.000Z</time>
      </trkpt>
      <trkpt lat="41.031107" lon="-6.768703">
        <ele>498</ele>
        <time>1970-01-01T00:54:41.000Z</time>
      </trkpt>
      <trkpt lat="41.031093" lon="-6.768737">
        <ele>498.2</ele>
        <time>1970-01-01T00:54:42.000Z</time>
      </trkpt>
      <trkpt lat="41.031075" lon="-6.768771">
        <ele>498.6</ele>
        <time>1970-01-01T00:54:43.000Z</time>
      </trkpt>
      <trkpt lat="41.031054" lon="-6.768806">
        <ele>498.9</ele>
        <time>1970-01-01T00:54:44.000Z</time>
      </trkpt>
      <trkpt lat="41.03103" lon="-6.76884">
        <ele>499.2</ele>
        <time>1970-01-01T00:54:45.000Z</time>
      </trkpt>
      <trkpt lat="41.031005" lon="-6.768872">
        <ele>499.6</ele>
        <time>1970-01-01T00:54:46.000Z</time>
      </trkpt>
      <trkpt lat="41.030979" lon="-6.768905">
        <ele>499.9</ele>
        <time>1970-01-01T00:54:47.000Z</time>
      </trkpt>
      <trkpt lat="41.030954" lon="-6.768939">
        <ele>500.3</ele>
        <time>1970-01-01T00:54:48.000Z</time>
      </trkpt>
      <trkpt lat="41.030928" lon="-6.768977">
        <ele>500.7</ele>
        <time>1970-01-01T00:54:49.000Z</time>
      </trkpt>
      <trkpt lat="41.030902" lon="-6.769018">
        <ele>501.1</ele>
        <time>1970-01-01T00:54:50.000Z</time>
      </trkpt>
      <trkpt lat="41.030877" lon="-6.769063">
        <ele>501.5</ele>
        <time>1970-01-01T00:54:51.000Z</time>
      </trkpt>
      <trkpt lat="41.030855" lon="-6.769111">
        <ele>501.9</ele>
        <time>1970-01-01T00:54:52.000Z</time>
      </trkpt>
      <trkpt lat="41.030837" lon="-6.769159">
        <ele>502.3</ele>
        <time>1970-01-01T00:54:53.000Z</time>
      </trkpt>
      <trkpt lat="41.030821" lon="-6.769209">
        <ele>502.7</ele>
        <time>1970-01-01T00:54:54.000Z</time>
      </trkpt>
      <trkpt lat="41.030808" lon="-6.769261">
        <ele>503.1</ele>
        <time>1970-01-01T00:54:55.000Z</time>
      </trkpt>
      <trkpt lat="41.030795" lon="-6.769315">
        <ele>503.5</ele>
        <time>1970-01-01T00:54:56.000Z</time>
      </trkpt>
      <trkpt lat="41.030783" lon="-6.769368">
        <ele>503.9</ele>
        <time>1970-01-01T00:54:57.000Z</time>
      </trkpt>
      <trkpt lat="41.030773" lon="-6.76942">
        <ele>504.3</ele>
        <time>1970-01-01T00:54:58.000Z</time>
      </trkpt>
      <trkpt lat="41.030763" lon="-6.769472">
        <ele>504.7</ele>
        <time>1970-01-01T00:54:59.000Z</time>
      </trkpt>
      <trkpt lat="41.030755" lon="-6.769524">
        <ele>505.1</ele>
        <time>1970-01-01T00:55:00.000Z</time>
      </trkpt>
      <trkpt lat="41.030748" lon="-6.769578">
        <ele>505.5</ele>
        <time>1970-01-01T00:55:01.000Z</time>
      </trkpt>
      <trkpt lat="41.030742" lon="-6.769632">
        <ele>505.9</ele>
        <time>1970-01-01T00:55:02.000Z</time>
      </trkpt>
      <trkpt lat="41.030739" lon="-6.769685">
        <ele>506.3</ele>
        <time>1970-01-01T00:55:03.000Z</time>
      </trkpt>
      <trkpt lat="41.030735" lon="-6.769736">
        <ele>506.7</ele>
        <time>1970-01-01T00:55:04.000Z</time>
      </trkpt>
      <trkpt lat="41.030735" lon="-6.769783">
        <ele>507.1</ele>
        <time>1970-01-01T00:55:05.000Z</time>
      </trkpt>
      <trkpt lat="41.030736" lon="-6.769828">
        <ele>507.4</ele>
        <time>1970-01-01T00:55:06.000Z</time>
      </trkpt>
      <trkpt lat="41.03074" lon="-6.769871">
        <ele>507.7</ele>
        <time>1970-01-01T00:55:07.000Z</time>
      </trkpt>
      <trkpt lat="41.030746" lon="-6.769914">
        <ele>508.1</ele>
        <time>1970-01-01T00:55:08.000Z</time>
      </trkpt>
      <trkpt lat="41.030754" lon="-6.769957">
        <ele>508.4</ele>
        <time>1970-01-01T00:55:09.000Z</time>
      </trkpt>
      <trkpt lat="41.030762" lon="-6.770001">
        <ele>508.7</ele>
        <time>1970-01-01T00:55:10.000Z</time>
      </trkpt>
      <trkpt lat="41.030769" lon="-6.770043">
        <ele>509</ele>
        <time>1970-01-01T00:55:11.000Z</time>
      </trkpt>
      <trkpt lat="41.030776" lon="-6.770084">
        <ele>509.4</ele>
        <time>1970-01-01T00:55:12.000Z</time>
      </trkpt>
      <trkpt lat="41.030784" lon="-6.770126">
        <ele>509.7</ele>
        <time>1970-01-01T00:55:13.000Z</time>
      </trkpt>
      <trkpt lat="41.03079" lon="-6.770167">
        <ele>510</ele>
        <time>1970-01-01T00:55:14.000Z</time>
      </trkpt>
      <trkpt lat="41.030797" lon="-6.770209">
        <ele>510.3</ele>
        <time>1970-01-01T00:55:15.000Z</time>
      </trkpt>
      <trkpt lat="41.030804" lon="-6.77025">
        <ele>510.6</ele>
        <time>1970-01-01T00:55:16.000Z</time>
      </trkpt>
      <trkpt lat="41.030813" lon="-6.770291">
        <ele>510.9</ele>
        <time>1970-01-01T00:55:17.000Z</time>
      </trkpt>
      <trkpt lat="41.030822" lon="-6.770331">
        <ele>511.3</ele>
        <time>1970-01-01T00:55:18.000Z</time>
      </trkpt>
      <trkpt lat="41.030829" lon="-6.77037">
        <ele>511.6</ele>
        <time>1970-01-01T00:55:19.000Z</time>
      </trkpt>
      <trkpt lat="41.030836" lon="-6.770409">
        <ele>511.9</ele>
        <time>1970-01-01T00:55:20.000Z</time>
      </trkpt>
      <trkpt lat="41.030841" lon="-6.770448">
        <ele>512.1</ele>
        <time>1970-01-01T00:55:21.000Z</time>
      </trkpt>
      <trkpt lat="41.030847" lon="-6.770487">
        <ele>512.4</ele>
        <time>1970-01-01T00:55:22.000Z</time>
      </trkpt>
      <trkpt lat="41.030852" lon="-6.770525">
        <ele>512.7</ele>
        <time>1970-01-01T00:55:23.000Z</time>
      </trkpt>
      <trkpt lat="41.030859" lon="-6.770562">
        <ele>513</ele>
        <time>1970-01-01T00:55:24.000Z</time>
      </trkpt>
      <trkpt lat="41.030865" lon="-6.7706">
        <ele>513.3</ele>
        <time>1970-01-01T00:55:25.000Z</time>
      </trkpt>
      <trkpt lat="41.030871" lon="-6.770639">
        <ele>513.6</ele>
        <time>1970-01-01T00:55:26.000Z</time>
      </trkpt>
      <trkpt lat="41.030876" lon="-6.770679">
        <ele>513.9</ele>
        <time>1970-01-01T00:55:27.000Z</time>
      </trkpt>
      <trkpt lat="41.030879" lon="-6.77072">
        <ele>514.2</ele>
        <time>1970-01-01T00:55:28.000Z</time>
      </trkpt>
      <trkpt lat="41.030881" lon="-6.770762">
        <ele>514.5</ele>
        <time>1970-01-01T00:55:29.000Z</time>
      </trkpt>
      <trkpt lat="41.030884" lon="-6.770803">
        <ele>514.8</ele>
        <time>1970-01-01T00:55:30.000Z</time>
      </trkpt>
      <trkpt lat="41.030887" lon="-6.770845">
        <ele>515.1</ele>
        <time>1970-01-01T00:55:31.000Z</time>
      </trkpt>
      <trkpt lat="41.030892" lon="-6.770886">
        <ele>515.4</ele>
        <time>1970-01-01T00:55:32.000Z</time>
      </trkpt>
      <trkpt lat="41.0309" lon="-6.770923">
        <ele>515.7</ele>
        <time>1970-01-01T00:55:33.000Z</time>
      </trkpt>
      <trkpt lat="41.030911" lon="-6.770956">
        <ele>516</ele>
        <time>1970-01-01T00:55:34.000Z</time>
      </trkpt>
      <trkpt lat="41.030927" lon="-6.770982">
        <ele>516.3</ele>
        <time>1970-01-01T00:55:35.000Z</time>
      </trkpt>
      <trkpt lat="41.030948" lon="-6.770999">
        <ele>516.5</ele>
        <time>1970-01-01T00:55:36.000Z</time>
      </trkpt>
      <trkpt lat="41.030971" lon="-6.77101">
        <ele>516.7</ele>
        <time>1970-01-01T00:55:37.000Z</time>
      </trkpt>
      <trkpt lat="41.030996" lon="-6.771015">
        <ele>517</ele>
        <time>1970-01-01T00:55:38.000Z</time>
      </trkpt>
      <trkpt lat="41.031022" lon="-6.771021">
        <ele>517.2</ele>
        <time>1970-01-01T00:55:39.000Z</time>
      </trkpt>
      <trkpt lat="41.03105" lon="-6.771024">
        <ele>517.5</ele>
        <time>1970-01-01T00:55:40.000Z</time>
      </trkpt>
      <trkpt lat="41.031078" lon="-6.771028">
        <ele>517.8</ele>
        <time>1970-01-01T00:55:41.000Z</time>
      </trkpt>
      <trkpt lat="41.031106" lon="-6.771029">
        <ele>518.1</ele>
        <time>1970-01-01T00:55:42.000Z</time>
      </trkpt>
      <trkpt lat="41.031135" lon="-6.771033">
        <ele>518.4</ele>
        <time>1970-01-01T00:55:43.000Z</time>
      </trkpt>
      <trkpt lat="41.031166" lon="-6.771036">
        <ele>518.7</ele>
        <time>1970-01-01T00:55:44.000Z</time>
      </trkpt>
      <trkpt lat="41.031197" lon="-6.771039">
        <ele>519</ele>
        <time>1970-01-01T00:55:45.000Z</time>
      </trkpt>
      <trkpt lat="41.031226" lon="-6.771042">
        <ele>519.3</ele>
        <time>1970-01-01T00:55:46.000Z</time>
      </trkpt>
      <trkpt lat="41.031256" lon="-6.771048">
        <ele>519.6</ele>
        <time>1970-01-01T00:55:47.000Z</time>
      </trkpt>
      <trkpt lat="41.031284" lon="-6.771055">
        <ele>519.8</ele>
        <time>1970-01-01T00:55:48.000Z</time>
      </trkpt>
      <trkpt lat="41.031312" lon="-6.771065">
        <ele>520.1</ele>
        <time>1970-01-01T00:55:49.000Z</time>
      </trkpt>
      <trkpt lat="41.03134" lon="-6.771076">
        <ele>520.4</ele>
        <time>1970-01-01T00:55:50.000Z</time>
      </trkpt>
      <trkpt lat="41.031367" lon="-6.771086">
        <ele>520.7</ele>
        <time>1970-01-01T00:55:51.000Z</time>
      </trkpt>
      <trkpt lat="41.031395" lon="-6.771096">
        <ele>521</ele>
        <time>1970-01-01T00:55:52.000Z</time>
      </trkpt>
      <trkpt lat="41.031421" lon="-6.771107">
        <ele>521.3</ele>
        <time>1970-01-01T00:55:53.000Z</time>
      </trkpt>
      <trkpt lat="41.031447" lon="-6.771118">
        <ele>521.5</ele>
        <time>1970-01-01T00:55:54.000Z</time>
      </trkpt>
      <trkpt lat="41.031471" lon="-6.771129">
        <ele>521.8</ele>
        <time>1970-01-01T00:55:55.000Z</time>
      </trkpt>
      <trkpt lat="41.031497" lon="-6.771139">
        <ele>522</ele>
        <time>1970-01-01T00:55:56.000Z</time>
      </trkpt>
      <trkpt lat="41.031524" lon="-6.77115">
        <ele>522.3</ele>
        <time>1970-01-01T00:55:57.000Z</time>
      </trkpt>
      <trkpt lat="41.03155" lon="-6.771162">
        <ele>522.6</ele>
        <time>1970-01-01T00:55:58.000Z</time>
      </trkpt>
      <trkpt lat="41.031573" lon="-6.771178">
        <ele>522.8</ele>
        <time>1970-01-01T00:55:59.000Z</time>
      </trkpt>
      <trkpt lat="41.031595" lon="-6.771198">
        <ele>523.1</ele>
        <time>1970-01-01T00:56:00.000Z</time>
      </trkpt>
      <trkpt lat="41.031617" lon="-6.77122">
        <ele>523.4</ele>
        <time>1970-01-01T00:56:01.000Z</time>
      </trkpt>
      <trkpt lat="41.031638" lon="-6.771246">
        <ele>523.7</ele>
        <time>1970-01-01T00:56:02.000Z</time>
      </trkpt>
      <trkpt lat="41.031656" lon="-6.771273">
        <ele>523.9</ele>
        <time>1970-01-01T00:56:03.000Z</time>
      </trkpt>
      <trkpt lat="41.031672" lon="-6.771302">
        <ele>524.2</ele>
        <time>1970-01-01T00:56:04.000Z</time>
      </trkpt>
      <trkpt lat="41.031687" lon="-6.771332">
        <ele>524.5</ele>
        <time>1970-01-01T00:56:05.000Z</time>
      </trkpt>
      <trkpt lat="41.031703" lon="-6.771363">
        <ele>524.7</ele>
        <time>1970-01-01T00:56:06.000Z</time>
      </trkpt>
      <trkpt lat="41.031718" lon="-6.771395">
        <ele>525</ele>
        <time>1970-01-01T00:56:07.000Z</time>
      </trkpt>
      <trkpt lat="41.031732" lon="-6.771428">
        <ele>525.3</ele>
        <time>1970-01-01T00:56:08.000Z</time>
      </trkpt>
      <trkpt lat="41.031744" lon="-6.77146">
        <ele>525.6</ele>
        <time>1970-01-01T00:56:09.000Z</time>
      </trkpt>
      <trkpt lat="41.031756" lon="-6.771492">
        <ele>525.8</ele>
        <time>1970-01-01T00:56:10.000Z</time>
      </trkpt>
      <trkpt lat="41.031766" lon="-6.771524">
        <ele>526.1</ele>
        <time>1970-01-01T00:56:11.000Z</time>
      </trkpt>
      <trkpt lat="41.031775" lon="-6.771554">
        <ele>526.3</ele>
        <time>1970-01-01T00:56:12.000Z</time>
      </trkpt>
      <trkpt lat="41.031783" lon="-6.771584">
        <ele>526.6</ele>
        <time>1970-01-01T00:56:13.000Z</time>
      </trkpt>
      <trkpt lat="41.031791" lon="-6.771613">
        <ele>526.8</ele>
        <time>1970-01-01T00:56:14.000Z</time>
      </trkpt>
      <trkpt lat="41.031799" lon="-6.771642">
        <ele>527</ele>
        <time>1970-01-01T00:56:15.000Z</time>
      </trkpt>
      <trkpt lat="41.031805" lon="-6.771671">
        <ele>527.3</ele>
        <time>1970-01-01T00:56:16.000Z</time>
      </trkpt>
      <trkpt lat="41.031812" lon="-6.7717">
        <ele>527.5</ele>
        <time>1970-01-01T00:56:17.000Z</time>
      </trkpt>
      <trkpt lat="41.031818" lon="-6.771728">
        <ele>527.7</ele>
        <time>1970-01-01T00:56:18.000Z</time>
      </trkpt>
      <trkpt lat="41.031823" lon="-6.771756">
        <ele>527.9</ele>
        <time>1970-01-01T00:56:19.000Z</time>
      </trkpt>
      <trkpt lat="41.031828" lon="-6.771782">
        <ele>528.1</ele>
        <time>1970-01-01T00:56:20.000Z</time>
      </trkpt>
      <trkpt lat="41.031833" lon="-6.771808">
        <ele>528.3</ele>
        <time>1970-01-01T00:56:21.000Z</time>
      </trkpt>
      <trkpt lat="41.031838" lon="-6.771834">
        <ele>528.5</ele>
        <time>1970-01-01T00:56:22.000Z</time>
      </trkpt>
      <trkpt lat="41.031845" lon="-6.771859">
        <ele>528.7</ele>
        <time>1970-01-01T00:56:23.000Z</time>
      </trkpt>
      <trkpt lat="41.031851" lon="-6.771883">
        <ele>528.9</ele>
        <time>1970-01-01T00:56:24.000Z</time>
      </trkpt>
      <trkpt lat="41.031857" lon="-6.771906">
        <ele>529.1</ele>
        <time>1970-01-01T00:56:25.000Z</time>
      </trkpt>
      <trkpt lat="41.031864" lon="-6.771929">
        <ele>529.3</ele>
        <time>1970-01-01T00:56:26.000Z</time>
      </trkpt>
      <trkpt lat="41.031872" lon="-6.771953">
        <ele>529.5</ele>
        <time>1970-01-01T00:56:27.000Z</time>
      </trkpt>
      <trkpt lat="41.03188" lon="-6.771975">
        <ele>529.6</ele>
        <time>1970-01-01T00:56:28.000Z</time>
      </trkpt>
      <trkpt lat="41.03189" lon="-6.771996">
        <ele>529.8</ele>
        <time>1970-01-01T00:56:29.000Z</time>
      </trkpt>
      <trkpt lat="41.031901" lon="-6.772015">
        <ele>530</ele>
        <time>1970-01-01T00:56:30.000Z</time>
      </trkpt>
      <trkpt lat="41.031911" lon="-6.772035">
        <ele>530.2</ele>
        <time>1970-01-01T00:56:31.000Z</time>
      </trkpt>
      <trkpt lat="41.031922" lon="-6.772054">
        <ele>530.4</ele>
        <time>1970-01-01T00:56:32.000Z</time>
      </trkpt>
      <trkpt lat="41.031931" lon="-6.772071">
        <ele>530.5</ele>
        <time>1970-01-01T00:56:33.000Z</time>
      </trkpt>
      <trkpt lat="41.031941" lon="-6.772085">
        <ele>530.7</ele>
        <time>1970-01-01T00:56:34.000Z</time>
      </trkpt>
      <trkpt lat="41.031952" lon="-6.7721">
        <ele>530.8</ele>
        <time>1970-01-01T00:56:35.000Z</time>
      </trkpt>
      <trkpt lat="41.031963" lon="-6.772116">
        <ele>531</ele>
        <time>1970-01-01T00:56:36.000Z</time>
      </trkpt>
      <trkpt lat="41.031974" lon="-6.772131">
        <ele>531.1</ele>
        <time>1970-01-01T00:56:37.000Z</time>
      </trkpt>
      <trkpt lat="41.031985" lon="-6.772145">
        <ele>531.3</ele>
        <time>1970-01-01T00:56:38.000Z</time>
      </trkpt>
      <trkpt lat="41.031998" lon="-6.772156">
        <ele>531.4</ele>
        <time>1970-01-01T00:56:39.000Z</time>
      </trkpt>
      <trkpt lat="41.032011" lon="-6.772166">
        <ele>531.6</ele>
        <time>1970-01-01T00:56:40.000Z</time>
      </trkpt>
      <trkpt lat="41.032025" lon="-6.772175">
        <ele>531.7</ele>
        <time>1970-01-01T00:56:41.000Z</time>
      </trkpt>
      <trkpt lat="41.03204" lon="-6.772185">
        <ele>531.9</ele>
        <time>1970-01-01T00:56:42.000Z</time>
      </trkpt>
      <trkpt lat="41.032055" lon="-6.772193">
        <ele>532.1</ele>
        <time>1970-01-01T00:56:43.000Z</time>
      </trkpt>
      <trkpt lat="41.03207" lon="-6.772201">
        <ele>532.2</ele>
        <time>1970-01-01T00:56:44.000Z</time>
      </trkpt>
      <trkpt lat="41.032084" lon="-6.772208">
        <ele>532.4</ele>
        <time>1970-01-01T00:56:45.000Z</time>
      </trkpt>
      <trkpt lat="41.032098" lon="-6.772215">
        <ele>532.5</ele>
        <time>1970-01-01T00:56:46.000Z</time>
      </trkpt>
      <trkpt lat="41.032111" lon="-6.772222">
        <ele>532.7</ele>
        <time>1970-01-01T00:56:47.000Z</time>
      </trkpt>
      <trkpt lat="41.032125" lon="-6.772229">
        <ele>532.8</ele>
        <time>1970-01-01T00:56:48.000Z</time>
      </trkpt>
      <trkpt lat="41.032139" lon="-6.772237">
        <ele>533</ele>
        <time>1970-01-01T00:56:49.000Z</time>
      </trkpt>
      <trkpt lat="41.032155" lon="-6.772246">
        <ele>533.1</ele>
        <time>1970-01-01T00:56:50.000Z</time>
      </trkpt>
      <trkpt lat="41.032171" lon="-6.772255">
        <ele>533.3</ele>
        <time>1970-01-01T00:56:51.000Z</time>
      </trkpt>
      <trkpt lat="41.032187" lon="-6.772263">
        <ele>533.5</ele>
        <time>1970-01-01T00:56:52.000Z</time>
      </trkpt>
      <trkpt lat="41.032202" lon="-6.77227">
        <ele>533.6</ele>
        <time>1970-01-01T00:56:53.000Z</time>
      </trkpt>
      <trkpt lat="41.032217" lon="-6.772281">
        <ele>533.8</ele>
        <time>1970-01-01T00:56:54.000Z</time>
      </trkpt>
      <trkpt lat="41.032232" lon="-6.772292">
        <ele>534</ele>
        <time>1970-01-01T00:56:55.000Z</time>
      </trkpt>
      <trkpt lat="41.032247" lon="-6.772306">
        <ele>534.1</ele>
        <time>1970-01-01T00:56:56.000Z</time>
      </trkpt>
      <trkpt lat="41.03226" lon="-6.77232">
        <ele>534.3</ele>
        <time>1970-01-01T00:56:57.000Z</time>
      </trkpt>
      <trkpt lat="41.032275" lon="-6.772337">
        <ele>534.5</ele>
        <time>1970-01-01T00:56:58.000Z</time>
      </trkpt>
      <trkpt lat="41.03229" lon="-6.772355">
        <ele>534.7</ele>
        <time>1970-01-01T00:56:59.000Z</time>
      </trkpt>
      <trkpt lat="41.032305" lon="-6.772376">
        <ele>534.9</ele>
        <time>1970-01-01T00:57:00.000Z</time>
      </trkpt>
      <trkpt lat="41.03232" lon="-6.772396">
        <ele>535.1</ele>
        <time>1970-01-01T00:57:01.000Z</time>
      </trkpt>
      <trkpt lat="41.032335" lon="-6.772417">
        <ele>535.3</ele>
        <time>1970-01-01T00:57:02.000Z</time>
      </trkpt>
      <trkpt lat="41.03235" lon="-6.772437">
        <ele>535.6</ele>
        <time>1970-01-01T00:57:03.000Z</time>
      </trkpt>
      <trkpt lat="41.032365" lon="-6.772459">
        <ele>535.8</ele>
        <time>1970-01-01T00:57:04.000Z</time>
      </trkpt>
      <trkpt lat="41.032382" lon="-6.772482">
        <ele>536</ele>
        <time>1970-01-01T00:57:05.000Z</time>
      </trkpt>
      <trkpt lat="41.032399" lon="-6.772505">
        <ele>536.3</ele>
        <time>1970-01-01T00:57:06.000Z</time>
      </trkpt>
      <trkpt lat="41.032416" lon="-6.772529">
        <ele>536.5</ele>
        <time>1970-01-01T00:57:07.000Z</time>
      </trkpt>
      <trkpt lat="41.032434" lon="-6.772553">
        <ele>536.8</ele>
        <time>1970-01-01T00:57:08.000Z</time>
      </trkpt>
      <trkpt lat="41.032453" lon="-6.772577">
        <ele>537</ele>
        <time>1970-01-01T00:57:09.000Z</time>
      </trkpt>
      <trkpt lat="41.032475" lon="-6.772603">
        <ele>537.3</ele>
        <time>1970-01-01T00:57:10.000Z</time>
      </trkpt>
      <trkpt lat="41.032501" lon="-6.772631">
        <ele>537.6</ele>
        <time>1970-01-01T00:57:11.000Z</time>
      </trkpt>
      <trkpt lat="41.032528" lon="-6.772665">
        <ele>538</ele>
        <time>1970-01-01T00:57:12.000Z</time>
      </trkpt>
      <trkpt lat="41.032554" lon="-6.772709">
        <ele>538.4</ele>
        <time>1970-01-01T00:57:13.000Z</time>
      </trkpt>
      <trkpt lat="41.032576" lon="-6.772763">
        <ele>538.9</ele>
        <time>1970-01-01T00:57:14.000Z</time>
      </trkpt>
      <trkpt lat="41.032595" lon="-6.772825">
        <ele>539.4</ele>
        <time>1970-01-01T00:57:15.000Z</time>
      </trkpt>
      <trkpt lat="41.032612" lon="-6.772888">
        <ele>539.9</ele>
        <time>1970-01-01T00:57:16.000Z</time>
      </trkpt>
      <trkpt lat="41.032627" lon="-6.772951">
        <ele>540.4</ele>
        <time>1970-01-01T00:57:17.000Z</time>
      </trkpt>
      <trkpt lat="41.03264" lon="-6.773009">
        <ele>540.8</ele>
        <time>1970-01-01T00:57:18.000Z</time>
      </trkpt>
      <trkpt lat="41.03265" lon="-6.773059">
        <ele>541.2</ele>
        <time>1970-01-01T00:57:19.000Z</time>
      </trkpt>
      <trkpt lat="41.032657" lon="-6.773101">
        <ele>541.5</ele>
        <time>1970-01-01T00:57:20.000Z</time>
      </trkpt>
      <trkpt lat="41.032663" lon="-6.773135">
        <ele>541.8</ele>
        <time>1970-01-01T00:57:21.000Z</time>
      </trkpt>
      <trkpt lat="41.032668" lon="-6.773166">
        <ele>542</ele>
        <time>1970-01-01T00:57:22.000Z</time>
      </trkpt>
      <trkpt lat="41.032672" lon="-6.773196">
        <ele>542.2</ele>
        <time>1970-01-01T00:57:23.000Z</time>
      </trkpt>
      <trkpt lat="41.032677" lon="-6.773225">
        <ele>542.5</ele>
        <time>1970-01-01T00:57:24.000Z</time>
      </trkpt>
      <trkpt lat="41.032681" lon="-6.773254">
        <ele>542.7</ele>
        <time>1970-01-01T00:57:25.000Z</time>
      </trkpt>
      <trkpt lat="41.032685" lon="-6.773283">
        <ele>542.9</ele>
        <time>1970-01-01T00:57:26.000Z</time>
      </trkpt>
      <trkpt lat="41.032689" lon="-6.77331">
        <ele>543.1</ele>
        <time>1970-01-01T00:57:27.000Z</time>
      </trkpt>
      <trkpt lat="41.032694" lon="-6.773337">
        <ele>543.3</ele>
        <time>1970-01-01T00:57:28.000Z</time>
      </trkpt>
      <trkpt lat="41.032698" lon="-6.773362">
        <ele>543.5</ele>
        <time>1970-01-01T00:57:29.000Z</time>
      </trkpt>
      <trkpt lat="41.0327" lon="-6.773385">
        <ele>543.7</ele>
        <time>1970-01-01T00:57:30.000Z</time>
      </trkpt>
      <trkpt lat="41.032703" lon="-6.77341">
        <ele>543.9</ele>
        <time>1970-01-01T00:57:31.000Z</time>
      </trkpt>
      <trkpt lat="41.032706" lon="-6.773436">
        <ele>544.1</ele>
        <time>1970-01-01T00:57:32.000Z</time>
      </trkpt>
      <trkpt lat="41.03271" lon="-6.773462">
        <ele>544.3</ele>
        <time>1970-01-01T00:57:33.000Z</time>
      </trkpt>
      <trkpt lat="41.032715" lon="-6.773487">
        <ele>544.4</ele>
        <time>1970-01-01T00:57:34.000Z</time>
      </trkpt>
      <trkpt lat="41.03272" lon="-6.773514">
        <ele>544.7</ele>
        <time>1970-01-01T00:57:35.000Z</time>
      </trkpt>
      <trkpt lat="41.032723" lon="-6.77354">
        <ele>544.9</ele>
        <time>1970-01-01T00:57:36.000Z</time>
      </trkpt>
      <trkpt lat="41.032725" lon="-6.773567">
        <ele>545.1</ele>
        <time>1970-01-01T00:57:37.000Z</time>
      </trkpt>
      <trkpt lat="41.032728" lon="-6.773593">
        <ele>545.2</ele>
        <time>1970-01-01T00:57:38.000Z</time>
      </trkpt>
      <trkpt lat="41.032733" lon="-6.773618">
        <ele>545.4</ele>
        <time>1970-01-01T00:57:39.000Z</time>
      </trkpt>
      <trkpt lat="41.032737" lon="-6.773643">
        <ele>545.6</ele>
        <time>1970-01-01T00:57:40.000Z</time>
      </trkpt>
      <trkpt lat="41.032739" lon="-6.773667">
        <ele>545.8</ele>
        <time>1970-01-01T00:57:41.000Z</time>
      </trkpt>
      <trkpt lat="41.032741" lon="-6.773692">
        <ele>546</ele>
        <time>1970-01-01T00:57:42.000Z</time>
      </trkpt>
      <trkpt lat="41.032743" lon="-6.773719">
        <ele>546.2</ele>
        <time>1970-01-01T00:57:43.000Z</time>
      </trkpt>
      <trkpt lat="41.032747" lon="-6.773746">
        <ele>546.4</ele>
        <time>1970-01-01T00:57:44.000Z</time>
      </trkpt>
      <trkpt lat="41.032751" lon="-6.773772">
        <ele>546.6</ele>
        <time>1970-01-01T00:57:45.000Z</time>
      </trkpt>
      <trkpt lat="41.032755" lon="-6.773796">
        <ele>546.8</ele>
        <time>1970-01-01T00:57:46.000Z</time>
      </trkpt>
      <trkpt lat="41.032759" lon="-6.773819">
        <ele>547</ele>
        <time>1970-01-01T00:57:47.000Z</time>
      </trkpt>
      <trkpt lat="41.032761" lon="-6.77384">
        <ele>547.1</ele>
        <time>1970-01-01T00:57:48.000Z</time>
      </trkpt>
      <trkpt lat="41.032763" lon="-6.77386">
        <ele>547.3</ele>
        <time>1970-01-01T00:57:49.000Z</time>
      </trkpt>
      <trkpt lat="41.032765" lon="-6.773882">
        <ele>547.4</ele>
        <time>1970-01-01T00:57:50.000Z</time>
      </trkpt>
      <trkpt lat="41.032766" lon="-6.773903">
        <ele>547.6</ele>
        <time>1970-01-01T00:57:51.000Z</time>
      </trkpt>
      <trkpt lat="41.032769" lon="-6.773925">
        <ele>547.8</ele>
        <time>1970-01-01T00:57:52.000Z</time>
      </trkpt>
      <trkpt lat="41.032774" lon="-6.773948">
        <ele>547.9</ele>
        <time>1970-01-01T00:57:53.000Z</time>
      </trkpt>
      <trkpt lat="41.032778" lon="-6.773972">
        <ele>548.1</ele>
        <time>1970-01-01T00:57:54.000Z</time>
      </trkpt>
      <trkpt lat="41.032781" lon="-6.773994">
        <ele>548.3</ele>
        <time>1970-01-01T00:57:55.000Z</time>
      </trkpt>
      <trkpt lat="41.032783" lon="-6.774017">
        <ele>548.5</ele>
        <time>1970-01-01T00:57:56.000Z</time>
      </trkpt>
      <trkpt lat="41.032786" lon="-6.77404">
        <ele>548.6</ele>
        <time>1970-01-01T00:57:57.000Z</time>
      </trkpt>
      <trkpt lat="41.032787" lon="-6.774063">
        <ele>548.8</ele>
        <time>1970-01-01T00:57:58.000Z</time>
      </trkpt>
      <trkpt lat="41.032788" lon="-6.774086">
        <ele>549</ele>
        <time>1970-01-01T00:57:59.000Z</time>
      </trkpt>
      <trkpt lat="41.032788" lon="-6.774108">
        <ele>549.1</ele>
        <time>1970-01-01T00:58:00.000Z</time>
      </trkpt>
      <trkpt lat="41.032788" lon="-6.774131">
        <ele>549.3</ele>
        <time>1970-01-01T00:58:01.000Z</time>
      </trkpt>
      <trkpt lat="41.032787" lon="-6.774154">
        <ele>549.5</ele>
        <time>1970-01-01T00:58:02.000Z</time>
      </trkpt>
      <trkpt lat="41.032784" lon="-6.774175">
        <ele>549.6</ele>
        <time>1970-01-01T00:58:03.000Z</time>
      </trkpt>
      <trkpt lat="41.03278" lon="-6.774198">
        <ele>549.8</ele>
        <time>1970-01-01T00:58:04.000Z</time>
      </trkpt>
      <trkpt lat="41.032777" lon="-6.774219">
        <ele>550</ele>
        <time>1970-01-01T00:58:05.000Z</time>
      </trkpt>
      <trkpt lat="41.032774" lon="-6.77424">
        <ele>550.1</ele>
        <time>1970-01-01T00:58:06.000Z</time>
      </trkpt>
      <trkpt lat="41.032772" lon="-6.774259">
        <ele>550.3</ele>
        <time>1970-01-01T00:58:07.000Z</time>
      </trkpt>
      <trkpt lat="41.032767" lon="-6.774278">
        <ele>550.4</ele>
        <time>1970-01-01T00:58:08.000Z</time>
      </trkpt>
      <trkpt lat="41.032763" lon="-6.774298">
        <ele>550.6</ele>
        <time>1970-01-01T00:58:09.000Z</time>
      </trkpt>
      <trkpt lat="41.032759" lon="-6.774318">
        <ele>550.7</ele>
        <time>1970-01-01T00:58:10.000Z</time>
      </trkpt>
      <trkpt lat="41.032757" lon="-6.774339">
        <ele>550.9</ele>
        <time>1970-01-01T00:58:11.000Z</time>
      </trkpt>
      <trkpt lat="41.032754" lon="-6.774358">
        <ele>551</ele>
        <time>1970-01-01T00:58:12.000Z</time>
      </trkpt>
      <trkpt lat="41.032751" lon="-6.774376">
        <ele>551.2</ele>
        <time>1970-01-01T00:58:13.000Z</time>
      </trkpt>
      <trkpt lat="41.032746" lon="-6.774394">
        <ele>551.3</ele>
        <time>1970-01-01T00:58:14.000Z</time>
      </trkpt>
      <trkpt lat="41.032742" lon="-6.774412">
        <ele>551.5</ele>
        <time>1970-01-01T00:58:15.000Z</time>
      </trkpt>
      <trkpt lat="41.032737" lon="-6.774431">
        <ele>551.6</ele>
        <time>1970-01-01T00:58:16.000Z</time>
      </trkpt>
      <trkpt lat="41.032734" lon="-6.774448">
        <ele>551.7</ele>
        <time>1970-01-01T00:58:17.000Z</time>
      </trkpt>
      <trkpt lat="41.032731" lon="-6.774466">
        <ele>551.9</ele>
        <time>1970-01-01T00:58:18.000Z</time>
      </trkpt>
      <trkpt lat="41.032729" lon="-6.774483">
        <ele>552</ele>
        <time>1970-01-01T00:58:19.000Z</time>
      </trkpt>
      <trkpt lat="41.032727" lon="-6.774501">
        <ele>552.1</ele>
        <time>1970-01-01T00:58:20.000Z</time>
      </trkpt>
      <trkpt lat="41.032726" lon="-6.77452">
        <ele>552.3</ele>
        <time>1970-01-01T00:58:21.000Z</time>
      </trkpt>
      <trkpt lat="41.032723" lon="-6.774539">
        <ele>552.4</ele>
        <time>1970-01-01T00:58:22.000Z</time>
      </trkpt>
      <trkpt lat="41.03272" lon="-6.774559">
        <ele>552.6</ele>
        <time>1970-01-01T00:58:23.000Z</time>
      </trkpt>
      <trkpt lat="41.032717" lon="-6.774579">
        <ele>552.7</ele>
        <time>1970-01-01T00:58:24.000Z</time>
      </trkpt>
      <trkpt lat="41.032714" lon="-6.774598">
        <ele>552.9</ele>
        <time>1970-01-01T00:58:25.000Z</time>
      </trkpt>
      <trkpt lat="41.03271" lon="-6.774616">
        <ele>553</ele>
        <time>1970-01-01T00:58:26.000Z</time>
      </trkpt>
      <trkpt lat="41.032706" lon="-6.774633">
        <ele>553.1</ele>
        <time>1970-01-01T00:58:27.000Z</time>
      </trkpt>
      <trkpt lat="41.032702" lon="-6.77465">
        <ele>553.3</ele>
        <time>1970-01-01T00:58:28.000Z</time>
      </trkpt>
      <trkpt lat="41.032699" lon="-6.774665">
        <ele>553.4</ele>
        <time>1970-01-01T00:58:29.000Z</time>
      </trkpt>
      <trkpt lat="41.032696" lon="-6.774682">
        <ele>553.5</ele>
        <time>1970-01-01T00:58:30.000Z</time>
      </trkpt>
      <trkpt lat="41.032693" lon="-6.774698">
        <ele>553.6</ele>
        <time>1970-01-01T00:58:31.000Z</time>
      </trkpt>
      <trkpt lat="41.03269" lon="-6.774713">
        <ele>553.8</ele>
        <time>1970-01-01T00:58:32.000Z</time>
      </trkpt>
      <trkpt lat="41.032685" lon="-6.774729">
        <ele>553.9</ele>
        <time>1970-01-01T00:58:33.000Z</time>
      </trkpt>
      <trkpt lat="41.032679" lon="-6.774747">
        <ele>554</ele>
        <time>1970-01-01T00:58:34.000Z</time>
      </trkpt>
      <trkpt lat="41.032673" lon="-6.774768">
        <ele>554.2</ele>
        <time>1970-01-01T00:58:35.000Z</time>
      </trkpt>
      <trkpt lat="41.032667" lon="-6.774788">
        <ele>554.4</ele>
        <time>1970-01-01T00:58:36.000Z</time>
      </trkpt>
      <trkpt lat="41.032663" lon="-6.774808">
        <ele>554.5</ele>
        <time>1970-01-01T00:58:37.000Z</time>
      </trkpt>
      <trkpt lat="41.032658" lon="-6.774828">
        <ele>554.7</ele>
        <time>1970-01-01T00:58:38.000Z</time>
      </trkpt>
      <trkpt lat="41.032654" lon="-6.774847">
        <ele>554.8</ele>
        <time>1970-01-01T00:58:39.000Z</time>
      </trkpt>
      <trkpt lat="41.03265" lon="-6.774865">
        <ele>555</ele>
        <time>1970-01-01T00:58:40.000Z</time>
      </trkpt>
      <trkpt lat="41.032646" lon="-6.774883">
        <ele>555.1</ele>
        <time>1970-01-01T00:58:41.000Z</time>
      </trkpt>
      <trkpt lat="41.032641" lon="-6.774902">
        <ele>555.2</ele>
        <time>1970-01-01T00:58:42.000Z</time>
      </trkpt>
      <trkpt lat="41.032637" lon="-6.77492">
        <ele>555.4</ele>
        <time>1970-01-01T00:58:43.000Z</time>
      </trkpt>
      <trkpt lat="41.032633" lon="-6.774939">
        <ele>555.5</ele>
        <time>1970-01-01T00:58:44.000Z</time>
      </trkpt>
      <trkpt lat="41.032629" lon="-6.774958">
        <ele>555.7</ele>
        <time>1970-01-01T00:58:45.000Z</time>
      </trkpt>
      <trkpt lat="41.032624" lon="-6.774979">
        <ele>555.8</ele>
        <time>1970-01-01T00:58:46.000Z</time>
      </trkpt>
      <trkpt lat="41.032618" lon="-6.774999">
        <ele>556</ele>
        <time>1970-01-01T00:58:47.000Z</time>
      </trkpt>
      <trkpt lat="41.032613" lon="-6.775017">
        <ele>556.1</ele>
        <time>1970-01-01T00:58:48.000Z</time>
      </trkpt>
      <trkpt lat="41.03261" lon="-6.775036">
        <ele>556.3</ele>
        <time>1970-01-01T00:58:49.000Z</time>
      </trkpt>
      <trkpt lat="41.032607" lon="-6.775057">
        <ele>556.5</ele>
        <time>1970-01-01T00:58:50.000Z</time>
      </trkpt>
      <trkpt lat="41.032602" lon="-6.775078">
        <ele>556.6</ele>
        <time>1970-01-01T00:58:51.000Z</time>
      </trkpt>
      <trkpt lat="41.032599" lon="-6.775099">
        <ele>556.8</ele>
        <time>1970-01-01T00:58:52.000Z</time>
      </trkpt>
      <trkpt lat="41.032599" lon="-6.77512">
        <ele>556.9</ele>
        <time>1970-01-01T00:58:53.000Z</time>
      </trkpt>
      <trkpt lat="41.032601" lon="-6.77514">
        <ele>557.1</ele>
        <time>1970-01-01T00:58:54.000Z</time>
      </trkpt>
      <trkpt lat="41.032602" lon="-6.775159">
        <ele>557.2</ele>
        <time>1970-01-01T00:58:55.000Z</time>
      </trkpt>
      <trkpt lat="41.032605" lon="-6.775178">
        <ele>557.4</ele>
        <time>1970-01-01T00:58:56.000Z</time>
      </trkpt>
      <trkpt lat="41.032609" lon="-6.775198">
        <ele>557.5</ele>
        <time>1970-01-01T00:58:57.000Z</time>
      </trkpt>
      <trkpt lat="41.032618" lon="-6.775219">
        <ele>557.7</ele>
        <time>1970-01-01T00:58:58.000Z</time>
      </trkpt>
      <trkpt lat="41.032628" lon="-6.775238">
        <ele>557.9</ele>
        <time>1970-01-01T00:58:59.000Z</time>
      </trkpt>
      <trkpt lat="41.032639" lon="-6.775255">
        <ele>558</ele>
        <time>1970-01-01T00:59:00.000Z</time>
      </trkpt>
      <trkpt lat="41.03265" lon="-6.775271">
        <ele>558.2</ele>
        <time>1970-01-01T00:59:01.000Z</time>
      </trkpt>
      <trkpt lat="41.03266" lon="-6.775287">
        <ele>558.4</ele>
        <time>1970-01-01T00:59:02.000Z</time>
      </trkpt>
      <trkpt lat="41.03267" lon="-6.775304">
        <ele>558.5</ele>
        <time>1970-01-01T00:59:03.000Z</time>
      </trkpt>
      <trkpt lat="41.032681" lon="-6.775321">
        <ele>558.7</ele>
        <time>1970-01-01T00:59:04.000Z</time>
      </trkpt>
      <trkpt lat="41.032692" lon="-6.775339">
        <ele>558.9</ele>
        <time>1970-01-01T00:59:05.000Z</time>
      </trkpt>
      <trkpt lat="41.032703" lon="-6.775357">
        <ele>559</ele>
        <time>1970-01-01T00:59:06.000Z</time>
      </trkpt>
      <trkpt lat="41.032713" lon="-6.775376">
        <ele>559.2</ele>
        <time>1970-01-01T00:59:07.000Z</time>
      </trkpt>
      <trkpt lat="41.032722" lon="-6.775396">
        <ele>559.4</ele>
        <time>1970-01-01T00:59:08.000Z</time>
      </trkpt>
      <trkpt lat="41.032733" lon="-6.775415">
        <ele>559.6</ele>
        <time>1970-01-01T00:59:09.000Z</time>
      </trkpt>
      <trkpt lat="41.032745" lon="-6.775433">
        <ele>559.7</ele>
        <time>1970-01-01T00:59:10.000Z</time>
      </trkpt>
      <trkpt lat="41.032758" lon="-6.77545">
        <ele>559.9</ele>
        <time>1970-01-01T00:59:11.000Z</time>
      </trkpt>
      <trkpt lat="41.03277" lon="-6.775467">
        <ele>560.1</ele>
        <time>1970-01-01T00:59:12.000Z</time>
      </trkpt>
      <trkpt lat="41.032781" lon="-6.775485">
        <ele>560.3</ele>
        <time>1970-01-01T00:59:13.000Z</time>
      </trkpt>
      <trkpt lat="41.032793" lon="-6.775504">
        <ele>560.4</ele>
        <time>1970-01-01T00:59:14.000Z</time>
      </trkpt>
      <trkpt lat="41.032806" lon="-6.775523">
        <ele>560.6</ele>
        <time>1970-01-01T00:59:15.000Z</time>
      </trkpt>
      <trkpt lat="41.032817" lon="-6.775543">
        <ele>560.8</ele>
        <time>1970-01-01T00:59:16.000Z</time>
      </trkpt>
      <trkpt lat="41.032828" lon="-6.775563">
        <ele>561</ele>
        <time>1970-01-01T00:59:17.000Z</time>
      </trkpt>
      <trkpt lat="41.032838" lon="-6.775584">
        <ele>561.2</ele>
        <time>1970-01-01T00:59:18.000Z</time>
      </trkpt>
      <trkpt lat="41.032846" lon="-6.775605">
        <ele>561.4</ele>
        <time>1970-01-01T00:59:19.000Z</time>
      </trkpt>
      <trkpt lat="41.032853" lon="-6.775626">
        <ele>561.5</ele>
        <time>1970-01-01T00:59:20.000Z</time>
      </trkpt>
      <trkpt lat="41.03286" lon="-6.775647">
        <ele>561.7</ele>
        <time>1970-01-01T00:59:21.000Z</time>
      </trkpt>
      <trkpt lat="41.032867" lon="-6.775668">
        <ele>561.9</ele>
        <time>1970-01-01T00:59:22.000Z</time>
      </trkpt>
      <trkpt lat="41.032874" lon="-6.77569">
        <ele>562.1</ele>
        <time>1970-01-01T00:59:23.000Z</time>
      </trkpt>
      <trkpt lat="41.032881" lon="-6.775712">
        <ele>562.2</ele>
        <time>1970-01-01T00:59:24.000Z</time>
      </trkpt>
      <trkpt lat="41.032888" lon="-6.775735">
        <ele>562.4</ele>
        <time>1970-01-01T00:59:25.000Z</time>
      </trkpt>
      <trkpt lat="41.032895" lon="-6.775757">
        <ele>562.6</ele>
        <time>1970-01-01T00:59:26.000Z</time>
      </trkpt>
      <trkpt lat="41.032903" lon="-6.775778">
        <ele>562.8</ele>
        <time>1970-01-01T00:59:27.000Z</time>
      </trkpt>
      <trkpt lat="41.032909" lon="-6.7758">
        <ele>562.9</ele>
        <time>1970-01-01T00:59:28.000Z</time>
      </trkpt>
      <trkpt lat="41.032918" lon="-6.77582">
        <ele>563.1</ele>
        <time>1970-01-01T00:59:29.000Z</time>
      </trkpt>
      <trkpt lat="41.032929" lon="-6.775839">
        <ele>563.3</ele>
        <time>1970-01-01T00:59:30.000Z</time>
      </trkpt>
      <trkpt lat="41.032941" lon="-6.775856">
        <ele>563.5</ele>
        <time>1970-01-01T00:59:31.000Z</time>
      </trkpt>
      <trkpt lat="41.032953" lon="-6.775875">
        <ele>563.6</ele>
        <time>1970-01-01T00:59:32.000Z</time>
      </trkpt>
      <trkpt lat="41.032963" lon="-6.775895">
        <ele>563.8</ele>
        <time>1970-01-01T00:59:33.000Z</time>
      </trkpt>
      <trkpt lat="41.032974" lon="-6.775915">
        <ele>564</ele>
        <time>1970-01-01T00:59:34.000Z</time>
      </trkpt>
      <trkpt lat="41.032983" lon="-6.775934">
        <ele>564.2</ele>
        <time>1970-01-01T00:59:35.000Z</time>
      </trkpt>
      <trkpt lat="41.032992" lon="-6.775954">
        <ele>564.4</ele>
        <time>1970-01-01T00:59:36.000Z</time>
      </trkpt>
      <trkpt lat="41.033001" lon="-6.775974">
        <ele>564.5</ele>
        <time>1970-01-01T00:59:37.000Z</time>
      </trkpt>
      <trkpt lat="41.03301" lon="-6.775995">
        <ele>564.7</ele>
        <time>1970-01-01T00:59:38.000Z</time>
      </trkpt>
      <trkpt lat="41.033019" lon="-6.776015">
        <ele>564.9</ele>
        <time>1970-01-01T00:59:39.000Z</time>
      </trkpt>
      <trkpt lat="41.033029" lon="-6.776035">
        <ele>565.1</ele>
        <time>1970-01-01T00:59:40.000Z</time>
      </trkpt>
      <trkpt lat="41.033038" lon="-6.776055">
        <ele>565.2</ele>
        <time>1970-01-01T00:59:41.000Z</time>
      </trkpt>
      <trkpt lat="41.033047" lon="-6.776074">
        <ele>565.4</ele>
        <time>1970-01-01T00:59:42.000Z</time>
      </trkpt>
      <trkpt lat="41.033055" lon="-6.776094">
        <ele>565.6</ele>
        <time>1970-01-01T00:59:43.000Z</time>
      </trkpt>
      <trkpt lat="41.033064" lon="-6.776115">
        <ele>565.7</ele>
        <time>1970-01-01T00:59:44.000Z</time>
      </trkpt>
      <trkpt lat="41.033072" lon="-6.776136">
        <ele>565.9</ele>
        <time>1970-01-01T00:59:45.000Z</time>
      </trkpt>
      <trkpt lat="41.033081" lon="-6.776156">
        <ele>566.1</ele>
        <time>1970-01-01T00:59:46.000Z</time>
      </trkpt>
      <trkpt lat="41.03309" lon="-6.776177">
        <ele>566.3</ele>
        <time>1970-01-01T00:59:47.000Z</time>
      </trkpt>
      <trkpt lat="41.033099" lon="-6.776198">
        <ele>566.5</ele>
        <time>1970-01-01T00:59:48.000Z</time>
      </trkpt>
      <trkpt lat="41.033109" lon="-6.776219">
        <ele>566.6</ele>
        <time>1970-01-01T00:59:49.000Z</time>
      </trkpt>
      <trkpt lat="41.033119" lon="-6.776241">
        <ele>566.8</ele>
        <time>1970-01-01T00:59:50.000Z</time>
      </trkpt>
      <trkpt lat="41.033129" lon="-6.776262">
        <ele>567</ele>
        <time>1970-01-01T00:59:51.000Z</time>
      </trkpt>
      <trkpt lat="41.03314" lon="-6.776283">
        <ele>567.2</ele>
        <time>1970-01-01T00:59:52.000Z</time>
      </trkpt>
      <trkpt lat="41.033151" lon="-6.776304">
        <ele>567.4</ele>
        <time>1970-01-01T00:59:53.000Z</time>
      </trkpt>
      <trkpt lat="41.033165" lon="-6.776324">
        <ele>567.6</ele>
        <time>1970-01-01T00:59:54.000Z</time>
      </trkpt>
      <trkpt lat="41.033179" lon="-6.776344">
        <ele>567.8</ele>
        <time>1970-01-01T00:59:55.000Z</time>
      </trkpt>
      <trkpt lat="41.033193" lon="-6.776362">
        <ele>568</ele>
        <time>1970-01-01T00:59:56.000Z</time>
      </trkpt>
      <trkpt lat="41.033206" lon="-6.77638">
        <ele>568.2</ele>
        <time>1970-01-01T00:59:57.000Z</time>
      </trkpt>
      <trkpt lat="41.033219" lon="-6.776398">
        <ele>568.4</ele>
        <time>1970-01-01T00:59:58.000Z</time>
      </trkpt>
      <trkpt lat="41.033232" lon="-6.776417">
        <ele>568.6</ele>
        <time>1970-01-01T00:59:59.000Z</time>
      </trkpt>
      <trkpt lat="41.033247" lon="-6.776435">
        <ele>568.8</ele>
        <time>1970-01-01T01:00:00.000Z</time>
      </trkpt>
      <trkpt lat="41.033263" lon="-6.776454">
        <ele>569</ele>
        <time>1970-01-01T01:00:01.000Z</time>
      </trkpt>
      <trkpt lat="41.033278" lon="-6.776473">
        <ele>569.2</ele>
        <time>1970-01-01T01:00:02.000Z</time>
      </trkpt>
      <trkpt lat="41.033295" lon="-6.776493">
        <ele>569.4</ele>
        <time>1970-01-01T01:00:03.000Z</time>
      </trkpt>
      <trkpt lat="41.033313" lon="-6.776514">
        <ele>569.6</ele>
        <time>1970-01-01T01:00:04.000Z</time>
      </trkpt>
      <trkpt lat="41.033332" lon="-6.776535">
        <ele>569.9</ele>
        <time>1970-01-01T01:00:05.000Z</time>
      </trkpt>
      <trkpt lat="41.03335" lon="-6.776556">
        <ele>570.1</ele>
        <time>1970-01-01T01:00:06.000Z</time>
      </trkpt>
      <trkpt lat="41.033367" lon="-6.776577">
        <ele>570.3</ele>
        <time>1970-01-01T01:00:07.000Z</time>
      </trkpt>
      <trkpt lat="41.033385" lon="-6.776596">
        <ele>570.6</ele>
        <time>1970-01-01T01:00:08.000Z</time>
      </trkpt>
      <trkpt lat="41.033403" lon="-6.776616">
        <ele>570.8</ele>
        <time>1970-01-01T01:00:09.000Z</time>
      </trkpt>
      <trkpt lat="41.033421" lon="-6.776635">
        <ele>571</ele>
        <time>1970-01-01T01:00:10.000Z</time>
      </trkpt>
      <trkpt lat="41.033439" lon="-6.776655">
        <ele>571.3</ele>
        <time>1970-01-01T01:00:11.000Z</time>
      </trkpt>
      <trkpt lat="41.033456" lon="-6.776675">
        <ele>571.5</ele>
        <time>1970-01-01T01:00:12.000Z</time>
      </trkpt>
      <trkpt lat="41.033473" lon="-6.776695">
        <ele>571.7</ele>
        <time>1970-01-01T01:00:13.000Z</time>
      </trkpt>
      <trkpt lat="41.03349" lon="-6.776715">
        <ele>571.9</ele>
        <time>1970-01-01T01:00:14.000Z</time>
      </trkpt>
      <trkpt lat="41.033506" lon="-6.776734">
        <ele>572.1</ele>
        <time>1970-01-01T01:00:15.000Z</time>
      </trkpt>
      <trkpt lat="41.033521" lon="-6.776753">
        <ele>572.3</ele>
        <time>1970-01-01T01:00:16.000Z</time>
      </trkpt>
      <trkpt lat="41.033536" lon="-6.77677">
        <ele>572.5</ele>
        <time>1970-01-01T01:00:17.000Z</time>
      </trkpt>
      <trkpt lat="41.03355" lon="-6.776788">
        <ele>572.7</ele>
        <time>1970-01-01T01:00:18.000Z</time>
      </trkpt>
      <trkpt lat="41.033564" lon="-6.776805">
        <ele>572.9</ele>
        <time>1970-01-01T01:00:19.000Z</time>
      </trkpt>
      <trkpt lat="41.033577" lon="-6.776822">
        <ele>573.1</ele>
        <time>1970-01-01T01:00:20.000Z</time>
      </trkpt>
      <trkpt lat="41.03359" lon="-6.776838">
        <ele>573.3</ele>
        <time>1970-01-01T01:00:21.000Z</time>
      </trkpt>
      <trkpt lat="41.033602" lon="-6.776853">
        <ele>573.4</ele>
        <time>1970-01-01T01:00:22.000Z</time>
      </trkpt>
      <trkpt lat="41.033615" lon="-6.776869">
        <ele>573.6</ele>
        <time>1970-01-01T01:00:23.000Z</time>
      </trkpt>
      <trkpt lat="41.033627" lon="-6.776886">
        <ele>573.8</ele>
        <time>1970-01-01T01:00:24.000Z</time>
      </trkpt>
      <trkpt lat="41.033639" lon="-6.776902">
        <ele>574</ele>
        <time>1970-01-01T01:00:25.000Z</time>
      </trkpt>
      <trkpt lat="41.03365" lon="-6.776916">
        <ele>574.1</ele>
        <time>1970-01-01T01:00:26.000Z</time>
      </trkpt>
      <trkpt lat="41.03366" lon="-6.776931">
        <ele>574.3</ele>
        <time>1970-01-01T01:00:27.000Z</time>
      </trkpt>
      <trkpt lat="41.033665" lon="-6.776945">
        <ele>574.4</ele>
        <time>1970-01-01T01:00:28.000Z</time>
      </trkpt>
      <trkpt lat="41.033666" lon="-6.776958">
        <ele>574.5</ele>
        <time>1970-01-01T01:00:29.000Z</time>
      </trkpt>
      <trkpt lat="41.033663" lon="-6.776967">
        <ele>574.5</ele>
        <time>1970-01-01T01:00:30.000Z</time>
      </trkpt>
      <trkpt lat="41.03366" lon="-6.776976">
        <ele>574.6</ele>
        <time>1970-01-01T01:00:31.000Z</time>
      </trkpt>
      <trkpt lat="41.033656" lon="-6.776984">
        <ele>574.7</ele>
        <time>1970-01-01T01:00:32.000Z</time>
      </trkpt>
      <trkpt lat="41.033653" lon="-6.776993">
        <ele>574.8</ele>
        <time>1970-01-01T01:00:33.000Z</time>
      </trkpt>
      <trkpt lat="41.033651" lon="-6.777001">
        <ele>574.8</ele>
        <time>1970-01-01T01:00:34.000Z</time>
      </trkpt>
      <trkpt lat="41.033647" lon="-6.777008">
        <ele>574.9</ele>
        <time>1970-01-01T01:00:35.000Z</time>
      </trkpt>
      <trkpt lat="41.033642" lon="-6.777012">
        <ele>574.9</ele>
        <time>1970-01-01T01:00:36.000Z</time>
      </trkpt>
      <trkpt lat="41.033636" lon="-6.777014">
        <ele>575</ele>
        <time>1970-01-01T01:00:37.000Z</time>
      </trkpt>
      <trkpt lat="41.033629" lon="-6.777016">
        <ele>575.1</ele>
        <time>1970-01-01T01:00:38.000Z</time>
      </trkpt>
      <trkpt lat="41.033622" lon="-6.777019">
        <ele>575.2</ele>
        <time>1970-01-01T01:00:39.000Z</time>
      </trkpt>
      <trkpt lat="41.033612" lon="-6.777023">
        <ele>575.5</ele>
        <time>1970-01-01T01:00:40.000Z</time>
      </trkpt>
      <trkpt lat="41.033601" lon="-6.777028">
        <ele>575.6</ele>
        <time>1970-01-01T01:00:41.000Z</time>
      </trkpt>
      <trkpt lat="41.033591" lon="-6.777032">
        <ele>575.6</ele>
        <time>1970-01-01T01:00:42.000Z</time>
      </trkpt>
      <trkpt lat="41.033583" lon="-6.777035">
        <ele>575.6</ele>
        <time>1970-01-01T01:00:43.000Z</time>
      </trkpt>
      <trkpt lat="41.033577" lon="-6.777035">
        <ele>575.6</ele>
        <time>1970-01-01T01:00:44.000Z</time>
      </trkpt>
      <trkpt lat="41.033571" lon="-6.777034">
        <ele>575.7</ele>
        <time>1970-01-01T01:00:45.000Z</time>
      </trkpt>
      <trkpt lat="41.033563" lon="-6.777034">
        <ele>575.7</ele>
        <time>1970-01-01T01:00:46.000Z</time>
      </trkpt>
      <trkpt lat="41.033552" lon="-6.777036">
        <ele>575.7</ele>
        <time>1970-01-01T01:00:47.000Z</time>
      </trkpt>
      <trkpt lat="41.03354" lon="-6.77704">
        <ele>575.7</ele>
        <time>1970-01-01T01:00:48.000Z</time>
      </trkpt>
      <trkpt lat="41.033528" lon="-6.777049">
        <ele>575.8</ele>
        <time>1970-01-01T01:00:49.000Z</time>
      </trkpt>
      <trkpt lat="41.033516" lon="-6.77706">
        <ele>575.8</ele>
        <time>1970-01-01T01:00:50.000Z</time>
      </trkpt>
      <trkpt lat="41.033502" lon="-6.77707">
        <ele>575.9</ele>
        <time>1970-01-01T01:00:51.000Z</time>
      </trkpt>
      <trkpt lat="41.033485" lon="-6.777078">
        <ele>575.9</ele>
        <time>1970-01-01T01:00:52.000Z</time>
      </trkpt>
      <trkpt lat="41.033466" lon="-6.777084">
        <ele>576</ele>
        <time>1970-01-01T01:00:53.000Z</time>
      </trkpt>
      <trkpt lat="41.033446" lon="-6.777091">
        <ele>576</ele>
        <time>1970-01-01T01:00:54.000Z</time>
      </trkpt>
      <trkpt lat="41.033425" lon="-6.777098">
        <ele>576.1</ele>
        <time>1970-01-01T01:00:55.000Z</time>
      </trkpt>
      <trkpt lat="41.033406" lon="-6.777106">
        <ele>576.2</ele>
        <time>1970-01-01T01:00:56.000Z</time>
      </trkpt>
      <trkpt lat="41.033386" lon="-6.777112">
        <ele>576.2</ele>
        <time>1970-01-01T01:00:57.000Z</time>
      </trkpt>
      <trkpt lat="41.033366" lon="-6.777119">
        <ele>576.3</ele>
        <time>1970-01-01T01:00:58.000Z</time>
      </trkpt>
      <trkpt lat="41.033345" lon="-6.777126">
        <ele>576.3</ele>
        <time>1970-01-01T01:00:59.000Z</time>
      </trkpt>
      <trkpt lat="41.033324" lon="-6.777133">
        <ele>576.4</ele>
        <time>1970-01-01T01:01:00.000Z</time>
      </trkpt>
      <trkpt lat="41.033303" lon="-6.77714">
        <ele>576.5</ele>
        <time>1970-01-01T01:01:01.000Z</time>
      </trkpt>
      <trkpt lat="41.033281" lon="-6.777147">
        <ele>576.5</ele>
        <time>1970-01-01T01:01:02.000Z</time>
      </trkpt>
      <trkpt lat="41.03326" lon="-6.777155">
        <ele>576.6</ele>
        <time>1970-01-01T01:01:03.000Z</time>
      </trkpt>
      <trkpt lat="41.033238" lon="-6.777164">
        <ele>576.6</ele>
        <time>1970-01-01T01:01:04.000Z</time>
      </trkpt>
      <trkpt lat="41.033215" lon="-6.777173">
        <ele>576.7</ele>
        <time>1970-01-01T01:01:05.000Z</time>
      </trkpt>
      <trkpt lat="41.033193" lon="-6.777181">
        <ele>576.8</ele>
        <time>1970-01-01T01:01:06.000Z</time>
      </trkpt>
      <trkpt lat="41.033171" lon="-6.777188">
        <ele>576.8</ele>
        <time>1970-01-01T01:01:07.000Z</time>
      </trkpt>
      <trkpt lat="41.033153" lon="-6.777194">
        <ele>576.9</ele>
        <time>1970-01-01T01:01:08.000Z</time>
      </trkpt>
      <trkpt lat="41.033137" lon="-6.7772">
        <ele>576.9</ele>
        <time>1970-01-01T01:01:09.000Z</time>
      </trkpt>
      <trkpt lat="41.033123" lon="-6.777206">
        <ele>577</ele>
        <time>1970-01-01T01:01:10.000Z</time>
      </trkpt>
      <trkpt lat="41.03311" lon="-6.777212">
        <ele>577</ele>
        <time>1970-01-01T01:01:11.000Z</time>
      </trkpt>
      <trkpt lat="41.033096" lon="-6.777215">
        <ele>577.1</ele>
        <time>1970-01-01T01:01:12.000Z</time>
      </trkpt>
      <trkpt lat="41.033081" lon="-6.777216">
        <ele>577.1</ele>
        <time>1970-01-01T01:01:13.000Z</time>
      </trkpt>
      <trkpt lat="41.033065" lon="-6.777217">
        <ele>577.2</ele>
        <time>1970-01-01T01:01:14.000Z</time>
      </trkpt>
      <trkpt lat="41.033049" lon="-6.77722">
        <ele>577.2</ele>
        <time>1970-01-01T01:01:15.000Z</time>
      </trkpt>
      <trkpt lat="41.033034" lon="-6.777226">
        <ele>577.2</ele>
        <time>1970-01-01T01:01:16.000Z</time>
      </trkpt>
      <trkpt lat="41.033019" lon="-6.777237">
        <ele>577.3</ele>
        <time>1970-01-01T01:01:17.000Z</time>
      </trkpt>
      <trkpt lat="41.033006" lon="-6.77725">
        <ele>577.3</ele>
        <time>1970-01-01T01:01:18.000Z</time>
      </trkpt>
      <trkpt lat="41.032994" lon="-6.777268">
        <ele>577.4</ele>
        <time>1970-01-01T01:01:19.000Z</time>
      </trkpt>
      <trkpt lat="41.032984" lon="-6.777286">
        <ele>577.4</ele>
        <time>1970-01-01T01:01:20.000Z</time>
      </trkpt>
      <trkpt lat="41.032975" lon="-6.777305">
        <ele>577.5</ele>
        <time>1970-01-01T01:01:21.000Z</time>
      </trkpt>
      <trkpt lat="41.032969" lon="-6.777321">
        <ele>578.1</ele>
        <time>1970-01-01T01:01:22.000Z</time>
      </trkpt>
      <trkpt lat="41.032963" lon="-6.777336">
        <ele>578.2</ele>
        <time>1970-01-01T01:01:23.000Z</time>
      </trkpt>
      <trkpt lat="41.032958" lon="-6.777349">
        <ele>578.2</ele>
        <time>1970-01-01T01:01:24.000Z</time>
      </trkpt>
      <trkpt lat="41.032958" lon="-6.777363">
        <ele>578.2</ele>
        <time>1970-01-01T01:01:25.000Z</time>
      </trkpt>
      <trkpt lat="41.032962" lon="-6.777376">
        <ele>578.3</ele>
        <time>1970-01-01T01:01:26.000Z</time>
      </trkpt>
      <trkpt lat="41.032965" lon="-6.777388">
        <ele>578.3</ele>
        <time>1970-01-01T01:01:27.000Z</time>
      </trkpt>
      <trkpt lat="41.032967" lon="-6.777396">
        <ele>578.3</ele>
        <time>1970-01-01T01:01:28.000Z</time>
      </trkpt>
      <trkpt lat="41.032966" lon="-6.7774">
        <ele>578.3</ele>
        <time>1970-01-01T01:01:29.000Z</time>
      </trkpt>
      <trkpt lat="41.032966" lon="-6.777401">
        <ele>578.3</ele>
        <time>1970-01-01T01:01:30.000Z</time>
      </trkpt>
      <trkpt lat="41.032965" lon="-6.777403">
        <ele>578.3</ele>
        <time>1970-01-01T01:01:31.000Z</time>
      </trkpt>
      <trkpt lat="41.032965" lon="-6.777404">
        <ele>578.3</ele>
        <time>1970-01-01T01:01:32.000Z</time>
      </trkpt>
      <trkpt lat="41.032965" lon="-6.777406">
        <ele>578.3</ele>
        <time>1970-01-01T01:01:33.000Z</time>
      </trkpt>
      <trkpt lat="41.032965" lon="-6.777407">
        <ele>578.3</ele>
        <time>1970-01-01T01:01:34.000Z</time>
      </trkpt>
      <trkpt lat="41.032994" lon="-6.777447">
        <ele>578.5</ele>
        <time>1970-01-01T01:01:35.000Z</time>
      </trkpt>
      <trkpt lat="41.033001" lon="-6.777461">
        <ele>578.5</ele>
        <time>1970-01-01T01:01:36.000Z</time>
      </trkpt>
      <trkpt lat="41.033009" lon="-6.777474">
        <ele>578.5</ele>
        <time>1970-01-01T01:01:54.000Z</time>
      </trkpt>
      <trkpt lat="41.033019" lon="-6.777485">
        <ele>578.6</ele>
        <time>1970-01-01T01:01:55.000Z</time>
      </trkpt>
      <trkpt lat="41.033029" lon="-6.777495">
        <ele>578.6</ele>
        <time>1970-01-01T01:01:56.000Z</time>
      </trkpt>
      <trkpt lat="41.03304" lon="-6.777508">
        <ele>578.6</ele>
        <time>1970-01-01T01:01:57.000Z</time>
      </trkpt>
      <trkpt lat="41.033049" lon="-6.777523">
        <ele>578.7</ele>
        <time>1970-01-01T01:01:58.000Z</time>
      </trkpt>
      <trkpt lat="41.033059" lon="-6.777539">
        <ele>578.7</ele>
        <time>1970-01-01T01:01:59.000Z</time>
      </trkpt>
      <trkpt lat="41.03307" lon="-6.777555">
        <ele>578.8</ele>
        <time>1970-01-01T01:02:00.000Z</time>
      </trkpt>
      <trkpt lat="41.033082" lon="-6.77757">
        <ele>578.8</ele>
        <time>1970-01-01T01:02:01.000Z</time>
      </trkpt>
      <trkpt lat="41.033095" lon="-6.777585">
        <ele>578.9</ele>
        <time>1970-01-01T01:02:02.000Z</time>
      </trkpt>
      <trkpt lat="41.033108" lon="-6.7776">
        <ele>578.9</ele>
        <time>1970-01-01T01:02:03.000Z</time>
      </trkpt>
      <trkpt lat="41.033121" lon="-6.777616">
        <ele>579</ele>
        <time>1970-01-01T01:02:04.000Z</time>
      </trkpt>
      <trkpt lat="41.033132" lon="-6.777632">
        <ele>579</ele>
        <time>1970-01-01T01:02:05.000Z</time>
      </trkpt>
      <trkpt lat="41.033142" lon="-6.777648">
        <ele>579.1</ele>
        <time>1970-01-01T01:02:06.000Z</time>
      </trkpt>
      <trkpt lat="41.033152" lon="-6.777663">
        <ele>579.1</ele>
        <time>1970-01-01T01:02:07.000Z</time>
      </trkpt>
      <trkpt lat="41.033162" lon="-6.777676">
        <ele>579.2</ele>
        <time>1970-01-01T01:02:08.000Z</time>
      </trkpt>
      <trkpt lat="41.033174" lon="-6.777687">
        <ele>579.2</ele>
        <time>1970-01-01T01:02:09.000Z</time>
      </trkpt>
      <trkpt lat="41.033186" lon="-6.777698">
        <ele>579.3</ele>
        <time>1970-01-01T01:02:10.000Z</time>
      </trkpt>
      <trkpt lat="41.033199" lon="-6.777709">
        <ele>579.3</ele>
        <time>1970-01-01T01:02:11.000Z</time>
      </trkpt>
      <trkpt lat="41.033212" lon="-6.777723">
        <ele>579.4</ele>
        <time>1970-01-01T01:02:12.000Z</time>
      </trkpt>
      <trkpt lat="41.033224" lon="-6.77774">
        <ele>579.4</ele>
        <time>1970-01-01T01:02:13.000Z</time>
      </trkpt>
      <trkpt lat="41.033237" lon="-6.777757">
        <ele>579.5</ele>
        <time>1970-01-01T01:02:14.000Z</time>
      </trkpt>
      <trkpt lat="41.03325" lon="-6.777774">
        <ele>579.5</ele>
        <time>1970-01-01T01:02:15.000Z</time>
      </trkpt>
      <trkpt lat="41.033265" lon="-6.777793">
        <ele>579.6</ele>
        <time>1970-01-01T01:02:16.000Z</time>
      </trkpt>
      <trkpt lat="41.033279" lon="-6.777811">
        <ele>579.6</ele>
        <time>1970-01-01T01:02:17.000Z</time>
      </trkpt>
      <trkpt lat="41.033293" lon="-6.77783">
        <ele>579.7</ele>
        <time>1970-01-01T01:02:18.000Z</time>
      </trkpt>
      <trkpt lat="41.033307" lon="-6.777848">
        <ele>579.8</ele>
        <time>1970-01-01T01:02:19.000Z</time>
      </trkpt>
      <trkpt lat="41.033321" lon="-6.777866">
        <ele>579.8</ele>
        <time>1970-01-01T01:02:20.000Z</time>
      </trkpt>
      <trkpt lat="41.033336" lon="-6.777884">
        <ele>579.9</ele>
        <time>1970-01-01T01:02:21.000Z</time>
      </trkpt>
      <trkpt lat="41.033351" lon="-6.777902">
        <ele>579.9</ele>
        <time>1970-01-01T01:02:22.000Z</time>
      </trkpt>
      <trkpt lat="41.033366" lon="-6.777918">
        <ele>580</ele>
        <time>1970-01-01T01:02:23.000Z</time>
      </trkpt>
      <trkpt lat="41.033381" lon="-6.777934">
        <ele>580</ele>
        <time>1970-01-01T01:02:24.000Z</time>
      </trkpt>
      <trkpt lat="41.033395" lon="-6.777949">
        <ele>580.1</ele>
        <time>1970-01-01T01:02:25.000Z</time>
      </trkpt>
      <trkpt lat="41.033409" lon="-6.777964">
        <ele>580.2</ele>
        <time>1970-01-01T01:02:26.000Z</time>
      </trkpt>
      <trkpt lat="41.033424" lon="-6.777979">
        <ele>580.2</ele>
        <time>1970-01-01T01:02:27.000Z</time>
      </trkpt>
      <trkpt lat="41.033439" lon="-6.777994">
        <ele>580.3</ele>
        <time>1970-01-01T01:02:28.000Z</time>
      </trkpt>
      <trkpt lat="41.033454" lon="-6.778013">
        <ele>580.3</ele>
        <time>1970-01-01T01:02:29.000Z</time>
      </trkpt>
      <trkpt lat="41.033471" lon="-6.778032">
        <ele>580.4</ele>
        <time>1970-01-01T01:02:30.000Z</time>
      </trkpt>
      <trkpt lat="41.03349" lon="-6.778048">
        <ele>580.5</ele>
        <time>1970-01-01T01:02:31.000Z</time>
      </trkpt>
      <trkpt lat="41.03351" lon="-6.778063">
        <ele>580.5</ele>
        <time>1970-01-01T01:02:32.000Z</time>
      </trkpt>
      <trkpt lat="41.033529" lon="-6.778078">
        <ele>580.6</ele>
        <time>1970-01-01T01:02:33.000Z</time>
      </trkpt>
      <trkpt lat="41.033547" lon="-6.778093">
        <ele>580.7</ele>
        <time>1970-01-01T01:02:34.000Z</time>
      </trkpt>
      <trkpt lat="41.033565" lon="-6.778107">
        <ele>580.7</ele>
        <time>1970-01-01T01:02:35.000Z</time>
      </trkpt>
      <trkpt lat="41.033583" lon="-6.778119">
        <ele>580.8</ele>
        <time>1970-01-01T01:02:36.000Z</time>
      </trkpt>
      <trkpt lat="41.0336" lon="-6.778132">
        <ele>580.8</ele>
        <time>1970-01-01T01:02:37.000Z</time>
      </trkpt>
      <trkpt lat="41.033618" lon="-6.778146">
        <ele>580.9</ele>
        <time>1970-01-01T01:02:38.000Z</time>
      </trkpt>
      <trkpt lat="41.033638" lon="-6.77816">
        <ele>581</ele>
        <time>1970-01-01T01:02:39.000Z</time>
      </trkpt>
      <trkpt lat="41.033657" lon="-6.778172">
        <ele>581</ele>
        <time>1970-01-01T01:02:40.000Z</time>
      </trkpt>
      <trkpt lat="41.033676" lon="-6.778183">
        <ele>581.1</ele>
        <time>1970-01-01T01:02:41.000Z</time>
      </trkpt>
      <trkpt lat="41.033695" lon="-6.778194">
        <ele>581.2</ele>
        <time>1970-01-01T01:02:42.000Z</time>
      </trkpt>
      <trkpt lat="41.033714" lon="-6.778204">
        <ele>581.2</ele>
        <time>1970-01-01T01:02:43.000Z</time>
      </trkpt>
      <trkpt lat="41.033734" lon="-6.778216">
        <ele>581.3</ele>
        <time>1970-01-01T01:02:44.000Z</time>
      </trkpt>
      <trkpt lat="41.033755" lon="-6.778228">
        <ele>581.3</ele>
        <time>1970-01-01T01:02:45.000Z</time>
      </trkpt>
      <trkpt lat="41.033777" lon="-6.778241">
        <ele>581.4</ele>
        <time>1970-01-01T01:02:46.000Z</time>
      </trkpt>
      <trkpt lat="41.033798" lon="-6.778253">
        <ele>581.5</ele>
        <time>1970-01-01T01:02:47.000Z</time>
      </trkpt>
      <trkpt lat="41.033819" lon="-6.778265">
        <ele>581.6</ele>
        <time>1970-01-01T01:02:48.000Z</time>
      </trkpt>
      <trkpt lat="41.03384" lon="-6.778277">
        <ele>581.6</ele>
        <time>1970-01-01T01:02:49.000Z</time>
      </trkpt>
      <trkpt lat="41.033861" lon="-6.77829">
        <ele>581.7</ele>
        <time>1970-01-01T01:02:50.000Z</time>
      </trkpt>
      <trkpt lat="41.033882" lon="-6.778303">
        <ele>581.8</ele>
        <time>1970-01-01T01:02:51.000Z</time>
      </trkpt>
      <trkpt lat="41.033902" lon="-6.778315">
        <ele>581.8</ele>
        <time>1970-01-01T01:02:52.000Z</time>
      </trkpt>
      <trkpt lat="41.033921" lon="-6.778328">
        <ele>581.9</ele>
        <time>1970-01-01T01:02:53.000Z</time>
      </trkpt>
      <trkpt lat="41.03394" lon="-6.778341">
        <ele>582</ele>
        <time>1970-01-01T01:02:54.000Z</time>
      </trkpt>
      <trkpt lat="41.033959" lon="-6.778355">
        <ele>582</ele>
        <time>1970-01-01T01:02:55.000Z</time>
      </trkpt>
      <trkpt lat="41.033976" lon="-6.778369">
        <ele>582.1</ele>
        <time>1970-01-01T01:02:56.000Z</time>
      </trkpt>
      <trkpt lat="41.033994" lon="-6.778385">
        <ele>582.1</ele>
        <time>1970-01-01T01:02:57.000Z</time>
      </trkpt>
      <trkpt lat="41.034008" lon="-6.7784">
        <ele>582.2</ele>
        <time>1970-01-01T01:02:58.000Z</time>
      </trkpt>
      <trkpt lat="41.034019" lon="-6.778414">
        <ele>582.2</ele>
        <time>1970-01-01T01:02:59.000Z</time>
      </trkpt>
      <trkpt lat="41.034028" lon="-6.778428">
        <ele>582.3</ele>
        <time>1970-01-01T01:03:00.000Z</time>
      </trkpt>
      <trkpt lat="41.034036" lon="-6.778442">
        <ele>582.3</ele>
        <time>1970-01-01T01:03:01.000Z</time>
      </trkpt>
      <trkpt lat="41.034044" lon="-6.778454">
        <ele>582.4</ele>
        <time>1970-01-01T01:03:02.000Z</time>
      </trkpt>
      <trkpt lat="41.034051" lon="-6.778466">
        <ele>582.4</ele>
        <time>1970-01-01T01:03:03.000Z</time>
      </trkpt>
      <trkpt lat="41.034057" lon="-6.778477">
        <ele>582.4</ele>
        <time>1970-01-01T01:03:04.000Z</time>
      </trkpt>
      <trkpt lat="41.034059" lon="-6.778488">
        <ele>582.4</ele>
        <time>1970-01-01T01:03:05.000Z</time>
      </trkpt>
      <trkpt lat="41.034061" lon="-6.778494">
        <ele>582.5</ele>
        <time>1970-01-01T01:03:06.000Z</time>
      </trkpt>
      <trkpt lat="41.03406" lon="-6.778496">
        <ele>582.5</ele>
        <time>1970-01-01T01:03:07.000Z</time>
      </trkpt>
      <trkpt lat="41.034061" lon="-6.778496">
        <ele>582.5</ele>
        <time>1970-01-01T01:03:08.000Z</time>
      </trkpt>
      <trkpt lat="41.034062" lon="-6.778495">
        <ele>582.5</ele>
        <time>1970-01-01T01:03:09.000Z</time>
      </trkpt>
      <trkpt lat="41.034062" lon="-6.778496">
        <ele>582.5</ele>
        <time>1970-01-01T01:03:10.000Z</time>
      </trkpt>
      <trkpt lat="41.034061" lon="-6.778497">
        <ele>582.5</ele>
        <time>1970-01-01T01:03:11.000Z</time>
      </trkpt>
      <trkpt lat="41.03406" lon="-6.778499">
        <ele>582.5</ele>
        <time>1970-01-01T01:03:12.000Z</time>
      </trkpt>
      <trkpt lat="41.034059" lon="-6.778501">
        <ele>582.5</ele>
        <time>1970-01-01T01:03:13.000Z</time>
      </trkpt>
      <trkpt lat="41.034059" lon="-6.778502">
        <ele>582.5</ele>
        <time>1970-01-01T01:03:14.000Z</time>
      </trkpt>
      <trkpt lat="41.034074" lon="-6.778543">
        <ele>582.6</ele>
        <time>1970-01-01T01:03:15.000Z</time>
      </trkpt>
      <trkpt lat="41.034076" lon="-6.778549">
        <ele>582.6</ele>
        <time>1970-01-01T01:03:16.000Z</time>
      </trkpt>
      <trkpt lat="41.034077" lon="-6.778552">
        <ele>582.6</ele>
        <time>1970-01-01T01:03:52.000Z</time>
      </trkpt>
      <trkpt lat="41.034077" lon="-6.778554">
        <ele>582.6</ele>
        <time>1970-01-01T01:03:53.000Z</time>
      </trkpt>
      <trkpt lat="41.034077" lon="-6.778554">
        <ele>582.6</ele>
        <time>1970-01-01T01:03:54.000Z</time>
      </trkpt>
      <trkpt lat="41.034077" lon="-6.778554">
        <ele>582.6</ele>
        <time>1970-01-01T01:03:55.000Z</time>
      </trkpt>
      <trkpt lat="41.034078" lon="-6.778555">
        <ele>582.6</ele>
        <time>1970-01-01T01:03:56.000Z</time>
      </trkpt>
      <trkpt lat="41.034078" lon="-6.778555">
        <ele>582.6</ele>
        <time>1970-01-01T01:03:57.000Z</time>
      </trkpt>
      <trkpt lat="41.034079" lon="-6.778556">
        <ele>582.6</ele>
        <time>1970-01-01T01:03:58.000Z</time>
      </trkpt>
      <trkpt lat="41.034117" lon="-6.778579">
        <ele>582.8</ele>
        <time>1970-01-01T01:03:59.000Z</time>
      </trkpt>
      <trkpt lat="41.034127" lon="-6.778583">
        <ele>582.8</ele>
        <time>1970-01-01T01:04:00.000Z</time>
      </trkpt>
      <trkpt lat="41.034138" lon="-6.778585">
        <ele>582.8</ele>
        <time>1970-01-01T01:05:48.000Z</time>
      </trkpt>
      <trkpt lat="41.034148" lon="-6.778585">
        <ele>582.7</ele>
        <time>1970-01-01T01:05:49.000Z</time>
      </trkpt>
      <trkpt lat="41.034153" lon="-6.778585">
        <ele>582.7</ele>
        <time>1970-01-01T01:05:50.000Z</time>
      </trkpt>
      <trkpt lat="41.034154" lon="-6.778584">
        <ele>582.7</ele>
        <time>1970-01-01T01:05:51.000Z</time>
      </trkpt>
      <trkpt lat="41.034154" lon="-6.778583">
        <ele>582.7</ele>
        <time>1970-01-01T01:05:52.000Z</time>
      </trkpt>
      <trkpt lat="41.034153" lon="-6.778583">
        <ele>582.7</ele>
        <time>1970-01-01T01:05:53.000Z</time>
      </trkpt>
      <trkpt lat="41.034153" lon="-6.778583">
        <ele>582.7</ele>
        <time>1970-01-01T01:05:54.000Z</time>
      </trkpt>
      <trkpt lat="41.034153" lon="-6.778583">
        <ele>582.7</ele>
        <time>1970-01-01T01:05:55.000Z</time>
      </trkpt>
      <trkpt lat="41.034153" lon="-6.778583">
        <ele>582.7</ele>
        <time>1970-01-01T01:05:56.000Z</time>
      </trkpt>
      <trkpt lat="41.034154" lon="-6.778581">
        <ele>582.7</ele>
        <time>1970-01-01T01:05:57.000Z</time>
      </trkpt>
      <trkpt lat="41.034158" lon="-6.778578">
        <ele>582.7</ele>
        <time>1970-01-01T01:05:58.000Z</time>
      </trkpt>
      <trkpt lat="41.034161" lon="-6.778576">
        <ele>582.7</ele>
        <time>1970-01-01T01:05:59.000Z</time>
      </trkpt>
      <trkpt lat="41.034164" lon="-6.778575">
        <ele>582.7</ele>
        <time>1970-01-01T01:06:00.000Z</time>
      </trkpt>
      <trkpt lat="41.034165" lon="-6.778575">
        <ele>582.7</ele>
        <time>1970-01-01T01:06:01.000Z</time>
      </trkpt>
      <trkpt lat="41.034165" lon="-6.778574">
        <ele>582.7</ele>
        <time>1970-01-01T01:06:02.000Z</time>
      </trkpt>
      <trkpt lat="41.034177" lon="-6.778578">
        <ele>582.7</ele>
        <time>1970-01-01T01:06:03.000Z</time>
      </trkpt>
      <trkpt lat="41.034179" lon="-6.778579">
        <ele>582.7</ele>
        <time>1970-01-01T01:06:04.000Z</time>
      </trkpt>
      <trkpt lat="41.03418" lon="-6.77858">
        <ele>582.7</ele>
        <time>1970-01-01T01:06:20.000Z</time>
      </trkpt>
      <trkpt lat="41.034181" lon="-6.77858">
        <ele>582.7</ele>
        <time>1970-01-01T01:06:21.000Z</time>
      </trkpt>
      <trkpt lat="41.034182" lon="-6.778581">
        <ele>582.7</ele>
        <time>1970-01-01T01:06:22.000Z</time>
      </trkpt>
      <trkpt lat="41.034183" lon="-6.778581">
        <ele>582.7</ele>
        <time>1970-01-01T01:06:23.000Z</time>
      </trkpt>
      <trkpt lat="41.034216" lon="-6.778547">
        <ele>582.8</ele>
        <time>1970-01-01T01:06:24.000Z</time>
      </trkpt>
      <trkpt lat="41.034227" lon="-6.778534">
        <ele>582.8</ele>
        <time>1970-01-01T01:06:25.000Z</time>
      </trkpt>
      <trkpt lat="41.034239" lon="-6.77852">
        <ele>582.9</ele>
        <time>1970-01-01T01:07:15.000Z</time>
      </trkpt>
      <trkpt lat="41.034252" lon="-6.778502">
        <ele>582.8</ele>
        <time>1970-01-01T01:07:16.000Z</time>
      </trkpt>
      <trkpt lat="41.034266" lon="-6.778482">
        <ele>582.8</ele>
        <time>1970-01-01T01:07:17.000Z</time>
      </trkpt>
      <trkpt lat="41.034282" lon="-6.778462">
        <ele>582.9</ele>
        <time>1970-01-01T01:07:18.000Z</time>
      </trkpt>
      <trkpt lat="41.0343" lon="-6.778445">
        <ele>582.9</ele>
        <time>1970-01-01T01:07:19.000Z</time>
      </trkpt>
      <trkpt lat="41.034319" lon="-6.778434">
        <ele>582.9</ele>
        <time>1970-01-01T01:07:20.000Z</time>
      </trkpt>
      <trkpt lat="41.034337" lon="-6.778429">
        <ele>582.9</ele>
        <time>1970-01-01T01:07:21.000Z</time>
      </trkpt>
      <trkpt lat="41.034355" lon="-6.77843">
        <ele>582.8</ele>
        <time>1970-01-01T01:07:22.000Z</time>
      </trkpt>
      <trkpt lat="41.034372" lon="-6.778436">
        <ele>582.5</ele>
        <time>1970-01-01T01:07:23.000Z</time>
      </trkpt>
      <trkpt lat="41.034387" lon="-6.778446">
        <ele>582.5</ele>
        <time>1970-01-01T01:07:24.000Z</time>
      </trkpt>
      <trkpt lat="41.034405" lon="-6.77846">
        <ele>582.4</ele>
        <time>1970-01-01T01:07:25.000Z</time>
      </trkpt>
      <trkpt lat="41.034424" lon="-6.778475">
        <ele>582.4</ele>
        <time>1970-01-01T01:07:26.000Z</time>
      </trkpt>
      <trkpt lat="41.034444" lon="-6.778484">
        <ele>582</ele>
        <time>1970-01-01T01:07:27.000Z</time>
      </trkpt>
      <trkpt lat="41.034464" lon="-6.778487">
        <ele>582</ele>
        <time>1970-01-01T01:07:28.000Z</time>
      </trkpt>
      <trkpt lat="41.034484" lon="-6.778484">
        <ele>581.8</ele>
        <time>1970-01-01T01:07:29.000Z</time>
      </trkpt>
      <trkpt lat="41.034505" lon="-6.77848">
        <ele>581.6</ele>
        <time>1970-01-01T01:07:30.000Z</time>
      </trkpt>
      <trkpt lat="41.034526" lon="-6.778474">
        <ele>581.9</ele>
        <time>1970-01-01T01:07:31.000Z</time>
      </trkpt>
      <trkpt lat="41.03455" lon="-6.778467">
        <ele>581.8</ele>
        <time>1970-01-01T01:07:32.000Z</time>
      </trkpt>
      <trkpt lat="41.034577" lon="-6.77846">
        <ele>581.6</ele>
        <time>1970-01-01T01:07:33.000Z</time>
      </trkpt>
      <trkpt lat="41.034605" lon="-6.778455">
        <ele>581.5</ele>
        <time>1970-01-01T01:07:34.000Z</time>
      </trkpt>
      <trkpt lat="41.034635" lon="-6.778454">
        <ele>581.4</ele>
        <time>1970-01-01T01:07:35.000Z</time>
      </trkpt>
      <trkpt lat="41.034666" lon="-6.778458">
        <ele>581.3</ele>
        <time>1970-01-01T01:07:36.000Z</time>
      </trkpt>
      <trkpt lat="41.034701" lon="-6.778467">
        <ele>581.2</ele>
        <time>1970-01-01T01:07:37.000Z</time>
      </trkpt>
      <trkpt lat="41.034739" lon="-6.778483">
        <ele>580.8</ele>
        <time>1970-01-01T01:07:38.000Z</time>
      </trkpt>
      <trkpt lat="41.03478" lon="-6.778503">
        <ele>580.8</ele>
        <time>1970-01-01T01:07:39.000Z</time>
      </trkpt>
      <trkpt lat="41.034822" lon="-6.778531">
        <ele>580.4</ele>
        <time>1970-01-01T01:07:40.000Z</time>
      </trkpt>
      <trkpt lat="41.034861" lon="-6.778567">
        <ele>579.7</ele>
        <time>1970-01-01T01:07:41.000Z</time>
      </trkpt>
      <trkpt lat="41.034894" lon="-6.778613">
        <ele>579.3</ele>
        <time>1970-01-01T01:07:42.000Z</time>
      </trkpt>
      <trkpt lat="41.034922" lon="-6.778664">
        <ele>578.8</ele>
        <time>1970-01-01T01:07:43.000Z</time>
      </trkpt>
      <trkpt lat="41.034946" lon="-6.778714">
        <ele>578.3</ele>
        <time>1970-01-01T01:07:44.000Z</time>
      </trkpt>
      <trkpt lat="41.034968" lon="-6.778757">
        <ele>577.6</ele>
        <time>1970-01-01T01:07:45.000Z</time>
      </trkpt>
      <trkpt lat="41.034989" lon="-6.778795">
        <ele>577</ele>
        <time>1970-01-01T01:07:46.000Z</time>
      </trkpt>
      <trkpt lat="41.03501" lon="-6.778826">
        <ele>576.3</ele>
        <time>1970-01-01T01:07:47.000Z</time>
      </trkpt>
      <trkpt lat="41.03503" lon="-6.778851">
        <ele>576.3</ele>
        <time>1970-01-01T01:07:48.000Z</time>
      </trkpt>
      <trkpt lat="41.035049" lon="-6.778869">
        <ele>575.6</ele>
        <time>1970-01-01T01:07:49.000Z</time>
      </trkpt>
      <trkpt lat="41.035069" lon="-6.778885">
        <ele>575.6</ele>
        <time>1970-01-01T01:07:50.000Z</time>
      </trkpt>
      <trkpt lat="41.035087" lon="-6.778899">
        <ele>575.6</ele>
        <time>1970-01-01T01:07:51.000Z</time>
      </trkpt>
      <trkpt lat="41.035103" lon="-6.778912">
        <ele>574.9</ele>
        <time>1970-01-01T01:07:52.000Z</time>
      </trkpt>
      <trkpt lat="41.035117" lon="-6.778925">
        <ele>575</ele>
        <time>1970-01-01T01:07:53.000Z</time>
      </trkpt>
      <trkpt lat="41.03513" lon="-6.778942">
        <ele>575</ele>
        <time>1970-01-01T01:07:54.000Z</time>
      </trkpt>
      <trkpt lat="41.035143" lon="-6.778966">
        <ele>574.4</ele>
        <time>1970-01-01T01:07:55.000Z</time>
      </trkpt>
      <trkpt lat="41.035157" lon="-6.778998">
        <ele>574</ele>
        <time>1970-01-01T01:07:56.000Z</time>
      </trkpt>
      <trkpt lat="41.035176" lon="-6.779036">
        <ele>574.1</ele>
        <time>1970-01-01T01:07:57.000Z</time>
      </trkpt>
      <trkpt lat="41.0352" lon="-6.779073">
        <ele>573.9</ele>
        <time>1970-01-01T01:07:58.000Z</time>
      </trkpt>
      <trkpt lat="41.035227" lon="-6.779107">
        <ele>573.9</ele>
        <time>1970-01-01T01:07:59.000Z</time>
      </trkpt>
      <trkpt lat="41.035253" lon="-6.779131">
        <ele>574</ele>
        <time>1970-01-01T01:08:00.000Z</time>
      </trkpt>
      <trkpt lat="41.035277" lon="-6.779151">
        <ele>574.5</ele>
        <time>1970-01-01T01:08:01.000Z</time>
      </trkpt>
      <trkpt lat="41.0353" lon="-6.779168">
        <ele>574.3</ele>
        <time>1970-01-01T01:08:02.000Z</time>
      </trkpt>
      <trkpt lat="41.035322" lon="-6.779189">
        <ele>574.8</ele>
        <time>1970-01-01T01:08:03.000Z</time>
      </trkpt>
      <trkpt lat="41.03534" lon="-6.779214">
        <ele>574.6</ele>
        <time>1970-01-01T01:08:04.000Z</time>
      </trkpt>
      <trkpt lat="41.035351" lon="-6.779242">
        <ele>575.1</ele>
        <time>1970-01-01T01:08:05.000Z</time>
      </trkpt>
      <trkpt lat="41.035357" lon="-6.779273">
        <ele>574.9</ele>
        <time>1970-01-01T01:08:06.000Z</time>
      </trkpt>
      <trkpt lat="41.035355" lon="-6.779306">
        <ele>574.7</ele>
        <time>1970-01-01T01:08:07.000Z</time>
      </trkpt>
      <trkpt lat="41.035347" lon="-6.779343">
        <ele>574.5</ele>
        <time>1970-01-01T01:08:08.000Z</time>
      </trkpt>
      <trkpt lat="41.035338" lon="-6.779382">
        <ele>573.7</ele>
        <time>1970-01-01T01:08:09.000Z</time>
      </trkpt>
      <trkpt lat="41.035331" lon="-6.779424">
        <ele>573.5</ele>
        <time>1970-01-01T01:08:10.000Z</time>
      </trkpt>
      <trkpt lat="41.035327" lon="-6.779473">
        <ele>573.3</ele>
        <time>1970-01-01T01:08:11.000Z</time>
      </trkpt>
      <trkpt lat="41.035318" lon="-6.779524">
        <ele>573.1</ele>
        <time>1970-01-01T01:08:12.000Z</time>
      </trkpt>
      <trkpt lat="41.035305" lon="-6.77958">
        <ele>572.3</ele>
        <time>1970-01-01T01:08:13.000Z</time>
      </trkpt>
      <trkpt lat="41.035288" lon="-6.779634">
        <ele>572.1</ele>
        <time>1970-01-01T01:08:14.000Z</time>
      </trkpt>
      <trkpt lat="41.035272" lon="-6.779691">
        <ele>571</ele>
        <time>1970-01-01T01:08:15.000Z</time>
      </trkpt>
      <trkpt lat="41.035256" lon="-6.779747">
        <ele>570.8</ele>
        <time>1970-01-01T01:08:16.000Z</time>
      </trkpt>
      <trkpt lat="41.035242" lon="-6.779803">
        <ele>570</ele>
        <time>1970-01-01T01:08:17.000Z</time>
      </trkpt>
      <trkpt lat="41.035231" lon="-6.779852">
        <ele>569.5</ele>
        <time>1970-01-01T01:08:18.000Z</time>
      </trkpt>
      <trkpt lat="41.035222" lon="-6.779897">
        <ele>569.3</ele>
        <time>1970-01-01T01:08:19.000Z</time>
      </trkpt>
      <trkpt lat="41.035216" lon="-6.77994">
        <ele>569</ele>
        <time>1970-01-01T01:08:20.000Z</time>
      </trkpt>
      <trkpt lat="41.035209" lon="-6.77998">
        <ele>568.6</ele>
        <time>1970-01-01T01:08:21.000Z</time>
      </trkpt>
      <trkpt lat="41.035203" lon="-6.780011">
        <ele>568.5</ele>
        <time>1970-01-01T01:08:22.000Z</time>
      </trkpt>
      <trkpt lat="41.035198" lon="-6.780036">
        <ele>568.3</ele>
        <time>1970-01-01T01:08:23.000Z</time>
      </trkpt>
      <trkpt lat="41.035196" lon="-6.780054">
        <ele>568.3</ele>
        <time>1970-01-01T01:08:24.000Z</time>
      </trkpt>
      <trkpt lat="41.035196" lon="-6.780074">
        <ele>568.2</ele>
        <time>1970-01-01T01:08:25.000Z</time>
      </trkpt>
      <trkpt lat="41.035196" lon="-6.780093">
        <ele>568.3</ele>
        <time>1970-01-01T01:08:26.000Z</time>
      </trkpt>
      <trkpt lat="41.035199" lon="-6.780113">
        <ele>568.1</ele>
        <time>1970-01-01T01:08:27.000Z</time>
      </trkpt>
      <trkpt lat="41.035203" lon="-6.780133">
        <ele>568.2</ele>
        <time>1970-01-01T01:08:28.000Z</time>
      </trkpt>
      <trkpt lat="41.035207" lon="-6.780153">
        <ele>568.1</ele>
        <time>1970-01-01T01:08:29.000Z</time>
      </trkpt>
      <trkpt lat="41.03521" lon="-6.780172">
        <ele>568.1</ele>
        <time>1970-01-01T01:08:30.000Z</time>
      </trkpt>
      <trkpt lat="41.035212" lon="-6.78019">
        <ele>568.5</ele>
        <time>1970-01-01T01:08:31.000Z</time>
      </trkpt>
      <trkpt lat="41.035212" lon="-6.780207">
        <ele>568.5</ele>
        <time>1970-01-01T01:08:32.000Z</time>
      </trkpt>
      <trkpt lat="41.035206" lon="-6.780225">
        <ele>568</ele>
        <time>1970-01-01T01:08:33.000Z</time>
      </trkpt>
      <trkpt lat="41.035197" lon="-6.780244">
        <ele>567.9</ele>
        <time>1970-01-01T01:08:34.000Z</time>
      </trkpt>
      <trkpt lat="41.035187" lon="-6.780266">
        <ele>568</ele>
        <time>1970-01-01T01:08:35.000Z</time>
      </trkpt>
      <trkpt lat="41.035183" lon="-6.78029">
        <ele>567.9</ele>
        <time>1970-01-01T01:08:36.000Z</time>
      </trkpt>
      <trkpt lat="41.035182" lon="-6.780314">
        <ele>567.9</ele>
        <time>1970-01-01T01:08:37.000Z</time>
      </trkpt>
      <trkpt lat="41.035184" lon="-6.780334">
        <ele>567.9</ele>
        <time>1970-01-01T01:08:38.000Z</time>
      </trkpt>
      <trkpt lat="41.035187" lon="-6.780351">
        <ele>567.9</ele>
        <time>1970-01-01T01:08:39.000Z</time>
      </trkpt>
      <trkpt lat="41.035192" lon="-6.780366">
        <ele>567.9</ele>
        <time>1970-01-01T01:08:40.000Z</time>
      </trkpt>
      <trkpt lat="41.035195" lon="-6.780381">
        <ele>567.8</ele>
        <time>1970-01-01T01:08:41.000Z</time>
      </trkpt>
      <trkpt lat="41.035202" lon="-6.780397">
        <ele>567.8</ele>
        <time>1970-01-01T01:08:42.000Z</time>
      </trkpt>
      <trkpt lat="41.035209" lon="-6.780413">
        <ele>567.7</ele>
        <time>1970-01-01T01:08:43.000Z</time>
      </trkpt>
      <trkpt lat="41.035217" lon="-6.78043">
        <ele>568.4</ele>
        <time>1970-01-01T01:08:44.000Z</time>
      </trkpt>
      <trkpt lat="41.035221" lon="-6.780451">
        <ele>568.4</ele>
        <time>1970-01-01T01:08:45.000Z</time>
      </trkpt>
      <trkpt lat="41.035225" lon="-6.780476">
        <ele>568.4</ele>
        <time>1970-01-01T01:08:46.000Z</time>
      </trkpt>
      <trkpt lat="41.03523" lon="-6.780507">
        <ele>568.3</ele>
        <time>1970-01-01T01:08:47.000Z</time>
      </trkpt>
      <trkpt lat="41.03524" lon="-6.780545">
        <ele>568.2</ele>
        <time>1970-01-01T01:08:48.000Z</time>
      </trkpt>
      <trkpt lat="41.035251" lon="-6.780589">
        <ele>568.8</ele>
        <time>1970-01-01T01:08:49.000Z</time>
      </trkpt>
      <trkpt lat="41.035263" lon="-6.780636">
        <ele>568.7</ele>
        <time>1970-01-01T01:08:50.000Z</time>
      </trkpt>
      <trkpt lat="41.035276" lon="-6.780682">
        <ele>568.6</ele>
        <time>1970-01-01T01:08:51.000Z</time>
      </trkpt>
      <trkpt lat="41.03529" lon="-6.780724">
        <ele>569.3</ele>
        <time>1970-01-01T01:08:52.000Z</time>
      </trkpt>
      <trkpt lat="41.035301" lon="-6.780755">
        <ele>569.3</ele>
        <time>1970-01-01T01:08:53.000Z</time>
      </trkpt>
      <trkpt lat="41.035312" lon="-6.780779">
        <ele>570</ele>
        <time>1970-01-01T01:08:54.000Z</time>
      </trkpt>
      <trkpt lat="41.035319" lon="-6.780797">
        <ele>570</ele>
        <time>1970-01-01T01:08:55.000Z</time>
      </trkpt>
      <trkpt lat="41.035326" lon="-6.780816">
        <ele>570</ele>
        <time>1970-01-01T01:08:56.000Z</time>
      </trkpt>
      <trkpt lat="41.03533" lon="-6.780833">
        <ele>570</ele>
        <time>1970-01-01T01:08:57.000Z</time>
      </trkpt>
      <trkpt lat="41.035333" lon="-6.780848">
        <ele>570</ele>
        <time>1970-01-01T01:08:58.000Z</time>
      </trkpt>
      <trkpt lat="41.035333" lon="-6.780863">
        <ele>570.1</ele>
        <time>1970-01-01T01:08:59.000Z</time>
      </trkpt>
      <trkpt lat="41.035335" lon="-6.780876">
        <ele>570.1</ele>
        <time>1970-01-01T01:09:00.000Z</time>
      </trkpt>
      <trkpt lat="41.035339" lon="-6.780892">
        <ele>570.1</ele>
        <time>1970-01-01T01:09:01.000Z</time>
      </trkpt>
      <trkpt lat="41.035343" lon="-6.780907">
        <ele>570.9</ele>
        <time>1970-01-01T01:09:02.000Z</time>
      </trkpt>
      <trkpt lat="41.035346" lon="-6.780919">
        <ele>570.9</ele>
        <time>1970-01-01T01:09:03.000Z</time>
      </trkpt>
      <trkpt lat="41.035347" lon="-6.780929">
        <ele>570.9</ele>
        <time>1970-01-01T01:09:04.000Z</time>
      </trkpt>
      <trkpt lat="41.035347" lon="-6.780935">
        <ele>571</ele>
        <time>1970-01-01T01:09:05.000Z</time>
      </trkpt>
      <trkpt lat="41.035349" lon="-6.780939">
        <ele>571</ele>
        <time>1970-01-01T01:09:06.000Z</time>
      </trkpt>
      <trkpt lat="41.03535" lon="-6.78094">
        <ele>571</ele>
        <time>1970-01-01T01:09:07.000Z</time>
      </trkpt>
      <trkpt lat="41.03535" lon="-6.780941">
        <ele>571</ele>
        <time>1970-01-01T01:09:08.000Z</time>
      </trkpt>
      <trkpt lat="41.035349" lon="-6.780943">
        <ele>571</ele>
        <time>1970-01-01T01:09:09.000Z</time>
      </trkpt>
      <trkpt lat="41.035348" lon="-6.780945">
        <ele>571</ele>
        <time>1970-01-01T01:09:10.000Z</time>
      </trkpt>
      <trkpt lat="41.035347" lon="-6.780946">
        <ele>571.1</ele>
        <time>1970-01-01T01:09:11.000Z</time>
      </trkpt>
      <trkpt lat="41.035358" lon="-6.781051">
        <ele>571.1</ele>
        <time>1970-01-01T01:09:12.000Z</time>
      </trkpt>
      <trkpt lat="41.035363" lon="-6.781071">
        <ele>571.1</ele>
        <time>1970-01-01T01:09:13.000Z</time>
      </trkpt>
      <trkpt lat="41.035368" lon="-6.781084">
        <ele>571.1</ele>
        <time>1970-01-01T01:09:39.000Z</time>
      </trkpt>
      <trkpt lat="41.035373" lon="-6.78109">
        <ele>571.1</ele>
        <time>1970-01-01T01:09:40.000Z</time>
      </trkpt>
      <trkpt lat="41.035377" lon="-6.781092">
        <ele>571.9</ele>
        <time>1970-01-01T01:09:41.000Z</time>
      </trkpt>
      <trkpt lat="41.035381" lon="-6.781093">
        <ele>571.9</ele>
        <time>1970-01-01T01:09:42.000Z</time>
      </trkpt>
      <trkpt lat="41.035383" lon="-6.781094">
        <ele>571.9</ele>
        <time>1970-01-01T01:09:43.000Z</time>
      </trkpt>
      <trkpt lat="41.035383" lon="-6.781095">
        <ele>571.9</ele>
        <time>1970-01-01T01:09:44.000Z</time>
      </trkpt>
      <trkpt lat="41.035385" lon="-6.781098">
        <ele>572</ele>
        <time>1970-01-01T01:09:45.000Z</time>
      </trkpt>
      <trkpt lat="41.035387" lon="-6.781105">
        <ele>572</ele>
        <time>1970-01-01T01:09:46.000Z</time>
      </trkpt>
      <trkpt lat="41.035391" lon="-6.781116">
        <ele>572</ele>
        <time>1970-01-01T01:09:47.000Z</time>
      </trkpt>
      <trkpt lat="41.035395" lon="-6.781127">
        <ele>572</ele>
        <time>1970-01-01T01:09:48.000Z</time>
      </trkpt>
      <trkpt lat="41.0354" lon="-6.781137">
        <ele>572</ele>
        <time>1970-01-01T01:09:49.000Z</time>
      </trkpt>
      <trkpt lat="41.035404" lon="-6.781148">
        <ele>572</ele>
        <time>1970-01-01T01:09:50.000Z</time>
      </trkpt>
      <trkpt lat="41.035408" lon="-6.78116">
        <ele>572.9</ele>
        <time>1970-01-01T01:09:51.000Z</time>
      </trkpt>
      <trkpt lat="41.035413" lon="-6.781173">
        <ele>572.9</ele>
        <time>1970-01-01T01:09:52.000Z</time>
      </trkpt>
      <trkpt lat="41.03542" lon="-6.781186">
        <ele>572.9</ele>
        <time>1970-01-01T01:09:53.000Z</time>
      </trkpt>
      <trkpt lat="41.035428" lon="-6.781198">
        <ele>572.9</ele>
        <time>1970-01-01T01:09:54.000Z</time>
      </trkpt>
      <trkpt lat="41.035438" lon="-6.78121">
        <ele>572.9</ele>
        <time>1970-01-01T01:09:55.000Z</time>
      </trkpt>
      <trkpt lat="41.035447" lon="-6.781221">
        <ele>573.8</ele>
        <time>1970-01-01T01:09:56.000Z</time>
      </trkpt>
      <trkpt lat="41.035457" lon="-6.781231">
        <ele>573.8</ele>
        <time>1970-01-01T01:09:57.000Z</time>
      </trkpt>
      <trkpt lat="41.035467" lon="-6.781239">
        <ele>573.8</ele>
        <time>1970-01-01T01:09:58.000Z</time>
      </trkpt>
      <trkpt lat="41.035476" lon="-6.781245">
        <ele>574.7</ele>
        <time>1970-01-01T01:09:59.000Z</time>
      </trkpt>
      <trkpt lat="41.035486" lon="-6.781251">
        <ele>574.7</ele>
        <time>1970-01-01T01:10:00.000Z</time>
      </trkpt>
      <trkpt lat="41.035493" lon="-6.781256">
        <ele>574.7</ele>
        <time>1970-01-01T01:10:01.000Z</time>
      </trkpt>
      <trkpt lat="41.035497" lon="-6.781258">
        <ele>574.8</ele>
        <time>1970-01-01T01:10:02.000Z</time>
      </trkpt>
      <trkpt lat="41.035497" lon="-6.781259">
        <ele>574.8</ele>
        <time>1970-01-01T01:10:03.000Z</time>
      </trkpt>
      <trkpt lat="41.035498" lon="-6.78126">
        <ele>574.8</ele>
        <time>1970-01-01T01:10:04.000Z</time>
      </trkpt>
      <trkpt lat="41.035499" lon="-6.781261">
        <ele>574.8</ele>
        <time>1970-01-01T01:10:05.000Z</time>
      </trkpt>
      <trkpt lat="41.035499" lon="-6.781263">
        <ele>574.8</ele>
        <time>1970-01-01T01:10:06.000Z</time>
      </trkpt>
      <trkpt lat="41.035499" lon="-6.781266">
        <ele>574.8</ele>
        <time>1970-01-01T01:10:07.000Z</time>
      </trkpt>
      <trkpt lat="41.035533" lon="-6.781291">
        <ele>575.7</ele>
        <time>1970-01-01T01:10:08.000Z</time>
      </trkpt>
      <trkpt lat="41.035534" lon="-6.781287">
        <ele>575.7</ele>
        <time>1970-01-01T01:10:09.000Z</time>
      </trkpt>
      <trkpt lat="41.035534" lon="-6.781285">
        <ele>575.8</ele>
        <time>1970-01-01T01:12:22.000Z</time>
      </trkpt>
      <trkpt lat="41.035534" lon="-6.781286">
        <ele>575.8</ele>
        <time>1970-01-01T01:12:23.000Z</time>
      </trkpt>
      <trkpt lat="41.035534" lon="-6.781286">
        <ele>575.8</ele>
        <time>1970-01-01T01:12:24.000Z</time>
      </trkpt>
      <trkpt lat="41.035535" lon="-6.781287">
        <ele>575.8</ele>
        <time>1970-01-01T01:12:25.000Z</time>
      </trkpt>
      <trkpt lat="41.035536" lon="-6.781287">
        <ele>576.7</ele>
        <time>1970-01-01T01:12:26.000Z</time>
      </trkpt>
      <trkpt lat="41.035555" lon="-6.781303">
        <ele>576.7</ele>
        <time>1970-01-01T01:12:27.000Z</time>
      </trkpt>
      <trkpt lat="41.035555" lon="-6.781304">
        <ele>576.7</ele>
        <time>1970-01-01T01:12:28.000Z</time>
      </trkpt>
      <trkpt lat="41.035556" lon="-6.781305">
        <ele>576.8</ele>
        <time>1970-01-01T01:14:14.000Z</time>
      </trkpt>
      <trkpt lat="41.035556" lon="-6.78131">
        <ele>576.8</ele>
        <time>1970-01-01T01:14:15.000Z</time>
      </trkpt>
      <trkpt lat="41.035559" lon="-6.781318">
        <ele>576.8</ele>
        <time>1970-01-01T01:14:16.000Z</time>
      </trkpt>
      <trkpt lat="41.035564" lon="-6.781332">
        <ele>576.8</ele>
        <time>1970-01-01T01:14:17.000Z</time>
      </trkpt>
      <trkpt lat="41.035571" lon="-6.781347">
        <ele>577.7</ele>
        <time>1970-01-01T01:14:18.000Z</time>
      </trkpt>
      <trkpt lat="41.035576" lon="-6.781363">
        <ele>577.7</ele>
        <time>1970-01-01T01:14:19.000Z</time>
      </trkpt>
      <trkpt lat="41.035579" lon="-6.781382">
        <ele>577.7</ele>
        <time>1970-01-01T01:14:20.000Z</time>
      </trkpt>
      <trkpt lat="41.035575" lon="-6.781403">
        <ele>577.7</ele>
        <time>1970-01-01T01:14:21.000Z</time>
      </trkpt>
      <trkpt lat="41.035568" lon="-6.781427">
        <ele>577.7</ele>
        <time>1970-01-01T01:14:22.000Z</time>
      </trkpt>
      <trkpt lat="41.035555" lon="-6.781457">
        <ele>576.8</ele>
        <time>1970-01-01T01:14:23.000Z</time>
      </trkpt>
      <trkpt lat="41.035545" lon="-6.781491">
        <ele>576.8</ele>
        <time>1970-01-01T01:14:24.000Z</time>
      </trkpt>
      <trkpt lat="41.03554" lon="-6.781523">
        <ele>576.8</ele>
        <time>1970-01-01T01:14:25.000Z</time>
      </trkpt>
      <trkpt lat="41.03554" lon="-6.781549">
        <ele>576.8</ele>
        <time>1970-01-01T01:14:26.000Z</time>
      </trkpt>
      <trkpt lat="41.035543" lon="-6.781575">
        <ele>576.7</ele>
        <time>1970-01-01T01:14:27.000Z</time>
      </trkpt>
      <trkpt lat="41.035545" lon="-6.781604">
        <ele>576.8</ele>
        <time>1970-01-01T01:14:28.000Z</time>
      </trkpt>
      <trkpt lat="41.035547" lon="-6.781631">
        <ele>576.7</ele>
        <time>1970-01-01T01:14:29.000Z</time>
      </trkpt>
      <trkpt lat="41.035549" lon="-6.781651">
        <ele>576.8</ele>
        <time>1970-01-01T01:14:30.000Z</time>
      </trkpt>
      <trkpt lat="41.035551" lon="-6.781666">
        <ele>576.8</ele>
        <time>1970-01-01T01:14:31.000Z</time>
      </trkpt>
      <trkpt lat="41.035554" lon="-6.781679">
        <ele>576.8</ele>
        <time>1970-01-01T01:14:32.000Z</time>
      </trkpt>
      <trkpt lat="41.035558" lon="-6.781693">
        <ele>576.8</ele>
        <time>1970-01-01T01:14:33.000Z</time>
      </trkpt>
      <trkpt lat="41.035563" lon="-6.781708">
        <ele>576.8</ele>
        <time>1970-01-01T01:14:34.000Z</time>
      </trkpt>
      <trkpt lat="41.03557" lon="-6.781724">
        <ele>577.6</ele>
        <time>1970-01-01T01:14:35.000Z</time>
      </trkpt>
      <trkpt lat="41.03558" lon="-6.781739">
        <ele>577.6</ele>
        <time>1970-01-01T01:14:36.000Z</time>
      </trkpt>
      <trkpt lat="41.035591" lon="-6.781753">
        <ele>577.6</ele>
        <time>1970-01-01T01:14:37.000Z</time>
      </trkpt>
      <trkpt lat="41.035601" lon="-6.781767">
        <ele>578.5</ele>
        <time>1970-01-01T01:14:38.000Z</time>
      </trkpt>
      <trkpt lat="41.035609" lon="-6.781784">
        <ele>578.5</ele>
        <time>1970-01-01T01:14:39.000Z</time>
      </trkpt>
      <trkpt lat="41.035613" lon="-6.781806">
        <ele>578.5</ele>
        <time>1970-01-01T01:14:40.000Z</time>
      </trkpt>
      <trkpt lat="41.035616" lon="-6.781832">
        <ele>578.5</ele>
        <time>1970-01-01T01:14:41.000Z</time>
      </trkpt>
      <trkpt lat="41.03562" lon="-6.781859">
        <ele>578.5</ele>
        <time>1970-01-01T01:14:42.000Z</time>
      </trkpt>
      <trkpt lat="41.035626" lon="-6.781884">
        <ele>578.5</ele>
        <time>1970-01-01T01:14:43.000Z</time>
      </trkpt>
      <trkpt lat="41.035632" lon="-6.781909">
        <ele>578.5</ele>
        <time>1970-01-01T01:14:44.000Z</time>
      </trkpt>
      <trkpt lat="41.03564" lon="-6.781932">
        <ele>579.4</ele>
        <time>1970-01-01T01:14:45.000Z</time>
      </trkpt>
      <trkpt lat="41.035647" lon="-6.781955">
        <ele>579.4</ele>
        <time>1970-01-01T01:14:46.000Z</time>
      </trkpt>
      <trkpt lat="41.035653" lon="-6.781976">
        <ele>579.4</ele>
        <time>1970-01-01T01:14:47.000Z</time>
      </trkpt>
      <trkpt lat="41.035656" lon="-6.781999">
        <ele>579.4</ele>
        <time>1970-01-01T01:14:48.000Z</time>
      </trkpt>
      <trkpt lat="41.035656" lon="-6.782023">
        <ele>579.4</ele>
        <time>1970-01-01T01:14:49.000Z</time>
      </trkpt>
      <trkpt lat="41.035653" lon="-6.782048">
        <ele>579.4</ele>
        <time>1970-01-01T01:14:50.000Z</time>
      </trkpt>
      <trkpt lat="41.035649" lon="-6.782073">
        <ele>579.4</ele>
        <time>1970-01-01T01:14:51.000Z</time>
      </trkpt>
      <trkpt lat="41.035643" lon="-6.782099">
        <ele>579.4</ele>
        <time>1970-01-01T01:14:52.000Z</time>
      </trkpt>
      <trkpt lat="41.035639" lon="-6.782124">
        <ele>579.4</ele>
        <time>1970-01-01T01:14:53.000Z</time>
      </trkpt>
      <trkpt lat="41.035634" lon="-6.782147">
        <ele>579.4</ele>
        <time>1970-01-01T01:14:54.000Z</time>
      </trkpt>
      <trkpt lat="41.035631" lon="-6.782167">
        <ele>578.6</ele>
        <time>1970-01-01T01:14:55.000Z</time>
      </trkpt>
      <trkpt lat="41.035625" lon="-6.782186">
        <ele>578.5</ele>
        <time>1970-01-01T01:14:56.000Z</time>
      </trkpt>
      <trkpt lat="41.035619" lon="-6.782204">
        <ele>578.5</ele>
        <time>1970-01-01T01:14:57.000Z</time>
      </trkpt>
      <trkpt lat="41.035612" lon="-6.782224">
        <ele>578.5</ele>
        <time>1970-01-01T01:14:58.000Z</time>
      </trkpt>
      <trkpt lat="41.035604" lon="-6.782246">
        <ele>578.5</ele>
        <time>1970-01-01T01:14:59.000Z</time>
      </trkpt>
      <trkpt lat="41.035598" lon="-6.78227">
        <ele>577.6</ele>
        <time>1970-01-01T01:15:00.000Z</time>
      </trkpt>
      <trkpt lat="41.035592" lon="-6.782291">
        <ele>577.6</ele>
        <time>1970-01-01T01:15:01.000Z</time>
      </trkpt>
      <trkpt lat="41.035585" lon="-6.782312">
        <ele>577.6</ele>
        <time>1970-01-01T01:15:02.000Z</time>
      </trkpt>
      <trkpt lat="41.035581" lon="-6.782332">
        <ele>577.6</ele>
        <time>1970-01-01T01:15:03.000Z</time>
      </trkpt>
      <trkpt lat="41.035581" lon="-6.782353">
        <ele>577.5</ele>
        <time>1970-01-01T01:15:04.000Z</time>
      </trkpt>
      <trkpt lat="41.035582" lon="-6.782375">
        <ele>577.5</ele>
        <time>1970-01-01T01:15:05.000Z</time>
      </trkpt>
      <trkpt lat="41.035585" lon="-6.782396">
        <ele>577.5</ele>
        <time>1970-01-01T01:15:06.000Z</time>
      </trkpt>
      <trkpt lat="41.035588" lon="-6.782413">
        <ele>577.5</ele>
        <time>1970-01-01T01:15:07.000Z</time>
      </trkpt>
      <trkpt lat="41.035593" lon="-6.782427">
        <ele>577.4</ele>
        <time>1970-01-01T01:15:08.000Z</time>
      </trkpt>
      <trkpt lat="41.035598" lon="-6.782437">
        <ele>577.4</ele>
        <time>1970-01-01T01:15:09.000Z</time>
      </trkpt>
      <trkpt lat="41.035603" lon="-6.782446">
        <ele>578.1</ele>
        <time>1970-01-01T01:15:10.000Z</time>
      </trkpt>
      <trkpt lat="41.035609" lon="-6.782452">
        <ele>578.1</ele>
        <time>1970-01-01T01:15:11.000Z</time>
      </trkpt>
      <trkpt lat="41.035613" lon="-6.78246">
        <ele>578.2</ele>
        <time>1970-01-01T01:15:12.000Z</time>
      </trkpt>
      <trkpt lat="41.035617" lon="-6.782468">
        <ele>578.2</ele>
        <time>1970-01-01T01:15:13.000Z</time>
      </trkpt>
      <trkpt lat="41.035622" lon="-6.782478">
        <ele>578</ele>
        <time>1970-01-01T01:15:14.000Z</time>
      </trkpt>
      <trkpt lat="41.035628" lon="-6.782487">
        <ele>578.1</ele>
        <time>1970-01-01T01:15:15.000Z</time>
      </trkpt>
      <trkpt lat="41.035635" lon="-6.782495">
        <ele>578.8</ele>
        <time>1970-01-01T01:15:16.000Z</time>
      </trkpt>
      <trkpt lat="41.035642" lon="-6.782502">
        <ele>578.8</ele>
        <time>1970-01-01T01:15:17.000Z</time>
      </trkpt>
      <trkpt lat="41.035649" lon="-6.782508">
        <ele>578.8</ele>
        <time>1970-01-01T01:15:18.000Z</time>
      </trkpt>
      <trkpt lat="41.035653" lon="-6.782513">
        <ele>578.6</ele>
        <time>1970-01-01T01:15:19.000Z</time>
      </trkpt>
      <trkpt lat="41.035657" lon="-6.782517">
        <ele>578.7</ele>
        <time>1970-01-01T01:15:20.000Z</time>
      </trkpt>
      <trkpt lat="41.035662" lon="-6.78252">
        <ele>578.7</ele>
        <time>1970-01-01T01:15:21.000Z</time>
      </trkpt>
      <trkpt lat="41.035668" lon="-6.782522">
        <ele>579.3</ele>
        <time>1970-01-01T01:15:22.000Z</time>
      </trkpt>
      <trkpt lat="41.035675" lon="-6.782526">
        <ele>579.3</ele>
        <time>1970-01-01T01:15:23.000Z</time>
      </trkpt>
      <trkpt lat="41.035684" lon="-6.782529">
        <ele>579.4</ele>
        <time>1970-01-01T01:15:24.000Z</time>
      </trkpt>
      <trkpt lat="41.035693" lon="-6.782532">
        <ele>579.4</ele>
        <time>1970-01-01T01:15:25.000Z</time>
      </trkpt>
      <trkpt lat="41.035703" lon="-6.782535">
        <ele>580</ele>
        <time>1970-01-01T01:15:26.000Z</time>
      </trkpt>
      <trkpt lat="41.035712" lon="-6.782537">
        <ele>580</ele>
        <time>1970-01-01T01:15:27.000Z</time>
      </trkpt>
      <trkpt lat="41.035722" lon="-6.782536">
        <ele>580</ele>
        <time>1970-01-01T01:15:28.000Z</time>
      </trkpt>
      <trkpt lat="41.035732" lon="-6.782534">
        <ele>580.6</ele>
        <time>1970-01-01T01:15:29.000Z</time>
      </trkpt>
      <trkpt lat="41.035742" lon="-6.78253">
        <ele>580.6</ele>
        <time>1970-01-01T01:15:30.000Z</time>
      </trkpt>
      <trkpt lat="41.035751" lon="-6.782525">
        <ele>580.6</ele>
        <time>1970-01-01T01:15:31.000Z</time>
      </trkpt>
      <trkpt lat="41.035759" lon="-6.78252">
        <ele>580.6</ele>
        <time>1970-01-01T01:15:32.000Z</time>
      </trkpt>
      <trkpt lat="41.035768" lon="-6.782513">
        <ele>581.2</ele>
        <time>1970-01-01T01:15:33.000Z</time>
      </trkpt>
      <trkpt lat="41.035777" lon="-6.782508">
        <ele>581.5</ele>
        <time>1970-01-01T01:15:34.000Z</time>
      </trkpt>
      <trkpt lat="41.035786" lon="-6.782505">
        <ele>581.5</ele>
        <time>1970-01-01T01:15:35.000Z</time>
      </trkpt>
      <trkpt lat="41.035796" lon="-6.782504">
        <ele>582.1</ele>
        <time>1970-01-01T01:15:36.000Z</time>
      </trkpt>
      <trkpt lat="41.035806" lon="-6.782502">
        <ele>582.1</ele>
        <time>1970-01-01T01:15:37.000Z</time>
      </trkpt>
      <trkpt lat="41.035814" lon="-6.7825">
        <ele>582.2</ele>
        <time>1970-01-01T01:15:38.000Z</time>
      </trkpt>
      <trkpt lat="41.035821" lon="-6.782498">
        <ele>582.2</ele>
        <time>1970-01-01T01:15:39.000Z</time>
      </trkpt>
      <trkpt lat="41.035827" lon="-6.782496">
        <ele>582.9</ele>
        <time>1970-01-01T01:15:40.000Z</time>
      </trkpt>
      <trkpt lat="41.035834" lon="-6.782495">
        <ele>582.9</ele>
        <time>1970-01-01T01:15:41.000Z</time>
      </trkpt>
      <trkpt lat="41.035841" lon="-6.782494">
        <ele>582.9</ele>
        <time>1970-01-01T01:15:42.000Z</time>
      </trkpt>
      <trkpt lat="41.035848" lon="-6.782496">
        <ele>582.9</ele>
        <time>1970-01-01T01:15:43.000Z</time>
      </trkpt>
      <trkpt lat="41.035855" lon="-6.7825">
        <ele>582.9</ele>
        <time>1970-01-01T01:15:44.000Z</time>
      </trkpt>
      <trkpt lat="41.035861" lon="-6.782505">
        <ele>583.6</ele>
        <time>1970-01-01T01:15:45.000Z</time>
      </trkpt>
      <trkpt lat="41.035869" lon="-6.782509">
        <ele>583.6</ele>
        <time>1970-01-01T01:15:46.000Z</time>
      </trkpt>
      <trkpt lat="41.035878" lon="-6.782512">
        <ele>583.7</ele>
        <time>1970-01-01T01:15:47.000Z</time>
      </trkpt>
      <trkpt lat="41.035888" lon="-6.782513">
        <ele>583.4</ele>
        <time>1970-01-01T01:15:48.000Z</time>
      </trkpt>
      <trkpt lat="41.035898" lon="-6.782513">
        <ele>584.1</ele>
        <time>1970-01-01T01:15:49.000Z</time>
      </trkpt>
      <trkpt lat="41.035907" lon="-6.782511">
        <ele>584.4</ele>
        <time>1970-01-01T01:15:50.000Z</time>
      </trkpt>
      <trkpt lat="41.035916" lon="-6.782506">
        <ele>584.4</ele>
        <time>1970-01-01T01:15:51.000Z</time>
      </trkpt>
      <trkpt lat="41.035921" lon="-6.782498">
        <ele>584.4</ele>
        <time>1970-01-01T01:15:52.000Z</time>
      </trkpt>
      <trkpt lat="41.035923" lon="-6.782487">
        <ele>584.4</ele>
        <time>1970-01-01T01:15:53.000Z</time>
      </trkpt>
      <trkpt lat="41.035923" lon="-6.782477">
        <ele>584.4</ele>
        <time>1970-01-01T01:15:54.000Z</time>
      </trkpt>
      <trkpt lat="41.035924" lon="-6.782468">
        <ele>585.4</ele>
        <time>1970-01-01T01:15:55.000Z</time>
      </trkpt>
      <trkpt lat="41.035925" lon="-6.78246">
        <ele>585.4</ele>
        <time>1970-01-01T01:15:56.000Z</time>
      </trkpt>
      <trkpt lat="41.035927" lon="-6.78245">
        <ele>585.4</ele>
        <time>1970-01-01T01:15:57.000Z</time>
      </trkpt>
      <trkpt lat="41.035932" lon="-6.78244">
        <ele>585.4</ele>
        <time>1970-01-01T01:15:58.000Z</time>
      </trkpt>
      <trkpt lat="41.035937" lon="-6.78243">
        <ele>585.4</ele>
        <time>1970-01-01T01:15:59.000Z</time>
      </trkpt>
      <trkpt lat="41.035943" lon="-6.782423">
        <ele>585.7</ele>
        <time>1970-01-01T01:16:00.000Z</time>
      </trkpt>
      <trkpt lat="41.035951" lon="-6.782416">
        <ele>585.7</ele>
        <time>1970-01-01T01:16:01.000Z</time>
      </trkpt>
      <trkpt lat="41.035961" lon="-6.782411">
        <ele>586.3</ele>
        <time>1970-01-01T01:16:02.000Z</time>
      </trkpt>
      <trkpt lat="41.035974" lon="-6.782405">
        <ele>586.3</ele>
        <time>1970-01-01T01:16:03.000Z</time>
      </trkpt>
      <trkpt lat="41.035985" lon="-6.782399">
        <ele>586.3</ele>
        <time>1970-01-01T01:16:04.000Z</time>
      </trkpt>
      <trkpt lat="41.035996" lon="-6.782395">
        <ele>586.9</ele>
        <time>1970-01-01T01:16:05.000Z</time>
      </trkpt>
      <trkpt lat="41.036006" lon="-6.782392">
        <ele>586.9</ele>
        <time>1970-01-01T01:16:06.000Z</time>
      </trkpt>
      <trkpt lat="41.036016" lon="-6.782389">
        <ele>586.9</ele>
        <time>1970-01-01T01:16:07.000Z</time>
      </trkpt>
      <trkpt lat="41.036026" lon="-6.782385">
        <ele>587.5</ele>
        <time>1970-01-01T01:16:08.000Z</time>
      </trkpt>
      <trkpt lat="41.036035" lon="-6.782381">
        <ele>587.7</ele>
        <time>1970-01-01T01:16:09.000Z</time>
      </trkpt>
      <trkpt lat="41.036041" lon="-6.782378">
        <ele>587.7</ele>
        <time>1970-01-01T01:16:10.000Z</time>
      </trkpt>
      <trkpt lat="41.036045" lon="-6.782376">
        <ele>587.7</ele>
        <time>1970-01-01T01:16:11.000Z</time>
      </trkpt>
      <trkpt lat="41.036048" lon="-6.782377">
        <ele>587.8</ele>
        <time>1970-01-01T01:16:12.000Z</time>
      </trkpt>
      <trkpt lat="41.03605" lon="-6.782377">
        <ele>587.8</ele>
        <time>1970-01-01T01:16:13.000Z</time>
      </trkpt>
      <trkpt lat="41.036051" lon="-6.782378">
        <ele>587.8</ele>
        <time>1970-01-01T01:16:14.000Z</time>
      </trkpt>
      <trkpt lat="41.036052" lon="-6.782378">
        <ele>587.8</ele>
        <time>1970-01-01T01:16:15.000Z</time>
      </trkpt>
      <trkpt lat="41.036052" lon="-6.782379">
        <ele>587.8</ele>
        <time>1970-01-01T01:16:16.000Z</time>
      </trkpt>
      <trkpt lat="41.036053" lon="-6.782378">
        <ele>587.8</ele>
        <time>1970-01-01T01:16:17.000Z</time>
      </trkpt>
      <trkpt lat="41.036054" lon="-6.782379">
        <ele>588.4</ele>
        <time>1970-01-01T01:16:18.000Z</time>
      </trkpt>
      <trkpt lat="41.036056" lon="-6.782379">
        <ele>588.4</ele>
        <time>1970-01-01T01:16:19.000Z</time>
      </trkpt>
      <trkpt lat="41.03606" lon="-6.782381">
        <ele>588.5</ele>
        <time>1970-01-01T01:16:20.000Z</time>
      </trkpt>
      <trkpt lat="41.036067" lon="-6.782384">
        <ele>588.3</ele>
        <time>1970-01-01T01:16:21.000Z</time>
      </trkpt>
      <trkpt lat="41.036076" lon="-6.782386">
        <ele>588.3</ele>
        <time>1970-01-01T01:16:22.000Z</time>
      </trkpt>
      <trkpt lat="41.036084" lon="-6.782387">
        <ele>588.3</ele>
        <time>1970-01-01T01:16:23.000Z</time>
      </trkpt>
      <trkpt lat="41.036093" lon="-6.782386">
        <ele>588.9</ele>
        <time>1970-01-01T01:16:24.000Z</time>
      </trkpt>
      <trkpt lat="41.036102" lon="-6.782387">
        <ele>589</ele>
        <time>1970-01-01T01:16:25.000Z</time>
      </trkpt>
      <trkpt lat="41.036111" lon="-6.782388">
        <ele>589</ele>
        <time>1970-01-01T01:16:26.000Z</time>
      </trkpt>
      <trkpt lat="41.03612" lon="-6.78239">
        <ele>589.6</ele>
        <time>1970-01-01T01:16:27.000Z</time>
      </trkpt>
      <trkpt lat="41.036128" lon="-6.782392">
        <ele>589.6</ele>
        <time>1970-01-01T01:16:28.000Z</time>
      </trkpt>
      <trkpt lat="41.036135" lon="-6.782396">
        <ele>589.6</ele>
        <time>1970-01-01T01:16:29.000Z</time>
      </trkpt>
      <trkpt lat="41.036142" lon="-6.782402">
        <ele>589.7</ele>
        <time>1970-01-01T01:16:30.000Z</time>
      </trkpt>
      <trkpt lat="41.036149" lon="-6.782406">
        <ele>589.7</ele>
        <time>1970-01-01T01:16:31.000Z</time>
      </trkpt>
      <trkpt lat="41.036156" lon="-6.78241">
        <ele>590.3</ele>
        <time>1970-01-01T01:16:32.000Z</time>
      </trkpt>
      <trkpt lat="41.036162" lon="-6.782414">
        <ele>590.3</ele>
        <time>1970-01-01T01:16:33.000Z</time>
      </trkpt>
      <trkpt lat="41.03617" lon="-6.782419">
        <ele>590.3</ele>
        <time>1970-01-01T01:16:34.000Z</time>
      </trkpt>
      <trkpt lat="41.036179" lon="-6.782425">
        <ele>590.3</ele>
        <time>1970-01-01T01:16:35.000Z</time>
      </trkpt>
      <trkpt lat="41.03619" lon="-6.782428">
        <ele>590.6</ele>
        <time>1970-01-01T01:16:36.000Z</time>
      </trkpt>
      <trkpt lat="41.036201" lon="-6.782431">
        <ele>590.6</ele>
        <time>1970-01-01T01:16:37.000Z</time>
      </trkpt>
      <trkpt lat="41.036212" lon="-6.782432">
        <ele>590.6</ele>
        <time>1970-01-01T01:16:38.000Z</time>
      </trkpt>
      <trkpt lat="41.036222" lon="-6.782431">
        <ele>591.1</ele>
        <time>1970-01-01T01:16:39.000Z</time>
      </trkpt>
      <trkpt lat="41.036232" lon="-6.782429">
        <ele>591.1</ele>
        <time>1970-01-01T01:16:40.000Z</time>
      </trkpt>
      <trkpt lat="41.036241" lon="-6.782429">
        <ele>591.1</ele>
        <time>1970-01-01T01:16:41.000Z</time>
      </trkpt>
      <trkpt lat="41.03625" lon="-6.78243">
        <ele>591.5</ele>
        <time>1970-01-01T01:16:42.000Z</time>
      </trkpt>
      <trkpt lat="41.036259" lon="-6.782433">
        <ele>591.6</ele>
        <time>1970-01-01T01:16:43.000Z</time>
      </trkpt>
      <trkpt lat="41.036267" lon="-6.782435">
        <ele>591.6</ele>
        <time>1970-01-01T01:16:44.000Z</time>
      </trkpt>
      <trkpt lat="41.036274" lon="-6.782434">
        <ele>591.6</ele>
        <time>1970-01-01T01:16:45.000Z</time>
      </trkpt>
      <trkpt lat="41.036282" lon="-6.782431">
        <ele>592</ele>
        <time>1970-01-01T01:16:46.000Z</time>
      </trkpt>
      <trkpt lat="41.03629" lon="-6.782425">
        <ele>592.2</ele>
        <time>1970-01-01T01:16:47.000Z</time>
      </trkpt>
      <trkpt lat="41.036298" lon="-6.78242">
        <ele>592.2</ele>
        <time>1970-01-01T01:16:48.000Z</time>
      </trkpt>
      <trkpt lat="41.036306" lon="-6.782418">
        <ele>592.2</ele>
        <time>1970-01-01T01:16:49.000Z</time>
      </trkpt>
      <trkpt lat="41.036313" lon="-6.782419">
        <ele>592.6</ele>
        <time>1970-01-01T01:16:50.000Z</time>
      </trkpt>
      <trkpt lat="41.036319" lon="-6.782424">
        <ele>592.6</ele>
        <time>1970-01-01T01:16:51.000Z</time>
      </trkpt>
      <trkpt lat="41.036324" lon="-6.782432">
        <ele>592.4</ele>
        <time>1970-01-01T01:16:52.000Z</time>
      </trkpt>
      <trkpt lat="41.036328" lon="-6.782443">
        <ele>592.4</ele>
        <time>1970-01-01T01:16:53.000Z</time>
      </trkpt>
      <trkpt lat="41.036332" lon="-6.782454">
        <ele>592.4</ele>
        <time>1970-01-01T01:16:54.000Z</time>
      </trkpt>
      <trkpt lat="41.036337" lon="-6.782464">
        <ele>592.5</ele>
        <time>1970-01-01T01:16:55.000Z</time>
      </trkpt>
      <trkpt lat="41.036342" lon="-6.782474">
        <ele>592.2</ele>
        <time>1970-01-01T01:16:56.000Z</time>
      </trkpt>
      <trkpt lat="41.036348" lon="-6.782485">
        <ele>592.6</ele>
        <time>1970-01-01T01:16:57.000Z</time>
      </trkpt>
      <trkpt lat="41.036353" lon="-6.782498">
        <ele>592.6</ele>
        <time>1970-01-01T01:16:58.000Z</time>
      </trkpt>
      <trkpt lat="41.036356" lon="-6.782514">
        <ele>592.3</ele>
        <time>1970-01-01T01:16:59.000Z</time>
      </trkpt>
      <trkpt lat="41.036357" lon="-6.782532">
        <ele>592.4</ele>
        <time>1970-01-01T01:17:00.000Z</time>
      </trkpt>
      <trkpt lat="41.03636" lon="-6.782554">
        <ele>592.4</ele>
        <time>1970-01-01T01:17:01.000Z</time>
      </trkpt>
      <trkpt lat="41.036366" lon="-6.782581">
        <ele>592.1</ele>
        <time>1970-01-01T01:17:02.000Z</time>
      </trkpt>
      <trkpt lat="41.036375" lon="-6.782612">
        <ele>591.8</ele>
        <time>1970-01-01T01:17:03.000Z</time>
      </trkpt>
      <trkpt lat="41.036386" lon="-6.782641">
        <ele>592.2</ele>
        <time>1970-01-01T01:17:04.000Z</time>
      </trkpt>
      <trkpt lat="41.036398" lon="-6.782668">
        <ele>591.9</ele>
        <time>1970-01-01T01:17:05.000Z</time>
      </trkpt>
      <trkpt lat="41.036414" lon="-6.782693">
        <ele>592</ele>
        <time>1970-01-01T01:17:06.000Z</time>
      </trkpt>
      <trkpt lat="41.036433" lon="-6.782717">
        <ele>592</ele>
        <time>1970-01-01T01:17:07.000Z</time>
      </trkpt>
      <trkpt lat="41.036455" lon="-6.78274">
        <ele>592</ele>
        <time>1970-01-01T01:17:08.000Z</time>
      </trkpt>
      <trkpt lat="41.036478" lon="-6.78276">
        <ele>592.3</ele>
        <time>1970-01-01T01:17:09.000Z</time>
      </trkpt>
      <trkpt lat="41.036499" lon="-6.782779">
        <ele>592</ele>
        <time>1970-01-01T01:17:10.000Z</time>
      </trkpt>
      <trkpt lat="41.036517" lon="-6.782799">
        <ele>592.3</ele>
        <time>1970-01-01T01:17:11.000Z</time>
      </trkpt>
      <trkpt lat="41.036533" lon="-6.782821">
        <ele>592</ele>
        <time>1970-01-01T01:17:12.000Z</time>
      </trkpt>
      <trkpt lat="41.03655" lon="-6.782846">
        <ele>592.2</ele>
        <time>1970-01-01T01:17:13.000Z</time>
      </trkpt>
      <trkpt lat="41.036567" lon="-6.782869">
        <ele>591.9</ele>
        <time>1970-01-01T01:17:14.000Z</time>
      </trkpt>
      <trkpt lat="41.036583" lon="-6.782892">
        <ele>592.1</ele>
        <time>1970-01-01T01:17:15.000Z</time>
      </trkpt>
      <trkpt lat="41.036597" lon="-6.78291">
        <ele>591.8</ele>
        <time>1970-01-01T01:17:16.000Z</time>
      </trkpt>
      <trkpt lat="41.036612" lon="-6.782922">
        <ele>592.1</ele>
        <time>1970-01-01T01:17:17.000Z</time>
      </trkpt>
      <trkpt lat="41.036627" lon="-6.782932">
        <ele>592.1</ele>
        <time>1970-01-01T01:17:18.000Z</time>
      </trkpt>
      <trkpt lat="41.036643" lon="-6.782939">
        <ele>592.3</ele>
        <time>1970-01-01T01:17:19.000Z</time>
      </trkpt>
      <trkpt lat="41.036659" lon="-6.782944">
        <ele>591.9</ele>
        <time>1970-01-01T01:17:20.000Z</time>
      </trkpt>
      <trkpt lat="41.036676" lon="-6.782944">
        <ele>592.2</ele>
        <time>1970-01-01T01:17:21.000Z</time>
      </trkpt>
      <trkpt lat="41.03669" lon="-6.78294">
        <ele>592.6</ele>
        <time>1970-01-01T01:17:22.000Z</time>
      </trkpt>
      <trkpt lat="41.036702" lon="-6.782932">
        <ele>592.9</ele>
        <time>1970-01-01T01:17:23.000Z</time>
      </trkpt>
      <trkpt lat="41.036715" lon="-6.782922">
        <ele>592.9</ele>
        <time>1970-01-01T01:17:24.000Z</time>
      </trkpt>
      <trkpt lat="41.03673" lon="-6.782918">
        <ele>592.9</ele>
        <time>1970-01-01T01:17:25.000Z</time>
      </trkpt>
      <trkpt lat="41.036745" lon="-6.782921">
        <ele>593.1</ele>
        <time>1970-01-01T01:17:26.000Z</time>
      </trkpt>
      <trkpt lat="41.036756" lon="-6.782932">
        <ele>593.1</ele>
        <time>1970-01-01T01:17:27.000Z</time>
      </trkpt>
      <trkpt lat="41.036765" lon="-6.782947">
        <ele>592.7</ele>
        <time>1970-01-01T01:17:28.000Z</time>
      </trkpt>
      <trkpt lat="41.036774" lon="-6.782963">
        <ele>592.9</ele>
        <time>1970-01-01T01:17:29.000Z</time>
      </trkpt>
      <trkpt lat="41.036784" lon="-6.78298">
        <ele>592.9</ele>
        <time>1970-01-01T01:17:30.000Z</time>
      </trkpt>
      <trkpt lat="41.036797" lon="-6.782999">
        <ele>592.5</ele>
        <time>1970-01-01T01:17:31.000Z</time>
      </trkpt>
      <trkpt lat="41.03681" lon="-6.78302">
        <ele>592.7</ele>
        <time>1970-01-01T01:17:32.000Z</time>
      </trkpt>
      <trkpt lat="41.036822" lon="-6.783044">
        <ele>592.2</ele>
        <time>1970-01-01T01:17:33.000Z</time>
      </trkpt>
      <trkpt lat="41.036831" lon="-6.783072">
        <ele>592</ele>
        <time>1970-01-01T01:17:34.000Z</time>
      </trkpt>
      <trkpt lat="41.036838" lon="-6.783107">
        <ele>592</ele>
        <time>1970-01-01T01:17:35.000Z</time>
      </trkpt>
      <trkpt lat="41.036842" lon="-6.783149">
        <ele>591.6</ele>
        <time>1970-01-01T01:17:36.000Z</time>
      </trkpt>
      <trkpt lat="41.036843" lon="-6.783194">
        <ele>591.2</ele>
        <time>1970-01-01T01:17:37.000Z</time>
      </trkpt>
      <trkpt lat="41.036845" lon="-6.783237">
        <ele>590.8</ele>
        <time>1970-01-01T01:17:38.000Z</time>
      </trkpt>
      <trkpt lat="41.036851" lon="-6.783273">
        <ele>590.4</ele>
        <time>1970-01-01T01:17:39.000Z</time>
      </trkpt>
      <trkpt lat="41.036864" lon="-6.783296">
        <ele>590.2</ele>
        <time>1970-01-01T01:17:40.000Z</time>
      </trkpt>
      <trkpt lat="41.03688" lon="-6.783312">
        <ele>590.2</ele>
        <time>1970-01-01T01:17:41.000Z</time>
      </trkpt>
      <trkpt lat="41.036901" lon="-6.783324">
        <ele>590.3</ele>
        <time>1970-01-01T01:17:42.000Z</time>
      </trkpt>
      <trkpt lat="41.036923" lon="-6.783341">
        <ele>589.9</ele>
        <time>1970-01-01T01:17:43.000Z</time>
      </trkpt>
      <trkpt lat="41.036945" lon="-6.783358">
        <ele>590</ele>
        <time>1970-01-01T01:17:44.000Z</time>
      </trkpt>
      <trkpt lat="41.036964" lon="-6.783375">
        <ele>589.7</ele>
        <time>1970-01-01T01:17:45.000Z</time>
      </trkpt>
      <trkpt lat="41.03698" lon="-6.783391">
        <ele>589.7</ele>
        <time>1970-01-01T01:17:46.000Z</time>
      </trkpt>
      <trkpt lat="41.036995" lon="-6.783406">
        <ele>589.8</ele>
        <time>1970-01-01T01:17:47.000Z</time>
      </trkpt>
      <trkpt lat="41.037006" lon="-6.783419">
        <ele>589.4</ele>
        <time>1970-01-01T01:17:48.000Z</time>
      </trkpt>
      <trkpt lat="41.037014" lon="-6.783431">
        <ele>589.4</ele>
        <time>1970-01-01T01:17:49.000Z</time>
      </trkpt>
      <trkpt lat="41.037019" lon="-6.78344">
        <ele>589.4</ele>
        <time>1970-01-01T01:17:50.000Z</time>
      </trkpt>
      <trkpt lat="41.037024" lon="-6.783448">
        <ele>589.4</ele>
        <time>1970-01-01T01:17:51.000Z</time>
      </trkpt>
      <trkpt lat="41.037027" lon="-6.783455">
        <ele>589.6</ele>
        <time>1970-01-01T01:17:52.000Z</time>
      </trkpt>
      <trkpt lat="41.037032" lon="-6.783462">
        <ele>589.2</ele>
        <time>1970-01-01T01:17:53.000Z</time>
      </trkpt>
      <trkpt lat="41.037039" lon="-6.783471">
        <ele>589.2</ele>
        <time>1970-01-01T01:17:54.000Z</time>
      </trkpt>
      <trkpt lat="41.037048" lon="-6.783481">
        <ele>589.2</ele>
        <time>1970-01-01T01:17:55.000Z</time>
      </trkpt>
      <trkpt lat="41.037056" lon="-6.783489">
        <ele>589.2</ele>
        <time>1970-01-01T01:17:56.000Z</time>
      </trkpt>
      <trkpt lat="41.037065" lon="-6.783496">
        <ele>589.4</ele>
        <time>1970-01-01T01:17:57.000Z</time>
      </trkpt>
      <trkpt lat="41.037073" lon="-6.783503">
        <ele>589.1</ele>
        <time>1970-01-01T01:17:58.000Z</time>
      </trkpt>
      <trkpt lat="41.03708" lon="-6.783514">
        <ele>589.1</ele>
        <time>1970-01-01T01:17:59.000Z</time>
      </trkpt>
      <trkpt lat="41.037085" lon="-6.783529">
        <ele>589.1</ele>
        <time>1970-01-01T01:18:00.000Z</time>
      </trkpt>
      <trkpt lat="41.037089" lon="-6.783545">
        <ele>589.1</ele>
        <time>1970-01-01T01:18:01.000Z</time>
      </trkpt>
      <trkpt lat="41.037091" lon="-6.783562">
        <ele>589.1</ele>
        <time>1970-01-01T01:18:02.000Z</time>
      </trkpt>
      <trkpt lat="41.037093" lon="-6.783579">
        <ele>589.1</ele>
        <time>1970-01-01T01:18:03.000Z</time>
      </trkpt>
      <trkpt lat="41.037093" lon="-6.783593">
        <ele>588.9</ele>
        <time>1970-01-01T01:18:04.000Z</time>
      </trkpt>
      <trkpt lat="41.037092" lon="-6.783605">
        <ele>588.9</ele>
        <time>1970-01-01T01:18:05.000Z</time>
      </trkpt>
      <trkpt lat="41.03709" lon="-6.783616">
        <ele>588.9</ele>
        <time>1970-01-01T01:18:06.000Z</time>
      </trkpt>
      <trkpt lat="41.037089" lon="-6.783627">
        <ele>588.9</ele>
        <time>1970-01-01T01:18:07.000Z</time>
      </trkpt>
      <trkpt lat="41.037089" lon="-6.783637">
        <ele>588.7</ele>
        <time>1970-01-01T01:18:08.000Z</time>
      </trkpt>
      <trkpt lat="41.037089" lon="-6.783646">
        <ele>588.7</ele>
        <time>1970-01-01T01:18:09.000Z</time>
      </trkpt>
      <trkpt lat="41.03709" lon="-6.783655">
        <ele>588.7</ele>
        <time>1970-01-01T01:18:10.000Z</time>
      </trkpt>
      <trkpt lat="41.037093" lon="-6.783667">
        <ele>588.7</ele>
        <time>1970-01-01T01:18:11.000Z</time>
      </trkpt>
      <trkpt lat="41.037096" lon="-6.783682">
        <ele>588.6</ele>
        <time>1970-01-01T01:18:12.000Z</time>
      </trkpt>
      <trkpt lat="41.037097" lon="-6.783697">
        <ele>588.6</ele>
        <time>1970-01-01T01:18:13.000Z</time>
      </trkpt>
      <trkpt lat="41.037094" lon="-6.783707">
        <ele>588.6</ele>
        <time>1970-01-01T01:18:14.000Z</time>
      </trkpt>
      <trkpt lat="41.037089" lon="-6.783715">
        <ele>588.4</ele>
        <time>1970-01-01T01:18:15.000Z</time>
      </trkpt>
      <trkpt lat="41.037083" lon="-6.783722">
        <ele>588.2</ele>
        <time>1970-01-01T01:18:16.000Z</time>
      </trkpt>
      <trkpt lat="41.037077" lon="-6.783729">
        <ele>588.2</ele>
        <time>1970-01-01T01:18:17.000Z</time>
      </trkpt>
      <trkpt lat="41.037071" lon="-6.783735">
        <ele>588.2</ele>
        <time>1970-01-01T01:18:18.000Z</time>
      </trkpt>
      <trkpt lat="41.037066" lon="-6.783739">
        <ele>588.2</ele>
        <time>1970-01-01T01:18:19.000Z</time>
      </trkpt>
      <trkpt lat="41.037063" lon="-6.783742">
        <ele>588.3</ele>
        <time>1970-01-01T01:18:20.000Z</time>
      </trkpt>
      <trkpt lat="41.037063" lon="-6.783744">
        <ele>588.3</ele>
        <time>1970-01-01T01:18:21.000Z</time>
      </trkpt>
      <trkpt lat="41.037064" lon="-6.783746">
        <ele>588.3</ele>
        <time>1970-01-01T01:18:22.000Z</time>
      </trkpt>
      <trkpt lat="41.037061" lon="-6.783766">
        <ele>588.1</ele>
        <time>1970-01-01T01:18:23.000Z</time>
      </trkpt>
      <trkpt lat="41.037059" lon="-6.783769">
        <ele>588.1</ele>
        <time>1970-01-01T01:18:24.000Z</time>
      </trkpt>
      <trkpt lat="41.037058" lon="-6.783772">
        <ele>588.2</ele>
        <time>1970-01-01T01:18:35.000Z</time>
      </trkpt>
      <trkpt lat="41.037056" lon="-6.783775">
        <ele>587.9</ele>
        <time>1970-01-01T01:18:36.000Z</time>
      </trkpt>
      <trkpt lat="41.037056" lon="-6.783778">
        <ele>588</ele>
        <time>1970-01-01T01:18:37.000Z</time>
      </trkpt>
      <trkpt lat="41.037054" lon="-6.783782">
        <ele>588</ele>
        <time>1970-01-01T01:18:38.000Z</time>
      </trkpt>
      <trkpt lat="41.037053" lon="-6.783786">
        <ele>588</ele>
        <time>1970-01-01T01:18:39.000Z</time>
      </trkpt>
      <trkpt lat="41.037052" lon="-6.78379">
        <ele>588</ele>
        <time>1970-01-01T01:18:40.000Z</time>
      </trkpt>
      <trkpt lat="41.037051" lon="-6.783792">
        <ele>588</ele>
        <time>1970-01-01T01:18:41.000Z</time>
      </trkpt>
      <trkpt lat="41.037051" lon="-6.783793">
        <ele>588</ele>
        <time>1970-01-01T01:18:42.000Z</time>
      </trkpt>
      <trkpt lat="41.03705" lon="-6.783796">
        <ele>588</ele>
        <time>1970-01-01T01:18:43.000Z</time>
      </trkpt>
      <trkpt lat="41.037049" lon="-6.783799">
        <ele>588.1</ele>
        <time>1970-01-01T01:18:44.000Z</time>
      </trkpt>
      <trkpt lat="41.037048" lon="-6.783801">
        <ele>587.9</ele>
        <time>1970-01-01T01:18:45.000Z</time>
      </trkpt>
      <trkpt lat="41.037046" lon="-6.783803">
        <ele>587.9</ele>
        <time>1970-01-01T01:18:46.000Z</time>
      </trkpt>
      <trkpt lat="41.037043" lon="-6.783805">
        <ele>588</ele>
        <time>1970-01-01T01:18:47.000Z</time>
      </trkpt>
      <trkpt lat="41.037041" lon="-6.783808">
        <ele>588</ele>
        <time>1970-01-01T01:18:48.000Z</time>
      </trkpt>
      <trkpt lat="41.037038" lon="-6.783813">
        <ele>588</ele>
        <time>1970-01-01T01:18:49.000Z</time>
      </trkpt>
      <trkpt lat="41.037038" lon="-6.783818">
        <ele>588</ele>
        <time>1970-01-01T01:18:50.000Z</time>
      </trkpt>
      <trkpt lat="41.037038" lon="-6.783822">
        <ele>588</ele>
        <time>1970-01-01T01:18:51.000Z</time>
      </trkpt>
      <trkpt lat="41.037038" lon="-6.783823">
        <ele>588</ele>
        <time>1970-01-01T01:18:52.000Z</time>
      </trkpt>
      <trkpt lat="41.037036" lon="-6.783824">
        <ele>588</ele>
        <time>1970-01-01T01:18:53.000Z</time>
      </trkpt>
      <trkpt lat="41.037036" lon="-6.783824">
        <ele>588</ele>
        <time>1970-01-01T01:18:54.000Z</time>
      </trkpt>
      <trkpt lat="41.037036" lon="-6.783824">
        <ele>588.1</ele>
        <time>1970-01-01T01:18:55.000Z</time>
      </trkpt>
      <trkpt lat="41.037036" lon="-6.783825">
        <ele>588.1</ele>
        <time>1970-01-01T01:18:56.000Z</time>
      </trkpt>
      <trkpt lat="41.037036" lon="-6.783827">
        <ele>588.1</ele>
        <time>1970-01-01T01:18:57.000Z</time>
      </trkpt>
      <trkpt lat="41.03705" lon="-6.783849">
        <ele>588</ele>
        <time>1970-01-01T01:18:58.000Z</time>
      </trkpt>
      <trkpt lat="41.037052" lon="-6.783851">
        <ele>588</ele>
        <time>1970-01-01T01:18:59.000Z</time>
      </trkpt>
      <trkpt lat="41.037052" lon="-6.783851">
        <ele>588</ele>
        <time>1970-01-01T01:19:35.000Z</time>
      </trkpt>
      <trkpt lat="41.037053" lon="-6.783851">
        <ele>588</ele>
        <time>1970-01-01T01:19:36.000Z</time>
      </trkpt>
      <trkpt lat="41.037053" lon="-6.783851">
        <ele>588</ele>
        <time>1970-01-01T01:19:37.000Z</time>
      </trkpt>
      <trkpt lat="41.037053" lon="-6.783851">
        <ele>588</ele>
        <time>1970-01-01T01:19:38.000Z</time>
      </trkpt>
      <trkpt lat="41.037054" lon="-6.783852">
        <ele>588.1</ele>
        <time>1970-01-01T01:19:39.000Z</time>
      </trkpt>
      <trkpt lat="41.037054" lon="-6.783855">
        <ele>588.1</ele>
        <time>1970-01-01T01:19:40.000Z</time>
      </trkpt>
      <trkpt lat="41.037055" lon="-6.78386">
        <ele>588.1</ele>
        <time>1970-01-01T01:19:41.000Z</time>
      </trkpt>
      <trkpt lat="41.037055" lon="-6.783865">
        <ele>588.1</ele>
        <time>1970-01-01T01:19:42.000Z</time>
      </trkpt>
      <trkpt lat="41.037055" lon="-6.783869">
        <ele>588.1</ele>
        <time>1970-01-01T01:19:43.000Z</time>
      </trkpt>
      <trkpt lat="41.037056" lon="-6.783872">
        <ele>588.1</ele>
        <time>1970-01-01T01:19:44.000Z</time>
      </trkpt>
      <trkpt lat="41.037059" lon="-6.783873">
        <ele>588.4</ele>
        <time>1970-01-01T01:19:45.000Z</time>
      </trkpt>
      <trkpt lat="41.037062" lon="-6.783876">
        <ele>588.4</ele>
        <time>1970-01-01T01:19:46.000Z</time>
      </trkpt>
      <trkpt lat="41.037064" lon="-6.78388">
        <ele>588.4</ele>
        <time>1970-01-01T01:19:47.000Z</time>
      </trkpt>
      <trkpt lat="41.037066" lon="-6.783885">
        <ele>588.4</ele>
        <time>1970-01-01T01:19:48.000Z</time>
      </trkpt>
      <trkpt lat="41.037068" lon="-6.78389">
        <ele>588.3</ele>
        <time>1970-01-01T01:19:49.000Z</time>
      </trkpt>
      <trkpt lat="41.037071" lon="-6.783893">
        <ele>588.3</ele>
        <time>1970-01-01T01:19:50.000Z</time>
      </trkpt>
      <trkpt lat="41.037074" lon="-6.783895">
        <ele>588.4</ele>
        <time>1970-01-01T01:19:51.000Z</time>
      </trkpt>
      <trkpt lat="41.037077" lon="-6.783899">
        <ele>588.4</ele>
        <time>1970-01-01T01:19:52.000Z</time>
      </trkpt>
      <trkpt lat="41.037081" lon="-6.783905">
        <ele>588.4</ele>
        <time>1970-01-01T01:19:53.000Z</time>
      </trkpt>
      <trkpt lat="41.037082" lon="-6.783911">
        <ele>588.4</ele>
        <time>1970-01-01T01:19:54.000Z</time>
      </trkpt>
      <trkpt lat="41.037082" lon="-6.783915">
        <ele>588.4</ele>
        <time>1970-01-01T01:19:55.000Z</time>
      </trkpt>
      <trkpt lat="41.037083" lon="-6.783918">
        <ele>588.4</ele>
        <time>1970-01-01T01:19:56.000Z</time>
      </trkpt>
      <trkpt lat="41.037083" lon="-6.78392">
        <ele>588.4</ele>
        <time>1970-01-01T01:19:57.000Z</time>
      </trkpt>
      <trkpt lat="41.037084" lon="-6.783921">
        <ele>588.4</ele>
        <time>1970-01-01T01:19:58.000Z</time>
      </trkpt>
      <trkpt lat="41.037082" lon="-6.783949">
        <ele>588.4</ele>
        <time>1970-01-01T01:19:59.000Z</time>
      </trkpt>
      <trkpt lat="41.037082" lon="-6.78395">
        <ele>588.4</ele>
        <time>1970-01-01T01:20:00.000Z</time>
      </trkpt>
      <trkpt lat="41.037082" lon="-6.783951">
        <ele>588.4</ele>
        <time>1970-01-01T01:20:30.000Z</time>
      </trkpt>
      <trkpt lat="41.037083" lon="-6.783951">
        <ele>588.4</ele>
        <time>1970-01-01T01:20:31.000Z</time>
      </trkpt>
      <trkpt lat="41.037082" lon="-6.783953">
        <ele>588.4</ele>
        <time>1970-01-01T01:20:32.000Z</time>
      </trkpt>
      <trkpt lat="41.037101" lon="-6.78402">
        <ele>588.7</ele>
        <time>1970-01-01T01:20:33.000Z</time>
      </trkpt>
      <trkpt lat="41.037103" lon="-6.784049">
        <ele>588.7</ele>
        <time>1970-01-01T01:20:34.000Z</time>
      </trkpt>
      <trkpt lat="41.037101" lon="-6.784085">
        <ele>588.7</ele>
        <time>1970-01-01T01:21:02.000Z</time>
      </trkpt>
      <trkpt lat="41.037093" lon="-6.784121">
        <ele>588.8</ele>
        <time>1970-01-01T01:21:03.000Z</time>
      </trkpt>
      <trkpt lat="41.037084" lon="-6.784159">
        <ele>588.6</ele>
        <time>1970-01-01T01:21:04.000Z</time>
      </trkpt>
      <trkpt lat="41.037076" lon="-6.784202">
        <ele>588.7</ele>
        <time>1970-01-01T01:21:05.000Z</time>
      </trkpt>
      <trkpt lat="41.03707" lon="-6.784248">
        <ele>588.8</ele>
        <time>1970-01-01T01:21:06.000Z</time>
      </trkpt>
      <trkpt lat="41.037063" lon="-6.784296">
        <ele>588.9</ele>
        <time>1970-01-01T01:21:07.000Z</time>
      </trkpt>
      <trkpt lat="41.037058" lon="-6.784341">
        <ele>589.1</ele>
        <time>1970-01-01T01:21:08.000Z</time>
      </trkpt>
      <trkpt lat="41.037058" lon="-6.784384">
        <ele>589.2</ele>
        <time>1970-01-01T01:21:09.000Z</time>
      </trkpt>
      <trkpt lat="41.037066" lon="-6.784419">
        <ele>589.4</ele>
        <time>1970-01-01T01:21:10.000Z</time>
      </trkpt>
      <trkpt lat="41.037077" lon="-6.78445">
        <ele>589.5</ele>
        <time>1970-01-01T01:21:11.000Z</time>
      </trkpt>
      <trkpt lat="41.037091" lon="-6.784476">
        <ele>589.8</ele>
        <time>1970-01-01T01:21:12.000Z</time>
      </trkpt>
      <trkpt lat="41.037104" lon="-6.784499">
        <ele>590</ele>
        <time>1970-01-01T01:21:13.000Z</time>
      </trkpt>
      <trkpt lat="41.037118" lon="-6.784519">
        <ele>590</ele>
        <time>1970-01-01T01:21:14.000Z</time>
      </trkpt>
      <trkpt lat="41.037132" lon="-6.784537">
        <ele>590.5</ele>
        <time>1970-01-01T01:21:15.000Z</time>
      </trkpt>
      <trkpt lat="41.037146" lon="-6.784552">
        <ele>590.5</ele>
        <time>1970-01-01T01:21:16.000Z</time>
      </trkpt>
      <trkpt lat="41.037158" lon="-6.784565">
        <ele>590.9</ele>
        <time>1970-01-01T01:21:17.000Z</time>
      </trkpt>
      <trkpt lat="41.037169" lon="-6.784578">
        <ele>591</ele>
        <time>1970-01-01T01:21:18.000Z</time>
      </trkpt>
      <trkpt lat="41.037172" lon="-6.78459">
        <ele>591</ele>
        <time>1970-01-01T01:21:19.000Z</time>
      </trkpt>
      <trkpt lat="41.037172" lon="-6.784603">
        <ele>591</ele>
        <time>1970-01-01T01:21:20.000Z</time>
      </trkpt>
      <trkpt lat="41.03717" lon="-6.784619">
        <ele>591.2</ele>
        <time>1970-01-01T01:21:21.000Z</time>
      </trkpt>
      <trkpt lat="41.037172" lon="-6.784636">
        <ele>591.2</ele>
        <time>1970-01-01T01:21:22.000Z</time>
      </trkpt>
      <trkpt lat="41.037173" lon="-6.784653">
        <ele>591.2</ele>
        <time>1970-01-01T01:21:23.000Z</time>
      </trkpt>
      <trkpt lat="41.037174" lon="-6.784669">
        <ele>591.4</ele>
        <time>1970-01-01T01:21:24.000Z</time>
      </trkpt>
      <trkpt lat="41.037175" lon="-6.784685">
        <ele>591.4</ele>
        <time>1970-01-01T01:21:25.000Z</time>
      </trkpt>
      <trkpt lat="41.037175" lon="-6.784701">
        <ele>591.4</ele>
        <time>1970-01-01T01:21:26.000Z</time>
      </trkpt>
      <trkpt lat="41.037176" lon="-6.784716">
        <ele>591.6</ele>
        <time>1970-01-01T01:21:27.000Z</time>
      </trkpt>
      <trkpt lat="41.037179" lon="-6.784731">
        <ele>591.6</ele>
        <time>1970-01-01T01:21:28.000Z</time>
      </trkpt>
      <trkpt lat="41.037185" lon="-6.784747">
        <ele>591.8</ele>
        <time>1970-01-01T01:21:29.000Z</time>
      </trkpt>
      <trkpt lat="41.037195" lon="-6.78476">
        <ele>592.2</ele>
        <time>1970-01-01T01:21:30.000Z</time>
      </trkpt>
      <trkpt lat="41.037206" lon="-6.784771">
        <ele>592.2</ele>
        <time>1970-01-01T01:21:31.000Z</time>
      </trkpt>
      <trkpt lat="41.037216" lon="-6.784777">
        <ele>592.2</ele>
        <time>1970-01-01T01:21:32.000Z</time>
      </trkpt>
      <trkpt lat="41.037224" lon="-6.784781">
        <ele>592.7</ele>
        <time>1970-01-01T01:21:33.000Z</time>
      </trkpt>
      <trkpt lat="41.03723" lon="-6.784787">
        <ele>592.7</ele>
        <time>1970-01-01T01:21:34.000Z</time>
      </trkpt>
      <trkpt lat="41.037234" lon="-6.784794">
        <ele>592.9</ele>
        <time>1970-01-01T01:21:35.000Z</time>
      </trkpt>
      <trkpt lat="41.037237" lon="-6.784804">
        <ele>592.9</ele>
        <time>1970-01-01T01:21:36.000Z</time>
      </trkpt>
      <trkpt lat="41.037239" lon="-6.784814">
        <ele>592.9</ele>
        <time>1970-01-01T01:21:37.000Z</time>
      </trkpt>
      <trkpt lat="41.037241" lon="-6.784825">
        <ele>592.9</ele>
        <time>1970-01-01T01:21:38.000Z</time>
      </trkpt>
      <trkpt lat="41.037245" lon="-6.784832">
        <ele>593.2</ele>
        <time>1970-01-01T01:21:39.000Z</time>
      </trkpt>
      <trkpt lat="41.037249" lon="-6.784836">
        <ele>593.2</ele>
        <time>1970-01-01T01:21:40.000Z</time>
      </trkpt>
      <trkpt lat="41.037254" lon="-6.784841">
        <ele>593.6</ele>
        <time>1970-01-01T01:21:41.000Z</time>
      </trkpt>
      <trkpt lat="41.037258" lon="-6.784846">
        <ele>593.6</ele>
        <time>1970-01-01T01:21:42.000Z</time>
      </trkpt>
      <trkpt lat="41.037264" lon="-6.784854">
        <ele>593.7</ele>
        <time>1970-01-01T01:21:43.000Z</time>
      </trkpt>
      <trkpt lat="41.037271" lon="-6.784864">
        <ele>593.7</ele>
        <time>1970-01-01T01:21:44.000Z</time>
      </trkpt>
      <trkpt lat="41.037277" lon="-6.784876">
        <ele>593.9</ele>
        <time>1970-01-01T01:21:45.000Z</time>
      </trkpt>
      <trkpt lat="41.037283" lon="-6.784891">
        <ele>593.9</ele>
        <time>1970-01-01T01:21:46.000Z</time>
      </trkpt>
      <trkpt lat="41.037286" lon="-6.78491">
        <ele>594.4</ele>
        <time>1970-01-01T01:21:47.000Z</time>
      </trkpt>
      <trkpt lat="41.037289" lon="-6.784932">
        <ele>594.6</ele>
        <time>1970-01-01T01:21:48.000Z</time>
      </trkpt>
      <trkpt lat="41.037293" lon="-6.784953">
        <ele>594.6</ele>
        <time>1970-01-01T01:21:49.000Z</time>
      </trkpt>
      <trkpt lat="41.0373" lon="-6.784972">
        <ele>594.8</ele>
        <time>1970-01-01T01:21:50.000Z</time>
      </trkpt>
      <trkpt lat="41.037309" lon="-6.784988">
        <ele>594.9</ele>
        <time>1970-01-01T01:21:51.000Z</time>
      </trkpt>
      <trkpt lat="41.03732" lon="-6.785001">
        <ele>595.3</ele>
        <time>1970-01-01T01:21:52.000Z</time>
      </trkpt>
      <trkpt lat="41.03733" lon="-6.785013">
        <ele>595.5</ele>
        <time>1970-01-01T01:21:53.000Z</time>
      </trkpt>
      <trkpt lat="41.037338" lon="-6.785023">
        <ele>595.6</ele>
        <time>1970-01-01T01:21:54.000Z</time>
      </trkpt>
      <trkpt lat="41.037345" lon="-6.785035">
        <ele>595.6</ele>
        <time>1970-01-01T01:21:55.000Z</time>
      </trkpt>
      <trkpt lat="41.037353" lon="-6.785048">
        <ele>596.2</ele>
        <time>1970-01-01T01:21:56.000Z</time>
      </trkpt>
      <trkpt lat="41.037363" lon="-6.785061">
        <ele>596.2</ele>
        <time>1970-01-01T01:21:57.000Z</time>
      </trkpt>
      <trkpt lat="41.037374" lon="-6.785074">
        <ele>596.2</ele>
        <time>1970-01-01T01:21:58.000Z</time>
      </trkpt>
      <trkpt lat="41.037385" lon="-6.785088">
        <ele>596.9</ele>
        <time>1970-01-01T01:21:59.000Z</time>
      </trkpt>
      <trkpt lat="41.037395" lon="-6.7851">
        <ele>596.9</ele>
        <time>1970-01-01T01:22:00.000Z</time>
      </trkpt>
      <trkpt lat="41.037403" lon="-6.785111">
        <ele>596.9</ele>
        <time>1970-01-01T01:22:01.000Z</time>
      </trkpt>
      <trkpt lat="41.03741" lon="-6.785119">
        <ele>596.9</ele>
        <time>1970-01-01T01:22:02.000Z</time>
      </trkpt>
      <trkpt lat="41.037417" lon="-6.785128">
        <ele>597.4</ele>
        <time>1970-01-01T01:22:03.000Z</time>
      </trkpt>
      <trkpt lat="41.037422" lon="-6.785136">
        <ele>597.6</ele>
        <time>1970-01-01T01:22:04.000Z</time>
      </trkpt>
      <trkpt lat="41.037426" lon="-6.785142">
        <ele>597.6</ele>
        <time>1970-01-01T01:22:05.000Z</time>
      </trkpt>
      <trkpt lat="41.037429" lon="-6.785145">
        <ele>597.6</ele>
        <time>1970-01-01T01:22:06.000Z</time>
      </trkpt>
      <trkpt lat="41.037429" lon="-6.785149">
        <ele>597.6</ele>
        <time>1970-01-01T01:22:07.000Z</time>
      </trkpt>
      <trkpt lat="41.037429" lon="-6.785153">
        <ele>597.6</ele>
        <time>1970-01-01T01:22:08.000Z</time>
      </trkpt>
      <trkpt lat="41.037429" lon="-6.785156">
        <ele>597.7</ele>
        <time>1970-01-01T01:22:09.000Z</time>
      </trkpt>
      <trkpt lat="41.037434" lon="-6.785159">
        <ele>597.7</ele>
        <time>1970-01-01T01:22:10.000Z</time>
      </trkpt>
      <trkpt lat="41.037442" lon="-6.78516">
        <ele>597.7</ele>
        <time>1970-01-01T01:22:11.000Z</time>
      </trkpt>
      <trkpt lat="41.037451" lon="-6.785163">
        <ele>598.1</ele>
        <time>1970-01-01T01:22:12.000Z</time>
      </trkpt>
      <trkpt lat="41.037456" lon="-6.785165">
        <ele>598.2</ele>
        <time>1970-01-01T01:22:13.000Z</time>
      </trkpt>
      <trkpt lat="41.037459" lon="-6.78517">
        <ele>598.2</ele>
        <time>1970-01-01T01:22:14.000Z</time>
      </trkpt>
      <trkpt lat="41.037462" lon="-6.785176">
        <ele>598.4</ele>
        <time>1970-01-01T01:22:15.000Z</time>
      </trkpt>
      <trkpt lat="41.037464" lon="-6.785182">
        <ele>598.4</ele>
        <time>1970-01-01T01:22:16.000Z</time>
      </trkpt>
      <trkpt lat="41.037467" lon="-6.785191">
        <ele>598.4</ele>
        <time>1970-01-01T01:22:17.000Z</time>
      </trkpt>
      <trkpt lat="41.037471" lon="-6.7852">
        <ele>598.4</ele>
        <time>1970-01-01T01:22:18.000Z</time>
      </trkpt>
      <trkpt lat="41.037478" lon="-6.785209">
        <ele>598.9</ele>
        <time>1970-01-01T01:22:19.000Z</time>
      </trkpt>
      <trkpt lat="41.037486" lon="-6.785218">
        <ele>599.2</ele>
        <time>1970-01-01T01:22:20.000Z</time>
      </trkpt>
      <trkpt lat="41.037496" lon="-6.785226">
        <ele>599.2</ele>
        <time>1970-01-01T01:22:21.000Z</time>
      </trkpt>
      <trkpt lat="41.037506" lon="-6.785233">
        <ele>599.2</ele>
        <time>1970-01-01T01:22:22.000Z</time>
      </trkpt>
      <trkpt lat="41.037513" lon="-6.785239">
        <ele>599.7</ele>
        <time>1970-01-01T01:22:23.000Z</time>
      </trkpt>
      <trkpt lat="41.037519" lon="-6.785243">
        <ele>599.7</ele>
        <time>1970-01-01T01:22:24.000Z</time>
      </trkpt>
      <trkpt lat="41.037524" lon="-6.785246">
        <ele>599.7</ele>
        <time>1970-01-01T01:22:25.000Z</time>
      </trkpt>
      <trkpt lat="41.037531" lon="-6.785251">
        <ele>599.7</ele>
        <time>1970-01-01T01:22:26.000Z</time>
      </trkpt>
      <trkpt lat="41.03754" lon="-6.78526">
        <ele>599.9</ele>
        <time>1970-01-01T01:22:27.000Z</time>
      </trkpt>
      <trkpt lat="41.037551" lon="-6.785275">
        <ele>600.4</ele>
        <time>1970-01-01T01:22:28.000Z</time>
      </trkpt>
      <trkpt lat="41.037563" lon="-6.785294">
        <ele>600.5</ele>
        <time>1970-01-01T01:22:29.000Z</time>
      </trkpt>
      <trkpt lat="41.037572" lon="-6.785314">
        <ele>600.7</ele>
        <time>1970-01-01T01:22:30.000Z</time>
      </trkpt>
      <trkpt lat="41.037578" lon="-6.785338">
        <ele>601.1</ele>
        <time>1970-01-01T01:22:31.000Z</time>
      </trkpt>
      <trkpt lat="41.037581" lon="-6.785365">
        <ele>601.3</ele>
        <time>1970-01-01T01:22:32.000Z</time>
      </trkpt>
      <trkpt lat="41.037581" lon="-6.785394">
        <ele>601.5</ele>
        <time>1970-01-01T01:22:33.000Z</time>
      </trkpt>
      <trkpt lat="41.037579" lon="-6.785422">
        <ele>601.5</ele>
        <time>1970-01-01T01:22:34.000Z</time>
      </trkpt>
      <trkpt lat="41.037576" lon="-6.78545">
        <ele>601.7</ele>
        <time>1970-01-01T01:22:35.000Z</time>
      </trkpt>
      <trkpt lat="41.037572" lon="-6.785479">
        <ele>601.4</ele>
        <time>1970-01-01T01:22:36.000Z</time>
      </trkpt>
      <trkpt lat="41.037571" lon="-6.785508">
        <ele>601.4</ele>
        <time>1970-01-01T01:22:37.000Z</time>
      </trkpt>
      <trkpt lat="41.03757" lon="-6.785536">
        <ele>601.6</ele>
        <time>1970-01-01T01:22:38.000Z</time>
      </trkpt>
      <trkpt lat="41.037571" lon="-6.785562">
        <ele>601.8</ele>
        <time>1970-01-01T01:22:39.000Z</time>
      </trkpt>
      <trkpt lat="41.037574" lon="-6.785587">
        <ele>601.8</ele>
        <time>1970-01-01T01:22:40.000Z</time>
      </trkpt>
      <trkpt lat="41.03758" lon="-6.78561">
        <ele>602.4</ele>
        <time>1970-01-01T01:22:41.000Z</time>
      </trkpt>
      <trkpt lat="41.037588" lon="-6.785633">
        <ele>602.4</ele>
        <time>1970-01-01T01:22:42.000Z</time>
      </trkpt>
      <trkpt lat="41.037598" lon="-6.785654">
        <ele>602.6</ele>
        <time>1970-01-01T01:22:43.000Z</time>
      </trkpt>
      <trkpt lat="41.037609" lon="-6.785675">
        <ele>603</ele>
        <time>1970-01-01T01:22:44.000Z</time>
      </trkpt>
      <trkpt lat="41.037621" lon="-6.785695">
        <ele>603.2</ele>
        <time>1970-01-01T01:22:45.000Z</time>
      </trkpt>
      <trkpt lat="41.037632" lon="-6.785716">
        <ele>603.2</ele>
        <time>1970-01-01T01:22:46.000Z</time>
      </trkpt>
      <trkpt lat="41.037644" lon="-6.785737">
        <ele>603.7</ele>
        <time>1970-01-01T01:22:47.000Z</time>
      </trkpt>
      <trkpt lat="41.037654" lon="-6.785758">
        <ele>603.7</ele>
        <time>1970-01-01T01:22:48.000Z</time>
      </trkpt>
      <trkpt lat="41.037664" lon="-6.785779">
        <ele>603.9</ele>
        <time>1970-01-01T01:22:49.000Z</time>
      </trkpt>
      <trkpt lat="41.037673" lon="-6.785801">
        <ele>604.2</ele>
        <time>1970-01-01T01:22:50.000Z</time>
      </trkpt>
      <trkpt lat="41.037682" lon="-6.785822">
        <ele>604.4</ele>
        <time>1970-01-01T01:22:51.000Z</time>
      </trkpt>
      <trkpt lat="41.03769" lon="-6.785842">
        <ele>604.4</ele>
        <time>1970-01-01T01:22:52.000Z</time>
      </trkpt>
      <trkpt lat="41.037699" lon="-6.785861">
        <ele>604.6</ele>
        <time>1970-01-01T01:22:53.000Z</time>
      </trkpt>
      <trkpt lat="41.037711" lon="-6.785877">
        <ele>604.9</ele>
        <time>1970-01-01T01:22:54.000Z</time>
      </trkpt>
      <trkpt lat="41.037725" lon="-6.785885">
        <ele>604.9</ele>
        <time>1970-01-01T01:22:55.000Z</time>
      </trkpt>
      <trkpt lat="41.037741" lon="-6.785886">
        <ele>605.3</ele>
        <time>1970-01-01T01:22:56.000Z</time>
      </trkpt>
      <trkpt lat="41.03776" lon="-6.785883">
        <ele>605.3</ele>
        <time>1970-01-01T01:22:57.000Z</time>
      </trkpt>
      <trkpt lat="41.037782" lon="-6.78588">
        <ele>605.7</ele>
        <time>1970-01-01T01:22:58.000Z</time>
      </trkpt>
      <trkpt lat="41.037804" lon="-6.785874">
        <ele>606.1</ele>
        <time>1970-01-01T01:22:59.000Z</time>
      </trkpt>
      <trkpt lat="41.037825" lon="-6.785869">
        <ele>606.1</ele>
        <time>1970-01-01T01:23:00.000Z</time>
      </trkpt>
      <trkpt lat="41.037845" lon="-6.785864">
        <ele>606.5</ele>
        <time>1970-01-01T01:23:01.000Z</time>
      </trkpt>
      <trkpt lat="41.037865" lon="-6.785862">
        <ele>606.5</ele>
        <time>1970-01-01T01:23:02.000Z</time>
      </trkpt>
      <trkpt lat="41.037882" lon="-6.785864">
        <ele>606.9</ele>
        <time>1970-01-01T01:23:03.000Z</time>
      </trkpt>
      <trkpt lat="41.037897" lon="-6.78587">
        <ele>607</ele>
        <time>1970-01-01T01:23:04.000Z</time>
      </trkpt>
      <trkpt lat="41.037909" lon="-6.78588">
        <ele>607.3</ele>
        <time>1970-01-01T01:23:05.000Z</time>
      </trkpt>
      <trkpt lat="41.037914" lon="-6.785891">
        <ele>607.3</ele>
        <time>1970-01-01T01:23:06.000Z</time>
      </trkpt>
      <trkpt lat="41.037914" lon="-6.785904">
        <ele>607.5</ele>
        <time>1970-01-01T01:23:07.000Z</time>
      </trkpt>
      <trkpt lat="41.037911" lon="-6.785917">
        <ele>607.5</ele>
        <time>1970-01-01T01:23:08.000Z</time>
      </trkpt>
      <trkpt lat="41.03791" lon="-6.785932">
        <ele>607.5</ele>
        <time>1970-01-01T01:23:09.000Z</time>
      </trkpt>
      <trkpt lat="41.037912" lon="-6.785947">
        <ele>607.6</ele>
        <time>1970-01-01T01:23:10.000Z</time>
      </trkpt>
      <trkpt lat="41.037917" lon="-6.78596">
        <ele>607.6</ele>
        <time>1970-01-01T01:23:11.000Z</time>
      </trkpt>
      <trkpt lat="41.037925" lon="-6.785973">
        <ele>607.6</ele>
        <time>1970-01-01T01:23:12.000Z</time>
      </trkpt>
      <trkpt lat="41.037938" lon="-6.785984">
        <ele>608.2</ele>
        <time>1970-01-01T01:23:13.000Z</time>
      </trkpt>
      <trkpt lat="41.037953" lon="-6.78599">
        <ele>608.3</ele>
        <time>1970-01-01T01:23:14.000Z</time>
      </trkpt>
      <trkpt lat="41.037969" lon="-6.785995">
        <ele>608.7</ele>
        <time>1970-01-01T01:23:15.000Z</time>
      </trkpt>
      <trkpt lat="41.037983" lon="-6.786">
        <ele>608.7</ele>
        <time>1970-01-01T01:23:16.000Z</time>
      </trkpt>
      <trkpt lat="41.037995" lon="-6.786007">
        <ele>608.7</ele>
        <time>1970-01-01T01:23:17.000Z</time>
      </trkpt>
      <trkpt lat="41.038002" lon="-6.786019">
        <ele>609.1</ele>
        <time>1970-01-01T01:23:18.000Z</time>
      </trkpt>
      <trkpt lat="41.038007" lon="-6.786035">
        <ele>609.2</ele>
        <time>1970-01-01T01:23:19.000Z</time>
      </trkpt>
      <trkpt lat="41.038011" lon="-6.786055">
        <ele>609.2</ele>
        <time>1970-01-01T01:23:20.000Z</time>
      </trkpt>
      <trkpt lat="41.038014" lon="-6.786076">
        <ele>609.3</ele>
        <time>1970-01-01T01:23:21.000Z</time>
      </trkpt>
      <trkpt lat="41.038015" lon="-6.786097">
        <ele>609.3</ele>
        <time>1970-01-01T01:23:22.000Z</time>
      </trkpt>
      <trkpt lat="41.038013" lon="-6.786118">
        <ele>609.4</ele>
        <time>1970-01-01T01:23:23.000Z</time>
      </trkpt>
      <trkpt lat="41.038009" lon="-6.78614">
        <ele>609.4</ele>
        <time>1970-01-01T01:23:24.000Z</time>
      </trkpt>
      <trkpt lat="41.038003" lon="-6.786163">
        <ele>609.5</ele>
        <time>1970-01-01T01:23:25.000Z</time>
      </trkpt>
      <trkpt lat="41.037998" lon="-6.786186">
        <ele>609.5</ele>
        <time>1970-01-01T01:23:26.000Z</time>
      </trkpt>
      <trkpt lat="41.037992" lon="-6.786209">
        <ele>609.2</ele>
        <time>1970-01-01T01:23:27.000Z</time>
      </trkpt>
      <trkpt lat="41.037987" lon="-6.786231">
        <ele>609.2</ele>
        <time>1970-01-01T01:23:28.000Z</time>
      </trkpt>
      <trkpt lat="41.037982" lon="-6.786253">
        <ele>609.2</ele>
        <time>1970-01-01T01:23:29.000Z</time>
      </trkpt>
      <trkpt lat="41.037978" lon="-6.786277">
        <ele>609.2</ele>
        <time>1970-01-01T01:23:30.000Z</time>
      </trkpt>
      <trkpt lat="41.037979" lon="-6.786298">
        <ele>609.3</ele>
        <time>1970-01-01T01:23:31.000Z</time>
      </trkpt>
      <trkpt lat="41.037983" lon="-6.786317">
        <ele>609.3</ele>
        <time>1970-01-01T01:23:32.000Z</time>
      </trkpt>
      <trkpt lat="41.037993" lon="-6.78633">
        <ele>609.3</ele>
        <time>1970-01-01T01:23:33.000Z</time>
      </trkpt>
      <trkpt lat="41.038005" lon="-6.786341">
        <ele>609.6</ele>
        <time>1970-01-01T01:23:34.000Z</time>
      </trkpt>
      <trkpt lat="41.038018" lon="-6.786351">
        <ele>609.7</ele>
        <time>1970-01-01T01:23:35.000Z</time>
      </trkpt>
      <trkpt lat="41.038034" lon="-6.786363">
        <ele>610.1</ele>
        <time>1970-01-01T01:23:36.000Z</time>
      </trkpt>
      <trkpt lat="41.038047" lon="-6.786379">
        <ele>610</ele>
        <time>1970-01-01T01:23:37.000Z</time>
      </trkpt>
      <trkpt lat="41.038061" lon="-6.786399">
        <ele>610.4</ele>
        <time>1970-01-01T01:23:38.000Z</time>
      </trkpt>
      <trkpt lat="41.038075" lon="-6.786418">
        <ele>610.4</ele>
        <time>1970-01-01T01:23:39.000Z</time>
      </trkpt>
      <trkpt lat="41.038093" lon="-6.786435">
        <ele>610.7</ele>
        <time>1970-01-01T01:23:40.000Z</time>
      </trkpt>
      <trkpt lat="41.03811" lon="-6.786452">
        <ele>610.8</ele>
        <time>1970-01-01T01:23:41.000Z</time>
      </trkpt>
      <trkpt lat="41.038124" lon="-6.78647">
        <ele>610.7</ele>
        <time>1970-01-01T01:23:42.000Z</time>
      </trkpt>
      <trkpt lat="41.038138" lon="-6.786491">
        <ele>611</ele>
        <time>1970-01-01T01:23:43.000Z</time>
      </trkpt>
      <trkpt lat="41.038152" lon="-6.786514">
        <ele>610.9</ele>
        <time>1970-01-01T01:23:44.000Z</time>
      </trkpt>
      <trkpt lat="41.038168" lon="-6.786537">
        <ele>611.2</ele>
        <time>1970-01-01T01:23:45.000Z</time>
      </trkpt>
      <trkpt lat="41.038183" lon="-6.786557">
        <ele>611.1</ele>
        <time>1970-01-01T01:23:46.000Z</time>
      </trkpt>
      <trkpt lat="41.038199" lon="-6.786574">
        <ele>611.4</ele>
        <time>1970-01-01T01:23:47.000Z</time>
      </trkpt>
      <trkpt lat="41.038214" lon="-6.786587">
        <ele>611.4</ele>
        <time>1970-01-01T01:23:48.000Z</time>
      </trkpt>
      <trkpt lat="41.03823" lon="-6.786602">
        <ele>611.5</ele>
        <time>1970-01-01T01:23:49.000Z</time>
      </trkpt>
      <trkpt lat="41.038246" lon="-6.786618">
        <ele>611.5</ele>
        <time>1970-01-01T01:23:50.000Z</time>
      </trkpt>
      <trkpt lat="41.038262" lon="-6.786634">
        <ele>611.6</ele>
        <time>1970-01-01T01:23:51.000Z</time>
      </trkpt>
      <trkpt lat="41.038278" lon="-6.786644">
        <ele>611.6</ele>
        <time>1970-01-01T01:23:52.000Z</time>
      </trkpt>
      <trkpt lat="41.038296" lon="-6.786648">
        <ele>611.9</ele>
        <time>1970-01-01T01:23:53.000Z</time>
      </trkpt>
      <trkpt lat="41.038316" lon="-6.786644">
        <ele>611.9</ele>
        <time>1970-01-01T01:23:54.000Z</time>
      </trkpt>
      <trkpt lat="41.038338" lon="-6.786639">
        <ele>612.1</ele>
        <time>1970-01-01T01:23:55.000Z</time>
      </trkpt>
      <trkpt lat="41.038362" lon="-6.786637">
        <ele>612.4</ele>
        <time>1970-01-01T01:23:56.000Z</time>
      </trkpt>
      <trkpt lat="41.038387" lon="-6.786637">
        <ele>612.6</ele>
        <time>1970-01-01T01:23:57.000Z</time>
      </trkpt>
      <trkpt lat="41.038414" lon="-6.786643">
        <ele>612.6</ele>
        <time>1970-01-01T01:23:58.000Z</time>
      </trkpt>
      <trkpt lat="41.038443" lon="-6.786654">
        <ele>612.7</ele>
        <time>1970-01-01T01:23:59.000Z</time>
      </trkpt>
      <trkpt lat="41.038474" lon="-6.78667">
        <ele>612.9</ele>
        <time>1970-01-01T01:24:00.000Z</time>
      </trkpt>
      <trkpt lat="41.038506" lon="-6.78669">
        <ele>612.8</ele>
        <time>1970-01-01T01:24:01.000Z</time>
      </trkpt>
      <trkpt lat="41.03854" lon="-6.786711">
        <ele>613</ele>
        <time>1970-01-01T01:24:02.000Z</time>
      </trkpt>
      <trkpt lat="41.038574" lon="-6.786732">
        <ele>612.9</ele>
        <time>1970-01-01T01:24:03.000Z</time>
      </trkpt>
      <trkpt lat="41.038609" lon="-6.78675">
        <ele>613</ele>
        <time>1970-01-01T01:24:04.000Z</time>
      </trkpt>
      <trkpt lat="41.038646" lon="-6.786766">
        <ele>613</ele>
        <time>1970-01-01T01:24:05.000Z</time>
      </trkpt>
      <trkpt lat="41.038682" lon="-6.786781">
        <ele>613.2</ele>
        <time>1970-01-01T01:24:06.000Z</time>
      </trkpt>
      <trkpt lat="41.03872" lon="-6.786797">
        <ele>613.4</ele>
        <time>1970-01-01T01:24:07.000Z</time>
      </trkpt>
      <trkpt lat="41.038759" lon="-6.786813">
        <ele>613.3</ele>
        <time>1970-01-01T01:24:08.000Z</time>
      </trkpt>
      <trkpt lat="41.038799" lon="-6.786827">
        <ele>613.5</ele>
        <time>1970-01-01T01:24:09.000Z</time>
      </trkpt>
      <trkpt lat="41.03884" lon="-6.786835">
        <ele>613.9</ele>
        <time>1970-01-01T01:24:10.000Z</time>
      </trkpt>
      <trkpt lat="41.038881" lon="-6.786833">
        <ele>614.1</ele>
        <time>1970-01-01T01:24:11.000Z</time>
      </trkpt>
      <trkpt lat="41.038921" lon="-6.786823">
        <ele>614.3</ele>
        <time>1970-01-01T01:24:12.000Z</time>
      </trkpt>
      <trkpt lat="41.038961" lon="-6.786808">
        <ele>614.5</ele>
        <time>1970-01-01T01:24:13.000Z</time>
      </trkpt>
      <trkpt lat="41.039" lon="-6.786792">
        <ele>615.3</ele>
        <time>1970-01-01T01:24:14.000Z</time>
      </trkpt>
      <trkpt lat="41.039037" lon="-6.786779">
        <ele>615.4</ele>
        <time>1970-01-01T01:24:15.000Z</time>
      </trkpt>
      <trkpt lat="41.039076" lon="-6.786769">
        <ele>615.6</ele>
        <time>1970-01-01T01:24:16.000Z</time>
      </trkpt>
      <trkpt lat="41.039116" lon="-6.786762">
        <ele>615.7</ele>
        <time>1970-01-01T01:24:17.000Z</time>
      </trkpt>
      <trkpt lat="41.039158" lon="-6.786757">
        <ele>616.3</ele>
        <time>1970-01-01T01:24:18.000Z</time>
      </trkpt>
      <trkpt lat="41.0392" lon="-6.786754">
        <ele>616.4</ele>
        <time>1970-01-01T01:24:19.000Z</time>
      </trkpt>
      <trkpt lat="41.039244" lon="-6.786752">
        <ele>616.4</ele>
        <time>1970-01-01T01:24:20.000Z</time>
      </trkpt>
      <trkpt lat="41.039287" lon="-6.786749">
        <ele>616.4</ele>
        <time>1970-01-01T01:24:21.000Z</time>
      </trkpt>
      <trkpt lat="41.039332" lon="-6.786743">
        <ele>616.2</ele>
        <time>1970-01-01T01:24:22.000Z</time>
      </trkpt>
      <trkpt lat="41.039377" lon="-6.786734">
        <ele>616.1</ele>
        <time>1970-01-01T01:24:23.000Z</time>
      </trkpt>
      <trkpt lat="41.039423" lon="-6.786723">
        <ele>615.9</ele>
        <time>1970-01-01T01:24:24.000Z</time>
      </trkpt>
      <trkpt lat="41.039468" lon="-6.786709">
        <ele>616.1</ele>
        <time>1970-01-01T01:24:25.000Z</time>
      </trkpt>
      <trkpt lat="41.039512" lon="-6.786694">
        <ele>615.9</ele>
        <time>1970-01-01T01:24:26.000Z</time>
      </trkpt>
      <trkpt lat="41.039554" lon="-6.786679">
        <ele>615.5</ele>
        <time>1970-01-01T01:24:27.000Z</time>
      </trkpt>
      <trkpt lat="41.039595" lon="-6.786664">
        <ele>615.7</ele>
        <time>1970-01-01T01:24:28.000Z</time>
      </trkpt>
      <trkpt lat="41.039636" lon="-6.786646">
        <ele>615.6</ele>
        <time>1970-01-01T01:24:29.000Z</time>
      </trkpt>
      <trkpt lat="41.039677" lon="-6.786627">
        <ele>615.7</ele>
        <time>1970-01-01T01:24:30.000Z</time>
      </trkpt>
      <trkpt lat="41.039717" lon="-6.786605">
        <ele>615.3</ele>
        <time>1970-01-01T01:24:31.000Z</time>
      </trkpt>
      <trkpt lat="41.039757" lon="-6.786581">
        <ele>615.4</ele>
        <time>1970-01-01T01:24:32.000Z</time>
      </trkpt>
      <trkpt lat="41.039797" lon="-6.786555">
        <ele>615.1</ele>
        <time>1970-01-01T01:24:33.000Z</time>
      </trkpt>
      <trkpt lat="41.039836" lon="-6.786526">
        <ele>615.2</ele>
        <time>1970-01-01T01:24:34.000Z</time>
      </trkpt>
      <trkpt lat="41.039874" lon="-6.786496">
        <ele>614.8</ele>
        <time>1970-01-01T01:24:35.000Z</time>
      </trkpt>
      <trkpt lat="41.039911" lon="-6.786464">
        <ele>614.5</ele>
        <time>1970-01-01T01:24:36.000Z</time>
      </trkpt>
      <trkpt lat="41.039946" lon="-6.786429">
        <ele>614.4</ele>
        <time>1970-01-01T01:24:37.000Z</time>
      </trkpt>
      <trkpt lat="41.039978" lon="-6.786391">
        <ele>614.2</ele>
        <time>1970-01-01T01:24:38.000Z</time>
      </trkpt>
      <trkpt lat="41.040008" lon="-6.786354">
        <ele>614</ele>
        <time>1970-01-01T01:24:39.000Z</time>
      </trkpt>
      <trkpt lat="41.040036" lon="-6.786315">
        <ele>613.7</ele>
        <time>1970-01-01T01:24:40.000Z</time>
      </trkpt>
      <trkpt lat="41.040064" lon="-6.786278">
        <ele>613.9</ele>
        <time>1970-01-01T01:24:41.000Z</time>
      </trkpt>
      <trkpt lat="41.040091" lon="-6.786241">
        <ele>613.7</ele>
        <time>1970-01-01T01:24:42.000Z</time>
      </trkpt>
      <trkpt lat="41.040119" lon="-6.786209">
        <ele>613.4</ele>
        <time>1970-01-01T01:24:43.000Z</time>
      </trkpt>
      <trkpt lat="41.040148" lon="-6.786183">
        <ele>613.3</ele>
        <time>1970-01-01T01:24:44.000Z</time>
      </trkpt>
      <trkpt lat="41.040179" lon="-6.786161">
        <ele>613</ele>
        <time>1970-01-01T01:24:45.000Z</time>
      </trkpt>
      <trkpt lat="41.040211" lon="-6.786141">
        <ele>612.9</ele>
        <time>1970-01-01T01:24:46.000Z</time>
      </trkpt>
      <trkpt lat="41.040242" lon="-6.786119">
        <ele>612.7</ele>
        <time>1970-01-01T01:24:47.000Z</time>
      </trkpt>
      <trkpt lat="41.040274" lon="-6.786098">
        <ele>612.6</ele>
        <time>1970-01-01T01:24:48.000Z</time>
      </trkpt>
      <trkpt lat="41.040309" lon="-6.786077">
        <ele>612.4</ele>
        <time>1970-01-01T01:24:49.000Z</time>
      </trkpt>
      <trkpt lat="41.040348" lon="-6.786055">
        <ele>612.3</ele>
        <time>1970-01-01T01:24:50.000Z</time>
      </trkpt>
      <trkpt lat="41.040388" lon="-6.786028">
        <ele>612.2</ele>
        <time>1970-01-01T01:24:51.000Z</time>
      </trkpt>
      <trkpt lat="41.040426" lon="-6.785995">
        <ele>611.8</ele>
        <time>1970-01-01T01:24:52.000Z</time>
      </trkpt>
      <trkpt lat="41.04046" lon="-6.785952">
        <ele>611.6</ele>
        <time>1970-01-01T01:24:53.000Z</time>
      </trkpt>
      <trkpt lat="41.040489" lon="-6.785898">
        <ele>611.4</ele>
        <time>1970-01-01T01:24:54.000Z</time>
      </trkpt>
      <trkpt lat="41.040513" lon="-6.785838">
        <ele>611.4</ele>
        <time>1970-01-01T01:24:55.000Z</time>
      </trkpt>
      <trkpt lat="41.040534" lon="-6.785777">
        <ele>611.1</ele>
        <time>1970-01-01T01:24:56.000Z</time>
      </trkpt>
      <trkpt lat="41.040551" lon="-6.785721">
        <ele>611.3</ele>
        <time>1970-01-01T01:24:57.000Z</time>
      </trkpt>
      <trkpt lat="41.040564" lon="-6.785671">
        <ele>611</ele>
        <time>1970-01-01T01:24:58.000Z</time>
      </trkpt>
      <trkpt lat="41.040576" lon="-6.78563">
        <ele>611.2</ele>
        <time>1970-01-01T01:24:59.000Z</time>
      </trkpt>
      <trkpt lat="41.040588" lon="-6.785596">
        <ele>611</ele>
        <time>1970-01-01T01:25:00.000Z</time>
      </trkpt>
      <trkpt lat="41.0406" lon="-6.785567">
        <ele>611</ele>
        <time>1970-01-01T01:25:01.000Z</time>
      </trkpt>
      <trkpt lat="41.040613" lon="-6.785544">
        <ele>611.1</ele>
        <time>1970-01-01T01:25:02.000Z</time>
      </trkpt>
      <trkpt lat="41.040626" lon="-6.785531">
        <ele>611.1</ele>
        <time>1970-01-01T01:25:03.000Z</time>
      </trkpt>
      <trkpt lat="41.040636" lon="-6.785525">
        <ele>611</ele>
        <time>1970-01-01T01:25:04.000Z</time>
      </trkpt>
      <trkpt lat="41.040642" lon="-6.785523">
        <ele>611</ele>
        <time>1970-01-01T01:25:05.000Z</time>
      </trkpt>
      <trkpt lat="41.040643" lon="-6.78552">
        <ele>611</ele>
        <time>1970-01-01T01:25:06.000Z</time>
      </trkpt>
      <trkpt lat="41.040642" lon="-6.785518">
        <ele>611</ele>
        <time>1970-01-01T01:25:07.000Z</time>
      </trkpt>
      <trkpt lat="41.040641" lon="-6.785516">
        <ele>611</ele>
        <time>1970-01-01T01:25:08.000Z</time>
      </trkpt>
      <trkpt lat="41.040641" lon="-6.785516">
        <ele>611</ele>
        <time>1970-01-01T01:25:09.000Z</time>
      </trkpt>
      <trkpt lat="41.040641" lon="-6.785515">
        <ele>611</ele>
        <time>1970-01-01T01:25:10.000Z</time>
      </trkpt>
      <trkpt lat="41.040641" lon="-6.785515">
        <ele>611</ele>
        <time>1970-01-01T01:25:11.000Z</time>
      </trkpt>
      <trkpt lat="41.040642" lon="-6.785514">
        <ele>611</ele>
        <time>1970-01-01T01:25:12.000Z</time>
      </trkpt>
      <trkpt lat="41.040672" lon="-6.785502">
        <ele>610.9</ele>
        <time>1970-01-01T01:25:13.000Z</time>
      </trkpt>
      <trkpt lat="41.040676" lon="-6.785506">
        <ele>610.9</ele>
        <time>1970-01-01T01:25:14.000Z</time>
      </trkpt>
      <trkpt lat="41.040681" lon="-6.785509">
        <ele>610.8</ele>
        <time>1970-01-01T01:26:02.000Z</time>
      </trkpt>
      <trkpt lat="41.040688" lon="-6.785513">
        <ele>610.8</ele>
        <time>1970-01-01T01:26:03.000Z</time>
      </trkpt>
      <trkpt lat="41.040692" lon="-6.785521">
        <ele>610.8</ele>
        <time>1970-01-01T01:26:04.000Z</time>
      </trkpt>
      <trkpt lat="41.040696" lon="-6.785534">
        <ele>610.8</ele>
        <time>1970-01-01T01:26:05.000Z</time>
      </trkpt>
      <trkpt lat="41.040698" lon="-6.785549">
        <ele>610.7</ele>
        <time>1970-01-01T01:26:06.000Z</time>
      </trkpt>
      <trkpt lat="41.040698" lon="-6.785567">
        <ele>610.7</ele>
        <time>1970-01-01T01:26:07.000Z</time>
      </trkpt>
      <trkpt lat="41.040699" lon="-6.785589">
        <ele>610.6</ele>
        <time>1970-01-01T01:26:08.000Z</time>
      </trkpt>
      <trkpt lat="41.040699" lon="-6.785615">
        <ele>610.5</ele>
        <time>1970-01-01T01:26:09.000Z</time>
      </trkpt>
      <trkpt lat="41.0407" lon="-6.785642">
        <ele>610.5</ele>
        <time>1970-01-01T01:26:10.000Z</time>
      </trkpt>
      <trkpt lat="41.040703" lon="-6.785669">
        <ele>610.4</ele>
        <time>1970-01-01T01:26:11.000Z</time>
      </trkpt>
      <trkpt lat="41.040706" lon="-6.785694">
        <ele>610.3</ele>
        <time>1970-01-01T01:26:12.000Z</time>
      </trkpt>
      <trkpt lat="41.040707" lon="-6.78572">
        <ele>610.2</ele>
        <time>1970-01-01T01:26:13.000Z</time>
      </trkpt>
      <trkpt lat="41.040706" lon="-6.78575">
        <ele>610.2</ele>
        <time>1970-01-01T01:26:14.000Z</time>
      </trkpt>
      <trkpt lat="41.040705" lon="-6.785782">
        <ele>610.1</ele>
        <time>1970-01-01T01:26:15.000Z</time>
      </trkpt>
      <trkpt lat="41.040705" lon="-6.785817">
        <ele>610</ele>
        <time>1970-01-01T01:26:16.000Z</time>
      </trkpt>
      <trkpt lat="41.040707" lon="-6.78585">
        <ele>609.9</ele>
        <time>1970-01-01T01:26:17.000Z</time>
      </trkpt>
      <trkpt lat="41.040709" lon="-6.785882">
        <ele>609.8</ele>
        <time>1970-01-01T01:26:18.000Z</time>
      </trkpt>
      <trkpt lat="41.040708" lon="-6.785914">
        <ele>609.7</ele>
        <time>1970-01-01T01:26:19.000Z</time>
      </trkpt>
      <trkpt lat="41.040705" lon="-6.785947">
        <ele>609.6</ele>
        <time>1970-01-01T01:26:20.000Z</time>
      </trkpt>
      <trkpt lat="41.040702" lon="-6.785984">
        <ele>609.5</ele>
        <time>1970-01-01T01:26:21.000Z</time>
      </trkpt>
      <trkpt lat="41.040699" lon="-6.786027">
        <ele>609.4</ele>
        <time>1970-01-01T01:26:22.000Z</time>
      </trkpt>
      <trkpt lat="41.040697" lon="-6.786076">
        <ele>609.2</ele>
        <time>1970-01-01T01:26:23.000Z</time>
      </trkpt>
      <trkpt lat="41.040696" lon="-6.786129">
        <ele>609.1</ele>
        <time>1970-01-01T01:26:24.000Z</time>
      </trkpt>
      <trkpt lat="41.040694" lon="-6.786183">
        <ele>608.9</ele>
        <time>1970-01-01T01:26:25.000Z</time>
      </trkpt>
      <trkpt lat="41.040692" lon="-6.786237">
        <ele>608.7</ele>
        <time>1970-01-01T01:26:26.000Z</time>
      </trkpt>
      <trkpt lat="41.040689" lon="-6.786294">
        <ele>608.5</ele>
        <time>1970-01-01T01:26:27.000Z</time>
      </trkpt>
      <trkpt lat="41.040688" lon="-6.786351">
        <ele>608.3</ele>
        <time>1970-01-01T01:26:28.000Z</time>
      </trkpt>
      <trkpt lat="41.040688" lon="-6.786408">
        <ele>608.2</ele>
        <time>1970-01-01T01:26:29.000Z</time>
      </trkpt>
      <trkpt lat="41.040689" lon="-6.786465">
        <ele>608</ele>
        <time>1970-01-01T01:26:30.000Z</time>
      </trkpt>
      <trkpt lat="41.040693" lon="-6.786524">
        <ele>607.9</ele>
        <time>1970-01-01T01:26:31.000Z</time>
      </trkpt>
      <trkpt lat="41.040697" lon="-6.786585">
        <ele>607.7</ele>
        <time>1970-01-01T01:26:32.000Z</time>
      </trkpt>
      <trkpt lat="41.040704" lon="-6.786649">
        <ele>607.5</ele>
        <time>1970-01-01T01:26:33.000Z</time>
      </trkpt>
      <trkpt lat="41.040712" lon="-6.786715">
        <ele>607.4</ele>
        <time>1970-01-01T01:26:34.000Z</time>
      </trkpt>
      <trkpt lat="41.040722" lon="-6.786781">
        <ele>607.1</ele>
        <time>1970-01-01T01:26:35.000Z</time>
      </trkpt>
      <trkpt lat="41.040735" lon="-6.786848">
        <ele>606.9</ele>
        <time>1970-01-01T01:26:36.000Z</time>
      </trkpt>
      <trkpt lat="41.040753" lon="-6.786915">
        <ele>606.7</ele>
        <time>1970-01-01T01:26:37.000Z</time>
      </trkpt>
      <trkpt lat="41.040774" lon="-6.786983">
        <ele>606.5</ele>
        <time>1970-01-01T01:26:38.000Z</time>
      </trkpt>
      <trkpt lat="41.040798" lon="-6.787049">
        <ele>606.2</ele>
        <time>1970-01-01T01:26:39.000Z</time>
      </trkpt>
      <trkpt lat="41.040824" lon="-6.787115">
        <ele>606</ele>
        <time>1970-01-01T01:26:40.000Z</time>
      </trkpt>
      <trkpt lat="41.040853" lon="-6.787179">
        <ele>605.8</ele>
        <time>1970-01-01T01:26:41.000Z</time>
      </trkpt>
      <trkpt lat="41.040886" lon="-6.787242">
        <ele>605.6</ele>
        <time>1970-01-01T01:26:42.000Z</time>
      </trkpt>
      <trkpt lat="41.04092" lon="-6.787305">
        <ele>605.4</ele>
        <time>1970-01-01T01:26:43.000Z</time>
      </trkpt>
      <trkpt lat="41.040952" lon="-6.78737">
        <ele>605.2</ele>
        <time>1970-01-01T01:26:44.000Z</time>
      </trkpt>
      <trkpt lat="41.04098" lon="-6.787438">
        <ele>605</ele>
        <time>1970-01-01T01:26:45.000Z</time>
      </trkpt>
      <trkpt lat="41.040999" lon="-6.787509">
        <ele>604.7</ele>
        <time>1970-01-01T01:26:46.000Z</time>
      </trkpt>
      <trkpt lat="41.041008" lon="-6.787584">
        <ele>604.5</ele>
        <time>1970-01-01T01:26:47.000Z</time>
      </trkpt>
      <trkpt lat="41.041008" lon="-6.787662">
        <ele>604.3</ele>
        <time>1970-01-01T01:26:48.000Z</time>
      </trkpt>
      <trkpt lat="41.041001" lon="-6.787743">
        <ele>603.9</ele>
        <time>1970-01-01T01:26:49.000Z</time>
      </trkpt>
      <trkpt lat="41.040991" lon="-6.787826">
        <ele>603.3</ele>
        <time>1970-01-01T01:26:50.000Z</time>
      </trkpt>
      <trkpt lat="41.040978" lon="-6.787911">
        <ele>602.7</ele>
        <time>1970-01-01T01:26:51.000Z</time>
      </trkpt>
      <trkpt lat="41.040963" lon="-6.787996">
        <ele>602.1</ele>
        <time>1970-01-01T01:26:52.000Z</time>
      </trkpt>
      <trkpt lat="41.040948" lon="-6.788082">
        <ele>601.6</ele>
        <time>1970-01-01T01:26:53.000Z</time>
      </trkpt>
      <trkpt lat="41.040931" lon="-6.788167">
        <ele>601</ele>
        <time>1970-01-01T01:26:54.000Z</time>
      </trkpt>
      <trkpt lat="41.040915" lon="-6.788254">
        <ele>600.5</ele>
        <time>1970-01-01T01:26:55.000Z</time>
      </trkpt>
      <trkpt lat="41.040899" lon="-6.788342">
        <ele>599.9</ele>
        <time>1970-01-01T01:26:56.000Z</time>
      </trkpt>
      <trkpt lat="41.040884" lon="-6.788431">
        <ele>599.4</ele>
        <time>1970-01-01T01:26:57.000Z</time>
      </trkpt>
      <trkpt lat="41.040868" lon="-6.788522">
        <ele>598.8</ele>
        <time>1970-01-01T01:26:58.000Z</time>
      </trkpt>
      <trkpt lat="41.040851" lon="-6.788615">
        <ele>598.2</ele>
        <time>1970-01-01T01:26:59.000Z</time>
      </trkpt>
      <trkpt lat="41.040835" lon="-6.788708">
        <ele>597.6</ele>
        <time>1970-01-01T01:27:00.000Z</time>
      </trkpt>
      <trkpt lat="41.040823" lon="-6.788798">
        <ele>597.1</ele>
        <time>1970-01-01T01:27:01.000Z</time>
      </trkpt>
      <trkpt lat="41.040819" lon="-6.788884">
        <ele>596.5</ele>
        <time>1970-01-01T01:27:02.000Z</time>
      </trkpt>
      <trkpt lat="41.040823" lon="-6.788967">
        <ele>596</ele>
        <time>1970-01-01T01:27:03.000Z</time>
      </trkpt>
      <trkpt lat="41.040836" lon="-6.789052">
        <ele>595.5</ele>
        <time>1970-01-01T01:27:04.000Z</time>
      </trkpt>
      <trkpt lat="41.040854" lon="-6.789141">
        <ele>594.9</ele>
        <time>1970-01-01T01:27:05.000Z</time>
      </trkpt>
      <trkpt lat="41.04088" lon="-6.789234">
        <ele>594.3</ele>
        <time>1970-01-01T01:27:06.000Z</time>
      </trkpt>
      <trkpt lat="41.040912" lon="-6.789326">
        <ele>593.7</ele>
        <time>1970-01-01T01:27:07.000Z</time>
      </trkpt>
      <trkpt lat="41.040955" lon="-6.789416">
        <ele>593</ele>
        <time>1970-01-01T01:27:08.000Z</time>
      </trkpt>
      <trkpt lat="41.041009" lon="-6.789495">
        <ele>592.4</ele>
        <time>1970-01-01T01:27:09.000Z</time>
      </trkpt>
      <trkpt lat="41.041077" lon="-6.789564">
        <ele>591.7</ele>
        <time>1970-01-01T01:27:10.000Z</time>
      </trkpt>
      <trkpt lat="41.041154" lon="-6.789623">
        <ele>590.9</ele>
        <time>1970-01-01T01:27:11.000Z</time>
      </trkpt>
      <trkpt lat="41.041236" lon="-6.789677">
        <ele>590.2</ele>
        <time>1970-01-01T01:27:12.000Z</time>
      </trkpt>
      <trkpt lat="41.041321" lon="-6.78973">
        <ele>589.4</ele>
        <time>1970-01-01T01:27:13.000Z</time>
      </trkpt>
      <trkpt lat="41.041408" lon="-6.789781">
        <ele>588.7</ele>
        <time>1970-01-01T01:27:14.000Z</time>
      </trkpt>
      <trkpt lat="41.041495" lon="-6.789832">
        <ele>587.9</ele>
        <time>1970-01-01T01:27:15.000Z</time>
      </trkpt>
      <trkpt lat="41.041581" lon="-6.78988">
        <ele>587.1</ele>
        <time>1970-01-01T01:27:16.000Z</time>
      </trkpt>
      <trkpt lat="41.041665" lon="-6.789927">
        <ele>586.4</ele>
        <time>1970-01-01T01:27:17.000Z</time>
      </trkpt>
      <trkpt lat="41.041744" lon="-6.789973">
        <ele>585.7</ele>
        <time>1970-01-01T01:27:18.000Z</time>
      </trkpt>
      <trkpt lat="41.041817" lon="-6.790021">
        <ele>585</ele>
        <time>1970-01-01T01:27:19.000Z</time>
      </trkpt>
      <trkpt lat="41.041877" lon="-6.790082">
        <ele>584.4</ele>
        <time>1970-01-01T01:27:20.000Z</time>
      </trkpt>
      <trkpt lat="41.041922" lon="-6.790157">
        <ele>583.8</ele>
        <time>1970-01-01T01:27:21.000Z</time>
      </trkpt>
      <trkpt lat="41.041948" lon="-6.79024">
        <ele>583.2</ele>
        <time>1970-01-01T01:27:22.000Z</time>
      </trkpt>
      <trkpt lat="41.041956" lon="-6.790332">
        <ele>582.7</ele>
        <time>1970-01-01T01:27:23.000Z</time>
      </trkpt>
      <trkpt lat="41.041948" lon="-6.790433">
        <ele>582.1</ele>
        <time>1970-01-01T01:27:24.000Z</time>
      </trkpt>
      <trkpt lat="41.041929" lon="-6.790544">
        <ele>581.4</ele>
        <time>1970-01-01T01:27:25.000Z</time>
      </trkpt>
      <trkpt lat="41.041906" lon="-6.790647">
        <ele>580.7</ele>
        <time>1970-01-01T01:27:26.000Z</time>
      </trkpt>
      <trkpt lat="41.041867" lon="-6.790732">
        <ele>580.1</ele>
        <time>1970-01-01T01:27:27.000Z</time>
      </trkpt>
      <trkpt lat="41.041808" lon="-6.790787">
        <ele>579.5</ele>
        <time>1970-01-01T01:27:28.000Z</time>
      </trkpt>
      <trkpt lat="41.04173" lon="-6.790822">
        <ele>578.8</ele>
        <time>1970-01-01T01:27:29.000Z</time>
      </trkpt>
      <trkpt lat="41.041648" lon="-6.790848">
        <ele>578.1</ele>
        <time>1970-01-01T01:27:30.000Z</time>
      </trkpt>
      <trkpt lat="41.04156" lon="-6.790877">
        <ele>577.4</ele>
        <time>1970-01-01T01:27:31.000Z</time>
      </trkpt>
      <trkpt lat="41.04147" lon="-6.790913">
        <ele>576.6</ele>
        <time>1970-01-01T01:27:32.000Z</time>
      </trkpt>
      <trkpt lat="41.041382" lon="-6.790958">
        <ele>575.9</ele>
        <time>1970-01-01T01:27:33.000Z</time>
      </trkpt>
      <trkpt lat="41.041304" lon="-6.791019">
        <ele>575.1</ele>
        <time>1970-01-01T01:27:34.000Z</time>
      </trkpt>
      <trkpt lat="41.041237" lon="-6.791088">
        <ele>574.4</ele>
        <time>1970-01-01T01:27:35.000Z</time>
      </trkpt>
      <trkpt lat="41.041179" lon="-6.791158">
        <ele>573.8</ele>
        <time>1970-01-01T01:27:36.000Z</time>
      </trkpt>
      <trkpt lat="41.041126" lon="-6.791216">
        <ele>573.2</ele>
        <time>1970-01-01T01:27:37.000Z</time>
      </trkpt>
      <trkpt lat="41.04108" lon="-6.791265">
        <ele>572.7</ele>
        <time>1970-01-01T01:27:38.000Z</time>
      </trkpt>
      <trkpt lat="41.04104" lon="-6.791306">
        <ele>572.3</ele>
        <time>1970-01-01T01:27:39.000Z</time>
      </trkpt>
      <trkpt lat="41.041004" lon="-6.791339">
        <ele>572</ele>
        <time>1970-01-01T01:27:40.000Z</time>
      </trkpt>
      <trkpt lat="41.040968" lon="-6.791368">
        <ele>571.6</ele>
        <time>1970-01-01T01:27:41.000Z</time>
      </trkpt>
      <trkpt lat="41.040933" lon="-6.791396">
        <ele>571.3</ele>
        <time>1970-01-01T01:27:42.000Z</time>
      </trkpt>
      <trkpt lat="41.040897" lon="-6.791427">
        <ele>570.9</ele>
        <time>1970-01-01T01:27:43.000Z</time>
      </trkpt>
      <trkpt lat="41.040866" lon="-6.791454">
        <ele>570.6</ele>
        <time>1970-01-01T01:27:44.000Z</time>
      </trkpt>
      <trkpt lat="41.040842" lon="-6.791472">
        <ele>570.4</ele>
        <time>1970-01-01T01:27:45.000Z</time>
      </trkpt>
      <trkpt lat="41.040827" lon="-6.791478">
        <ele>570.3</ele>
        <time>1970-01-01T01:27:46.000Z</time>
      </trkpt>
      <trkpt lat="41.040798" lon="-6.791488">
        <ele>570</ele>
        <time>1970-01-01T01:27:47.000Z</time>
      </trkpt>
      <trkpt lat="41.040782" lon="-6.791497">
        <ele>569.9</ele>
        <time>1970-01-01T01:27:48.000Z</time>
      </trkpt>
      <trkpt lat="41.040765" lon="-6.791506">
        <ele>569.8</ele>
        <time>1970-01-01T01:27:49.000Z</time>
      </trkpt>
      <trkpt lat="41.040749" lon="-6.791515">
        <ele>569.6</ele>
        <time>1970-01-01T01:27:50.000Z</time>
      </trkpt>
      <trkpt lat="41.040733" lon="-6.791525">
        <ele>569.5</ele>
        <time>1970-01-01T01:27:51.000Z</time>
      </trkpt>
      <trkpt lat="41.040717" lon="-6.791534">
        <ele>569.3</ele>
        <time>1970-01-01T01:27:52.000Z</time>
      </trkpt>
      <trkpt lat="41.0407" lon="-6.791543">
        <ele>569.2</ele>
        <time>1970-01-01T01:27:53.000Z</time>
      </trkpt>
      <trkpt lat="41.040684" lon="-6.791552">
        <ele>569</ele>
        <time>1970-01-01T01:27:54.000Z</time>
      </trkpt>
      <trkpt lat="41.040668" lon="-6.791561">
        <ele>568.9</ele>
        <time>1970-01-01T01:27:55.000Z</time>
      </trkpt>
      <trkpt lat="41.040652" lon="-6.79157">
        <ele>568.7</ele>
        <time>1970-01-01T01:27:56.000Z</time>
      </trkpt>
      <trkpt lat="41.040635" lon="-6.791579">
        <ele>568.6</ele>
        <time>1970-01-01T01:27:57.000Z</time>
      </trkpt>
      <trkpt lat="41.040619" lon="-6.791588">
        <ele>568.5</ele>
        <time>1970-01-01T01:27:58.000Z</time>
      </trkpt>
      <trkpt lat="41.040603" lon="-6.791598">
        <ele>568.3</ele>
        <time>1970-01-01T01:27:59.000Z</time>
      </trkpt>
      <trkpt lat="41.040587" lon="-6.791607">
        <ele>568.2</ele>
        <time>1970-01-01T01:28:00.000Z</time>
      </trkpt>
      <trkpt lat="41.04057" lon="-6.791616">
        <ele>568</ele>
        <time>1970-01-01T01:28:01.000Z</time>
      </trkpt>
      <trkpt lat="41.040554" lon="-6.791625">
        <ele>567.9</ele>
        <time>1970-01-01T01:31:17.000Z</time>
      </trkpt>
      <trkpt lat="41.040538" lon="-6.791634">
        <ele>567.7</ele>
        <time>1970-01-01T01:31:18.000Z</time>
      </trkpt>
      <trkpt lat="41.040507" lon="-6.791671">
        <ele>567.4</ele>
        <time>1970-01-01T01:31:19.000Z</time>
      </trkpt>
      <trkpt lat="41.040488" lon="-6.791721">
        <ele>567.1</ele>
        <time>1970-01-01T01:31:20.000Z</time>
      </trkpt>
      <trkpt lat="41.040489" lon="-6.791768">
        <ele>566.8</ele>
        <time>1970-01-01T01:31:21.000Z</time>
      </trkpt>
      <trkpt lat="41.040512" lon="-6.791804">
        <ele>566.5</ele>
        <time>1970-01-01T01:31:22.000Z</time>
      </trkpt>
      <trkpt lat="41.040553" lon="-6.791826">
        <ele>566.1</ele>
        <time>1970-01-01T01:31:23.000Z</time>
      </trkpt>
      <trkpt lat="41.040608" lon="-6.791842">
        <ele>565.7</ele>
        <time>1970-01-01T01:31:24.000Z</time>
      </trkpt>
      <trkpt lat="41.040677" lon="-6.791857">
        <ele>565.1</ele>
        <time>1970-01-01T01:31:25.000Z</time>
      </trkpt>
      <trkpt lat="41.040755" lon="-6.791872">
        <ele>564.4</ele>
        <time>1970-01-01T01:31:26.000Z</time>
      </trkpt>
      <trkpt lat="41.040834" lon="-6.791886">
        <ele>563.8</ele>
        <time>1970-01-01T01:31:27.000Z</time>
      </trkpt>
      <trkpt lat="41.040913" lon="-6.791902">
        <ele>563.1</ele>
        <time>1970-01-01T01:31:28.000Z</time>
      </trkpt>
      <trkpt lat="41.040993" lon="-6.791917">
        <ele>562.5</ele>
        <time>1970-01-01T01:31:29.000Z</time>
      </trkpt>
      <trkpt lat="41.041071" lon="-6.791933">
        <ele>561.8</ele>
        <time>1970-01-01T01:31:30.000Z</time>
      </trkpt>
      <trkpt lat="41.04115" lon="-6.79195">
        <ele>561.2</ele>
        <time>1970-01-01T01:31:31.000Z</time>
      </trkpt>
      <trkpt lat="41.04123" lon="-6.791964">
        <ele>560.5</ele>
        <time>1970-01-01T01:31:32.000Z</time>
      </trkpt>
      <trkpt lat="41.041312" lon="-6.791971">
        <ele>559.9</ele>
        <time>1970-01-01T01:31:33.000Z</time>
      </trkpt>
      <trkpt lat="41.041398" lon="-6.791968">
        <ele>559.1</ele>
        <time>1970-01-01T01:31:34.000Z</time>
      </trkpt>
      <trkpt lat="41.041491" lon="-6.791955">
        <ele>558.4</ele>
        <time>1970-01-01T01:31:35.000Z</time>
      </trkpt>
      <trkpt lat="41.04159" lon="-6.791937">
        <ele>557.6</ele>
        <time>1970-01-01T01:31:36.000Z</time>
      </trkpt>
      <trkpt lat="41.041693" lon="-6.791915">
        <ele>556.7</ele>
        <time>1970-01-01T01:31:37.000Z</time>
      </trkpt>
      <trkpt lat="41.041794" lon="-6.791891">
        <ele>555.9</ele>
        <time>1970-01-01T01:31:38.000Z</time>
      </trkpt>
      <trkpt lat="41.041891" lon="-6.791867">
        <ele>555.1</ele>
        <time>1970-01-01T01:31:39.000Z</time>
      </trkpt>
      <trkpt lat="41.041985" lon="-6.791843">
        <ele>554.3</ele>
        <time>1970-01-01T01:31:40.000Z</time>
      </trkpt>
      <trkpt lat="41.042077" lon="-6.791819">
        <ele>553.5</ele>
        <time>1970-01-01T01:31:41.000Z</time>
      </trkpt>
      <trkpt lat="41.042166" lon="-6.791796">
        <ele>552.8</ele>
        <time>1970-01-01T01:31:42.000Z</time>
      </trkpt>
      <trkpt lat="41.042251" lon="-6.791775">
        <ele>552.1</ele>
        <time>1970-01-01T01:31:43.000Z</time>
      </trkpt>
      <trkpt lat="41.042332" lon="-6.791758">
        <ele>551.4</ele>
        <time>1970-01-01T01:31:44.000Z</time>
      </trkpt>
      <trkpt lat="41.042408" lon="-6.79175">
        <ele>550.8</ele>
        <time>1970-01-01T01:31:45.000Z</time>
      </trkpt>
      <trkpt lat="41.042475" lon="-6.791762">
        <ele>550.2</ele>
        <time>1970-01-01T01:31:46.000Z</time>
      </trkpt>
      <trkpt lat="41.042524" lon="-6.791801">
        <ele>549.8</ele>
        <time>1970-01-01T01:31:47.000Z</time>
      </trkpt>
      <trkpt lat="41.042553" lon="-6.79186">
        <ele>549.3</ele>
        <time>1970-01-01T01:31:48.000Z</time>
      </trkpt>
      <trkpt lat="41.042546" lon="-6.791927">
        <ele>548.9</ele>
        <time>1970-01-01T01:31:49.000Z</time>
      </trkpt>
      <trkpt lat="41.042518" lon="-6.791989">
        <ele>548.5</ele>
        <time>1970-01-01T01:31:50.000Z</time>
      </trkpt>
      <trkpt lat="41.042471" lon="-6.792043">
        <ele>548</ele>
        <time>1970-01-01T01:31:51.000Z</time>
      </trkpt>
      <trkpt lat="41.04242" lon="-6.792089">
        <ele>547.5</ele>
        <time>1970-01-01T01:31:52.000Z</time>
      </trkpt>
      <trkpt lat="41.042361" lon="-6.792137">
        <ele>546.9</ele>
        <time>1970-01-01T01:31:53.000Z</time>
      </trkpt>
      <trkpt lat="41.042294" lon="-6.792185">
        <ele>546.3</ele>
        <time>1970-01-01T01:31:54.000Z</time>
      </trkpt>
      <trkpt lat="41.042222" lon="-6.792234">
        <ele>545.6</ele>
        <time>1970-01-01T01:31:55.000Z</time>
      </trkpt>
      <trkpt lat="41.042144" lon="-6.792282">
        <ele>544.9</ele>
        <time>1970-01-01T01:31:56.000Z</time>
      </trkpt>
      <trkpt lat="41.042063" lon="-6.792333">
        <ele>544.2</ele>
        <time>1970-01-01T01:31:57.000Z</time>
      </trkpt>
      <trkpt lat="41.04198" lon="-6.792385">
        <ele>543.4</ele>
        <time>1970-01-01T01:31:58.000Z</time>
      </trkpt>
      <trkpt lat="41.041895" lon="-6.792439">
        <ele>542.7</ele>
        <time>1970-01-01T01:31:59.000Z</time>
      </trkpt>
      <trkpt lat="41.04181" lon="-6.792494">
        <ele>541.9</ele>
        <time>1970-01-01T01:32:00.000Z</time>
      </trkpt>
      <trkpt lat="41.041726" lon="-6.792553">
        <ele>541.1</ele>
        <time>1970-01-01T01:32:01.000Z</time>
      </trkpt>
      <trkpt lat="41.041646" lon="-6.79262">
        <ele>540.4</ele>
        <time>1970-01-01T01:32:02.000Z</time>
      </trkpt>
      <trkpt lat="41.041568" lon="-6.792698">
        <ele>539.6</ele>
        <time>1970-01-01T01:32:03.000Z</time>
      </trkpt>
      <trkpt lat="41.041493" lon="-6.792788">
        <ele>538.7</ele>
        <time>1970-01-01T01:32:04.000Z</time>
      </trkpt>
      <trkpt lat="41.04142" lon="-6.792882">
        <ele>537.9</ele>
        <time>1970-01-01T01:32:05.000Z</time>
      </trkpt>
      <trkpt lat="41.041348" lon="-6.792974">
        <ele>537.1</ele>
        <time>1970-01-01T01:32:06.000Z</time>
      </trkpt>
      <trkpt lat="41.041275" lon="-6.793059">
        <ele>536.3</ele>
        <time>1970-01-01T01:32:07.000Z</time>
      </trkpt>
      <trkpt lat="41.041202" lon="-6.793141">
        <ele>535.5</ele>
        <time>1970-01-01T01:32:08.000Z</time>
      </trkpt>
      <trkpt lat="41.041127" lon="-6.79322">
        <ele>534.7</ele>
        <time>1970-01-01T01:32:09.000Z</time>
      </trkpt>
      <trkpt lat="41.041047" lon="-6.793291">
        <ele>533.9</ele>
        <time>1970-01-01T01:32:10.000Z</time>
      </trkpt>
      <trkpt lat="41.04096" lon="-6.79335">
        <ele>533.1</ele>
        <time>1970-01-01T01:32:11.000Z</time>
      </trkpt>
      <trkpt lat="41.040868" lon="-6.793397">
        <ele>532.3</ele>
        <time>1970-01-01T01:32:12.000Z</time>
      </trkpt>
      <trkpt lat="41.040772" lon="-6.793439">
        <ele>531.8</ele>
        <time>1970-01-01T01:32:13.000Z</time>
      </trkpt>
      <trkpt lat="41.040672" lon="-6.793482">
        <ele>530.8</ele>
        <time>1970-01-01T01:32:14.000Z</time>
      </trkpt>
      <trkpt lat="41.040568" lon="-6.793525">
        <ele>529.7</ele>
        <time>1970-01-01T01:32:15.000Z</time>
      </trkpt>
      <trkpt lat="41.04046" lon="-6.793566">
        <ele>528.7</ele>
        <time>1970-01-01T01:32:16.000Z</time>
      </trkpt>
      <trkpt lat="41.04035" lon="-6.793608">
        <ele>527.8</ele>
        <time>1970-01-01T01:32:17.000Z</time>
      </trkpt>
      <trkpt lat="41.040239" lon="-6.793646">
        <ele>526.8</ele>
        <time>1970-01-01T01:32:18.000Z</time>
      </trkpt>
      <trkpt lat="41.040127" lon="-6.793679">
        <ele>525.9</ele>
        <time>1970-01-01T01:32:19.000Z</time>
      </trkpt>
      <trkpt lat="41.040013" lon="-6.793708">
        <ele>525</ele>
        <time>1970-01-01T01:32:20.000Z</time>
      </trkpt>
      <trkpt lat="41.039899" lon="-6.793733">
        <ele>524.1</ele>
        <time>1970-01-01T01:32:21.000Z</time>
      </trkpt>
      <trkpt lat="41.039783" lon="-6.793757">
        <ele>523</ele>
        <time>1970-01-01T01:32:22.000Z</time>
      </trkpt>
      <trkpt lat="41.039667" lon="-6.793779">
        <ele>522.1</ele>
        <time>1970-01-01T01:32:23.000Z</time>
      </trkpt>
      <trkpt lat="41.039552" lon="-6.793802">
        <ele>521.4</ele>
        <time>1970-01-01T01:32:24.000Z</time>
      </trkpt>
      <trkpt lat="41.039439" lon="-6.79383">
        <ele>520.6</ele>
        <time>1970-01-01T01:32:25.000Z</time>
      </trkpt>
      <trkpt lat="41.039325" lon="-6.793863">
        <ele>519.8</ele>
        <time>1970-01-01T01:32:26.000Z</time>
      </trkpt>
      <trkpt lat="41.039209" lon="-6.793897">
        <ele>518.8</ele>
        <time>1970-01-01T01:32:27.000Z</time>
      </trkpt>
      <trkpt lat="41.03909" lon="-6.793926">
        <ele>517.7</ele>
        <time>1970-01-01T01:32:28.000Z</time>
      </trkpt>
      <trkpt lat="41.038969" lon="-6.793945">
        <ele>516.6</ele>
        <time>1970-01-01T01:32:29.000Z</time>
      </trkpt>
      <trkpt lat="41.038846" lon="-6.79395">
        <ele>515.6</ele>
        <time>1970-01-01T01:32:30.000Z</time>
      </trkpt>
      <trkpt lat="41.038722" lon="-6.793942">
        <ele>514.7</ele>
        <time>1970-01-01T01:32:31.000Z</time>
      </trkpt>
      <trkpt lat="41.038599" lon="-6.793928">
        <ele>513.9</ele>
        <time>1970-01-01T01:32:32.000Z</time>
      </trkpt>
      <trkpt lat="41.038476" lon="-6.793915">
        <ele>513</ele>
        <time>1970-01-01T01:32:33.000Z</time>
      </trkpt>
      <trkpt lat="41.038352" lon="-6.79391">
        <ele>512</ele>
        <time>1970-01-01T01:32:34.000Z</time>
      </trkpt>
      <trkpt lat="41.038228" lon="-6.793904">
        <ele>511</ele>
        <time>1970-01-01T01:32:35.000Z</time>
      </trkpt>
      <trkpt lat="41.038106" lon="-6.793885">
        <ele>510</ele>
        <time>1970-01-01T01:32:36.000Z</time>
      </trkpt>
      <trkpt lat="41.037984" lon="-6.793851">
        <ele>508.8</ele>
        <time>1970-01-01T01:32:37.000Z</time>
      </trkpt>
      <trkpt lat="41.037868" lon="-6.793802">
        <ele>507.5</ele>
        <time>1970-01-01T01:32:38.000Z</time>
      </trkpt>
      <trkpt lat="41.037751" lon="-6.793755">
        <ele>506.1</ele>
        <time>1970-01-01T01:32:39.000Z</time>
      </trkpt>
      <trkpt lat="41.037635" lon="-6.79372">
        <ele>505.1</ele>
        <time>1970-01-01T01:32:40.000Z</time>
      </trkpt>
      <trkpt lat="41.037526" lon="-6.793714">
        <ele>504.2</ele>
        <time>1970-01-01T01:32:41.000Z</time>
      </trkpt>
      <trkpt lat="41.037423" lon="-6.793733">
        <ele>503.4</ele>
        <time>1970-01-01T01:32:42.000Z</time>
      </trkpt>
      <trkpt lat="41.037323" lon="-6.793768">
        <ele>502.6</ele>
        <time>1970-01-01T01:32:43.000Z</time>
      </trkpt>
      <trkpt lat="41.037215" lon="-6.793801">
        <ele>501.6</ele>
        <time>1970-01-01T01:32:44.000Z</time>
      </trkpt>
      <trkpt lat="41.037101" lon="-6.793824">
        <ele>500.7</ele>
        <time>1970-01-01T01:32:45.000Z</time>
      </trkpt>
      <trkpt lat="41.036986" lon="-6.793836">
        <ele>499.8</ele>
        <time>1970-01-01T01:32:46.000Z</time>
      </trkpt>
      <trkpt lat="41.036874" lon="-6.793841">
        <ele>499</ele>
        <time>1970-01-01T01:32:47.000Z</time>
      </trkpt>
      <trkpt lat="41.03677" lon="-6.793848">
        <ele>498.2</ele>
        <time>1970-01-01T01:32:48.000Z</time>
      </trkpt>
      <trkpt lat="41.036679" lon="-6.793866">
        <ele>497.5</ele>
        <time>1970-01-01T01:32:49.000Z</time>
      </trkpt>
      <trkpt lat="41.036602" lon="-6.793902">
        <ele>496.6</ele>
        <time>1970-01-01T01:32:50.000Z</time>
      </trkpt>
      <trkpt lat="41.036547" lon="-6.79396">
        <ele>496</ele>
        <time>1970-01-01T01:32:51.000Z</time>
      </trkpt>
      <trkpt lat="41.036514" lon="-6.794028">
        <ele>495.4</ele>
        <time>1970-01-01T01:32:52.000Z</time>
      </trkpt>
      <trkpt lat="41.036519" lon="-6.794094">
        <ele>495</ele>
        <time>1970-01-01T01:32:53.000Z</time>
      </trkpt>
      <trkpt lat="41.036549" lon="-6.79414">
        <ele>494.6</ele>
        <time>1970-01-01T01:32:54.000Z</time>
      </trkpt>
      <trkpt lat="41.036593" lon="-6.794173">
        <ele>494.1</ele>
        <time>1970-01-01T01:32:55.000Z</time>
      </trkpt>
      <trkpt lat="41.036642" lon="-6.794197">
        <ele>493.6</ele>
        <time>1970-01-01T01:32:56.000Z</time>
      </trkpt>
      <trkpt lat="41.036702" lon="-6.794208">
        <ele>493.1</ele>
        <time>1970-01-01T01:32:57.000Z</time>
      </trkpt>
      <trkpt lat="41.03678" lon="-6.794207">
        <ele>492.5</ele>
        <time>1970-01-01T01:32:58.000Z</time>
      </trkpt>
      <trkpt lat="41.036866" lon="-6.794197">
        <ele>491.9</ele>
        <time>1970-01-01T01:32:59.000Z</time>
      </trkpt>
      <trkpt lat="41.036955" lon="-6.794186">
        <ele>491.3</ele>
        <time>1970-01-01T01:33:00.000Z</time>
      </trkpt>
      <trkpt lat="41.037045" lon="-6.794176">
        <ele>490.8</ele>
        <time>1970-01-01T01:33:01.000Z</time>
      </trkpt>
      <trkpt lat="41.037135" lon="-6.794169">
        <ele>490.4</ele>
        <time>1970-01-01T01:33:02.000Z</time>
      </trkpt>
      <trkpt lat="41.037226" lon="-6.794168">
        <ele>490</ele>
        <time>1970-01-01T01:33:03.000Z</time>
      </trkpt>
      <trkpt lat="41.037318" lon="-6.794178">
        <ele>489.5</ele>
        <time>1970-01-01T01:33:04.000Z</time>
      </trkpt>
      <trkpt lat="41.037409" lon="-6.794203">
        <ele>489</ele>
        <time>1970-01-01T01:33:05.000Z</time>
      </trkpt>
      <trkpt lat="41.037501" lon="-6.794242">
        <ele>488.4</ele>
        <time>1970-01-01T01:33:06.000Z</time>
      </trkpt>
      <trkpt lat="41.037593" lon="-6.794284">
        <ele>487.8</ele>
        <time>1970-01-01T01:33:07.000Z</time>
      </trkpt>
      <trkpt lat="41.037689" lon="-6.794318">
        <ele>487</ele>
        <time>1970-01-01T01:33:08.000Z</time>
      </trkpt>
      <trkpt lat="41.037788" lon="-6.79434">
        <ele>486.3</ele>
        <time>1970-01-01T01:33:09.000Z</time>
      </trkpt>
      <trkpt lat="41.03789" lon="-6.794356">
        <ele>485.7</ele>
        <time>1970-01-01T01:33:10.000Z</time>
      </trkpt>
      <trkpt lat="41.037994" lon="-6.794376">
        <ele>485.1</ele>
        <time>1970-01-01T01:33:11.000Z</time>
      </trkpt>
      <trkpt lat="41.038098" lon="-6.794404">
        <ele>484.4</ele>
        <time>1970-01-01T01:33:12.000Z</time>
      </trkpt>
      <trkpt lat="41.038199" lon="-6.794442">
        <ele>483.7</ele>
        <time>1970-01-01T01:33:13.000Z</time>
      </trkpt>
      <trkpt lat="41.038299" lon="-6.794485">
        <ele>482.9</ele>
        <time>1970-01-01T01:33:14.000Z</time>
      </trkpt>
      <trkpt lat="41.0384" lon="-6.79453">
        <ele>482.1</ele>
        <time>1970-01-01T01:33:15.000Z</time>
      </trkpt>
      <trkpt lat="41.038501" lon="-6.794571">
        <ele>481.3</ele>
        <time>1970-01-01T01:33:16.000Z</time>
      </trkpt>
      <trkpt lat="41.038606" lon="-6.794601">
        <ele>480.5</ele>
        <time>1970-01-01T01:33:17.000Z</time>
      </trkpt>
      <trkpt lat="41.038714" lon="-6.794617">
        <ele>479.5</ele>
        <time>1970-01-01T01:33:18.000Z</time>
      </trkpt>
      <trkpt lat="41.038824" lon="-6.794624">
        <ele>478.6</ele>
        <time>1970-01-01T01:33:19.000Z</time>
      </trkpt>
      <trkpt lat="41.038935" lon="-6.794626">
        <ele>477.7</ele>
        <time>1970-01-01T01:33:20.000Z</time>
      </trkpt>
      <trkpt lat="41.039045" lon="-6.794635">
        <ele>476.7</ele>
        <time>1970-01-01T01:33:21.000Z</time>
      </trkpt>
      <trkpt lat="41.039155" lon="-6.794656">
        <ele>475.9</ele>
        <time>1970-01-01T01:33:22.000Z</time>
      </trkpt>
      <trkpt lat="41.039262" lon="-6.794688">
        <ele>475.2</ele>
        <time>1970-01-01T01:33:23.000Z</time>
      </trkpt>
      <trkpt lat="41.039373" lon="-6.794727">
        <ele>474.3</ele>
        <time>1970-01-01T01:33:24.000Z</time>
      </trkpt>
      <trkpt lat="41.039485" lon="-6.794765">
        <ele>473.5</ele>
        <time>1970-01-01T01:33:25.000Z</time>
      </trkpt>
      <trkpt lat="41.039601" lon="-6.7948">
        <ele>472.6</ele>
        <time>1970-01-01T01:33:26.000Z</time>
      </trkpt>
      <trkpt lat="41.039716" lon="-6.794836">
        <ele>471.6</ele>
        <time>1970-01-01T01:33:27.000Z</time>
      </trkpt>
      <trkpt lat="41.03983" lon="-6.794882">
        <ele>470.7</ele>
        <time>1970-01-01T01:33:28.000Z</time>
      </trkpt>
      <trkpt lat="41.03994" lon="-6.794942">
        <ele>469.8</ele>
        <time>1970-01-01T01:33:29.000Z</time>
      </trkpt>
      <trkpt lat="41.040044" lon="-6.79501">
        <ele>468.8</ele>
        <time>1970-01-01T01:33:30.000Z</time>
      </trkpt>
      <trkpt lat="41.040141" lon="-6.795079">
        <ele>467.7</ele>
        <time>1970-01-01T01:33:31.000Z</time>
      </trkpt>
      <trkpt lat="41.040233" lon="-6.795136">
        <ele>466.7</ele>
        <time>1970-01-01T01:33:32.000Z</time>
      </trkpt>
      <trkpt lat="41.040327" lon="-6.795176">
        <ele>465.9</ele>
        <time>1970-01-01T01:33:33.000Z</time>
      </trkpt>
      <trkpt lat="41.040425" lon="-6.795194">
        <ele>465.1</ele>
        <time>1970-01-01T01:33:34.000Z</time>
      </trkpt>
      <trkpt lat="41.040531" lon="-6.795195">
        <ele>464.4</ele>
        <time>1970-01-01T01:33:35.000Z</time>
      </trkpt>
      <trkpt lat="41.040644" lon="-6.79518">
        <ele>463.6</ele>
        <time>1970-01-01T01:33:36.000Z</time>
      </trkpt>
      <trkpt lat="41.04076" lon="-6.795156">
        <ele>462.7</ele>
        <time>1970-01-01T01:33:37.000Z</time>
      </trkpt>
      <trkpt lat="41.040874" lon="-6.795126">
        <ele>461.8</ele>
        <time>1970-01-01T01:33:38.000Z</time>
      </trkpt>
      <trkpt lat="41.040986" lon="-6.79509">
        <ele>461</ele>
        <time>1970-01-01T01:33:39.000Z</time>
      </trkpt>
      <trkpt lat="41.0411" lon="-6.795054">
        <ele>460.1</ele>
        <time>1970-01-01T01:33:40.000Z</time>
      </trkpt>
      <trkpt lat="41.041213" lon="-6.795015">
        <ele>459.1</ele>
        <time>1970-01-01T01:33:41.000Z</time>
      </trkpt>
      <trkpt lat="41.041326" lon="-6.794969">
        <ele>458.2</ele>
        <time>1970-01-01T01:33:42.000Z</time>
      </trkpt>
      <trkpt lat="41.041441" lon="-6.794897">
        <ele>457.1</ele>
        <time>1970-01-01T01:33:43.000Z</time>
      </trkpt>
      <trkpt lat="41.041552" lon="-6.794802">
        <ele>455.9</ele>
        <time>1970-01-01T01:33:44.000Z</time>
      </trkpt>
      <trkpt lat="41.04166" lon="-6.794696">
        <ele>454.8</ele>
        <time>1970-01-01T01:33:45.000Z</time>
      </trkpt>
      <trkpt lat="41.041764" lon="-6.794603">
        <ele>453.7</ele>
        <time>1970-01-01T01:33:46.000Z</time>
      </trkpt>
      <trkpt lat="41.041873" lon="-6.794525">
        <ele>452.7</ele>
        <time>1970-01-01T01:33:47.000Z</time>
      </trkpt>
      <trkpt lat="41.041987" lon="-6.794458">
        <ele>451.6</ele>
        <time>1970-01-01T01:33:48.000Z</time>
      </trkpt>
      <trkpt lat="41.042106" lon="-6.794402">
        <ele>450.5</ele>
        <time>1970-01-01T01:33:49.000Z</time>
      </trkpt>
      <trkpt lat="41.042234" lon="-6.794364">
        <ele>449.3</ele>
        <time>1970-01-01T01:33:50.000Z</time>
      </trkpt>
      <trkpt lat="41.042366" lon="-6.794347">
        <ele>448.2</ele>
        <time>1970-01-01T01:33:51.000Z</time>
      </trkpt>
      <trkpt lat="41.042501" lon="-6.794344">
        <ele>447.1</ele>
        <time>1970-01-01T01:33:52.000Z</time>
      </trkpt>
      <trkpt lat="41.04263" lon="-6.79435">
        <ele>446.1</ele>
        <time>1970-01-01T01:33:53.000Z</time>
      </trkpt>
      <trkpt lat="41.042761" lon="-6.794352">
        <ele>445</ele>
        <time>1970-01-01T01:33:54.000Z</time>
      </trkpt>
      <trkpt lat="41.042891" lon="-6.794347">
        <ele>443.9</ele>
        <time>1970-01-01T01:33:55.000Z</time>
      </trkpt>
      <trkpt lat="41.043021" lon="-6.794328">
        <ele>442.8</ele>
        <time>1970-01-01T01:33:56.000Z</time>
      </trkpt>
      <trkpt lat="41.043145" lon="-6.794302">
        <ele>441.7</ele>
        <time>1970-01-01T01:33:57.000Z</time>
      </trkpt>
      <trkpt lat="41.043263" lon="-6.794275">
        <ele>440.7</ele>
        <time>1970-01-01T01:33:58.000Z</time>
      </trkpt>
      <trkpt lat="41.043378" lon="-6.794246">
        <ele>439.7</ele>
        <time>1970-01-01T01:33:59.000Z</time>
      </trkpt>
      <trkpt lat="41.043488" lon="-6.794213">
        <ele>438.8</ele>
        <time>1970-01-01T01:34:00.000Z</time>
      </trkpt>
      <trkpt lat="41.043592" lon="-6.794176">
        <ele>437.8</ele>
        <time>1970-01-01T01:34:01.000Z</time>
      </trkpt>
      <trkpt lat="41.043687" lon="-6.79414">
        <ele>436.9</ele>
        <time>1970-01-01T01:34:02.000Z</time>
      </trkpt>
      <trkpt lat="41.043775" lon="-6.794112">
        <ele>436.1</ele>
        <time>1970-01-01T01:34:03.000Z</time>
      </trkpt>
      <trkpt lat="41.043856" lon="-6.794096">
        <ele>435.3</ele>
        <time>1970-01-01T01:34:04.000Z</time>
      </trkpt>
      <trkpt lat="41.043932" lon="-6.794086">
        <ele>434.5</ele>
        <time>1970-01-01T01:34:05.000Z</time>
      </trkpt>
      <trkpt lat="41.043998" lon="-6.794071">
        <ele>434</ele>
        <time>1970-01-01T01:34:06.000Z</time>
      </trkpt>
      <trkpt lat="41.044055" lon="-6.79405">
        <ele>434.1</ele>
        <time>1970-01-01T01:34:07.000Z</time>
      </trkpt>
      <trkpt lat="41.044103" lon="-6.794032">
        <ele>434.2</ele>
        <time>1970-01-01T01:34:08.000Z</time>
      </trkpt>
      <trkpt lat="41.044141" lon="-6.794023">
        <ele>434.2</ele>
        <time>1970-01-01T01:34:09.000Z</time>
      </trkpt>
      <trkpt lat="41.044165" lon="-6.794022">
        <ele>434.2</ele>
        <time>1970-01-01T01:34:10.000Z</time>
      </trkpt>
      <trkpt lat="41.044183" lon="-6.794021">
        <ele>434.2</ele>
        <time>1970-01-01T01:34:11.000Z</time>
      </trkpt>
      <trkpt lat="41.044201" lon="-6.794018">
        <ele>434.1</ele>
        <time>1970-01-01T01:34:12.000Z</time>
      </trkpt>
      <trkpt lat="41.044222" lon="-6.794015">
        <ele>434.1</ele>
        <time>1970-01-01T01:34:13.000Z</time>
      </trkpt>
      <trkpt lat="41.044242" lon="-6.794013">
        <ele>434</ele>
        <time>1970-01-01T01:34:14.000Z</time>
      </trkpt>
      <trkpt lat="41.044263" lon="-6.794011">
        <ele>434</ele>
        <time>1970-01-01T01:34:15.000Z</time>
      </trkpt>
      <trkpt lat="41.044285" lon="-6.79401">
        <ele>433.9</ele>
        <time>1970-01-01T01:34:16.000Z</time>
      </trkpt>
      <trkpt lat="41.044307" lon="-6.794008">
        <ele>433.9</ele>
        <time>1970-01-01T01:34:17.000Z</time>
      </trkpt>
      <trkpt lat="41.044328" lon="-6.794006">
        <ele>433.8</ele>
        <time>1970-01-01T01:34:18.000Z</time>
      </trkpt>
      <trkpt lat="41.044347" lon="-6.794004">
        <ele>433.8</ele>
        <time>1970-01-01T01:34:19.000Z</time>
      </trkpt>
      <trkpt lat="41.044361" lon="-6.794">
        <ele>433.7</ele>
        <time>1970-01-01T01:34:20.000Z</time>
      </trkpt>
      <trkpt lat="41.04437" lon="-6.793995">
        <ele>433.7</ele>
        <time>1970-01-01T01:34:21.000Z</time>
      </trkpt>
      <trkpt lat="41.044377" lon="-6.793992">
        <ele>433.7</ele>
        <time>1970-01-01T01:34:22.000Z</time>
      </trkpt>
      <trkpt lat="41.044379" lon="-6.79399">
        <ele>433.7</ele>
        <time>1970-01-01T01:34:23.000Z</time>
      </trkpt>
      <trkpt lat="41.04438" lon="-6.793991">
        <ele>433.7</ele>
        <time>1970-01-01T01:34:24.000Z</time>
      </trkpt>
      <trkpt lat="41.044379" lon="-6.793991">
        <ele>433.7</ele>
        <time>1970-01-01T01:34:25.000Z</time>
      </trkpt>
      <trkpt lat="41.04438" lon="-6.793991">
        <ele>433.7</ele>
        <time>1970-01-01T01:34:26.000Z</time>
      </trkpt>
      <trkpt lat="41.044386" lon="-6.793992">
        <ele>433.6</ele>
        <time>1970-01-01T01:34:27.000Z</time>
      </trkpt>
      <trkpt lat="41.044394" lon="-6.793995">
        <ele>433.6</ele>
        <time>1970-01-01T01:34:28.000Z</time>
      </trkpt>
      <trkpt lat="41.044403" lon="-6.794005">
        <ele>433.6</ele>
        <time>1970-01-01T01:34:29.000Z</time>
      </trkpt>
      <trkpt lat="41.044407" lon="-6.794022">
        <ele>433.5</ele>
        <time>1970-01-01T01:34:30.000Z</time>
      </trkpt>
      <trkpt lat="41.044408" lon="-6.794048">
        <ele>433.4</ele>
        <time>1970-01-01T01:34:31.000Z</time>
      </trkpt>
      <trkpt lat="41.044405" lon="-6.79408">
        <ele>433.3</ele>
        <time>1970-01-01T01:34:32.000Z</time>
      </trkpt>
      <trkpt lat="41.044402" lon="-6.794115">
        <ele>433.2</ele>
        <time>1970-01-01T01:34:33.000Z</time>
      </trkpt>
      <trkpt lat="41.044402" lon="-6.794146">
        <ele>433.1</ele>
        <time>1970-01-01T01:34:34.000Z</time>
      </trkpt>
      <trkpt lat="41.044405" lon="-6.794172">
        <ele>433</ele>
        <time>1970-01-01T01:34:35.000Z</time>
      </trkpt>
      <trkpt lat="41.044412" lon="-6.794192">
        <ele>432.9</ele>
        <time>1970-01-01T01:34:36.000Z</time>
      </trkpt>
      <trkpt lat="41.04442" lon="-6.794205">
        <ele>432.8</ele>
        <time>1970-01-01T01:34:37.000Z</time>
      </trkpt>
      <trkpt lat="41.044426" lon="-6.794212">
        <ele>432.7</ele>
        <time>1970-01-01T01:34:38.000Z</time>
      </trkpt>
      <trkpt lat="41.044428" lon="-6.794213">
        <ele>432.7</ele>
        <time>1970-01-01T01:34:39.000Z</time>
      </trkpt>
      <trkpt lat="41.044427" lon="-6.79421">
        <ele>432.7</ele>
        <time>1970-01-01T01:34:40.000Z</time>
      </trkpt>
      <trkpt lat="41.044425" lon="-6.794206">
        <ele>432.7</ele>
        <time>1970-01-01T01:34:41.000Z</time>
      </trkpt>
      <trkpt lat="41.044424" lon="-6.794205">
        <ele>432.7</ele>
        <time>1970-01-01T01:34:42.000Z</time>
      </trkpt>
      <trkpt lat="41.044425" lon="-6.794206">
        <ele>432.6</ele>
        <time>1970-01-01T01:34:43.000Z</time>
      </trkpt>
      <trkpt lat="41.044425" lon="-6.794208">
        <ele>432.6</ele>
        <time>1970-01-01T01:34:44.000Z</time>
      </trkpt>
      <trkpt lat="41.044426" lon="-6.79421">
        <ele>432.6</ele>
        <time>1970-01-01T01:34:45.000Z</time>
      </trkpt>
      <trkpt lat="41.044426" lon="-6.794212">
        <ele>432.6</ele>
        <time>1970-01-01T01:34:46.000Z</time>
      </trkpt>
      <trkpt lat="41.04443" lon="-6.794157">
        <ele>432.2</ele>
        <time>1970-01-01T01:34:47.000Z</time>
      </trkpt>
      <trkpt lat="41.044428" lon="-6.794142">
        <ele>432.1</ele>
        <time>1970-01-01T01:34:48.000Z</time>
      </trkpt>
      <trkpt lat="41.044427" lon="-6.794126">
        <ele>432</ele>
        <time>1970-01-01T01:39:24.000Z</time>
      </trkpt>
      <trkpt lat="41.044425" lon="-6.79411">
        <ele>431.9</ele>
        <time>1970-01-01T01:39:25.000Z</time>
      </trkpt>
      <trkpt lat="41.044424" lon="-6.794095">
        <ele>431.7</ele>
        <time>1970-01-01T01:39:26.000Z</time>
      </trkpt>
      <trkpt lat="41.044422" lon="-6.794081">
        <ele>431.6</ele>
        <time>1970-01-01T01:39:27.000Z</time>
      </trkpt>
      <trkpt lat="41.04442" lon="-6.794067">
        <ele>431.5</ele>
        <time>1970-01-01T01:39:28.000Z</time>
      </trkpt>
      <trkpt lat="41.044419" lon="-6.794053">
        <ele>431.4</ele>
        <time>1970-01-01T01:39:29.000Z</time>
      </trkpt>
      <trkpt lat="41.044419" lon="-6.794039">
        <ele>431.2</ele>
        <time>1970-01-01T01:39:30.000Z</time>
      </trkpt>
      <trkpt lat="41.044419" lon="-6.794024">
        <ele>431.1</ele>
        <time>1970-01-01T01:39:31.000Z</time>
      </trkpt>
      <trkpt lat="41.044421" lon="-6.79401">
        <ele>430.9</ele>
        <time>1970-01-01T01:39:32.000Z</time>
      </trkpt>
      <trkpt lat="41.044424" lon="-6.793998">
        <ele>430.8</ele>
        <time>1970-01-01T01:39:33.000Z</time>
      </trkpt>
      <trkpt lat="41.044427" lon="-6.793987">
        <ele>430.7</ele>
        <time>1970-01-01T01:39:34.000Z</time>
      </trkpt>
      <trkpt lat="41.044429" lon="-6.793982">
        <ele>430.7</ele>
        <time>1970-01-01T01:39:35.000Z</time>
      </trkpt>
      <trkpt lat="41.04443" lon="-6.79398">
        <ele>430.6</ele>
        <time>1970-01-01T01:39:36.000Z</time>
      </trkpt>
      <trkpt lat="41.04443" lon="-6.793981">
        <ele>430.6</ele>
        <time>1970-01-01T01:39:37.000Z</time>
      </trkpt>
      <trkpt lat="41.044429" lon="-6.793982">
        <ele>430.6</ele>
        <time>1970-01-01T01:39:38.000Z</time>
      </trkpt>
      <trkpt lat="41.044428" lon="-6.793982">
        <ele>430.6</ele>
        <time>1970-01-01T01:39:39.000Z</time>
      </trkpt>
      <trkpt lat="41.044427" lon="-6.793982">
        <ele>430.6</ele>
        <time>1970-01-01T01:39:40.000Z</time>
      </trkpt>
      <trkpt lat="41.044426" lon="-6.793977">
        <ele>430.5</ele>
        <time>1970-01-01T01:39:41.000Z</time>
      </trkpt>
      <trkpt lat="41.044425" lon="-6.793967">
        <ele>430.5</ele>
        <time>1970-01-01T01:39:42.000Z</time>
      </trkpt>
      <trkpt lat="41.044425" lon="-6.793951">
        <ele>430.3</ele>
        <time>1970-01-01T01:39:43.000Z</time>
      </trkpt>
      <trkpt lat="41.044425" lon="-6.793933">
        <ele>430.2</ele>
        <time>1970-01-01T01:39:44.000Z</time>
      </trkpt>
      <trkpt lat="41.044425" lon="-6.793921">
        <ele>430.1</ele>
        <time>1970-01-01T01:39:45.000Z</time>
      </trkpt>
      <trkpt lat="41.044424" lon="-6.793915">
        <ele>430</ele>
        <time>1970-01-01T01:39:46.000Z</time>
      </trkpt>
      <trkpt lat="41.044422" lon="-6.793913">
        <ele>430</ele>
        <time>1970-01-01T01:39:47.000Z</time>
      </trkpt>
      <trkpt lat="41.044421" lon="-6.793911">
        <ele>430</ele>
        <time>1970-01-01T01:39:48.000Z</time>
      </trkpt>
      <trkpt lat="41.04442" lon="-6.793909">
        <ele>430</ele>
        <time>1970-01-01T01:39:49.000Z</time>
      </trkpt>
      <trkpt lat="41.044419" lon="-6.793909">
        <ele>430</ele>
        <time>1970-01-01T01:39:50.000Z</time>
      </trkpt>
      <trkpt lat="41.044426" lon="-6.793904">
        <ele>429.9</ele>
        <time>1970-01-01T01:39:51.000Z</time>
      </trkpt>
      <trkpt lat="41.044431" lon="-6.793905">
        <ele>429.8</ele>
        <time>1970-01-01T01:39:52.000Z</time>
      </trkpt>
      <trkpt lat="41.044434" lon="-6.793907">
        <ele>429.8</ele>
        <time>1970-01-01T01:47:12.000Z</time>
      </trkpt>
      <trkpt lat="41.044435" lon="-6.793908">
        <ele>429.8</ele>
        <time>1970-01-01T01:47:13.000Z</time>
      </trkpt>
      <trkpt lat="41.044435" lon="-6.793909">
        <ele>429.8</ele>
        <time>1970-01-01T01:47:14.000Z</time>
      </trkpt>
      <trkpt lat="41.044434" lon="-6.79391">
        <ele>429.8</ele>
        <time>1970-01-01T01:47:15.000Z</time>
      </trkpt>
      <trkpt lat="41.044431" lon="-6.793909">
        <ele>429.7</ele>
        <time>1970-01-01T01:47:16.000Z</time>
      </trkpt>
      <trkpt lat="41.044425" lon="-6.793907">
        <ele>429.7</ele>
        <time>1970-01-01T01:47:17.000Z</time>
      </trkpt>
      <trkpt lat="41.044419" lon="-6.793905">
        <ele>429.6</ele>
        <time>1970-01-01T01:47:18.000Z</time>
      </trkpt>
      <trkpt lat="41.044414" lon="-6.793904">
        <ele>429.6</ele>
        <time>1970-01-01T01:47:19.000Z</time>
      </trkpt>
      <trkpt lat="41.044411" lon="-6.793902">
        <ele>429.6</ele>
        <time>1970-01-01T01:47:20.000Z</time>
      </trkpt>
      <trkpt lat="41.044409" lon="-6.793901">
        <ele>429.6</ele>
        <time>1970-01-01T01:47:21.000Z</time>
      </trkpt>
      <trkpt lat="41.044408" lon="-6.7939">
        <ele>429.6</ele>
        <time>1970-01-01T01:47:22.000Z</time>
      </trkpt>
      <trkpt lat="41.044408" lon="-6.7939">
        <ele>429.6</ele>
        <time>1970-01-01T01:47:23.000Z</time>
      </trkpt>
      <trkpt lat="41.044408" lon="-6.793899">
        <ele>429.5</ele>
        <time>1970-01-01T01:47:24.000Z</time>
      </trkpt>
      <trkpt lat="41.044412" lon="-6.793938">
        <ele>429.3</ele>
        <time>1970-01-01T01:47:25.000Z</time>
      </trkpt>
      <trkpt lat="41.044409" lon="-6.793948">
        <ele>429.2</ele>
        <time>1970-01-01T01:47:26.000Z</time>
      </trkpt>
      <trkpt lat="41.044405" lon="-6.793955">
        <ele>429.2</ele>
        <time>1970-01-01T01:47:34.000Z</time>
      </trkpt>
      <trkpt lat="41.044404" lon="-6.793959">
        <ele>429.2</ele>
        <time>1970-01-01T01:47:35.000Z</time>
      </trkpt>
      <trkpt lat="41.044404" lon="-6.793959">
        <ele>429.2</ele>
        <time>1970-01-01T01:47:36.000Z</time>
      </trkpt>
      <trkpt lat="41.044405" lon="-6.793959">
        <ele>429.2</ele>
        <time>1970-01-01T01:47:37.000Z</time>
      </trkpt>
      <trkpt lat="41.044406" lon="-6.793959">
        <ele>429.2</ele>
        <time>1970-01-01T01:47:38.000Z</time>
      </trkpt>
      <trkpt lat="41.044406" lon="-6.79396">
        <ele>429.2</ele>
        <time>1970-01-01T01:47:39.000Z</time>
      </trkpt>
      <trkpt lat="41.044406" lon="-6.793962">
        <ele>429.2</ele>
        <time>1970-01-01T01:47:40.000Z</time>
      </trkpt>
      <trkpt lat="41.044403" lon="-6.793963">
        <ele>429.1</ele>
        <time>1970-01-01T01:47:41.000Z</time>
      </trkpt>
      <trkpt lat="41.044401" lon="-6.793964">
        <ele>429.1</ele>
        <time>1970-01-01T01:47:42.000Z</time>
      </trkpt>
      <trkpt lat="41.044399" lon="-6.793965">
        <ele>429.1</ele>
        <time>1970-01-01T01:47:43.000Z</time>
      </trkpt>
      <trkpt lat="41.044399" lon="-6.793965">
        <ele>429.1</ele>
        <time>1970-01-01T01:47:44.000Z</time>
      </trkpt>
      <trkpt lat="41.044399" lon="-6.793966">
        <ele>429.1</ele>
        <time>1970-01-01T01:47:45.000Z</time>
      </trkpt>
      <trkpt lat="41.044419" lon="-6.793961">
        <ele>429</ele>
        <time>1970-01-01T01:47:46.000Z</time>
      </trkpt>
      <trkpt lat="41.044426" lon="-6.793957">
        <ele>428.9</ele>
        <time>1970-01-01T01:47:47.000Z</time>
      </trkpt>
      <trkpt lat="41.044433" lon="-6.793953">
        <ele>428.9</ele>
        <time>1970-01-01T01:48:08.000Z</time>
      </trkpt>
      <trkpt lat="41.044441" lon="-6.793948">
        <ele>428.8</ele>
        <time>1970-01-01T01:48:09.000Z</time>
      </trkpt>
      <trkpt lat="41.044448" lon="-6.793942">
        <ele>428.8</ele>
        <time>1970-01-01T01:48:10.000Z</time>
      </trkpt>
      <trkpt lat="41.044453" lon="-6.793935">
        <ele>428.7</ele>
        <time>1970-01-01T01:48:11.000Z</time>
      </trkpt>
      <trkpt lat="41.044458" lon="-6.79393">
        <ele>428.7</ele>
        <time>1970-01-01T01:48:12.000Z</time>
      </trkpt>
      <trkpt lat="41.044461" lon="-6.793923">
        <ele>428.6</ele>
        <time>1970-01-01T01:48:13.000Z</time>
      </trkpt>
      <trkpt lat="41.044465" lon="-6.793917">
        <ele>428.6</ele>
        <time>1970-01-01T01:48:14.000Z</time>
      </trkpt>
      <trkpt lat="41.04447" lon="-6.793912">
        <ele>428.6</ele>
        <time>1970-01-01T01:48:15.000Z</time>
      </trkpt>
      <trkpt lat="41.044474" lon="-6.793909">
        <ele>428.5</ele>
        <time>1970-01-01T01:48:16.000Z</time>
      </trkpt>
      <trkpt lat="41.044477" lon="-6.793911">
        <ele>428.5</ele>
        <time>1970-01-01T01:48:17.000Z</time>
      </trkpt>
      <trkpt lat="41.044479" lon="-6.793913">
        <ele>428.5</ele>
        <time>1970-01-01T01:48:18.000Z</time>
      </trkpt>
      <trkpt lat="41.044481" lon="-6.793915">
        <ele>428.5</ele>
        <time>1970-01-01T01:48:19.000Z</time>
      </trkpt>
      <trkpt lat="41.044483" lon="-6.793915">
        <ele>428.5</ele>
        <time>1970-01-01T01:48:20.000Z</time>
      </trkpt>
      <trkpt lat="41.044483" lon="-6.793914">
        <ele>428.5</ele>
        <time>1970-01-01T01:48:21.000Z</time>
      </trkpt>
      <trkpt lat="41.044483" lon="-6.793913">
        <ele>428.5</ele>
        <time>1970-01-01T01:48:22.000Z</time>
      </trkpt>
      <trkpt lat="41.044482" lon="-6.793912">
        <ele>428.5</ele>
        <time>1970-01-01T01:48:23.000Z</time>
      </trkpt>
      <trkpt lat="41.044481" lon="-6.793912">
        <ele>428.5</ele>
        <time>1970-01-01T01:48:24.000Z</time>
      </trkpt>
      <trkpt lat="41.044462" lon="-6.7939">
        <ele>428.3</ele>
        <time>1970-01-01T01:48:25.000Z</time>
      </trkpt>
      <trkpt lat="41.044465" lon="-6.793895">
        <ele>428.3</ele>
        <time>1970-01-01T01:48:26.000Z</time>
      </trkpt>
      <trkpt lat="41.044472" lon="-6.793884">
        <ele>428.3</ele>
        <time>1970-01-01T01:50:28.000Z</time>
      </trkpt>
      <trkpt lat="41.044484" lon="-6.793864">
        <ele>428.1</ele>
        <time>1970-01-01T01:50:29.000Z</time>
      </trkpt>
      <trkpt lat="41.044499" lon="-6.793837">
        <ele>428</ele>
        <time>1970-01-01T01:50:30.000Z</time>
      </trkpt>
      <trkpt lat="41.044519" lon="-6.793804">
        <ele>427.8</ele>
        <time>1970-01-01T01:50:31.000Z</time>
      </trkpt>
      <trkpt lat="41.044545" lon="-6.793768">
        <ele>427.6</ele>
        <time>1970-01-01T01:50:32.000Z</time>
      </trkpt>
      <trkpt lat="41.044582" lon="-6.793728">
        <ele>427.3</ele>
        <time>1970-01-01T01:50:33.000Z</time>
      </trkpt>
      <trkpt lat="41.04463" lon="-6.793681">
        <ele>426.9</ele>
        <time>1970-01-01T01:50:34.000Z</time>
      </trkpt>
      <trkpt lat="41.044685" lon="-6.793625">
        <ele>426.4</ele>
        <time>1970-01-01T01:50:35.000Z</time>
      </trkpt>
      <trkpt lat="41.044742" lon="-6.793562">
        <ele>425.8</ele>
        <time>1970-01-01T01:50:36.000Z</time>
      </trkpt>
      <trkpt lat="41.044795" lon="-6.793492">
        <ele>425.1</ele>
        <time>1970-01-01T01:50:37.000Z</time>
      </trkpt>
      <trkpt lat="41.044849" lon="-6.793421">
        <ele>424.5</ele>
        <time>1970-01-01T01:50:38.000Z</time>
      </trkpt>
      <trkpt lat="41.044907" lon="-6.793352">
        <ele>423.8</ele>
        <time>1970-01-01T01:50:39.000Z</time>
      </trkpt>
      <trkpt lat="41.044974" lon="-6.793301">
        <ele>423.2</ele>
        <time>1970-01-01T01:50:40.000Z</time>
      </trkpt>
      <trkpt lat="41.045047" lon="-6.793263">
        <ele>422.7</ele>
        <time>1970-01-01T01:50:41.000Z</time>
      </trkpt>
      <trkpt lat="41.045124" lon="-6.79323">
        <ele>422.1</ele>
        <time>1970-01-01T01:50:42.000Z</time>
      </trkpt>
      <trkpt lat="41.0452" lon="-6.79319">
        <ele>421.5</ele>
        <time>1970-01-01T01:50:43.000Z</time>
      </trkpt>
      <trkpt lat="41.045273" lon="-6.793142">
        <ele>421</ele>
        <time>1970-01-01T01:50:44.000Z</time>
      </trkpt>
      <trkpt lat="41.045341" lon="-6.793089">
        <ele>420.5</ele>
        <time>1970-01-01T01:50:45.000Z</time>
      </trkpt>
      <trkpt lat="41.045407" lon="-6.793032">
        <ele>420</ele>
        <time>1970-01-01T01:50:46.000Z</time>
      </trkpt>
      <trkpt lat="41.045474" lon="-6.792973">
        <ele>419.5</ele>
        <time>1970-01-01T01:50:47.000Z</time>
      </trkpt>
      <trkpt lat="41.045544" lon="-6.792918">
        <ele>419.4</ele>
        <time>1970-01-01T01:50:48.000Z</time>
      </trkpt>
      <trkpt lat="41.045616" lon="-6.792862">
        <ele>419.7</ele>
        <time>1970-01-01T01:50:49.000Z</time>
      </trkpt>
      <trkpt lat="41.045689" lon="-6.792804">
        <ele>420.1</ele>
        <time>1970-01-01T01:50:50.000Z</time>
      </trkpt>
      <trkpt lat="41.045762" lon="-6.792743">
        <ele>420.5</ele>
        <time>1970-01-01T01:50:51.000Z</time>
      </trkpt>
      <trkpt lat="41.045831" lon="-6.792684">
        <ele>420.9</ele>
        <time>1970-01-01T01:50:52.000Z</time>
      </trkpt>
      <trkpt lat="41.045894" lon="-6.792625">
        <ele>421.2</ele>
        <time>1970-01-01T01:50:53.000Z</time>
      </trkpt>
      <trkpt lat="41.04595" lon="-6.792568">
        <ele>421.5</ele>
        <time>1970-01-01T01:50:54.000Z</time>
      </trkpt>
      <trkpt lat="41.046002" lon="-6.792513">
        <ele>421.8</ele>
        <time>1970-01-01T01:50:55.000Z</time>
      </trkpt>
      <trkpt lat="41.046052" lon="-6.792465">
        <ele>422.1</ele>
        <time>1970-01-01T01:50:56.000Z</time>
      </trkpt>
      <trkpt lat="41.046101" lon="-6.792426">
        <ele>422.4</ele>
        <time>1970-01-01T01:50:57.000Z</time>
      </trkpt>
      <trkpt lat="41.046147" lon="-6.792391">
        <ele>422.6</ele>
        <time>1970-01-01T01:50:58.000Z</time>
      </trkpt>
      <trkpt lat="41.046189" lon="-6.792352">
        <ele>422.8</ele>
        <time>1970-01-01T01:50:59.000Z</time>
      </trkpt>
      <trkpt lat="41.046227" lon="-6.792308">
        <ele>423</ele>
        <time>1970-01-01T01:51:00.000Z</time>
      </trkpt>
      <trkpt lat="41.04626" lon="-6.792261">
        <ele>423.3</ele>
        <time>1970-01-01T01:51:01.000Z</time>
      </trkpt>
      <trkpt lat="41.046287" lon="-6.792213">
        <ele>423.5</ele>
        <time>1970-01-01T01:51:02.000Z</time>
      </trkpt>
      <trkpt lat="41.046307" lon="-6.792168">
        <ele>423.6</ele>
        <time>1970-01-01T01:51:03.000Z</time>
      </trkpt>
      <trkpt lat="41.046322" lon="-6.792127">
        <ele>423.8</ele>
        <time>1970-01-01T01:51:04.000Z</time>
      </trkpt>
      <trkpt lat="41.046338" lon="-6.79209">
        <ele>423.9</ele>
        <time>1970-01-01T01:51:05.000Z</time>
      </trkpt>
      <trkpt lat="41.046354" lon="-6.792057">
        <ele>424.1</ele>
        <time>1970-01-01T01:51:06.000Z</time>
      </trkpt>
      <trkpt lat="41.046373" lon="-6.792027">
        <ele>424.2</ele>
        <time>1970-01-01T01:51:07.000Z</time>
      </trkpt>
      <trkpt lat="41.046396" lon="-6.792001">
        <ele>424.3</ele>
        <time>1970-01-01T01:51:08.000Z</time>
      </trkpt>
      <trkpt lat="41.046421" lon="-6.791977">
        <ele>424.5</ele>
        <time>1970-01-01T01:51:09.000Z</time>
      </trkpt>
      <trkpt lat="41.046449" lon="-6.791958">
        <ele>424.6</ele>
        <time>1970-01-01T01:51:10.000Z</time>
      </trkpt>
      <trkpt lat="41.046477" lon="-6.79194">
        <ele>424.8</ele>
        <time>1970-01-01T01:51:11.000Z</time>
      </trkpt>
      <trkpt lat="41.046506" lon="-6.791925">
        <ele>424.9</ele>
        <time>1970-01-01T01:51:12.000Z</time>
      </trkpt>
      <trkpt lat="41.046537" lon="-6.791909">
        <ele>425</ele>
        <time>1970-01-01T01:51:13.000Z</time>
      </trkpt>
      <trkpt lat="41.04657" lon="-6.791894">
        <ele>425.2</ele>
        <time>1970-01-01T01:51:14.000Z</time>
      </trkpt>
      <trkpt lat="41.046605" lon="-6.791876">
        <ele>425.4</ele>
        <time>1970-01-01T01:51:15.000Z</time>
      </trkpt>
      <trkpt lat="41.046644" lon="-6.791855">
        <ele>425.6</ele>
        <time>1970-01-01T01:51:16.000Z</time>
      </trkpt>
      <trkpt lat="41.046687" lon="-6.79183">
        <ele>425.8</ele>
        <time>1970-01-01T01:51:17.000Z</time>
      </trkpt>
      <trkpt lat="41.046735" lon="-6.791802">
        <ele>426</ele>
        <time>1970-01-01T01:51:18.000Z</time>
      </trkpt>
      <trkpt lat="41.046779" lon="-6.791771">
        <ele>426.2</ele>
        <time>1970-01-01T01:51:19.000Z</time>
      </trkpt>
      <trkpt lat="41.046817" lon="-6.791736">
        <ele>426.4</ele>
        <time>1970-01-01T01:51:20.000Z</time>
      </trkpt>
      <trkpt lat="41.04684" lon="-6.791694">
        <ele>426.6</ele>
        <time>1970-01-01T01:51:21.000Z</time>
      </trkpt>
      <trkpt lat="41.046847" lon="-6.791641">
        <ele>426.8</ele>
        <time>1970-01-01T01:51:22.000Z</time>
      </trkpt>
      <trkpt lat="41.046846" lon="-6.791577">
        <ele>427</ele>
        <time>1970-01-01T01:51:23.000Z</time>
      </trkpt>
      <trkpt lat="41.046848" lon="-6.791507">
        <ele>427.2</ele>
        <time>1970-01-01T01:51:24.000Z</time>
      </trkpt>
      <trkpt lat="41.046858" lon="-6.791438">
        <ele>427.5</ele>
        <time>1970-01-01T01:51:25.000Z</time>
      </trkpt>
      <trkpt lat="41.046877" lon="-6.791372">
        <ele>427.7</ele>
        <time>1970-01-01T01:51:26.000Z</time>
      </trkpt>
      <trkpt lat="41.046907" lon="-6.791314">
        <ele>428</ele>
        <time>1970-01-01T01:51:27.000Z</time>
      </trkpt>
      <trkpt lat="41.046941" lon="-6.791262">
        <ele>428.2</ele>
        <time>1970-01-01T01:51:28.000Z</time>
      </trkpt>
      <trkpt lat="41.046972" lon="-6.79121">
        <ele>428.4</ele>
        <time>1970-01-01T01:51:29.000Z</time>
      </trkpt>
      <trkpt lat="41.046997" lon="-6.791153">
        <ele>428.6</ele>
        <time>1970-01-01T01:51:30.000Z</time>
      </trkpt>
      <trkpt lat="41.047017" lon="-6.791087">
        <ele>428.9</ele>
        <time>1970-01-01T01:51:31.000Z</time>
      </trkpt>
      <trkpt lat="41.047035" lon="-6.791012">
        <ele>429.1</ele>
        <time>1970-01-01T01:51:32.000Z</time>
      </trkpt>
      <trkpt lat="41.047057" lon="-6.79093">
        <ele>429.4</ele>
        <time>1970-01-01T01:51:33.000Z</time>
      </trkpt>
      <trkpt lat="41.047083" lon="-6.790845">
        <ele>429.7</ele>
        <time>1970-01-01T01:51:34.000Z</time>
      </trkpt>
      <trkpt lat="41.04711" lon="-6.790752">
        <ele>430.1</ele>
        <time>1970-01-01T01:51:35.000Z</time>
      </trkpt>
      <trkpt lat="41.047136" lon="-6.790655">
        <ele>430.4</ele>
        <time>1970-01-01T01:51:36.000Z</time>
      </trkpt>
      <trkpt lat="41.047156" lon="-6.790557">
        <ele>430.8</ele>
        <time>1970-01-01T01:51:37.000Z</time>
      </trkpt>
      <trkpt lat="41.047169" lon="-6.790465">
        <ele>431.1</ele>
        <time>1970-01-01T01:51:38.000Z</time>
      </trkpt>
      <trkpt lat="41.047178" lon="-6.790378">
        <ele>431.4</ele>
        <time>1970-01-01T01:51:39.000Z</time>
      </trkpt>
      <trkpt lat="41.047185" lon="-6.790297">
        <ele>431.7</ele>
        <time>1970-01-01T01:51:40.000Z</time>
      </trkpt>
      <trkpt lat="41.047195" lon="-6.790217">
        <ele>431.9</ele>
        <time>1970-01-01T01:51:41.000Z</time>
      </trkpt>
      <trkpt lat="41.047207" lon="-6.790142">
        <ele>432.2</ele>
        <time>1970-01-01T01:51:42.000Z</time>
      </trkpt>
      <trkpt lat="41.047224" lon="-6.790075">
        <ele>432.4</ele>
        <time>1970-01-01T01:51:43.000Z</time>
      </trkpt>
      <trkpt lat="41.047246" lon="-6.790014">
        <ele>432.7</ele>
        <time>1970-01-01T01:51:44.000Z</time>
      </trkpt>
      <trkpt lat="41.047268" lon="-6.789956">
        <ele>432.9</ele>
        <time>1970-01-01T01:51:45.000Z</time>
      </trkpt>
      <trkpt lat="41.047289" lon="-6.789898">
        <ele>433.1</ele>
        <time>1970-01-01T01:51:46.000Z</time>
      </trkpt>
      <trkpt lat="41.047309" lon="-6.789836">
        <ele>433.3</ele>
        <time>1970-01-01T01:51:47.000Z</time>
      </trkpt>
      <trkpt lat="41.047331" lon="-6.789774">
        <ele>433.6</ele>
        <time>1970-01-01T01:51:48.000Z</time>
      </trkpt>
      <trkpt lat="41.047353" lon="-6.789711">
        <ele>433.8</ele>
        <time>1970-01-01T01:51:49.000Z</time>
      </trkpt>
      <trkpt lat="41.047378" lon="-6.789649">
        <ele>434</ele>
        <time>1970-01-01T01:51:50.000Z</time>
      </trkpt>
      <trkpt lat="41.047403" lon="-6.789587">
        <ele>434.3</ele>
        <time>1970-01-01T01:51:51.000Z</time>
      </trkpt>
      <trkpt lat="41.047431" lon="-6.789523">
        <ele>434.5</ele>
        <time>1970-01-01T01:51:52.000Z</time>
      </trkpt>
      <trkpt lat="41.047457" lon="-6.789454">
        <ele>434.8</ele>
        <time>1970-01-01T01:51:53.000Z</time>
      </trkpt>
      <trkpt lat="41.047484" lon="-6.789381">
        <ele>435.1</ele>
        <time>1970-01-01T01:51:54.000Z</time>
      </trkpt>
      <trkpt lat="41.047509" lon="-6.789307">
        <ele>435.3</ele>
        <time>1970-01-01T01:51:55.000Z</time>
      </trkpt>
      <trkpt lat="41.047535" lon="-6.789239">
        <ele>435.6</ele>
        <time>1970-01-01T01:51:56.000Z</time>
      </trkpt>
      <trkpt lat="41.04756" lon="-6.78918">
        <ele>435.8</ele>
        <time>1970-01-01T01:51:57.000Z</time>
      </trkpt>
      <trkpt lat="41.047587" lon="-6.789128">
        <ele>436</ele>
        <time>1970-01-01T01:51:58.000Z</time>
      </trkpt>
      <trkpt lat="41.047614" lon="-6.789081">
        <ele>436.2</ele>
        <time>1970-01-01T01:51:59.000Z</time>
      </trkpt>
      <trkpt lat="41.047644" lon="-6.789037">
        <ele>436.4</ele>
        <time>1970-01-01T01:52:00.000Z</time>
      </trkpt>
      <trkpt lat="41.047672" lon="-6.788994">
        <ele>436.6</ele>
        <time>1970-01-01T01:52:01.000Z</time>
      </trkpt>
      <trkpt lat="41.0477" lon="-6.788954">
        <ele>436.8</ele>
        <time>1970-01-01T01:52:02.000Z</time>
      </trkpt>
      <trkpt lat="41.047727" lon="-6.788914">
        <ele>437</ele>
        <time>1970-01-01T01:52:03.000Z</time>
      </trkpt>
      <trkpt lat="41.047756" lon="-6.788875">
        <ele>437.2</ele>
        <time>1970-01-01T01:52:04.000Z</time>
      </trkpt>
      <trkpt lat="41.047788" lon="-6.788839">
        <ele>437.4</ele>
        <time>1970-01-01T01:52:05.000Z</time>
      </trkpt>
      <trkpt lat="41.047822" lon="-6.788808">
        <ele>437.5</ele>
        <time>1970-01-01T01:52:06.000Z</time>
      </trkpt>
      <trkpt lat="41.047856" lon="-6.788778">
        <ele>437.7</ele>
        <time>1970-01-01T01:52:07.000Z</time>
      </trkpt>
      <trkpt lat="41.047887" lon="-6.788749">
        <ele>437.9</ele>
        <time>1970-01-01T01:52:08.000Z</time>
      </trkpt>
      <trkpt lat="41.047915" lon="-6.788719">
        <ele>438.1</ele>
        <time>1970-01-01T01:52:09.000Z</time>
      </trkpt>
      <trkpt lat="41.047944" lon="-6.788693">
        <ele>438.2</ele>
        <time>1970-01-01T01:52:10.000Z</time>
      </trkpt>
      <trkpt lat="41.047975" lon="-6.788669">
        <ele>438.4</ele>
        <time>1970-01-01T01:52:11.000Z</time>
      </trkpt>
      <trkpt lat="41.048008" lon="-6.788648">
        <ele>438.5</ele>
        <time>1970-01-01T01:52:12.000Z</time>
      </trkpt>
      <trkpt lat="41.048041" lon="-6.788629">
        <ele>438.7</ele>
        <time>1970-01-01T01:52:13.000Z</time>
      </trkpt>
      <trkpt lat="41.048074" lon="-6.788612">
        <ele>438.8</ele>
        <time>1970-01-01T01:52:14.000Z</time>
      </trkpt>
      <trkpt lat="41.048108" lon="-6.788598">
        <ele>439</ele>
        <time>1970-01-01T01:52:15.000Z</time>
      </trkpt>
      <trkpt lat="41.048141" lon="-6.788589">
        <ele>439.1</ele>
        <time>1970-01-01T01:52:16.000Z</time>
      </trkpt>
      <trkpt lat="41.048173" lon="-6.788583">
        <ele>439.3</ele>
        <time>1970-01-01T01:52:17.000Z</time>
      </trkpt>
      <trkpt lat="41.048204" lon="-6.788574">
        <ele>439.3</ele>
        <time>1970-01-01T01:52:18.000Z</time>
      </trkpt>
      <trkpt lat="41.048234" lon="-6.788561">
        <ele>439.5</ele>
        <time>1970-01-01T01:52:19.000Z</time>
      </trkpt>
      <trkpt lat="41.048264" lon="-6.788548">
        <ele>439.6</ele>
        <time>1970-01-01T01:52:20.000Z</time>
      </trkpt>
      <trkpt lat="41.048291" lon="-6.788533">
        <ele>439.8</ele>
        <time>1970-01-01T01:52:21.000Z</time>
      </trkpt>
      <trkpt lat="41.048317" lon="-6.788515">
        <ele>439.9</ele>
        <time>1970-01-01T01:52:22.000Z</time>
      </trkpt>
      <trkpt lat="41.048341" lon="-6.788491">
        <ele>440</ele>
        <time>1970-01-01T01:52:23.000Z</time>
      </trkpt>
      <trkpt lat="41.048365" lon="-6.788467">
        <ele>440.2</ele>
        <time>1970-01-01T01:52:24.000Z</time>
      </trkpt>
      <trkpt lat="41.04839" lon="-6.788444">
        <ele>440.3</ele>
        <time>1970-01-01T01:52:25.000Z</time>
      </trkpt>
      <trkpt lat="41.048415" lon="-6.788425">
        <ele>440.4</ele>
        <time>1970-01-01T01:52:26.000Z</time>
      </trkpt>
      <trkpt lat="41.04844" lon="-6.788408">
        <ele>440.6</ele>
        <time>1970-01-01T01:52:27.000Z</time>
      </trkpt>
      <trkpt lat="41.048463" lon="-6.78839">
        <ele>440.7</ele>
        <time>1970-01-01T01:52:28.000Z</time>
      </trkpt>
      <trkpt lat="41.048485" lon="-6.788373">
        <ele>440.8</ele>
        <time>1970-01-01T01:52:29.000Z</time>
      </trkpt>
      <trkpt lat="41.048506" lon="-6.788357">
        <ele>440.9</ele>
        <time>1970-01-01T01:52:30.000Z</time>
      </trkpt>
      <trkpt lat="41.048526" lon="-6.788341">
        <ele>441</ele>
        <time>1970-01-01T01:52:31.000Z</time>
      </trkpt>
      <trkpt lat="41.048544" lon="-6.788323">
        <ele>441.1</ele>
        <time>1970-01-01T01:52:32.000Z</time>
      </trkpt>
      <trkpt lat="41.048559" lon="-6.788304">
        <ele>441.2</ele>
        <time>1970-01-01T01:52:33.000Z</time>
      </trkpt>
      <trkpt lat="41.048573" lon="-6.788284">
        <ele>441.3</ele>
        <time>1970-01-01T01:52:34.000Z</time>
      </trkpt>
      <trkpt lat="41.048586" lon="-6.788265">
        <ele>441.4</ele>
        <time>1970-01-01T01:52:35.000Z</time>
      </trkpt>
      <trkpt lat="41.048598" lon="-6.788248">
        <ele>441.5</ele>
        <time>1970-01-01T01:52:36.000Z</time>
      </trkpt>
      <trkpt lat="41.048609" lon="-6.78823">
        <ele>441.5</ele>
        <time>1970-01-01T01:52:37.000Z</time>
      </trkpt>
      <trkpt lat="41.048619" lon="-6.788212">
        <ele>441.6</ele>
        <time>1970-01-01T01:52:38.000Z</time>
      </trkpt>
      <trkpt lat="41.04863" lon="-6.788194">
        <ele>441.6</ele>
        <time>1970-01-01T01:52:39.000Z</time>
      </trkpt>
      <trkpt lat="41.048641" lon="-6.788176">
        <ele>441.7</ele>
        <time>1970-01-01T01:52:40.000Z</time>
      </trkpt>
      <trkpt lat="41.048652" lon="-6.788159">
        <ele>441.8</ele>
        <time>1970-01-01T01:52:41.000Z</time>
      </trkpt>
      <trkpt lat="41.048662" lon="-6.788141">
        <ele>441.8</ele>
        <time>1970-01-01T01:52:42.000Z</time>
      </trkpt>
      <trkpt lat="41.048673" lon="-6.788124">
        <ele>441.9</ele>
        <time>1970-01-01T01:52:43.000Z</time>
      </trkpt>
      <trkpt lat="41.048682" lon="-6.788106">
        <ele>442</ele>
        <time>1970-01-01T01:52:44.000Z</time>
      </trkpt>
      <trkpt lat="41.048693" lon="-6.788089">
        <ele>442.1</ele>
        <time>1970-01-01T01:52:45.000Z</time>
      </trkpt>
      <trkpt lat="41.048705" lon="-6.788073">
        <ele>442.1</ele>
        <time>1970-01-01T01:52:46.000Z</time>
      </trkpt>
      <trkpt lat="41.048717" lon="-6.788059">
        <ele>442.2</ele>
        <time>1970-01-01T01:52:47.000Z</time>
      </trkpt>
      <trkpt lat="41.04873" lon="-6.788046">
        <ele>442.3</ele>
        <time>1970-01-01T01:52:48.000Z</time>
      </trkpt>
      <trkpt lat="41.048741" lon="-6.788033">
        <ele>442.3</ele>
        <time>1970-01-01T01:52:49.000Z</time>
      </trkpt>
      <trkpt lat="41.048754" lon="-6.788019">
        <ele>442.4</ele>
        <time>1970-01-01T01:52:50.000Z</time>
      </trkpt>
      <trkpt lat="41.048768" lon="-6.788005">
        <ele>442.5</ele>
        <time>1970-01-01T01:52:51.000Z</time>
      </trkpt>
      <trkpt lat="41.048782" lon="-6.787992">
        <ele>442.6</ele>
        <time>1970-01-01T01:52:52.000Z</time>
      </trkpt>
      <trkpt lat="41.048796" lon="-6.787981">
        <ele>442.6</ele>
        <time>1970-01-01T01:52:53.000Z</time>
      </trkpt>
      <trkpt lat="41.048811" lon="-6.78797">
        <ele>442.7</ele>
        <time>1970-01-01T01:52:54.000Z</time>
      </trkpt>
      <trkpt lat="41.048825" lon="-6.787959">
        <ele>442.8</ele>
        <time>1970-01-01T01:52:55.000Z</time>
      </trkpt>
      <trkpt lat="41.04884" lon="-6.787949">
        <ele>442.9</ele>
        <time>1970-01-01T01:52:56.000Z</time>
      </trkpt>
      <trkpt lat="41.048855" lon="-6.78794">
        <ele>442.9</ele>
        <time>1970-01-01T01:52:57.000Z</time>
      </trkpt>
      <trkpt lat="41.048871" lon="-6.787931">
        <ele>443</ele>
        <time>1970-01-01T01:52:58.000Z</time>
      </trkpt>
      <trkpt lat="41.048887" lon="-6.787922">
        <ele>443.1</ele>
        <time>1970-01-01T01:52:59.000Z</time>
      </trkpt>
      <trkpt lat="41.048904" lon="-6.787913">
        <ele>443.2</ele>
        <time>1970-01-01T01:53:00.000Z</time>
      </trkpt>
      <trkpt lat="41.048921" lon="-6.787906">
        <ele>443.2</ele>
        <time>1970-01-01T01:53:01.000Z</time>
      </trkpt>
      <trkpt lat="41.048938" lon="-6.7879">
        <ele>443.3</ele>
        <time>1970-01-01T01:53:02.000Z</time>
      </trkpt>
      <trkpt lat="41.048956" lon="-6.787893">
        <ele>443.4</ele>
        <time>1970-01-01T01:53:03.000Z</time>
      </trkpt>
      <trkpt lat="41.048973" lon="-6.787885">
        <ele>443.4</ele>
        <time>1970-01-01T01:53:04.000Z</time>
      </trkpt>
      <trkpt lat="41.04899" lon="-6.787877">
        <ele>443.5</ele>
        <time>1970-01-01T01:53:05.000Z</time>
      </trkpt>
      <trkpt lat="41.049006" lon="-6.787869">
        <ele>443.5</ele>
        <time>1970-01-01T01:53:06.000Z</time>
      </trkpt>
      <trkpt lat="41.049023" lon="-6.787861">
        <ele>443.6</ele>
        <time>1970-01-01T01:53:07.000Z</time>
      </trkpt>
      <trkpt lat="41.049042" lon="-6.787852">
        <ele>443.7</ele>
        <time>1970-01-01T01:53:08.000Z</time>
      </trkpt>
      <trkpt lat="41.04906" lon="-6.787842">
        <ele>443.8</ele>
        <time>1970-01-01T01:53:09.000Z</time>
      </trkpt>
      <trkpt lat="41.049078" lon="-6.787833">
        <ele>443.9</ele>
        <time>1970-01-01T01:53:10.000Z</time>
      </trkpt>
      <trkpt lat="41.049095" lon="-6.787823">
        <ele>444</ele>
        <time>1970-01-01T01:53:11.000Z</time>
      </trkpt>
      <trkpt lat="41.049113" lon="-6.787813">
        <ele>444</ele>
        <time>1970-01-01T01:53:12.000Z</time>
      </trkpt>
      <trkpt lat="41.049132" lon="-6.787804">
        <ele>444.1</ele>
        <time>1970-01-01T01:53:13.000Z</time>
      </trkpt>
      <trkpt lat="41.049151" lon="-6.787794">
        <ele>444.2</ele>
        <time>1970-01-01T01:53:14.000Z</time>
      </trkpt>
      <trkpt lat="41.04917" lon="-6.787783">
        <ele>444.3</ele>
        <time>1970-01-01T01:53:15.000Z</time>
      </trkpt>
      <trkpt lat="41.04919" lon="-6.787771">
        <ele>444.4</ele>
        <time>1970-01-01T01:53:16.000Z</time>
      </trkpt>
      <trkpt lat="41.049209" lon="-6.787759">
        <ele>444.5</ele>
        <time>1970-01-01T01:53:17.000Z</time>
      </trkpt>
      <trkpt lat="41.049228" lon="-6.787748">
        <ele>444.6</ele>
        <time>1970-01-01T01:53:18.000Z</time>
      </trkpt>
      <trkpt lat="41.049248" lon="-6.787736">
        <ele>444.7</ele>
        <time>1970-01-01T01:53:19.000Z</time>
      </trkpt>
      <trkpt lat="41.049268" lon="-6.787724">
        <ele>444.8</ele>
        <time>1970-01-01T01:53:20.000Z</time>
      </trkpt>
      <trkpt lat="41.049288" lon="-6.78771">
        <ele>444.9</ele>
        <time>1970-01-01T01:53:21.000Z</time>
      </trkpt>
      <trkpt lat="41.049309" lon="-6.787696">
        <ele>445</ele>
        <time>1970-01-01T01:53:22.000Z</time>
      </trkpt>
      <trkpt lat="41.04933" lon="-6.78768">
        <ele>445.1</ele>
        <time>1970-01-01T01:53:23.000Z</time>
      </trkpt>
      <trkpt lat="41.049353" lon="-6.787661">
        <ele>445.2</ele>
        <time>1970-01-01T01:53:24.000Z</time>
      </trkpt>
      <trkpt lat="41.049377" lon="-6.787642">
        <ele>445.3</ele>
        <time>1970-01-01T01:53:25.000Z</time>
      </trkpt>
      <trkpt lat="41.049401" lon="-6.787627">
        <ele>445.4</ele>
        <time>1970-01-01T01:53:26.000Z</time>
      </trkpt>
      <trkpt lat="41.049426" lon="-6.787617">
        <ele>445.6</ele>
        <time>1970-01-01T01:53:27.000Z</time>
      </trkpt>
      <trkpt lat="41.049452" lon="-6.787611">
        <ele>445.7</ele>
        <time>1970-01-01T01:53:28.000Z</time>
      </trkpt>
      <trkpt lat="41.049478" lon="-6.787606">
        <ele>445.7</ele>
        <time>1970-01-01T01:53:29.000Z</time>
      </trkpt>
      <trkpt lat="41.049505" lon="-6.787602">
        <ele>445.9</ele>
        <time>1970-01-01T01:53:30.000Z</time>
      </trkpt>
      <trkpt lat="41.049535" lon="-6.787598">
        <ele>446</ele>
        <time>1970-01-01T01:53:31.000Z</time>
      </trkpt>
      <trkpt lat="41.049566" lon="-6.787593">
        <ele>446.1</ele>
        <time>1970-01-01T01:53:32.000Z</time>
      </trkpt>
      <trkpt lat="41.049599" lon="-6.78759">
        <ele>446.2</ele>
        <time>1970-01-01T01:53:33.000Z</time>
      </trkpt>
      <trkpt lat="41.049633" lon="-6.787587">
        <ele>446.4</ele>
        <time>1970-01-01T01:53:34.000Z</time>
      </trkpt>
      <trkpt lat="41.049667" lon="-6.787586">
        <ele>446.5</ele>
        <time>1970-01-01T01:53:35.000Z</time>
      </trkpt>
      <trkpt lat="41.0497" lon="-6.787584">
        <ele>446.7</ele>
        <time>1970-01-01T01:53:36.000Z</time>
      </trkpt>
      <trkpt lat="41.049733" lon="-6.78758">
        <ele>446.8</ele>
        <time>1970-01-01T01:53:37.000Z</time>
      </trkpt>
      <trkpt lat="41.049767" lon="-6.787575">
        <ele>447</ele>
        <time>1970-01-01T01:53:38.000Z</time>
      </trkpt>
      <trkpt lat="41.0498" lon="-6.787569">
        <ele>447.1</ele>
        <time>1970-01-01T01:53:39.000Z</time>
      </trkpt>
      <trkpt lat="41.049833" lon="-6.787562">
        <ele>447.3</ele>
        <time>1970-01-01T01:53:40.000Z</time>
      </trkpt>
      <trkpt lat="41.049864" lon="-6.787557">
        <ele>447.4</ele>
        <time>1970-01-01T01:53:41.000Z</time>
      </trkpt>
      <trkpt lat="41.049893" lon="-6.787553">
        <ele>447.5</ele>
        <time>1970-01-01T01:53:42.000Z</time>
      </trkpt>
      <trkpt lat="41.04992" lon="-6.787548">
        <ele>447.6</ele>
        <time>1970-01-01T01:53:43.000Z</time>
      </trkpt>
      <trkpt lat="41.049945" lon="-6.787543">
        <ele>447.8</ele>
        <time>1970-01-01T01:53:44.000Z</time>
      </trkpt>
      <trkpt lat="41.049967" lon="-6.787536">
        <ele>447.9</ele>
        <time>1970-01-01T01:53:45.000Z</time>
      </trkpt>
      <trkpt lat="41.049988" lon="-6.787529">
        <ele>448</ele>
        <time>1970-01-01T01:53:46.000Z</time>
      </trkpt>
      <trkpt lat="41.050009" lon="-6.787521">
        <ele>448.1</ele>
        <time>1970-01-01T01:53:47.000Z</time>
      </trkpt>
      <trkpt lat="41.050031" lon="-6.787513">
        <ele>448.2</ele>
        <time>1970-01-01T01:53:48.000Z</time>
      </trkpt>
      <trkpt lat="41.050053" lon="-6.787504">
        <ele>448.3</ele>
        <time>1970-01-01T01:53:49.000Z</time>
      </trkpt>
      <trkpt lat="41.050074" lon="-6.787496">
        <ele>448.3</ele>
        <time>1970-01-01T01:53:50.000Z</time>
      </trkpt>
      <trkpt lat="41.050095" lon="-6.787489">
        <ele>448.4</ele>
        <time>1970-01-01T01:53:51.000Z</time>
      </trkpt>
      <trkpt lat="41.050115" lon="-6.787482">
        <ele>448.5</ele>
        <time>1970-01-01T01:53:52.000Z</time>
      </trkpt>
      <trkpt lat="41.050133" lon="-6.787475">
        <ele>448.6</ele>
        <time>1970-01-01T01:53:53.000Z</time>
      </trkpt>
      <trkpt lat="41.050151" lon="-6.787467">
        <ele>448.7</ele>
        <time>1970-01-01T01:53:54.000Z</time>
      </trkpt>
      <trkpt lat="41.050167" lon="-6.787459">
        <ele>448.8</ele>
        <time>1970-01-01T01:53:55.000Z</time>
      </trkpt>
      <trkpt lat="41.050183" lon="-6.78745">
        <ele>448.9</ele>
        <time>1970-01-01T01:53:56.000Z</time>
      </trkpt>
      <trkpt lat="41.050199" lon="-6.787442">
        <ele>448.9</ele>
        <time>1970-01-01T01:53:57.000Z</time>
      </trkpt>
      <trkpt lat="41.050215" lon="-6.787432">
        <ele>449</ele>
        <time>1970-01-01T01:53:58.000Z</time>
      </trkpt>
      <trkpt lat="41.050232" lon="-6.787424">
        <ele>449.1</ele>
        <time>1970-01-01T01:53:59.000Z</time>
      </trkpt>
      <trkpt lat="41.050249" lon="-6.787415">
        <ele>449.2</ele>
        <time>1970-01-01T01:54:00.000Z</time>
      </trkpt>
      <trkpt lat="41.050266" lon="-6.787408">
        <ele>449.2</ele>
        <time>1970-01-01T01:54:01.000Z</time>
      </trkpt>
      <trkpt lat="41.050282" lon="-6.7874">
        <ele>449.3</ele>
        <time>1970-01-01T01:54:02.000Z</time>
      </trkpt>
      <trkpt lat="41.050299" lon="-6.787394">
        <ele>449.4</ele>
        <time>1970-01-01T01:54:03.000Z</time>
      </trkpt>
      <trkpt lat="41.050315" lon="-6.787388">
        <ele>449.5</ele>
        <time>1970-01-01T01:54:04.000Z</time>
      </trkpt>
      <trkpt lat="41.050332" lon="-6.787384">
        <ele>449.5</ele>
        <time>1970-01-01T01:54:05.000Z</time>
      </trkpt>
      <trkpt lat="41.050348" lon="-6.787381">
        <ele>449.6</ele>
        <time>1970-01-01T01:54:06.000Z</time>
      </trkpt>
      <trkpt lat="41.050364" lon="-6.787379">
        <ele>449.7</ele>
        <time>1970-01-01T01:54:07.000Z</time>
      </trkpt>
      <trkpt lat="41.05038" lon="-6.787377">
        <ele>449.8</ele>
        <time>1970-01-01T01:54:08.000Z</time>
      </trkpt>
      <trkpt lat="41.050397" lon="-6.787375">
        <ele>449.8</ele>
        <time>1970-01-01T01:54:09.000Z</time>
      </trkpt>
      <trkpt lat="41.050413" lon="-6.787375">
        <ele>449.9</ele>
        <time>1970-01-01T01:54:10.000Z</time>
      </trkpt>
      <trkpt lat="41.05043" lon="-6.787375">
        <ele>450</ele>
        <time>1970-01-01T01:54:11.000Z</time>
      </trkpt>
      <trkpt lat="41.050446" lon="-6.787374">
        <ele>450.1</ele>
        <time>1970-01-01T01:54:12.000Z</time>
      </trkpt>
      <trkpt lat="41.050461" lon="-6.787375">
        <ele>450.1</ele>
        <time>1970-01-01T01:54:13.000Z</time>
      </trkpt>
      <trkpt lat="41.050474" lon="-6.787375">
        <ele>450.2</ele>
        <time>1970-01-01T01:54:14.000Z</time>
      </trkpt>
      <trkpt lat="41.050488" lon="-6.787374">
        <ele>450.2</ele>
        <time>1970-01-01T01:54:15.000Z</time>
      </trkpt>
      <trkpt lat="41.050501" lon="-6.787371">
        <ele>450.3</ele>
        <time>1970-01-01T01:54:16.000Z</time>
      </trkpt>
      <trkpt lat="41.050515" lon="-6.787366">
        <ele>450.4</ele>
        <time>1970-01-01T01:54:17.000Z</time>
      </trkpt>
      <trkpt lat="41.050529" lon="-6.787361">
        <ele>450.4</ele>
        <time>1970-01-01T01:54:18.000Z</time>
      </trkpt>
      <trkpt lat="41.050544" lon="-6.787356">
        <ele>450.5</ele>
        <time>1970-01-01T01:54:19.000Z</time>
      </trkpt>
      <trkpt lat="41.050559" lon="-6.787348">
        <ele>450.6</ele>
        <time>1970-01-01T01:54:20.000Z</time>
      </trkpt>
      <trkpt lat="41.050574" lon="-6.787342">
        <ele>450.6</ele>
        <time>1970-01-01T01:54:21.000Z</time>
      </trkpt>
      <trkpt lat="41.050588" lon="-6.787338">
        <ele>450.7</ele>
        <time>1970-01-01T01:54:22.000Z</time>
      </trkpt>
      <trkpt lat="41.050603" lon="-6.787335">
        <ele>450.8</ele>
        <time>1970-01-01T01:54:23.000Z</time>
      </trkpt>
      <trkpt lat="41.050615" lon="-6.78733">
        <ele>450.8</ele>
        <time>1970-01-01T01:54:24.000Z</time>
      </trkpt>
      <trkpt lat="41.050628" lon="-6.787323">
        <ele>450.9</ele>
        <time>1970-01-01T01:54:25.000Z</time>
      </trkpt>
      <trkpt lat="41.050641" lon="-6.787314">
        <ele>450.9</ele>
        <time>1970-01-01T01:54:26.000Z</time>
      </trkpt>
      <trkpt lat="41.050654" lon="-6.787303">
        <ele>451</ele>
        <time>1970-01-01T01:54:27.000Z</time>
      </trkpt>
      <trkpt lat="41.050668" lon="-6.78729">
        <ele>451.1</ele>
        <time>1970-01-01T01:54:28.000Z</time>
      </trkpt>
      <trkpt lat="41.050681" lon="-6.787275">
        <ele>451.2</ele>
        <time>1970-01-01T01:54:29.000Z</time>
      </trkpt>
      <trkpt lat="41.050694" lon="-6.787261">
        <ele>451.2</ele>
        <time>1970-01-01T01:54:30.000Z</time>
      </trkpt>
      <trkpt lat="41.050705" lon="-6.787248">
        <ele>451.3</ele>
        <time>1970-01-01T01:54:31.000Z</time>
      </trkpt>
      <trkpt lat="41.050717" lon="-6.787235">
        <ele>451.4</ele>
        <time>1970-01-01T01:54:32.000Z</time>
      </trkpt>
      <trkpt lat="41.050728" lon="-6.787221">
        <ele>451.4</ele>
        <time>1970-01-01T01:54:33.000Z</time>
      </trkpt>
      <trkpt lat="41.050739" lon="-6.787209">
        <ele>451.5</ele>
        <time>1970-01-01T01:54:34.000Z</time>
      </trkpt>
      <trkpt lat="41.050751" lon="-6.787199">
        <ele>451.6</ele>
        <time>1970-01-01T01:54:35.000Z</time>
      </trkpt>
      <trkpt lat="41.050763" lon="-6.787189">
        <ele>451.6</ele>
        <time>1970-01-01T01:54:36.000Z</time>
      </trkpt>
      <trkpt lat="41.050774" lon="-6.787179">
        <ele>451.7</ele>
        <time>1970-01-01T01:54:37.000Z</time>
      </trkpt>
      <trkpt lat="41.050786" lon="-6.787169">
        <ele>451.7</ele>
        <time>1970-01-01T01:54:38.000Z</time>
      </trkpt>
      <trkpt lat="41.050798" lon="-6.787159">
        <ele>451.8</ele>
        <time>1970-01-01T01:54:39.000Z</time>
      </trkpt>
      <trkpt lat="41.05081" lon="-6.787149">
        <ele>451.9</ele>
        <time>1970-01-01T01:54:40.000Z</time>
      </trkpt>
      <trkpt lat="41.050822" lon="-6.787137">
        <ele>451.9</ele>
        <time>1970-01-01T01:54:41.000Z</time>
      </trkpt>
      <trkpt lat="41.050832" lon="-6.787124">
        <ele>452</ele>
        <time>1970-01-01T01:54:42.000Z</time>
      </trkpt>
      <trkpt lat="41.050843" lon="-6.78711">
        <ele>452.1</ele>
        <time>1970-01-01T01:54:43.000Z</time>
      </trkpt>
      <trkpt lat="41.050853" lon="-6.787095">
        <ele>452.1</ele>
        <time>1970-01-01T01:54:44.000Z</time>
      </trkpt>
      <trkpt lat="41.050863" lon="-6.787079">
        <ele>452.2</ele>
        <time>1970-01-01T01:54:45.000Z</time>
      </trkpt>
      <trkpt lat="41.050872" lon="-6.787063">
        <ele>452.3</ele>
        <time>1970-01-01T01:54:46.000Z</time>
      </trkpt>
      <trkpt lat="41.05088" lon="-6.787047">
        <ele>452.3</ele>
        <time>1970-01-01T01:54:47.000Z</time>
      </trkpt>
      <trkpt lat="41.050888" lon="-6.787031">
        <ele>452.4</ele>
        <time>1970-01-01T01:54:48.000Z</time>
      </trkpt>
      <trkpt lat="41.050896" lon="-6.787013">
        <ele>452.5</ele>
        <time>1970-01-01T01:54:49.000Z</time>
      </trkpt>
      <trkpt lat="41.050904" lon="-6.786997">
        <ele>452.5</ele>
        <time>1970-01-01T01:54:50.000Z</time>
      </trkpt>
      <trkpt lat="41.050912" lon="-6.78698">
        <ele>452.6</ele>
        <time>1970-01-01T01:54:51.000Z</time>
      </trkpt>
      <trkpt lat="41.05092" lon="-6.786965">
        <ele>452.7</ele>
        <time>1970-01-01T01:54:52.000Z</time>
      </trkpt>
      <trkpt lat="41.050927" lon="-6.786949">
        <ele>452.7</ele>
        <time>1970-01-01T01:54:53.000Z</time>
      </trkpt>
      <trkpt lat="41.050936" lon="-6.786935">
        <ele>452.8</ele>
        <time>1970-01-01T01:54:54.000Z</time>
      </trkpt>
      <trkpt lat="41.050945" lon="-6.786921">
        <ele>452.8</ele>
        <time>1970-01-01T01:54:55.000Z</time>
      </trkpt>
      <trkpt lat="41.050955" lon="-6.786908">
        <ele>452.9</ele>
        <time>1970-01-01T01:54:56.000Z</time>
      </trkpt>
      <trkpt lat="41.050966" lon="-6.786895">
        <ele>453</ele>
        <time>1970-01-01T01:54:57.000Z</time>
      </trkpt>
      <trkpt lat="41.050976" lon="-6.786882">
        <ele>453</ele>
        <time>1970-01-01T01:54:58.000Z</time>
      </trkpt>
      <trkpt lat="41.050987" lon="-6.786869">
        <ele>453.1</ele>
        <time>1970-01-01T01:54:59.000Z</time>
      </trkpt>
      <trkpt lat="41.051" lon="-6.786858">
        <ele>453.2</ele>
        <time>1970-01-01T01:55:00.000Z</time>
      </trkpt>
      <trkpt lat="41.051012" lon="-6.786848">
        <ele>453.2</ele>
        <time>1970-01-01T01:55:01.000Z</time>
      </trkpt>
      <trkpt lat="41.051023" lon="-6.786838">
        <ele>453.3</ele>
        <time>1970-01-01T01:55:02.000Z</time>
      </trkpt>
      <trkpt lat="41.051033" lon="-6.786827">
        <ele>453.3</ele>
        <time>1970-01-01T01:55:03.000Z</time>
      </trkpt>
      <trkpt lat="41.051041" lon="-6.786814">
        <ele>453.4</ele>
        <time>1970-01-01T01:55:04.000Z</time>
      </trkpt>
      <trkpt lat="41.05105" lon="-6.7868">
        <ele>453.5</ele>
        <time>1970-01-01T01:55:05.000Z</time>
      </trkpt>
      <trkpt lat="41.051059" lon="-6.786786">
        <ele>453.5</ele>
        <time>1970-01-01T01:55:06.000Z</time>
      </trkpt>
      <trkpt lat="41.051069" lon="-6.786773">
        <ele>453.6</ele>
        <time>1970-01-01T01:55:07.000Z</time>
      </trkpt>
      <trkpt lat="41.051079" lon="-6.786761">
        <ele>453.6</ele>
        <time>1970-01-01T01:55:08.000Z</time>
      </trkpt>
      <trkpt lat="41.051089" lon="-6.786751">
        <ele>453.7</ele>
        <time>1970-01-01T01:55:09.000Z</time>
      </trkpt>
      <trkpt lat="41.051099" lon="-6.786742">
        <ele>453.7</ele>
        <time>1970-01-01T01:55:10.000Z</time>
      </trkpt>
      <trkpt lat="41.05111" lon="-6.786731">
        <ele>453.8</ele>
        <time>1970-01-01T01:55:11.000Z</time>
      </trkpt>
      <trkpt lat="41.05112" lon="-6.78672">
        <ele>453.9</ele>
        <time>1970-01-01T01:55:12.000Z</time>
      </trkpt>
      <trkpt lat="41.05113" lon="-6.786709">
        <ele>453.9</ele>
        <time>1970-01-01T01:55:13.000Z</time>
      </trkpt>
      <trkpt lat="41.051142" lon="-6.786698">
        <ele>454</ele>
        <time>1970-01-01T01:55:14.000Z</time>
      </trkpt>
      <trkpt lat="41.051155" lon="-6.786689">
        <ele>454</ele>
        <time>1970-01-01T01:55:15.000Z</time>
      </trkpt>
      <trkpt lat="41.051169" lon="-6.786679">
        <ele>454.1</ele>
        <time>1970-01-01T01:55:16.000Z</time>
      </trkpt>
      <trkpt lat="41.051183" lon="-6.786668">
        <ele>454.2</ele>
        <time>1970-01-01T01:55:17.000Z</time>
      </trkpt>
      <trkpt lat="41.051197" lon="-6.786657">
        <ele>454.3</ele>
        <time>1970-01-01T01:55:18.000Z</time>
      </trkpt>
      <trkpt lat="41.05121" lon="-6.786647">
        <ele>454.3</ele>
        <time>1970-01-01T01:55:19.000Z</time>
      </trkpt>
      <trkpt lat="41.051224" lon="-6.786641">
        <ele>454.4</ele>
        <time>1970-01-01T01:55:20.000Z</time>
      </trkpt>
      <trkpt lat="41.051236" lon="-6.786637">
        <ele>454.4</ele>
        <time>1970-01-01T01:55:21.000Z</time>
      </trkpt>
      <trkpt lat="41.051247" lon="-6.786635">
        <ele>454.5</ele>
        <time>1970-01-01T01:55:22.000Z</time>
      </trkpt>
      <trkpt lat="41.051258" lon="-6.786632">
        <ele>454.5</ele>
        <time>1970-01-01T01:55:23.000Z</time>
      </trkpt>
      <trkpt lat="41.051269" lon="-6.786631">
        <ele>454.6</ele>
        <time>1970-01-01T01:55:24.000Z</time>
      </trkpt>
      <trkpt lat="41.05128" lon="-6.786632">
        <ele>454.6</ele>
        <time>1970-01-01T01:55:25.000Z</time>
      </trkpt>
      <trkpt lat="41.051291" lon="-6.786633">
        <ele>454.7</ele>
        <time>1970-01-01T01:55:26.000Z</time>
      </trkpt>
      <trkpt lat="41.051302" lon="-6.78663">
        <ele>454.7</ele>
        <time>1970-01-01T01:55:27.000Z</time>
      </trkpt>
      <trkpt lat="41.051313" lon="-6.786625">
        <ele>454.8</ele>
        <time>1970-01-01T01:55:28.000Z</time>
      </trkpt>
      <trkpt lat="41.051322" lon="-6.786618">
        <ele>454.8</ele>
        <time>1970-01-01T01:55:29.000Z</time>
      </trkpt>
      <trkpt lat="41.05133" lon="-6.786608">
        <ele>454.9</ele>
        <time>1970-01-01T01:55:30.000Z</time>
      </trkpt>
      <trkpt lat="41.051337" lon="-6.786597">
        <ele>454.9</ele>
        <time>1970-01-01T01:55:31.000Z</time>
      </trkpt>
      <trkpt lat="41.051346" lon="-6.786584">
        <ele>455</ele>
        <time>1970-01-01T01:55:32.000Z</time>
      </trkpt>
      <trkpt lat="41.051356" lon="-6.786571">
        <ele>455</ele>
        <time>1970-01-01T01:55:33.000Z</time>
      </trkpt>
      <trkpt lat="41.051367" lon="-6.786557">
        <ele>455.1</ele>
        <time>1970-01-01T01:55:34.000Z</time>
      </trkpt>
      <trkpt lat="41.05138" lon="-6.786543">
        <ele>455.2</ele>
        <time>1970-01-01T01:55:35.000Z</time>
      </trkpt>
      <trkpt lat="41.051392" lon="-6.786529">
        <ele>455.3</ele>
        <time>1970-01-01T01:55:36.000Z</time>
      </trkpt>
      <trkpt lat="41.051405" lon="-6.786516">
        <ele>455.3</ele>
        <time>1970-01-01T01:55:37.000Z</time>
      </trkpt>
      <trkpt lat="41.051418" lon="-6.786504">
        <ele>455.4</ele>
        <time>1970-01-01T01:55:38.000Z</time>
      </trkpt>
      <trkpt lat="41.051432" lon="-6.786492">
        <ele>455.5</ele>
        <time>1970-01-01T01:55:39.000Z</time>
      </trkpt>
      <trkpt lat="41.051447" lon="-6.786479">
        <ele>455.6</ele>
        <time>1970-01-01T01:55:40.000Z</time>
      </trkpt>
      <trkpt lat="41.051465" lon="-6.786466">
        <ele>455.6</ele>
        <time>1970-01-01T01:55:41.000Z</time>
      </trkpt>
      <trkpt lat="41.051484" lon="-6.786452">
        <ele>455.7</ele>
        <time>1970-01-01T01:55:42.000Z</time>
      </trkpt>
      <trkpt lat="41.051502" lon="-6.786437">
        <ele>455.8</ele>
        <time>1970-01-01T01:55:43.000Z</time>
      </trkpt>
      <trkpt lat="41.051519" lon="-6.786419">
        <ele>455.9</ele>
        <time>1970-01-01T01:55:44.000Z</time>
      </trkpt>
      <trkpt lat="41.051533" lon="-6.786403">
        <ele>456</ele>
        <time>1970-01-01T01:55:45.000Z</time>
      </trkpt>
      <trkpt lat="41.051545" lon="-6.786389">
        <ele>456.1</ele>
        <time>1970-01-01T01:55:46.000Z</time>
      </trkpt>
      <trkpt lat="41.051555" lon="-6.78638">
        <ele>456.1</ele>
        <time>1970-01-01T01:55:47.000Z</time>
      </trkpt>
      <trkpt lat="41.051565" lon="-6.786371">
        <ele>456.2</ele>
        <time>1970-01-01T01:55:48.000Z</time>
      </trkpt>
      <trkpt lat="41.051579" lon="-6.78636">
        <ele>456.3</ele>
        <time>1970-01-01T01:55:49.000Z</time>
      </trkpt>
      <trkpt lat="41.051595" lon="-6.786346">
        <ele>456.3</ele>
        <time>1970-01-01T01:55:50.000Z</time>
      </trkpt>
      <trkpt lat="41.051615" lon="-6.78633">
        <ele>456.4</ele>
        <time>1970-01-01T01:55:51.000Z</time>
      </trkpt>
      <trkpt lat="41.051636" lon="-6.786311">
        <ele>456.6</ele>
        <time>1970-01-01T01:55:52.000Z</time>
      </trkpt>
      <trkpt lat="41.051656" lon="-6.786292">
        <ele>456.7</ele>
        <time>1970-01-01T01:55:53.000Z</time>
      </trkpt>
      <trkpt lat="41.051672" lon="-6.786275">
        <ele>456.8</ele>
        <time>1970-01-01T01:55:54.000Z</time>
      </trkpt>
      <trkpt lat="41.051682" lon="-6.786264">
        <ele>456.8</ele>
        <time>1970-01-01T01:55:55.000Z</time>
      </trkpt>
      <trkpt lat="41.051687" lon="-6.786259">
        <ele>456.8</ele>
        <time>1970-01-01T01:55:56.000Z</time>
      </trkpt>
      <trkpt lat="41.051689" lon="-6.786259">
        <ele>456.9</ele>
        <time>1970-01-01T01:55:57.000Z</time>
      </trkpt>
      <trkpt lat="41.051689" lon="-6.786259">
        <ele>456.9</ele>
        <time>1970-01-01T01:55:58.000Z</time>
      </trkpt>
      <trkpt lat="41.051689" lon="-6.78626">
        <ele>456.9</ele>
        <time>1970-01-01T01:55:59.000Z</time>
      </trkpt>
      <trkpt lat="41.051689" lon="-6.78626">
        <ele>456.9</ele>
        <time>1970-01-01T01:56:00.000Z</time>
      </trkpt>
      <trkpt lat="41.051689" lon="-6.786261">
        <ele>456.9</ele>
        <time>1970-01-01T01:56:01.000Z</time>
      </trkpt>
      <trkpt lat="41.051689" lon="-6.78626">
        <ele>456.9</ele>
        <time>1970-01-01T01:56:02.000Z</time>
      </trkpt>
      <trkpt lat="41.051728" lon="-6.786204">
        <ele>457.1</ele>
        <time>1970-01-01T01:56:03.000Z</time>
      </trkpt>
      <trkpt lat="41.051739" lon="-6.786191">
        <ele>457.2</ele>
        <time>1970-01-01T01:56:04.000Z</time>
      </trkpt>
      <trkpt lat="41.05175" lon="-6.786176">
        <ele>457.2</ele>
        <time>1970-01-01T01:57:06.000Z</time>
      </trkpt>
      <trkpt lat="41.051759" lon="-6.786158">
        <ele>457.3</ele>
        <time>1970-01-01T01:57:07.000Z</time>
      </trkpt>
      <trkpt lat="41.051764" lon="-6.786136">
        <ele>457.4</ele>
        <time>1970-01-01T01:57:08.000Z</time>
      </trkpt>
      <trkpt lat="41.051766" lon="-6.786111">
        <ele>457.5</ele>
        <time>1970-01-01T01:57:09.000Z</time>
      </trkpt>
      <trkpt lat="41.051763" lon="-6.786085">
        <ele>457.6</ele>
        <time>1970-01-01T01:57:10.000Z</time>
      </trkpt>
      <trkpt lat="41.051756" lon="-6.786061">
        <ele>457.7</ele>
        <time>1970-01-01T01:57:11.000Z</time>
      </trkpt>
      <trkpt lat="41.051747" lon="-6.786039">
        <ele>457.7</ele>
        <time>1970-01-01T01:57:12.000Z</time>
      </trkpt>
      <trkpt lat="41.051738" lon="-6.786016">
        <ele>457.8</ele>
        <time>1970-01-01T01:57:13.000Z</time>
      </trkpt>
      <trkpt lat="41.05173" lon="-6.785995">
        <ele>457.9</ele>
        <time>1970-01-01T01:57:14.000Z</time>
      </trkpt>
      <trkpt lat="41.051723" lon="-6.785974">
        <ele>458</ele>
        <time>1970-01-01T01:57:15.000Z</time>
      </trkpt>
      <trkpt lat="41.051717" lon="-6.785953">
        <ele>458</ele>
        <time>1970-01-01T01:57:16.000Z</time>
      </trkpt>
      <trkpt lat="41.051713" lon="-6.785931">
        <ele>458.1</ele>
        <time>1970-01-01T01:57:17.000Z</time>
      </trkpt>
      <trkpt lat="41.051709" lon="-6.785911">
        <ele>458.2</ele>
        <time>1970-01-01T01:57:18.000Z</time>
      </trkpt>
      <trkpt lat="41.051708" lon="-6.785892">
        <ele>458.1</ele>
        <time>1970-01-01T01:57:19.000Z</time>
      </trkpt>
      <trkpt lat="41.051708" lon="-6.785871">
        <ele>458</ele>
        <time>1970-01-01T01:57:20.000Z</time>
      </trkpt>
      <trkpt lat="41.051712" lon="-6.785848">
        <ele>457.9</ele>
        <time>1970-01-01T01:57:21.000Z</time>
      </trkpt>
      <trkpt lat="41.051719" lon="-6.785818">
        <ele>457.8</ele>
        <time>1970-01-01T01:57:22.000Z</time>
      </trkpt>
      <trkpt lat="41.051731" lon="-6.785783">
        <ele>457.7</ele>
        <time>1970-01-01T01:57:23.000Z</time>
      </trkpt>
      <trkpt lat="41.051744" lon="-6.785744">
        <ele>457.6</ele>
        <time>1970-01-01T01:57:24.000Z</time>
      </trkpt>
      <trkpt lat="41.051758" lon="-6.785703">
        <ele>457.4</ele>
        <time>1970-01-01T01:57:25.000Z</time>
      </trkpt>
      <trkpt lat="41.051772" lon="-6.785658">
        <ele>457.3</ele>
        <time>1970-01-01T01:57:26.000Z</time>
      </trkpt>
      <trkpt lat="41.051786" lon="-6.78561">
        <ele>457.1</ele>
        <time>1970-01-01T01:57:27.000Z</time>
      </trkpt>
      <trkpt lat="41.051801" lon="-6.785557">
        <ele>456.9</ele>
        <time>1970-01-01T01:57:28.000Z</time>
      </trkpt>
      <trkpt lat="41.051813" lon="-6.7855">
        <ele>456.8</ele>
        <time>1970-01-01T01:57:29.000Z</time>
      </trkpt>
      <trkpt lat="41.051824" lon="-6.785439">
        <ele>456.7</ele>
        <time>1970-01-01T01:57:30.000Z</time>
      </trkpt>
      <trkpt lat="41.051833" lon="-6.785376">
        <ele>456.6</ele>
        <time>1970-01-01T01:57:31.000Z</time>
      </trkpt>
      <trkpt lat="41.051842" lon="-6.785312">
        <ele>456.4</ele>
        <time>1970-01-01T01:57:32.000Z</time>
      </trkpt>
      <trkpt lat="41.051851" lon="-6.785246">
        <ele>456.3</ele>
        <time>1970-01-01T01:57:33.000Z</time>
      </trkpt>
      <trkpt lat="41.051861" lon="-6.785179">
        <ele>456.1</ele>
        <time>1970-01-01T01:57:34.000Z</time>
      </trkpt>
      <trkpt lat="41.051871" lon="-6.785112">
        <ele>456</ele>
        <time>1970-01-01T01:57:35.000Z</time>
      </trkpt>
      <trkpt lat="41.05188" lon="-6.785045">
        <ele>455.9</ele>
        <time>1970-01-01T01:57:36.000Z</time>
      </trkpt>
      <trkpt lat="41.051887" lon="-6.784974">
        <ele>455.8</ele>
        <time>1970-01-01T01:57:37.000Z</time>
      </trkpt>
      <trkpt lat="41.051894" lon="-6.7849">
        <ele>455.8</ele>
        <time>1970-01-01T01:57:38.000Z</time>
      </trkpt>
      <trkpt lat="41.051901" lon="-6.784824">
        <ele>455.7</ele>
        <time>1970-01-01T01:57:39.000Z</time>
      </trkpt>
      <trkpt lat="41.051908" lon="-6.78475">
        <ele>455.5</ele>
        <time>1970-01-01T01:57:40.000Z</time>
      </trkpt>
      <trkpt lat="41.051915" lon="-6.784677">
        <ele>455.4</ele>
        <time>1970-01-01T01:57:41.000Z</time>
      </trkpt>
      <trkpt lat="41.051924" lon="-6.784606">
        <ele>455.3</ele>
        <time>1970-01-01T01:57:42.000Z</time>
      </trkpt>
      <trkpt lat="41.051935" lon="-6.784538">
        <ele>455.2</ele>
        <time>1970-01-01T01:57:43.000Z</time>
      </trkpt>
      <trkpt lat="41.051948" lon="-6.784475">
        <ele>455.2</ele>
        <time>1970-01-01T01:57:44.000Z</time>
      </trkpt>
      <trkpt lat="41.051963" lon="-6.784414">
        <ele>455.3</ele>
        <time>1970-01-01T01:57:45.000Z</time>
      </trkpt>
      <trkpt lat="41.05198" lon="-6.784355">
        <ele>455.3</ele>
        <time>1970-01-01T01:57:46.000Z</time>
      </trkpt>
      <trkpt lat="41.051998" lon="-6.784295">
        <ele>455.3</ele>
        <time>1970-01-01T01:57:47.000Z</time>
      </trkpt>
      <trkpt lat="41.052016" lon="-6.784233">
        <ele>455.2</ele>
        <time>1970-01-01T01:57:48.000Z</time>
      </trkpt>
      <trkpt lat="41.052034" lon="-6.784172">
        <ele>455.1</ele>
        <time>1970-01-01T01:57:49.000Z</time>
      </trkpt>
      <trkpt lat="41.052052" lon="-6.78411">
        <ele>454.9</ele>
        <time>1970-01-01T01:57:50.000Z</time>
      </trkpt>
      <trkpt lat="41.052071" lon="-6.784049">
        <ele>454.7</ele>
        <time>1970-01-01T01:57:51.000Z</time>
      </trkpt>
      <trkpt lat="41.05209" lon="-6.783983">
        <ele>454.4</ele>
        <time>1970-01-01T01:57:52.000Z</time>
      </trkpt>
      <trkpt lat="41.05211" lon="-6.783912">
        <ele>453.8</ele>
        <time>1970-01-01T01:57:53.000Z</time>
      </trkpt>
      <trkpt lat="41.052129" lon="-6.783832">
        <ele>453</ele>
        <time>1970-01-01T01:57:54.000Z</time>
      </trkpt>
      <trkpt lat="41.052147" lon="-6.783746">
        <ele>452.3</ele>
        <time>1970-01-01T01:57:55.000Z</time>
      </trkpt>
      <trkpt lat="41.052165" lon="-6.783654">
        <ele>451.8</ele>
        <time>1970-01-01T01:57:56.000Z</time>
      </trkpt>
      <trkpt lat="41.052183" lon="-6.783559">
        <ele>451.4</ele>
        <time>1970-01-01T01:57:57.000Z</time>
      </trkpt>
      <trkpt lat="41.052203" lon="-6.783463">
        <ele>451</ele>
        <time>1970-01-01T01:57:58.000Z</time>
      </trkpt>
      <trkpt lat="41.052222" lon="-6.783372">
        <ele>450.6</ele>
        <time>1970-01-01T01:57:59.000Z</time>
      </trkpt>
      <trkpt lat="41.052248" lon="-6.783294">
        <ele>450.3</ele>
        <time>1970-01-01T01:58:00.000Z</time>
      </trkpt>
      <trkpt lat="41.052284" lon="-6.783234">
        <ele>450</ele>
        <time>1970-01-01T01:58:01.000Z</time>
      </trkpt>
      <trkpt lat="41.052326" lon="-6.783187">
        <ele>449.6</ele>
        <time>1970-01-01T01:58:02.000Z</time>
      </trkpt>
      <trkpt lat="41.052371" lon="-6.783141">
        <ele>449.1</ele>
        <time>1970-01-01T01:58:03.000Z</time>
      </trkpt>
      <trkpt lat="41.052413" lon="-6.783088">
        <ele>448.6</ele>
        <time>1970-01-01T01:58:04.000Z</time>
      </trkpt>
      <trkpt lat="41.052454" lon="-6.783028">
        <ele>448.1</ele>
        <time>1970-01-01T01:58:05.000Z</time>
      </trkpt>
      <trkpt lat="41.05249" lon="-6.782963">
        <ele>447.9</ele>
        <time>1970-01-01T01:58:06.000Z</time>
      </trkpt>
      <trkpt lat="41.05252" lon="-6.782896">
        <ele>447.9</ele>
        <time>1970-01-01T01:58:07.000Z</time>
      </trkpt>
      <trkpt lat="41.052543" lon="-6.782831">
        <ele>447.9</ele>
        <time>1970-01-01T01:58:08.000Z</time>
      </trkpt>
      <trkpt lat="41.052563" lon="-6.782772">
        <ele>448.1</ele>
        <time>1970-01-01T01:58:09.000Z</time>
      </trkpt>
      <trkpt lat="41.052582" lon="-6.782715">
        <ele>448.3</ele>
        <time>1970-01-01T01:58:10.000Z</time>
      </trkpt>
      <trkpt lat="41.052599" lon="-6.782661">
        <ele>448.6</ele>
        <time>1970-01-01T01:58:11.000Z</time>
      </trkpt>
      <trkpt lat="41.052615" lon="-6.782611">
        <ele>448.9</ele>
        <time>1970-01-01T01:58:12.000Z</time>
      </trkpt>
      <trkpt lat="41.052628" lon="-6.782563">
        <ele>449.1</ele>
        <time>1970-01-01T01:58:13.000Z</time>
      </trkpt>
      <trkpt lat="41.052641" lon="-6.782514">
        <ele>449.4</ele>
        <time>1970-01-01T01:58:14.000Z</time>
      </trkpt>
      <trkpt lat="41.052654" lon="-6.782464">
        <ele>449.6</ele>
        <time>1970-01-01T01:58:15.000Z</time>
      </trkpt>
      <trkpt lat="41.052666" lon="-6.782412">
        <ele>449.8</ele>
        <time>1970-01-01T01:58:16.000Z</time>
      </trkpt>
      <trkpt lat="41.052679" lon="-6.78236">
        <ele>450</ele>
        <time>1970-01-01T01:58:17.000Z</time>
      </trkpt>
      <trkpt lat="41.05269" lon="-6.782308">
        <ele>450.3</ele>
        <time>1970-01-01T01:58:18.000Z</time>
      </trkpt>
      <trkpt lat="41.052699" lon="-6.782257">
        <ele>450.6</ele>
        <time>1970-01-01T01:58:19.000Z</time>
      </trkpt>
      <trkpt lat="41.052709" lon="-6.782205">
        <ele>450.9</ele>
        <time>1970-01-01T01:58:20.000Z</time>
      </trkpt>
      <trkpt lat="41.052718" lon="-6.782153">
        <ele>451.2</ele>
        <time>1970-01-01T01:58:21.000Z</time>
      </trkpt>
      <trkpt lat="41.052727" lon="-6.7821">
        <ele>451.4</ele>
        <time>1970-01-01T01:58:22.000Z</time>
      </trkpt>
      <trkpt lat="41.052735" lon="-6.782044">
        <ele>451.7</ele>
        <time>1970-01-01T01:58:23.000Z</time>
      </trkpt>
      <trkpt lat="41.052743" lon="-6.781987">
        <ele>451.9</ele>
        <time>1970-01-01T01:58:24.000Z</time>
      </trkpt>
      <trkpt lat="41.05275" lon="-6.781929">
        <ele>452.1</ele>
        <time>1970-01-01T01:58:25.000Z</time>
      </trkpt>
      <trkpt lat="41.052757" lon="-6.78187">
        <ele>452.3</ele>
        <time>1970-01-01T01:58:26.000Z</time>
      </trkpt>
      <trkpt lat="41.052762" lon="-6.781811">
        <ele>452.5</ele>
        <time>1970-01-01T01:58:27.000Z</time>
      </trkpt>
      <trkpt lat="41.052765" lon="-6.78175">
        <ele>452.7</ele>
        <time>1970-01-01T01:58:28.000Z</time>
      </trkpt>
      <trkpt lat="41.052764" lon="-6.781692">
        <ele>452.9</ele>
        <time>1970-01-01T01:58:29.000Z</time>
      </trkpt>
      <trkpt lat="41.05276" lon="-6.781635">
        <ele>453.2</ele>
        <time>1970-01-01T01:58:30.000Z</time>
      </trkpt>
      <trkpt lat="41.052755" lon="-6.781582">
        <ele>453.4</ele>
        <time>1970-01-01T01:58:31.000Z</time>
      </trkpt>
      <trkpt lat="41.052749" lon="-6.781531">
        <ele>453.6</ele>
        <time>1970-01-01T01:58:32.000Z</time>
      </trkpt>
      <trkpt lat="41.052742" lon="-6.781484">
        <ele>453.8</ele>
        <time>1970-01-01T01:58:33.000Z</time>
      </trkpt>
      <trkpt lat="41.052735" lon="-6.78144">
        <ele>454</ele>
        <time>1970-01-01T01:58:34.000Z</time>
      </trkpt>
      <trkpt lat="41.052726" lon="-6.781397">
        <ele>454.1</ele>
        <time>1970-01-01T01:58:35.000Z</time>
      </trkpt>
      <trkpt lat="41.052718" lon="-6.781353">
        <ele>454.3</ele>
        <time>1970-01-01T01:58:36.000Z</time>
      </trkpt>
      <trkpt lat="41.052711" lon="-6.781309">
        <ele>454.5</ele>
        <time>1970-01-01T01:58:37.000Z</time>
      </trkpt>
      <trkpt lat="41.052706" lon="-6.781266">
        <ele>454.7</ele>
        <time>1970-01-01T01:58:38.000Z</time>
      </trkpt>
      <trkpt lat="41.052702" lon="-6.781223">
        <ele>454.8</ele>
        <time>1970-01-01T01:58:39.000Z</time>
      </trkpt>
      <trkpt lat="41.0527" lon="-6.781179">
        <ele>455</ele>
        <time>1970-01-01T01:58:40.000Z</time>
      </trkpt>
      <trkpt lat="41.052698" lon="-6.781134">
        <ele>455.3</ele>
        <time>1970-01-01T01:58:41.000Z</time>
      </trkpt>
      <trkpt lat="41.052698" lon="-6.781089">
        <ele>455.5</ele>
        <time>1970-01-01T01:58:42.000Z</time>
      </trkpt>
      <trkpt lat="41.0527" lon="-6.781043">
        <ele>455.8</ele>
        <time>1970-01-01T01:58:43.000Z</time>
      </trkpt>
      <trkpt lat="41.052704" lon="-6.780999">
        <ele>456.1</ele>
        <time>1970-01-01T01:58:44.000Z</time>
      </trkpt>
      <trkpt lat="41.052711" lon="-6.780952">
        <ele>456.4</ele>
        <time>1970-01-01T01:58:45.000Z</time>
      </trkpt>
      <trkpt lat="41.05272" lon="-6.780906">
        <ele>456.7</ele>
        <time>1970-01-01T01:58:46.000Z</time>
      </trkpt>
      <trkpt lat="41.052732" lon="-6.780859">
        <ele>457.1</ele>
        <time>1970-01-01T01:58:47.000Z</time>
      </trkpt>
      <trkpt lat="41.052745" lon="-6.780817">
        <ele>457.4</ele>
        <time>1970-01-01T01:58:48.000Z</time>
      </trkpt>
      <trkpt lat="41.052757" lon="-6.780776">
        <ele>457.8</ele>
        <time>1970-01-01T01:58:49.000Z</time>
      </trkpt>
      <trkpt lat="41.052768" lon="-6.780737">
        <ele>458.1</ele>
        <time>1970-01-01T01:58:50.000Z</time>
      </trkpt>
      <trkpt lat="41.05278" lon="-6.7807">
        <ele>458.4</ele>
        <time>1970-01-01T01:58:51.000Z</time>
      </trkpt>
      <trkpt lat="41.052793" lon="-6.780666">
        <ele>458.7</ele>
        <time>1970-01-01T01:58:52.000Z</time>
      </trkpt>
      <trkpt lat="41.052806" lon="-6.780633">
        <ele>459</ele>
        <time>1970-01-01T01:58:53.000Z</time>
      </trkpt>
      <trkpt lat="41.052819" lon="-6.780598">
        <ele>459.3</ele>
        <time>1970-01-01T01:58:54.000Z</time>
      </trkpt>
      <trkpt lat="41.052832" lon="-6.780561">
        <ele>459.5</ele>
        <time>1970-01-01T01:58:55.000Z</time>
      </trkpt>
      <trkpt lat="41.052848" lon="-6.780522">
        <ele>459.7</ele>
        <time>1970-01-01T01:58:56.000Z</time>
      </trkpt>
      <trkpt lat="41.052867" lon="-6.78048">
        <ele>459.8</ele>
        <time>1970-01-01T01:58:57.000Z</time>
      </trkpt>
      <trkpt lat="41.052886" lon="-6.780435">
        <ele>459.9</ele>
        <time>1970-01-01T01:58:58.000Z</time>
      </trkpt>
      <trkpt lat="41.052905" lon="-6.780388">
        <ele>459.9</ele>
        <time>1970-01-01T01:58:59.000Z</time>
      </trkpt>
      <trkpt lat="41.052921" lon="-6.780339">
        <ele>459.9</ele>
        <time>1970-01-01T01:59:00.000Z</time>
      </trkpt>
      <trkpt lat="41.052935" lon="-6.780289">
        <ele>460</ele>
        <time>1970-01-01T01:59:01.000Z</time>
      </trkpt>
      <trkpt lat="41.052946" lon="-6.780239">
        <ele>460</ele>
        <time>1970-01-01T01:59:02.000Z</time>
      </trkpt>
      <trkpt lat="41.052956" lon="-6.780189">
        <ele>460.1</ele>
        <time>1970-01-01T01:59:03.000Z</time>
      </trkpt>
      <trkpt lat="41.052962" lon="-6.780142">
        <ele>460.2</ele>
        <time>1970-01-01T01:59:04.000Z</time>
      </trkpt>
      <trkpt lat="41.052967" lon="-6.780096">
        <ele>460.2</ele>
        <time>1970-01-01T01:59:05.000Z</time>
      </trkpt>
      <trkpt lat="41.052969" lon="-6.780053">
        <ele>460.3</ele>
        <time>1970-01-01T01:59:06.000Z</time>
      </trkpt>
      <trkpt lat="41.05297" lon="-6.780012">
        <ele>460.4</ele>
        <time>1970-01-01T01:59:07.000Z</time>
      </trkpt>
      <trkpt lat="41.052972" lon="-6.779972">
        <ele>460.5</ele>
        <time>1970-01-01T01:59:08.000Z</time>
      </trkpt>
      <trkpt lat="41.052973" lon="-6.77993">
        <ele>460.7</ele>
        <time>1970-01-01T01:59:09.000Z</time>
      </trkpt>
      <trkpt lat="41.052973" lon="-6.779885">
        <ele>460.9</ele>
        <time>1970-01-01T01:59:10.000Z</time>
      </trkpt>
      <trkpt lat="41.052971" lon="-6.779841">
        <ele>461.1</ele>
        <time>1970-01-01T01:59:11.000Z</time>
      </trkpt>
      <trkpt lat="41.052968" lon="-6.779797">
        <ele>461.4</ele>
        <time>1970-01-01T01:59:12.000Z</time>
      </trkpt>
      <trkpt lat="41.052964" lon="-6.779754">
        <ele>461.6</ele>
        <time>1970-01-01T01:59:13.000Z</time>
      </trkpt>
      <trkpt lat="41.052958" lon="-6.779712">
        <ele>461.9</ele>
        <time>1970-01-01T01:59:14.000Z</time>
      </trkpt>
      <trkpt lat="41.052953" lon="-6.779671">
        <ele>462.2</ele>
        <time>1970-01-01T01:59:15.000Z</time>
      </trkpt>
      <trkpt lat="41.052946" lon="-6.779632">
        <ele>462.5</ele>
        <time>1970-01-01T01:59:16.000Z</time>
      </trkpt>
      <trkpt lat="41.052938" lon="-6.779596">
        <ele>462.8</ele>
        <time>1970-01-01T01:59:17.000Z</time>
      </trkpt>
      <trkpt lat="41.052929" lon="-6.779562">
        <ele>463.1</ele>
        <time>1970-01-01T01:59:18.000Z</time>
      </trkpt>
      <trkpt lat="41.052919" lon="-6.779528">
        <ele>463.3</ele>
        <time>1970-01-01T01:59:19.000Z</time>
      </trkpt>
      <trkpt lat="41.052908" lon="-6.779494">
        <ele>463.7</ele>
        <time>1970-01-01T01:59:20.000Z</time>
      </trkpt>
      <trkpt lat="41.052896" lon="-6.779462">
        <ele>464</ele>
        <time>1970-01-01T01:59:21.000Z</time>
      </trkpt>
      <trkpt lat="41.052884" lon="-6.779432">
        <ele>464.3</ele>
        <time>1970-01-01T01:59:22.000Z</time>
      </trkpt>
      <trkpt lat="41.052871" lon="-6.779404">
        <ele>464.6</ele>
        <time>1970-01-01T01:59:23.000Z</time>
      </trkpt>
      <trkpt lat="41.052858" lon="-6.779377">
        <ele>464.9</ele>
        <time>1970-01-01T01:59:24.000Z</time>
      </trkpt>
      <trkpt lat="41.052844" lon="-6.779351">
        <ele>465.3</ele>
        <time>1970-01-01T01:59:25.000Z</time>
      </trkpt>
      <trkpt lat="41.052829" lon="-6.779324">
        <ele>465.6</ele>
        <time>1970-01-01T01:59:26.000Z</time>
      </trkpt>
      <trkpt lat="41.052816" lon="-6.779299">
        <ele>465.9</ele>
        <time>1970-01-01T01:59:27.000Z</time>
      </trkpt>
      <trkpt lat="41.052803" lon="-6.779272">
        <ele>466.2</ele>
        <time>1970-01-01T01:59:28.000Z</time>
      </trkpt>
      <trkpt lat="41.052791" lon="-6.779246">
        <ele>466.5</ele>
        <time>1970-01-01T01:59:29.000Z</time>
      </trkpt>
      <trkpt lat="41.052779" lon="-6.779221">
        <ele>466.8</ele>
        <time>1970-01-01T01:59:30.000Z</time>
      </trkpt>
      <trkpt lat="41.052769" lon="-6.779195">
        <ele>467.1</ele>
        <time>1970-01-01T01:59:31.000Z</time>
      </trkpt>
      <trkpt lat="41.05276" lon="-6.779169">
        <ele>467.4</ele>
        <time>1970-01-01T01:59:32.000Z</time>
      </trkpt>
      <trkpt lat="41.052751" lon="-6.779144">
        <ele>467.7</ele>
        <time>1970-01-01T01:59:33.000Z</time>
      </trkpt>
      <trkpt lat="41.052741" lon="-6.779119">
        <ele>468</ele>
        <time>1970-01-01T01:59:34.000Z</time>
      </trkpt>
      <trkpt lat="41.052731" lon="-6.779094">
        <ele>468.2</ele>
        <time>1970-01-01T01:59:35.000Z</time>
      </trkpt>
      <trkpt lat="41.052722" lon="-6.779066">
        <ele>468.5</ele>
        <time>1970-01-01T01:59:36.000Z</time>
      </trkpt>
      <trkpt lat="41.052714" lon="-6.779038">
        <ele>468.8</ele>
        <time>1970-01-01T01:59:37.000Z</time>
      </trkpt>
      <trkpt lat="41.052707" lon="-6.779011">
        <ele>469.1</ele>
        <time>1970-01-01T01:59:38.000Z</time>
      </trkpt>
      <trkpt lat="41.052699" lon="-6.778984">
        <ele>469.3</ele>
        <time>1970-01-01T01:59:39.000Z</time>
      </trkpt>
      <trkpt lat="41.052691" lon="-6.778956">
        <ele>469.6</ele>
        <time>1970-01-01T01:59:40.000Z</time>
      </trkpt>
      <trkpt lat="41.052682" lon="-6.778928">
        <ele>469.8</ele>
        <time>1970-01-01T01:59:41.000Z</time>
      </trkpt>
      <trkpt lat="41.052674" lon="-6.7789">
        <ele>470</ele>
        <time>1970-01-01T01:59:42.000Z</time>
      </trkpt>
      <trkpt lat="41.052666" lon="-6.778871">
        <ele>470.3</ele>
        <time>1970-01-01T01:59:43.000Z</time>
      </trkpt>
      <trkpt lat="41.052658" lon="-6.77884">
        <ele>470.5</ele>
        <time>1970-01-01T01:59:44.000Z</time>
      </trkpt>
      <trkpt lat="41.05265" lon="-6.77881">
        <ele>470.8</ele>
        <time>1970-01-01T01:59:45.000Z</time>
      </trkpt>
      <trkpt lat="41.052642" lon="-6.778778">
        <ele>471.1</ele>
        <time>1970-01-01T01:59:46.000Z</time>
      </trkpt>
      <trkpt lat="41.052634" lon="-6.778746">
        <ele>471.3</ele>
        <time>1970-01-01T01:59:47.000Z</time>
      </trkpt>
      <trkpt lat="41.052628" lon="-6.778715">
        <ele>471.6</ele>
        <time>1970-01-01T01:59:48.000Z</time>
      </trkpt>
      <trkpt lat="41.052621" lon="-6.778683">
        <ele>471.8</ele>
        <time>1970-01-01T01:59:49.000Z</time>
      </trkpt>
      <trkpt lat="41.052613" lon="-6.778651">
        <ele>472.1</ele>
        <time>1970-01-01T01:59:50.000Z</time>
      </trkpt>
      <trkpt lat="41.052602" lon="-6.778617">
        <ele>472.3</ele>
        <time>1970-01-01T01:59:51.000Z</time>
      </trkpt>
      <trkpt lat="41.05259" lon="-6.778581">
        <ele>472.5</ele>
        <time>1970-01-01T01:59:52.000Z</time>
      </trkpt>
      <trkpt lat="41.052579" lon="-6.778546">
        <ele>472.7</ele>
        <time>1970-01-01T01:59:53.000Z</time>
      </trkpt>
      <trkpt lat="41.052569" lon="-6.778511">
        <ele>472.9</ele>
        <time>1970-01-01T01:59:54.000Z</time>
      </trkpt>
      <trkpt lat="41.052561" lon="-6.778476">
        <ele>473.1</ele>
        <time>1970-01-01T01:59:55.000Z</time>
      </trkpt>
      <trkpt lat="41.052551" lon="-6.778441">
        <ele>473.3</ele>
        <time>1970-01-01T01:59:56.000Z</time>
      </trkpt>
      <trkpt lat="41.052542" lon="-6.778406">
        <ele>473.5</ele>
        <time>1970-01-01T01:59:57.000Z</time>
      </trkpt>
      <trkpt lat="41.052531" lon="-6.778371">
        <ele>473.7</ele>
        <time>1970-01-01T01:59:58.000Z</time>
      </trkpt>
      <trkpt lat="41.052522" lon="-6.778337">
        <ele>473.9</ele>
        <time>1970-01-01T01:59:59.000Z</time>
      </trkpt>
      <trkpt lat="41.052514" lon="-6.778304">
        <ele>474.1</ele>
        <time>1970-01-01T02:00:00.000Z</time>
      </trkpt>
      <trkpt lat="41.052507" lon="-6.778272">
        <ele>474.3</ele>
        <time>1970-01-01T02:00:01.000Z</time>
      </trkpt>
      <trkpt lat="41.052499" lon="-6.778241">
        <ele>474.5</ele>
        <time>1970-01-01T02:00:02.000Z</time>
      </trkpt>
      <trkpt lat="41.052493" lon="-6.77821">
        <ele>474.7</ele>
        <time>1970-01-01T02:00:03.000Z</time>
      </trkpt>
      <trkpt lat="41.052488" lon="-6.778178">
        <ele>474.9</ele>
        <time>1970-01-01T02:00:04.000Z</time>
      </trkpt>
      <trkpt lat="41.052483" lon="-6.778146">
        <ele>475.1</ele>
        <time>1970-01-01T02:00:05.000Z</time>
      </trkpt>
      <trkpt lat="41.052477" lon="-6.778113">
        <ele>475.3</ele>
        <time>1970-01-01T02:00:06.000Z</time>
      </trkpt>
      <trkpt lat="41.05247" lon="-6.778079">
        <ele>475.6</ele>
        <time>1970-01-01T02:00:07.000Z</time>
      </trkpt>
      <trkpt lat="41.052463" lon="-6.778046">
        <ele>475.8</ele>
        <time>1970-01-01T02:00:08.000Z</time>
      </trkpt>
      <trkpt lat="41.052457" lon="-6.778011">
        <ele>476.1</ele>
        <time>1970-01-01T02:00:09.000Z</time>
      </trkpt>
      <trkpt lat="41.052453" lon="-6.777977">
        <ele>476.3</ele>
        <time>1970-01-01T02:00:10.000Z</time>
      </trkpt>
      <trkpt lat="41.052448" lon="-6.777942">
        <ele>476.6</ele>
        <time>1970-01-01T02:00:11.000Z</time>
      </trkpt>
      <trkpt lat="41.052443" lon="-6.777909">
        <ele>476.8</ele>
        <time>1970-01-01T02:00:12.000Z</time>
      </trkpt>
      <trkpt lat="41.052438" lon="-6.777877">
        <ele>477.1</ele>
        <time>1970-01-01T02:00:13.000Z</time>
      </trkpt>
      <trkpt lat="41.052433" lon="-6.777846">
        <ele>477.3</ele>
        <time>1970-01-01T02:00:14.000Z</time>
      </trkpt>
      <trkpt lat="41.052428" lon="-6.777816">
        <ele>477.5</ele>
        <time>1970-01-01T02:00:15.000Z</time>
      </trkpt>
      <trkpt lat="41.052423" lon="-6.777787">
        <ele>477.7</ele>
        <time>1970-01-01T02:00:16.000Z</time>
      </trkpt>
      <trkpt lat="41.052418" lon="-6.777758">
        <ele>477.9</ele>
        <time>1970-01-01T02:00:17.000Z</time>
      </trkpt>
      <trkpt lat="41.052416" lon="-6.777727">
        <ele>478.1</ele>
        <time>1970-01-01T02:00:18.000Z</time>
      </trkpt>
      <trkpt lat="41.052414" lon="-6.777696">
        <ele>478.4</ele>
        <time>1970-01-01T02:00:19.000Z</time>
      </trkpt>
      <trkpt lat="41.052411" lon="-6.777665">
        <ele>478.6</ele>
        <time>1970-01-01T02:00:20.000Z</time>
      </trkpt>
      <trkpt lat="41.052408" lon="-6.777633">
        <ele>478.9</ele>
        <time>1970-01-01T02:00:21.000Z</time>
      </trkpt>
      <trkpt lat="41.052405" lon="-6.777602">
        <ele>479.1</ele>
        <time>1970-01-01T02:00:22.000Z</time>
      </trkpt>
      <trkpt lat="41.052402" lon="-6.777571">
        <ele>479.4</ele>
        <time>1970-01-01T02:00:23.000Z</time>
      </trkpt>
      <trkpt lat="41.052398" lon="-6.77754">
        <ele>479.7</ele>
        <time>1970-01-01T02:00:24.000Z</time>
      </trkpt>
      <trkpt lat="41.052394" lon="-6.777509">
        <ele>479.9</ele>
        <time>1970-01-01T02:00:25.000Z</time>
      </trkpt>
      <trkpt lat="41.052389" lon="-6.777479">
        <ele>480.2</ele>
        <time>1970-01-01T02:00:26.000Z</time>
      </trkpt>
      <trkpt lat="41.052384" lon="-6.777448">
        <ele>480.5</ele>
        <time>1970-01-01T02:00:27.000Z</time>
      </trkpt>
      <trkpt lat="41.052381" lon="-6.777418">
        <ele>480.7</ele>
        <time>1970-01-01T02:00:28.000Z</time>
      </trkpt>
      <trkpt lat="41.052378" lon="-6.777387">
        <ele>481</ele>
        <time>1970-01-01T02:00:29.000Z</time>
      </trkpt>
      <trkpt lat="41.052373" lon="-6.777357">
        <ele>481.3</ele>
        <time>1970-01-01T02:00:30.000Z</time>
      </trkpt>
      <trkpt lat="41.052368" lon="-6.777328">
        <ele>481.5</ele>
        <time>1970-01-01T02:00:31.000Z</time>
      </trkpt>
      <trkpt lat="41.052362" lon="-6.777299">
        <ele>481.8</ele>
        <time>1970-01-01T02:00:32.000Z</time>
      </trkpt>
      <trkpt lat="41.052356" lon="-6.777271">
        <ele>482.1</ele>
        <time>1970-01-01T02:00:33.000Z</time>
      </trkpt>
      <trkpt lat="41.052351" lon="-6.777243">
        <ele>482.4</ele>
        <time>1970-01-01T02:00:34.000Z</time>
      </trkpt>
      <trkpt lat="41.052346" lon="-6.777215">
        <ele>482.6</ele>
        <time>1970-01-01T02:00:35.000Z</time>
      </trkpt>
      <trkpt lat="41.05234" lon="-6.777187">
        <ele>482.9</ele>
        <time>1970-01-01T02:00:36.000Z</time>
      </trkpt>
      <trkpt lat="41.052334" lon="-6.777158">
        <ele>483.2</ele>
        <time>1970-01-01T02:00:37.000Z</time>
      </trkpt>
      <trkpt lat="41.052327" lon="-6.777129">
        <ele>483.4</ele>
        <time>1970-01-01T02:00:38.000Z</time>
      </trkpt>
      <trkpt lat="41.05232" lon="-6.777098">
        <ele>483.7</ele>
        <time>1970-01-01T02:00:39.000Z</time>
      </trkpt>
      <trkpt lat="41.052313" lon="-6.777068">
        <ele>483.9</ele>
        <time>1970-01-01T02:00:40.000Z</time>
      </trkpt>
      <trkpt lat="41.052305" lon="-6.777038">
        <ele>484.1</ele>
        <time>1970-01-01T02:00:41.000Z</time>
      </trkpt>
      <trkpt lat="41.052298" lon="-6.777009">
        <ele>484.3</ele>
        <time>1970-01-01T02:00:42.000Z</time>
      </trkpt>
      <trkpt lat="41.052292" lon="-6.776981">
        <ele>484.5</ele>
        <time>1970-01-01T02:00:43.000Z</time>
      </trkpt>
      <trkpt lat="41.052286" lon="-6.776953">
        <ele>484.7</ele>
        <time>1970-01-01T02:00:44.000Z</time>
      </trkpt>
      <trkpt lat="41.05228" lon="-6.776925">
        <ele>484.9</ele>
        <time>1970-01-01T02:00:45.000Z</time>
      </trkpt>
      <trkpt lat="41.052272" lon="-6.776898">
        <ele>485.1</ele>
        <time>1970-01-01T02:00:46.000Z</time>
      </trkpt>
      <trkpt lat="41.052265" lon="-6.776871">
        <ele>485.3</ele>
        <time>1970-01-01T02:00:47.000Z</time>
      </trkpt>
      <trkpt lat="41.052258" lon="-6.776844">
        <ele>485.5</ele>
        <time>1970-01-01T02:00:48.000Z</time>
      </trkpt>
      <trkpt lat="41.05225" lon="-6.776817">
        <ele>485.7</ele>
        <time>1970-01-01T02:00:49.000Z</time>
      </trkpt>
      <trkpt lat="41.052243" lon="-6.776791">
        <ele>485.9</ele>
        <time>1970-01-01T02:00:50.000Z</time>
      </trkpt>
      <trkpt lat="41.052235" lon="-6.776764">
        <ele>486.1</ele>
        <time>1970-01-01T02:00:51.000Z</time>
      </trkpt>
      <trkpt lat="41.052228" lon="-6.776739">
        <ele>486.2</ele>
        <time>1970-01-01T02:00:52.000Z</time>
      </trkpt>
      <trkpt lat="41.05222" lon="-6.776712">
        <ele>486.4</ele>
        <time>1970-01-01T02:00:53.000Z</time>
      </trkpt>
      <trkpt lat="41.052212" lon="-6.776686">
        <ele>486.6</ele>
        <time>1970-01-01T02:00:54.000Z</time>
      </trkpt>
      <trkpt lat="41.052203" lon="-6.77666">
        <ele>486.7</ele>
        <time>1970-01-01T02:00:55.000Z</time>
      </trkpt>
      <trkpt lat="41.052193" lon="-6.776634">
        <ele>486.9</ele>
        <time>1970-01-01T02:00:56.000Z</time>
      </trkpt>
      <trkpt lat="41.052184" lon="-6.776609">
        <ele>487</ele>
        <time>1970-01-01T02:00:57.000Z</time>
      </trkpt>
      <trkpt lat="41.052176" lon="-6.776583">
        <ele>487.2</ele>
        <time>1970-01-01T02:00:58.000Z</time>
      </trkpt>
      <trkpt lat="41.052166" lon="-6.776556">
        <ele>487.4</ele>
        <time>1970-01-01T02:00:59.000Z</time>
      </trkpt>
      <trkpt lat="41.052156" lon="-6.776526">
        <ele>487.5</ele>
        <time>1970-01-01T02:01:00.000Z</time>
      </trkpt>
      <trkpt lat="41.052144" lon="-6.776496">
        <ele>487.7</ele>
        <time>1970-01-01T02:01:01.000Z</time>
      </trkpt>
      <trkpt lat="41.052132" lon="-6.776466">
        <ele>487.9</ele>
        <time>1970-01-01T02:01:02.000Z</time>
      </trkpt>
      <trkpt lat="41.052121" lon="-6.776437">
        <ele>488.1</ele>
        <time>1970-01-01T02:01:03.000Z</time>
      </trkpt>
      <trkpt lat="41.052108" lon="-6.776412">
        <ele>488.2</ele>
        <time>1970-01-01T02:01:04.000Z</time>
      </trkpt>
      <trkpt lat="41.052095" lon="-6.776386">
        <ele>488.4</ele>
        <time>1970-01-01T02:01:05.000Z</time>
      </trkpt>
      <trkpt lat="41.052081" lon="-6.776359">
        <ele>488.5</ele>
        <time>1970-01-01T02:01:06.000Z</time>
      </trkpt>
      <trkpt lat="41.052067" lon="-6.77633">
        <ele>488.6</ele>
        <time>1970-01-01T02:01:07.000Z</time>
      </trkpt>
      <trkpt lat="41.052053" lon="-6.7763">
        <ele>488.7</ele>
        <time>1970-01-01T02:01:08.000Z</time>
      </trkpt>
      <trkpt lat="41.052038" lon="-6.776267">
        <ele>488.9</ele>
        <time>1970-01-01T02:01:09.000Z</time>
      </trkpt>
      <trkpt lat="41.052022" lon="-6.776234">
        <ele>489</ele>
        <time>1970-01-01T02:01:10.000Z</time>
      </trkpt>
      <trkpt lat="41.052003" lon="-6.776201">
        <ele>489</ele>
        <time>1970-01-01T02:01:11.000Z</time>
      </trkpt>
      <trkpt lat="41.051984" lon="-6.776173">
        <ele>489.1</ele>
        <time>1970-01-01T02:01:12.000Z</time>
      </trkpt>
      <trkpt lat="41.051963" lon="-6.776148">
        <ele>489.1</ele>
        <time>1970-01-01T02:01:13.000Z</time>
      </trkpt>
      <trkpt lat="41.051941" lon="-6.77613">
        <ele>489.1</ele>
        <time>1970-01-01T02:01:14.000Z</time>
      </trkpt>
      <trkpt lat="41.051917" lon="-6.776116">
        <ele>489.1</ele>
        <time>1970-01-01T02:01:15.000Z</time>
      </trkpt>
      <trkpt lat="41.051891" lon="-6.77611">
        <ele>489.1</ele>
        <time>1970-01-01T02:01:16.000Z</time>
      </trkpt>
      <trkpt lat="41.051865" lon="-6.77611">
        <ele>489</ele>
        <time>1970-01-01T02:01:17.000Z</time>
      </trkpt>
      <trkpt lat="41.051839" lon="-6.776114">
        <ele>488.9</ele>
        <time>1970-01-01T02:01:18.000Z</time>
      </trkpt>
      <trkpt lat="41.051816" lon="-6.776124">
        <ele>488.9</ele>
        <time>1970-01-01T02:01:19.000Z</time>
      </trkpt>
      <trkpt lat="41.051792" lon="-6.776138">
        <ele>488.8</ele>
        <time>1970-01-01T02:01:20.000Z</time>
      </trkpt>
      <trkpt lat="41.051767" lon="-6.776154">
        <ele>488.7</ele>
        <time>1970-01-01T02:01:21.000Z</time>
      </trkpt>
      <trkpt lat="41.051742" lon="-6.776171">
        <ele>488.6</ele>
        <time>1970-01-01T02:01:22.000Z</time>
      </trkpt>
      <trkpt lat="41.051719" lon="-6.77619">
        <ele>488.5</ele>
        <time>1970-01-01T02:01:23.000Z</time>
      </trkpt>
      <trkpt lat="41.051699" lon="-6.776209">
        <ele>488.5</ele>
        <time>1970-01-01T02:01:24.000Z</time>
      </trkpt>
      <trkpt lat="41.05168" lon="-6.776227">
        <ele>488.4</ele>
        <time>1970-01-01T02:01:25.000Z</time>
      </trkpt>
      <trkpt lat="41.051661" lon="-6.776244">
        <ele>488.3</ele>
        <time>1970-01-01T02:01:26.000Z</time>
      </trkpt>
      <trkpt lat="41.051642" lon="-6.776262">
        <ele>488.3</ele>
        <time>1970-01-01T02:01:27.000Z</time>
      </trkpt>
      <trkpt lat="41.051621" lon="-6.776282">
        <ele>488.3</ele>
        <time>1970-01-01T02:01:28.000Z</time>
      </trkpt>
      <trkpt lat="41.0516" lon="-6.776302">
        <ele>488.2</ele>
        <time>1970-01-01T02:01:29.000Z</time>
      </trkpt>
      <trkpt lat="41.051578" lon="-6.776321">
        <ele>488.2</ele>
        <time>1970-01-01T02:01:30.000Z</time>
      </trkpt>
      <trkpt lat="41.051558" lon="-6.776339">
        <ele>488.2</ele>
        <time>1970-01-01T02:01:31.000Z</time>
      </trkpt>
      <trkpt lat="41.051537" lon="-6.776357">
        <ele>488.1</ele>
        <time>1970-01-01T02:01:32.000Z</time>
      </trkpt>
      <trkpt lat="41.051515" lon="-6.776374">
        <ele>488.1</ele>
        <time>1970-01-01T02:01:33.000Z</time>
      </trkpt>
      <trkpt lat="41.051492" lon="-6.776392">
        <ele>488.1</ele>
        <time>1970-01-01T02:01:34.000Z</time>
      </trkpt>
      <trkpt lat="41.051467" lon="-6.77641">
        <ele>488.2</ele>
        <time>1970-01-01T02:01:35.000Z</time>
      </trkpt>
      <trkpt lat="41.05144" lon="-6.776428">
        <ele>488.2</ele>
        <time>1970-01-01T02:01:36.000Z</time>
      </trkpt>
      <trkpt lat="41.051413" lon="-6.776445">
        <ele>488.2</ele>
        <time>1970-01-01T02:01:37.000Z</time>
      </trkpt>
      <trkpt lat="41.051385" lon="-6.776462">
        <ele>488.2</ele>
        <time>1970-01-01T02:01:38.000Z</time>
      </trkpt>
      <trkpt lat="41.051355" lon="-6.776477">
        <ele>488.2</ele>
        <time>1970-01-01T02:01:39.000Z</time>
      </trkpt>
      <trkpt lat="41.051322" lon="-6.776491">
        <ele>488.2</ele>
        <time>1970-01-01T02:01:40.000Z</time>
      </trkpt>
      <trkpt lat="41.051285" lon="-6.776505">
        <ele>488.3</ele>
        <time>1970-01-01T02:01:41.000Z</time>
      </trkpt>
      <trkpt lat="41.051249" lon="-6.776519">
        <ele>488.3</ele>
        <time>1970-01-01T02:01:42.000Z</time>
      </trkpt>
      <trkpt lat="41.051213" lon="-6.77653">
        <ele>488.2</ele>
        <time>1970-01-01T02:01:43.000Z</time>
      </trkpt>
      <trkpt lat="41.051179" lon="-6.776539">
        <ele>488.2</ele>
        <time>1970-01-01T02:01:44.000Z</time>
      </trkpt>
      <trkpt lat="41.051145" lon="-6.776546">
        <ele>488.1</ele>
        <time>1970-01-01T02:01:45.000Z</time>
      </trkpt>
      <trkpt lat="41.051108" lon="-6.776553">
        <ele>488</ele>
        <time>1970-01-01T02:01:46.000Z</time>
      </trkpt>
      <trkpt lat="41.051067" lon="-6.776559">
        <ele>487.8</ele>
        <time>1970-01-01T02:01:47.000Z</time>
      </trkpt>
      <trkpt lat="41.051021" lon="-6.776564">
        <ele>487.8</ele>
        <time>1970-01-01T02:01:48.000Z</time>
      </trkpt>
      <trkpt lat="41.050972" lon="-6.776564">
        <ele>488.1</ele>
        <time>1970-01-01T02:01:49.000Z</time>
      </trkpt>
      <trkpt lat="41.05092" lon="-6.776558">
        <ele>488.4</ele>
        <time>1970-01-01T02:01:50.000Z</time>
      </trkpt>
      <trkpt lat="41.050865" lon="-6.77655">
        <ele>488.7</ele>
        <time>1970-01-01T02:01:51.000Z</time>
      </trkpt>
      <trkpt lat="41.050805" lon="-6.776538">
        <ele>489</ele>
        <time>1970-01-01T02:01:52.000Z</time>
      </trkpt>
      <trkpt lat="41.050742" lon="-6.776525">
        <ele>489.4</ele>
        <time>1970-01-01T02:01:53.000Z</time>
      </trkpt>
      <trkpt lat="41.050676" lon="-6.77651">
        <ele>489.8</ele>
        <time>1970-01-01T02:01:54.000Z</time>
      </trkpt>
      <trkpt lat="41.050603" lon="-6.776502">
        <ele>490.2</ele>
        <time>1970-01-01T02:01:55.000Z</time>
      </trkpt>
      <trkpt lat="41.050524" lon="-6.776502">
        <ele>490.6</ele>
        <time>1970-01-01T02:01:56.000Z</time>
      </trkpt>
      <trkpt lat="41.050442" lon="-6.776518">
        <ele>491.1</ele>
        <time>1970-01-01T02:01:57.000Z</time>
      </trkpt>
      <trkpt lat="41.050361" lon="-6.776541">
        <ele>491.6</ele>
        <time>1970-01-01T02:01:58.000Z</time>
      </trkpt>
      <trkpt lat="41.05028" lon="-6.77657">
        <ele>492</ele>
        <time>1970-01-01T02:01:59.000Z</time>
      </trkpt>
      <trkpt lat="41.050197" lon="-6.776592">
        <ele>492.5</ele>
        <time>1970-01-01T02:02:00.000Z</time>
      </trkpt>
      <trkpt lat="41.050115" lon="-6.776609">
        <ele>493</ele>
        <time>1970-01-01T02:02:01.000Z</time>
      </trkpt>
      <trkpt lat="41.050034" lon="-6.776625">
        <ele>493.5</ele>
        <time>1970-01-01T02:02:02.000Z</time>
      </trkpt>
      <trkpt lat="41.049954" lon="-6.776639">
        <ele>493.9</ele>
        <time>1970-01-01T02:02:03.000Z</time>
      </trkpt>
      <trkpt lat="41.049874" lon="-6.776649">
        <ele>494.4</ele>
        <time>1970-01-01T02:02:04.000Z</time>
      </trkpt>
      <trkpt lat="41.049795" lon="-6.776653">
        <ele>494.8</ele>
        <time>1970-01-01T02:02:05.000Z</time>
      </trkpt>
      <trkpt lat="41.049721" lon="-6.776649">
        <ele>495.2</ele>
        <time>1970-01-01T02:02:06.000Z</time>
      </trkpt>
      <trkpt lat="41.049651" lon="-6.776642">
        <ele>495.6</ele>
        <time>1970-01-01T02:02:07.000Z</time>
      </trkpt>
      <trkpt lat="41.049583" lon="-6.776632">
        <ele>496</ele>
        <time>1970-01-01T02:02:08.000Z</time>
      </trkpt>
      <trkpt lat="41.049514" lon="-6.776615">
        <ele>496.4</ele>
        <time>1970-01-01T02:02:09.000Z</time>
      </trkpt>
      <trkpt lat="41.049447" lon="-6.776593">
        <ele>496.8</ele>
        <time>1970-01-01T02:02:10.000Z</time>
      </trkpt>
      <trkpt lat="41.049384" lon="-6.776565">
        <ele>497.2</ele>
        <time>1970-01-01T02:02:11.000Z</time>
      </trkpt>
      <trkpt lat="41.049329" lon="-6.776535">
        <ele>497.5</ele>
        <time>1970-01-01T02:02:12.000Z</time>
      </trkpt>
      <trkpt lat="41.049283" lon="-6.776508">
        <ele>497.8</ele>
        <time>1970-01-01T02:02:13.000Z</time>
      </trkpt>
      <trkpt lat="41.049245" lon="-6.776481">
        <ele>498</ele>
        <time>1970-01-01T02:02:14.000Z</time>
      </trkpt>
      <trkpt lat="41.049213" lon="-6.77646">
        <ele>498.2</ele>
        <time>1970-01-01T02:02:15.000Z</time>
      </trkpt>
      <trkpt lat="41.049183" lon="-6.776438">
        <ele>498.4</ele>
        <time>1970-01-01T02:02:16.000Z</time>
      </trkpt>
      <trkpt lat="41.049152" lon="-6.776418">
        <ele>498.6</ele>
        <time>1970-01-01T02:02:17.000Z</time>
      </trkpt>
      <trkpt lat="41.049118" lon="-6.776399">
        <ele>498.8</ele>
        <time>1970-01-01T02:02:18.000Z</time>
      </trkpt>
      <trkpt lat="41.049081" lon="-6.776386">
        <ele>499.1</ele>
        <time>1970-01-01T02:02:19.000Z</time>
      </trkpt>
      <trkpt lat="41.049043" lon="-6.776379">
        <ele>499.3</ele>
        <time>1970-01-01T02:02:20.000Z</time>
      </trkpt>
      <trkpt lat="41.049005" lon="-6.77638">
        <ele>499.5</ele>
        <time>1970-01-01T02:02:21.000Z</time>
      </trkpt>
      <trkpt lat="41.048971" lon="-6.776386">
        <ele>499.7</ele>
        <time>1970-01-01T02:02:22.000Z</time>
      </trkpt>
      <trkpt lat="41.04894" lon="-6.776396">
        <ele>499.9</ele>
        <time>1970-01-01T02:02:23.000Z</time>
      </trkpt>
      <trkpt lat="41.048914" lon="-6.776407">
        <ele>500</ele>
        <time>1970-01-01T02:02:24.000Z</time>
      </trkpt>
      <trkpt lat="41.04889" lon="-6.776419">
        <ele>500.2</ele>
        <time>1970-01-01T02:02:25.000Z</time>
      </trkpt>
      <trkpt lat="41.048868" lon="-6.776431">
        <ele>500.3</ele>
        <time>1970-01-01T02:02:26.000Z</time>
      </trkpt>
      <trkpt lat="41.048847" lon="-6.776444">
        <ele>500.4</ele>
        <time>1970-01-01T02:02:27.000Z</time>
      </trkpt>
      <trkpt lat="41.048823" lon="-6.776456">
        <ele>500.6</ele>
        <time>1970-01-01T02:02:28.000Z</time>
      </trkpt>
      <trkpt lat="41.048798" lon="-6.776469">
        <ele>500.7</ele>
        <time>1970-01-01T02:02:29.000Z</time>
      </trkpt>
      <trkpt lat="41.048771" lon="-6.776483">
        <ele>500.9</ele>
        <time>1970-01-01T02:02:30.000Z</time>
      </trkpt>
      <trkpt lat="41.048742" lon="-6.7765">
        <ele>501.1</ele>
        <time>1970-01-01T02:02:31.000Z</time>
      </trkpt>
      <trkpt lat="41.048711" lon="-6.776517">
        <ele>501.3</ele>
        <time>1970-01-01T02:02:32.000Z</time>
      </trkpt>
      <trkpt lat="41.04868" lon="-6.776536">
        <ele>501.5</ele>
        <time>1970-01-01T02:02:33.000Z</time>
      </trkpt>
      <trkpt lat="41.048651" lon="-6.776556">
        <ele>501.6</ele>
        <time>1970-01-01T02:02:34.000Z</time>
      </trkpt>
      <trkpt lat="41.048622" lon="-6.776578">
        <ele>501.8</ele>
        <time>1970-01-01T02:02:35.000Z</time>
      </trkpt>
      <trkpt lat="41.048592" lon="-6.776598">
        <ele>502</ele>
        <time>1970-01-01T02:02:36.000Z</time>
      </trkpt>
      <trkpt lat="41.048559" lon="-6.776621">
        <ele>502.2</ele>
        <time>1970-01-01T02:02:37.000Z</time>
      </trkpt>
      <trkpt lat="41.048521" lon="-6.776646">
        <ele>502.5</ele>
        <time>1970-01-01T02:02:38.000Z</time>
      </trkpt>
      <trkpt lat="41.048479" lon="-6.776677">
        <ele>502.7</ele>
        <time>1970-01-01T02:02:39.000Z</time>
      </trkpt>
      <trkpt lat="41.048432" lon="-6.776718">
        <ele>503.1</ele>
        <time>1970-01-01T02:02:40.000Z</time>
      </trkpt>
      <trkpt lat="41.048381" lon="-6.776766">
        <ele>503.4</ele>
        <time>1970-01-01T02:02:41.000Z</time>
      </trkpt>
      <trkpt lat="41.04833" lon="-6.77682">
        <ele>503.8</ele>
        <time>1970-01-01T02:02:42.000Z</time>
      </trkpt>
      <trkpt lat="41.048282" lon="-6.776874">
        <ele>504.1</ele>
        <time>1970-01-01T02:02:43.000Z</time>
      </trkpt>
      <trkpt lat="41.048236" lon="-6.77693">
        <ele>504.5</ele>
        <time>1970-01-01T02:02:44.000Z</time>
      </trkpt>
      <trkpt lat="41.048191" lon="-6.776988">
        <ele>504.9</ele>
        <time>1970-01-01T02:02:45.000Z</time>
      </trkpt>
      <trkpt lat="41.048149" lon="-6.777044">
        <ele>505.2</ele>
        <time>1970-01-01T02:02:46.000Z</time>
      </trkpt>
      <trkpt lat="41.048109" lon="-6.777091">
        <ele>505.5</ele>
        <time>1970-01-01T02:02:47.000Z</time>
      </trkpt>
      <trkpt lat="41.04807" lon="-6.777123">
        <ele>505.8</ele>
        <time>1970-01-01T02:02:48.000Z</time>
      </trkpt>
      <trkpt lat="41.048035" lon="-6.777138">
        <ele>506</ele>
        <time>1970-01-01T02:02:49.000Z</time>
      </trkpt>
      <trkpt lat="41.048006" lon="-6.777135">
        <ele>506.1</ele>
        <time>1970-01-01T02:02:50.000Z</time>
      </trkpt>
      <trkpt lat="41.047982" lon="-6.777122">
        <ele>506.3</ele>
        <time>1970-01-01T02:02:51.000Z</time>
      </trkpt>
      <trkpt lat="41.047959" lon="-6.777102">
        <ele>506.4</ele>
        <time>1970-01-01T02:02:52.000Z</time>
      </trkpt>
      <trkpt lat="41.047937" lon="-6.777084">
        <ele>506.6</ele>
        <time>1970-01-01T02:02:53.000Z</time>
      </trkpt>
      <trkpt lat="41.047918" lon="-6.777067">
        <ele>506.7</ele>
        <time>1970-01-01T02:02:54.000Z</time>
      </trkpt>
      <trkpt lat="41.0479" lon="-6.777049">
        <ele>506.8</ele>
        <time>1970-01-01T02:02:55.000Z</time>
      </trkpt>
      <trkpt lat="41.047887" lon="-6.777031">
        <ele>506.9</ele>
        <time>1970-01-01T02:02:56.000Z</time>
      </trkpt>
      <trkpt lat="41.047876" lon="-6.777012">
        <ele>507</ele>
        <time>1970-01-01T02:02:57.000Z</time>
      </trkpt>
      <trkpt lat="41.047869" lon="-6.776994">
        <ele>507.1</ele>
        <time>1970-01-01T02:02:58.000Z</time>
      </trkpt>
      <trkpt lat="41.047864" lon="-6.776974">
        <ele>507.2</ele>
        <time>1970-01-01T02:02:59.000Z</time>
      </trkpt>
      <trkpt lat="41.04786" lon="-6.776954">
        <ele>507.3</ele>
        <time>1970-01-01T02:03:00.000Z</time>
      </trkpt>
      <trkpt lat="41.047858" lon="-6.776938">
        <ele>507.4</ele>
        <time>1970-01-01T02:03:01.000Z</time>
      </trkpt>
      <trkpt lat="41.047859" lon="-6.776924">
        <ele>507.4</ele>
        <time>1970-01-01T02:03:02.000Z</time>
      </trkpt>
      <trkpt lat="41.047861" lon="-6.776908">
        <ele>507.5</ele>
        <time>1970-01-01T02:03:03.000Z</time>
      </trkpt>
      <trkpt lat="41.047862" lon="-6.776888">
        <ele>507.6</ele>
        <time>1970-01-01T02:03:04.000Z</time>
      </trkpt>
      <trkpt lat="41.04786" lon="-6.776867">
        <ele>507.7</ele>
        <time>1970-01-01T02:03:05.000Z</time>
      </trkpt>
      <trkpt lat="41.047856" lon="-6.776847">
        <ele>507.8</ele>
        <time>1970-01-01T02:03:06.000Z</time>
      </trkpt>
      <trkpt lat="41.047851" lon="-6.776826">
        <ele>507.9</ele>
        <time>1970-01-01T02:03:07.000Z</time>
      </trkpt>
      <trkpt lat="41.047844" lon="-6.7768">
        <ele>508</ele>
        <time>1970-01-01T02:03:08.000Z</time>
      </trkpt>
      <trkpt lat="41.047837" lon="-6.776773">
        <ele>508.1</ele>
        <time>1970-01-01T02:03:09.000Z</time>
      </trkpt>
      <trkpt lat="41.047832" lon="-6.776746">
        <ele>508.2</ele>
        <time>1970-01-01T02:03:10.000Z</time>
      </trkpt>
      <trkpt lat="41.047828" lon="-6.77672">
        <ele>508.3</ele>
        <time>1970-01-01T02:03:11.000Z</time>
      </trkpt>
      <trkpt lat="41.047825" lon="-6.776693">
        <ele>508.5</ele>
        <time>1970-01-01T02:03:12.000Z</time>
      </trkpt>
      <trkpt lat="41.047822" lon="-6.776665">
        <ele>508.6</ele>
        <time>1970-01-01T02:03:13.000Z</time>
      </trkpt>
      <trkpt lat="41.047819" lon="-6.776636">
        <ele>508.7</ele>
        <time>1970-01-01T02:03:14.000Z</time>
      </trkpt>
      <trkpt lat="41.047814" lon="-6.776609">
        <ele>508.8</ele>
        <time>1970-01-01T02:03:15.000Z</time>
      </trkpt>
      <trkpt lat="41.047811" lon="-6.776583">
        <ele>508.9</ele>
        <time>1970-01-01T02:03:16.000Z</time>
      </trkpt>
      <trkpt lat="41.047808" lon="-6.776561">
        <ele>509</ele>
        <time>1970-01-01T02:03:17.000Z</time>
      </trkpt>
      <trkpt lat="41.047806" lon="-6.776538">
        <ele>509.1</ele>
        <time>1970-01-01T02:03:18.000Z</time>
      </trkpt>
      <trkpt lat="41.047805" lon="-6.776514">
        <ele>509.2</ele>
        <time>1970-01-01T02:03:19.000Z</time>
      </trkpt>
      <trkpt lat="41.047805" lon="-6.776487">
        <ele>509.3</ele>
        <time>1970-01-01T02:03:20.000Z</time>
      </trkpt>
      <trkpt lat="41.047805" lon="-6.776459">
        <ele>509.5</ele>
        <time>1970-01-01T02:03:21.000Z</time>
      </trkpt>
      <trkpt lat="41.047805" lon="-6.776433">
        <ele>509.6</ele>
        <time>1970-01-01T02:03:22.000Z</time>
      </trkpt>
      <trkpt lat="41.047807" lon="-6.776408">
        <ele>509.7</ele>
        <time>1970-01-01T02:03:23.000Z</time>
      </trkpt>
      <trkpt lat="41.047809" lon="-6.776382">
        <ele>509.8</ele>
        <time>1970-01-01T02:03:24.000Z</time>
      </trkpt>
      <trkpt lat="41.047814" lon="-6.776357">
        <ele>509.9</ele>
        <time>1970-01-01T02:03:25.000Z</time>
      </trkpt>
      <trkpt lat="41.047819" lon="-6.776333">
        <ele>510</ele>
        <time>1970-01-01T02:03:26.000Z</time>
      </trkpt>
      <trkpt lat="41.047826" lon="-6.776309">
        <ele>510.1</ele>
        <time>1970-01-01T02:03:27.000Z</time>
      </trkpt>
      <trkpt lat="41.047832" lon="-6.776286">
        <ele>510.2</ele>
        <time>1970-01-01T02:03:28.000Z</time>
      </trkpt>
      <trkpt lat="41.047839" lon="-6.776265">
        <ele>510.3</ele>
        <time>1970-01-01T02:03:29.000Z</time>
      </trkpt>
      <trkpt lat="41.047846" lon="-6.776243">
        <ele>510.4</ele>
        <time>1970-01-01T02:03:30.000Z</time>
      </trkpt>
      <trkpt lat="41.047853" lon="-6.776223">
        <ele>510.5</ele>
        <time>1970-01-01T02:03:31.000Z</time>
      </trkpt>
      <trkpt lat="41.04786" lon="-6.776201">
        <ele>510.6</ele>
        <time>1970-01-01T02:03:32.000Z</time>
      </trkpt>
      <trkpt lat="41.047866" lon="-6.77618">
        <ele>510.7</ele>
        <time>1970-01-01T02:03:33.000Z</time>
      </trkpt>
      <trkpt lat="41.047871" lon="-6.776159">
        <ele>510.8</ele>
        <time>1970-01-01T02:03:34.000Z</time>
      </trkpt>
      <trkpt lat="41.047876" lon="-6.776138">
        <ele>510.9</ele>
        <time>1970-01-01T02:03:35.000Z</time>
      </trkpt>
      <trkpt lat="41.047881" lon="-6.776118">
        <ele>511</ele>
        <time>1970-01-01T02:03:36.000Z</time>
      </trkpt>
      <trkpt lat="41.047885" lon="-6.776098">
        <ele>511.1</ele>
        <time>1970-01-01T02:03:37.000Z</time>
      </trkpt>
      <trkpt lat="41.047889" lon="-6.776077">
        <ele>511.2</ele>
        <time>1970-01-01T02:03:38.000Z</time>
      </trkpt>
      <trkpt lat="41.047893" lon="-6.776055">
        <ele>511.3</ele>
        <time>1970-01-01T02:03:39.000Z</time>
      </trkpt>
      <trkpt lat="41.047897" lon="-6.776031">
        <ele>511.4</ele>
        <time>1970-01-01T02:03:40.000Z</time>
      </trkpt>
      <trkpt lat="41.0479" lon="-6.776007">
        <ele>511.5</ele>
        <time>1970-01-01T02:03:41.000Z</time>
      </trkpt>
      <trkpt lat="41.047902" lon="-6.775983">
        <ele>511.6</ele>
        <time>1970-01-01T02:03:42.000Z</time>
      </trkpt>
      <trkpt lat="41.047903" lon="-6.775959">
        <ele>511.7</ele>
        <time>1970-01-01T02:03:43.000Z</time>
      </trkpt>
      <trkpt lat="41.047902" lon="-6.775937">
        <ele>511.8</ele>
        <time>1970-01-01T02:03:44.000Z</time>
      </trkpt>
      <trkpt lat="41.047898" lon="-6.775915">
        <ele>511.9</ele>
        <time>1970-01-01T02:03:45.000Z</time>
      </trkpt>
      <trkpt lat="41.047893" lon="-6.775894">
        <ele>512</ele>
        <time>1970-01-01T02:03:46.000Z</time>
      </trkpt>
      <trkpt lat="41.047888" lon="-6.775873">
        <ele>512.1</ele>
        <time>1970-01-01T02:03:47.000Z</time>
      </trkpt>
      <trkpt lat="41.047885" lon="-6.775852">
        <ele>512.2</ele>
        <time>1970-01-01T02:03:48.000Z</time>
      </trkpt>
      <trkpt lat="41.047882" lon="-6.775829">
        <ele>512.3</ele>
        <time>1970-01-01T02:03:49.000Z</time>
      </trkpt>
      <trkpt lat="41.047878" lon="-6.775807">
        <ele>512.3</ele>
        <time>1970-01-01T02:03:50.000Z</time>
      </trkpt>
      <trkpt lat="41.047874" lon="-6.775786">
        <ele>512.4</ele>
        <time>1970-01-01T02:03:51.000Z</time>
      </trkpt>
      <trkpt lat="41.047869" lon="-6.775765">
        <ele>512.5</ele>
        <time>1970-01-01T02:03:52.000Z</time>
      </trkpt>
      <trkpt lat="41.047863" lon="-6.775745">
        <ele>512.6</ele>
        <time>1970-01-01T02:03:53.000Z</time>
      </trkpt>
      <trkpt lat="41.047859" lon="-6.775725">
        <ele>512.7</ele>
        <time>1970-01-01T02:03:54.000Z</time>
      </trkpt>
      <trkpt lat="41.047855" lon="-6.775705">
        <ele>512.8</ele>
        <time>1970-01-01T02:03:55.000Z</time>
      </trkpt>
      <trkpt lat="41.04785" lon="-6.775685">
        <ele>512.9</ele>
        <time>1970-01-01T02:03:56.000Z</time>
      </trkpt>
      <trkpt lat="41.047844" lon="-6.775665">
        <ele>513</ele>
        <time>1970-01-01T02:03:57.000Z</time>
      </trkpt>
      <trkpt lat="41.047838" lon="-6.775644">
        <ele>513.1</ele>
        <time>1970-01-01T02:03:58.000Z</time>
      </trkpt>
      <trkpt lat="41.047832" lon="-6.775624">
        <ele>513.2</ele>
        <time>1970-01-01T02:03:59.000Z</time>
      </trkpt>
      <trkpt lat="41.047826" lon="-6.775604">
        <ele>513.3</ele>
        <time>1970-01-01T02:04:00.000Z</time>
      </trkpt>
      <trkpt lat="41.047821" lon="-6.775585">
        <ele>513.4</ele>
        <time>1970-01-01T02:04:01.000Z</time>
      </trkpt>
      <trkpt lat="41.047815" lon="-6.775565">
        <ele>513.4</ele>
        <time>1970-01-01T02:04:02.000Z</time>
      </trkpt>
      <trkpt lat="41.04781" lon="-6.775545">
        <ele>513.5</ele>
        <time>1970-01-01T02:04:03.000Z</time>
      </trkpt>
      <trkpt lat="41.047803" lon="-6.775526">
        <ele>513.6</ele>
        <time>1970-01-01T02:04:04.000Z</time>
      </trkpt>
      <trkpt lat="41.047797" lon="-6.775506">
        <ele>513.7</ele>
        <time>1970-01-01T02:04:05.000Z</time>
      </trkpt>
      <trkpt lat="41.047792" lon="-6.775486">
        <ele>513.8</ele>
        <time>1970-01-01T02:04:06.000Z</time>
      </trkpt>
      <trkpt lat="41.047785" lon="-6.775466">
        <ele>513.9</ele>
        <time>1970-01-01T02:04:07.000Z</time>
      </trkpt>
      <trkpt lat="41.047779" lon="-6.775445">
        <ele>514</ele>
        <time>1970-01-01T02:04:08.000Z</time>
      </trkpt>
      <trkpt lat="41.047773" lon="-6.775424">
        <ele>514.1</ele>
        <time>1970-01-01T02:04:09.000Z</time>
      </trkpt>
      <trkpt lat="41.047768" lon="-6.775404">
        <ele>514.2</ele>
        <time>1970-01-01T02:04:10.000Z</time>
      </trkpt>
      <trkpt lat="41.047764" lon="-6.775383">
        <ele>514.3</ele>
        <time>1970-01-01T02:04:11.000Z</time>
      </trkpt>
      <trkpt lat="41.04776" lon="-6.775362">
        <ele>514.4</ele>
        <time>1970-01-01T02:04:12.000Z</time>
      </trkpt>
      <trkpt lat="41.047755" lon="-6.775342">
        <ele>514.5</ele>
        <time>1970-01-01T02:04:13.000Z</time>
      </trkpt>
      <trkpt lat="41.047749" lon="-6.775323">
        <ele>514.5</ele>
        <time>1970-01-01T02:04:14.000Z</time>
      </trkpt>
      <trkpt lat="41.047742" lon="-6.775305">
        <ele>514.6</ele>
        <time>1970-01-01T02:04:15.000Z</time>
      </trkpt>
      <trkpt lat="41.047735" lon="-6.775286">
        <ele>514.7</ele>
        <time>1970-01-01T02:04:16.000Z</time>
      </trkpt>
      <trkpt lat="41.047728" lon="-6.775267">
        <ele>514.8</ele>
        <time>1970-01-01T02:04:17.000Z</time>
      </trkpt>
      <trkpt lat="41.047721" lon="-6.775248">
        <ele>514.9</ele>
        <time>1970-01-01T02:04:18.000Z</time>
      </trkpt>
      <trkpt lat="41.047714" lon="-6.775229">
        <ele>515</ele>
        <time>1970-01-01T02:04:19.000Z</time>
      </trkpt>
      <trkpt lat="41.047706" lon="-6.775208">
        <ele>515.1</ele>
        <time>1970-01-01T02:04:20.000Z</time>
      </trkpt>
      <trkpt lat="41.047698" lon="-6.775187">
        <ele>515.2</ele>
        <time>1970-01-01T02:04:21.000Z</time>
      </trkpt>
      <trkpt lat="41.04769" lon="-6.775165">
        <ele>515.3</ele>
        <time>1970-01-01T02:04:22.000Z</time>
      </trkpt>
      <trkpt lat="41.047683" lon="-6.775144">
        <ele>515.4</ele>
        <time>1970-01-01T02:04:23.000Z</time>
      </trkpt>
      <trkpt lat="41.047676" lon="-6.775124">
        <ele>515.5</ele>
        <time>1970-01-01T02:04:24.000Z</time>
      </trkpt>
      <trkpt lat="41.047669" lon="-6.775104">
        <ele>515.6</ele>
        <time>1970-01-01T02:04:25.000Z</time>
      </trkpt>
      <trkpt lat="41.047662" lon="-6.775083">
        <ele>515.7</ele>
        <time>1970-01-01T02:04:26.000Z</time>
      </trkpt>
      <trkpt lat="41.047656" lon="-6.775062">
        <ele>515.8</ele>
        <time>1970-01-01T02:04:27.000Z</time>
      </trkpt>
      <trkpt lat="41.047649" lon="-6.775041">
        <ele>515.9</ele>
        <time>1970-01-01T02:04:28.000Z</time>
      </trkpt>
      <trkpt lat="41.047641" lon="-6.77502">
        <ele>516</ele>
        <time>1970-01-01T02:04:29.000Z</time>
      </trkpt>
      <trkpt lat="41.047633" lon="-6.774999">
        <ele>516.1</ele>
        <time>1970-01-01T02:04:30.000Z</time>
      </trkpt>
      <trkpt lat="41.047625" lon="-6.774977">
        <ele>516.2</ele>
        <time>1970-01-01T02:04:31.000Z</time>
      </trkpt>
      <trkpt lat="41.047619" lon="-6.774955">
        <ele>516.3</ele>
        <time>1970-01-01T02:04:32.000Z</time>
      </trkpt>
      <trkpt lat="41.047613" lon="-6.774933">
        <ele>516.4</ele>
        <time>1970-01-01T02:04:33.000Z</time>
      </trkpt>
      <trkpt lat="41.047607" lon="-6.774913">
        <ele>516.5</ele>
        <time>1970-01-01T02:04:34.000Z</time>
      </trkpt>
      <trkpt lat="41.0476" lon="-6.774893">
        <ele>516.6</ele>
        <time>1970-01-01T02:04:35.000Z</time>
      </trkpt>
      <trkpt lat="41.047593" lon="-6.774873">
        <ele>516.7</ele>
        <time>1970-01-01T02:04:36.000Z</time>
      </trkpt>
      <trkpt lat="41.047585" lon="-6.774851">
        <ele>516.8</ele>
        <time>1970-01-01T02:04:37.000Z</time>
      </trkpt>
      <trkpt lat="41.047576" lon="-6.774829">
        <ele>516.9</ele>
        <time>1970-01-01T02:04:38.000Z</time>
      </trkpt>
      <trkpt lat="41.047568" lon="-6.774807">
        <ele>517</ele>
        <time>1970-01-01T02:04:39.000Z</time>
      </trkpt>
      <trkpt lat="41.04756" lon="-6.774785">
        <ele>517.1</ele>
        <time>1970-01-01T02:04:40.000Z</time>
      </trkpt>
      <trkpt lat="41.047553" lon="-6.774764">
        <ele>517.2</ele>
        <time>1970-01-01T02:04:41.000Z</time>
      </trkpt>
      <trkpt lat="41.047546" lon="-6.774742">
        <ele>517.3</ele>
        <time>1970-01-01T02:04:42.000Z</time>
      </trkpt>
      <trkpt lat="41.047541" lon="-6.774719">
        <ele>517.4</ele>
        <time>1970-01-01T02:04:43.000Z</time>
      </trkpt>
      <trkpt lat="41.047537" lon="-6.774694">
        <ele>517.5</ele>
        <time>1970-01-01T02:04:44.000Z</time>
      </trkpt>
      <trkpt lat="41.047536" lon="-6.774669">
        <ele>517.6</ele>
        <time>1970-01-01T02:04:45.000Z</time>
      </trkpt>
      <trkpt lat="41.047539" lon="-6.774645">
        <ele>517.7</ele>
        <time>1970-01-01T02:04:46.000Z</time>
      </trkpt>
      <trkpt lat="41.047547" lon="-6.774625">
        <ele>517.8</ele>
        <time>1970-01-01T02:04:47.000Z</time>
      </trkpt>
      <trkpt lat="41.047558" lon="-6.774606">
        <ele>517.9</ele>
        <time>1970-01-01T02:04:48.000Z</time>
      </trkpt>
      <trkpt lat="41.04757" lon="-6.774588">
        <ele>518</ele>
        <time>1970-01-01T02:04:49.000Z</time>
      </trkpt>
      <trkpt lat="41.047583" lon="-6.77457">
        <ele>518.1</ele>
        <time>1970-01-01T02:04:50.000Z</time>
      </trkpt>
      <trkpt lat="41.047597" lon="-6.774555">
        <ele>518.2</ele>
        <time>1970-01-01T02:04:51.000Z</time>
      </trkpt>
      <trkpt lat="41.047613" lon="-6.774543">
        <ele>518.3</ele>
        <time>1970-01-01T02:04:52.000Z</time>
      </trkpt>
      <trkpt lat="41.047629" lon="-6.774535">
        <ele>518.4</ele>
        <time>1970-01-01T02:04:53.000Z</time>
      </trkpt>
      <trkpt lat="41.047646" lon="-6.774528">
        <ele>518.5</ele>
        <time>1970-01-01T02:04:54.000Z</time>
      </trkpt>
      <trkpt lat="41.047662" lon="-6.774522">
        <ele>518.6</ele>
        <time>1970-01-01T02:04:55.000Z</time>
      </trkpt>
      <trkpt lat="41.047679" lon="-6.774516">
        <ele>518.7</ele>
        <time>1970-01-01T02:04:56.000Z</time>
      </trkpt>
      <trkpt lat="41.047696" lon="-6.77451">
        <ele>518.8</ele>
        <time>1970-01-01T02:04:57.000Z</time>
      </trkpt>
      <trkpt lat="41.047714" lon="-6.774504">
        <ele>518.9</ele>
        <time>1970-01-01T02:04:58.000Z</time>
      </trkpt>
      <trkpt lat="41.047731" lon="-6.774498">
        <ele>519</ele>
        <time>1970-01-01T02:04:59.000Z</time>
      </trkpt>
      <trkpt lat="41.047748" lon="-6.774491">
        <ele>519.1</ele>
        <time>1970-01-01T02:05:00.000Z</time>
      </trkpt>
      <trkpt lat="41.047766" lon="-6.774485">
        <ele>519.2</ele>
        <time>1970-01-01T02:05:01.000Z</time>
      </trkpt>
      <trkpt lat="41.047784" lon="-6.774478">
        <ele>519.3</ele>
        <time>1970-01-01T02:05:02.000Z</time>
      </trkpt>
      <trkpt lat="41.047802" lon="-6.774473">
        <ele>519.4</ele>
        <time>1970-01-01T02:05:03.000Z</time>
      </trkpt>
      <trkpt lat="41.047819" lon="-6.774468">
        <ele>519.5</ele>
        <time>1970-01-01T02:05:04.000Z</time>
      </trkpt>
      <trkpt lat="41.047837" lon="-6.774461">
        <ele>519.6</ele>
        <time>1970-01-01T02:05:05.000Z</time>
      </trkpt>
      <trkpt lat="41.047853" lon="-6.774453">
        <ele>519.7</ele>
        <time>1970-01-01T02:05:06.000Z</time>
      </trkpt>
      <trkpt lat="41.04787" lon="-6.774446">
        <ele>519.8</ele>
        <time>1970-01-01T02:05:07.000Z</time>
      </trkpt>
      <trkpt lat="41.047888" lon="-6.774439">
        <ele>519.9</ele>
        <time>1970-01-01T02:05:08.000Z</time>
      </trkpt>
      <trkpt lat="41.047905" lon="-6.774432">
        <ele>520</ele>
        <time>1970-01-01T02:05:09.000Z</time>
      </trkpt>
      <trkpt lat="41.047921" lon="-6.774425">
        <ele>520.1</ele>
        <time>1970-01-01T02:05:10.000Z</time>
      </trkpt>
      <trkpt lat="41.047937" lon="-6.774417">
        <ele>520.2</ele>
        <time>1970-01-01T02:05:11.000Z</time>
      </trkpt>
      <trkpt lat="41.047952" lon="-6.774406">
        <ele>520.3</ele>
        <time>1970-01-01T02:05:12.000Z</time>
      </trkpt>
      <trkpt lat="41.047967" lon="-6.774396">
        <ele>520.4</ele>
        <time>1970-01-01T02:05:13.000Z</time>
      </trkpt>
      <trkpt lat="41.047982" lon="-6.774385">
        <ele>520.5</ele>
        <time>1970-01-01T02:05:14.000Z</time>
      </trkpt>
      <trkpt lat="41.047998" lon="-6.774375">
        <ele>520.6</ele>
        <time>1970-01-01T02:05:15.000Z</time>
      </trkpt>
      <trkpt lat="41.048014" lon="-6.774364">
        <ele>520.7</ele>
        <time>1970-01-01T02:05:16.000Z</time>
      </trkpt>
      <trkpt lat="41.04803" lon="-6.774352">
        <ele>520.8</ele>
        <time>1970-01-01T02:05:17.000Z</time>
      </trkpt>
      <trkpt lat="41.048046" lon="-6.77434">
        <ele>520.9</ele>
        <time>1970-01-01T02:05:18.000Z</time>
      </trkpt>
      <trkpt lat="41.048062" lon="-6.774327">
        <ele>521</ele>
        <time>1970-01-01T02:05:19.000Z</time>
      </trkpt>
      <trkpt lat="41.048077" lon="-6.774312">
        <ele>521.1</ele>
        <time>1970-01-01T02:05:20.000Z</time>
      </trkpt>
      <trkpt lat="41.048091" lon="-6.774295">
        <ele>521.2</ele>
        <time>1970-01-01T02:05:21.000Z</time>
      </trkpt>
      <trkpt lat="41.048104" lon="-6.774276">
        <ele>521.4</ele>
        <time>1970-01-01T02:05:22.000Z</time>
      </trkpt>
      <trkpt lat="41.048115" lon="-6.774257">
        <ele>521.5</ele>
        <time>1970-01-01T02:05:23.000Z</time>
      </trkpt>
      <trkpt lat="41.048125" lon="-6.774236">
        <ele>521.6</ele>
        <time>1970-01-01T02:05:24.000Z</time>
      </trkpt>
      <trkpt lat="41.048134" lon="-6.774216">
        <ele>521.7</ele>
        <time>1970-01-01T02:05:25.000Z</time>
      </trkpt>
      <trkpt lat="41.048143" lon="-6.774194">
        <ele>521.8</ele>
        <time>1970-01-01T02:05:26.000Z</time>
      </trkpt>
      <trkpt lat="41.048149" lon="-6.774173">
        <ele>521.9</ele>
        <time>1970-01-01T02:05:27.000Z</time>
      </trkpt>
      <trkpt lat="41.048153" lon="-6.77415">
        <ele>522</ele>
        <time>1970-01-01T02:05:28.000Z</time>
      </trkpt>
      <trkpt lat="41.048157" lon="-6.774126">
        <ele>522.1</ele>
        <time>1970-01-01T02:05:29.000Z</time>
      </trkpt>
      <trkpt lat="41.048161" lon="-6.7741">
        <ele>522.2</ele>
        <time>1970-01-01T02:05:30.000Z</time>
      </trkpt>
      <trkpt lat="41.048163" lon="-6.774073">
        <ele>522.3</ele>
        <time>1970-01-01T02:05:31.000Z</time>
      </trkpt>
      <trkpt lat="41.048163" lon="-6.774048">
        <ele>522.4</ele>
        <time>1970-01-01T02:05:32.000Z</time>
      </trkpt>
      <trkpt lat="41.048163" lon="-6.774023">
        <ele>522.5</ele>
        <time>1970-01-01T02:05:33.000Z</time>
      </trkpt>
      <trkpt lat="41.048162" lon="-6.773999">
        <ele>522.6</ele>
        <time>1970-01-01T02:05:34.000Z</time>
      </trkpt>
      <trkpt lat="41.04816" lon="-6.773975">
        <ele>522.7</ele>
        <time>1970-01-01T02:05:35.000Z</time>
      </trkpt>
      <trkpt lat="41.048158" lon="-6.773952">
        <ele>522.8</ele>
        <time>1970-01-01T02:05:36.000Z</time>
      </trkpt>
      <trkpt lat="41.048156" lon="-6.773929">
        <ele>522.9</ele>
        <time>1970-01-01T02:05:37.000Z</time>
      </trkpt>
      <trkpt lat="41.048153" lon="-6.773906">
        <ele>523</ele>
        <time>1970-01-01T02:05:38.000Z</time>
      </trkpt>
      <trkpt lat="41.048151" lon="-6.773883">
        <ele>523.1</ele>
        <time>1970-01-01T02:05:39.000Z</time>
      </trkpt>
      <trkpt lat="41.048149" lon="-6.773859">
        <ele>523.2</ele>
        <time>1970-01-01T02:05:40.000Z</time>
      </trkpt>
      <trkpt lat="41.048147" lon="-6.773834">
        <ele>523.3</ele>
        <time>1970-01-01T02:05:41.000Z</time>
      </trkpt>
      <trkpt lat="41.048145" lon="-6.773809">
        <ele>523.4</ele>
        <time>1970-01-01T02:05:42.000Z</time>
      </trkpt>
      <trkpt lat="41.048143" lon="-6.773784">
        <ele>523.5</ele>
        <time>1970-01-01T02:05:43.000Z</time>
      </trkpt>
      <trkpt lat="41.048141" lon="-6.773758">
        <ele>523.7</ele>
        <time>1970-01-01T02:05:44.000Z</time>
      </trkpt>
      <trkpt lat="41.048139" lon="-6.773733">
        <ele>523.8</ele>
        <time>1970-01-01T02:05:45.000Z</time>
      </trkpt>
      <trkpt lat="41.048136" lon="-6.773707">
        <ele>523.9</ele>
        <time>1970-01-01T02:05:46.000Z</time>
      </trkpt>
      <trkpt lat="41.048133" lon="-6.773682">
        <ele>524</ele>
        <time>1970-01-01T02:05:47.000Z</time>
      </trkpt>
      <trkpt lat="41.048131" lon="-6.773657">
        <ele>524.1</ele>
        <time>1970-01-01T02:05:48.000Z</time>
      </trkpt>
      <trkpt lat="41.048129" lon="-6.77363">
        <ele>524.2</ele>
        <time>1970-01-01T02:05:49.000Z</time>
      </trkpt>
      <trkpt lat="41.048127" lon="-6.773603">
        <ele>524.3</ele>
        <time>1970-01-01T02:05:50.000Z</time>
      </trkpt>
      <trkpt lat="41.048125" lon="-6.773575">
        <ele>524.4</ele>
        <time>1970-01-01T02:05:51.000Z</time>
      </trkpt>
      <trkpt lat="41.048121" lon="-6.773547">
        <ele>524.6</ele>
        <time>1970-01-01T02:05:52.000Z</time>
      </trkpt>
      <trkpt lat="41.048117" lon="-6.773518">
        <ele>524.7</ele>
        <time>1970-01-01T02:05:53.000Z</time>
      </trkpt>
      <trkpt lat="41.048113" lon="-6.773488">
        <ele>524.8</ele>
        <time>1970-01-01T02:05:54.000Z</time>
      </trkpt>
      <trkpt lat="41.048109" lon="-6.773459">
        <ele>524.9</ele>
        <time>1970-01-01T02:05:55.000Z</time>
      </trkpt>
      <trkpt lat="41.048106" lon="-6.773429">
        <ele>525.1</ele>
        <time>1970-01-01T02:05:56.000Z</time>
      </trkpt>
      <trkpt lat="41.048102" lon="-6.773399">
        <ele>525.2</ele>
        <time>1970-01-01T02:05:57.000Z</time>
      </trkpt>
      <trkpt lat="41.048098" lon="-6.77337">
        <ele>525.3</ele>
        <time>1970-01-01T02:05:58.000Z</time>
      </trkpt>
      <trkpt lat="41.048094" lon="-6.773341">
        <ele>525.5</ele>
        <time>1970-01-01T02:05:59.000Z</time>
      </trkpt>
      <trkpt lat="41.048089" lon="-6.773312">
        <ele>525.6</ele>
        <time>1970-01-01T02:06:00.000Z</time>
      </trkpt>
      <trkpt lat="41.048086" lon="-6.773283">
        <ele>525.7</ele>
        <time>1970-01-01T02:06:01.000Z</time>
      </trkpt>
      <trkpt lat="41.048082" lon="-6.773254">
        <ele>525.8</ele>
        <time>1970-01-01T02:06:02.000Z</time>
      </trkpt>
      <trkpt lat="41.048077" lon="-6.773225">
        <ele>526</ele>
        <time>1970-01-01T02:06:03.000Z</time>
      </trkpt>
      <trkpt lat="41.048073" lon="-6.773196">
        <ele>526.1</ele>
        <time>1970-01-01T02:06:04.000Z</time>
      </trkpt>
      <trkpt lat="41.04807" lon="-6.773166">
        <ele>526.2</ele>
        <time>1970-01-01T02:06:05.000Z</time>
      </trkpt>
      <trkpt lat="41.048067" lon="-6.773137">
        <ele>526.3</ele>
        <time>1970-01-01T02:06:06.000Z</time>
      </trkpt>
      <trkpt lat="41.048064" lon="-6.773109">
        <ele>526.5</ele>
        <time>1970-01-01T02:06:07.000Z</time>
      </trkpt>
      <trkpt lat="41.04806" lon="-6.773081">
        <ele>526.6</ele>
        <time>1970-01-01T02:06:08.000Z</time>
      </trkpt>
      <trkpt lat="41.048055" lon="-6.773054">
        <ele>526.7</ele>
        <time>1970-01-01T02:06:09.000Z</time>
      </trkpt>
      <trkpt lat="41.048052" lon="-6.773025">
        <ele>526.8</ele>
        <time>1970-01-01T02:06:10.000Z</time>
      </trkpt>
      <trkpt lat="41.048049" lon="-6.772997">
        <ele>526.9</ele>
        <time>1970-01-01T02:06:11.000Z</time>
      </trkpt>
      <trkpt lat="41.048045" lon="-6.772969">
        <ele>527.1</ele>
        <time>1970-01-01T02:06:12.000Z</time>
      </trkpt>
      <trkpt lat="41.048041" lon="-6.772942">
        <ele>527.2</ele>
        <time>1970-01-01T02:06:13.000Z</time>
      </trkpt>
      <trkpt lat="41.048037" lon="-6.772915">
        <ele>527.3</ele>
        <time>1970-01-01T02:06:14.000Z</time>
      </trkpt>
      <trkpt lat="41.048033" lon="-6.772889">
        <ele>527.4</ele>
        <time>1970-01-01T02:06:15.000Z</time>
      </trkpt>
      <trkpt lat="41.04803" lon="-6.772864">
        <ele>527.5</ele>
        <time>1970-01-01T02:06:16.000Z</time>
      </trkpt>
      <trkpt lat="41.048028" lon="-6.772838">
        <ele>527.6</ele>
        <time>1970-01-01T02:06:17.000Z</time>
      </trkpt>
      <trkpt lat="41.048025" lon="-6.772814">
        <ele>527.7</ele>
        <time>1970-01-01T02:06:18.000Z</time>
      </trkpt>
      <trkpt lat="41.048022" lon="-6.772789">
        <ele>527.8</ele>
        <time>1970-01-01T02:06:19.000Z</time>
      </trkpt>
      <trkpt lat="41.048018" lon="-6.772764">
        <ele>528</ele>
        <time>1970-01-01T02:06:20.000Z</time>
      </trkpt>
      <trkpt lat="41.048015" lon="-6.77274">
        <ele>528.1</ele>
        <time>1970-01-01T02:06:21.000Z</time>
      </trkpt>
      <trkpt lat="41.048012" lon="-6.772717">
        <ele>528.2</ele>
        <time>1970-01-01T02:06:22.000Z</time>
      </trkpt>
      <trkpt lat="41.04801" lon="-6.772695">
        <ele>528.3</ele>
        <time>1970-01-01T02:06:23.000Z</time>
      </trkpt>
      <trkpt lat="41.048007" lon="-6.772672">
        <ele>528.4</ele>
        <time>1970-01-01T02:06:24.000Z</time>
      </trkpt>
      <trkpt lat="41.048005" lon="-6.772649">
        <ele>528.5</ele>
        <time>1970-01-01T02:06:25.000Z</time>
      </trkpt>
      <trkpt lat="41.048003" lon="-6.772626">
        <ele>528.6</ele>
        <time>1970-01-01T02:06:26.000Z</time>
      </trkpt>
      <trkpt lat="41.048002" lon="-6.772602">
        <ele>528.7</ele>
        <time>1970-01-01T02:06:27.000Z</time>
      </trkpt>
      <trkpt lat="41.048003" lon="-6.772577">
        <ele>528.8</ele>
        <time>1970-01-01T02:06:28.000Z</time>
      </trkpt>
      <trkpt lat="41.048006" lon="-6.772552">
        <ele>528.9</ele>
        <time>1970-01-01T02:06:29.000Z</time>
      </trkpt>
      <trkpt lat="41.048008" lon="-6.772527">
        <ele>529</ele>
        <time>1970-01-01T02:06:30.000Z</time>
      </trkpt>
      <trkpt lat="41.048011" lon="-6.772503">
        <ele>529.1</ele>
        <time>1970-01-01T02:06:31.000Z</time>
      </trkpt>
      <trkpt lat="41.048015" lon="-6.77248">
        <ele>529.2</ele>
        <time>1970-01-01T02:06:32.000Z</time>
      </trkpt>
      <trkpt lat="41.048021" lon="-6.772458">
        <ele>529.3</ele>
        <time>1970-01-01T02:06:33.000Z</time>
      </trkpt>
      <trkpt lat="41.048027" lon="-6.772436">
        <ele>529.4</ele>
        <time>1970-01-01T02:06:34.000Z</time>
      </trkpt>
      <trkpt lat="41.048034" lon="-6.772415">
        <ele>529.5</ele>
        <time>1970-01-01T02:06:35.000Z</time>
      </trkpt>
      <trkpt lat="41.048042" lon="-6.772392">
        <ele>529.6</ele>
        <time>1970-01-01T02:06:36.000Z</time>
      </trkpt>
      <trkpt lat="41.048048" lon="-6.77237">
        <ele>529.7</ele>
        <time>1970-01-01T02:06:37.000Z</time>
      </trkpt>
      <trkpt lat="41.048055" lon="-6.772346">
        <ele>529.8</ele>
        <time>1970-01-01T02:06:38.000Z</time>
      </trkpt>
      <trkpt lat="41.04806" lon="-6.772322">
        <ele>529.9</ele>
        <time>1970-01-01T02:06:39.000Z</time>
      </trkpt>
      <trkpt lat="41.048066" lon="-6.772298">
        <ele>530</ele>
        <time>1970-01-01T02:06:40.000Z</time>
      </trkpt>
      <trkpt lat="41.048073" lon="-6.772273">
        <ele>530.1</ele>
        <time>1970-01-01T02:06:41.000Z</time>
      </trkpt>
      <trkpt lat="41.04808" lon="-6.772248">
        <ele>530.2</ele>
        <time>1970-01-01T02:06:42.000Z</time>
      </trkpt>
      <trkpt lat="41.048088" lon="-6.772222">
        <ele>530.4</ele>
        <time>1970-01-01T02:06:43.000Z</time>
      </trkpt>
      <trkpt lat="41.048096" lon="-6.772198">
        <ele>530.5</ele>
        <time>1970-01-01T02:06:44.000Z</time>
      </trkpt>
      <trkpt lat="41.048104" lon="-6.772174">
        <ele>530.6</ele>
        <time>1970-01-01T02:06:45.000Z</time>
      </trkpt>
      <trkpt lat="41.048111" lon="-6.772152">
        <ele>530.7</ele>
        <time>1970-01-01T02:06:46.000Z</time>
      </trkpt>
      <trkpt lat="41.048117" lon="-6.77213">
        <ele>530.8</ele>
        <time>1970-01-01T02:06:47.000Z</time>
      </trkpt>
      <trkpt lat="41.048124" lon="-6.772108">
        <ele>530.9</ele>
        <time>1970-01-01T02:06:48.000Z</time>
      </trkpt>
      <trkpt lat="41.048131" lon="-6.772085">
        <ele>531</ele>
        <time>1970-01-01T02:06:49.000Z</time>
      </trkpt>
      <trkpt lat="41.048138" lon="-6.772062">
        <ele>531.1</ele>
        <time>1970-01-01T02:06:50.000Z</time>
      </trkpt>
      <trkpt lat="41.048145" lon="-6.77204">
        <ele>531.2</ele>
        <time>1970-01-01T02:06:51.000Z</time>
      </trkpt>
      <trkpt lat="41.048153" lon="-6.772017">
        <ele>531.3</ele>
        <time>1970-01-01T02:06:52.000Z</time>
      </trkpt>
      <trkpt lat="41.048159" lon="-6.771995">
        <ele>531.4</ele>
        <time>1970-01-01T02:06:53.000Z</time>
      </trkpt>
      <trkpt lat="41.048165" lon="-6.771972">
        <ele>531.5</ele>
        <time>1970-01-01T02:06:54.000Z</time>
      </trkpt>
      <trkpt lat="41.048172" lon="-6.771949">
        <ele>531.6</ele>
        <time>1970-01-01T02:06:55.000Z</time>
      </trkpt>
      <trkpt lat="41.048178" lon="-6.771926">
        <ele>531.7</ele>
        <time>1970-01-01T02:06:56.000Z</time>
      </trkpt>
      <trkpt lat="41.048184" lon="-6.771902">
        <ele>531.8</ele>
        <time>1970-01-01T02:06:57.000Z</time>
      </trkpt>
      <trkpt lat="41.04819" lon="-6.771878">
        <ele>531.9</ele>
        <time>1970-01-01T02:06:58.000Z</time>
      </trkpt>
      <trkpt lat="41.048196" lon="-6.771855">
        <ele>532</ele>
        <time>1970-01-01T02:06:59.000Z</time>
      </trkpt>
      <trkpt lat="41.048203" lon="-6.771832">
        <ele>532.1</ele>
        <time>1970-01-01T02:07:00.000Z</time>
      </trkpt>
      <trkpt lat="41.048209" lon="-6.771809">
        <ele>532.3</ele>
        <time>1970-01-01T02:07:01.000Z</time>
      </trkpt>
      <trkpt lat="41.048215" lon="-6.771785">
        <ele>532.4</ele>
        <time>1970-01-01T02:07:02.000Z</time>
      </trkpt>
      <trkpt lat="41.048221" lon="-6.77176">
        <ele>532.5</ele>
        <time>1970-01-01T02:07:03.000Z</time>
      </trkpt>
      <trkpt lat="41.048228" lon="-6.771736">
        <ele>532.6</ele>
        <time>1970-01-01T02:07:04.000Z</time>
      </trkpt>
      <trkpt lat="41.048234" lon="-6.771714">
        <ele>532.7</ele>
        <time>1970-01-01T02:07:05.000Z</time>
      </trkpt>
      <trkpt lat="41.048241" lon="-6.771692">
        <ele>532.8</ele>
        <time>1970-01-01T02:07:06.000Z</time>
      </trkpt>
      <trkpt lat="41.048247" lon="-6.771669">
        <ele>532.9</ele>
        <time>1970-01-01T02:07:07.000Z</time>
      </trkpt>
      <trkpt lat="41.048252" lon="-6.771647">
        <ele>533</ele>
        <time>1970-01-01T02:07:08.000Z</time>
      </trkpt>
      <trkpt lat="41.048257" lon="-6.771624">
        <ele>533.1</ele>
        <time>1970-01-01T02:07:09.000Z</time>
      </trkpt>
      <trkpt lat="41.048262" lon="-6.771602">
        <ele>533.2</ele>
        <time>1970-01-01T02:07:10.000Z</time>
      </trkpt>
      <trkpt lat="41.048268" lon="-6.771579">
        <ele>533.3</ele>
        <time>1970-01-01T02:07:11.000Z</time>
      </trkpt>
      <trkpt lat="41.048274" lon="-6.771556">
        <ele>533.4</ele>
        <time>1970-01-01T02:07:12.000Z</time>
      </trkpt>
      <trkpt lat="41.04828" lon="-6.771534">
        <ele>533.5</ele>
        <time>1970-01-01T02:07:13.000Z</time>
      </trkpt>
      <trkpt lat="41.048286" lon="-6.771511">
        <ele>533.6</ele>
        <time>1970-01-01T02:07:14.000Z</time>
      </trkpt>
      <trkpt lat="41.048292" lon="-6.771489">
        <ele>533.7</ele>
        <time>1970-01-01T02:07:15.000Z</time>
      </trkpt>
      <trkpt lat="41.048298" lon="-6.771467">
        <ele>533.8</ele>
        <time>1970-01-01T02:07:16.000Z</time>
      </trkpt>
      <trkpt lat="41.048304" lon="-6.771445">
        <ele>533.9</ele>
        <time>1970-01-01T02:07:17.000Z</time>
      </trkpt>
      <trkpt lat="41.04831" lon="-6.771423">
        <ele>534</ele>
        <time>1970-01-01T02:07:18.000Z</time>
      </trkpt>
      <trkpt lat="41.048317" lon="-6.771401">
        <ele>534.1</ele>
        <time>1970-01-01T02:07:19.000Z</time>
      </trkpt>
      <trkpt lat="41.048324" lon="-6.771378">
        <ele>534.2</ele>
        <time>1970-01-01T02:07:20.000Z</time>
      </trkpt>
      <trkpt lat="41.04833" lon="-6.771355">
        <ele>534.3</ele>
        <time>1970-01-01T02:07:21.000Z</time>
      </trkpt>
      <trkpt lat="41.048336" lon="-6.771332">
        <ele>534.4</ele>
        <time>1970-01-01T02:07:22.000Z</time>
      </trkpt>
      <trkpt lat="41.048341" lon="-6.77131">
        <ele>534.5</ele>
        <time>1970-01-01T02:07:23.000Z</time>
      </trkpt>
      <trkpt lat="41.048347" lon="-6.771288">
        <ele>534.6</ele>
        <time>1970-01-01T02:07:24.000Z</time>
      </trkpt>
      <trkpt lat="41.048353" lon="-6.771265">
        <ele>534.7</ele>
        <time>1970-01-01T02:07:25.000Z</time>
      </trkpt>
      <trkpt lat="41.048361" lon="-6.771241">
        <ele>534.8</ele>
        <time>1970-01-01T02:07:26.000Z</time>
      </trkpt>
      <trkpt lat="41.048368" lon="-6.771219">
        <ele>534.9</ele>
        <time>1970-01-01T02:07:27.000Z</time>
      </trkpt>
      <trkpt lat="41.048375" lon="-6.771196">
        <ele>535</ele>
        <time>1970-01-01T02:07:28.000Z</time>
      </trkpt>
      <trkpt lat="41.048381" lon="-6.771174">
        <ele>535.1</ele>
        <time>1970-01-01T02:07:29.000Z</time>
      </trkpt>
      <trkpt lat="41.048388" lon="-6.77115">
        <ele>535.2</ele>
        <time>1970-01-01T02:07:30.000Z</time>
      </trkpt>
      <trkpt lat="41.048394" lon="-6.771127">
        <ele>535.3</ele>
        <time>1970-01-01T02:07:31.000Z</time>
      </trkpt>
      <trkpt lat="41.0484" lon="-6.771102">
        <ele>535.5</ele>
        <time>1970-01-01T02:07:32.000Z</time>
      </trkpt>
      <trkpt lat="41.048406" lon="-6.771077">
        <ele>535.6</ele>
        <time>1970-01-01T02:07:33.000Z</time>
      </trkpt>
      <trkpt lat="41.048412" lon="-6.771052">
        <ele>535.7</ele>
        <time>1970-01-01T02:07:34.000Z</time>
      </trkpt>
      <trkpt lat="41.048417" lon="-6.771027">
        <ele>535.8</ele>
        <time>1970-01-01T02:07:35.000Z</time>
      </trkpt>
      <trkpt lat="41.048423" lon="-6.771002">
        <ele>535.9</ele>
        <time>1970-01-01T02:07:36.000Z</time>
      </trkpt>
      <trkpt lat="41.048428" lon="-6.770976">
        <ele>536</ele>
        <time>1970-01-01T02:07:37.000Z</time>
      </trkpt>
      <trkpt lat="41.048434" lon="-6.77095">
        <ele>536.1</ele>
        <time>1970-01-01T02:07:38.000Z</time>
      </trkpt>
      <trkpt lat="41.048439" lon="-6.770924">
        <ele>536.3</ele>
        <time>1970-01-01T02:07:39.000Z</time>
      </trkpt>
      <trkpt lat="41.048444" lon="-6.770898">
        <ele>536.4</ele>
        <time>1970-01-01T02:07:40.000Z</time>
      </trkpt>
      <trkpt lat="41.04845" lon="-6.770871">
        <ele>536.5</ele>
        <time>1970-01-01T02:07:41.000Z</time>
      </trkpt>
      <trkpt lat="41.048454" lon="-6.770845">
        <ele>536.6</ele>
        <time>1970-01-01T02:07:42.000Z</time>
      </trkpt>
      <trkpt lat="41.048459" lon="-6.770818">
        <ele>536.7</ele>
        <time>1970-01-01T02:07:43.000Z</time>
      </trkpt>
      <trkpt lat="41.048464" lon="-6.770793">
        <ele>536.8</ele>
        <time>1970-01-01T02:07:44.000Z</time>
      </trkpt>
      <trkpt lat="41.048469" lon="-6.770769">
        <ele>536.9</ele>
        <time>1970-01-01T02:07:45.000Z</time>
      </trkpt>
      <trkpt lat="41.048473" lon="-6.770746">
        <ele>537</ele>
        <time>1970-01-01T02:07:46.000Z</time>
      </trkpt>
      <trkpt lat="41.048475" lon="-6.770723">
        <ele>537.1</ele>
        <time>1970-01-01T02:07:47.000Z</time>
      </trkpt>
      <trkpt lat="41.048476" lon="-6.770698">
        <ele>537.2</ele>
        <time>1970-01-01T02:07:48.000Z</time>
      </trkpt>
      <trkpt lat="41.048478" lon="-6.770673">
        <ele>537.4</ele>
        <time>1970-01-01T02:07:49.000Z</time>
      </trkpt>
      <trkpt lat="41.048481" lon="-6.770649">
        <ele>537.5</ele>
        <time>1970-01-01T02:07:50.000Z</time>
      </trkpt>
      <trkpt lat="41.048484" lon="-6.770625">
        <ele>537.5</ele>
        <time>1970-01-01T02:07:51.000Z</time>
      </trkpt>
      <trkpt lat="41.048486" lon="-6.770602">
        <ele>537.6</ele>
        <time>1970-01-01T02:07:52.000Z</time>
      </trkpt>
      <trkpt lat="41.048488" lon="-6.770583">
        <ele>537.7</ele>
        <time>1970-01-01T02:07:53.000Z</time>
      </trkpt>
      <trkpt lat="41.048489" lon="-6.770566">
        <ele>537.8</ele>
        <time>1970-01-01T02:07:54.000Z</time>
      </trkpt>
      <trkpt lat="41.04849" lon="-6.77055">
        <ele>537.8</ele>
        <time>1970-01-01T02:07:55.000Z</time>
      </trkpt>
      <trkpt lat="41.04849" lon="-6.770534">
        <ele>537.9</ele>
        <time>1970-01-01T02:07:56.000Z</time>
      </trkpt>
      <trkpt lat="41.04849" lon="-6.770518">
        <ele>538</ele>
        <time>1970-01-01T02:07:57.000Z</time>
      </trkpt>
      <trkpt lat="41.048491" lon="-6.770502">
        <ele>538.1</ele>
        <time>1970-01-01T02:07:58.000Z</time>
      </trkpt>
      <trkpt lat="41.048493" lon="-6.770485">
        <ele>538.2</ele>
        <time>1970-01-01T02:07:59.000Z</time>
      </trkpt>
      <trkpt lat="41.048495" lon="-6.770469">
        <ele>538.2</ele>
        <time>1970-01-01T02:08:00.000Z</time>
      </trkpt>
      <trkpt lat="41.048496" lon="-6.770452">
        <ele>538.3</ele>
        <time>1970-01-01T02:08:01.000Z</time>
      </trkpt>
      <trkpt lat="41.048497" lon="-6.770434">
        <ele>538.4</ele>
        <time>1970-01-01T02:08:02.000Z</time>
      </trkpt>
      <trkpt lat="41.048498" lon="-6.770415">
        <ele>538.5</ele>
        <time>1970-01-01T02:08:03.000Z</time>
      </trkpt>
      <trkpt lat="41.048499" lon="-6.770398">
        <ele>538.6</ele>
        <time>1970-01-01T02:08:04.000Z</time>
      </trkpt>
      <trkpt lat="41.048499" lon="-6.770383">
        <ele>538.7</ele>
        <time>1970-01-01T02:08:05.000Z</time>
      </trkpt>
      <trkpt lat="41.048498" lon="-6.770372">
        <ele>538.7</ele>
        <time>1970-01-01T02:08:06.000Z</time>
      </trkpt>
      <trkpt lat="41.048497" lon="-6.770367">
        <ele>538.7</ele>
        <time>1970-01-01T02:08:07.000Z</time>
      </trkpt>
      <trkpt lat="41.048496" lon="-6.770367">
        <ele>538.7</ele>
        <time>1970-01-01T02:08:08.000Z</time>
      </trkpt>
      <trkpt lat="41.048495" lon="-6.770369">
        <ele>538.8</ele>
        <time>1970-01-01T02:08:09.000Z</time>
      </trkpt>
      <trkpt lat="41.048495" lon="-6.770369">
        <ele>538.8</ele>
        <time>1970-01-01T02:08:10.000Z</time>
      </trkpt>
      <trkpt lat="41.048494" lon="-6.770368">
        <ele>538.8</ele>
        <time>1970-01-01T02:08:11.000Z</time>
      </trkpt>
      <trkpt lat="41.048494" lon="-6.770367">
        <ele>538.8</ele>
        <time>1970-01-01T02:08:12.000Z</time>
      </trkpt>
      <trkpt lat="41.048493" lon="-6.770366">
        <ele>538.8</ele>
        <time>1970-01-01T02:08:13.000Z</time>
      </trkpt>
      <trkpt lat="41.048503" lon="-6.770348">
        <ele>538.9</ele>
        <time>1970-01-01T02:08:14.000Z</time>
      </trkpt>
      <trkpt lat="41.048504" lon="-6.770334">
        <ele>539</ele>
        <time>1970-01-01T02:08:15.000Z</time>
      </trkpt>
      <trkpt lat="41.048504" lon="-6.770313">
        <ele>539.1</ele>
        <time>1970-01-01T02:12:22.000Z</time>
      </trkpt>
      <trkpt lat="41.048503" lon="-6.770285">
        <ele>539.2</ele>
        <time>1970-01-01T02:12:23.000Z</time>
      </trkpt>
      <trkpt lat="41.048503" lon="-6.770247">
        <ele>539.4</ele>
        <time>1970-01-01T02:12:24.000Z</time>
      </trkpt>
      <trkpt lat="41.0485" lon="-6.770198">
        <ele>539.6</ele>
        <time>1970-01-01T02:12:25.000Z</time>
      </trkpt>
      <trkpt lat="41.048494" lon="-6.770142">
        <ele>539.9</ele>
        <time>1970-01-01T02:12:26.000Z</time>
      </trkpt>
      <trkpt lat="41.048485" lon="-6.770082">
        <ele>540.2</ele>
        <time>1970-01-01T02:12:27.000Z</time>
      </trkpt>
      <trkpt lat="41.048475" lon="-6.770024">
        <ele>540.5</ele>
        <time>1970-01-01T02:12:28.000Z</time>
      </trkpt>
      <trkpt lat="41.048465" lon="-6.769966">
        <ele>540.8</ele>
        <time>1970-01-01T02:12:29.000Z</time>
      </trkpt>
      <trkpt lat="41.048451" lon="-6.769908">
        <ele>541.1</ele>
        <time>1970-01-01T02:12:30.000Z</time>
      </trkpt>
      <trkpt lat="41.048433" lon="-6.769854">
        <ele>541.4</ele>
        <time>1970-01-01T02:12:31.000Z</time>
      </trkpt>
      <trkpt lat="41.048414" lon="-6.769805">
        <ele>541.6</ele>
        <time>1970-01-01T02:12:32.000Z</time>
      </trkpt>
      <trkpt lat="41.048394" lon="-6.769761">
        <ele>541.9</ele>
        <time>1970-01-01T02:12:33.000Z</time>
      </trkpt>
      <trkpt lat="41.048374" lon="-6.769722">
        <ele>542.1</ele>
        <time>1970-01-01T02:12:34.000Z</time>
      </trkpt>
      <trkpt lat="41.048354" lon="-6.769686">
        <ele>542.3</ele>
        <time>1970-01-01T02:12:35.000Z</time>
      </trkpt>
      <trkpt lat="41.048332" lon="-6.769652">
        <ele>542.5</ele>
        <time>1970-01-01T02:12:36.000Z</time>
      </trkpt>
      <trkpt lat="41.048308" lon="-6.769619">
        <ele>542.8</ele>
        <time>1970-01-01T02:12:37.000Z</time>
      </trkpt>
      <trkpt lat="41.048284" lon="-6.769588">
        <ele>543</ele>
        <time>1970-01-01T02:12:38.000Z</time>
      </trkpt>
      <trkpt lat="41.04826" lon="-6.769559">
        <ele>543.2</ele>
        <time>1970-01-01T02:12:39.000Z</time>
      </trkpt>
      <trkpt lat="41.048236" lon="-6.769531">
        <ele>543.4</ele>
        <time>1970-01-01T02:12:40.000Z</time>
      </trkpt>
      <trkpt lat="41.048212" lon="-6.769505">
        <ele>543.6</ele>
        <time>1970-01-01T02:12:41.000Z</time>
      </trkpt>
      <trkpt lat="41.048187" lon="-6.769481">
        <ele>543.8</ele>
        <time>1970-01-01T02:12:42.000Z</time>
      </trkpt>
      <trkpt lat="41.048161" lon="-6.769457">
        <ele>544</ele>
        <time>1970-01-01T02:12:43.000Z</time>
      </trkpt>
      <trkpt lat="41.048134" lon="-6.769433">
        <ele>544.2</ele>
        <time>1970-01-01T02:12:44.000Z</time>
      </trkpt>
      <trkpt lat="41.048107" lon="-6.769409">
        <ele>544.4</ele>
        <time>1970-01-01T02:12:45.000Z</time>
      </trkpt>
      <trkpt lat="41.048079" lon="-6.769385">
        <ele>544.6</ele>
        <time>1970-01-01T02:12:46.000Z</time>
      </trkpt>
      <trkpt lat="41.048052" lon="-6.769361">
        <ele>544.9</ele>
        <time>1970-01-01T02:12:47.000Z</time>
      </trkpt>
      <trkpt lat="41.048026" lon="-6.769337">
        <ele>545.1</ele>
        <time>1970-01-01T02:12:48.000Z</time>
      </trkpt>
      <trkpt lat="41.047999" lon="-6.769314">
        <ele>545.3</ele>
        <time>1970-01-01T02:12:49.000Z</time>
      </trkpt>
      <trkpt lat="41.047972" lon="-6.769292">
        <ele>545.5</ele>
        <time>1970-01-01T02:12:50.000Z</time>
      </trkpt>
      <trkpt lat="41.047945" lon="-6.76927">
        <ele>545.7</ele>
        <time>1970-01-01T02:12:51.000Z</time>
      </trkpt>
      <trkpt lat="41.047918" lon="-6.769249">
        <ele>545.9</ele>
        <time>1970-01-01T02:12:52.000Z</time>
      </trkpt>
      <trkpt lat="41.04789" lon="-6.769229">
        <ele>546.1</ele>
        <time>1970-01-01T02:12:53.000Z</time>
      </trkpt>
      <trkpt lat="41.047861" lon="-6.769211">
        <ele>546.3</ele>
        <time>1970-01-01T02:12:54.000Z</time>
      </trkpt>
      <trkpt lat="41.04783" lon="-6.769192">
        <ele>546.5</ele>
        <time>1970-01-01T02:12:55.000Z</time>
      </trkpt>
      <trkpt lat="41.047799" lon="-6.769175">
        <ele>546.7</ele>
        <time>1970-01-01T02:12:56.000Z</time>
      </trkpt>
      <trkpt lat="41.047765" lon="-6.769158">
        <ele>547</ele>
        <time>1970-01-01T02:12:57.000Z</time>
      </trkpt>
      <trkpt lat="41.047731" lon="-6.769143">
        <ele>547.2</ele>
        <time>1970-01-01T02:12:58.000Z</time>
      </trkpt>
      <trkpt lat="41.047696" lon="-6.76913">
        <ele>547.4</ele>
        <time>1970-01-01T02:12:59.000Z</time>
      </trkpt>
      <trkpt lat="41.047659" lon="-6.76912">
        <ele>547.7</ele>
        <time>1970-01-01T02:13:00.000Z</time>
      </trkpt>
      <trkpt lat="41.047623" lon="-6.769111">
        <ele>547.9</ele>
        <time>1970-01-01T02:13:01.000Z</time>
      </trkpt>
      <trkpt lat="41.047586" lon="-6.769104">
        <ele>548.1</ele>
        <time>1970-01-01T02:13:02.000Z</time>
      </trkpt>
      <trkpt lat="41.047548" lon="-6.769098">
        <ele>548.4</ele>
        <time>1970-01-01T02:13:03.000Z</time>
      </trkpt>
      <trkpt lat="41.04751" lon="-6.76909">
        <ele>548.6</ele>
        <time>1970-01-01T02:13:04.000Z</time>
      </trkpt>
      <trkpt lat="41.047471" lon="-6.769081">
        <ele>548.9</ele>
        <time>1970-01-01T02:13:05.000Z</time>
      </trkpt>
      <trkpt lat="41.047433" lon="-6.76907">
        <ele>549.2</ele>
        <time>1970-01-01T02:13:06.000Z</time>
      </trkpt>
      <trkpt lat="41.047394" lon="-6.76906">
        <ele>549.4</ele>
        <time>1970-01-01T02:13:07.000Z</time>
      </trkpt>
      <trkpt lat="41.047356" lon="-6.769051">
        <ele>549.7</ele>
        <time>1970-01-01T02:13:08.000Z</time>
      </trkpt>
      <trkpt lat="41.047317" lon="-6.769036">
        <ele>549.9</ele>
        <time>1970-01-01T02:13:09.000Z</time>
      </trkpt>
      <trkpt lat="41.047271" lon="-6.769008">
        <ele>550.2</ele>
        <time>1970-01-01T02:13:10.000Z</time>
      </trkpt>
      <trkpt lat="41.047224" lon="-6.768973">
        <ele>550.6</ele>
        <time>1970-01-01T02:13:11.000Z</time>
      </trkpt>
      <trkpt lat="41.047178" lon="-6.768937">
        <ele>550.9</ele>
        <time>1970-01-01T02:13:12.000Z</time>
      </trkpt>
      <trkpt lat="41.047138" lon="-6.768908">
        <ele>551.2</ele>
        <time>1970-01-01T02:13:13.000Z</time>
      </trkpt>
      <trkpt lat="41.047098" lon="-6.768879">
        <ele>551.5</ele>
        <time>1970-01-01T02:13:14.000Z</time>
      </trkpt>
      <trkpt lat="41.047058" lon="-6.76885">
        <ele>551.8</ele>
        <time>1970-01-01T02:13:15.000Z</time>
      </trkpt>
      <trkpt lat="41.047019" lon="-6.768825">
        <ele>552.1</ele>
        <time>1970-01-01T02:13:16.000Z</time>
      </trkpt>
      <trkpt lat="41.046981" lon="-6.768803">
        <ele>552.4</ele>
        <time>1970-01-01T02:13:17.000Z</time>
      </trkpt>
      <trkpt lat="41.046942" lon="-6.768784">
        <ele>552.6</ele>
        <time>1970-01-01T02:13:18.000Z</time>
      </trkpt>
      <trkpt lat="41.046903" lon="-6.768764">
        <ele>552.9</ele>
        <time>1970-01-01T02:13:19.000Z</time>
      </trkpt>
      <trkpt lat="41.046864" lon="-6.768745">
        <ele>553.2</ele>
        <time>1970-01-01T02:13:20.000Z</time>
      </trkpt>
      <trkpt lat="41.046827" lon="-6.768724">
        <ele>553.4</ele>
        <time>1970-01-01T02:13:21.000Z</time>
      </trkpt>
      <trkpt lat="41.046793" lon="-6.768702">
        <ele>553.7</ele>
        <time>1970-01-01T02:13:22.000Z</time>
      </trkpt>
      <trkpt lat="41.04676" lon="-6.76868">
        <ele>553.9</ele>
        <time>1970-01-01T02:13:23.000Z</time>
      </trkpt>
      <trkpt lat="41.046727" lon="-6.768657">
        <ele>554.2</ele>
        <time>1970-01-01T02:13:24.000Z</time>
      </trkpt>
      <trkpt lat="41.046694" lon="-6.768634">
        <ele>554.4</ele>
        <time>1970-01-01T02:13:25.000Z</time>
      </trkpt>
      <trkpt lat="41.046661" lon="-6.76861">
        <ele>554.6</ele>
        <time>1970-01-01T02:13:26.000Z</time>
      </trkpt>
      <trkpt lat="41.046629" lon="-6.768587">
        <ele>554.9</ele>
        <time>1970-01-01T02:13:27.000Z</time>
      </trkpt>
      <trkpt lat="41.046597" lon="-6.768563">
        <ele>555.1</ele>
        <time>1970-01-01T02:13:28.000Z</time>
      </trkpt>
      <trkpt lat="41.046566" lon="-6.768539">
        <ele>555.4</ele>
        <time>1970-01-01T02:13:29.000Z</time>
      </trkpt>
      <trkpt lat="41.046537" lon="-6.768515">
        <ele>555.6</ele>
        <time>1970-01-01T02:13:30.000Z</time>
      </trkpt>
      <trkpt lat="41.046507" lon="-6.76849">
        <ele>555.8</ele>
        <time>1970-01-01T02:13:31.000Z</time>
      </trkpt>
      <trkpt lat="41.046478" lon="-6.768462">
        <ele>556</ele>
        <time>1970-01-01T02:13:32.000Z</time>
      </trkpt>
      <trkpt lat="41.046452" lon="-6.768432">
        <ele>556.3</ele>
        <time>1970-01-01T02:13:33.000Z</time>
      </trkpt>
      <trkpt lat="41.046428" lon="-6.768398">
        <ele>556.5</ele>
        <time>1970-01-01T02:13:34.000Z</time>
      </trkpt>
      <trkpt lat="41.046406" lon="-6.768362">
        <ele>556.7</ele>
        <time>1970-01-01T02:13:35.000Z</time>
      </trkpt>
      <trkpt lat="41.046388" lon="-6.768324">
        <ele>556.9</ele>
        <time>1970-01-01T02:13:36.000Z</time>
      </trkpt>
      <trkpt lat="41.046374" lon="-6.768284">
        <ele>557.1</ele>
        <time>1970-01-01T02:13:37.000Z</time>
      </trkpt>
      <trkpt lat="41.046363" lon="-6.768243">
        <ele>557.4</ele>
        <time>1970-01-01T02:13:38.000Z</time>
      </trkpt>
      <trkpt lat="41.046355" lon="-6.768201">
        <ele>557.6</ele>
        <time>1970-01-01T02:13:39.000Z</time>
      </trkpt>
      <trkpt lat="41.046352" lon="-6.768156">
        <ele>557.8</ele>
        <time>1970-01-01T02:13:40.000Z</time>
      </trkpt>
      <trkpt lat="41.046352" lon="-6.768109">
        <ele>558</ele>
        <time>1970-01-01T02:13:41.000Z</time>
      </trkpt>
      <trkpt lat="41.046355" lon="-6.768062">
        <ele>558.2</ele>
        <time>1970-01-01T02:13:42.000Z</time>
      </trkpt>
      <trkpt lat="41.046356" lon="-6.768014">
        <ele>558.5</ele>
        <time>1970-01-01T02:13:43.000Z</time>
      </trkpt>
      <trkpt lat="41.046355" lon="-6.767967">
        <ele>558.7</ele>
        <time>1970-01-01T02:13:44.000Z</time>
      </trkpt>
      <trkpt lat="41.046354" lon="-6.767922">
        <ele>558.9</ele>
        <time>1970-01-01T02:13:45.000Z</time>
      </trkpt>
      <trkpt lat="41.046351" lon="-6.767881">
        <ele>559.1</ele>
        <time>1970-01-01T02:13:46.000Z</time>
      </trkpt>
      <trkpt lat="41.046346" lon="-6.76784">
        <ele>559.3</ele>
        <time>1970-01-01T02:13:47.000Z</time>
      </trkpt>
      <trkpt lat="41.046339" lon="-6.767802">
        <ele>559.5</ele>
        <time>1970-01-01T02:13:48.000Z</time>
      </trkpt>
      <trkpt lat="41.046332" lon="-6.767766">
        <ele>559.7</ele>
        <time>1970-01-01T02:13:49.000Z</time>
      </trkpt>
      <trkpt lat="41.046324" lon="-6.767731">
        <ele>559.9</ele>
        <time>1970-01-01T02:13:50.000Z</time>
      </trkpt>
      <trkpt lat="41.046315" lon="-6.767696">
        <ele>560.1</ele>
        <time>1970-01-01T02:13:51.000Z</time>
      </trkpt>
      <trkpt lat="41.046306" lon="-6.767661">
        <ele>560.2</ele>
        <time>1970-01-01T02:13:52.000Z</time>
      </trkpt>
      <trkpt lat="41.046297" lon="-6.767625">
        <ele>560.4</ele>
        <time>1970-01-01T02:13:53.000Z</time>
      </trkpt>
      <trkpt lat="41.046288" lon="-6.767589">
        <ele>560.6</ele>
        <time>1970-01-01T02:13:54.000Z</time>
      </trkpt>
      <trkpt lat="41.046278" lon="-6.767553">
        <ele>560.8</ele>
        <time>1970-01-01T02:13:55.000Z</time>
      </trkpt>
      <trkpt lat="41.046268" lon="-6.767517">
        <ele>561</ele>
        <time>1970-01-01T02:13:56.000Z</time>
      </trkpt>
      <trkpt lat="41.046258" lon="-6.767482">
        <ele>561.2</ele>
        <time>1970-01-01T02:13:57.000Z</time>
      </trkpt>
      <trkpt lat="41.046248" lon="-6.767447">
        <ele>561.3</ele>
        <time>1970-01-01T02:13:58.000Z</time>
      </trkpt>
      <trkpt lat="41.046237" lon="-6.767412">
        <ele>561.5</ele>
        <time>1970-01-01T02:13:59.000Z</time>
      </trkpt>
      <trkpt lat="41.046227" lon="-6.767377">
        <ele>561.7</ele>
        <time>1970-01-01T02:14:00.000Z</time>
      </trkpt>
      <trkpt lat="41.046219" lon="-6.767341">
        <ele>561.9</ele>
        <time>1970-01-01T02:14:01.000Z</time>
      </trkpt>
      <trkpt lat="41.046211" lon="-6.767304">
        <ele>562.1</ele>
        <time>1970-01-01T02:14:02.000Z</time>
      </trkpt>
      <trkpt lat="41.046203" lon="-6.767268">
        <ele>562.3</ele>
        <time>1970-01-01T02:14:03.000Z</time>
      </trkpt>
      <trkpt lat="41.046197" lon="-6.767232">
        <ele>562.4</ele>
        <time>1970-01-01T02:14:04.000Z</time>
      </trkpt>
      <trkpt lat="41.046192" lon="-6.767195">
        <ele>562.6</ele>
        <time>1970-01-01T02:14:05.000Z</time>
      </trkpt>
      <trkpt lat="41.046189" lon="-6.767159">
        <ele>562.8</ele>
        <time>1970-01-01T02:14:06.000Z</time>
      </trkpt>
      <trkpt lat="41.046185" lon="-6.767121">
        <ele>563</ele>
        <time>1970-01-01T02:14:07.000Z</time>
      </trkpt>
      <trkpt lat="41.046182" lon="-6.767082">
        <ele>563.2</ele>
        <time>1970-01-01T02:14:08.000Z</time>
      </trkpt>
      <trkpt lat="41.046178" lon="-6.76704">
        <ele>563.4</ele>
        <time>1970-01-01T02:14:09.000Z</time>
      </trkpt>
      <trkpt lat="41.046176" lon="-6.766998">
        <ele>563.6</ele>
        <time>1970-01-01T02:14:10.000Z</time>
      </trkpt>
      <trkpt lat="41.046174" lon="-6.766958">
        <ele>563.8</ele>
        <time>1970-01-01T02:14:11.000Z</time>
      </trkpt>
      <trkpt lat="41.046172" lon="-6.766918">
        <ele>564</ele>
        <time>1970-01-01T02:14:12.000Z</time>
      </trkpt>
      <trkpt lat="41.046172" lon="-6.766878">
        <ele>564.2</ele>
        <time>1970-01-01T02:14:13.000Z</time>
      </trkpt>
      <trkpt lat="41.046173" lon="-6.766839">
        <ele>564.4</ele>
        <time>1970-01-01T02:14:14.000Z</time>
      </trkpt>
      <trkpt lat="41.046175" lon="-6.7668">
        <ele>564.6</ele>
        <time>1970-01-01T02:14:15.000Z</time>
      </trkpt>
      <trkpt lat="41.046178" lon="-6.766761">
        <ele>564.8</ele>
        <time>1970-01-01T02:14:16.000Z</time>
      </trkpt>
      <trkpt lat="41.046181" lon="-6.766722">
        <ele>564.9</ele>
        <time>1970-01-01T02:14:17.000Z</time>
      </trkpt>
      <trkpt lat="41.046185" lon="-6.766683">
        <ele>565.1</ele>
        <time>1970-01-01T02:14:18.000Z</time>
      </trkpt>
      <trkpt lat="41.04619" lon="-6.766644">
        <ele>565.3</ele>
        <time>1970-01-01T02:14:19.000Z</time>
      </trkpt>
      <trkpt lat="41.046196" lon="-6.766604">
        <ele>565.5</ele>
        <time>1970-01-01T02:14:20.000Z</time>
      </trkpt>
      <trkpt lat="41.046203" lon="-6.766563">
        <ele>565.7</ele>
        <time>1970-01-01T02:14:21.000Z</time>
      </trkpt>
      <trkpt lat="41.04621" lon="-6.766523">
        <ele>565.9</ele>
        <time>1970-01-01T02:14:22.000Z</time>
      </trkpt>
      <trkpt lat="41.046217" lon="-6.766484">
        <ele>566.1</ele>
        <time>1970-01-01T02:14:23.000Z</time>
      </trkpt>
      <trkpt lat="41.046223" lon="-6.766445">
        <ele>566.3</ele>
        <time>1970-01-01T02:14:24.000Z</time>
      </trkpt>
      <trkpt lat="41.046228" lon="-6.766404">
        <ele>566.5</ele>
        <time>1970-01-01T02:14:25.000Z</time>
      </trkpt>
      <trkpt lat="41.046232" lon="-6.766364">
        <ele>566.7</ele>
        <time>1970-01-01T02:14:26.000Z</time>
      </trkpt>
      <trkpt lat="41.046233" lon="-6.766326">
        <ele>566.9</ele>
        <time>1970-01-01T02:14:27.000Z</time>
      </trkpt>
      <trkpt lat="41.046232" lon="-6.766288">
        <ele>567.1</ele>
        <time>1970-01-01T02:14:28.000Z</time>
      </trkpt>
      <trkpt lat="41.046229" lon="-6.766251">
        <ele>567.3</ele>
        <time>1970-01-01T02:14:29.000Z</time>
      </trkpt>
      <trkpt lat="41.046223" lon="-6.766213">
        <ele>567.5</ele>
        <time>1970-01-01T02:14:30.000Z</time>
      </trkpt>
      <trkpt lat="41.046216" lon="-6.766172">
        <ele>567.7</ele>
        <time>1970-01-01T02:14:31.000Z</time>
      </trkpt>
      <trkpt lat="41.046206" lon="-6.76613">
        <ele>567.9</ele>
        <time>1970-01-01T02:14:32.000Z</time>
      </trkpt>
      <trkpt lat="41.046195" lon="-6.766087">
        <ele>568.1</ele>
        <time>1970-01-01T02:14:33.000Z</time>
      </trkpt>
      <trkpt lat="41.046182" lon="-6.766044">
        <ele>568.3</ele>
        <time>1970-01-01T02:14:34.000Z</time>
      </trkpt>
      <trkpt lat="41.046168" lon="-6.766003">
        <ele>568.5</ele>
        <time>1970-01-01T02:14:35.000Z</time>
      </trkpt>
      <trkpt lat="41.046154" lon="-6.765962">
        <ele>568.8</ele>
        <time>1970-01-01T02:14:36.000Z</time>
      </trkpt>
      <trkpt lat="41.046142" lon="-6.765922">
        <ele>569</ele>
        <time>1970-01-01T02:14:37.000Z</time>
      </trkpt>
      <trkpt lat="41.04613" lon="-6.765883">
        <ele>569.2</ele>
        <time>1970-01-01T02:14:38.000Z</time>
      </trkpt>
      <trkpt lat="41.046118" lon="-6.765845">
        <ele>569.4</ele>
        <time>1970-01-01T02:14:39.000Z</time>
      </trkpt>
      <trkpt lat="41.046104" lon="-6.765807">
        <ele>569.6</ele>
        <time>1970-01-01T02:14:40.000Z</time>
      </trkpt>
      <trkpt lat="41.046091" lon="-6.765771">
        <ele>569.8</ele>
        <time>1970-01-01T02:14:41.000Z</time>
      </trkpt>
      <trkpt lat="41.046078" lon="-6.765734">
        <ele>570</ele>
        <time>1970-01-01T02:14:42.000Z</time>
      </trkpt>
      <trkpt lat="41.046065" lon="-6.765698">
        <ele>570.2</ele>
        <time>1970-01-01T02:14:43.000Z</time>
      </trkpt>
      <trkpt lat="41.046053" lon="-6.765663">
        <ele>570.4</ele>
        <time>1970-01-01T02:14:44.000Z</time>
      </trkpt>
      <trkpt lat="41.046041" lon="-6.765627">
        <ele>570.6</ele>
        <time>1970-01-01T02:14:45.000Z</time>
      </trkpt>
      <trkpt lat="41.046029" lon="-6.765592">
        <ele>570.7</ele>
        <time>1970-01-01T02:14:46.000Z</time>
      </trkpt>
      <trkpt lat="41.046017" lon="-6.765558">
        <ele>570.9</ele>
        <time>1970-01-01T02:14:47.000Z</time>
      </trkpt>
      <trkpt lat="41.046007" lon="-6.765523">
        <ele>571.1</ele>
        <time>1970-01-01T02:14:48.000Z</time>
      </trkpt>
      <trkpt lat="41.045997" lon="-6.765488">
        <ele>571.3</ele>
        <time>1970-01-01T02:14:49.000Z</time>
      </trkpt>
      <trkpt lat="41.045986" lon="-6.765452">
        <ele>571.5</ele>
        <time>1970-01-01T02:14:50.000Z</time>
      </trkpt>
      <trkpt lat="41.045975" lon="-6.765415">
        <ele>571.7</ele>
        <time>1970-01-01T02:14:51.000Z</time>
      </trkpt>
      <trkpt lat="41.045964" lon="-6.765378">
        <ele>571.9</ele>
        <time>1970-01-01T02:14:52.000Z</time>
      </trkpt>
      <trkpt lat="41.045955" lon="-6.765341">
        <ele>572.1</ele>
        <time>1970-01-01T02:14:53.000Z</time>
      </trkpt>
      <trkpt lat="41.045947" lon="-6.765303">
        <ele>572.3</ele>
        <time>1970-01-01T02:14:54.000Z</time>
      </trkpt>
      <trkpt lat="41.04594" lon="-6.765263">
        <ele>572.5</ele>
        <time>1970-01-01T02:14:55.000Z</time>
      </trkpt>
      <trkpt lat="41.045934" lon="-6.765223">
        <ele>572.6</ele>
        <time>1970-01-01T02:14:56.000Z</time>
      </trkpt>
      <trkpt lat="41.045929" lon="-6.765183">
        <ele>572.8</ele>
        <time>1970-01-01T02:14:57.000Z</time>
      </trkpt>
      <trkpt lat="41.045924" lon="-6.765143">
        <ele>573</ele>
        <time>1970-01-01T02:14:58.000Z</time>
      </trkpt>
      <trkpt lat="41.045922" lon="-6.765103">
        <ele>573.2</ele>
        <time>1970-01-01T02:14:59.000Z</time>
      </trkpt>
      <trkpt lat="41.045921" lon="-6.765062">
        <ele>573.4</ele>
        <time>1970-01-01T02:15:00.000Z</time>
      </trkpt>
      <trkpt lat="41.045923" lon="-6.765021">
        <ele>573.6</ele>
        <time>1970-01-01T02:15:01.000Z</time>
      </trkpt>
      <trkpt lat="41.045925" lon="-6.764979">
        <ele>573.8</ele>
        <time>1970-01-01T02:15:02.000Z</time>
      </trkpt>
      <trkpt lat="41.045929" lon="-6.764938">
        <ele>574</ele>
        <time>1970-01-01T02:15:03.000Z</time>
      </trkpt>
      <trkpt lat="41.045933" lon="-6.764897">
        <ele>574.2</ele>
        <time>1970-01-01T02:15:04.000Z</time>
      </trkpt>
      <trkpt lat="41.045938" lon="-6.764858">
        <ele>574.4</ele>
        <time>1970-01-01T02:15:05.000Z</time>
      </trkpt>
      <trkpt lat="41.045944" lon="-6.764818">
        <ele>574.6</ele>
        <time>1970-01-01T02:15:06.000Z</time>
      </trkpt>
      <trkpt lat="41.045949" lon="-6.764778">
        <ele>574.8</ele>
        <time>1970-01-01T02:15:07.000Z</time>
      </trkpt>
      <trkpt lat="41.045955" lon="-6.764735">
        <ele>575</ele>
        <time>1970-01-01T02:15:08.000Z</time>
      </trkpt>
      <trkpt lat="41.045959" lon="-6.764692">
        <ele>575.3</ele>
        <time>1970-01-01T02:15:09.000Z</time>
      </trkpt>
      <trkpt lat="41.045964" lon="-6.764649">
        <ele>575.5</ele>
        <time>1970-01-01T02:15:10.000Z</time>
      </trkpt>
      <trkpt lat="41.04597" lon="-6.764607">
        <ele>575.7</ele>
        <time>1970-01-01T02:15:11.000Z</time>
      </trkpt>
      <trkpt lat="41.045974" lon="-6.764565">
        <ele>575.9</ele>
        <time>1970-01-01T02:15:12.000Z</time>
      </trkpt>
      <trkpt lat="41.045978" lon="-6.764523">
        <ele>576.1</ele>
        <time>1970-01-01T02:15:13.000Z</time>
      </trkpt>
      <trkpt lat="41.045982" lon="-6.764481">
        <ele>576.3</ele>
        <time>1970-01-01T02:15:14.000Z</time>
      </trkpt>
      <trkpt lat="41.045987" lon="-6.76444">
        <ele>576.5</ele>
        <time>1970-01-01T02:15:15.000Z</time>
      </trkpt>
      <trkpt lat="41.045992" lon="-6.764397">
        <ele>576.7</ele>
        <time>1970-01-01T02:15:16.000Z</time>
      </trkpt>
      <trkpt lat="41.045996" lon="-6.764355">
        <ele>576.9</ele>
        <time>1970-01-01T02:15:17.000Z</time>
      </trkpt>
      <trkpt lat="41.046001" lon="-6.764312">
        <ele>577.1</ele>
        <time>1970-01-01T02:15:18.000Z</time>
      </trkpt>
      <trkpt lat="41.046003" lon="-6.764268">
        <ele>577.3</ele>
        <time>1970-01-01T02:15:19.000Z</time>
      </trkpt>
      <trkpt lat="41.046005" lon="-6.764224">
        <ele>577.6</ele>
        <time>1970-01-01T02:15:20.000Z</time>
      </trkpt>
      <trkpt lat="41.046006" lon="-6.76418">
        <ele>577.8</ele>
        <time>1970-01-01T02:15:21.000Z</time>
      </trkpt>
      <trkpt lat="41.046007" lon="-6.764136">
        <ele>578</ele>
        <time>1970-01-01T02:15:22.000Z</time>
      </trkpt>
      <trkpt lat="41.046008" lon="-6.764092">
        <ele>578.2</ele>
        <time>1970-01-01T02:15:23.000Z</time>
      </trkpt>
      <trkpt lat="41.046009" lon="-6.764048">
        <ele>578.4</ele>
        <time>1970-01-01T02:15:24.000Z</time>
      </trkpt>
      <trkpt lat="41.046009" lon="-6.764005">
        <ele>578.6</ele>
        <time>1970-01-01T02:15:25.000Z</time>
      </trkpt>
      <trkpt lat="41.046008" lon="-6.763962">
        <ele>578.8</ele>
        <time>1970-01-01T02:15:26.000Z</time>
      </trkpt>
      <trkpt lat="41.046007" lon="-6.76392">
        <ele>579</ele>
        <time>1970-01-01T02:15:27.000Z</time>
      </trkpt>
      <trkpt lat="41.046006" lon="-6.763879">
        <ele>579.2</ele>
        <time>1970-01-01T02:15:28.000Z</time>
      </trkpt>
      <trkpt lat="41.046004" lon="-6.763837">
        <ele>579.4</ele>
        <time>1970-01-01T02:15:29.000Z</time>
      </trkpt>
      <trkpt lat="41.046002" lon="-6.763795">
        <ele>579.7</ele>
        <time>1970-01-01T02:15:30.000Z</time>
      </trkpt>
      <trkpt lat="41.045999" lon="-6.763753">
        <ele>579.9</ele>
        <time>1970-01-01T02:15:31.000Z</time>
      </trkpt>
      <trkpt lat="41.045997" lon="-6.763711">
        <ele>580.1</ele>
        <time>1970-01-01T02:15:32.000Z</time>
      </trkpt>
      <trkpt lat="41.045995" lon="-6.763669">
        <ele>580.3</ele>
        <time>1970-01-01T02:15:33.000Z</time>
      </trkpt>
      <trkpt lat="41.045992" lon="-6.763627">
        <ele>580.5</ele>
        <time>1970-01-01T02:15:34.000Z</time>
      </trkpt>
      <trkpt lat="41.045988" lon="-6.763585">
        <ele>580.7</ele>
        <time>1970-01-01T02:15:35.000Z</time>
      </trkpt>
      <trkpt lat="41.045984" lon="-6.763542">
        <ele>580.9</ele>
        <time>1970-01-01T02:15:36.000Z</time>
      </trkpt>
      <trkpt lat="41.045979" lon="-6.763499">
        <ele>581.1</ele>
        <time>1970-01-01T02:15:37.000Z</time>
      </trkpt>
      <trkpt lat="41.045974" lon="-6.763455">
        <ele>581.3</ele>
        <time>1970-01-01T02:15:38.000Z</time>
      </trkpt>
      <trkpt lat="41.045968" lon="-6.763413">
        <ele>581.5</ele>
        <time>1970-01-01T02:15:39.000Z</time>
      </trkpt>
      <trkpt lat="41.045964" lon="-6.763369">
        <ele>581.7</ele>
        <time>1970-01-01T02:15:40.000Z</time>
      </trkpt>
      <trkpt lat="41.045959" lon="-6.763326">
        <ele>582</ele>
        <time>1970-01-01T02:15:41.000Z</time>
      </trkpt>
      <trkpt lat="41.045954" lon="-6.763284">
        <ele>582.2</ele>
        <time>1970-01-01T02:15:42.000Z</time>
      </trkpt>
      <trkpt lat="41.045947" lon="-6.763243">
        <ele>582.4</ele>
        <time>1970-01-01T02:15:43.000Z</time>
      </trkpt>
      <trkpt lat="41.04594" lon="-6.763202">
        <ele>582.6</ele>
        <time>1970-01-01T02:15:44.000Z</time>
      </trkpt>
      <trkpt lat="41.045933" lon="-6.763162">
        <ele>582.8</ele>
        <time>1970-01-01T02:15:45.000Z</time>
      </trkpt>
      <trkpt lat="41.045924" lon="-6.763121">
        <ele>583</ele>
        <time>1970-01-01T02:15:46.000Z</time>
      </trkpt>
      <trkpt lat="41.045916" lon="-6.763081">
        <ele>583.2</ele>
        <time>1970-01-01T02:15:47.000Z</time>
      </trkpt>
      <trkpt lat="41.045907" lon="-6.763041">
        <ele>583.4</ele>
        <time>1970-01-01T02:15:48.000Z</time>
      </trkpt>
      <trkpt lat="41.045898" lon="-6.763">
        <ele>583.6</ele>
        <time>1970-01-01T02:15:49.000Z</time>
      </trkpt>
      <trkpt lat="41.04589" lon="-6.762961">
        <ele>583.8</ele>
        <time>1970-01-01T02:15:50.000Z</time>
      </trkpt>
      <trkpt lat="41.045882" lon="-6.76292">
        <ele>584</ele>
        <time>1970-01-01T02:15:51.000Z</time>
      </trkpt>
      <trkpt lat="41.045874" lon="-6.762879">
        <ele>584.2</ele>
        <time>1970-01-01T02:15:52.000Z</time>
      </trkpt>
      <trkpt lat="41.045865" lon="-6.762836">
        <ele>584.4</ele>
        <time>1970-01-01T02:15:53.000Z</time>
      </trkpt>
      <trkpt lat="41.045857" lon="-6.762793">
        <ele>584.6</ele>
        <time>1970-01-01T02:15:54.000Z</time>
      </trkpt>
      <trkpt lat="41.045848" lon="-6.762752">
        <ele>584.8</ele>
        <time>1970-01-01T02:15:55.000Z</time>
      </trkpt>
      <trkpt lat="41.045839" lon="-6.76271">
        <ele>585.1</ele>
        <time>1970-01-01T02:15:56.000Z</time>
      </trkpt>
      <trkpt lat="41.045831" lon="-6.762668">
        <ele>585.3</ele>
        <time>1970-01-01T02:15:57.000Z</time>
      </trkpt>
      <trkpt lat="41.045822" lon="-6.762625">
        <ele>585.5</ele>
        <time>1970-01-01T02:15:58.000Z</time>
      </trkpt>
      <trkpt lat="41.045813" lon="-6.762582">
        <ele>585.7</ele>
        <time>1970-01-01T02:15:59.000Z</time>
      </trkpt>
      <trkpt lat="41.045803" lon="-6.762537">
        <ele>585.9</ele>
        <time>1970-01-01T02:16:00.000Z</time>
      </trkpt>
      <trkpt lat="41.045792" lon="-6.762491">
        <ele>586.2</ele>
        <time>1970-01-01T02:16:01.000Z</time>
      </trkpt>
      <trkpt lat="41.04578" lon="-6.762443">
        <ele>586.4</ele>
        <time>1970-01-01T02:16:02.000Z</time>
      </trkpt>
      <trkpt lat="41.045767" lon="-6.762394">
        <ele>586.7</ele>
        <time>1970-01-01T02:16:03.000Z</time>
      </trkpt>
      <trkpt lat="41.045753" lon="-6.762342">
        <ele>586.9</ele>
        <time>1970-01-01T02:16:04.000Z</time>
      </trkpt>
      <trkpt lat="41.04574" lon="-6.762287">
        <ele>587.2</ele>
        <time>1970-01-01T02:16:05.000Z</time>
      </trkpt>
      <trkpt lat="41.045724" lon="-6.762223">
        <ele>587.5</ele>
        <time>1970-01-01T02:16:06.000Z</time>
      </trkpt>
      <trkpt lat="41.045709" lon="-6.762154">
        <ele>587.9</ele>
        <time>1970-01-01T02:16:07.000Z</time>
      </trkpt>
      <trkpt lat="41.045694" lon="-6.762081">
        <ele>588.3</ele>
        <time>1970-01-01T02:16:08.000Z</time>
      </trkpt>
      <trkpt lat="41.045683" lon="-6.762011">
        <ele>588.6</ele>
        <time>1970-01-01T02:16:09.000Z</time>
      </trkpt>
      <trkpt lat="41.045676" lon="-6.761943">
        <ele>588.9</ele>
        <time>1970-01-01T02:16:10.000Z</time>
      </trkpt>
      <trkpt lat="41.045677" lon="-6.761878">
        <ele>589.3</ele>
        <time>1970-01-01T02:16:11.000Z</time>
      </trkpt>
      <trkpt lat="41.045697" lon="-6.761818">
        <ele>589.6</ele>
        <time>1970-01-01T02:16:12.000Z</time>
      </trkpt>
      <trkpt lat="41.045729" lon="-6.76176">
        <ele>589.9</ele>
        <time>1970-01-01T02:16:13.000Z</time>
      </trkpt>
      <trkpt lat="41.045766" lon="-6.761703">
        <ele>590.3</ele>
        <time>1970-01-01T02:16:14.000Z</time>
      </trkpt>
      <trkpt lat="41.045799" lon="-6.761651">
        <ele>590.6</ele>
        <time>1970-01-01T02:16:15.000Z</time>
      </trkpt>
      <trkpt lat="41.045831" lon="-6.761605">
        <ele>590.9</ele>
        <time>1970-01-01T02:16:16.000Z</time>
      </trkpt>
      <trkpt lat="41.045863" lon="-6.761565">
        <ele>591.2</ele>
        <time>1970-01-01T02:16:17.000Z</time>
      </trkpt>
      <trkpt lat="41.045894" lon="-6.761525">
        <ele>591.5</ele>
        <time>1970-01-01T02:16:18.000Z</time>
      </trkpt>
      <trkpt lat="41.045922" lon="-6.761482">
        <ele>591.8</ele>
        <time>1970-01-01T02:16:19.000Z</time>
      </trkpt>
      <trkpt lat="41.045946" lon="-6.761436">
        <ele>592.1</ele>
        <time>1970-01-01T02:16:20.000Z</time>
      </trkpt>
      <trkpt lat="41.045967" lon="-6.761389">
        <ele>592.3</ele>
        <time>1970-01-01T02:16:21.000Z</time>
      </trkpt>
      <trkpt lat="41.045988" lon="-6.761345">
        <ele>592.6</ele>
        <time>1970-01-01T02:16:22.000Z</time>
      </trkpt>
      <trkpt lat="41.046007" lon="-6.761307">
        <ele>592.8</ele>
        <time>1970-01-01T02:16:23.000Z</time>
      </trkpt>
      <trkpt lat="41.046024" lon="-6.761275">
        <ele>593</ele>
        <time>1970-01-01T02:16:24.000Z</time>
      </trkpt>
      <trkpt lat="41.046038" lon="-6.761248">
        <ele>593.1</ele>
        <time>1970-01-01T02:16:25.000Z</time>
      </trkpt>
      <trkpt lat="41.04605" lon="-6.761224">
        <ele>593.3</ele>
        <time>1970-01-01T02:16:26.000Z</time>
      </trkpt>
      <trkpt lat="41.046062" lon="-6.761204">
        <ele>593.4</ele>
        <time>1970-01-01T02:16:27.000Z</time>
      </trkpt>
      <trkpt lat="41.046073" lon="-6.761188">
        <ele>593.5</ele>
        <time>1970-01-01T02:16:28.000Z</time>
      </trkpt>
      <trkpt lat="41.046082" lon="-6.761179">
        <ele>593.6</ele>
        <time>1970-01-01T02:16:29.000Z</time>
      </trkpt>
      <trkpt lat="41.046091" lon="-6.761175">
        <ele>593.6</ele>
        <time>1970-01-01T02:16:30.000Z</time>
      </trkpt>
      <trkpt lat="41.046098" lon="-6.761175">
        <ele>593.7</ele>
        <time>1970-01-01T02:16:31.000Z</time>
      </trkpt>
      <trkpt lat="41.046102" lon="-6.761172">
        <ele>593.7</ele>
        <time>1970-01-01T02:16:32.000Z</time>
      </trkpt>
      <trkpt lat="41.046103" lon="-6.761172">
        <ele>593.7</ele>
        <time>1970-01-01T02:16:33.000Z</time>
      </trkpt>
      <trkpt lat="41.046104" lon="-6.76117">
        <ele>593.7</ele>
        <time>1970-01-01T02:16:34.000Z</time>
      </trkpt>
      <trkpt lat="41.046105" lon="-6.761169">
        <ele>593.7</ele>
        <time>1970-01-01T02:16:35.000Z</time>
      </trkpt>
      <trkpt lat="41.046104" lon="-6.761169">
        <ele>593.8</ele>
        <time>1970-01-01T02:16:36.000Z</time>
      </trkpt>
      <trkpt lat="41.046103" lon="-6.76117">
        <ele>593.8</ele>
        <time>1970-01-01T02:16:37.000Z</time>
      </trkpt>
      <trkpt lat="41.046104" lon="-6.761172">
        <ele>593.8</ele>
        <time>1970-01-01T02:16:38.000Z</time>
      </trkpt>
      <trkpt lat="41.046104" lon="-6.761175">
        <ele>593.8</ele>
        <time>1970-01-01T02:16:39.000Z</time>
      </trkpt>
      <trkpt lat="41.046104" lon="-6.761176">
        <ele>593.8</ele>
        <time>1970-01-01T02:16:40.000Z</time>
      </trkpt>
      <trkpt lat="41.046115" lon="-6.761229">
        <ele>593.2</ele>
        <time>1970-01-01T02:16:41.000Z</time>
      </trkpt>
      <trkpt lat="41.046118" lon="-6.761243">
        <ele>593.1</ele>
        <time>1970-01-01T02:16:42.000Z</time>
      </trkpt>
      <trkpt lat="41.046121" lon="-6.761256">
        <ele>593.1</ele>
        <time>1970-01-01T02:17:38.000Z</time>
      </trkpt>
      <trkpt lat="41.046123" lon="-6.761269">
        <ele>593</ele>
        <time>1970-01-01T02:17:39.000Z</time>
      </trkpt>
      <trkpt lat="41.046125" lon="-6.761281">
        <ele>592.9</ele>
        <time>1970-01-01T02:17:40.000Z</time>
      </trkpt>
      <trkpt lat="41.046127" lon="-6.761294">
        <ele>592.8</ele>
        <time>1970-01-01T02:17:41.000Z</time>
      </trkpt>
      <trkpt lat="41.046129" lon="-6.761306">
        <ele>592.8</ele>
        <time>1970-01-01T02:17:42.000Z</time>
      </trkpt>
      <trkpt lat="41.046131" lon="-6.761317">
        <ele>592.7</ele>
        <time>1970-01-01T02:17:43.000Z</time>
      </trkpt>
      <trkpt lat="41.046134" lon="-6.761329">
        <ele>592.6</ele>
        <time>1970-01-01T02:17:44.000Z</time>
      </trkpt>
      <trkpt lat="41.046137" lon="-6.761342">
        <ele>592.5</ele>
        <time>1970-01-01T02:17:45.000Z</time>
      </trkpt>
      <trkpt lat="41.046142" lon="-6.761359">
        <ele>592.4</ele>
        <time>1970-01-01T02:17:46.000Z</time>
      </trkpt>
      <trkpt lat="41.046147" lon="-6.761379">
        <ele>592.3</ele>
        <time>1970-01-01T02:17:47.000Z</time>
      </trkpt>
      <trkpt lat="41.046153" lon="-6.761402">
        <ele>592.1</ele>
        <time>1970-01-01T02:17:48.000Z</time>
      </trkpt>
      <trkpt lat="41.046159" lon="-6.76143">
        <ele>592</ele>
        <time>1970-01-01T02:17:49.000Z</time>
      </trkpt>
      <trkpt lat="41.046166" lon="-6.761461">
        <ele>591.8</ele>
        <time>1970-01-01T02:17:50.000Z</time>
      </trkpt>
      <trkpt lat="41.046173" lon="-6.761496">
        <ele>591.5</ele>
        <time>1970-01-01T02:17:51.000Z</time>
      </trkpt>
      <trkpt lat="41.046183" lon="-6.761534">
        <ele>591.3</ele>
        <time>1970-01-01T02:17:52.000Z</time>
      </trkpt>
      <trkpt lat="41.046194" lon="-6.761573">
        <ele>591.1</ele>
        <time>1970-01-01T02:17:53.000Z</time>
      </trkpt>
      <trkpt lat="41.046206" lon="-6.761616">
        <ele>590.8</ele>
        <time>1970-01-01T02:17:54.000Z</time>
      </trkpt>
      <trkpt lat="41.046218" lon="-6.761663">
        <ele>590.5</ele>
        <time>1970-01-01T02:17:55.000Z</time>
      </trkpt>
      <trkpt lat="41.046229" lon="-6.761713">
        <ele>590.2</ele>
        <time>1970-01-01T02:17:56.000Z</time>
      </trkpt>
      <trkpt lat="41.046241" lon="-6.761764">
        <ele>589.8</ele>
        <time>1970-01-01T02:17:57.000Z</time>
      </trkpt>
      <trkpt lat="41.046253" lon="-6.761817">
        <ele>589.5</ele>
        <time>1970-01-01T02:17:58.000Z</time>
      </trkpt>
      <trkpt lat="41.046267" lon="-6.761872">
        <ele>589.2</ele>
        <time>1970-01-01T02:17:59.000Z</time>
      </trkpt>
      <trkpt lat="41.046281" lon="-6.761928">
        <ele>588.8</ele>
        <time>1970-01-01T02:18:00.000Z</time>
      </trkpt>
      <trkpt lat="41.046295" lon="-6.761986">
        <ele>588.4</ele>
        <time>1970-01-01T02:18:01.000Z</time>
      </trkpt>
      <trkpt lat="41.04631" lon="-6.762046">
        <ele>588</ele>
        <time>1970-01-01T02:18:02.000Z</time>
      </trkpt>
      <trkpt lat="41.046325" lon="-6.762109">
        <ele>587.6</ele>
        <time>1970-01-01T02:18:03.000Z</time>
      </trkpt>
      <trkpt lat="41.046343" lon="-6.762174">
        <ele>587.2</ele>
        <time>1970-01-01T02:18:04.000Z</time>
      </trkpt>
      <trkpt lat="41.046361" lon="-6.762244">
        <ele>586.8</ele>
        <time>1970-01-01T02:18:05.000Z</time>
      </trkpt>
      <trkpt lat="41.04638" lon="-6.762318">
        <ele>586.3</ele>
        <time>1970-01-01T02:18:06.000Z</time>
      </trkpt>
      <trkpt lat="41.046398" lon="-6.762398">
        <ele>585.8</ele>
        <time>1970-01-01T02:18:07.000Z</time>
      </trkpt>
      <trkpt lat="41.046415" lon="-6.762485">
        <ele>585.3</ele>
        <time>1970-01-01T02:18:08.000Z</time>
      </trkpt>
      <trkpt lat="41.046431" lon="-6.762576">
        <ele>584.7</ele>
        <time>1970-01-01T02:18:09.000Z</time>
      </trkpt>
      <trkpt lat="41.046447" lon="-6.76267">
        <ele>584.1</ele>
        <time>1970-01-01T02:18:10.000Z</time>
      </trkpt>
      <trkpt lat="41.046465" lon="-6.762769">
        <ele>583.5</ele>
        <time>1970-01-01T02:18:11.000Z</time>
      </trkpt>
      <trkpt lat="41.046484" lon="-6.762874">
        <ele>582.8</ele>
        <time>1970-01-01T02:18:12.000Z</time>
      </trkpt>
      <trkpt lat="41.046505" lon="-6.762984">
        <ele>582.2</ele>
        <time>1970-01-01T02:18:13.000Z</time>
      </trkpt>
      <trkpt lat="41.046528" lon="-6.763095">
        <ele>581.5</ele>
        <time>1970-01-01T02:18:14.000Z</time>
      </trkpt>
      <trkpt lat="41.046554" lon="-6.763211">
        <ele>580.7</ele>
        <time>1970-01-01T02:18:15.000Z</time>
      </trkpt>
      <trkpt lat="41.046582" lon="-6.76333">
        <ele>580</ele>
        <time>1970-01-01T02:18:16.000Z</time>
      </trkpt>
      <trkpt lat="41.046614" lon="-6.763453">
        <ele>579.2</ele>
        <time>1970-01-01T02:18:17.000Z</time>
      </trkpt>
      <trkpt lat="41.046647" lon="-6.763581">
        <ele>578.4</ele>
        <time>1970-01-01T02:18:18.000Z</time>
      </trkpt>
      <trkpt lat="41.046682" lon="-6.763713">
        <ele>577.5</ele>
        <time>1970-01-01T02:18:19.000Z</time>
      </trkpt>
      <trkpt lat="41.046717" lon="-6.763846">
        <ele>576.7</ele>
        <time>1970-01-01T02:18:20.000Z</time>
      </trkpt>
      <trkpt lat="41.046752" lon="-6.763976">
        <ele>575.7</ele>
        <time>1970-01-01T02:18:21.000Z</time>
      </trkpt>
      <trkpt lat="41.046784" lon="-6.7641">
        <ele>574.1</ele>
        <time>1970-01-01T02:18:22.000Z</time>
      </trkpt>
      <trkpt lat="41.046815" lon="-6.764224">
        <ele>572.4</ele>
        <time>1970-01-01T02:18:23.000Z</time>
      </trkpt>
      <trkpt lat="41.046839" lon="-6.764349">
        <ele>570.8</ele>
        <time>1970-01-01T02:18:24.000Z</time>
      </trkpt>
      <trkpt lat="41.046852" lon="-6.76448">
        <ele>569.2</ele>
        <time>1970-01-01T02:18:25.000Z</time>
      </trkpt>
      <trkpt lat="41.046855" lon="-6.764611">
        <ele>567.6</ele>
        <time>1970-01-01T02:18:26.000Z</time>
      </trkpt>
      <trkpt lat="41.046855" lon="-6.764745">
        <ele>565.9</ele>
        <time>1970-01-01T02:18:27.000Z</time>
      </trkpt>
      <trkpt lat="41.046856" lon="-6.764876">
        <ele>564.3</ele>
        <time>1970-01-01T02:18:28.000Z</time>
      </trkpt>
      <trkpt lat="41.046863" lon="-6.765009">
        <ele>562.6</ele>
        <time>1970-01-01T02:18:29.000Z</time>
      </trkpt>
      <trkpt lat="41.046879" lon="-6.765138">
        <ele>561</ele>
        <time>1970-01-01T02:18:30.000Z</time>
      </trkpt>
      <trkpt lat="41.046906" lon="-6.765256">
        <ele>559.5</ele>
        <time>1970-01-01T02:18:31.000Z</time>
      </trkpt>
      <trkpt lat="41.046944" lon="-6.765365">
        <ele>558</ele>
        <time>1970-01-01T02:18:32.000Z</time>
      </trkpt>
      <trkpt lat="41.046987" lon="-6.765467">
        <ele>556.5</ele>
        <time>1970-01-01T02:18:33.000Z</time>
      </trkpt>
      <trkpt lat="41.04703" lon="-6.765572">
        <ele>555.1</ele>
        <time>1970-01-01T02:18:34.000Z</time>
      </trkpt>
      <trkpt lat="41.047071" lon="-6.765679">
        <ele>553.6</ele>
        <time>1970-01-01T02:18:35.000Z</time>
      </trkpt>
      <trkpt lat="41.047109" lon="-6.765781">
        <ele>552.2</ele>
        <time>1970-01-01T02:18:36.000Z</time>
      </trkpt>
      <trkpt lat="41.047144" lon="-6.765871">
        <ele>550.9</ele>
        <time>1970-01-01T02:18:37.000Z</time>
      </trkpt>
      <trkpt lat="41.04718" lon="-6.765949">
        <ele>549.8</ele>
        <time>1970-01-01T02:18:38.000Z</time>
      </trkpt>
      <trkpt lat="41.047221" lon="-6.766014">
        <ele>548.7</ele>
        <time>1970-01-01T02:18:39.000Z</time>
      </trkpt>
      <trkpt lat="41.04727" lon="-6.766073">
        <ele>547.6</ele>
        <time>1970-01-01T02:18:40.000Z</time>
      </trkpt>
      <trkpt lat="41.04733" lon="-6.766124">
        <ele>546.5</ele>
        <time>1970-01-01T02:18:41.000Z</time>
      </trkpt>
      <trkpt lat="41.047398" lon="-6.76617">
        <ele>545.2</ele>
        <time>1970-01-01T02:18:42.000Z</time>
      </trkpt>
      <trkpt lat="41.047472" lon="-6.766211">
        <ele>543.9</ele>
        <time>1970-01-01T02:18:43.000Z</time>
      </trkpt>
      <trkpt lat="41.047549" lon="-6.766249">
        <ele>542.5</ele>
        <time>1970-01-01T02:18:44.000Z</time>
      </trkpt>
      <trkpt lat="41.047627" lon="-6.766285">
        <ele>541.2</ele>
        <time>1970-01-01T02:18:45.000Z</time>
      </trkpt>
      <trkpt lat="41.047701" lon="-6.766319">
        <ele>539.9</ele>
        <time>1970-01-01T02:18:46.000Z</time>
      </trkpt>
      <trkpt lat="41.047771" lon="-6.76635">
        <ele>538.7</ele>
        <time>1970-01-01T02:18:47.000Z</time>
      </trkpt>
      <trkpt lat="41.047838" lon="-6.766379">
        <ele>537.5</ele>
        <time>1970-01-01T02:18:48.000Z</time>
      </trkpt>
      <trkpt lat="41.047903" lon="-6.766406">
        <ele>536.4</ele>
        <time>1970-01-01T02:18:49.000Z</time>
      </trkpt>
      <trkpt lat="41.047968" lon="-6.766434">
        <ele>535.3</ele>
        <time>1970-01-01T02:18:50.000Z</time>
      </trkpt>
      <trkpt lat="41.048033" lon="-6.766463">
        <ele>534.1</ele>
        <time>1970-01-01T02:18:51.000Z</time>
      </trkpt>
      <trkpt lat="41.048099" lon="-6.766492">
        <ele>533</ele>
        <time>1970-01-01T02:18:52.000Z</time>
      </trkpt>
      <trkpt lat="41.048168" lon="-6.766522">
        <ele>531.8</ele>
        <time>1970-01-01T02:18:53.000Z</time>
      </trkpt>
      <trkpt lat="41.048243" lon="-6.766551">
        <ele>530.5</ele>
        <time>1970-01-01T02:18:54.000Z</time>
      </trkpt>
      <trkpt lat="41.048324" lon="-6.766579">
        <ele>529.1</ele>
        <time>1970-01-01T02:18:55.000Z</time>
      </trkpt>
      <trkpt lat="41.048411" lon="-6.766605">
        <ele>527.7</ele>
        <time>1970-01-01T02:18:56.000Z</time>
      </trkpt>
      <trkpt lat="41.048509" lon="-6.766629">
        <ele>526</ele>
        <time>1970-01-01T02:18:57.000Z</time>
      </trkpt>
      <trkpt lat="41.048613" lon="-6.76665">
        <ele>524.3</ele>
        <time>1970-01-01T02:18:58.000Z</time>
      </trkpt>
      <trkpt lat="41.048726" lon="-6.766671">
        <ele>522.4</ele>
        <time>1970-01-01T02:18:59.000Z</time>
      </trkpt>
      <trkpt lat="41.048841" lon="-6.766691">
        <ele>520.5</ele>
        <time>1970-01-01T02:19:00.000Z</time>
      </trkpt>
      <trkpt lat="41.048958" lon="-6.766713">
        <ele>518.6</ele>
        <time>1970-01-01T02:19:01.000Z</time>
      </trkpt>
      <trkpt lat="41.049077" lon="-6.766732">
        <ele>516.6</ele>
        <time>1970-01-01T02:19:02.000Z</time>
      </trkpt>
      <trkpt lat="41.049192" lon="-6.766746">
        <ele>514.7</ele>
        <time>1970-01-01T02:19:03.000Z</time>
      </trkpt>
      <trkpt lat="41.049306" lon="-6.766756">
        <ele>512.8</ele>
        <time>1970-01-01T02:19:04.000Z</time>
      </trkpt>
      <trkpt lat="41.049411" lon="-6.76676">
        <ele>511.1</ele>
        <time>1970-01-01T02:19:05.000Z</time>
      </trkpt>
      <trkpt lat="41.049509" lon="-6.766762">
        <ele>509.5</ele>
        <time>1970-01-01T02:19:06.000Z</time>
      </trkpt>
      <trkpt lat="41.049601" lon="-6.766759">
        <ele>508</ele>
        <time>1970-01-01T02:19:07.000Z</time>
      </trkpt>
      <trkpt lat="41.04969" lon="-6.766754">
        <ele>506.5</ele>
        <time>1970-01-01T02:19:08.000Z</time>
      </trkpt>
      <trkpt lat="41.049775" lon="-6.766749">
        <ele>505.1</ele>
        <time>1970-01-01T02:19:09.000Z</time>
      </trkpt>
      <trkpt lat="41.049853" lon="-6.766743">
        <ele>503.8</ele>
        <time>1970-01-01T02:19:10.000Z</time>
      </trkpt>
      <trkpt lat="41.04992" lon="-6.766738">
        <ele>502.7</ele>
        <time>1970-01-01T02:19:11.000Z</time>
      </trkpt>
      <trkpt lat="41.049979" lon="-6.766733">
        <ele>501.8</ele>
        <time>1970-01-01T02:19:12.000Z</time>
      </trkpt>
      <trkpt lat="41.050038" lon="-6.766731">
        <ele>500.8</ele>
        <time>1970-01-01T02:19:13.000Z</time>
      </trkpt>
      <trkpt lat="41.050103" lon="-6.766733">
        <ele>499.7</ele>
        <time>1970-01-01T02:19:14.000Z</time>
      </trkpt>
      <trkpt lat="41.050174" lon="-6.76674">
        <ele>498.5</ele>
        <time>1970-01-01T02:19:15.000Z</time>
      </trkpt>
      <trkpt lat="41.050247" lon="-6.766752">
        <ele>497.3</ele>
        <time>1970-01-01T02:19:16.000Z</time>
      </trkpt>
      <trkpt lat="41.050323" lon="-6.766765">
        <ele>496.1</ele>
        <time>1970-01-01T02:19:17.000Z</time>
      </trkpt>
      <trkpt lat="41.050404" lon="-6.766781">
        <ele>494.7</ele>
        <time>1970-01-01T02:19:18.000Z</time>
      </trkpt>
      <trkpt lat="41.05049" lon="-6.766795">
        <ele>493.3</ele>
        <time>1970-01-01T02:19:19.000Z</time>
      </trkpt>
      <trkpt lat="41.050583" lon="-6.766809">
        <ele>491.8</ele>
        <time>1970-01-01T02:19:20.000Z</time>
      </trkpt>
      <trkpt lat="41.050678" lon="-6.766823">
        <ele>490.2</ele>
        <time>1970-01-01T02:19:21.000Z</time>
      </trkpt>
      <trkpt lat="41.050777" lon="-6.766836">
        <ele>488.6</ele>
        <time>1970-01-01T02:19:22.000Z</time>
      </trkpt>
      <trkpt lat="41.050876" lon="-6.76685">
        <ele>486.9</ele>
        <time>1970-01-01T02:19:23.000Z</time>
      </trkpt>
      <trkpt lat="41.050977" lon="-6.766866">
        <ele>485.3</ele>
        <time>1970-01-01T02:19:24.000Z</time>
      </trkpt>
      <trkpt lat="41.051083" lon="-6.766888">
        <ele>483.5</ele>
        <time>1970-01-01T02:19:25.000Z</time>
      </trkpt>
      <trkpt lat="41.051192" lon="-6.766916">
        <ele>482.5</ele>
        <time>1970-01-01T02:19:26.000Z</time>
      </trkpt>
      <trkpt lat="41.051303" lon="-6.766951">
        <ele>483</ele>
        <time>1970-01-01T02:19:27.000Z</time>
      </trkpt>
      <trkpt lat="41.051412" lon="-6.766991">
        <ele>483.5</ele>
        <time>1970-01-01T02:19:28.000Z</time>
      </trkpt>
      <trkpt lat="41.051522" lon="-6.767032">
        <ele>484</ele>
        <time>1970-01-01T02:19:29.000Z</time>
      </trkpt>
      <trkpt lat="41.051632" lon="-6.767073">
        <ele>484.5</ele>
        <time>1970-01-01T02:19:30.000Z</time>
      </trkpt>
      <trkpt lat="41.051743" lon="-6.767112">
        <ele>485</ele>
        <time>1970-01-01T02:19:31.000Z</time>
      </trkpt>
      <trkpt lat="41.051854" lon="-6.767151">
        <ele>485.5</ele>
        <time>1970-01-01T02:19:32.000Z</time>
      </trkpt>
      <trkpt lat="41.051965" lon="-6.76719">
        <ele>485.9</ele>
        <time>1970-01-01T02:19:33.000Z</time>
      </trkpt>
      <trkpt lat="41.052077" lon="-6.767228">
        <ele>486.4</ele>
        <time>1970-01-01T02:19:34.000Z</time>
      </trkpt>
      <trkpt lat="41.052188" lon="-6.767263">
        <ele>486.9</ele>
        <time>1970-01-01T02:19:35.000Z</time>
      </trkpt>
      <trkpt lat="41.052298" lon="-6.767296">
        <ele>487.4</ele>
        <time>1970-01-01T02:19:36.000Z</time>
      </trkpt>
      <trkpt lat="41.052404" lon="-6.767329">
        <ele>487.9</ele>
        <time>1970-01-01T02:19:37.000Z</time>
      </trkpt>
      <trkpt lat="41.052507" lon="-6.767362">
        <ele>488.3</ele>
        <time>1970-01-01T02:19:38.000Z</time>
      </trkpt>
      <trkpt lat="41.052604" lon="-6.767394">
        <ele>488.8</ele>
        <time>1970-01-01T02:19:39.000Z</time>
      </trkpt>
      <trkpt lat="41.052696" lon="-6.767426">
        <ele>489.2</ele>
        <time>1970-01-01T02:19:40.000Z</time>
      </trkpt>
      <trkpt lat="41.052781" lon="-6.767461">
        <ele>489.5</ele>
        <time>1970-01-01T02:19:41.000Z</time>
      </trkpt>
      <trkpt lat="41.052862" lon="-6.767498">
        <ele>489.9</ele>
        <time>1970-01-01T02:19:42.000Z</time>
      </trkpt>
      <trkpt lat="41.05294" lon="-6.767532">
        <ele>490.3</ele>
        <time>1970-01-01T02:19:43.000Z</time>
      </trkpt>
      <trkpt lat="41.053014" lon="-6.767559">
        <ele>490.6</ele>
        <time>1970-01-01T02:19:44.000Z</time>
      </trkpt>
      <trkpt lat="41.053084" lon="-6.767579">
        <ele>490.9</ele>
        <time>1970-01-01T02:19:45.000Z</time>
      </trkpt>
      <trkpt lat="41.053151" lon="-6.767594">
        <ele>491.2</ele>
        <time>1970-01-01T02:19:46.000Z</time>
      </trkpt>
      <trkpt lat="41.053217" lon="-6.767607">
        <ele>491.5</ele>
        <time>1970-01-01T02:19:47.000Z</time>
      </trkpt>
      <trkpt lat="41.053282" lon="-6.767619">
        <ele>491.7</ele>
        <time>1970-01-01T02:19:48.000Z</time>
      </trkpt>
      <trkpt lat="41.053346" lon="-6.767629">
        <ele>492</ele>
        <time>1970-01-01T02:19:49.000Z</time>
      </trkpt>
      <trkpt lat="41.053411" lon="-6.767636">
        <ele>492.3</ele>
        <time>1970-01-01T02:19:50.000Z</time>
      </trkpt>
      <trkpt lat="41.053476" lon="-6.767639">
        <ele>492.6</ele>
        <time>1970-01-01T02:19:51.000Z</time>
      </trkpt>
      <trkpt lat="41.053539" lon="-6.767642">
        <ele>492.9</ele>
        <time>1970-01-01T02:19:52.000Z</time>
      </trkpt>
      <trkpt lat="41.053601" lon="-6.767644">
        <ele>493.1</ele>
        <time>1970-01-01T02:19:53.000Z</time>
      </trkpt>
      <trkpt lat="41.053662" lon="-6.767646">
        <ele>493.4</ele>
        <time>1970-01-01T02:19:54.000Z</time>
      </trkpt>
      <trkpt lat="41.053721" lon="-6.767646">
        <ele>493.6</ele>
        <time>1970-01-01T02:19:55.000Z</time>
      </trkpt>
      <trkpt lat="41.053778" lon="-6.767644">
        <ele>493.9</ele>
        <time>1970-01-01T02:19:56.000Z</time>
      </trkpt>
      <trkpt lat="41.053832" lon="-6.767641">
        <ele>494.1</ele>
        <time>1970-01-01T02:19:57.000Z</time>
      </trkpt>
      <trkpt lat="41.053886" lon="-6.767638">
        <ele>494.3</ele>
        <time>1970-01-01T02:19:58.000Z</time>
      </trkpt>
      <trkpt lat="41.05394" lon="-6.767634">
        <ele>494.6</ele>
        <time>1970-01-01T02:19:59.000Z</time>
      </trkpt>
      <trkpt lat="41.053993" lon="-6.76763">
        <ele>494.8</ele>
        <time>1970-01-01T02:20:00.000Z</time>
      </trkpt>
      <trkpt lat="41.054046" lon="-6.767625">
        <ele>495</ele>
        <time>1970-01-01T02:20:01.000Z</time>
      </trkpt>
      <trkpt lat="41.0541" lon="-6.767619">
        <ele>495.3</ele>
        <time>1970-01-01T02:20:02.000Z</time>
      </trkpt>
      <trkpt lat="41.054157" lon="-6.767613">
        <ele>495.5</ele>
        <time>1970-01-01T02:20:03.000Z</time>
      </trkpt>
      <trkpt lat="41.054215" lon="-6.767607">
        <ele>495.7</ele>
        <time>1970-01-01T02:20:04.000Z</time>
      </trkpt>
      <trkpt lat="41.054273" lon="-6.7676">
        <ele>496</ele>
        <time>1970-01-01T02:20:05.000Z</time>
      </trkpt>
      <trkpt lat="41.054332" lon="-6.767591">
        <ele>496.2</ele>
        <time>1970-01-01T02:20:06.000Z</time>
      </trkpt>
      <trkpt lat="41.054394" lon="-6.767582">
        <ele>496.5</ele>
        <time>1970-01-01T02:20:07.000Z</time>
      </trkpt>
      <trkpt lat="41.054459" lon="-6.767572">
        <ele>496.8</ele>
        <time>1970-01-01T02:20:08.000Z</time>
      </trkpt>
      <trkpt lat="41.054524" lon="-6.767563">
        <ele>497.1</ele>
        <time>1970-01-01T02:20:09.000Z</time>
      </trkpt>
      <trkpt lat="41.054588" lon="-6.767553">
        <ele>497.3</ele>
        <time>1970-01-01T02:20:10.000Z</time>
      </trkpt>
      <trkpt lat="41.05465" lon="-6.767545">
        <ele>497.6</ele>
        <time>1970-01-01T02:20:11.000Z</time>
      </trkpt>
      <trkpt lat="41.054713" lon="-6.767541">
        <ele>497.9</ele>
        <time>1970-01-01T02:20:12.000Z</time>
      </trkpt>
      <trkpt lat="41.054774" lon="-6.767538">
        <ele>498.1</ele>
        <time>1970-01-01T02:20:13.000Z</time>
      </trkpt>
      <trkpt lat="41.054834" lon="-6.767535">
        <ele>498.4</ele>
        <time>1970-01-01T02:20:14.000Z</time>
      </trkpt>
      <trkpt lat="41.054892" lon="-6.767532">
        <ele>498.6</ele>
        <time>1970-01-01T02:20:15.000Z</time>
      </trkpt>
      <trkpt lat="41.054949" lon="-6.767532">
        <ele>498.9</ele>
        <time>1970-01-01T02:20:16.000Z</time>
      </trkpt>
      <trkpt lat="41.055004" lon="-6.767533">
        <ele>499.1</ele>
        <time>1970-01-01T02:20:17.000Z</time>
      </trkpt>
      <trkpt lat="41.055058" lon="-6.767532">
        <ele>499.4</ele>
        <time>1970-01-01T02:20:18.000Z</time>
      </trkpt>
      <trkpt lat="41.055111" lon="-6.76753">
        <ele>499.6</ele>
        <time>1970-01-01T02:20:19.000Z</time>
      </trkpt>
      <trkpt lat="41.055163" lon="-6.767527">
        <ele>499.8</ele>
        <time>1970-01-01T02:20:20.000Z</time>
      </trkpt>
      <trkpt lat="41.055213" lon="-6.767524">
        <ele>500</ele>
        <time>1970-01-01T02:20:21.000Z</time>
      </trkpt>
      <trkpt lat="41.055262" lon="-6.767522">
        <ele>500.2</ele>
        <time>1970-01-01T02:20:22.000Z</time>
      </trkpt>
      <trkpt lat="41.055308" lon="-6.76752">
        <ele>500.4</ele>
        <time>1970-01-01T02:20:23.000Z</time>
      </trkpt>
      <trkpt lat="41.055353" lon="-6.76752">
        <ele>500.6</ele>
        <time>1970-01-01T02:20:24.000Z</time>
      </trkpt>
      <trkpt lat="41.055395" lon="-6.767521">
        <ele>500.8</ele>
        <time>1970-01-01T02:20:25.000Z</time>
      </trkpt>
      <trkpt lat="41.055437" lon="-6.767523">
        <ele>501</ele>
        <time>1970-01-01T02:20:26.000Z</time>
      </trkpt>
      <trkpt lat="41.055477" lon="-6.76752">
        <ele>501.2</ele>
        <time>1970-01-01T02:20:27.000Z</time>
      </trkpt>
      <trkpt lat="41.055515" lon="-6.767516">
        <ele>501.3</ele>
        <time>1970-01-01T02:20:28.000Z</time>
      </trkpt>
      <trkpt lat="41.055551" lon="-6.767509">
        <ele>501.5</ele>
        <time>1970-01-01T02:20:29.000Z</time>
      </trkpt>
      <trkpt lat="41.055585" lon="-6.767504">
        <ele>501.6</ele>
        <time>1970-01-01T02:20:30.000Z</time>
      </trkpt>
      <trkpt lat="41.055618" lon="-6.7675">
        <ele>501.8</ele>
        <time>1970-01-01T02:20:31.000Z</time>
      </trkpt>
      <trkpt lat="41.05565" lon="-6.767496">
        <ele>501.9</ele>
        <time>1970-01-01T02:20:32.000Z</time>
      </trkpt>
      <trkpt lat="41.055681" lon="-6.767491">
        <ele>502</ele>
        <time>1970-01-01T02:20:33.000Z</time>
      </trkpt>
      <trkpt lat="41.055712" lon="-6.767485">
        <ele>502.2</ele>
        <time>1970-01-01T02:20:34.000Z</time>
      </trkpt>
      <trkpt lat="41.055743" lon="-6.767478">
        <ele>502.3</ele>
        <time>1970-01-01T02:20:35.000Z</time>
      </trkpt>
      <trkpt lat="41.055774" lon="-6.76747">
        <ele>502.4</ele>
        <time>1970-01-01T02:20:36.000Z</time>
      </trkpt>
      <trkpt lat="41.055803" lon="-6.767462">
        <ele>502.6</ele>
        <time>1970-01-01T02:20:37.000Z</time>
      </trkpt>
      <trkpt lat="41.055831" lon="-6.767455">
        <ele>502.7</ele>
        <time>1970-01-01T02:20:38.000Z</time>
      </trkpt>
      <trkpt lat="41.055859" lon="-6.767448">
        <ele>502.8</ele>
        <time>1970-01-01T02:20:39.000Z</time>
      </trkpt>
      <trkpt lat="41.055885" lon="-6.767442">
        <ele>502.9</ele>
        <time>1970-01-01T02:20:40.000Z</time>
      </trkpt>
      <trkpt lat="41.055911" lon="-6.767434">
        <ele>503</ele>
        <time>1970-01-01T02:20:41.000Z</time>
      </trkpt>
      <trkpt lat="41.055936" lon="-6.767426">
        <ele>503.1</ele>
        <time>1970-01-01T02:20:42.000Z</time>
      </trkpt>
      <trkpt lat="41.055962" lon="-6.767416">
        <ele>503.3</ele>
        <time>1970-01-01T02:20:43.000Z</time>
      </trkpt>
      <trkpt lat="41.055987" lon="-6.767405">
        <ele>503.4</ele>
        <time>1970-01-01T02:20:44.000Z</time>
      </trkpt>
      <trkpt lat="41.056013" lon="-6.767393">
        <ele>503.5</ele>
        <time>1970-01-01T02:20:45.000Z</time>
      </trkpt>
      <trkpt lat="41.056039" lon="-6.767381">
        <ele>503.6</ele>
        <time>1970-01-01T02:20:46.000Z</time>
      </trkpt>
      <trkpt lat="41.056066" lon="-6.767365">
        <ele>503.7</ele>
        <time>1970-01-01T02:20:47.000Z</time>
      </trkpt>
      <trkpt lat="41.05609" lon="-6.767346">
        <ele>503.8</ele>
        <time>1970-01-01T02:20:48.000Z</time>
      </trkpt>
      <trkpt lat="41.056113" lon="-6.767323">
        <ele>504</ele>
        <time>1970-01-01T02:20:49.000Z</time>
      </trkpt>
      <trkpt lat="41.056134" lon="-6.767299">
        <ele>504.1</ele>
        <time>1970-01-01T02:20:50.000Z</time>
      </trkpt>
      <trkpt lat="41.056154" lon="-6.767275">
        <ele>504.2</ele>
        <time>1970-01-01T02:20:51.000Z</time>
      </trkpt>
      <trkpt lat="41.056174" lon="-6.767251">
        <ele>504.3</ele>
        <time>1970-01-01T02:20:52.000Z</time>
      </trkpt>
      <trkpt lat="41.056194" lon="-6.767226">
        <ele>504.4</ele>
        <time>1970-01-01T02:20:53.000Z</time>
      </trkpt>
      <trkpt lat="41.056214" lon="-6.767201">
        <ele>504.6</ele>
        <time>1970-01-01T02:20:54.000Z</time>
      </trkpt>
      <trkpt lat="41.056233" lon="-6.767174">
        <ele>504.7</ele>
        <time>1970-01-01T02:20:55.000Z</time>
      </trkpt>
      <trkpt lat="41.056252" lon="-6.767146">
        <ele>504.8</ele>
        <time>1970-01-01T02:20:56.000Z</time>
      </trkpt>
      <trkpt lat="41.056272" lon="-6.767117">
        <ele>504.9</ele>
        <time>1970-01-01T02:20:57.000Z</time>
      </trkpt>
      <trkpt lat="41.056291" lon="-6.767087">
        <ele>505</ele>
        <time>1970-01-01T02:20:58.000Z</time>
      </trkpt>
      <trkpt lat="41.05631" lon="-6.767057">
        <ele>505.2</ele>
        <time>1970-01-01T02:20:59.000Z</time>
      </trkpt>
      <trkpt lat="41.056329" lon="-6.767026">
        <ele>505.3</ele>
        <time>1970-01-01T02:21:00.000Z</time>
      </trkpt>
      <trkpt lat="41.056348" lon="-6.766994">
        <ele>505.4</ele>
        <time>1970-01-01T02:21:01.000Z</time>
      </trkpt>
      <trkpt lat="41.056368" lon="-6.766962">
        <ele>505.6</ele>
        <time>1970-01-01T02:21:02.000Z</time>
      </trkpt>
      <trkpt lat="41.056387" lon="-6.76693">
        <ele>505.7</ele>
        <time>1970-01-01T02:21:03.000Z</time>
      </trkpt>
      <trkpt lat="41.056408" lon="-6.766898">
        <ele>505.8</ele>
        <time>1970-01-01T02:21:04.000Z</time>
      </trkpt>
      <trkpt lat="41.056428" lon="-6.766867">
        <ele>506</ele>
        <time>1970-01-01T02:21:05.000Z</time>
      </trkpt>
      <trkpt lat="41.056447" lon="-6.766838">
        <ele>506.1</ele>
        <time>1970-01-01T02:21:06.000Z</time>
      </trkpt>
      <trkpt lat="41.056465" lon="-6.766808">
        <ele>506.2</ele>
        <time>1970-01-01T02:21:07.000Z</time>
      </trkpt>
      <trkpt lat="41.056483" lon="-6.766778">
        <ele>506.3</ele>
        <time>1970-01-01T02:21:08.000Z</time>
      </trkpt>
      <trkpt lat="41.056501" lon="-6.766748">
        <ele>506.5</ele>
        <time>1970-01-01T02:21:09.000Z</time>
      </trkpt>
      <trkpt lat="41.056521" lon="-6.766717">
        <ele>506.6</ele>
        <time>1970-01-01T02:21:10.000Z</time>
      </trkpt>
      <trkpt lat="41.05654" lon="-6.766686">
        <ele>506.7</ele>
        <time>1970-01-01T02:21:11.000Z</time>
      </trkpt>
      <trkpt lat="41.056559" lon="-6.766654">
        <ele>506.9</ele>
        <time>1970-01-01T02:21:12.000Z</time>
      </trkpt>
      <trkpt lat="41.056576" lon="-6.766622">
        <ele>507</ele>
        <time>1970-01-01T02:21:13.000Z</time>
      </trkpt>
      <trkpt lat="41.056593" lon="-6.76659">
        <ele>507.1</ele>
        <time>1970-01-01T02:21:14.000Z</time>
      </trkpt>
      <trkpt lat="41.056609" lon="-6.766558">
        <ele>507.2</ele>
        <time>1970-01-01T02:21:15.000Z</time>
      </trkpt>
      <trkpt lat="41.056625" lon="-6.766525">
        <ele>507.4</ele>
        <time>1970-01-01T02:21:16.000Z</time>
      </trkpt>
      <trkpt lat="41.056642" lon="-6.76649">
        <ele>507.5</ele>
        <time>1970-01-01T02:21:17.000Z</time>
      </trkpt>
      <trkpt lat="41.056658" lon="-6.766455">
        <ele>507.6</ele>
        <time>1970-01-01T02:21:18.000Z</time>
      </trkpt>
      <trkpt lat="41.056674" lon="-6.766421">
        <ele>507.8</ele>
        <time>1970-01-01T02:21:19.000Z</time>
      </trkpt>
      <trkpt lat="41.056691" lon="-6.766387">
        <ele>507.9</ele>
        <time>1970-01-01T02:21:20.000Z</time>
      </trkpt>
      <trkpt lat="41.056707" lon="-6.766353">
        <ele>508</ele>
        <time>1970-01-01T02:21:21.000Z</time>
      </trkpt>
      <trkpt lat="41.056724" lon="-6.766319">
        <ele>508.1</ele>
        <time>1970-01-01T02:21:22.000Z</time>
      </trkpt>
      <trkpt lat="41.05674" lon="-6.766285">
        <ele>508.3</ele>
        <time>1970-01-01T02:21:23.000Z</time>
      </trkpt>
      <trkpt lat="41.056756" lon="-6.766251">
        <ele>508.4</ele>
        <time>1970-01-01T02:21:24.000Z</time>
      </trkpt>
      <trkpt lat="41.056772" lon="-6.766217">
        <ele>508.5</ele>
        <time>1970-01-01T02:21:25.000Z</time>
      </trkpt>
      <trkpt lat="41.056789" lon="-6.766184">
        <ele>508.7</ele>
        <time>1970-01-01T02:21:26.000Z</time>
      </trkpt>
      <trkpt lat="41.056807" lon="-6.76615">
        <ele>508.8</ele>
        <time>1970-01-01T02:21:27.000Z</time>
      </trkpt>
      <trkpt lat="41.056824" lon="-6.766117">
        <ele>508.9</ele>
        <time>1970-01-01T02:21:28.000Z</time>
      </trkpt>
      <trkpt lat="41.05684" lon="-6.766084">
        <ele>509.1</ele>
        <time>1970-01-01T02:21:29.000Z</time>
      </trkpt>
      <trkpt lat="41.056856" lon="-6.766051">
        <ele>509.2</ele>
        <time>1970-01-01T02:21:30.000Z</time>
      </trkpt>
      <trkpt lat="41.056872" lon="-6.766017">
        <ele>509.3</ele>
        <time>1970-01-01T02:21:31.000Z</time>
      </trkpt>
      <trkpt lat="41.056887" lon="-6.765984">
        <ele>509.4</ele>
        <time>1970-01-01T02:21:32.000Z</time>
      </trkpt>
      <trkpt lat="41.056901" lon="-6.76595">
        <ele>509.6</ele>
        <time>1970-01-01T02:21:33.000Z</time>
      </trkpt>
      <trkpt lat="41.056914" lon="-6.765915">
        <ele>509.7</ele>
        <time>1970-01-01T02:21:34.000Z</time>
      </trkpt>
      <trkpt lat="41.056927" lon="-6.765881">
        <ele>509.8</ele>
        <time>1970-01-01T02:21:35.000Z</time>
      </trkpt>
      <trkpt lat="41.05694" lon="-6.765848">
        <ele>509.9</ele>
        <time>1970-01-01T02:21:36.000Z</time>
      </trkpt>
      <trkpt lat="41.056953" lon="-6.765814">
        <ele>510</ele>
        <time>1970-01-01T02:21:37.000Z</time>
      </trkpt>
      <trkpt lat="41.056965" lon="-6.76578">
        <ele>510.2</ele>
        <time>1970-01-01T02:21:38.000Z</time>
      </trkpt>
      <trkpt lat="41.056977" lon="-6.765747">
        <ele>510.3</ele>
        <time>1970-01-01T02:21:39.000Z</time>
      </trkpt>
      <trkpt lat="41.056986" lon="-6.765714">
        <ele>510.4</ele>
        <time>1970-01-01T02:21:40.000Z</time>
      </trkpt>
      <trkpt lat="41.056993" lon="-6.765681">
        <ele>510.5</ele>
        <time>1970-01-01T02:21:41.000Z</time>
      </trkpt>
      <trkpt lat="41.057" lon="-6.765647">
        <ele>510.6</ele>
        <time>1970-01-01T02:21:42.000Z</time>
      </trkpt>
      <trkpt lat="41.057007" lon="-6.765612">
        <ele>510.7</ele>
        <time>1970-01-01T02:21:43.000Z</time>
      </trkpt>
      <trkpt lat="41.057015" lon="-6.765579">
        <ele>510.9</ele>
        <time>1970-01-01T02:21:44.000Z</time>
      </trkpt>
      <trkpt lat="41.057024" lon="-6.765546">
        <ele>511</ele>
        <time>1970-01-01T02:21:45.000Z</time>
      </trkpt>
      <trkpt lat="41.057033" lon="-6.765514">
        <ele>511.1</ele>
        <time>1970-01-01T02:21:46.000Z</time>
      </trkpt>
      <trkpt lat="41.05704" lon="-6.765482">
        <ele>511.2</ele>
        <time>1970-01-01T02:21:47.000Z</time>
      </trkpt>
      <trkpt lat="41.057046" lon="-6.765448">
        <ele>511.3</ele>
        <time>1970-01-01T02:21:48.000Z</time>
      </trkpt>
      <trkpt lat="41.057051" lon="-6.765414">
        <ele>511.4</ele>
        <time>1970-01-01T02:21:49.000Z</time>
      </trkpt>
      <trkpt lat="41.057057" lon="-6.765379">
        <ele>511.5</ele>
        <time>1970-01-01T02:21:50.000Z</time>
      </trkpt>
      <trkpt lat="41.057064" lon="-6.765346">
        <ele>511.6</ele>
        <time>1970-01-01T02:21:51.000Z</time>
      </trkpt>
      <trkpt lat="41.057071" lon="-6.765312">
        <ele>511.7</ele>
        <time>1970-01-01T02:21:52.000Z</time>
      </trkpt>
      <trkpt lat="41.05708" lon="-6.765277">
        <ele>511.9</ele>
        <time>1970-01-01T02:21:53.000Z</time>
      </trkpt>
      <trkpt lat="41.057089" lon="-6.765242">
        <ele>512</ele>
        <time>1970-01-01T02:21:54.000Z</time>
      </trkpt>
      <trkpt lat="41.057098" lon="-6.765205">
        <ele>512.1</ele>
        <time>1970-01-01T02:21:55.000Z</time>
      </trkpt>
      <trkpt lat="41.057106" lon="-6.76517">
        <ele>512.2</ele>
        <time>1970-01-01T02:21:56.000Z</time>
      </trkpt>
      <trkpt lat="41.057115" lon="-6.765134">
        <ele>512.4</ele>
        <time>1970-01-01T02:21:57.000Z</time>
      </trkpt>
      <trkpt lat="41.057123" lon="-6.765099">
        <ele>512.5</ele>
        <time>1970-01-01T02:21:58.000Z</time>
      </trkpt>
      <trkpt lat="41.057131" lon="-6.765063">
        <ele>512.6</ele>
        <time>1970-01-01T02:21:59.000Z</time>
      </trkpt>
      <trkpt lat="41.057139" lon="-6.765027">
        <ele>512.7</ele>
        <time>1970-01-01T02:22:00.000Z</time>
      </trkpt>
      <trkpt lat="41.057145" lon="-6.764991">
        <ele>512.8</ele>
        <time>1970-01-01T02:22:01.000Z</time>
      </trkpt>
      <trkpt lat="41.057152" lon="-6.764954">
        <ele>513</ele>
        <time>1970-01-01T02:22:02.000Z</time>
      </trkpt>
      <trkpt lat="41.057159" lon="-6.764918">
        <ele>513.1</ele>
        <time>1970-01-01T02:22:03.000Z</time>
      </trkpt>
      <trkpt lat="41.057165" lon="-6.764882">
        <ele>513.2</ele>
        <time>1970-01-01T02:22:04.000Z</time>
      </trkpt>
      <trkpt lat="41.057172" lon="-6.764847">
        <ele>513.3</ele>
        <time>1970-01-01T02:22:05.000Z</time>
      </trkpt>
      <trkpt lat="41.057179" lon="-6.76481">
        <ele>513.4</ele>
        <time>1970-01-01T02:22:06.000Z</time>
      </trkpt>
      <trkpt lat="41.057186" lon="-6.764774">
        <ele>513.5</ele>
        <time>1970-01-01T02:22:07.000Z</time>
      </trkpt>
      <trkpt lat="41.057191" lon="-6.76474">
        <ele>513.7</ele>
        <time>1970-01-01T02:22:08.000Z</time>
      </trkpt>
      <trkpt lat="41.057195" lon="-6.764706">
        <ele>513.8</ele>
        <time>1970-01-01T02:22:09.000Z</time>
      </trkpt>
      <trkpt lat="41.0572" lon="-6.76467">
        <ele>513.9</ele>
        <time>1970-01-01T02:22:10.000Z</time>
      </trkpt>
      <trkpt lat="41.057205" lon="-6.764632">
        <ele>514</ele>
        <time>1970-01-01T02:22:11.000Z</time>
      </trkpt>
      <trkpt lat="41.057209" lon="-6.764593">
        <ele>514.1</ele>
        <time>1970-01-01T02:22:12.000Z</time>
      </trkpt>
      <trkpt lat="41.057211" lon="-6.764556">
        <ele>514.3</ele>
        <time>1970-01-01T02:22:13.000Z</time>
      </trkpt>
      <trkpt lat="41.057213" lon="-6.76452">
        <ele>514.4</ele>
        <time>1970-01-01T02:22:14.000Z</time>
      </trkpt>
      <trkpt lat="41.057212" lon="-6.764485">
        <ele>514.5</ele>
        <time>1970-01-01T02:22:15.000Z</time>
      </trkpt>
      <trkpt lat="41.057213" lon="-6.76445">
        <ele>514.6</ele>
        <time>1970-01-01T02:22:16.000Z</time>
      </trkpt>
      <trkpt lat="41.057214" lon="-6.764416">
        <ele>514.7</ele>
        <time>1970-01-01T02:22:17.000Z</time>
      </trkpt>
      <trkpt lat="41.057217" lon="-6.76438">
        <ele>514.8</ele>
        <time>1970-01-01T02:22:18.000Z</time>
      </trkpt>
      <trkpt lat="41.057219" lon="-6.764345">
        <ele>514.9</ele>
        <time>1970-01-01T02:22:19.000Z</time>
      </trkpt>
      <trkpt lat="41.057219" lon="-6.76431">
        <ele>515.1</ele>
        <time>1970-01-01T02:22:20.000Z</time>
      </trkpt>
      <trkpt lat="41.057219" lon="-6.764275">
        <ele>515.2</ele>
        <time>1970-01-01T02:22:21.000Z</time>
      </trkpt>
      <trkpt lat="41.057219" lon="-6.76424">
        <ele>515.3</ele>
        <time>1970-01-01T02:22:22.000Z</time>
      </trkpt>
      <trkpt lat="41.05722" lon="-6.764205">
        <ele>515.4</ele>
        <time>1970-01-01T02:22:23.000Z</time>
      </trkpt>
      <trkpt lat="41.057221" lon="-6.764169">
        <ele>515.5</ele>
        <time>1970-01-01T02:22:24.000Z</time>
      </trkpt>
      <trkpt lat="41.057223" lon="-6.764133">
        <ele>515.6</ele>
        <time>1970-01-01T02:22:25.000Z</time>
      </trkpt>
      <trkpt lat="41.057223" lon="-6.764097">
        <ele>515.7</ele>
        <time>1970-01-01T02:22:26.000Z</time>
      </trkpt>
      <trkpt lat="41.057224" lon="-6.764062">
        <ele>515.9</ele>
        <time>1970-01-01T02:22:27.000Z</time>
      </trkpt>
      <trkpt lat="41.057224" lon="-6.764028">
        <ele>516</ele>
        <time>1970-01-01T02:22:28.000Z</time>
      </trkpt>
      <trkpt lat="41.057224" lon="-6.763993">
        <ele>516.1</ele>
        <time>1970-01-01T02:22:29.000Z</time>
      </trkpt>
      <trkpt lat="41.057226" lon="-6.763957">
        <ele>516.2</ele>
        <time>1970-01-01T02:22:30.000Z</time>
      </trkpt>
      <trkpt lat="41.057229" lon="-6.763919">
        <ele>516.3</ele>
        <time>1970-01-01T02:22:31.000Z</time>
      </trkpt>
      <trkpt lat="41.057233" lon="-6.763882">
        <ele>516.4</ele>
        <time>1970-01-01T02:22:32.000Z</time>
      </trkpt>
      <trkpt lat="41.057236" lon="-6.763845">
        <ele>516.6</ele>
        <time>1970-01-01T02:22:33.000Z</time>
      </trkpt>
      <trkpt lat="41.057238" lon="-6.763807">
        <ele>516.7</ele>
        <time>1970-01-01T02:22:34.000Z</time>
      </trkpt>
      <trkpt lat="41.05724" lon="-6.763769">
        <ele>516.8</ele>
        <time>1970-01-01T02:22:35.000Z</time>
      </trkpt>
      <trkpt lat="41.057242" lon="-6.763731">
        <ele>516.9</ele>
        <time>1970-01-01T02:22:36.000Z</time>
      </trkpt>
      <trkpt lat="41.057245" lon="-6.763692">
        <ele>517.1</ele>
        <time>1970-01-01T02:22:37.000Z</time>
      </trkpt>
      <trkpt lat="41.057249" lon="-6.763654">
        <ele>517.2</ele>
        <time>1970-01-01T02:22:38.000Z</time>
      </trkpt>
      <trkpt lat="41.057254" lon="-6.763617">
        <ele>517.3</ele>
        <time>1970-01-01T02:22:39.000Z</time>
      </trkpt>
      <trkpt lat="41.057257" lon="-6.763579">
        <ele>517.4</ele>
        <time>1970-01-01T02:22:40.000Z</time>
      </trkpt>
      <trkpt lat="41.057261" lon="-6.763542">
        <ele>517.5</ele>
        <time>1970-01-01T02:22:41.000Z</time>
      </trkpt>
      <trkpt lat="41.057266" lon="-6.763504">
        <ele>517.7</ele>
        <time>1970-01-01T02:22:42.000Z</time>
      </trkpt>
      <trkpt lat="41.057271" lon="-6.763467">
        <ele>517.8</ele>
        <time>1970-01-01T02:22:43.000Z</time>
      </trkpt>
      <trkpt lat="41.057276" lon="-6.76343">
        <ele>517.9</ele>
        <time>1970-01-01T02:22:44.000Z</time>
      </trkpt>
      <trkpt lat="41.057281" lon="-6.763395">
        <ele>518</ele>
        <time>1970-01-01T02:22:45.000Z</time>
      </trkpt>
      <trkpt lat="41.057287" lon="-6.763361">
        <ele>518.1</ele>
        <time>1970-01-01T02:22:46.000Z</time>
      </trkpt>
      <trkpt lat="41.057292" lon="-6.763332">
        <ele>518.2</ele>
        <time>1970-01-01T02:22:47.000Z</time>
      </trkpt>
      <trkpt lat="41.057295" lon="-6.763308">
        <ele>518.3</ele>
        <time>1970-01-01T02:22:48.000Z</time>
      </trkpt>
      <trkpt lat="41.057298" lon="-6.76329">
        <ele>518.4</ele>
        <time>1970-01-01T02:22:49.000Z</time>
      </trkpt>
      <trkpt lat="41.0573" lon="-6.763274">
        <ele>518.4</ele>
        <time>1970-01-01T02:22:50.000Z</time>
      </trkpt>
      <trkpt lat="41.057301" lon="-6.763262">
        <ele>518.5</ele>
        <time>1970-01-01T02:22:51.000Z</time>
      </trkpt>
      <trkpt lat="41.057303" lon="-6.763249">
        <ele>518.5</ele>
        <time>1970-01-01T02:22:52.000Z</time>
      </trkpt>
      <trkpt lat="41.057305" lon="-6.763236">
        <ele>518.5</ele>
        <time>1970-01-01T02:22:53.000Z</time>
      </trkpt>
      <trkpt lat="41.057308" lon="-6.76322">
        <ele>518.6</ele>
        <time>1970-01-01T02:22:54.000Z</time>
      </trkpt>
      <trkpt lat="41.057311" lon="-6.763202">
        <ele>518.7</ele>
        <time>1970-01-01T02:22:55.000Z</time>
      </trkpt>
      <trkpt lat="41.057314" lon="-6.763182">
        <ele>518.7</ele>
        <time>1970-01-01T02:22:56.000Z</time>
      </trkpt>
      <trkpt lat="41.057317" lon="-6.763164">
        <ele>518.8</ele>
        <time>1970-01-01T02:22:57.000Z</time>
      </trkpt>
      <trkpt lat="41.057322" lon="-6.763149">
        <ele>518.8</ele>
        <time>1970-01-01T02:22:58.000Z</time>
      </trkpt>
      <trkpt lat="41.057326" lon="-6.763138">
        <ele>518.9</ele>
        <time>1970-01-01T02:22:59.000Z</time>
      </trkpt>
      <trkpt lat="41.057328" lon="-6.76313">
        <ele>518.9</ele>
        <time>1970-01-01T02:23:00.000Z</time>
      </trkpt>
      <trkpt lat="41.057327" lon="-6.763125">
        <ele>518.9</ele>
        <time>1970-01-01T02:23:01.000Z</time>
      </trkpt>
      <trkpt lat="41.057327" lon="-6.763124">
        <ele>518.9</ele>
        <time>1970-01-01T02:23:02.000Z</time>
      </trkpt>
      <trkpt lat="41.057326" lon="-6.763124">
        <ele>518.9</ele>
        <time>1970-01-01T02:23:03.000Z</time>
      </trkpt>
      <trkpt lat="41.057326" lon="-6.763124">
        <ele>518.9</ele>
        <time>1970-01-01T02:23:04.000Z</time>
      </trkpt>
      <trkpt lat="41.057326" lon="-6.763123">
        <ele>518.9</ele>
        <time>1970-01-01T02:23:05.000Z</time>
      </trkpt>
      <trkpt lat="41.057326" lon="-6.763121">
        <ele>518.9</ele>
        <time>1970-01-01T02:23:06.000Z</time>
      </trkpt>
      <trkpt lat="41.057327" lon="-6.763119">
        <ele>518.9</ele>
        <time>1970-01-01T02:23:07.000Z</time>
      </trkpt>
      <trkpt lat="41.057349" lon="-6.763093">
        <ele>519.1</ele>
        <time>1970-01-01T02:23:08.000Z</time>
      </trkpt>
      <trkpt lat="41.05735" lon="-6.763097">
        <ele>519.1</ele>
        <time>1970-01-01T02:23:09.000Z</time>
      </trkpt>
      <trkpt lat="41.057352" lon="-6.763103">
        <ele>519.1</ele>
        <time>1970-01-01T02:23:49.000Z</time>
      </trkpt>
      <trkpt lat="41.057357" lon="-6.763112">
        <ele>519.1</ele>
        <time>1970-01-01T02:23:50.000Z</time>
      </trkpt>
      <trkpt lat="41.057366" lon="-6.76313">
        <ele>519.2</ele>
        <time>1970-01-01T02:23:51.000Z</time>
      </trkpt>
      <trkpt lat="41.05738" lon="-6.763156">
        <ele>518.4</ele>
        <time>1970-01-01T02:23:52.000Z</time>
      </trkpt>
      <trkpt lat="41.057407" lon="-6.763192">
        <ele>517.9</ele>
        <time>1970-01-01T02:23:53.000Z</time>
      </trkpt>
      <trkpt lat="41.057444" lon="-6.763236">
        <ele>517.2</ele>
        <time>1970-01-01T02:23:54.000Z</time>
      </trkpt>
      <trkpt lat="41.057496" lon="-6.763294">
        <ele>516.1</ele>
        <time>1970-01-01T02:23:55.000Z</time>
      </trkpt>
      <trkpt lat="41.057553" lon="-6.763356">
        <ele>514.8</ele>
        <time>1970-01-01T02:23:56.000Z</time>
      </trkpt>
      <trkpt lat="41.057616" lon="-6.763423">
        <ele>513.5</ele>
        <time>1970-01-01T02:23:57.000Z</time>
      </trkpt>
      <trkpt lat="41.057686" lon="-6.763487">
        <ele>512.2</ele>
        <time>1970-01-01T02:23:58.000Z</time>
      </trkpt>
      <trkpt lat="41.057762" lon="-6.76355">
        <ele>511</ele>
        <time>1970-01-01T02:23:59.000Z</time>
      </trkpt>
      <trkpt lat="41.057846" lon="-6.76361">
        <ele>509.9</ele>
        <time>1970-01-01T02:24:00.000Z</time>
      </trkpt>
      <trkpt lat="41.057933" lon="-6.763668">
        <ele>509</ele>
        <time>1970-01-01T02:24:01.000Z</time>
      </trkpt>
      <trkpt lat="41.05802" lon="-6.763731">
        <ele>508.1</ele>
        <time>1970-01-01T02:24:02.000Z</time>
      </trkpt>
      <trkpt lat="41.058101" lon="-6.763806">
        <ele>507.3</ele>
        <time>1970-01-01T02:24:03.000Z</time>
      </trkpt>
      <trkpt lat="41.058174" lon="-6.763893">
        <ele>506.8</ele>
        <time>1970-01-01T02:24:04.000Z</time>
      </trkpt>
      <trkpt lat="41.058241" lon="-6.763989">
        <ele>506.2</ele>
        <time>1970-01-01T02:24:05.000Z</time>
      </trkpt>
      <trkpt lat="41.058296" lon="-6.764091">
        <ele>506</ele>
        <time>1970-01-01T02:24:06.000Z</time>
      </trkpt>
      <trkpt lat="41.058341" lon="-6.764197">
        <ele>505.9</ele>
        <time>1970-01-01T02:24:07.000Z</time>
      </trkpt>
      <trkpt lat="41.058372" lon="-6.764305">
        <ele>505.8</ele>
        <time>1970-01-01T02:24:08.000Z</time>
      </trkpt>
      <trkpt lat="41.058396" lon="-6.764407">
        <ele>505.6</ele>
        <time>1970-01-01T02:24:09.000Z</time>
      </trkpt>
      <trkpt lat="41.058415" lon="-6.7645">
        <ele>505.4</ele>
        <time>1970-01-01T02:24:10.000Z</time>
      </trkpt>
      <trkpt lat="41.058429" lon="-6.764585">
        <ele>505.2</ele>
        <time>1970-01-01T02:24:11.000Z</time>
      </trkpt>
      <trkpt lat="41.058441" lon="-6.764669">
        <ele>504.9</ele>
        <time>1970-01-01T02:24:12.000Z</time>
      </trkpt>
      <trkpt lat="41.058451" lon="-6.764753">
        <ele>504.7</ele>
        <time>1970-01-01T02:24:13.000Z</time>
      </trkpt>
      <trkpt lat="41.058462" lon="-6.764836">
        <ele>504.4</ele>
        <time>1970-01-01T02:24:14.000Z</time>
      </trkpt>
      <trkpt lat="41.058473" lon="-6.764921">
        <ele>504.1</ele>
        <time>1970-01-01T02:24:15.000Z</time>
      </trkpt>
      <trkpt lat="41.058482" lon="-6.765006">
        <ele>503.7</ele>
        <time>1970-01-01T02:24:16.000Z</time>
      </trkpt>
      <trkpt lat="41.058492" lon="-6.765093">
        <ele>503.4</ele>
        <time>1970-01-01T02:24:17.000Z</time>
      </trkpt>
      <trkpt lat="41.058502" lon="-6.765182">
        <ele>503.1</ele>
        <time>1970-01-01T02:24:18.000Z</time>
      </trkpt>
      <trkpt lat="41.058512" lon="-6.765272">
        <ele>502.9</ele>
        <time>1970-01-01T02:24:19.000Z</time>
      </trkpt>
      <trkpt lat="41.058523" lon="-6.765363">
        <ele>502.6</ele>
        <time>1970-01-01T02:24:20.000Z</time>
      </trkpt>
      <trkpt lat="41.058535" lon="-6.765455">
        <ele>502.4</ele>
        <time>1970-01-01T02:24:21.000Z</time>
      </trkpt>
      <trkpt lat="41.058548" lon="-6.765549">
        <ele>502.2</ele>
        <time>1970-01-01T02:24:22.000Z</time>
      </trkpt>
      <trkpt lat="41.05856" lon="-6.765642">
        <ele>502</ele>
        <time>1970-01-01T02:24:23.000Z</time>
      </trkpt>
      <trkpt lat="41.058573" lon="-6.765735">
        <ele>501.9</ele>
        <time>1970-01-01T02:24:24.000Z</time>
      </trkpt>
      <trkpt lat="41.058588" lon="-6.765821">
        <ele>501.7</ele>
        <time>1970-01-01T02:24:25.000Z</time>
      </trkpt>
      <trkpt lat="41.058604" lon="-6.765898">
        <ele>501.4</ele>
        <time>1970-01-01T02:24:26.000Z</time>
      </trkpt>
      <trkpt lat="41.05862" lon="-6.765965">
        <ele>501.1</ele>
        <time>1970-01-01T02:24:27.000Z</time>
      </trkpt>
      <trkpt lat="41.058635" lon="-6.766027">
        <ele>500.8</ele>
        <time>1970-01-01T02:24:28.000Z</time>
      </trkpt>
      <trkpt lat="41.058651" lon="-6.766081">
        <ele>500.4</ele>
        <time>1970-01-01T02:24:29.000Z</time>
      </trkpt>
      <trkpt lat="41.058667" lon="-6.766127">
        <ele>500.1</ele>
        <time>1970-01-01T02:24:30.000Z</time>
      </trkpt>
      <trkpt lat="41.058681" lon="-6.766164">
        <ele>499.9</ele>
        <time>1970-01-01T02:24:31.000Z</time>
      </trkpt>
      <trkpt lat="41.058691" lon="-6.766193">
        <ele>499.7</ele>
        <time>1970-01-01T02:24:32.000Z</time>
      </trkpt>
      <trkpt lat="41.058697" lon="-6.766218">
        <ele>499.5</ele>
        <time>1970-01-01T02:24:33.000Z</time>
      </trkpt>
      <trkpt lat="41.058702" lon="-6.766239">
        <ele>499.4</ele>
        <time>1970-01-01T02:24:34.000Z</time>
      </trkpt>
      <trkpt lat="41.058708" lon="-6.766257">
        <ele>499.3</ele>
        <time>1970-01-01T02:24:35.000Z</time>
      </trkpt>
      <trkpt lat="41.058714" lon="-6.766274">
        <ele>499.2</ele>
        <time>1970-01-01T02:24:36.000Z</time>
      </trkpt>
      <trkpt lat="41.05872" lon="-6.766289">
        <ele>499</ele>
        <time>1970-01-01T02:24:37.000Z</time>
      </trkpt>
      <trkpt lat="41.058727" lon="-6.766303">
        <ele>498.9</ele>
        <time>1970-01-01T02:24:38.000Z</time>
      </trkpt>
      <trkpt lat="41.058732" lon="-6.766315">
        <ele>498.8</ele>
        <time>1970-01-01T02:24:39.000Z</time>
      </trkpt>
      <trkpt lat="41.058736" lon="-6.766327">
        <ele>498.7</ele>
        <time>1970-01-01T02:24:40.000Z</time>
      </trkpt>
      <trkpt lat="41.058739" lon="-6.766338">
        <ele>498.7</ele>
        <time>1970-01-01T02:24:41.000Z</time>
      </trkpt>
      <trkpt lat="41.058743" lon="-6.766345">
        <ele>498.6</ele>
        <time>1970-01-01T02:24:42.000Z</time>
      </trkpt>
      <trkpt lat="41.058746" lon="-6.766349">
        <ele>498.6</ele>
        <time>1970-01-01T02:24:43.000Z</time>
      </trkpt>
      <trkpt lat="41.058748" lon="-6.76635">
        <ele>498.6</ele>
        <time>1970-01-01T02:24:44.000Z</time>
      </trkpt>
      <trkpt lat="41.058748" lon="-6.766351">
        <ele>498.5</ele>
        <time>1970-01-01T02:24:45.000Z</time>
      </trkpt>
      <trkpt lat="41.058748" lon="-6.766352">
        <ele>498.5</ele>
        <time>1970-01-01T02:24:46.000Z</time>
      </trkpt>
      <trkpt lat="41.058748" lon="-6.766353">
        <ele>498.5</ele>
        <time>1970-01-01T02:24:47.000Z</time>
      </trkpt>
      <trkpt lat="41.058749" lon="-6.766353">
        <ele>498.5</ele>
        <time>1970-01-01T02:24:48.000Z</time>
      </trkpt>
      <trkpt lat="41.058749" lon="-6.766352">
        <ele>498.5</ele>
        <time>1970-01-01T02:24:49.000Z</time>
      </trkpt>
      <trkpt lat="41.058765" lon="-6.766433">
        <ele>498</ele>
        <time>1970-01-01T02:24:50.000Z</time>
      </trkpt>
      <trkpt lat="41.058773" lon="-6.766457">
        <ele>497.8</ele>
        <time>1970-01-01T02:24:51.000Z</time>
      </trkpt>
      <trkpt lat="41.058781" lon="-6.766482">
        <ele>497.6</ele>
        <time>1970-01-01T02:25:02.000Z</time>
      </trkpt>
      <trkpt lat="41.05879" lon="-6.766508">
        <ele>497.5</ele>
        <time>1970-01-01T02:25:03.000Z</time>
      </trkpt>
      <trkpt lat="41.058799" lon="-6.766536">
        <ele>497.3</ele>
        <time>1970-01-01T02:25:04.000Z</time>
      </trkpt>
      <trkpt lat="41.05881" lon="-6.766565">
        <ele>497.1</ele>
        <time>1970-01-01T02:25:05.000Z</time>
      </trkpt>
      <trkpt lat="41.058823" lon="-6.766597">
        <ele>496.9</ele>
        <time>1970-01-01T02:25:06.000Z</time>
      </trkpt>
      <trkpt lat="41.058838" lon="-6.766635">
        <ele>496.7</ele>
        <time>1970-01-01T02:25:07.000Z</time>
      </trkpt>
      <trkpt lat="41.058853" lon="-6.76668">
        <ele>496.4</ele>
        <time>1970-01-01T02:25:08.000Z</time>
      </trkpt>
      <trkpt lat="41.058869" lon="-6.76673">
        <ele>496.1</ele>
        <time>1970-01-01T02:25:09.000Z</time>
      </trkpt>
      <trkpt lat="41.058883" lon="-6.76678">
        <ele>495.8</ele>
        <time>1970-01-01T02:25:10.000Z</time>
      </trkpt>
      <trkpt lat="41.058898" lon="-6.766828">
        <ele>495.5</ele>
        <time>1970-01-01T02:25:11.000Z</time>
      </trkpt>
      <trkpt lat="41.058912" lon="-6.76687">
        <ele>495.3</ele>
        <time>1970-01-01T02:25:12.000Z</time>
      </trkpt>
      <trkpt lat="41.058927" lon="-6.766911">
        <ele>495.1</ele>
        <time>1970-01-01T02:25:13.000Z</time>
      </trkpt>
      <trkpt lat="41.058941" lon="-6.766952">
        <ele>494.8</ele>
        <time>1970-01-01T02:25:14.000Z</time>
      </trkpt>
      <trkpt lat="41.058955" lon="-6.766993">
        <ele>494.6</ele>
        <time>1970-01-01T02:25:15.000Z</time>
      </trkpt>
      <trkpt lat="41.058967" lon="-6.767037">
        <ele>494.3</ele>
        <time>1970-01-01T02:25:16.000Z</time>
      </trkpt>
      <trkpt lat="41.05898" lon="-6.767081">
        <ele>494.1</ele>
        <time>1970-01-01T02:25:17.000Z</time>
      </trkpt>
      <trkpt lat="41.058995" lon="-6.767125">
        <ele>493.8</ele>
        <time>1970-01-01T02:25:18.000Z</time>
      </trkpt>
      <trkpt lat="41.059014" lon="-6.767169">
        <ele>493.5</ele>
        <time>1970-01-01T02:25:19.000Z</time>
      </trkpt>
      <trkpt lat="41.059036" lon="-6.767214">
        <ele>493.1</ele>
        <time>1970-01-01T02:25:20.000Z</time>
      </trkpt>
      <trkpt lat="41.059062" lon="-6.767259">
        <ele>492.7</ele>
        <time>1970-01-01T02:25:21.000Z</time>
      </trkpt>
      <trkpt lat="41.059091" lon="-6.767299">
        <ele>492.1</ele>
        <time>1970-01-01T02:25:22.000Z</time>
      </trkpt>
      <trkpt lat="41.059127" lon="-6.767332">
        <ele>491.4</ele>
        <time>1970-01-01T02:25:23.000Z</time>
      </trkpt>
      <trkpt lat="41.05917" lon="-6.767359">
        <ele>490.5</ele>
        <time>1970-01-01T02:25:24.000Z</time>
      </trkpt>
      <trkpt lat="41.059219" lon="-6.767381">
        <ele>489.6</ele>
        <time>1970-01-01T02:25:25.000Z</time>
      </trkpt>
      <trkpt lat="41.059272" lon="-6.7674">
        <ele>488.7</ele>
        <time>1970-01-01T02:25:26.000Z</time>
      </trkpt>
      <trkpt lat="41.059326" lon="-6.767414">
        <ele>487.9</ele>
        <time>1970-01-01T02:25:27.000Z</time>
      </trkpt>
      <trkpt lat="41.059383" lon="-6.767425">
        <ele>487.1</ele>
        <time>1970-01-01T02:25:28.000Z</time>
      </trkpt>
      <trkpt lat="41.059442" lon="-6.767433">
        <ele>486.5</ele>
        <time>1970-01-01T02:25:29.000Z</time>
      </trkpt>
      <trkpt lat="41.059503" lon="-6.767438">
        <ele>485.7</ele>
        <time>1970-01-01T02:25:30.000Z</time>
      </trkpt>
      <trkpt lat="41.059566" lon="-6.767444">
        <ele>484.8</ele>
        <time>1970-01-01T02:25:31.000Z</time>
      </trkpt>
      <trkpt lat="41.059628" lon="-6.767449">
        <ele>483.8</ele>
        <time>1970-01-01T02:25:32.000Z</time>
      </trkpt>
      <trkpt lat="41.059692" lon="-6.767453">
        <ele>482.5</ele>
        <time>1970-01-01T02:25:33.000Z</time>
      </trkpt>
      <trkpt lat="41.059756" lon="-6.767457">
        <ele>481.2</ele>
        <time>1970-01-01T02:25:34.000Z</time>
      </trkpt>
      <trkpt lat="41.059821" lon="-6.767459">
        <ele>480.2</ele>
        <time>1970-01-01T02:25:35.000Z</time>
      </trkpt>
      <trkpt lat="41.059887" lon="-6.767461">
        <ele>479.4</ele>
        <time>1970-01-01T02:25:36.000Z</time>
      </trkpt>
      <trkpt lat="41.059953" lon="-6.767459">
        <ele>478.8</ele>
        <time>1970-01-01T02:25:37.000Z</time>
      </trkpt>
      <trkpt lat="41.06002" lon="-6.767453">
        <ele>478.2</ele>
        <time>1970-01-01T02:25:38.000Z</time>
      </trkpt>
      <trkpt lat="41.060092" lon="-6.767442">
        <ele>480.3</ele>
        <time>1970-01-01T02:25:39.000Z</time>
      </trkpt>
      <trkpt lat="41.06017" lon="-6.767425">
        <ele>480.9</ele>
        <time>1970-01-01T02:25:40.000Z</time>
      </trkpt>
      <trkpt lat="41.060252" lon="-6.767404">
        <ele>480.7</ele>
        <time>1970-01-01T02:25:41.000Z</time>
      </trkpt>
      <trkpt lat="41.060335" lon="-6.767384">
        <ele>479.8</ele>
        <time>1970-01-01T02:25:42.000Z</time>
      </trkpt>
      <trkpt lat="41.060419" lon="-6.767369">
        <ele>478.9</ele>
        <time>1970-01-01T02:25:43.000Z</time>
      </trkpt>
      <trkpt lat="41.060502" lon="-6.767365">
        <ele>478.1</ele>
        <time>1970-01-01T02:25:44.000Z</time>
      </trkpt>
      <trkpt lat="41.060582" lon="-6.767376">
        <ele>476.9</ele>
        <time>1970-01-01T02:25:45.000Z</time>
      </trkpt>
      <trkpt lat="41.060658" lon="-6.767402">
        <ele>475.4</ele>
        <time>1970-01-01T02:25:46.000Z</time>
      </trkpt>
      <trkpt lat="41.06073" lon="-6.767439">
        <ele>473.9</ele>
        <time>1970-01-01T02:25:47.000Z</time>
      </trkpt>
      <trkpt lat="41.060795" lon="-6.767482">
        <ele>472.9</ele>
        <time>1970-01-01T02:25:48.000Z</time>
      </trkpt>
      <trkpt lat="41.060854" lon="-6.767527">
        <ele>472</ele>
        <time>1970-01-01T02:25:49.000Z</time>
      </trkpt>
      <trkpt lat="41.060907" lon="-6.767577">
        <ele>470.9</ele>
        <time>1970-01-01T02:25:50.000Z</time>
      </trkpt>
      <trkpt lat="41.060956" lon="-6.76763">
        <ele>469.6</ele>
        <time>1970-01-01T02:25:51.000Z</time>
      </trkpt>
      <trkpt lat="41.061001" lon="-6.767694">
        <ele>468.1</ele>
        <time>1970-01-01T02:25:52.000Z</time>
      </trkpt>
      <trkpt lat="41.061044" lon="-6.767762">
        <ele>466.7</ele>
        <time>1970-01-01T02:25:53.000Z</time>
      </trkpt>
      <trkpt lat="41.061085" lon="-6.767836">
        <ele>465.4</ele>
        <time>1970-01-01T02:25:54.000Z</time>
      </trkpt>
      <trkpt lat="41.061129" lon="-6.767905">
        <ele>464.4</ele>
        <time>1970-01-01T02:25:55.000Z</time>
      </trkpt>
      <trkpt lat="41.061175" lon="-6.767971">
        <ele>463.5</ele>
        <time>1970-01-01T02:25:56.000Z</time>
      </trkpt>
      <trkpt lat="41.06122" lon="-6.768033">
        <ele>462.9</ele>
        <time>1970-01-01T02:25:57.000Z</time>
      </trkpt>
      <trkpt lat="41.061265" lon="-6.768094">
        <ele>462.2</ele>
        <time>1970-01-01T02:25:58.000Z</time>
      </trkpt>
      <trkpt lat="41.061311" lon="-6.768155">
        <ele>461.4</ele>
        <time>1970-01-01T02:25:59.000Z</time>
      </trkpt>
      <trkpt lat="41.061357" lon="-6.768217">
        <ele>460.5</ele>
        <time>1970-01-01T02:26:00.000Z</time>
      </trkpt>
      <trkpt lat="41.061402" lon="-6.768278">
        <ele>459.7</ele>
        <time>1970-01-01T02:26:01.000Z</time>
      </trkpt>
      <trkpt lat="41.061448" lon="-6.76834">
        <ele>459</ele>
        <time>1970-01-01T02:26:02.000Z</time>
      </trkpt>
      <trkpt lat="41.061494" lon="-6.768401">
        <ele>458.2</ele>
        <time>1970-01-01T02:26:03.000Z</time>
      </trkpt>
      <trkpt lat="41.061539" lon="-6.768459">
        <ele>457.3</ele>
        <time>1970-01-01T02:26:04.000Z</time>
      </trkpt>
      <trkpt lat="41.061579" lon="-6.76851">
        <ele>456.3</ele>
        <time>1970-01-01T02:26:05.000Z</time>
      </trkpt>
      <trkpt lat="41.061612" lon="-6.768547">
        <ele>455.4</ele>
        <time>1970-01-01T02:26:06.000Z</time>
      </trkpt>
      <trkpt lat="41.061639" lon="-6.768572">
        <ele>454.7</ele>
        <time>1970-01-01T02:26:07.000Z</time>
      </trkpt>
      <trkpt lat="41.061663" lon="-6.768591">
        <ele>454.1</ele>
        <time>1970-01-01T02:26:08.000Z</time>
      </trkpt>
      <trkpt lat="41.061686" lon="-6.768611">
        <ele>453.5</ele>
        <time>1970-01-01T02:26:09.000Z</time>
      </trkpt>
      <trkpt lat="41.061706" lon="-6.768631">
        <ele>452.9</ele>
        <time>1970-01-01T02:26:10.000Z</time>
      </trkpt>
      <trkpt lat="41.06172" lon="-6.768648">
        <ele>452.5</ele>
        <time>1970-01-01T02:26:11.000Z</time>
      </trkpt>
      <trkpt lat="41.061728" lon="-6.768661">
        <ele>452.2</ele>
        <time>1970-01-01T02:26:12.000Z</time>
      </trkpt>
      <trkpt lat="41.061731" lon="-6.768665">
        <ele>452.1</ele>
        <time>1970-01-01T02:26:13.000Z</time>
      </trkpt>
      <trkpt lat="41.061734" lon="-6.768667">
        <ele>452</ele>
        <time>1970-01-01T02:26:14.000Z</time>
      </trkpt>
      <trkpt lat="41.061737" lon="-6.768668">
        <ele>451.9</ele>
        <time>1970-01-01T02:26:15.000Z</time>
      </trkpt>
      <trkpt lat="41.061742" lon="-6.768672">
        <ele>451.8</ele>
        <time>1970-01-01T02:26:16.000Z</time>
      </trkpt>
      <trkpt lat="41.061748" lon="-6.768674">
        <ele>451.7</ele>
        <time>1970-01-01T02:26:17.000Z</time>
      </trkpt>
      <trkpt lat="41.061754" lon="-6.768676">
        <ele>451.5</ele>
        <time>1970-01-01T02:26:18.000Z</time>
      </trkpt>
      <trkpt lat="41.061758" lon="-6.768677">
        <ele>451.4</ele>
        <time>1970-01-01T02:26:19.000Z</time>
      </trkpt>
      <trkpt lat="41.061761" lon="-6.768676">
        <ele>451.4</ele>
        <time>1970-01-01T02:26:20.000Z</time>
      </trkpt>
      <trkpt lat="41.061762" lon="-6.768675">
        <ele>451.3</ele>
        <time>1970-01-01T02:26:21.000Z</time>
      </trkpt>
      <trkpt lat="41.061763" lon="-6.768674">
        <ele>451.3</ele>
        <time>1970-01-01T02:26:22.000Z</time>
      </trkpt>
      <trkpt lat="41.061763" lon="-6.768674">
        <ele>451.3</ele>
        <time>1970-01-01T02:26:23.000Z</time>
      </trkpt>
      <trkpt lat="41.061763" lon="-6.768673">
        <ele>451.3</ele>
        <time>1970-01-01T02:26:24.000Z</time>
      </trkpt>
      <trkpt lat="41.061763" lon="-6.768673">
        <ele>451.3</ele>
        <time>1970-01-01T02:26:25.000Z</time>
      </trkpt>
      <trkpt lat="41.061763" lon="-6.768672">
        <ele>451.3</ele>
        <time>1970-01-01T02:26:26.000Z</time>
      </trkpt>
      <trkpt lat="41.06176" lon="-6.768675">
        <ele>451.2</ele>
        <time>1970-01-01T02:26:27.000Z</time>
      </trkpt>
      <trkpt lat="41.061759" lon="-6.768675">
        <ele>451.2</ele>
        <time>1970-01-01T02:26:28.000Z</time>
      </trkpt>
      <trkpt lat="41.06176" lon="-6.768675">
        <ele>451.1</ele>
        <time>1970-01-01T02:31:50.000Z</time>
      </trkpt>
      <trkpt lat="41.06176" lon="-6.768676">
        <ele>451.1</ele>
        <time>1970-01-01T02:31:51.000Z</time>
      </trkpt>
      <trkpt lat="41.06176" lon="-6.768676">
        <ele>451.1</ele>
        <time>1970-01-01T02:31:52.000Z</time>
      </trkpt>
      <trkpt lat="41.061761" lon="-6.768676">
        <ele>451.1</ele>
        <time>1970-01-01T02:31:53.000Z</time>
      </trkpt>
      <trkpt lat="41.061737" lon="-6.768721">
        <ele>450.1</ele>
        <time>1970-01-01T02:31:54.000Z</time>
      </trkpt>
      <trkpt lat="41.061727" lon="-6.768741">
        <ele>449.7</ele>
        <time>1970-01-01T02:31:55.000Z</time>
      </trkpt>
      <trkpt lat="41.061715" lon="-6.768764">
        <ele>449.2</ele>
        <time>1970-01-01T02:32:27.000Z</time>
      </trkpt>
      <trkpt lat="41.061705" lon="-6.768787">
        <ele>448.7</ele>
        <time>1970-01-01T02:32:28.000Z</time>
      </trkpt>
      <trkpt lat="41.061698" lon="-6.768814">
        <ele>448.2</ele>
        <time>1970-01-01T02:32:29.000Z</time>
      </trkpt>
      <trkpt lat="41.061693" lon="-6.768852">
        <ele>447.6</ele>
        <time>1970-01-01T02:32:30.000Z</time>
      </trkpt>
      <trkpt lat="41.061687" lon="-6.768907">
        <ele>446.7</ele>
        <time>1970-01-01T02:32:31.000Z</time>
      </trkpt>
      <trkpt lat="41.06168" lon="-6.768977">
        <ele>445.6</ele>
        <time>1970-01-01T02:32:32.000Z</time>
      </trkpt>
      <trkpt lat="41.061674" lon="-6.769059">
        <ele>444.5</ele>
        <time>1970-01-01T02:32:33.000Z</time>
      </trkpt>
      <trkpt lat="41.06167" lon="-6.769144">
        <ele>443.2</ele>
        <time>1970-01-01T02:32:34.000Z</time>
      </trkpt>
      <trkpt lat="41.061668" lon="-6.769232">
        <ele>442</ele>
        <time>1970-01-01T02:32:35.000Z</time>
      </trkpt>
      <trkpt lat="41.061666" lon="-6.769321">
        <ele>440.9</ele>
        <time>1970-01-01T02:32:36.000Z</time>
      </trkpt>
      <trkpt lat="41.061662" lon="-6.769412">
        <ele>439.9</ele>
        <time>1970-01-01T02:32:37.000Z</time>
      </trkpt>
      <trkpt lat="41.061653" lon="-6.769502">
        <ele>439.2</ele>
        <time>1970-01-01T02:32:38.000Z</time>
      </trkpt>
      <trkpt lat="41.061644" lon="-6.769591">
        <ele>438.7</ele>
        <time>1970-01-01T02:32:39.000Z</time>
      </trkpt>
      <trkpt lat="41.061637" lon="-6.769677">
        <ele>438.1</ele>
        <time>1970-01-01T02:32:40.000Z</time>
      </trkpt>
      <trkpt lat="41.061636" lon="-6.76976">
        <ele>437.3</ele>
        <time>1970-01-01T02:32:41.000Z</time>
      </trkpt>
      <trkpt lat="41.061642" lon="-6.769836">
        <ele>436.4</ele>
        <time>1970-01-01T02:32:42.000Z</time>
      </trkpt>
      <trkpt lat="41.061655" lon="-6.769908">
        <ele>435.5</ele>
        <time>1970-01-01T02:32:43.000Z</time>
      </trkpt>
      <trkpt lat="41.061676" lon="-6.769976">
        <ele>434.7</ele>
        <time>1970-01-01T02:32:44.000Z</time>
      </trkpt>
      <trkpt lat="41.061702" lon="-6.770041">
        <ele>433.9</ele>
        <time>1970-01-01T02:32:45.000Z</time>
      </trkpt>
      <trkpt lat="41.06173" lon="-6.770106">
        <ele>433</ele>
        <time>1970-01-01T02:32:46.000Z</time>
      </trkpt>
      <trkpt lat="41.061755" lon="-6.770169">
        <ele>432.1</ele>
        <time>1970-01-01T02:32:47.000Z</time>
      </trkpt>
      <trkpt lat="41.061771" lon="-6.770232">
        <ele>431.1</ele>
        <time>1970-01-01T02:32:48.000Z</time>
      </trkpt>
      <trkpt lat="41.061773" lon="-6.770288">
        <ele>430.2</ele>
        <time>1970-01-01T02:32:49.000Z</time>
      </trkpt>
      <trkpt lat="41.061758" lon="-6.770336">
        <ele>429.4</ele>
        <time>1970-01-01T02:32:50.000Z</time>
      </trkpt>
      <trkpt lat="41.06173" lon="-6.770374">
        <ele>428.5</ele>
        <time>1970-01-01T02:32:51.000Z</time>
      </trkpt>
      <trkpt lat="41.0617" lon="-6.770393">
        <ele>427.8</ele>
        <time>1970-01-01T02:32:52.000Z</time>
      </trkpt>
      <trkpt lat="41.061664" lon="-6.770389">
        <ele>427</ele>
        <time>1970-01-01T02:32:53.000Z</time>
      </trkpt>
      <trkpt lat="41.061622" lon="-6.770365">
        <ele>426</ele>
        <time>1970-01-01T02:32:54.000Z</time>
      </trkpt>
      <trkpt lat="41.061572" lon="-6.770329">
        <ele>424.7</ele>
        <time>1970-01-01T02:32:55.000Z</time>
      </trkpt>
      <trkpt lat="41.061519" lon="-6.770285">
        <ele>423.5</ele>
        <time>1970-01-01T02:32:56.000Z</time>
      </trkpt>
      <trkpt lat="41.061461" lon="-6.770236">
        <ele>422.5</ele>
        <time>1970-01-01T02:32:57.000Z</time>
      </trkpt>
      <trkpt lat="41.061401" lon="-6.770183">
        <ele>421.9</ele>
        <time>1970-01-01T02:32:58.000Z</time>
      </trkpt>
      <trkpt lat="41.061341" lon="-6.770127">
        <ele>421.4</ele>
        <time>1970-01-01T02:32:59.000Z</time>
      </trkpt>
      <trkpt lat="41.061286" lon="-6.770073">
        <ele>420.9</ele>
        <time>1970-01-01T02:33:00.000Z</time>
      </trkpt>
      <trkpt lat="41.06124" lon="-6.770024">
        <ele>420.2</ele>
        <time>1970-01-01T02:33:01.000Z</time>
      </trkpt>
      <trkpt lat="41.061204" lon="-6.769991">
        <ele>419.5</ele>
        <time>1970-01-01T02:33:02.000Z</time>
      </trkpt>
      <trkpt lat="41.061175" lon="-6.769979">
        <ele>418.9</ele>
        <time>1970-01-01T02:33:03.000Z</time>
      </trkpt>
      <trkpt lat="41.061152" lon="-6.769995">
        <ele>418.4</ele>
        <time>1970-01-01T02:33:04.000Z</time>
      </trkpt>
      <trkpt lat="41.061134" lon="-6.77003">
        <ele>417.6</ele>
        <time>1970-01-01T02:33:05.000Z</time>
      </trkpt>
      <trkpt lat="41.061126" lon="-6.770078">
        <ele>416.8</ele>
        <time>1970-01-01T02:33:06.000Z</time>
      </trkpt>
      <trkpt lat="41.061132" lon="-6.770139">
        <ele>415.8</ele>
        <time>1970-01-01T02:33:07.000Z</time>
      </trkpt>
      <trkpt lat="41.061149" lon="-6.770209">
        <ele>414.8</ele>
        <time>1970-01-01T02:33:08.000Z</time>
      </trkpt>
      <trkpt lat="41.061171" lon="-6.770291">
        <ele>413.5</ele>
        <time>1970-01-01T02:33:09.000Z</time>
      </trkpt>
      <trkpt lat="41.061198" lon="-6.770382">
        <ele>411.7</ele>
        <time>1970-01-01T02:33:10.000Z</time>
      </trkpt>
      <trkpt lat="41.06123" lon="-6.770487">
        <ele>409.6</ele>
        <time>1970-01-01T02:33:11.000Z</time>
      </trkpt>
      <trkpt lat="41.061265" lon="-6.770605">
        <ele>407.5</ele>
        <time>1970-01-01T02:33:12.000Z</time>
      </trkpt>
      <trkpt lat="41.061299" lon="-6.770724">
        <ele>406</ele>
        <time>1970-01-01T02:33:13.000Z</time>
      </trkpt>
      <trkpt lat="41.06133" lon="-6.770839">
        <ele>405.2</ele>
        <time>1970-01-01T02:33:14.000Z</time>
      </trkpt>
      <trkpt lat="41.061361" lon="-6.770947">
        <ele>404.6</ele>
        <time>1970-01-01T02:33:15.000Z</time>
      </trkpt>
      <trkpt lat="41.061396" lon="-6.771044">
        <ele>403.9</ele>
        <time>1970-01-01T02:33:16.000Z</time>
      </trkpt>
      <trkpt lat="41.061441" lon="-6.771126">
        <ele>403.2</ele>
        <time>1970-01-01T02:33:17.000Z</time>
      </trkpt>
      <trkpt lat="41.061497" lon="-6.771197">
        <ele>402.5</ele>
        <time>1970-01-01T02:33:18.000Z</time>
      </trkpt>
      <trkpt lat="41.06156" lon="-6.771259">
        <ele>401.9</ele>
        <time>1970-01-01T02:33:19.000Z</time>
      </trkpt>
      <trkpt lat="41.061624" lon="-6.771319">
        <ele>401.6</ele>
        <time>1970-01-01T02:33:20.000Z</time>
      </trkpt>
      <trkpt lat="41.061685" lon="-6.771372">
        <ele>401.2</ele>
        <time>1970-01-01T02:33:21.000Z</time>
      </trkpt>
      <trkpt lat="41.061739" lon="-6.77142">
        <ele>400.7</ele>
        <time>1970-01-01T02:33:22.000Z</time>
      </trkpt>
      <trkpt lat="41.061785" lon="-6.771463">
        <ele>400.1</ele>
        <time>1970-01-01T02:33:23.000Z</time>
      </trkpt>
      <trkpt lat="41.061816" lon="-6.771509">
        <ele>399.3</ele>
        <time>1970-01-01T02:33:24.000Z</time>
      </trkpt>
      <trkpt lat="41.061824" lon="-6.771553">
        <ele>398.7</ele>
        <time>1970-01-01T02:33:25.000Z</time>
      </trkpt>
      <trkpt lat="41.061811" lon="-6.771589">
        <ele>398.1</ele>
        <time>1970-01-01T02:33:26.000Z</time>
      </trkpt>
      <trkpt lat="41.061787" lon="-6.771617">
        <ele>397.5</ele>
        <time>1970-01-01T02:33:27.000Z</time>
      </trkpt>
      <trkpt lat="41.061749" lon="-6.771631">
        <ele>396.7</ele>
        <time>1970-01-01T02:33:28.000Z</time>
      </trkpt>
      <trkpt lat="41.061694" lon="-6.771635">
        <ele>395.6</ele>
        <time>1970-01-01T02:33:29.000Z</time>
      </trkpt>
      <trkpt lat="41.061623" lon="-6.771626">
        <ele>394.3</ele>
        <time>1970-01-01T02:33:30.000Z</time>
      </trkpt>
      <trkpt lat="41.061548" lon="-6.771608">
        <ele>392.9</ele>
        <time>1970-01-01T02:33:31.000Z</time>
      </trkpt>
      <trkpt lat="41.061473" lon="-6.771577">
        <ele>391.6</ele>
        <time>1970-01-01T02:33:32.000Z</time>
      </trkpt>
      <trkpt lat="41.0614" lon="-6.771534">
        <ele>390.5</ele>
        <time>1970-01-01T02:33:33.000Z</time>
      </trkpt>
      <trkpt lat="41.061334" lon="-6.771485">
        <ele>389.7</ele>
        <time>1970-01-01T02:33:34.000Z</time>
      </trkpt>
      <trkpt lat="41.061277" lon="-6.771442">
        <ele>389</ele>
        <time>1970-01-01T02:33:35.000Z</time>
      </trkpt>
      <trkpt lat="41.061229" lon="-6.771418">
        <ele>388.5</ele>
        <time>1970-01-01T02:33:36.000Z</time>
      </trkpt>
      <trkpt lat="41.061193" lon="-6.771422">
        <ele>388.1</ele>
        <time>1970-01-01T02:33:37.000Z</time>
      </trkpt>
      <trkpt lat="41.06117" lon="-6.77145">
        <ele>387.8</ele>
        <time>1970-01-01T02:33:38.000Z</time>
      </trkpt>
      <trkpt lat="41.061161" lon="-6.771496">
        <ele>387.4</ele>
        <time>1970-01-01T02:33:39.000Z</time>
      </trkpt>
      <trkpt lat="41.061159" lon="-6.771543">
        <ele>386.9</ele>
        <time>1970-01-01T02:33:40.000Z</time>
      </trkpt>
      <trkpt lat="41.061216" lon="-6.771651">
        <ele>385</ele>
        <time>1970-01-01T02:33:41.000Z</time>
      </trkpt>
      <trkpt lat="41.061266" lon="-6.771708">
        <ele>383.4</ele>
        <time>1970-01-01T02:33:42.000Z</time>
      </trkpt>
      <trkpt lat="41.061317" lon="-6.771764">
        <ele>381.9</ele>
        <time>1970-01-01T02:33:43.000Z</time>
      </trkpt>
      <trkpt lat="41.061368" lon="-6.771821">
        <ele>380.5</ele>
        <time>1970-01-01T02:33:44.000Z</time>
      </trkpt>
      <trkpt lat="41.061418" lon="-6.771878">
        <ele>379.1</ele>
        <time>1970-01-01T02:33:45.000Z</time>
      </trkpt>
      <trkpt lat="41.061469" lon="-6.771935">
        <ele>377.7</ele>
        <time>1970-01-01T02:33:46.000Z</time>
      </trkpt>
      <trkpt lat="41.061542" lon="-6.772014">
        <ele>375.7</ele>
        <time>1970-01-01T02:33:47.000Z</time>
      </trkpt>
      <trkpt lat="41.061617" lon="-6.772096">
        <ele>373.7</ele>
        <time>1970-01-01T02:33:48.000Z</time>
      </trkpt>
      <trkpt lat="41.061693" lon="-6.772175">
        <ele>372</ele>
        <time>1970-01-01T02:33:49.000Z</time>
      </trkpt>
      <trkpt lat="41.061769" lon="-6.772244">
        <ele>370.5</ele>
        <time>1970-01-01T02:33:50.000Z</time>
      </trkpt>
      <trkpt lat="41.061849" lon="-6.772298">
        <ele>368.9</ele>
        <time>1970-01-01T02:33:51.000Z</time>
      </trkpt>
      <trkpt lat="41.061932" lon="-6.772335">
        <ele>367.8</ele>
        <time>1970-01-01T02:33:52.000Z</time>
      </trkpt>
      <trkpt lat="41.062019" lon="-6.772363">
        <ele>367.1</ele>
        <time>1970-01-01T02:33:53.000Z</time>
      </trkpt>
      <trkpt lat="41.062106" lon="-6.772389">
        <ele>366.4</ele>
        <time>1970-01-01T02:33:54.000Z</time>
      </trkpt>
      <trkpt lat="41.062191" lon="-6.772419">
        <ele>365.2</ele>
        <time>1970-01-01T02:33:55.000Z</time>
      </trkpt>
      <trkpt lat="41.062271" lon="-6.77245">
        <ele>363.6</ele>
        <time>1970-01-01T02:33:56.000Z</time>
      </trkpt>
      <trkpt lat="41.062345" lon="-6.772482">
        <ele>362.1</ele>
        <time>1970-01-01T02:33:57.000Z</time>
      </trkpt>
      <trkpt lat="41.062414" lon="-6.772516">
        <ele>360.6</ele>
        <time>1970-01-01T02:33:58.000Z</time>
      </trkpt>
      <trkpt lat="41.06248" lon="-6.772553">
        <ele>359.2</ele>
        <time>1970-01-01T02:33:59.000Z</time>
      </trkpt>
      <trkpt lat="41.062544" lon="-6.772593">
        <ele>357.9</ele>
        <time>1970-01-01T02:34:00.000Z</time>
      </trkpt>
      <trkpt lat="41.062606" lon="-6.772636">
        <ele>356.6</ele>
        <time>1970-01-01T02:34:01.000Z</time>
      </trkpt>
      <trkpt lat="41.062663" lon="-6.77268">
        <ele>355.4</ele>
        <time>1970-01-01T02:34:02.000Z</time>
      </trkpt>
      <trkpt lat="41.062714" lon="-6.772723">
        <ele>354.3</ele>
        <time>1970-01-01T02:34:03.000Z</time>
      </trkpt>
      <trkpt lat="41.062759" lon="-6.77276">
        <ele>353.4</ele>
        <time>1970-01-01T02:34:04.000Z</time>
      </trkpt>
      <trkpt lat="41.062796" lon="-6.772789">
        <ele>352.6</ele>
        <time>1970-01-01T02:34:05.000Z</time>
      </trkpt>
      <trkpt lat="41.062827" lon="-6.772808">
        <ele>352</ele>
        <time>1970-01-01T02:34:06.000Z</time>
      </trkpt>
      <trkpt lat="41.062853" lon="-6.77282">
        <ele>351.5</ele>
        <time>1970-01-01T02:34:07.000Z</time>
      </trkpt>
      <trkpt lat="41.06288" lon="-6.772829">
        <ele>351.1</ele>
        <time>1970-01-01T02:34:08.000Z</time>
      </trkpt>
      <trkpt lat="41.062909" lon="-6.772837">
        <ele>350</ele>
        <time>1970-01-01T02:34:09.000Z</time>
      </trkpt>
      <trkpt lat="41.062941" lon="-6.772845">
        <ele>349.4</ele>
        <time>1970-01-01T02:34:10.000Z</time>
      </trkpt>
      <trkpt lat="41.062978" lon="-6.772856">
        <ele>348.8</ele>
        <time>1970-01-01T02:34:11.000Z</time>
      </trkpt>
      <trkpt lat="41.063022" lon="-6.772868">
        <ele>348</ele>
        <time>1970-01-01T02:34:12.000Z</time>
      </trkpt>
      <trkpt lat="41.063073" lon="-6.772884">
        <ele>347.1</ele>
        <time>1970-01-01T02:34:13.000Z</time>
      </trkpt>
      <trkpt lat="41.063127" lon="-6.772903">
        <ele>346.1</ele>
        <time>1970-01-01T02:34:14.000Z</time>
      </trkpt>
      <trkpt lat="41.063184" lon="-6.772926">
        <ele>345</ele>
        <time>1970-01-01T02:34:15.000Z</time>
      </trkpt>
      <trkpt lat="41.06324" lon="-6.772952">
        <ele>344</ele>
        <time>1970-01-01T02:34:16.000Z</time>
      </trkpt>
      <trkpt lat="41.063299" lon="-6.772984">
        <ele>342.9</ele>
        <time>1970-01-01T02:34:17.000Z</time>
      </trkpt>
      <trkpt lat="41.063361" lon="-6.773022">
        <ele>341.7</ele>
        <time>1970-01-01T02:34:18.000Z</time>
      </trkpt>
      <trkpt lat="41.063426" lon="-6.773064">
        <ele>340.4</ele>
        <time>1970-01-01T02:34:19.000Z</time>
      </trkpt>
      <trkpt lat="41.063492" lon="-6.773106">
        <ele>339.1</ele>
        <time>1970-01-01T02:34:20.000Z</time>
      </trkpt>
      <trkpt lat="41.063557" lon="-6.773147">
        <ele>337.9</ele>
        <time>1970-01-01T02:34:21.000Z</time>
      </trkpt>
      <trkpt lat="41.063621" lon="-6.773187">
        <ele>336.6</ele>
        <time>1970-01-01T02:34:22.000Z</time>
      </trkpt>
      <trkpt lat="41.063683" lon="-6.773226">
        <ele>335.4</ele>
        <time>1970-01-01T02:34:23.000Z</time>
      </trkpt>
      <trkpt lat="41.063744" lon="-6.773264">
        <ele>334.2</ele>
        <time>1970-01-01T02:34:24.000Z</time>
      </trkpt>
      <trkpt lat="41.063802" lon="-6.7733">
        <ele>333.1</ele>
        <time>1970-01-01T02:34:25.000Z</time>
      </trkpt>
      <trkpt lat="41.063858" lon="-6.773335">
        <ele>332</ele>
        <time>1970-01-01T02:34:26.000Z</time>
      </trkpt>
      <trkpt lat="41.063914" lon="-6.77337">
        <ele>330.9</ele>
        <time>1970-01-01T02:34:27.000Z</time>
      </trkpt>
      <trkpt lat="41.063974" lon="-6.773406">
        <ele>329.8</ele>
        <time>1970-01-01T02:34:28.000Z</time>
      </trkpt>
      <trkpt lat="41.064038" lon="-6.773441">
        <ele>328.5</ele>
        <time>1970-01-01T02:34:29.000Z</time>
      </trkpt>
      <trkpt lat="41.064103" lon="-6.773475">
        <ele>327.3</ele>
        <time>1970-01-01T02:34:30.000Z</time>
      </trkpt>
      <trkpt lat="41.064169" lon="-6.773511">
        <ele>326.1</ele>
        <time>1970-01-01T02:34:31.000Z</time>
      </trkpt>
      <trkpt lat="41.064234" lon="-6.77355">
        <ele>324.8</ele>
        <time>1970-01-01T02:34:32.000Z</time>
      </trkpt>
      <trkpt lat="41.064297" lon="-6.77359">
        <ele>323.6</ele>
        <time>1970-01-01T02:34:33.000Z</time>
      </trkpt>
      <trkpt lat="41.064357" lon="-6.773631">
        <ele>322.4</ele>
        <time>1970-01-01T02:34:34.000Z</time>
      </trkpt>
      <trkpt lat="41.064414" lon="-6.773671">
        <ele>321.3</ele>
        <time>1970-01-01T02:34:35.000Z</time>
      </trkpt>
      <trkpt lat="41.064471" lon="-6.773711">
        <ele>320.1</ele>
        <time>1970-01-01T02:34:36.000Z</time>
      </trkpt>
      <trkpt lat="41.064527" lon="-6.773747">
        <ele>319</ele>
        <time>1970-01-01T02:34:37.000Z</time>
      </trkpt>
      <trkpt lat="41.064583" lon="-6.77378">
        <ele>318</ele>
        <time>1970-01-01T02:34:38.000Z</time>
      </trkpt>
      <trkpt lat="41.064639" lon="-6.77381">
        <ele>316.9</ele>
        <time>1970-01-01T02:34:39.000Z</time>
      </trkpt>
      <trkpt lat="41.064694" lon="-6.773841">
        <ele>315.8</ele>
        <time>1970-01-01T02:34:40.000Z</time>
      </trkpt>
      <trkpt lat="41.064748" lon="-6.773876">
        <ele>314.8</ele>
        <time>1970-01-01T02:34:41.000Z</time>
      </trkpt>
      <trkpt lat="41.064799" lon="-6.773915">
        <ele>313.8</ele>
        <time>1970-01-01T02:34:42.000Z</time>
      </trkpt>
      <trkpt lat="41.064844" lon="-6.77396">
        <ele>312.8</ele>
        <time>1970-01-01T02:34:43.000Z</time>
      </trkpt>
      <trkpt lat="41.064882" lon="-6.774007">
        <ele>311.9</ele>
        <time>1970-01-01T02:34:44.000Z</time>
      </trkpt>
      <trkpt lat="41.064917" lon="-6.774053">
        <ele>311</ele>
        <time>1970-01-01T02:34:45.000Z</time>
      </trkpt>
      <trkpt lat="41.064951" lon="-6.774096">
        <ele>310.2</ele>
        <time>1970-01-01T02:34:46.000Z</time>
      </trkpt>
      <trkpt lat="41.064981" lon="-6.774131">
        <ele>308.3</ele>
        <time>1970-01-01T02:34:47.000Z</time>
      </trkpt>
      <trkpt lat="41.065007" lon="-6.774154">
        <ele>307.9</ele>
        <time>1970-01-01T02:34:48.000Z</time>
      </trkpt>
      <trkpt lat="41.065029" lon="-6.774162">
        <ele>307.7</ele>
        <time>1970-01-01T02:34:49.000Z</time>
      </trkpt>
      <trkpt lat="41.06505" lon="-6.77416">
        <ele>307.4</ele>
        <time>1970-01-01T02:34:50.000Z</time>
      </trkpt>
      <trkpt lat="41.065067" lon="-6.774145">
        <ele>307.2</ele>
        <time>1970-01-01T02:34:51.000Z</time>
      </trkpt>
      <trkpt lat="41.065076" lon="-6.774119">
        <ele>306.9</ele>
        <time>1970-01-01T02:34:52.000Z</time>
      </trkpt>
      <trkpt lat="41.065073" lon="-6.77408">
        <ele>306.6</ele>
        <time>1970-01-01T02:34:53.000Z</time>
      </trkpt>
      <trkpt lat="41.06506" lon="-6.774032">
        <ele>306.1</ele>
        <time>1970-01-01T02:34:54.000Z</time>
      </trkpt>
      <trkpt lat="41.065041" lon="-6.773976">
        <ele>305.6</ele>
        <time>1970-01-01T02:34:55.000Z</time>
      </trkpt>
      <trkpt lat="41.065013" lon="-6.773903">
        <ele>304.9</ele>
        <time>1970-01-01T02:34:56.000Z</time>
      </trkpt>
      <trkpt lat="41.064981" lon="-6.773817">
        <ele>304</ele>
        <time>1970-01-01T02:34:57.000Z</time>
      </trkpt>
      <trkpt lat="41.064946" lon="-6.773725">
        <ele>303.1</ele>
        <time>1970-01-01T02:34:58.000Z</time>
      </trkpt>
      <trkpt lat="41.064911" lon="-6.773632">
        <ele>302.2</ele>
        <time>1970-01-01T02:34:59.000Z</time>
      </trkpt>
      <trkpt lat="41.064869" lon="-6.773538">
        <ele>301.3</ele>
        <time>1970-01-01T02:35:00.000Z</time>
      </trkpt>
      <trkpt lat="41.064818" lon="-6.773441">
        <ele>300.2</ele>
        <time>1970-01-01T02:35:01.000Z</time>
      </trkpt>
      <trkpt lat="41.064763" lon="-6.773345">
        <ele>299.1</ele>
        <time>1970-01-01T02:35:02.000Z</time>
      </trkpt>
      <trkpt lat="41.064709" lon="-6.77325">
        <ele>298.1</ele>
        <time>1970-01-01T02:35:03.000Z</time>
      </trkpt>
      <trkpt lat="41.064658" lon="-6.773157">
        <ele>297.1</ele>
        <time>1970-01-01T02:35:04.000Z</time>
      </trkpt>
      <trkpt lat="41.064611" lon="-6.773064">
        <ele>296.1</ele>
        <time>1970-01-01T02:35:05.000Z</time>
      </trkpt>
      <trkpt lat="41.064564" lon="-6.772972">
        <ele>295.1</ele>
        <time>1970-01-01T02:35:06.000Z</time>
      </trkpt>
      <trkpt lat="41.064516" lon="-6.77288">
        <ele>294.1</ele>
        <time>1970-01-01T02:35:07.000Z</time>
      </trkpt>
      <trkpt lat="41.064465" lon="-6.77279">
        <ele>293.1</ele>
        <time>1970-01-01T02:35:08.000Z</time>
      </trkpt>
      <trkpt lat="41.064415" lon="-6.772702">
        <ele>292.2</ele>
        <time>1970-01-01T02:35:09.000Z</time>
      </trkpt>
      <trkpt lat="41.064366" lon="-6.772618">
        <ele>291.2</ele>
        <time>1970-01-01T02:35:10.000Z</time>
      </trkpt>
      <trkpt lat="41.064319" lon="-6.772538">
        <ele>290.3</ele>
        <time>1970-01-01T02:35:11.000Z</time>
      </trkpt>
      <trkpt lat="41.064273" lon="-6.772462">
        <ele>289.5</ele>
        <time>1970-01-01T02:35:12.000Z</time>
      </trkpt>
      <trkpt lat="41.064228" lon="-6.772389">
        <ele>288.6</ele>
        <time>1970-01-01T02:35:13.000Z</time>
      </trkpt>
      <trkpt lat="41.064189" lon="-6.772315">
        <ele>287.9</ele>
        <time>1970-01-01T02:35:14.000Z</time>
      </trkpt>
      <trkpt lat="41.064159" lon="-6.772235">
        <ele>287.1</ele>
        <time>1970-01-01T02:35:15.000Z</time>
      </trkpt>
      <trkpt lat="41.064136" lon="-6.772149">
        <ele>286.3</ele>
        <time>1970-01-01T02:35:16.000Z</time>
      </trkpt>
      <trkpt lat="41.06413" lon="-6.772054">
        <ele>285.4</ele>
        <time>1970-01-01T02:35:17.000Z</time>
      </trkpt>
      <trkpt lat="41.064141" lon="-6.771956">
        <ele>284.5</ele>
        <time>1970-01-01T02:35:18.000Z</time>
      </trkpt>
      <trkpt lat="41.064166" lon="-6.771854">
        <ele>283.6</ele>
        <time>1970-01-01T02:35:19.000Z</time>
      </trkpt>
      <trkpt lat="41.064195" lon="-6.771752">
        <ele>282.6</ele>
        <time>1970-01-01T02:35:20.000Z</time>
      </trkpt>
      <trkpt lat="41.064229" lon="-6.771652">
        <ele>281.7</ele>
        <time>1970-01-01T02:35:21.000Z</time>
      </trkpt>
      <trkpt lat="41.064269" lon="-6.771549">
        <ele>280.7</ele>
        <time>1970-01-01T02:35:22.000Z</time>
      </trkpt>
      <trkpt lat="41.064311" lon="-6.771445">
        <ele>279.6</ele>
        <time>1970-01-01T02:35:23.000Z</time>
      </trkpt>
      <trkpt lat="41.064349" lon="-6.771337">
        <ele>278.6</ele>
        <time>1970-01-01T02:35:24.000Z</time>
      </trkpt>
      <trkpt lat="41.064379" lon="-6.771226">
        <ele>277.5</ele>
        <time>1970-01-01T02:35:25.000Z</time>
      </trkpt>
      <trkpt lat="41.064404" lon="-6.771114">
        <ele>276.5</ele>
        <time>1970-01-01T02:35:26.000Z</time>
      </trkpt>
      <trkpt lat="41.064426" lon="-6.771003">
        <ele>275.5</ele>
        <time>1970-01-01T02:35:27.000Z</time>
      </trkpt>
      <trkpt lat="41.064448" lon="-6.770894">
        <ele>274.5</ele>
        <time>1970-01-01T02:35:28.000Z</time>
      </trkpt>
      <trkpt lat="41.064457" lon="-6.770789">
        <ele>273.6</ele>
        <time>1970-01-01T02:35:29.000Z</time>
      </trkpt>
      <trkpt lat="41.064459" lon="-6.770691">
        <ele>272.7</ele>
        <time>1970-01-01T02:35:30.000Z</time>
      </trkpt>
      <trkpt lat="41.064457" lon="-6.770605">
        <ele>271.9</ele>
        <time>1970-01-01T02:35:31.000Z</time>
      </trkpt>
      <trkpt lat="41.064464" lon="-6.770528">
        <ele>271.2</ele>
        <time>1970-01-01T02:35:32.000Z</time>
      </trkpt>
      <trkpt lat="41.064492" lon="-6.770473">
        <ele>270.7</ele>
        <time>1970-01-01T02:35:33.000Z</time>
      </trkpt>
      <trkpt lat="41.064528" lon="-6.770459">
        <ele>270.2</ele>
        <time>1970-01-01T02:35:34.000Z</time>
      </trkpt>
      <trkpt lat="41.064565" lon="-6.770486">
        <ele>269.7</ele>
        <time>1970-01-01T02:35:35.000Z</time>
      </trkpt>
      <trkpt lat="41.064583" lon="-6.770535">
        <ele>269.3</ele>
        <time>1970-01-01T02:35:36.000Z</time>
      </trkpt>
      <trkpt lat="41.064595" lon="-6.770589">
        <ele>268.8</ele>
        <time>1970-01-01T02:35:37.000Z</time>
      </trkpt>
      <trkpt lat="41.064607" lon="-6.770661">
        <ele>268.1</ele>
        <time>1970-01-01T02:35:38.000Z</time>
      </trkpt>
      <trkpt lat="41.064624" lon="-6.770747">
        <ele>267.3</ele>
        <time>1970-01-01T02:35:39.000Z</time>
      </trkpt>
      <trkpt lat="41.064645" lon="-6.770844">
        <ele>266.4</ele>
        <time>1970-01-01T02:35:40.000Z</time>
      </trkpt>
      <trkpt lat="41.064666" lon="-6.77094">
        <ele>265.6</ele>
        <time>1970-01-01T02:35:41.000Z</time>
      </trkpt>
      <trkpt lat="41.064685" lon="-6.771043">
        <ele>264.6</ele>
        <time>1970-01-01T02:35:42.000Z</time>
      </trkpt>
      <trkpt lat="41.0647" lon="-6.77115">
        <ele>263.7</ele>
        <time>1970-01-01T02:35:43.000Z</time>
      </trkpt>
      <trkpt lat="41.064712" lon="-6.771266">
        <ele>262.6</ele>
        <time>1970-01-01T02:35:44.000Z</time>
      </trkpt>
      <trkpt lat="41.06472" lon="-6.771386">
        <ele>261.6</ele>
        <time>1970-01-01T02:35:45.000Z</time>
      </trkpt>
      <trkpt lat="41.064725" lon="-6.77151">
        <ele>260.5</ele>
        <time>1970-01-01T02:35:46.000Z</time>
      </trkpt>
      <trkpt lat="41.06473" lon="-6.771632">
        <ele>259.4</ele>
        <time>1970-01-01T02:35:47.000Z</time>
      </trkpt>
      <trkpt lat="41.064743" lon="-6.771752">
        <ele>258.3</ele>
        <time>1970-01-01T02:35:48.000Z</time>
      </trkpt>
      <trkpt lat="41.064778" lon="-6.771848">
        <ele>257.4</ele>
        <time>1970-01-01T02:35:49.000Z</time>
      </trkpt>
      <trkpt lat="41.064835" lon="-6.771927">
        <ele>256.4</ele>
        <time>1970-01-01T02:35:50.000Z</time>
      </trkpt>
      <trkpt lat="41.06491" lon="-6.771989">
        <ele>255.4</ele>
        <time>1970-01-01T02:35:51.000Z</time>
      </trkpt>
      <trkpt lat="41.064992" lon="-6.772054">
        <ele>254.3</ele>
        <time>1970-01-01T02:35:52.000Z</time>
      </trkpt>
      <trkpt lat="41.065079" lon="-6.772119">
        <ele>253.1</ele>
        <time>1970-01-01T02:35:53.000Z</time>
      </trkpt>
      <trkpt lat="41.065172" lon="-6.772181">
        <ele>251.9</ele>
        <time>1970-01-01T02:35:54.000Z</time>
      </trkpt>
      <trkpt lat="41.065268" lon="-6.77224">
        <ele>250.7</ele>
        <time>1970-01-01T02:35:55.000Z</time>
      </trkpt>
      <trkpt lat="41.065364" lon="-6.772294">
        <ele>249.4</ele>
        <time>1970-01-01T02:35:56.000Z</time>
      </trkpt>
      <trkpt lat="41.065459" lon="-6.772343">
        <ele>248.2</ele>
        <time>1970-01-01T02:35:57.000Z</time>
      </trkpt>
      <trkpt lat="41.065551" lon="-6.772391">
        <ele>247.1</ele>
        <time>1970-01-01T02:35:58.000Z</time>
      </trkpt>
      <trkpt lat="41.065639" lon="-6.772442">
        <ele>246</ele>
        <time>1970-01-01T02:35:59.000Z</time>
      </trkpt>
      <trkpt lat="41.065717" lon="-6.772506">
        <ele>244.9</ele>
        <time>1970-01-01T02:36:00.000Z</time>
      </trkpt>
      <trkpt lat="41.065788" lon="-6.772585">
        <ele>243.8</ele>
        <time>1970-01-01T02:36:01.000Z</time>
      </trkpt>
      <trkpt lat="41.065851" lon="-6.77268">
        <ele>242.7</ele>
        <time>1970-01-01T02:36:02.000Z</time>
      </trkpt>
      <trkpt lat="41.065915" lon="-6.77278">
        <ele>241.5</ele>
        <time>1970-01-01T02:36:03.000Z</time>
      </trkpt>
      <trkpt lat="41.065979" lon="-6.772882">
        <ele>240.4</ele>
        <time>1970-01-01T02:36:04.000Z</time>
      </trkpt>
      <trkpt lat="41.066044" lon="-6.772987">
        <ele>239.2</ele>
        <time>1970-01-01T02:36:05.000Z</time>
      </trkpt>
      <trkpt lat="41.06611" lon="-6.773097">
        <ele>237.9</ele>
        <time>1970-01-01T02:36:06.000Z</time>
      </trkpt>
      <trkpt lat="41.066177" lon="-6.77321">
        <ele>236.7</ele>
        <time>1970-01-01T02:36:07.000Z</time>
      </trkpt>
      <trkpt lat="41.066243" lon="-6.773323">
        <ele>235.4</ele>
        <time>1970-01-01T02:36:08.000Z</time>
      </trkpt>
      <trkpt lat="41.066305" lon="-6.773435">
        <ele>234.2</ele>
        <time>1970-01-01T02:36:09.000Z</time>
      </trkpt>
      <trkpt lat="41.066367" lon="-6.773548">
        <ele>232.9</ele>
        <time>1970-01-01T02:36:10.000Z</time>
      </trkpt>
      <trkpt lat="41.066427" lon="-6.773664">
        <ele>231.7</ele>
        <time>1970-01-01T02:36:11.000Z</time>
      </trkpt>
      <trkpt lat="41.066489" lon="-6.77378">
        <ele>230.5</ele>
        <time>1970-01-01T02:36:12.000Z</time>
      </trkpt>
      <trkpt lat="41.066551" lon="-6.773893">
        <ele>229.2</ele>
        <time>1970-01-01T02:36:13.000Z</time>
      </trkpt>
      <trkpt lat="41.066611" lon="-6.774006">
        <ele>228</ele>
        <time>1970-01-01T02:36:14.000Z</time>
      </trkpt>
      <trkpt lat="41.066667" lon="-6.774122">
        <ele>226.8</ele>
        <time>1970-01-01T02:36:15.000Z</time>
      </trkpt>
      <trkpt lat="41.066719" lon="-6.774244">
        <ele>225.6</ele>
        <time>1970-01-01T02:36:16.000Z</time>
      </trkpt>
      <trkpt lat="41.066767" lon="-6.774367">
        <ele>224.3</ele>
        <time>1970-01-01T02:36:17.000Z</time>
      </trkpt>
      <trkpt lat="41.066812" lon="-6.774492">
        <ele>223.1</ele>
        <time>1970-01-01T02:36:18.000Z</time>
      </trkpt>
      <trkpt lat="41.066854" lon="-6.774613">
        <ele>221.9</ele>
        <time>1970-01-01T02:36:19.000Z</time>
      </trkpt>
      <trkpt lat="41.066899" lon="-6.774732">
        <ele>220.8</ele>
        <time>1970-01-01T02:36:20.000Z</time>
      </trkpt>
      <trkpt lat="41.066947" lon="-6.774848">
        <ele>219.6</ele>
        <time>1970-01-01T02:36:21.000Z</time>
      </trkpt>
      <trkpt lat="41.066999" lon="-6.774961">
        <ele>218.4</ele>
        <time>1970-01-01T02:36:22.000Z</time>
      </trkpt>
      <trkpt lat="41.067057" lon="-6.775072">
        <ele>217.2</ele>
        <time>1970-01-01T02:36:23.000Z</time>
      </trkpt>
      <trkpt lat="41.067126" lon="-6.775174">
        <ele>216</ele>
        <time>1970-01-01T02:36:24.000Z</time>
      </trkpt>
      <trkpt lat="41.067205" lon="-6.775265">
        <ele>214.8</ele>
        <time>1970-01-01T02:36:25.000Z</time>
      </trkpt>
      <trkpt lat="41.067291" lon="-6.775343">
        <ele>213.6</ele>
        <time>1970-01-01T02:36:26.000Z</time>
      </trkpt>
      <trkpt lat="41.067379" lon="-6.775416">
        <ele>212.4</ele>
        <time>1970-01-01T02:36:27.000Z</time>
      </trkpt>
      <trkpt lat="41.067469" lon="-6.775478">
        <ele>211.2</ele>
        <time>1970-01-01T02:36:28.000Z</time>
      </trkpt>
      <trkpt lat="41.067561" lon="-6.77552">
        <ele>210.1</ele>
        <time>1970-01-01T02:36:29.000Z</time>
      </trkpt>
      <trkpt lat="41.067651" lon="-6.775547">
        <ele>209</ele>
        <time>1970-01-01T02:36:30.000Z</time>
      </trkpt>
      <trkpt lat="41.067737" lon="-6.775571">
        <ele>208</ele>
        <time>1970-01-01T02:36:31.000Z</time>
      </trkpt>
      <trkpt lat="41.067813" lon="-6.775606">
        <ele>207</ele>
        <time>1970-01-01T02:36:32.000Z</time>
      </trkpt>
      <trkpt lat="41.067881" lon="-6.775649">
        <ele>206.1</ele>
        <time>1970-01-01T02:36:33.000Z</time>
      </trkpt>
      <trkpt lat="41.06794" lon="-6.775701">
        <ele>205.3</ele>
        <time>1970-01-01T02:36:34.000Z</time>
      </trkpt>
      <trkpt lat="41.067983" lon="-6.77576">
        <ele>205.2</ele>
        <time>1970-01-01T02:36:35.000Z</time>
      </trkpt>
      <trkpt lat="41.068014" lon="-6.775821">
        <ele>205.2</ele>
        <time>1970-01-01T02:36:36.000Z</time>
      </trkpt>
      <trkpt lat="41.068035" lon="-6.775864">
        <ele>205.1</ele>
        <time>1970-01-01T02:36:37.000Z</time>
      </trkpt>
      <trkpt lat="41.068054" lon="-6.775883">
        <ele>205.1</ele>
        <time>1970-01-01T02:36:38.000Z</time>
      </trkpt>
      <trkpt lat="41.068071" lon="-6.775881">
        <ele>205.1</ele>
        <time>1970-01-01T02:36:39.000Z</time>
      </trkpt>
      <trkpt lat="41.068065" lon="-6.775826">
        <ele>205.1</ele>
        <time>1970-01-01T02:36:40.000Z</time>
      </trkpt>
      <trkpt lat="41.068042" lon="-6.775783">
        <ele>205.1</ele>
        <time>1970-01-01T02:36:41.000Z</time>
      </trkpt>
      <trkpt lat="41.06802" lon="-6.775739">
        <ele>204</ele>
        <time>1970-01-01T02:36:42.000Z</time>
      </trkpt>
      <trkpt lat="41.067997" lon="-6.775695">
        <ele>204</ele>
        <time>1970-01-01T02:36:43.000Z</time>
      </trkpt>
      <trkpt lat="41.067975" lon="-6.775651">
        <ele>203.8</ele>
        <time>1970-01-01T02:36:44.000Z</time>
      </trkpt>
      <trkpt lat="41.067952" lon="-6.775608">
        <ele>203.7</ele>
        <time>1970-01-01T02:36:45.000Z</time>
      </trkpt>
      <trkpt lat="41.06793" lon="-6.775564">
        <ele>203.4</ele>
        <time>1970-01-01T02:36:46.000Z</time>
      </trkpt>
      <trkpt lat="41.067907" lon="-6.77552">
        <ele>203.2</ele>
        <time>1970-01-01T02:36:47.000Z</time>
      </trkpt>
      <trkpt lat="41.067885" lon="-6.775477">
        <ele>202.9</ele>
        <time>1970-01-01T02:36:48.000Z</time>
      </trkpt>
      <trkpt lat="41.067862" lon="-6.775433">
        <ele>202.6</ele>
        <time>1970-01-01T02:36:49.000Z</time>
      </trkpt>
      <trkpt lat="41.067807" lon="-6.775365">
        <ele>202</ele>
        <time>1970-01-01T02:36:50.000Z</time>
      </trkpt>
      <trkpt lat="41.067747" lon="-6.775296">
        <ele>201.3</ele>
        <time>1970-01-01T02:36:51.000Z</time>
      </trkpt>
      <trkpt lat="41.067684" lon="-6.775227">
        <ele>200.4</ele>
        <time>1970-01-01T02:36:52.000Z</time>
      </trkpt>
      <trkpt lat="41.067623" lon="-6.775151">
        <ele>199.8</ele>
        <time>1970-01-01T02:36:53.000Z</time>
      </trkpt>
      <trkpt lat="41.067566" lon="-6.775068">
        <ele>199.6</ele>
        <time>1970-01-01T02:36:54.000Z</time>
      </trkpt>
      <trkpt lat="41.067514" lon="-6.774979">
        <ele>199.9</ele>
        <time>1970-01-01T02:36:55.000Z</time>
      </trkpt>
      <trkpt lat="41.067466" lon="-6.774891">
        <ele>200.3</ele>
        <time>1970-01-01T02:36:56.000Z</time>
      </trkpt>
      <trkpt lat="41.067421" lon="-6.77481">
        <ele>200.6</ele>
        <time>1970-01-01T02:36:57.000Z</time>
      </trkpt>
      <trkpt lat="41.067377" lon="-6.774739">
        <ele>200.8</ele>
        <time>1970-01-01T02:36:58.000Z</time>
      </trkpt>
      <trkpt lat="41.06734" lon="-6.774672">
        <ele>201</ele>
        <time>1970-01-01T02:36:59.000Z</time>
      </trkpt>
      <trkpt lat="41.067309" lon="-6.774603">
        <ele>201</ele>
        <time>1970-01-01T02:37:00.000Z</time>
      </trkpt>
      <trkpt lat="41.067289" lon="-6.774524">
        <ele>200.7</ele>
        <time>1970-01-01T02:37:01.000Z</time>
      </trkpt>
      <trkpt lat="41.067287" lon="-6.774446">
        <ele>200.2</ele>
        <time>1970-01-01T02:37:02.000Z</time>
      </trkpt>
      <trkpt lat="41.067299" lon="-6.774358">
        <ele>199.3</ele>
        <time>1970-01-01T02:37:03.000Z</time>
      </trkpt>
      <trkpt lat="41.067315" lon="-6.774259">
        <ele>198</ele>
        <time>1970-01-01T02:37:04.000Z</time>
      </trkpt>
      <trkpt lat="41.067315" lon="-6.774152">
        <ele>196.6</ele>
        <time>1970-01-01T02:37:05.000Z</time>
      </trkpt>
      <trkpt lat="41.067301" lon="-6.774053">
        <ele>195.6</ele>
        <time>1970-01-01T02:37:06.000Z</time>
      </trkpt>
      <trkpt lat="41.067277" lon="-6.773967">
        <ele>195.3</ele>
        <time>1970-01-01T02:37:07.000Z</time>
      </trkpt>
      <trkpt lat="41.067249" lon="-6.77389">
        <ele>195.7</ele>
        <time>1970-01-01T02:37:08.000Z</time>
      </trkpt>
      <trkpt lat="41.067224" lon="-6.77382">
        <ele>196.4</ele>
        <time>1970-01-01T02:37:09.000Z</time>
      </trkpt>
      <trkpt lat="41.067204" lon="-6.773764">
        <ele>197.1</ele>
        <time>1970-01-01T02:37:10.000Z</time>
      </trkpt>
      <trkpt lat="41.067191" lon="-6.773719">
        <ele>197.6</ele>
        <time>1970-01-01T02:37:11.000Z</time>
      </trkpt>
      <trkpt lat="41.067182" lon="-6.773677">
        <ele>198.1</ele>
        <time>1970-01-01T02:37:12.000Z</time>
      </trkpt>
      <trkpt lat="41.067173" lon="-6.773632">
        <ele>198.6</ele>
        <time>1970-01-01T02:37:13.000Z</time>
      </trkpt>
      <trkpt lat="41.067163" lon="-6.773587">
        <ele>199.1</ele>
        <time>1970-01-01T02:37:14.000Z</time>
      </trkpt>
      <trkpt lat="41.067152" lon="-6.773544">
        <ele>199.5</ele>
        <time>1970-01-01T02:37:15.000Z</time>
      </trkpt>
      <trkpt lat="41.067142" lon="-6.773497">
        <ele>199.9</ele>
        <time>1970-01-01T02:37:16.000Z</time>
      </trkpt>
      <trkpt lat="41.067135" lon="-6.773444">
        <ele>200.4</ele>
        <time>1970-01-01T02:37:17.000Z</time>
      </trkpt>
      <trkpt lat="41.067127" lon="-6.773388">
        <ele>200.8</ele>
        <time>1970-01-01T02:37:18.000Z</time>
      </trkpt>
      <trkpt lat="41.067118" lon="-6.773327">
        <ele>201.3</ele>
        <time>1970-01-01T02:37:19.000Z</time>
      </trkpt>
      <trkpt lat="41.067108" lon="-6.773266">
        <ele>201.6</ele>
        <time>1970-01-01T02:37:20.000Z</time>
      </trkpt>
      <trkpt lat="41.067098" lon="-6.773202">
        <ele>201.8</ele>
        <time>1970-01-01T02:37:21.000Z</time>
      </trkpt>
      <trkpt lat="41.067087" lon="-6.773139">
        <ele>201.8</ele>
        <time>1970-01-01T02:37:22.000Z</time>
      </trkpt>
      <trkpt lat="41.067074" lon="-6.773073">
        <ele>201.7</ele>
        <time>1970-01-01T02:37:23.000Z</time>
      </trkpt>
      <trkpt lat="41.067058" lon="-6.773008">
        <ele>201.6</ele>
        <time>1970-01-01T02:37:24.000Z</time>
      </trkpt>
      <trkpt lat="41.06704" lon="-6.772942">
        <ele>201.6</ele>
        <time>1970-01-01T02:37:25.000Z</time>
      </trkpt>
      <trkpt lat="41.067021" lon="-6.772878">
        <ele>201.9</ele>
        <time>1970-01-01T02:37:26.000Z</time>
      </trkpt>
      <trkpt lat="41.066999" lon="-6.772815">
        <ele>202.4</ele>
        <time>1970-01-01T02:37:27.000Z</time>
      </trkpt>
      <trkpt lat="41.066977" lon="-6.772753">
        <ele>203.2</ele>
        <time>1970-01-01T02:37:28.000Z</time>
      </trkpt>
      <trkpt lat="41.066954" lon="-6.772695">
        <ele>204</ele>
        <time>1970-01-01T02:37:29.000Z</time>
      </trkpt>
      <trkpt lat="41.066932" lon="-6.772639">
        <ele>204.8</ele>
        <time>1970-01-01T02:37:30.000Z</time>
      </trkpt>
      <trkpt lat="41.066912" lon="-6.772584">
        <ele>205.6</ele>
        <time>1970-01-01T02:37:31.000Z</time>
      </trkpt>
      <trkpt lat="41.066892" lon="-6.772529">
        <ele>206.2</ele>
        <time>1970-01-01T02:37:32.000Z</time>
      </trkpt>
      <trkpt lat="41.066872" lon="-6.772473">
        <ele>206.6</ele>
        <time>1970-01-01T02:37:33.000Z</time>
      </trkpt>
      <trkpt lat="41.066852" lon="-6.772419">
        <ele>207</ele>
        <time>1970-01-01T02:37:34.000Z</time>
      </trkpt>
      <trkpt lat="41.066831" lon="-6.772365">
        <ele>207.4</ele>
        <time>1970-01-01T02:37:35.000Z</time>
      </trkpt>
      <trkpt lat="41.066812" lon="-6.772311">
        <ele>207.7</ele>
        <time>1970-01-01T02:37:36.000Z</time>
      </trkpt>
      <trkpt lat="41.066793" lon="-6.772256">
        <ele>208.1</ele>
        <time>1970-01-01T02:37:37.000Z</time>
      </trkpt>
      <trkpt lat="41.066773" lon="-6.7722">
        <ele>208.6</ele>
        <time>1970-01-01T02:37:38.000Z</time>
      </trkpt>
      <trkpt lat="41.066754" lon="-6.772143">
        <ele>209</ele>
        <time>1970-01-01T02:37:39.000Z</time>
      </trkpt>
      <trkpt lat="41.066734" lon="-6.772088">
        <ele>209.5</ele>
        <time>1970-01-01T02:37:40.000Z</time>
      </trkpt>
      <trkpt lat="41.066716" lon="-6.772033">
        <ele>209.8</ele>
        <time>1970-01-01T02:37:41.000Z</time>
      </trkpt>
      <trkpt lat="41.066699" lon="-6.771976">
        <ele>210.1</ele>
        <time>1970-01-01T02:37:42.000Z</time>
      </trkpt>
      <trkpt lat="41.066685" lon="-6.771914">
        <ele>210.4</ele>
        <time>1970-01-01T02:37:43.000Z</time>
      </trkpt>
      <trkpt lat="41.066671" lon="-6.771845">
        <ele>210.6</ele>
        <time>1970-01-01T02:37:44.000Z</time>
      </trkpt>
      <trkpt lat="41.066657" lon="-6.771772">
        <ele>210.7</ele>
        <time>1970-01-01T02:37:45.000Z</time>
      </trkpt>
      <trkpt lat="41.066642" lon="-6.771694">
        <ele>210.7</ele>
        <time>1970-01-01T02:37:46.000Z</time>
      </trkpt>
      <trkpt lat="41.066627" lon="-6.771614">
        <ele>210.6</ele>
        <time>1970-01-01T02:37:47.000Z</time>
      </trkpt>
      <trkpt lat="41.066608" lon="-6.77153">
        <ele>210.5</ele>
        <time>1970-01-01T02:37:48.000Z</time>
      </trkpt>
      <trkpt lat="41.066587" lon="-6.771444">
        <ele>210.4</ele>
        <time>1970-01-01T02:37:49.000Z</time>
      </trkpt>
      <trkpt lat="41.066565" lon="-6.771355">
        <ele>210.3</ele>
        <time>1970-01-01T02:37:50.000Z</time>
      </trkpt>
      <trkpt lat="41.066544" lon="-6.771266">
        <ele>210.2</ele>
        <time>1970-01-01T02:37:51.000Z</time>
      </trkpt>
      <trkpt lat="41.066525" lon="-6.771178">
        <ele>210.3</ele>
        <time>1970-01-01T02:37:52.000Z</time>
      </trkpt>
      <trkpt lat="41.066506" lon="-6.771093">
        <ele>210.4</ele>
        <time>1970-01-01T02:37:53.000Z</time>
      </trkpt>
      <trkpt lat="41.066486" lon="-6.771013">
        <ele>210.5</ele>
        <time>1970-01-01T02:37:54.000Z</time>
      </trkpt>
      <trkpt lat="41.066464" lon="-6.770935">
        <ele>210.7</ele>
        <time>1970-01-01T02:37:55.000Z</time>
      </trkpt>
      <trkpt lat="41.066442" lon="-6.770858">
        <ele>210.9</ele>
        <time>1970-01-01T02:37:56.000Z</time>
      </trkpt>
      <trkpt lat="41.066419" lon="-6.770784">
        <ele>211.3</ele>
        <time>1970-01-01T02:37:57.000Z</time>
      </trkpt>
      <trkpt lat="41.066392" lon="-6.770714">
        <ele>211.8</ele>
        <time>1970-01-01T02:37:58.000Z</time>
      </trkpt>
      <trkpt lat="41.066361" lon="-6.770649">
        <ele>212.3</ele>
        <time>1970-01-01T02:37:59.000Z</time>
      </trkpt>
      <trkpt lat="41.066331" lon="-6.770588">
        <ele>212.8</ele>
        <time>1970-01-01T02:38:00.000Z</time>
      </trkpt>
      <trkpt lat="41.066305" lon="-6.770527">
        <ele>213.2</ele>
        <time>1970-01-01T02:38:01.000Z</time>
      </trkpt>
      <trkpt lat="41.066294" lon="-6.770468">
        <ele>213.4</ele>
        <time>1970-01-01T02:38:02.000Z</time>
      </trkpt>
      <trkpt lat="41.066293" lon="-6.770422">
        <ele>213.4</ele>
        <time>1970-01-01T02:38:03.000Z</time>
      </trkpt>
      <trkpt lat="41.066306" lon="-6.770398">
        <ele>213.3</ele>
        <time>1970-01-01T02:38:04.000Z</time>
      </trkpt>
      <trkpt lat="41.066324" lon="-6.770392">
        <ele>213.2</ele>
        <time>1970-01-01T02:38:05.000Z</time>
      </trkpt>
      <trkpt lat="41.066349" lon="-6.770391">
        <ele>213</ele>
        <time>1970-01-01T02:38:06.000Z</time>
      </trkpt>
      <trkpt lat="41.066379" lon="-6.770388">
        <ele>212.7</ele>
        <time>1970-01-01T02:38:07.000Z</time>
      </trkpt>
      <trkpt lat="41.066409" lon="-6.77039">
        <ele>212.4</ele>
        <time>1970-01-01T02:38:08.000Z</time>
      </trkpt>
      <trkpt lat="41.066439" lon="-6.770399">
        <ele>212.3</ele>
        <time>1970-01-01T02:38:09.000Z</time>
      </trkpt>
      <trkpt lat="41.066464" lon="-6.770413">
        <ele>212.3</ele>
        <time>1970-01-01T02:38:10.000Z</time>
      </trkpt>
      <trkpt lat="41.066488" lon="-6.770426">
        <ele>212.2</ele>
        <time>1970-01-01T02:38:11.000Z</time>
      </trkpt>
      <trkpt lat="41.066507" lon="-6.770441">
        <ele>212.1</ele>
        <time>1970-01-01T02:38:12.000Z</time>
      </trkpt>
      <trkpt lat="41.066523" lon="-6.770461">
        <ele>212.1</ele>
        <time>1970-01-01T02:38:13.000Z</time>
      </trkpt>
      <trkpt lat="41.066539" lon="-6.770483">
        <ele>212</ele>
        <time>1970-01-01T02:38:14.000Z</time>
      </trkpt>
      <trkpt lat="41.066556" lon="-6.770504">
        <ele>212</ele>
        <time>1970-01-01T02:38:15.000Z</time>
      </trkpt>
      <trkpt lat="41.066574" lon="-6.770523">
        <ele>211.9</ele>
        <time>1970-01-01T02:38:16.000Z</time>
      </trkpt>
      <trkpt lat="41.066593" lon="-6.770539">
        <ele>211.9</ele>
        <time>1970-01-01T02:38:17.000Z</time>
      </trkpt>
      <trkpt lat="41.066611" lon="-6.770556">
        <ele>211.8</ele>
        <time>1970-01-01T02:38:18.000Z</time>
      </trkpt>
      <trkpt lat="41.066628" lon="-6.770573">
        <ele>211.8</ele>
        <time>1970-01-01T02:38:19.000Z</time>
      </trkpt>
      <trkpt lat="41.066644" lon="-6.770592">
        <ele>211.7</ele>
        <time>1970-01-01T02:38:20.000Z</time>
      </trkpt>
      <trkpt lat="41.066661" lon="-6.77061">
        <ele>211.7</ele>
        <time>1970-01-01T02:38:21.000Z</time>
      </trkpt>
      <trkpt lat="41.066677" lon="-6.770628">
        <ele>211.6</ele>
        <time>1970-01-01T02:38:22.000Z</time>
      </trkpt>
      <trkpt lat="41.066692" lon="-6.770645">
        <ele>211.6</ele>
        <time>1970-01-01T02:38:23.000Z</time>
      </trkpt>
      <trkpt lat="41.066707" lon="-6.770661">
        <ele>211.5</ele>
        <time>1970-01-01T02:38:24.000Z</time>
      </trkpt>
      <trkpt lat="41.06672" lon="-6.770681">
        <ele>211.5</ele>
        <time>1970-01-01T02:38:25.000Z</time>
      </trkpt>
      <trkpt lat="41.066735" lon="-6.770702">
        <ele>211.4</ele>
        <time>1970-01-01T02:38:26.000Z</time>
      </trkpt>
      <trkpt lat="41.066749" lon="-6.770723">
        <ele>211.4</ele>
        <time>1970-01-01T02:38:27.000Z</time>
      </trkpt>
      <trkpt lat="41.066767" lon="-6.770741">
        <ele>211.3</ele>
        <time>1970-01-01T02:38:28.000Z</time>
      </trkpt>
      <trkpt lat="41.066784" lon="-6.770758">
        <ele>211.2</ele>
        <time>1970-01-01T02:38:29.000Z</time>
      </trkpt>
      <trkpt lat="41.066801" lon="-6.770775">
        <ele>211.2</ele>
        <time>1970-01-01T02:38:30.000Z</time>
      </trkpt>
      <trkpt lat="41.066819" lon="-6.770794">
        <ele>211.1</ele>
        <time>1970-01-01T02:38:31.000Z</time>
      </trkpt>
      <trkpt lat="41.066839" lon="-6.770815">
        <ele>211.1</ele>
        <time>1970-01-01T02:38:32.000Z</time>
      </trkpt>
      <trkpt lat="41.066858" lon="-6.770836">
        <ele>211</ele>
        <time>1970-01-01T02:38:33.000Z</time>
      </trkpt>
      <trkpt lat="41.066877" lon="-6.770856">
        <ele>211</ele>
        <time>1970-01-01T02:38:34.000Z</time>
      </trkpt>
      <trkpt lat="41.066896" lon="-6.770875">
        <ele>210.9</ele>
        <time>1970-01-01T02:38:35.000Z</time>
      </trkpt>
      <trkpt lat="41.066914" lon="-6.770893">
        <ele>210.8</ele>
        <time>1970-01-01T02:38:36.000Z</time>
      </trkpt>
      <trkpt lat="41.066932" lon="-6.770911">
        <ele>210.8</ele>
        <time>1970-01-01T02:38:37.000Z</time>
      </trkpt>
      <trkpt lat="41.066948" lon="-6.770928">
        <ele>210.7</ele>
        <time>1970-01-01T02:38:38.000Z</time>
      </trkpt>
      <trkpt lat="41.066964" lon="-6.770946">
        <ele>210.7</ele>
        <time>1970-01-01T02:38:39.000Z</time>
      </trkpt>
      <trkpt lat="41.066981" lon="-6.770963">
        <ele>210.6</ele>
        <time>1970-01-01T02:38:40.000Z</time>
      </trkpt>
      <trkpt lat="41.066999" lon="-6.770983">
        <ele>210.6</ele>
        <time>1970-01-01T02:38:41.000Z</time>
      </trkpt>
      <trkpt lat="41.067019" lon="-6.771002">
        <ele>210.5</ele>
        <time>1970-01-01T02:38:42.000Z</time>
      </trkpt>
      <trkpt lat="41.067039" lon="-6.771023">
        <ele>210.5</ele>
        <time>1970-01-01T02:38:43.000Z</time>
      </trkpt>
      <trkpt lat="41.067058" lon="-6.771043">
        <ele>210.4</ele>
        <time>1970-01-01T02:38:44.000Z</time>
      </trkpt>
      <trkpt lat="41.067078" lon="-6.771064">
        <ele>210.3</ele>
        <time>1970-01-01T02:38:45.000Z</time>
      </trkpt>
      <trkpt lat="41.067099" lon="-6.771084">
        <ele>210.3</ele>
        <time>1970-01-01T02:38:46.000Z</time>
      </trkpt>
      <trkpt lat="41.067119" lon="-6.771109">
        <ele>210.2</ele>
        <time>1970-01-01T02:38:47.000Z</time>
      </trkpt>
      <trkpt lat="41.06714" lon="-6.771135">
        <ele>210.1</ele>
        <time>1970-01-01T02:38:48.000Z</time>
      </trkpt>
      <trkpt lat="41.06716" lon="-6.771163">
        <ele>210.1</ele>
        <time>1970-01-01T02:38:49.000Z</time>
      </trkpt>
      <trkpt lat="41.06718" lon="-6.77119">
        <ele>210</ele>
        <time>1970-01-01T02:38:50.000Z</time>
      </trkpt>
      <trkpt lat="41.0672" lon="-6.771219">
        <ele>209.9</ele>
        <time>1970-01-01T02:38:51.000Z</time>
      </trkpt>
      <trkpt lat="41.067219" lon="-6.771249">
        <ele>209.9</ele>
        <time>1970-01-01T02:38:52.000Z</time>
      </trkpt>
      <trkpt lat="41.067238" lon="-6.771282">
        <ele>209.8</ele>
        <time>1970-01-01T02:38:53.000Z</time>
      </trkpt>
      <trkpt lat="41.067256" lon="-6.771316">
        <ele>209.7</ele>
        <time>1970-01-01T02:38:54.000Z</time>
      </trkpt>
      <trkpt lat="41.067274" lon="-6.771351">
        <ele>209.6</ele>
        <time>1970-01-01T02:38:55.000Z</time>
      </trkpt>
      <trkpt lat="41.06729" lon="-6.771384">
        <ele>209.6</ele>
        <time>1970-01-01T02:38:56.000Z</time>
      </trkpt>
      <trkpt lat="41.067305" lon="-6.771414">
        <ele>209.5</ele>
        <time>1970-01-01T02:38:57.000Z</time>
      </trkpt>
      <trkpt lat="41.067321" lon="-6.771444">
        <ele>209.4</ele>
        <time>1970-01-01T02:38:58.000Z</time>
      </trkpt>
      <trkpt lat="41.067336" lon="-6.771476">
        <ele>209.4</ele>
        <time>1970-01-01T02:38:59.000Z</time>
      </trkpt>
      <trkpt lat="41.067352" lon="-6.771508">
        <ele>209.3</ele>
        <time>1970-01-01T02:39:00.000Z</time>
      </trkpt>
      <trkpt lat="41.067368" lon="-6.771542">
        <ele>209.2</ele>
        <time>1970-01-01T02:39:01.000Z</time>
      </trkpt>
      <trkpt lat="41.067384" lon="-6.771575">
        <ele>209.1</ele>
        <time>1970-01-01T02:39:02.000Z</time>
      </trkpt>
      <trkpt lat="41.067401" lon="-6.771609">
        <ele>209.1</ele>
        <time>1970-01-01T02:39:03.000Z</time>
      </trkpt>
      <trkpt lat="41.06742" lon="-6.771643">
        <ele>209</ele>
        <time>1970-01-01T02:39:04.000Z</time>
      </trkpt>
      <trkpt lat="41.067437" lon="-6.771678">
        <ele>208.9</ele>
        <time>1970-01-01T02:39:05.000Z</time>
      </trkpt>
      <trkpt lat="41.067454" lon="-6.771712">
        <ele>208.8</ele>
        <time>1970-01-01T02:39:06.000Z</time>
      </trkpt>
      <trkpt lat="41.06747" lon="-6.771747">
        <ele>208.8</ele>
        <time>1970-01-01T02:39:07.000Z</time>
      </trkpt>
      <trkpt lat="41.067488" lon="-6.771782">
        <ele>208.7</ele>
        <time>1970-01-01T02:39:08.000Z</time>
      </trkpt>
      <trkpt lat="41.067506" lon="-6.771818">
        <ele>208.6</ele>
        <time>1970-01-01T02:39:09.000Z</time>
      </trkpt>
      <trkpt lat="41.067524" lon="-6.771855">
        <ele>208.5</ele>
        <time>1970-01-01T02:39:10.000Z</time>
      </trkpt>
      <trkpt lat="41.067542" lon="-6.771892">
        <ele>208.4</ele>
        <time>1970-01-01T02:39:11.000Z</time>
      </trkpt>
      <trkpt lat="41.067557" lon="-6.771927">
        <ele>208.4</ele>
        <time>1970-01-01T02:39:12.000Z</time>
      </trkpt>
      <trkpt lat="41.067572" lon="-6.771962">
        <ele>208.3</ele>
        <time>1970-01-01T02:39:13.000Z</time>
      </trkpt>
      <trkpt lat="41.067587" lon="-6.771998">
        <ele>208.2</ele>
        <time>1970-01-01T02:39:14.000Z</time>
      </trkpt>
      <trkpt lat="41.067606" lon="-6.772035">
        <ele>208.1</ele>
        <time>1970-01-01T02:39:15.000Z</time>
      </trkpt>
      <trkpt lat="41.067627" lon="-6.772074">
        <ele>208</ele>
        <time>1970-01-01T02:39:16.000Z</time>
      </trkpt>
      <trkpt lat="41.067649" lon="-6.772111">
        <ele>208</ele>
        <time>1970-01-01T02:39:17.000Z</time>
      </trkpt>
      <trkpt lat="41.06767" lon="-6.77215">
        <ele>207.9</ele>
        <time>1970-01-01T02:39:18.000Z</time>
      </trkpt>
      <trkpt lat="41.067689" lon="-6.772188">
        <ele>207.8</ele>
        <time>1970-01-01T02:39:19.000Z</time>
      </trkpt>
      <trkpt lat="41.067708" lon="-6.772228">
        <ele>207.7</ele>
        <time>1970-01-01T02:39:20.000Z</time>
      </trkpt>
      <trkpt lat="41.067726" lon="-6.772269">
        <ele>207.6</ele>
        <time>1970-01-01T02:39:21.000Z</time>
      </trkpt>
      <trkpt lat="41.067747" lon="-6.772311">
        <ele>207.5</ele>
        <time>1970-01-01T02:39:22.000Z</time>
      </trkpt>
      <trkpt lat="41.067769" lon="-6.772353">
        <ele>207.4</ele>
        <time>1970-01-01T02:39:23.000Z</time>
      </trkpt>
      <trkpt lat="41.067791" lon="-6.772397">
        <ele>207.3</ele>
        <time>1970-01-01T02:39:24.000Z</time>
      </trkpt>
      <trkpt lat="41.067814" lon="-6.772439">
        <ele>207.2</ele>
        <time>1970-01-01T02:39:25.000Z</time>
      </trkpt>
      <trkpt lat="41.067837" lon="-6.772481">
        <ele>207.1</ele>
        <time>1970-01-01T02:39:26.000Z</time>
      </trkpt>
      <trkpt lat="41.067861" lon="-6.772521">
        <ele>207.1</ele>
        <time>1970-01-01T02:39:27.000Z</time>
      </trkpt>
      <trkpt lat="41.067886" lon="-6.772561">
        <ele>207</ele>
        <time>1970-01-01T02:39:28.000Z</time>
      </trkpt>
      <trkpt lat="41.067913" lon="-6.772602">
        <ele>206.9</ele>
        <time>1970-01-01T02:39:29.000Z</time>
      </trkpt>
      <trkpt lat="41.067942" lon="-6.772645">
        <ele>206.8</ele>
        <time>1970-01-01T02:39:30.000Z</time>
      </trkpt>
      <trkpt lat="41.067976" lon="-6.772689">
        <ele>206.6</ele>
        <time>1970-01-01T02:39:31.000Z</time>
      </trkpt>
      <trkpt lat="41.068014" lon="-6.772734">
        <ele>206.5</ele>
        <time>1970-01-01T02:39:32.000Z</time>
      </trkpt>
      <trkpt lat="41.068055" lon="-6.772781">
        <ele>206.4</ele>
        <time>1970-01-01T02:39:33.000Z</time>
      </trkpt>
      <trkpt lat="41.068098" lon="-6.772828">
        <ele>206.2</ele>
        <time>1970-01-01T02:39:34.000Z</time>
      </trkpt>
      <trkpt lat="41.068142" lon="-6.772876">
        <ele>206.1</ele>
        <time>1970-01-01T02:39:35.000Z</time>
      </trkpt>
      <trkpt lat="41.068186" lon="-6.772923">
        <ele>206</ele>
        <time>1970-01-01T02:39:36.000Z</time>
      </trkpt>
      <trkpt lat="41.068229" lon="-6.772972">
        <ele>205.8</ele>
        <time>1970-01-01T02:39:37.000Z</time>
      </trkpt>
      <trkpt lat="41.068269" lon="-6.773022">
        <ele>205.7</ele>
        <time>1970-01-01T02:39:38.000Z</time>
      </trkpt>
      <trkpt lat="41.068306" lon="-6.773072">
        <ele>205.6</ele>
        <time>1970-01-01T02:39:39.000Z</time>
      </trkpt>
      <trkpt lat="41.068342" lon="-6.773117">
        <ele>205.5</ele>
        <time>1970-01-01T02:39:40.000Z</time>
      </trkpt>
      <trkpt lat="41.06838" lon="-6.773155">
        <ele>205.3</ele>
        <time>1970-01-01T02:39:41.000Z</time>
      </trkpt>
      <trkpt lat="41.06842" lon="-6.773185">
        <ele>205.2</ele>
        <time>1970-01-01T02:39:42.000Z</time>
      </trkpt>
      <trkpt lat="41.068464" lon="-6.77321">
        <ele>205.1</ele>
        <time>1970-01-01T02:39:43.000Z</time>
      </trkpt>
      <trkpt lat="41.068509" lon="-6.773233">
        <ele>205</ele>
        <time>1970-01-01T02:39:44.000Z</time>
      </trkpt>
      <trkpt lat="41.068556" lon="-6.773258">
        <ele>204.9</ele>
        <time>1970-01-01T02:39:45.000Z</time>
      </trkpt>
      <trkpt lat="41.068603" lon="-6.773284">
        <ele>204.7</ele>
        <time>1970-01-01T02:39:46.000Z</time>
      </trkpt>
      <trkpt lat="41.068651" lon="-6.773311">
        <ele>204.6</ele>
        <time>1970-01-01T02:39:47.000Z</time>
      </trkpt>
      <trkpt lat="41.0687" lon="-6.773336">
        <ele>204.5</ele>
        <time>1970-01-01T02:39:48.000Z</time>
      </trkpt>
      <trkpt lat="41.06875" lon="-6.773357">
        <ele>204.4</ele>
        <time>1970-01-01T02:39:49.000Z</time>
      </trkpt>
      <trkpt lat="41.068803" lon="-6.773373">
        <ele>204.2</ele>
        <time>1970-01-01T02:39:50.000Z</time>
      </trkpt>
      <trkpt lat="41.068857" lon="-6.773385">
        <ele>204.1</ele>
        <time>1970-01-01T02:39:51.000Z</time>
      </trkpt>
      <trkpt lat="41.068914" lon="-6.773395">
        <ele>204</ele>
        <time>1970-01-01T02:39:52.000Z</time>
      </trkpt>
      <trkpt lat="41.068971" lon="-6.773402">
        <ele>203.8</ele>
        <time>1970-01-01T02:39:53.000Z</time>
      </trkpt>
      <trkpt lat="41.069028" lon="-6.773408">
        <ele>203.7</ele>
        <time>1970-01-01T02:39:54.000Z</time>
      </trkpt>
      <trkpt lat="41.069083" lon="-6.773407">
        <ele>203.5</ele>
        <time>1970-01-01T02:39:55.000Z</time>
      </trkpt>
      <trkpt lat="41.069133" lon="-6.773397">
        <ele>203.4</ele>
        <time>1970-01-01T02:39:56.000Z</time>
      </trkpt>
      <trkpt lat="41.069175" lon="-6.773373">
        <ele>203.3</ele>
        <time>1970-01-01T02:39:57.000Z</time>
      </trkpt>
      <trkpt lat="41.069206" lon="-6.773333">
        <ele>203.2</ele>
        <time>1970-01-01T02:39:58.000Z</time>
      </trkpt>
      <trkpt lat="41.06923" lon="-6.773282">
        <ele>203.1</ele>
        <time>1970-01-01T02:39:59.000Z</time>
      </trkpt>
      <trkpt lat="41.069252" lon="-6.773223">
        <ele>203</ele>
        <time>1970-01-01T02:40:00.000Z</time>
      </trkpt>
      <trkpt lat="41.069275" lon="-6.773161">
        <ele>202.9</ele>
        <time>1970-01-01T02:40:01.000Z</time>
      </trkpt>
      <trkpt lat="41.0693" lon="-6.773097">
        <ele>202.7</ele>
        <time>1970-01-01T02:40:02.000Z</time>
      </trkpt>
      <trkpt lat="41.069327" lon="-6.773034">
        <ele>202.6</ele>
        <time>1970-01-01T02:40:03.000Z</time>
      </trkpt>
      <trkpt lat="41.069358" lon="-6.772975">
        <ele>202.5</ele>
        <time>1970-01-01T02:40:04.000Z</time>
      </trkpt>
      <trkpt lat="41.069391" lon="-6.772922">
        <ele>202.3</ele>
        <time>1970-01-01T02:40:05.000Z</time>
      </trkpt>
      <trkpt lat="41.069426" lon="-6.772888">
        <ele>202.2</ele>
        <time>1970-01-01T02:40:06.000Z</time>
      </trkpt>
      <trkpt lat="41.069453" lon="-6.772887">
        <ele>202.2</ele>
        <time>1970-01-01T02:40:07.000Z</time>
      </trkpt>
      <trkpt lat="41.069465" lon="-6.772919">
        <ele>202.1</ele>
        <time>1970-01-01T02:40:08.000Z</time>
      </trkpt>
      <trkpt lat="41.069464" lon="-6.772971">
        <ele>202</ele>
        <time>1970-01-01T02:40:09.000Z</time>
      </trkpt>
      <trkpt lat="41.069469" lon="-6.77302">
        <ele>201.9</ele>
        <time>1970-01-01T02:40:10.000Z</time>
      </trkpt>
      <trkpt lat="41.069487" lon="-6.773067">
        <ele>201.8</ele>
        <time>1970-01-01T02:40:11.000Z</time>
      </trkpt>
      <trkpt lat="41.069513" lon="-6.773111">
        <ele>201.7</ele>
        <time>1970-01-01T02:40:12.000Z</time>
      </trkpt>
      <trkpt lat="41.069538" lon="-6.773155">
        <ele>201.6</ele>
        <time>1970-01-01T02:40:13.000Z</time>
      </trkpt>
      <trkpt lat="41.069564" lon="-6.773197">
        <ele>201.5</ele>
        <time>1970-01-01T02:40:14.000Z</time>
      </trkpt>
      <trkpt lat="41.069588" lon="-6.773236">
        <ele>201.4</ele>
        <time>1970-01-01T02:40:15.000Z</time>
      </trkpt>
      <trkpt lat="41.06961" lon="-6.77327">
        <ele>201.3</ele>
        <time>1970-01-01T02:40:16.000Z</time>
      </trkpt>
      <trkpt lat="41.069629" lon="-6.773296">
        <ele>201.3</ele>
        <time>1970-01-01T02:40:17.000Z</time>
      </trkpt>
      <trkpt lat="41.069647" lon="-6.773315">
        <ele>201.2</ele>
        <time>1970-01-01T02:40:18.000Z</time>
      </trkpt>
      <trkpt lat="41.069662" lon="-6.773328">
        <ele>201.2</ele>
        <time>1970-01-01T02:40:19.000Z</time>
      </trkpt>
      <trkpt lat="41.069675" lon="-6.773337">
        <ele>201.1</ele>
        <time>1970-01-01T02:40:20.000Z</time>
      </trkpt>
      <trkpt lat="41.069683" lon="-6.773342">
        <ele>201.1</ele>
        <time>1970-01-01T02:40:21.000Z</time>
      </trkpt>
      <trkpt lat="41.069687" lon="-6.773345">
        <ele>201.1</ele>
        <time>1970-01-01T02:40:22.000Z</time>
      </trkpt>
      <trkpt lat="41.069689" lon="-6.773348">
        <ele>201.1</ele>
        <time>1970-01-01T02:40:23.000Z</time>
      </trkpt>
      <trkpt lat="41.06969" lon="-6.773349">
        <ele>201.1</ele>
        <time>1970-01-01T02:40:24.000Z</time>
      </trkpt>
      <trkpt lat="41.069692" lon="-6.773348">
        <ele>201.1</ele>
        <time>1970-01-01T02:40:25.000Z</time>
      </trkpt>
      <trkpt lat="41.069694" lon="-6.773345">
        <ele>201.1</ele>
        <time>1970-01-01T02:40:26.000Z</time>
      </trkpt>
      <trkpt lat="41.069695" lon="-6.773342">
        <ele>201.1</ele>
        <time>1970-01-01T02:40:27.000Z</time>
      </trkpt>
      <trkpt lat="41.069697" lon="-6.77334">
        <ele>201.1</ele>
        <time>1970-01-01T02:40:28.000Z</time>
      </trkpt>
      <trkpt lat="41.069699" lon="-6.773338">
        <ele>201.1</ele>
        <time>1970-01-01T02:40:29.000Z</time>
      </trkpt>
      <trkpt lat="41.069701" lon="-6.773336">
        <ele>201.1</ele>
        <time>1970-01-01T02:40:30.000Z</time>
      </trkpt>
      <trkpt lat="41.069703" lon="-6.773334">
        <ele>201</ele>
        <time>1970-01-01T02:40:31.000Z</time>
      </trkpt>
      <trkpt lat="41.069744" lon="-6.773351">
        <ele>200.9</ele>
        <time>1970-01-01T02:40:32.000Z</time>
      </trkpt>
      <trkpt lat="41.069751" lon="-6.773351">
        <ele>200.9</ele>
        <time>1970-01-01T02:40:33.000Z</time>
      </trkpt>
      <trkpt lat="41.069758" lon="-6.773351">
        <ele>200.9</ele>
        <time>1970-01-01T02:40:51.000Z</time>
      </trkpt>
      <trkpt lat="41.069763" lon="-6.773351">
        <ele>200.9</ele>
        <time>1970-01-01T02:40:52.000Z</time>
      </trkpt>
      <trkpt lat="41.069766" lon="-6.773353">
        <ele>200.9</ele>
        <time>1970-01-01T02:40:53.000Z</time>
      </trkpt>
      <trkpt lat="41.069768" lon="-6.773353">
        <ele>200.9</ele>
        <time>1970-01-01T02:40:54.000Z</time>
      </trkpt>
      <trkpt lat="41.069771" lon="-6.773351">
        <ele>200.9</ele>
        <time>1970-01-01T02:40:55.000Z</time>
      </trkpt>
      <trkpt lat="41.069773" lon="-6.773349">
        <ele>200.9</ele>
        <time>1970-01-01T02:40:56.000Z</time>
      </trkpt>
      <trkpt lat="41.069775" lon="-6.773348">
        <ele>200.9</ele>
        <time>1970-01-01T02:40:57.000Z</time>
      </trkpt>
      <trkpt lat="41.069777" lon="-6.773348">
        <ele>200.9</ele>
        <time>1970-01-01T02:40:58.000Z</time>
      </trkpt>
      <trkpt lat="41.069778" lon="-6.773348">
        <ele>200.9</ele>
        <time>1970-01-01T02:40:59.000Z</time>
      </trkpt>
      <trkpt lat="41.069779" lon="-6.773347">
        <ele>200.9</ele>
        <time>1970-01-01T02:41:00.000Z</time>
      </trkpt>
      <trkpt lat="41.06983" lon="-6.773388">
        <ele>200.7</ele>
        <time>1970-01-01T02:41:01.000Z</time>
      </trkpt>
      <trkpt lat="41.069842" lon="-6.773402">
        <ele>200.7</ele>
        <time>1970-01-01T02:41:02.000Z</time>
      </trkpt>
      <trkpt lat="41.069854" lon="-6.773417">
        <ele>200.6</ele>
        <time>1970-01-01T02:42:14.000Z</time>
      </trkpt>
      <trkpt lat="41.06987" lon="-6.773433">
        <ele>200.6</ele>
        <time>1970-01-01T02:42:15.000Z</time>
      </trkpt>
      <trkpt lat="41.069888" lon="-6.773451">
        <ele>200.5</ele>
        <time>1970-01-01T02:42:16.000Z</time>
      </trkpt>
      <trkpt lat="41.06991" lon="-6.773472">
        <ele>200.5</ele>
        <time>1970-01-01T02:42:17.000Z</time>
      </trkpt>
      <trkpt lat="41.069933" lon="-6.773493">
        <ele>200.4</ele>
        <time>1970-01-01T02:42:18.000Z</time>
      </trkpt>
      <trkpt lat="41.069958" lon="-6.773514">
        <ele>200.3</ele>
        <time>1970-01-01T02:42:19.000Z</time>
      </trkpt>
      <trkpt lat="41.069985" lon="-6.773537">
        <ele>200.2</ele>
        <time>1970-01-01T02:42:20.000Z</time>
      </trkpt>
      <trkpt lat="41.070013" lon="-6.77356">
        <ele>200.2</ele>
        <time>1970-01-01T02:42:21.000Z</time>
      </trkpt>
      <trkpt lat="41.070042" lon="-6.773584">
        <ele>200.1</ele>
        <time>1970-01-01T02:42:22.000Z</time>
      </trkpt>
      <trkpt lat="41.070073" lon="-6.773607">
        <ele>200</ele>
        <time>1970-01-01T02:42:23.000Z</time>
      </trkpt>
      <trkpt lat="41.070106" lon="-6.77363">
        <ele>199.9</ele>
        <time>1970-01-01T02:42:24.000Z</time>
      </trkpt>
      <trkpt lat="41.070138" lon="-6.773654">
        <ele>199.8</ele>
        <time>1970-01-01T02:42:25.000Z</time>
      </trkpt>
      <trkpt lat="41.07017" lon="-6.773679">
        <ele>199.7</ele>
        <time>1970-01-01T02:42:26.000Z</time>
      </trkpt>
      <trkpt lat="41.070201" lon="-6.773705">
        <ele>199.6</ele>
        <time>1970-01-01T02:42:27.000Z</time>
      </trkpt>
      <trkpt lat="41.070233" lon="-6.773731">
        <ele>199.5</ele>
        <time>1970-01-01T02:42:28.000Z</time>
      </trkpt>
      <trkpt lat="41.070266" lon="-6.773756">
        <ele>199.5</ele>
        <time>1970-01-01T02:42:29.000Z</time>
      </trkpt>
      <trkpt lat="41.070301" lon="-6.773781">
        <ele>199.4</ele>
        <time>1970-01-01T02:42:30.000Z</time>
      </trkpt>
      <trkpt lat="41.070338" lon="-6.773806">
        <ele>199.3</ele>
        <time>1970-01-01T02:42:31.000Z</time>
      </trkpt>
      <trkpt lat="41.070376" lon="-6.77383">
        <ele>199.2</ele>
        <time>1970-01-01T02:42:32.000Z</time>
      </trkpt>
      <trkpt lat="41.070416" lon="-6.773857">
        <ele>199</ele>
        <time>1970-01-01T02:42:33.000Z</time>
      </trkpt>
      <trkpt lat="41.070456" lon="-6.773882">
        <ele>198.9</ele>
        <time>1970-01-01T02:42:34.000Z</time>
      </trkpt>
      <trkpt lat="41.070497" lon="-6.773905">
        <ele>198.8</ele>
        <time>1970-01-01T02:42:35.000Z</time>
      </trkpt>
      <trkpt lat="41.070536" lon="-6.773926">
        <ele>198.7</ele>
        <time>1970-01-01T02:42:36.000Z</time>
      </trkpt>
      <trkpt lat="41.070574" lon="-6.773948">
        <ele>198.6</ele>
        <time>1970-01-01T02:42:37.000Z</time>
      </trkpt>
      <trkpt lat="41.070612" lon="-6.773971">
        <ele>198.5</ele>
        <time>1970-01-01T02:42:38.000Z</time>
      </trkpt>
      <trkpt lat="41.070648" lon="-6.773993">
        <ele>198.4</ele>
        <time>1970-01-01T02:42:39.000Z</time>
      </trkpt>
      <trkpt lat="41.070683" lon="-6.774017">
        <ele>198.3</ele>
        <time>1970-01-01T02:42:40.000Z</time>
      </trkpt>
      <trkpt lat="41.070717" lon="-6.774041">
        <ele>198.2</ele>
        <time>1970-01-01T02:42:41.000Z</time>
      </trkpt>
      <trkpt lat="41.070751" lon="-6.774065">
        <ele>198.1</ele>
        <time>1970-01-01T02:42:42.000Z</time>
      </trkpt>
      <trkpt lat="41.070785" lon="-6.774088">
        <ele>198.1</ele>
        <time>1970-01-01T02:42:43.000Z</time>
      </trkpt>
      <trkpt lat="41.070818" lon="-6.774112">
        <ele>198</ele>
        <time>1970-01-01T02:42:44.000Z</time>
      </trkpt>
      <trkpt lat="41.070848" lon="-6.774135">
        <ele>197.9</ele>
        <time>1970-01-01T02:42:45.000Z</time>
      </trkpt>
      <trkpt lat="41.070875" lon="-6.774158">
        <ele>197.8</ele>
        <time>1970-01-01T02:42:46.000Z</time>
      </trkpt>
      <trkpt lat="41.070898" lon="-6.774182">
        <ele>197.7</ele>
        <time>1970-01-01T02:42:47.000Z</time>
      </trkpt>
      <trkpt lat="41.070921" lon="-6.774207">
        <ele>197.7</ele>
        <time>1970-01-01T02:42:48.000Z</time>
      </trkpt>
      <trkpt lat="41.070946" lon="-6.774231">
        <ele>197.6</ele>
        <time>1970-01-01T02:42:49.000Z</time>
      </trkpt>
      <trkpt lat="41.070972" lon="-6.77425">
        <ele>197.5</ele>
        <time>1970-01-01T02:42:50.000Z</time>
      </trkpt>
      <trkpt lat="41.070996" lon="-6.774254">
        <ele>197.5</ele>
        <time>1970-01-01T02:42:51.000Z</time>
      </trkpt>
      <trkpt lat="41.071015" lon="-6.774244">
        <ele>197.6</ele>
        <time>1970-01-01T02:42:52.000Z</time>
      </trkpt>
      <trkpt lat="41.071024" lon="-6.774223">
        <ele>197.6</ele>
        <time>1970-01-01T02:42:53.000Z</time>
      </trkpt>
      <trkpt lat="41.07103" lon="-6.7742">
        <ele>197.7</ele>
        <time>1970-01-01T02:42:54.000Z</time>
      </trkpt>
      <trkpt lat="41.07103" lon="-6.774181">
        <ele>197.8</ele>
        <time>1970-01-01T02:42:55.000Z</time>
      </trkpt>
      <trkpt lat="41.071028" lon="-6.774168">
        <ele>197.8</ele>
        <time>1970-01-01T02:42:56.000Z</time>
      </trkpt>
      <trkpt lat="41.071022" lon="-6.774155">
        <ele>197.9</ele>
        <time>1970-01-01T02:42:57.000Z</time>
      </trkpt>
      <trkpt lat="41.071016" lon="-6.774137">
        <ele>198.1</ele>
        <time>1970-01-01T02:42:58.000Z</time>
      </trkpt>
      <trkpt lat="41.071009" lon="-6.774114">
        <ele>198.2</ele>
        <time>1970-01-01T02:42:59.000Z</time>
      </trkpt>
      <trkpt lat="41.071001" lon="-6.774088">
        <ele>198.5</ele>
        <time>1970-01-01T02:43:00.000Z</time>
      </trkpt>
      <trkpt lat="41.070992" lon="-6.774062">
        <ele>198.7</ele>
        <time>1970-01-01T02:43:01.000Z</time>
      </trkpt>
      <trkpt lat="41.070985" lon="-6.774035">
        <ele>199</ele>
        <time>1970-01-01T02:43:02.000Z</time>
      </trkpt>
      <trkpt lat="41.070979" lon="-6.774009">
        <ele>199.3</ele>
        <time>1970-01-01T02:43:03.000Z</time>
      </trkpt>
      <trkpt lat="41.070973" lon="-6.773984">
        <ele>199.6</ele>
        <time>1970-01-01T02:43:04.000Z</time>
      </trkpt>
      <trkpt lat="41.070969" lon="-6.77396">
        <ele>199.9</ele>
        <time>1970-01-01T02:43:05.000Z</time>
      </trkpt>
      <trkpt lat="41.070965" lon="-6.773937">
        <ele>200.1</ele>
        <time>1970-01-01T02:43:06.000Z</time>
      </trkpt>
      <trkpt lat="41.07096" lon="-6.773914">
        <ele>200.4</ele>
        <time>1970-01-01T02:43:07.000Z</time>
      </trkpt>
      <trkpt lat="41.070955" lon="-6.773891">
        <ele>200.7</ele>
        <time>1970-01-01T02:43:08.000Z</time>
      </trkpt>
      <trkpt lat="41.070949" lon="-6.773867">
        <ele>200.9</ele>
        <time>1970-01-01T02:43:09.000Z</time>
      </trkpt>
      <trkpt lat="41.070943" lon="-6.773841">
        <ele>201.2</ele>
        <time>1970-01-01T02:43:10.000Z</time>
      </trkpt>
      <trkpt lat="41.070936" lon="-6.773814">
        <ele>201.5</ele>
        <time>1970-01-01T02:43:11.000Z</time>
      </trkpt>
      <trkpt lat="41.07093" lon="-6.773789">
        <ele>201.8</ele>
        <time>1970-01-01T02:43:12.000Z</time>
      </trkpt>
      <trkpt lat="41.070924" lon="-6.773765">
        <ele>202</ele>
        <time>1970-01-01T02:43:13.000Z</time>
      </trkpt>
      <trkpt lat="41.070918" lon="-6.773743">
        <ele>202.3</ele>
        <time>1970-01-01T02:43:14.000Z</time>
      </trkpt>
      <trkpt lat="41.07091" lon="-6.773721">
        <ele>202.5</ele>
        <time>1970-01-01T02:43:15.000Z</time>
      </trkpt>
      <trkpt lat="41.070903" lon="-6.773699">
        <ele>202.8</ele>
        <time>1970-01-01T02:43:16.000Z</time>
      </trkpt>
      <trkpt lat="41.070896" lon="-6.773675">
        <ele>203</ele>
        <time>1970-01-01T02:43:17.000Z</time>
      </trkpt>
      <trkpt lat="41.070891" lon="-6.773652">
        <ele>203.3</ele>
        <time>1970-01-01T02:43:18.000Z</time>
      </trkpt>
      <trkpt lat="41.070885" lon="-6.77363">
        <ele>203.5</ele>
        <time>1970-01-01T02:43:19.000Z</time>
      </trkpt>
      <trkpt lat="41.070878" lon="-6.773609">
        <ele>203.8</ele>
        <time>1970-01-01T02:43:20.000Z</time>
      </trkpt>
      <trkpt lat="41.070871" lon="-6.773589">
        <ele>204</ele>
        <time>1970-01-01T02:43:21.000Z</time>
      </trkpt>
      <trkpt lat="41.070866" lon="-6.773569">
        <ele>204.2</ele>
        <time>1970-01-01T02:43:22.000Z</time>
      </trkpt>
      <trkpt lat="41.07086" lon="-6.773548">
        <ele>204.4</ele>
        <time>1970-01-01T02:43:23.000Z</time>
      </trkpt>
      <trkpt lat="41.070854" lon="-6.773527">
        <ele>204.6</ele>
        <time>1970-01-01T02:43:24.000Z</time>
      </trkpt>
      <trkpt lat="41.070847" lon="-6.773506">
        <ele>204.8</ele>
        <time>1970-01-01T02:43:25.000Z</time>
      </trkpt>
      <trkpt lat="41.07084" lon="-6.773488">
        <ele>205</ele>
        <time>1970-01-01T02:43:26.000Z</time>
      </trkpt>
      <trkpt lat="41.070833" lon="-6.773468">
        <ele>205.2</ele>
        <time>1970-01-01T02:43:27.000Z</time>
      </trkpt>
      <trkpt lat="41.070828" lon="-6.773447">
        <ele>205.4</ele>
        <time>1970-01-01T02:43:28.000Z</time>
      </trkpt>
      <trkpt lat="41.070823" lon="-6.773426">
        <ele>205.6</ele>
        <time>1970-01-01T02:43:29.000Z</time>
      </trkpt>
      <trkpt lat="41.070818" lon="-6.773405">
        <ele>205.9</ele>
        <time>1970-01-01T02:43:30.000Z</time>
      </trkpt>
      <trkpt lat="41.070813" lon="-6.773385">
        <ele>206.1</ele>
        <time>1970-01-01T02:43:31.000Z</time>
      </trkpt>
      <trkpt lat="41.070808" lon="-6.773365">
        <ele>206.4</ele>
        <time>1970-01-01T02:43:32.000Z</time>
      </trkpt>
      <trkpt lat="41.070804" lon="-6.773345">
        <ele>206.6</ele>
        <time>1970-01-01T02:43:33.000Z</time>
      </trkpt>
      <trkpt lat="41.0708" lon="-6.773325">
        <ele>207</ele>
        <time>1970-01-01T02:43:34.000Z</time>
      </trkpt>
      <trkpt lat="41.070796" lon="-6.773304">
        <ele>207.3</ele>
        <time>1970-01-01T02:43:35.000Z</time>
      </trkpt>
      <trkpt lat="41.070795" lon="-6.773284">
        <ele>207.6</ele>
        <time>1970-01-01T02:43:36.000Z</time>
      </trkpt>
      <trkpt lat="41.070794" lon="-6.773263">
        <ele>207.9</ele>
        <time>1970-01-01T02:43:37.000Z</time>
      </trkpt>
      <trkpt lat="41.070793" lon="-6.773243">
        <ele>208.2</ele>
        <time>1970-01-01T02:43:38.000Z</time>
      </trkpt>
      <trkpt lat="41.070792" lon="-6.773221">
        <ele>208.6</ele>
        <time>1970-01-01T02:43:39.000Z</time>
      </trkpt>
      <trkpt lat="41.070792" lon="-6.773199">
        <ele>208.9</ele>
        <time>1970-01-01T02:43:40.000Z</time>
      </trkpt>
      <trkpt lat="41.070793" lon="-6.773178">
        <ele>209.2</ele>
        <time>1970-01-01T02:43:41.000Z</time>
      </trkpt>
      <trkpt lat="41.070793" lon="-6.773157">
        <ele>209.5</ele>
        <time>1970-01-01T02:43:42.000Z</time>
      </trkpt>
      <trkpt lat="41.070794" lon="-6.773137">
        <ele>209.8</ele>
        <time>1970-01-01T02:43:43.000Z</time>
      </trkpt>
      <trkpt lat="41.070794" lon="-6.773115">
        <ele>210.1</ele>
        <time>1970-01-01T02:43:44.000Z</time>
      </trkpt>
      <trkpt lat="41.070797" lon="-6.773091">
        <ele>210.3</ele>
        <time>1970-01-01T02:43:45.000Z</time>
      </trkpt>
      <trkpt lat="41.0708" lon="-6.773068">
        <ele>210.6</ele>
        <time>1970-01-01T02:43:46.000Z</time>
      </trkpt>
      <trkpt lat="41.070803" lon="-6.773045">
        <ele>210.8</ele>
        <time>1970-01-01T02:43:47.000Z</time>
      </trkpt>
      <trkpt lat="41.070807" lon="-6.773023">
        <ele>211.1</ele>
        <time>1970-01-01T02:43:48.000Z</time>
      </trkpt>
      <trkpt lat="41.070812" lon="-6.772999">
        <ele>211.3</ele>
        <time>1970-01-01T02:43:49.000Z</time>
      </trkpt>
      <trkpt lat="41.070818" lon="-6.772976">
        <ele>211.5</ele>
        <time>1970-01-01T02:43:50.000Z</time>
      </trkpt>
      <trkpt lat="41.070825" lon="-6.772954">
        <ele>211.7</ele>
        <time>1970-01-01T02:43:51.000Z</time>
      </trkpt>
      <trkpt lat="41.070831" lon="-6.772934">
        <ele>211.9</ele>
        <time>1970-01-01T02:43:52.000Z</time>
      </trkpt>
      <trkpt lat="41.070839" lon="-6.772913">
        <ele>212.1</ele>
        <time>1970-01-01T02:43:53.000Z</time>
      </trkpt>
      <trkpt lat="41.070848" lon="-6.772892">
        <ele>212.3</ele>
        <time>1970-01-01T02:43:54.000Z</time>
      </trkpt>
      <trkpt lat="41.070857" lon="-6.772871">
        <ele>212.6</ele>
        <time>1970-01-01T02:43:55.000Z</time>
      </trkpt>
      <trkpt lat="41.070866" lon="-6.772851">
        <ele>212.8</ele>
        <time>1970-01-01T02:43:56.000Z</time>
      </trkpt>
      <trkpt lat="41.070874" lon="-6.772832">
        <ele>213</ele>
        <time>1970-01-01T02:43:57.000Z</time>
      </trkpt>
      <trkpt lat="41.070882" lon="-6.772813">
        <ele>213.2</ele>
        <time>1970-01-01T02:43:58.000Z</time>
      </trkpt>
      <trkpt lat="41.07089" lon="-6.772793">
        <ele>213.4</ele>
        <time>1970-01-01T02:43:59.000Z</time>
      </trkpt>
      <trkpt lat="41.070899" lon="-6.772772">
        <ele>213.6</ele>
        <time>1970-01-01T02:44:00.000Z</time>
      </trkpt>
      <trkpt lat="41.070907" lon="-6.77275">
        <ele>213.8</ele>
        <time>1970-01-01T02:44:01.000Z</time>
      </trkpt>
      <trkpt lat="41.070915" lon="-6.772728">
        <ele>214.1</ele>
        <time>1970-01-01T02:44:02.000Z</time>
      </trkpt>
      <trkpt lat="41.070923" lon="-6.77271">
        <ele>214.3</ele>
        <time>1970-01-01T02:44:03.000Z</time>
      </trkpt>
      <trkpt lat="41.070931" lon="-6.772694">
        <ele>214.5</ele>
        <time>1970-01-01T02:44:04.000Z</time>
      </trkpt>
      <trkpt lat="41.07094" lon="-6.77268">
        <ele>214.7</ele>
        <time>1970-01-01T02:44:05.000Z</time>
      </trkpt>
      <trkpt lat="41.070949" lon="-6.772665">
        <ele>214.9</ele>
        <time>1970-01-01T02:44:06.000Z</time>
      </trkpt>
      <trkpt lat="41.070958" lon="-6.77265">
        <ele>215.1</ele>
        <time>1970-01-01T02:44:07.000Z</time>
      </trkpt>
      <trkpt lat="41.070968" lon="-6.772635">
        <ele>215.4</ele>
        <time>1970-01-01T02:44:08.000Z</time>
      </trkpt>
      <trkpt lat="41.070977" lon="-6.77262">
        <ele>215.6</ele>
        <time>1970-01-01T02:44:09.000Z</time>
      </trkpt>
      <trkpt lat="41.070988" lon="-6.772605">
        <ele>215.8</ele>
        <time>1970-01-01T02:44:10.000Z</time>
      </trkpt>
      <trkpt lat="41.070998" lon="-6.772591">
        <ele>216.1</ele>
        <time>1970-01-01T02:44:11.000Z</time>
      </trkpt>
      <trkpt lat="41.071008" lon="-6.772576">
        <ele>216.3</ele>
        <time>1970-01-01T02:44:12.000Z</time>
      </trkpt>
      <trkpt lat="41.071018" lon="-6.77256">
        <ele>216.5</ele>
        <time>1970-01-01T02:44:13.000Z</time>
      </trkpt>
      <trkpt lat="41.071029" lon="-6.772543">
        <ele>216.8</ele>
        <time>1970-01-01T02:44:14.000Z</time>
      </trkpt>
      <trkpt lat="41.071041" lon="-6.772528">
        <ele>217</ele>
        <time>1970-01-01T02:44:15.000Z</time>
      </trkpt>
      <trkpt lat="41.071051" lon="-6.772516">
        <ele>217.2</ele>
        <time>1970-01-01T02:44:16.000Z</time>
      </trkpt>
      <trkpt lat="41.071062" lon="-6.772503">
        <ele>217.5</ele>
        <time>1970-01-01T02:44:17.000Z</time>
      </trkpt>
      <trkpt lat="41.071075" lon="-6.772486">
        <ele>217.8</ele>
        <time>1970-01-01T02:44:18.000Z</time>
      </trkpt>
      <trkpt lat="41.071088" lon="-6.772469">
        <ele>218</ele>
        <time>1970-01-01T02:44:19.000Z</time>
      </trkpt>
      <trkpt lat="41.071102" lon="-6.772453">
        <ele>218.3</ele>
        <time>1970-01-01T02:44:20.000Z</time>
      </trkpt>
      <trkpt lat="41.071115" lon="-6.772438">
        <ele>218.6</ele>
        <time>1970-01-01T02:44:21.000Z</time>
      </trkpt>
      <trkpt lat="41.071127" lon="-6.772424">
        <ele>218.9</ele>
        <time>1970-01-01T02:44:22.000Z</time>
      </trkpt>
      <trkpt lat="41.071141" lon="-6.77241">
        <ele>219.1</ele>
        <time>1970-01-01T02:44:23.000Z</time>
      </trkpt>
      <trkpt lat="41.071156" lon="-6.772397">
        <ele>219.4</ele>
        <time>1970-01-01T02:44:24.000Z</time>
      </trkpt>
      <trkpt lat="41.071174" lon="-6.772383">
        <ele>219.7</ele>
        <time>1970-01-01T02:44:25.000Z</time>
      </trkpt>
      <trkpt lat="41.071192" lon="-6.772369">
        <ele>220</ele>
        <time>1970-01-01T02:44:26.000Z</time>
      </trkpt>
      <trkpt lat="41.071209" lon="-6.772358">
        <ele>220.2</ele>
        <time>1970-01-01T02:44:27.000Z</time>
      </trkpt>
      <trkpt lat="41.071226" lon="-6.772351">
        <ele>220.4</ele>
        <time>1970-01-01T02:44:28.000Z</time>
      </trkpt>
      <trkpt lat="41.071245" lon="-6.772345">
        <ele>220.7</ele>
        <time>1970-01-01T02:44:29.000Z</time>
      </trkpt>
      <trkpt lat="41.071266" lon="-6.77234">
        <ele>221</ele>
        <time>1970-01-01T02:44:30.000Z</time>
      </trkpt>
      <trkpt lat="41.071288" lon="-6.772333">
        <ele>221.2</ele>
        <time>1970-01-01T02:44:31.000Z</time>
      </trkpt>
      <trkpt lat="41.071309" lon="-6.772326">
        <ele>221.5</ele>
        <time>1970-01-01T02:44:32.000Z</time>
      </trkpt>
      <trkpt lat="41.071332" lon="-6.772316">
        <ele>221.8</ele>
        <time>1970-01-01T02:44:33.000Z</time>
      </trkpt>
      <trkpt lat="41.071353" lon="-6.772305">
        <ele>222.1</ele>
        <time>1970-01-01T02:44:34.000Z</time>
      </trkpt>
      <trkpt lat="41.071372" lon="-6.772293">
        <ele>222.3</ele>
        <time>1970-01-01T02:44:35.000Z</time>
      </trkpt>
      <trkpt lat="41.071389" lon="-6.772282">
        <ele>222.6</ele>
        <time>1970-01-01T02:44:36.000Z</time>
      </trkpt>
      <trkpt lat="41.071405" lon="-6.772269">
        <ele>222.8</ele>
        <time>1970-01-01T02:44:37.000Z</time>
      </trkpt>
      <trkpt lat="41.071423" lon="-6.772255">
        <ele>223</ele>
        <time>1970-01-01T02:44:38.000Z</time>
      </trkpt>
      <trkpt lat="41.071443" lon="-6.772242">
        <ele>223.2</ele>
        <time>1970-01-01T02:44:39.000Z</time>
      </trkpt>
      <trkpt lat="41.071463" lon="-6.772229">
        <ele>223.5</ele>
        <time>1970-01-01T02:44:40.000Z</time>
      </trkpt>
      <trkpt lat="41.071485" lon="-6.772218">
        <ele>223.7</ele>
        <time>1970-01-01T02:44:41.000Z</time>
      </trkpt>
      <trkpt lat="41.071508" lon="-6.772208">
        <ele>223.9</ele>
        <time>1970-01-01T02:44:42.000Z</time>
      </trkpt>
      <trkpt lat="41.071533" lon="-6.772199">
        <ele>224.1</ele>
        <time>1970-01-01T02:44:43.000Z</time>
      </trkpt>
      <trkpt lat="41.071556" lon="-6.772192">
        <ele>224.2</ele>
        <time>1970-01-01T02:44:44.000Z</time>
      </trkpt>
      <trkpt lat="41.07158" lon="-6.772185">
        <ele>224.4</ele>
        <time>1970-01-01T02:44:45.000Z</time>
      </trkpt>
      <trkpt lat="41.071603" lon="-6.772177">
        <ele>224.5</ele>
        <time>1970-01-01T02:44:46.000Z</time>
      </trkpt>
      <trkpt lat="41.071628" lon="-6.772163">
        <ele>224.6</ele>
        <time>1970-01-01T02:44:47.000Z</time>
      </trkpt>
      <trkpt lat="41.071652" lon="-6.772146">
        <ele>224.7</ele>
        <time>1970-01-01T02:44:48.000Z</time>
      </trkpt>
      <trkpt lat="41.071676" lon="-6.772127">
        <ele>224.7</ele>
        <time>1970-01-01T02:44:49.000Z</time>
      </trkpt>
      <trkpt lat="41.071701" lon="-6.772109">
        <ele>224.8</ele>
        <time>1970-01-01T02:44:50.000Z</time>
      </trkpt>
      <trkpt lat="41.071725" lon="-6.772088">
        <ele>224.8</ele>
        <time>1970-01-01T02:44:51.000Z</time>
      </trkpt>
      <trkpt lat="41.071749" lon="-6.772065">
        <ele>224.8</ele>
        <time>1970-01-01T02:44:52.000Z</time>
      </trkpt>
      <trkpt lat="41.071774" lon="-6.772038">
        <ele>224.9</ele>
        <time>1970-01-01T02:44:53.000Z</time>
      </trkpt>
      <trkpt lat="41.071797" lon="-6.772008">
        <ele>224.9</ele>
        <time>1970-01-01T02:44:54.000Z</time>
      </trkpt>
      <trkpt lat="41.071822" lon="-6.771976">
        <ele>224.9</ele>
        <time>1970-01-01T02:44:55.000Z</time>
      </trkpt>
      <trkpt lat="41.071851" lon="-6.771942">
        <ele>224.9</ele>
        <time>1970-01-01T02:44:56.000Z</time>
      </trkpt>
      <trkpt lat="41.071887" lon="-6.771905">
        <ele>224.8</ele>
        <time>1970-01-01T02:44:57.000Z</time>
      </trkpt>
      <trkpt lat="41.071926" lon="-6.771872">
        <ele>224.7</ele>
        <time>1970-01-01T02:44:58.000Z</time>
      </trkpt>
      <trkpt lat="41.071964" lon="-6.771852">
        <ele>224.5</ele>
        <time>1970-01-01T02:44:59.000Z</time>
      </trkpt>
      <trkpt lat="41.072004" lon="-6.771847">
        <ele>224.3</ele>
        <time>1970-01-01T02:45:00.000Z</time>
      </trkpt>
      <trkpt lat="41.072045" lon="-6.77185">
        <ele>224.2</ele>
        <time>1970-01-01T02:45:01.000Z</time>
      </trkpt>
      <trkpt lat="41.07209" lon="-6.771853">
        <ele>224.1</ele>
        <time>1970-01-01T02:45:02.000Z</time>
      </trkpt>
      <trkpt lat="41.072135" lon="-6.771856">
        <ele>224.1</ele>
        <time>1970-01-01T02:45:03.000Z</time>
      </trkpt>
      <trkpt lat="41.072178" lon="-6.771856">
        <ele>224.3</ele>
        <time>1970-01-01T02:45:04.000Z</time>
      </trkpt>
      <trkpt lat="41.072219" lon="-6.771854">
        <ele>224.7</ele>
        <time>1970-01-01T02:45:05.000Z</time>
      </trkpt>
      <trkpt lat="41.072259" lon="-6.771853">
        <ele>225.2</ele>
        <time>1970-01-01T02:45:06.000Z</time>
      </trkpt>
      <trkpt lat="41.072297" lon="-6.771853">
        <ele>225.8</ele>
        <time>1970-01-01T02:45:07.000Z</time>
      </trkpt>
      <trkpt lat="41.072334" lon="-6.771855">
        <ele>226.3</ele>
        <time>1970-01-01T02:45:08.000Z</time>
      </trkpt>
      <trkpt lat="41.072367" lon="-6.771862">
        <ele>226.8</ele>
        <time>1970-01-01T02:45:09.000Z</time>
      </trkpt>
      <trkpt lat="41.072399" lon="-6.771871">
        <ele>227.2</ele>
        <time>1970-01-01T02:45:10.000Z</time>
      </trkpt>
      <trkpt lat="41.07243" lon="-6.771885">
        <ele>227.6</ele>
        <time>1970-01-01T02:45:11.000Z</time>
      </trkpt>
      <trkpt lat="41.072459" lon="-6.7719">
        <ele>227.8</ele>
        <time>1970-01-01T02:45:12.000Z</time>
      </trkpt>
      <trkpt lat="41.072486" lon="-6.771915">
        <ele>227.9</ele>
        <time>1970-01-01T02:45:13.000Z</time>
      </trkpt>
      <trkpt lat="41.072512" lon="-6.771929">
        <ele>228</ele>
        <time>1970-01-01T02:45:14.000Z</time>
      </trkpt>
      <trkpt lat="41.072537" lon="-6.771939">
        <ele>228.1</ele>
        <time>1970-01-01T02:45:15.000Z</time>
      </trkpt>
      <trkpt lat="41.072561" lon="-6.771942">
        <ele>228.1</ele>
        <time>1970-01-01T02:45:16.000Z</time>
      </trkpt>
      <trkpt lat="41.072581" lon="-6.771936">
        <ele>228.2</ele>
        <time>1970-01-01T02:45:17.000Z</time>
      </trkpt>
      <trkpt lat="41.072599" lon="-6.771924">
        <ele>228.2</ele>
        <time>1970-01-01T02:45:18.000Z</time>
      </trkpt>
      <trkpt lat="41.072612" lon="-6.771909">
        <ele>228.2</ele>
        <time>1970-01-01T02:45:19.000Z</time>
      </trkpt>
      <trkpt lat="41.072621" lon="-6.771893">
        <ele>228.2</ele>
        <time>1970-01-01T02:45:20.000Z</time>
      </trkpt>
      <trkpt lat="41.072624" lon="-6.771875">
        <ele>228.2</ele>
        <time>1970-01-01T02:45:21.000Z</time>
      </trkpt>
      <trkpt lat="41.072628" lon="-6.771855">
        <ele>228.2</ele>
        <time>1970-01-01T02:45:22.000Z</time>
      </trkpt>
      <trkpt lat="41.07263" lon="-6.771836">
        <ele>228.2</ele>
        <time>1970-01-01T02:45:23.000Z</time>
      </trkpt>
      <trkpt lat="41.072632" lon="-6.771817">
        <ele>228.2</ele>
        <time>1970-01-01T02:45:24.000Z</time>
      </trkpt>
      <trkpt lat="41.072634" lon="-6.771801">
        <ele>228.2</ele>
        <time>1970-01-01T02:45:25.000Z</time>
      </trkpt>
      <trkpt lat="41.072636" lon="-6.771784">
        <ele>228.9</ele>
        <time>1970-01-01T02:45:26.000Z</time>
      </trkpt>
      <trkpt lat="41.072634" lon="-6.771771">
        <ele>229</ele>
        <time>1970-01-01T02:45:27.000Z</time>
      </trkpt>
      <trkpt lat="41.072629" lon="-6.77176">
        <ele>229.1</ele>
        <time>1970-01-01T02:45:28.000Z</time>
      </trkpt>
      <trkpt lat="41.072623" lon="-6.77175">
        <ele>229.2</ele>
        <time>1970-01-01T02:45:29.000Z</time>
      </trkpt>
      <trkpt lat="41.07262" lon="-6.771739">
        <ele>229.4</ele>
        <time>1970-01-01T02:45:30.000Z</time>
      </trkpt>
      <trkpt lat="41.072619" lon="-6.771726">
        <ele>229.5</ele>
        <time>1970-01-01T02:45:31.000Z</time>
      </trkpt>
      <trkpt lat="41.07262" lon="-6.771714">
        <ele>229.6</ele>
        <time>1970-01-01T02:45:32.000Z</time>
      </trkpt>
      <trkpt lat="41.072621" lon="-6.771702">
        <ele>229.7</ele>
        <time>1970-01-01T02:45:33.000Z</time>
      </trkpt>
      <trkpt lat="41.072622" lon="-6.77169">
        <ele>229.8</ele>
        <time>1970-01-01T02:45:34.000Z</time>
      </trkpt>
      <trkpt lat="41.072624" lon="-6.771676">
        <ele>229.9</ele>
        <time>1970-01-01T02:45:35.000Z</time>
      </trkpt>
      <trkpt lat="41.072626" lon="-6.771659">
        <ele>230.1</ele>
        <time>1970-01-01T02:45:36.000Z</time>
      </trkpt>
      <trkpt lat="41.072628" lon="-6.77164">
        <ele>230.2</ele>
        <time>1970-01-01T02:45:37.000Z</time>
      </trkpt>
      <trkpt lat="41.07263" lon="-6.771621">
        <ele>230.4</ele>
        <time>1970-01-01T02:45:38.000Z</time>
      </trkpt>
      <trkpt lat="41.072631" lon="-6.771601">
        <ele>230.5</ele>
        <time>1970-01-01T02:45:39.000Z</time>
      </trkpt>
      <trkpt lat="41.072633" lon="-6.771582">
        <ele>230.6</ele>
        <time>1970-01-01T02:45:40.000Z</time>
      </trkpt>
      <trkpt lat="41.072636" lon="-6.77157">
        <ele>230.7</ele>
        <time>1970-01-01T02:45:41.000Z</time>
      </trkpt>
      <trkpt lat="41.072637" lon="-6.771566">
        <ele>230.7</ele>
        <time>1970-01-01T02:45:42.000Z</time>
      </trkpt>
      <trkpt lat="41.072639" lon="-6.771566">
        <ele>230.7</ele>
        <time>1970-01-01T02:45:43.000Z</time>
      </trkpt>
      <trkpt lat="41.07264" lon="-6.771564">
        <ele>230.7</ele>
        <time>1970-01-01T02:45:44.000Z</time>
      </trkpt>
      <trkpt lat="41.07264" lon="-6.771563">
        <ele>230.7</ele>
        <time>1970-01-01T02:45:45.000Z</time>
      </trkpt>
      <trkpt lat="41.072638" lon="-6.771562">
        <ele>230.7</ele>
        <time>1970-01-01T02:45:46.000Z</time>
      </trkpt>
      <trkpt lat="41.072637" lon="-6.771561">
        <ele>230.7</ele>
        <time>1970-01-01T02:45:47.000Z</time>
      </trkpt>
      <trkpt lat="41.072637" lon="-6.77156">
        <ele>230.7</ele>
        <time>1970-01-01T02:45:48.000Z</time>
      </trkpt>
      <trkpt lat="41.072637" lon="-6.771559">
        <ele>230.7</ele>
        <time>1970-01-01T02:45:49.000Z</time>
      </trkpt>
      <trkpt lat="41.072655" lon="-6.771514">
        <ele>230.9</ele>
        <time>1970-01-01T02:45:50.000Z</time>
      </trkpt>
      <trkpt lat="41.072658" lon="-6.771508">
        <ele>230.9</ele>
        <time>1970-01-01T02:45:51.000Z</time>
      </trkpt>
      <trkpt lat="41.072663" lon="-6.771498">
        <ele>230.9</ele>
        <time>1970-01-01T02:46:09.000Z</time>
      </trkpt>
      <trkpt lat="41.07267" lon="-6.771483">
        <ele>231</ele>
        <time>1970-01-01T02:46:10.000Z</time>
      </trkpt>
      <trkpt lat="41.07268" lon="-6.77146">
        <ele>231</ele>
        <time>1970-01-01T02:46:11.000Z</time>
      </trkpt>
      <trkpt lat="41.072691" lon="-6.771429">
        <ele>231</ele>
        <time>1970-01-01T02:46:12.000Z</time>
      </trkpt>
      <trkpt lat="41.072706" lon="-6.771388">
        <ele>231</ele>
        <time>1970-01-01T02:46:13.000Z</time>
      </trkpt>
      <trkpt lat="41.072723" lon="-6.771341">
        <ele>230.9</ele>
        <time>1970-01-01T02:46:14.000Z</time>
      </trkpt>
      <trkpt lat="41.072744" lon="-6.771293">
        <ele>230.8</ele>
        <time>1970-01-01T02:46:15.000Z</time>
      </trkpt>
      <trkpt lat="41.07277" lon="-6.771242">
        <ele>230.6</ele>
        <time>1970-01-01T02:46:16.000Z</time>
      </trkpt>
      <trkpt lat="41.072803" lon="-6.771188">
        <ele>230.2</ele>
        <time>1970-01-01T02:46:17.000Z</time>
      </trkpt>
      <trkpt lat="41.072844" lon="-6.771127">
        <ele>229.8</ele>
        <time>1970-01-01T02:46:18.000Z</time>
      </trkpt>
      <trkpt lat="41.072888" lon="-6.771063">
        <ele>229.3</ele>
        <time>1970-01-01T02:46:19.000Z</time>
      </trkpt>
      <trkpt lat="41.072933" lon="-6.771002">
        <ele>228.5</ele>
        <time>1970-01-01T02:46:20.000Z</time>
      </trkpt>
      <trkpt lat="41.072982" lon="-6.770943">
        <ele>227.8</ele>
        <time>1970-01-01T02:46:21.000Z</time>
      </trkpt>
      <trkpt lat="41.07304" lon="-6.770889">
        <ele>227</ele>
        <time>1970-01-01T02:46:22.000Z</time>
      </trkpt>
      <trkpt lat="41.073105" lon="-6.770841">
        <ele>226.3</ele>
        <time>1970-01-01T02:46:23.000Z</time>
      </trkpt>
      <trkpt lat="41.073176" lon="-6.770802">
        <ele>225.3</ele>
        <time>1970-01-01T02:46:24.000Z</time>
      </trkpt>
      <trkpt lat="41.073248" lon="-6.770773">
        <ele>224.1</ele>
        <time>1970-01-01T02:46:25.000Z</time>
      </trkpt>
      <trkpt lat="41.073325" lon="-6.770745">
        <ele>222.9</ele>
        <time>1970-01-01T02:46:26.000Z</time>
      </trkpt>
      <trkpt lat="41.073406" lon="-6.770715">
        <ele>221.8</ele>
        <time>1970-01-01T02:46:27.000Z</time>
      </trkpt>
      <trkpt lat="41.07349" lon="-6.770679">
        <ele>221</ele>
        <time>1970-01-01T02:46:28.000Z</time>
      </trkpt>
      <trkpt lat="41.07357" lon="-6.770637">
        <ele>220.3</ele>
        <time>1970-01-01T02:46:29.000Z</time>
      </trkpt>
      <trkpt lat="41.073646" lon="-6.770587">
        <ele>219.5</ele>
        <time>1970-01-01T02:46:30.000Z</time>
      </trkpt>
      <trkpt lat="41.073712" lon="-6.770525">
        <ele>218.8</ele>
        <time>1970-01-01T02:46:31.000Z</time>
      </trkpt>
      <trkpt lat="41.073776" lon="-6.770447">
        <ele>217.9</ele>
        <time>1970-01-01T02:46:32.000Z</time>
      </trkpt>
      <trkpt lat="41.073832" lon="-6.77036">
        <ele>217.4</ele>
        <time>1970-01-01T02:46:33.000Z</time>
      </trkpt>
      <trkpt lat="41.073886" lon="-6.770274">
        <ele>217.6</ele>
        <time>1970-01-01T02:46:34.000Z</time>
      </trkpt>
      <trkpt lat="41.073939" lon="-6.770199">
        <ele>217.8</ele>
        <time>1970-01-01T02:46:35.000Z</time>
      </trkpt>
      <trkpt lat="41.073999" lon="-6.770137">
        <ele>217.6</ele>
        <time>1970-01-01T02:46:36.000Z</time>
      </trkpt>
      <trkpt lat="41.074062" lon="-6.770094">
        <ele>217.1</ele>
        <time>1970-01-01T02:46:37.000Z</time>
      </trkpt>
      <trkpt lat="41.074123" lon="-6.770081">
        <ele>216.4</ele>
        <time>1970-01-01T02:46:38.000Z</time>
      </trkpt>
      <trkpt lat="41.074187" lon="-6.770086">
        <ele>215.8</ele>
        <time>1970-01-01T02:46:39.000Z</time>
      </trkpt>
      <trkpt lat="41.07426" lon="-6.770097">
        <ele>215.2</ele>
        <time>1970-01-01T02:46:40.000Z</time>
      </trkpt>
      <trkpt lat="41.074344" lon="-6.770101">
        <ele>214.6</ele>
        <time>1970-01-01T02:46:41.000Z</time>
      </trkpt>
      <trkpt lat="41.074427" lon="-6.770096">
        <ele>214.1</ele>
        <time>1970-01-01T02:46:42.000Z</time>
      </trkpt>
      <trkpt lat="41.07451" lon="-6.770077">
        <ele>213.5</ele>
        <time>1970-01-01T02:46:43.000Z</time>
      </trkpt>
      <trkpt lat="41.074595" lon="-6.770048">
        <ele>212.9</ele>
        <time>1970-01-01T02:46:44.000Z</time>
      </trkpt>
      <trkpt lat="41.07468" lon="-6.770016">
        <ele>212.3</ele>
        <time>1970-01-01T02:46:45.000Z</time>
      </trkpt>
      <trkpt lat="41.07476" lon="-6.769982">
        <ele>212</ele>
        <time>1970-01-01T02:46:46.000Z</time>
      </trkpt>
      <trkpt lat="41.074824" lon="-6.76994">
        <ele>212</ele>
        <time>1970-01-01T02:46:47.000Z</time>
      </trkpt>
      <trkpt lat="41.074873" lon="-6.769884">
        <ele>212.1</ele>
        <time>1970-01-01T02:46:48.000Z</time>
      </trkpt>
      <trkpt lat="41.074906" lon="-6.769819">
        <ele>212.2</ele>
        <time>1970-01-01T02:46:49.000Z</time>
      </trkpt>
      <trkpt lat="41.074927" lon="-6.769752">
        <ele>212.4</ele>
        <time>1970-01-01T02:46:50.000Z</time>
      </trkpt>
      <trkpt lat="41.074943" lon="-6.769683">
        <ele>212.8</ele>
        <time>1970-01-01T02:46:51.000Z</time>
      </trkpt>
      <trkpt lat="41.074956" lon="-6.769611">
        <ele>213.5</ele>
        <time>1970-01-01T02:46:52.000Z</time>
      </trkpt>
      <trkpt lat="41.074971" lon="-6.769536">
        <ele>214.5</ele>
        <time>1970-01-01T02:46:53.000Z</time>
      </trkpt>
      <trkpt lat="41.074984" lon="-6.769463">
        <ele>215.6</ele>
        <time>1970-01-01T02:46:54.000Z</time>
      </trkpt>
      <trkpt lat="41.074996" lon="-6.769392">
        <ele>216.7</ele>
        <time>1970-01-01T02:46:55.000Z</time>
      </trkpt>
      <trkpt lat="41.075013" lon="-6.769326">
        <ele>217.7</ele>
        <time>1970-01-01T02:46:56.000Z</time>
      </trkpt>
      <trkpt lat="41.075037" lon="-6.769272">
        <ele>218.4</ele>
        <time>1970-01-01T02:46:57.000Z</time>
      </trkpt>
      <trkpt lat="41.075068" lon="-6.769231">
        <ele>219</ele>
        <time>1970-01-01T02:46:58.000Z</time>
      </trkpt>
      <trkpt lat="41.075099" lon="-6.7692">
        <ele>219.4</ele>
        <time>1970-01-01T02:46:59.000Z</time>
      </trkpt>
      <trkpt lat="41.075129" lon="-6.769178">
        <ele>219.7</ele>
        <time>1970-01-01T02:47:00.000Z</time>
      </trkpt>
      <trkpt lat="41.075163" lon="-6.769165">
        <ele>219.8</ele>
        <time>1970-01-01T02:47:01.000Z</time>
      </trkpt>
      <trkpt lat="41.075199" lon="-6.769163">
        <ele>219.9</ele>
        <time>1970-01-01T02:47:02.000Z</time>
      </trkpt>
      <trkpt lat="41.075234" lon="-6.769171">
        <ele>220</ele>
        <time>1970-01-01T02:47:03.000Z</time>
      </trkpt>
      <trkpt lat="41.075265" lon="-6.769183">
        <ele>220</ele>
        <time>1970-01-01T02:47:04.000Z</time>
      </trkpt>
      <trkpt lat="41.075296" lon="-6.769198">
        <ele>219.9</ele>
        <time>1970-01-01T02:47:05.000Z</time>
      </trkpt>
      <trkpt lat="41.075327" lon="-6.76921">
        <ele>219.8</ele>
        <time>1970-01-01T02:47:06.000Z</time>
      </trkpt>
      <trkpt lat="41.075359" lon="-6.769222">
        <ele>219.7</ele>
        <time>1970-01-01T02:47:07.000Z</time>
      </trkpt>
      <trkpt lat="41.07539" lon="-6.769232">
        <ele>219.6</ele>
        <time>1970-01-01T02:47:08.000Z</time>
      </trkpt>
      <trkpt lat="41.075421" lon="-6.769242">
        <ele>219.6</ele>
        <time>1970-01-01T02:47:09.000Z</time>
      </trkpt>
      <trkpt lat="41.075452" lon="-6.769252">
        <ele>219.6</ele>
        <time>1970-01-01T02:47:10.000Z</time>
      </trkpt>
      <trkpt lat="41.075485" lon="-6.769261">
        <ele>219.7</ele>
        <time>1970-01-01T02:47:11.000Z</time>
      </trkpt>
      <trkpt lat="41.075518" lon="-6.769269">
        <ele>219.7</ele>
        <time>1970-01-01T02:47:12.000Z</time>
      </trkpt>
      <trkpt lat="41.075552" lon="-6.769275">
        <ele>219.9</ele>
        <time>1970-01-01T02:47:13.000Z</time>
      </trkpt>
      <trkpt lat="41.075584" lon="-6.76928">
        <ele>220</ele>
        <time>1970-01-01T02:47:14.000Z</time>
      </trkpt>
      <trkpt lat="41.075614" lon="-6.769283">
        <ele>220.1</ele>
        <time>1970-01-01T02:47:15.000Z</time>
      </trkpt>
      <trkpt lat="41.075643" lon="-6.769286">
        <ele>220.3</ele>
        <time>1970-01-01T02:47:16.000Z</time>
      </trkpt>
      <trkpt lat="41.075672" lon="-6.769287">
        <ele>220.4</ele>
        <time>1970-01-01T02:47:17.000Z</time>
      </trkpt>
      <trkpt lat="41.075701" lon="-6.769286">
        <ele>220.5</ele>
        <time>1970-01-01T02:47:18.000Z</time>
      </trkpt>
      <trkpt lat="41.07573" lon="-6.769283">
        <ele>220.7</ele>
        <time>1970-01-01T02:47:19.000Z</time>
      </trkpt>
      <trkpt lat="41.07576" lon="-6.769277">
        <ele>220.8</ele>
        <time>1970-01-01T02:47:20.000Z</time>
      </trkpt>
      <trkpt lat="41.07579" lon="-6.769273">
        <ele>221</ele>
        <time>1970-01-01T02:47:21.000Z</time>
      </trkpt>
      <trkpt lat="41.07582" lon="-6.769269">
        <ele>221.1</ele>
        <time>1970-01-01T02:47:22.000Z</time>
      </trkpt>
      <trkpt lat="41.075849" lon="-6.769264">
        <ele>221.3</ele>
        <time>1970-01-01T02:47:23.000Z</time>
      </trkpt>
      <trkpt lat="41.075878" lon="-6.769256">
        <ele>221.5</ele>
        <time>1970-01-01T02:47:24.000Z</time>
      </trkpt>
      <trkpt lat="41.075907" lon="-6.769244">
        <ele>221.6</ele>
        <time>1970-01-01T02:47:25.000Z</time>
      </trkpt>
      <trkpt lat="41.075936" lon="-6.76923">
        <ele>221.9</ele>
        <time>1970-01-01T02:47:26.000Z</time>
      </trkpt>
      <trkpt lat="41.075965" lon="-6.769213">
        <ele>222.1</ele>
        <time>1970-01-01T02:47:27.000Z</time>
      </trkpt>
      <trkpt lat="41.075995" lon="-6.769197">
        <ele>222.3</ele>
        <time>1970-01-01T02:47:28.000Z</time>
      </trkpt>
      <trkpt lat="41.076025" lon="-6.769181">
        <ele>222.5</ele>
        <time>1970-01-01T02:47:29.000Z</time>
      </trkpt>
      <trkpt lat="41.076057" lon="-6.769163">
        <ele>222.7</ele>
        <time>1970-01-01T02:47:30.000Z</time>
      </trkpt>
      <trkpt lat="41.076089" lon="-6.769144">
        <ele>223</ele>
        <time>1970-01-01T02:47:31.000Z</time>
      </trkpt>
      <trkpt lat="41.07612" lon="-6.769122">
        <ele>223.2</ele>
        <time>1970-01-01T02:47:32.000Z</time>
      </trkpt>
      <trkpt lat="41.07615" lon="-6.7691">
        <ele>223.4</ele>
        <time>1970-01-01T02:47:33.000Z</time>
      </trkpt>
      <trkpt lat="41.076179" lon="-6.769076">
        <ele>223.6</ele>
        <time>1970-01-01T02:47:34.000Z</time>
      </trkpt>
      <trkpt lat="41.076208" lon="-6.769051">
        <ele>223.8</ele>
        <time>1970-01-01T02:47:35.000Z</time>
      </trkpt>
      <trkpt lat="41.076237" lon="-6.769024">
        <ele>224</ele>
        <time>1970-01-01T02:47:36.000Z</time>
      </trkpt>
      <trkpt lat="41.076268" lon="-6.768998">
        <ele>224.2</ele>
        <time>1970-01-01T02:47:37.000Z</time>
      </trkpt>
      <trkpt lat="41.076299" lon="-6.76897">
        <ele>224.3</ele>
        <time>1970-01-01T02:47:38.000Z</time>
      </trkpt>
      <trkpt lat="41.076333" lon="-6.768939">
        <ele>224.4</ele>
        <time>1970-01-01T02:47:39.000Z</time>
      </trkpt>
      <trkpt lat="41.076369" lon="-6.768904">
        <ele>224.4</ele>
        <time>1970-01-01T02:47:40.000Z</time>
      </trkpt>
      <trkpt lat="41.076404" lon="-6.768862">
        <ele>224.5</ele>
        <time>1970-01-01T02:47:41.000Z</time>
      </trkpt>
      <trkpt lat="41.076436" lon="-6.768814">
        <ele>224.7</ele>
        <time>1970-01-01T02:47:42.000Z</time>
      </trkpt>
      <trkpt lat="41.076462" lon="-6.768762">
        <ele>224.9</ele>
        <time>1970-01-01T02:47:43.000Z</time>
      </trkpt>
      <trkpt lat="41.076483" lon="-6.768711">
        <ele>225.3</ele>
        <time>1970-01-01T02:47:44.000Z</time>
      </trkpt>
      <trkpt lat="41.076499" lon="-6.768659">
        <ele>225.6</ele>
        <time>1970-01-01T02:47:45.000Z</time>
      </trkpt>
      <trkpt lat="41.076513" lon="-6.768607">
        <ele>225.8</ele>
        <time>1970-01-01T02:47:46.000Z</time>
      </trkpt>
      <trkpt lat="41.076524" lon="-6.768554">
        <ele>226.1</ele>
        <time>1970-01-01T02:47:47.000Z</time>
      </trkpt>
      <trkpt lat="41.076533" lon="-6.768499">
        <ele>226.3</ele>
        <time>1970-01-01T02:47:48.000Z</time>
      </trkpt>
      <trkpt lat="41.07654" lon="-6.768443">
        <ele>226.6</ele>
        <time>1970-01-01T02:47:49.000Z</time>
      </trkpt>
      <trkpt lat="41.076545" lon="-6.768387">
        <ele>226.9</ele>
        <time>1970-01-01T02:47:50.000Z</time>
      </trkpt>
      <trkpt lat="41.076549" lon="-6.768329">
        <ele>227.2</ele>
        <time>1970-01-01T02:47:51.000Z</time>
      </trkpt>
      <trkpt lat="41.07655" lon="-6.768272">
        <ele>227.4</ele>
        <time>1970-01-01T02:47:52.000Z</time>
      </trkpt>
      <trkpt lat="41.076547" lon="-6.768215">
        <ele>227.6</ele>
        <time>1970-01-01T02:47:53.000Z</time>
      </trkpt>
      <trkpt lat="41.076542" lon="-6.768161">
        <ele>227.8</ele>
        <time>1970-01-01T02:47:54.000Z</time>
      </trkpt>
      <trkpt lat="41.076534" lon="-6.768108">
        <ele>228</ele>
        <time>1970-01-01T02:47:55.000Z</time>
      </trkpt>
      <trkpt lat="41.076523" lon="-6.768057">
        <ele>228.2</ele>
        <time>1970-01-01T02:47:56.000Z</time>
      </trkpt>
      <trkpt lat="41.07651" lon="-6.768005">
        <ele>228.5</ele>
        <time>1970-01-01T02:47:57.000Z</time>
      </trkpt>
      <trkpt lat="41.076494" lon="-6.767954">
        <ele>228.7</ele>
        <time>1970-01-01T02:47:58.000Z</time>
      </trkpt>
      <trkpt lat="41.076476" lon="-6.767903">
        <ele>229</ele>
        <time>1970-01-01T02:47:59.000Z</time>
      </trkpt>
      <trkpt lat="41.076458" lon="-6.767853">
        <ele>229.4</ele>
        <time>1970-01-01T02:48:00.000Z</time>
      </trkpt>
      <trkpt lat="41.076439" lon="-6.767804">
        <ele>229.9</ele>
        <time>1970-01-01T02:48:01.000Z</time>
      </trkpt>
      <trkpt lat="41.076421" lon="-6.767758">
        <ele>230.3</ele>
        <time>1970-01-01T02:48:02.000Z</time>
      </trkpt>
      <trkpt lat="41.076402" lon="-6.767714">
        <ele>230.8</ele>
        <time>1970-01-01T02:48:03.000Z</time>
      </trkpt>
      <trkpt lat="41.076384" lon="-6.767669">
        <ele>231.3</ele>
        <time>1970-01-01T02:48:04.000Z</time>
      </trkpt>
      <trkpt lat="41.076367" lon="-6.767622">
        <ele>231.8</ele>
        <time>1970-01-01T02:48:05.000Z</time>
      </trkpt>
      <trkpt lat="41.07635" lon="-6.767572">
        <ele>232.3</ele>
        <time>1970-01-01T02:48:06.000Z</time>
      </trkpt>
      <trkpt lat="41.076335" lon="-6.76752">
        <ele>232.8</ele>
        <time>1970-01-01T02:48:07.000Z</time>
      </trkpt>
      <trkpt lat="41.076321" lon="-6.767466">
        <ele>233.3</ele>
        <time>1970-01-01T02:48:08.000Z</time>
      </trkpt>
      <trkpt lat="41.076309" lon="-6.767413">
        <ele>233.8</ele>
        <time>1970-01-01T02:48:09.000Z</time>
      </trkpt>
      <trkpt lat="41.076298" lon="-6.76736">
        <ele>234.3</ele>
        <time>1970-01-01T02:48:10.000Z</time>
      </trkpt>
      <trkpt lat="41.076289" lon="-6.767307">
        <ele>234.6</ele>
        <time>1970-01-01T02:48:11.000Z</time>
      </trkpt>
      <trkpt lat="41.076283" lon="-6.767254">
        <ele>235</ele>
        <time>1970-01-01T02:48:12.000Z</time>
      </trkpt>
      <trkpt lat="41.07628" lon="-6.767203">
        <ele>235.2</ele>
        <time>1970-01-01T02:48:13.000Z</time>
      </trkpt>
      <trkpt lat="41.076279" lon="-6.767152">
        <ele>235.4</ele>
        <time>1970-01-01T02:48:14.000Z</time>
      </trkpt>
      <trkpt lat="41.07628" lon="-6.767099">
        <ele>235.6</ele>
        <time>1970-01-01T02:48:15.000Z</time>
      </trkpt>
      <trkpt lat="41.076283" lon="-6.767046">
        <ele>235.8</ele>
        <time>1970-01-01T02:48:16.000Z</time>
      </trkpt>
      <trkpt lat="41.07629" lon="-6.766994">
        <ele>236</ele>
        <time>1970-01-01T02:48:17.000Z</time>
      </trkpt>
      <trkpt lat="41.0763" lon="-6.766942">
        <ele>236.3</ele>
        <time>1970-01-01T02:48:18.000Z</time>
      </trkpt>
      <trkpt lat="41.076312" lon="-6.76689">
        <ele>236.5</ele>
        <time>1970-01-01T02:48:19.000Z</time>
      </trkpt>
      <trkpt lat="41.076324" lon="-6.766837">
        <ele>236.7</ele>
        <time>1970-01-01T02:48:20.000Z</time>
      </trkpt>
      <trkpt lat="41.076338" lon="-6.766789">
        <ele>236.9</ele>
        <time>1970-01-01T02:48:21.000Z</time>
      </trkpt>
      <trkpt lat="41.076351" lon="-6.766742">
        <ele>237.1</ele>
        <time>1970-01-01T02:48:22.000Z</time>
      </trkpt>
      <trkpt lat="41.076367" lon="-6.766698">
        <ele>237.3</ele>
        <time>1970-01-01T02:48:23.000Z</time>
      </trkpt>
      <trkpt lat="41.076385" lon="-6.766659">
        <ele>237.5</ele>
        <time>1970-01-01T02:48:24.000Z</time>
      </trkpt>
      <trkpt lat="41.076406" lon="-6.766626">
        <ele>237.6</ele>
        <time>1970-01-01T02:48:25.000Z</time>
      </trkpt>
      <trkpt lat="41.076432" lon="-6.766603">
        <ele>237.6</ele>
        <time>1970-01-01T02:48:26.000Z</time>
      </trkpt>
      <trkpt lat="41.076461" lon="-6.766589">
        <ele>237.6</ele>
        <time>1970-01-01T02:48:27.000Z</time>
      </trkpt>
      <trkpt lat="41.07649" lon="-6.766589">
        <ele>237.6</ele>
        <time>1970-01-01T02:48:28.000Z</time>
      </trkpt>
      <trkpt lat="41.076517" lon="-6.766603">
        <ele>237.5</ele>
        <time>1970-01-01T02:48:29.000Z</time>
      </trkpt>
      <trkpt lat="41.076542" lon="-6.766624">
        <ele>237.3</ele>
        <time>1970-01-01T02:48:30.000Z</time>
      </trkpt>
      <trkpt lat="41.07657" lon="-6.766653">
        <ele>237</ele>
        <time>1970-01-01T02:48:31.000Z</time>
      </trkpt>
      <trkpt lat="41.076602" lon="-6.766684">
        <ele>236.6</ele>
        <time>1970-01-01T02:48:32.000Z</time>
      </trkpt>
      <trkpt lat="41.076636" lon="-6.766717">
        <ele>236.1</ele>
        <time>1970-01-01T02:48:33.000Z</time>
      </trkpt>
      <trkpt lat="41.076672" lon="-6.766744">
        <ele>235.7</ele>
        <time>1970-01-01T02:48:34.000Z</time>
      </trkpt>
      <trkpt lat="41.076711" lon="-6.766761">
        <ele>235.2</ele>
        <time>1970-01-01T02:48:35.000Z</time>
      </trkpt>
      <trkpt lat="41.07675" lon="-6.766769">
        <ele>234.9</ele>
        <time>1970-01-01T02:48:36.000Z</time>
      </trkpt>
      <trkpt lat="41.07679" lon="-6.766771">
        <ele>234.6</ele>
        <time>1970-01-01T02:48:37.000Z</time>
      </trkpt>
      <trkpt lat="41.07683" lon="-6.766769">
        <ele>234.3</ele>
        <time>1970-01-01T02:48:38.000Z</time>
      </trkpt>
      <trkpt lat="41.07687" lon="-6.76676">
        <ele>234.2</ele>
        <time>1970-01-01T02:48:39.000Z</time>
      </trkpt>
      <trkpt lat="41.076913" lon="-6.766742">
        <ele>234</ele>
        <time>1970-01-01T02:48:40.000Z</time>
      </trkpt>
      <trkpt lat="41.076957" lon="-6.766711">
        <ele>233.8</ele>
        <time>1970-01-01T02:48:41.000Z</time>
      </trkpt>
      <trkpt lat="41.077" lon="-6.76667">
        <ele>233.8</ele>
        <time>1970-01-01T02:48:42.000Z</time>
      </trkpt>
      <trkpt lat="41.077038" lon="-6.766623">
        <ele>233.8</ele>
        <time>1970-01-01T02:48:43.000Z</time>
      </trkpt>
      <trkpt lat="41.077074" lon="-6.766572">
        <ele>234</ele>
        <time>1970-01-01T02:48:44.000Z</time>
      </trkpt>
      <trkpt lat="41.077108" lon="-6.76652">
        <ele>234.3</ele>
        <time>1970-01-01T02:48:45.000Z</time>
      </trkpt>
      <trkpt lat="41.07714" lon="-6.76647">
        <ele>234.5</ele>
        <time>1970-01-01T02:48:46.000Z</time>
      </trkpt>
      <trkpt lat="41.077172" lon="-6.766421">
        <ele>234.8</ele>
        <time>1970-01-01T02:48:47.000Z</time>
      </trkpt>
      <trkpt lat="41.077204" lon="-6.766373">
        <ele>235</ele>
        <time>1970-01-01T02:48:48.000Z</time>
      </trkpt>
      <trkpt lat="41.077237" lon="-6.766324">
        <ele>235.2</ele>
        <time>1970-01-01T02:48:49.000Z</time>
      </trkpt>
      <trkpt lat="41.07727" lon="-6.766274">
        <ele>235.4</ele>
        <time>1970-01-01T02:48:50.000Z</time>
      </trkpt>
      <trkpt lat="41.077304" lon="-6.766223">
        <ele>235.6</ele>
        <time>1970-01-01T02:48:51.000Z</time>
      </trkpt>
      <trkpt lat="41.077338" lon="-6.766171">
        <ele>236</ele>
        <time>1970-01-01T02:48:52.000Z</time>
      </trkpt>
      <trkpt lat="41.077371" lon="-6.766118">
        <ele>236.3</ele>
        <time>1970-01-01T02:48:53.000Z</time>
      </trkpt>
      <trkpt lat="41.077404" lon="-6.766068">
        <ele>236.7</ele>
        <time>1970-01-01T02:48:54.000Z</time>
      </trkpt>
      <trkpt lat="41.077436" lon="-6.766017">
        <ele>237.2</ele>
        <time>1970-01-01T02:48:55.000Z</time>
      </trkpt>
      <trkpt lat="41.077468" lon="-6.765968">
        <ele>237.6</ele>
        <time>1970-01-01T02:48:56.000Z</time>
      </trkpt>
      <trkpt lat="41.077501" lon="-6.76592">
        <ele>238</ele>
        <time>1970-01-01T02:48:57.000Z</time>
      </trkpt>
      <trkpt lat="41.077535" lon="-6.765877">
        <ele>238.5</ele>
        <time>1970-01-01T02:48:58.000Z</time>
      </trkpt>
      <trkpt lat="41.077569" lon="-6.765844">
        <ele>238.9</ele>
        <time>1970-01-01T02:48:59.000Z</time>
      </trkpt>
      <trkpt lat="41.077605" lon="-6.765827">
        <ele>239.2</ele>
        <time>1970-01-01T02:49:00.000Z</time>
      </trkpt>
      <trkpt lat="41.077642" lon="-6.765828">
        <ele>239.4</ele>
        <time>1970-01-01T02:49:01.000Z</time>
      </trkpt>
      <trkpt lat="41.077677" lon="-6.765848">
        <ele>239.6</ele>
        <time>1970-01-01T02:49:02.000Z</time>
      </trkpt>
      <trkpt lat="41.077707" lon="-6.765882">
        <ele>239.7</ele>
        <time>1970-01-01T02:49:03.000Z</time>
      </trkpt>
      <trkpt lat="41.077734" lon="-6.765927">
        <ele>239.7</ele>
        <time>1970-01-01T02:49:04.000Z</time>
      </trkpt>
      <trkpt lat="41.077757" lon="-6.765979">
        <ele>239.8</ele>
        <time>1970-01-01T02:49:05.000Z</time>
      </trkpt>
      <trkpt lat="41.077781" lon="-6.766036">
        <ele>239.7</ele>
        <time>1970-01-01T02:49:06.000Z</time>
      </trkpt>
      <trkpt lat="41.077803" lon="-6.766099">
        <ele>239.6</ele>
        <time>1970-01-01T02:49:07.000Z</time>
      </trkpt>
      <trkpt lat="41.077826" lon="-6.766164">
        <ele>239.3</ele>
        <time>1970-01-01T02:49:08.000Z</time>
      </trkpt>
      <trkpt lat="41.07785" lon="-6.766231">
        <ele>238.9</ele>
        <time>1970-01-01T02:49:09.000Z</time>
      </trkpt>
      <trkpt lat="41.077875" lon="-6.766301">
        <ele>238.4</ele>
        <time>1970-01-01T02:49:10.000Z</time>
      </trkpt>
      <trkpt lat="41.0779" lon="-6.766374">
        <ele>237.9</ele>
        <time>1970-01-01T02:49:11.000Z</time>
      </trkpt>
      <trkpt lat="41.077928" lon="-6.766448">
        <ele>237.2</ele>
        <time>1970-01-01T02:49:12.000Z</time>
      </trkpt>
      <trkpt lat="41.077958" lon="-6.766524">
        <ele>236.3</ele>
        <time>1970-01-01T02:49:13.000Z</time>
      </trkpt>
      <trkpt lat="41.077993" lon="-6.7666">
        <ele>235.5</ele>
        <time>1970-01-01T02:49:14.000Z</time>
      </trkpt>
      <trkpt lat="41.078034" lon="-6.766674">
        <ele>234.9</ele>
        <time>1970-01-01T02:49:15.000Z</time>
      </trkpt>
      <trkpt lat="41.07808" lon="-6.766744">
        <ele>234.3</ele>
        <time>1970-01-01T02:49:16.000Z</time>
      </trkpt>
      <trkpt lat="41.078131" lon="-6.766808">
        <ele>233.7</ele>
        <time>1970-01-01T02:49:17.000Z</time>
      </trkpt>
      <trkpt lat="41.078186" lon="-6.766862">
        <ele>233.3</ele>
        <time>1970-01-01T02:49:18.000Z</time>
      </trkpt>
      <trkpt lat="41.078245" lon="-6.766911">
        <ele>233</ele>
        <time>1970-01-01T02:49:19.000Z</time>
      </trkpt>
      <trkpt lat="41.078308" lon="-6.766951">
        <ele>232.7</ele>
        <time>1970-01-01T02:49:20.000Z</time>
      </trkpt>
      <trkpt lat="41.078373" lon="-6.766986">
        <ele>232.6</ele>
        <time>1970-01-01T02:49:21.000Z</time>
      </trkpt>
      <trkpt lat="41.078442" lon="-6.767016">
        <ele>232.6</ele>
        <time>1970-01-01T02:49:22.000Z</time>
      </trkpt>
      <trkpt lat="41.078512" lon="-6.767045">
        <ele>232.7</ele>
        <time>1970-01-01T02:49:23.000Z</time>
      </trkpt>
      <trkpt lat="41.078583" lon="-6.767072">
        <ele>232.8</ele>
        <time>1970-01-01T02:49:24.000Z</time>
      </trkpt>
      <trkpt lat="41.078655" lon="-6.767097">
        <ele>232.8</ele>
        <time>1970-01-01T02:49:25.000Z</time>
      </trkpt>
      <trkpt lat="41.078728" lon="-6.767119">
        <ele>232.8</ele>
        <time>1970-01-01T02:49:26.000Z</time>
      </trkpt>
      <trkpt lat="41.078801" lon="-6.767139">
        <ele>233</ele>
        <time>1970-01-01T02:49:27.000Z</time>
      </trkpt>
      <trkpt lat="41.078874" lon="-6.767156">
        <ele>233.2</ele>
        <time>1970-01-01T02:49:28.000Z</time>
      </trkpt>
      <trkpt lat="41.078945" lon="-6.767169">
        <ele>233.4</ele>
        <time>1970-01-01T02:49:29.000Z</time>
      </trkpt>
      <trkpt lat="41.079016" lon="-6.767176">
        <ele>233.4</ele>
        <time>1970-01-01T02:49:30.000Z</time>
      </trkpt>
      <trkpt lat="41.079087" lon="-6.767182">
        <ele>233.4</ele>
        <time>1970-01-01T02:49:31.000Z</time>
      </trkpt>
      <trkpt lat="41.07916" lon="-6.767193">
        <ele>233.4</ele>
        <time>1970-01-01T02:49:32.000Z</time>
      </trkpt>
      <trkpt lat="41.07923" lon="-6.767217">
        <ele>233.1</ele>
        <time>1970-01-01T02:49:33.000Z</time>
      </trkpt>
      <trkpt lat="41.079293" lon="-6.767252">
        <ele>232.7</ele>
        <time>1970-01-01T02:49:34.000Z</time>
      </trkpt>
      <trkpt lat="41.07935" lon="-6.767299">
        <ele>232.2</ele>
        <time>1970-01-01T02:49:35.000Z</time>
      </trkpt>
      <trkpt lat="41.079405" lon="-6.767353">
        <ele>231.6</ele>
        <time>1970-01-01T02:49:36.000Z</time>
      </trkpt>
      <trkpt lat="41.079465" lon="-6.767406">
        <ele>231</ele>
        <time>1970-01-01T02:49:37.000Z</time>
      </trkpt>
      <trkpt lat="41.07953" lon="-6.767447">
        <ele>230.5</ele>
        <time>1970-01-01T02:49:38.000Z</time>
      </trkpt>
      <trkpt lat="41.079598" lon="-6.767474">
        <ele>230.1</ele>
        <time>1970-01-01T02:49:39.000Z</time>
      </trkpt>
      <trkpt lat="41.079667" lon="-6.767487">
        <ele>229.8</ele>
        <time>1970-01-01T02:49:40.000Z</time>
      </trkpt>
      <trkpt lat="41.079735" lon="-6.767489">
        <ele>229.5</ele>
        <time>1970-01-01T02:49:41.000Z</time>
      </trkpt>
      <trkpt lat="41.079803" lon="-6.767481">
        <ele>229.3</ele>
        <time>1970-01-01T02:49:42.000Z</time>
      </trkpt>
      <trkpt lat="41.07987" lon="-6.767466">
        <ele>229.2</ele>
        <time>1970-01-01T02:49:43.000Z</time>
      </trkpt>
      <trkpt lat="41.079937" lon="-6.767445">
        <ele>229</ele>
        <time>1970-01-01T02:49:44.000Z</time>
      </trkpt>
      <trkpt lat="41.080003" lon="-6.767418">
        <ele>228.8</ele>
        <time>1970-01-01T02:49:45.000Z</time>
      </trkpt>
      <trkpt lat="41.080071" lon="-6.767388">
        <ele>228.5</ele>
        <time>1970-01-01T02:49:46.000Z</time>
      </trkpt>
      <trkpt lat="41.080138" lon="-6.767357">
        <ele>228.2</ele>
        <time>1970-01-01T02:49:47.000Z</time>
      </trkpt>
      <trkpt lat="41.080207" lon="-6.767322">
        <ele>227.9</ele>
        <time>1970-01-01T02:49:48.000Z</time>
      </trkpt>
      <trkpt lat="41.080276" lon="-6.767283">
        <ele>227.7</ele>
        <time>1970-01-01T02:49:49.000Z</time>
      </trkpt>
      <trkpt lat="41.080343" lon="-6.767237">
        <ele>227.4</ele>
        <time>1970-01-01T02:49:50.000Z</time>
      </trkpt>
      <trkpt lat="41.080408" lon="-6.767184">
        <ele>227.2</ele>
        <time>1970-01-01T02:49:51.000Z</time>
      </trkpt>
      <trkpt lat="41.080469" lon="-6.767123">
        <ele>227</ele>
        <time>1970-01-01T02:49:52.000Z</time>
      </trkpt>
      <trkpt lat="41.080526" lon="-6.767057">
        <ele>226.7</ele>
        <time>1970-01-01T02:49:53.000Z</time>
      </trkpt>
      <trkpt lat="41.080577" lon="-6.766984">
        <ele>226.5</ele>
        <time>1970-01-01T02:49:54.000Z</time>
      </trkpt>
      <trkpt lat="41.080625" lon="-6.766906">
        <ele>226.3</ele>
        <time>1970-01-01T02:49:55.000Z</time>
      </trkpt>
      <trkpt lat="41.080669" lon="-6.766824">
        <ele>226.2</ele>
        <time>1970-01-01T02:49:56.000Z</time>
      </trkpt>
      <trkpt lat="41.080711" lon="-6.76674">
        <ele>226.3</ele>
        <time>1970-01-01T02:49:57.000Z</time>
      </trkpt>
      <trkpt lat="41.080751" lon="-6.766656">
        <ele>226.3</ele>
        <time>1970-01-01T02:49:58.000Z</time>
      </trkpt>
      <trkpt lat="41.080791" lon="-6.766572">
        <ele>226.3</ele>
        <time>1970-01-01T02:49:59.000Z</time>
      </trkpt>
      <trkpt lat="41.080829" lon="-6.766489">
        <ele>226.2</ele>
        <time>1970-01-01T02:50:00.000Z</time>
      </trkpt>
      <trkpt lat="41.080864" lon="-6.766408">
        <ele>226.2</ele>
        <time>1970-01-01T02:50:01.000Z</time>
      </trkpt>
      <trkpt lat="41.080895" lon="-6.766332">
        <ele>226.2</ele>
        <time>1970-01-01T02:50:02.000Z</time>
      </trkpt>
      <trkpt lat="41.080923" lon="-6.766263">
        <ele>226.1</ele>
        <time>1970-01-01T02:50:03.000Z</time>
      </trkpt>
      <trkpt lat="41.080949" lon="-6.766201">
        <ele>226.1</ele>
        <time>1970-01-01T02:50:04.000Z</time>
      </trkpt>
      <trkpt lat="41.080974" lon="-6.766144">
        <ele>226</ele>
        <time>1970-01-01T02:50:05.000Z</time>
      </trkpt>
      <trkpt lat="41.081" lon="-6.766088">
        <ele>226</ele>
        <time>1970-01-01T02:50:06.000Z</time>
      </trkpt>
      <trkpt lat="41.081025" lon="-6.766034">
        <ele>225.9</ele>
        <time>1970-01-01T02:50:07.000Z</time>
      </trkpt>
      <trkpt lat="41.081047" lon="-6.765987">
        <ele>225.8</ele>
        <time>1970-01-01T02:50:08.000Z</time>
      </trkpt>
      <trkpt lat="41.081067" lon="-6.765945">
        <ele>225.8</ele>
        <time>1970-01-01T02:50:09.000Z</time>
      </trkpt>
      <trkpt lat="41.081083" lon="-6.76591">
        <ele>225.8</ele>
        <time>1970-01-01T02:50:10.000Z</time>
      </trkpt>
      <trkpt lat="41.081098" lon="-6.765876">
        <ele>225.7</ele>
        <time>1970-01-01T02:50:11.000Z</time>
      </trkpt>
      <trkpt lat="41.081112" lon="-6.765841">
        <ele>225.7</ele>
        <time>1970-01-01T02:50:12.000Z</time>
      </trkpt>
      <trkpt lat="41.081127" lon="-6.765803">
        <ele>225.6</ele>
        <time>1970-01-01T02:50:13.000Z</time>
      </trkpt>
      <trkpt lat="41.081142" lon="-6.765761">
        <ele>225.5</ele>
        <time>1970-01-01T02:50:14.000Z</time>
      </trkpt>
      <trkpt lat="41.081159" lon="-6.765716">
        <ele>225.4</ele>
        <time>1970-01-01T02:50:15.000Z</time>
      </trkpt>
      <trkpt lat="41.081178" lon="-6.765671">
        <ele>225.4</ele>
        <time>1970-01-01T02:50:16.000Z</time>
      </trkpt>
      <trkpt lat="41.081197" lon="-6.765624">
        <ele>225.3</ele>
        <time>1970-01-01T02:50:17.000Z</time>
      </trkpt>
      <trkpt lat="41.081217" lon="-6.765574">
        <ele>225.3</ele>
        <time>1970-01-01T02:50:18.000Z</time>
      </trkpt>
      <trkpt lat="41.081237" lon="-6.76552">
        <ele>225.3</ele>
        <time>1970-01-01T02:50:19.000Z</time>
      </trkpt>
      <trkpt lat="41.081258" lon="-6.765462">
        <ele>225.4</ele>
        <time>1970-01-01T02:50:20.000Z</time>
      </trkpt>
      <trkpt lat="41.081279" lon="-6.765402">
        <ele>225.5</ele>
        <time>1970-01-01T02:50:21.000Z</time>
      </trkpt>
      <trkpt lat="41.081301" lon="-6.765341">
        <ele>225.6</ele>
        <time>1970-01-01T02:50:22.000Z</time>
      </trkpt>
      <trkpt lat="41.081324" lon="-6.765279">
        <ele>225.7</ele>
        <time>1970-01-01T02:50:23.000Z</time>
      </trkpt>
      <trkpt lat="41.081349" lon="-6.765217">
        <ele>225.8</ele>
        <time>1970-01-01T02:50:24.000Z</time>
      </trkpt>
      <trkpt lat="41.081373" lon="-6.765154">
        <ele>226</ele>
        <time>1970-01-01T02:50:25.000Z</time>
      </trkpt>
      <trkpt lat="41.081397" lon="-6.765094">
        <ele>226.3</ele>
        <time>1970-01-01T02:50:26.000Z</time>
      </trkpt>
      <trkpt lat="41.081423" lon="-6.765038">
        <ele>226.6</ele>
        <time>1970-01-01T02:50:27.000Z</time>
      </trkpt>
      <trkpt lat="41.081451" lon="-6.764989">
        <ele>226.8</ele>
        <time>1970-01-01T02:50:28.000Z</time>
      </trkpt>
      <trkpt lat="41.081484" lon="-6.764948">
        <ele>227.1</ele>
        <time>1970-01-01T02:50:29.000Z</time>
      </trkpt>
      <trkpt lat="41.081523" lon="-6.764921">
        <ele>227.2</ele>
        <time>1970-01-01T02:50:30.000Z</time>
      </trkpt>
      <trkpt lat="41.08156" lon="-6.764913">
        <ele>227.3</ele>
        <time>1970-01-01T02:50:31.000Z</time>
      </trkpt>
      <trkpt lat="41.081598" lon="-6.764924">
        <ele>227.4</ele>
        <time>1970-01-01T02:50:32.000Z</time>
      </trkpt>
      <trkpt lat="41.081637" lon="-6.76495">
        <ele>227.4</ele>
        <time>1970-01-01T02:50:33.000Z</time>
      </trkpt>
      <trkpt lat="41.081684" lon="-6.764982">
        <ele>227.3</ele>
        <time>1970-01-01T02:50:34.000Z</time>
      </trkpt>
      <trkpt lat="41.081733" lon="-6.765022">
        <ele>227.3</ele>
        <time>1970-01-01T02:50:35.000Z</time>
      </trkpt>
      <trkpt lat="41.081782" lon="-6.765066">
        <ele>227.2</ele>
        <time>1970-01-01T02:50:36.000Z</time>
      </trkpt>
      <trkpt lat="41.081831" lon="-6.765114">
        <ele>227.1</ele>
        <time>1970-01-01T02:50:37.000Z</time>
      </trkpt>
      <trkpt lat="41.081881" lon="-6.765159">
        <ele>226.9</ele>
        <time>1970-01-01T02:50:38.000Z</time>
      </trkpt>
      <trkpt lat="41.081929" lon="-6.765203">
        <ele>226.8</ele>
        <time>1970-01-01T02:50:39.000Z</time>
      </trkpt>
      <trkpt lat="41.081977" lon="-6.765248">
        <ele>226.7</ele>
        <time>1970-01-01T02:50:40.000Z</time>
      </trkpt>
      <trkpt lat="41.082024" lon="-6.765295">
        <ele>226.7</ele>
        <time>1970-01-01T02:50:41.000Z</time>
      </trkpt>
      <trkpt lat="41.08207" lon="-6.76534">
        <ele>226.5</ele>
        <time>1970-01-01T02:50:42.000Z</time>
      </trkpt>
      <trkpt lat="41.082118" lon="-6.765384">
        <ele>226.5</ele>
        <time>1970-01-01T02:50:43.000Z</time>
      </trkpt>
      <trkpt lat="41.082166" lon="-6.765425">
        <ele>226.5</ele>
        <time>1970-01-01T02:50:44.000Z</time>
      </trkpt>
      <trkpt lat="41.082215" lon="-6.765469">
        <ele>226.5</ele>
        <time>1970-01-01T02:50:45.000Z</time>
      </trkpt>
      <trkpt lat="41.082263" lon="-6.765513">
        <ele>226.4</ele>
        <time>1970-01-01T02:50:46.000Z</time>
      </trkpt>
      <trkpt lat="41.082312" lon="-6.76556">
        <ele>226.2</ele>
        <time>1970-01-01T02:50:47.000Z</time>
      </trkpt>
      <trkpt lat="41.082361" lon="-6.765606">
        <ele>226.2</ele>
        <time>1970-01-01T02:50:48.000Z</time>
      </trkpt>
      <trkpt lat="41.08241" lon="-6.765652">
        <ele>226.1</ele>
        <time>1970-01-01T02:50:49.000Z</time>
      </trkpt>
      <trkpt lat="41.08246" lon="-6.765697">
        <ele>226</ele>
        <time>1970-01-01T02:50:50.000Z</time>
      </trkpt>
      <trkpt lat="41.082511" lon="-6.765744">
        <ele>225.8</ele>
        <time>1970-01-01T02:50:51.000Z</time>
      </trkpt>
      <trkpt lat="41.082564" lon="-6.765792">
        <ele>225.4</ele>
        <time>1970-01-01T02:50:52.000Z</time>
      </trkpt>
      <trkpt lat="41.082619" lon="-6.76584">
        <ele>224.9</ele>
        <time>1970-01-01T02:50:53.000Z</time>
      </trkpt>
      <trkpt lat="41.082675" lon="-6.765888">
        <ele>224.6</ele>
        <time>1970-01-01T02:50:54.000Z</time>
      </trkpt>
      <trkpt lat="41.082732" lon="-6.765937">
        <ele>224.2</ele>
        <time>1970-01-01T02:50:55.000Z</time>
      </trkpt>
      <trkpt lat="41.082787" lon="-6.765985">
        <ele>223.8</ele>
        <time>1970-01-01T02:50:56.000Z</time>
      </trkpt>
      <trkpt lat="41.082843" lon="-6.766036">
        <ele>223.3</ele>
        <time>1970-01-01T02:50:57.000Z</time>
      </trkpt>
      <trkpt lat="41.082899" lon="-6.766087">
        <ele>222.5</ele>
        <time>1970-01-01T02:50:58.000Z</time>
      </trkpt>
      <trkpt lat="41.082958" lon="-6.766138">
        <ele>221.5</ele>
        <time>1970-01-01T02:50:59.000Z</time>
      </trkpt>
      <trkpt lat="41.083018" lon="-6.766188">
        <ele>219.9</ele>
        <time>1970-01-01T02:51:00.000Z</time>
      </trkpt>
      <trkpt lat="41.083081" lon="-6.766234">
        <ele>219.2</ele>
        <time>1970-01-01T02:51:01.000Z</time>
      </trkpt>
      <trkpt lat="41.083142" lon="-6.766275">
        <ele>218.9</ele>
        <time>1970-01-01T02:51:02.000Z</time>
      </trkpt>
      <trkpt lat="41.083203" lon="-6.766305">
        <ele>218.5</ele>
        <time>1970-01-01T02:51:03.000Z</time>
      </trkpt>
      <trkpt lat="41.083256" lon="-6.766313">
        <ele>218.2</ele>
        <time>1970-01-01T02:51:04.000Z</time>
      </trkpt>
      <trkpt lat="41.083301" lon="-6.766302">
        <ele>217.9</ele>
        <time>1970-01-01T02:51:05.000Z</time>
      </trkpt>
      <trkpt lat="41.083334" lon="-6.766279">
        <ele>217.7</ele>
        <time>1970-01-01T02:51:06.000Z</time>
      </trkpt>
      <trkpt lat="41.083361" lon="-6.766261">
        <ele>217.5</ele>
        <time>1970-01-01T02:51:07.000Z</time>
      </trkpt>
      <trkpt lat="41.083382" lon="-6.766247">
        <ele>217.4</ele>
        <time>1970-01-01T02:51:08.000Z</time>
      </trkpt>
      <trkpt lat="41.083397" lon="-6.766238">
        <ele>217.3</ele>
        <time>1970-01-01T02:51:09.000Z</time>
      </trkpt>
      <trkpt lat="41.083408" lon="-6.76623">
        <ele>217.2</ele>
        <time>1970-01-01T02:51:10.000Z</time>
      </trkpt>
      <trkpt lat="41.083417" lon="-6.766227">
        <ele>217.2</ele>
        <time>1970-01-01T02:51:11.000Z</time>
      </trkpt>
      <trkpt lat="41.083423" lon="-6.766225">
        <ele>217.5</ele>
        <time>1970-01-01T02:51:12.000Z</time>
      </trkpt>
      <trkpt lat="41.083426" lon="-6.766224">
        <ele>217.6</ele>
        <time>1970-01-01T02:51:13.000Z</time>
      </trkpt>
      <trkpt lat="41.083425" lon="-6.766223">
        <ele>217.6</ele>
        <time>1970-01-01T02:51:14.000Z</time>
      </trkpt>
      <trkpt lat="41.083427" lon="-6.766222">
        <ele>217.6</ele>
        <time>1970-01-01T02:51:15.000Z</time>
      </trkpt>
      <trkpt lat="41.08343" lon="-6.766222">
        <ele>217.7</ele>
        <time>1970-01-01T02:51:16.000Z</time>
      </trkpt>
      <trkpt lat="41.083433" lon="-6.766221">
        <ele>217.8</ele>
        <time>1970-01-01T02:51:17.000Z</time>
      </trkpt>
      <trkpt lat="41.083435" lon="-6.766221">
        <ele>217.9</ele>
        <time>1970-01-01T02:51:18.000Z</time>
      </trkpt>
      <trkpt lat="41.083436" lon="-6.76622">
        <ele>217.9</ele>
        <time>1970-01-01T02:51:19.000Z</time>
      </trkpt>
      <trkpt lat="41.083436" lon="-6.766218">
        <ele>217.9</ele>
        <time>1970-01-01T02:51:20.000Z</time>
      </trkpt>
      <trkpt lat="41.083435" lon="-6.766217">
        <ele>218</ele>
        <time>1970-01-01T02:51:21.000Z</time>
      </trkpt>
      <trkpt lat="41.083471" lon="-6.76618">
        <ele>219.1</ele>
        <time>1970-01-01T02:51:22.000Z</time>
      </trkpt>
      <trkpt lat="41.083485" lon="-6.766164">
        <ele>219.5</ele>
        <time>1970-01-01T02:51:23.000Z</time>
      </trkpt>
      <trkpt lat="41.0835" lon="-6.766148">
        <ele>219.9</ele>
        <time>1970-01-01T02:51:34.000Z</time>
      </trkpt>
      <trkpt lat="41.083511" lon="-6.766133">
        <ele>220.2</ele>
        <time>1970-01-01T02:51:35.000Z</time>
      </trkpt>
      <trkpt lat="41.083522" lon="-6.76612">
        <ele>220.4</ele>
        <time>1970-01-01T02:51:36.000Z</time>
      </trkpt>
      <trkpt lat="41.083533" lon="-6.766107">
        <ele>220.6</ele>
        <time>1970-01-01T02:51:37.000Z</time>
      </trkpt>
      <trkpt lat="41.083546" lon="-6.766093">
        <ele>220.8</ele>
        <time>1970-01-01T02:51:38.000Z</time>
      </trkpt>
      <trkpt lat="41.083562" lon="-6.766079">
        <ele>221</ele>
        <time>1970-01-01T02:51:39.000Z</time>
      </trkpt>
      <trkpt lat="41.083576" lon="-6.766066">
        <ele>221.2</ele>
        <time>1970-01-01T02:51:40.000Z</time>
      </trkpt>
      <trkpt lat="41.083589" lon="-6.766053">
        <ele>221.3</ele>
        <time>1970-01-01T02:51:41.000Z</time>
      </trkpt>
      <trkpt lat="41.083601" lon="-6.766039">
        <ele>221.5</ele>
        <time>1970-01-01T02:51:42.000Z</time>
      </trkpt>
      <trkpt lat="41.083613" lon="-6.766023">
        <ele>221.6</ele>
        <time>1970-01-01T02:51:43.000Z</time>
      </trkpt>
      <trkpt lat="41.083627" lon="-6.766004">
        <ele>221.8</ele>
        <time>1970-01-01T02:51:44.000Z</time>
      </trkpt>
      <trkpt lat="41.083643" lon="-6.76598">
        <ele>222</ele>
        <time>1970-01-01T02:51:45.000Z</time>
      </trkpt>
      <trkpt lat="41.083661" lon="-6.765955">
        <ele>222.3</ele>
        <time>1970-01-01T02:51:46.000Z</time>
      </trkpt>
      <trkpt lat="41.083679" lon="-6.765929">
        <ele>222.5</ele>
        <time>1970-01-01T02:51:47.000Z</time>
      </trkpt>
      <trkpt lat="41.083697" lon="-6.765901">
        <ele>222.8</ele>
        <time>1970-01-01T02:51:48.000Z</time>
      </trkpt>
      <trkpt lat="41.083713" lon="-6.765869">
        <ele>223.1</ele>
        <time>1970-01-01T02:51:49.000Z</time>
      </trkpt>
      <trkpt lat="41.083727" lon="-6.765835">
        <ele>223.4</ele>
        <time>1970-01-01T02:51:50.000Z</time>
      </trkpt>
      <trkpt lat="41.083738" lon="-6.765802">
        <ele>223.6</ele>
        <time>1970-01-01T02:51:51.000Z</time>
      </trkpt>
      <trkpt lat="41.083749" lon="-6.765767">
        <ele>223.9</ele>
        <time>1970-01-01T02:51:52.000Z</time>
      </trkpt>
      <trkpt lat="41.083759" lon="-6.765732">
        <ele>224.1</ele>
        <time>1970-01-01T02:51:53.000Z</time>
      </trkpt>
      <trkpt lat="41.08377" lon="-6.765696">
        <ele>224.4</ele>
        <time>1970-01-01T02:51:54.000Z</time>
      </trkpt>
      <trkpt lat="41.08378" lon="-6.765659">
        <ele>224.6</ele>
        <time>1970-01-01T02:51:55.000Z</time>
      </trkpt>
      <trkpt lat="41.083791" lon="-6.765619">
        <ele>224.9</ele>
        <time>1970-01-01T02:51:56.000Z</time>
      </trkpt>
      <trkpt lat="41.083801" lon="-6.765576">
        <ele>225.2</ele>
        <time>1970-01-01T02:51:57.000Z</time>
      </trkpt>
      <trkpt lat="41.083811" lon="-6.765531">
        <ele>225.5</ele>
        <time>1970-01-01T02:51:58.000Z</time>
      </trkpt>
      <trkpt lat="41.083821" lon="-6.765485">
        <ele>225.9</ele>
        <time>1970-01-01T02:51:59.000Z</time>
      </trkpt>
      <trkpt lat="41.08383" lon="-6.765438">
        <ele>226.3</ele>
        <time>1970-01-01T02:52:00.000Z</time>
      </trkpt>
      <trkpt lat="41.08384" lon="-6.765392">
        <ele>226.7</ele>
        <time>1970-01-01T02:52:01.000Z</time>
      </trkpt>
      <trkpt lat="41.08385" lon="-6.765346">
        <ele>227.1</ele>
        <time>1970-01-01T02:52:02.000Z</time>
      </trkpt>
      <trkpt lat="41.083859" lon="-6.765301">
        <ele>227.4</ele>
        <time>1970-01-01T02:52:03.000Z</time>
      </trkpt>
      <trkpt lat="41.083868" lon="-6.765256">
        <ele>227.8</ele>
        <time>1970-01-01T02:52:04.000Z</time>
      </trkpt>
      <trkpt lat="41.083876" lon="-6.765212">
        <ele>228.2</ele>
        <time>1970-01-01T02:52:05.000Z</time>
      </trkpt>
      <trkpt lat="41.083885" lon="-6.765167">
        <ele>228.6</ele>
        <time>1970-01-01T02:52:06.000Z</time>
      </trkpt>
      <trkpt lat="41.083894" lon="-6.765122">
        <ele>228.9</ele>
        <time>1970-01-01T02:52:07.000Z</time>
      </trkpt>
      <trkpt lat="41.083904" lon="-6.765081">
        <ele>229.3</ele>
        <time>1970-01-01T02:52:08.000Z</time>
      </trkpt>
      <trkpt lat="41.083912" lon="-6.765044">
        <ele>229.6</ele>
        <time>1970-01-01T02:52:09.000Z</time>
      </trkpt>
      <trkpt lat="41.083921" lon="-6.765009">
        <ele>229.9</ele>
        <time>1970-01-01T02:52:10.000Z</time>
      </trkpt>
      <trkpt lat="41.083929" lon="-6.764973">
        <ele>230.2</ele>
        <time>1970-01-01T02:52:11.000Z</time>
      </trkpt>
      <trkpt lat="41.083939" lon="-6.764936">
        <ele>230.6</ele>
        <time>1970-01-01T02:52:12.000Z</time>
      </trkpt>
      <trkpt lat="41.083946" lon="-6.7649">
        <ele>231</ele>
        <time>1970-01-01T02:52:13.000Z</time>
      </trkpt>
      <trkpt lat="41.083953" lon="-6.764866">
        <ele>231.3</ele>
        <time>1970-01-01T02:52:14.000Z</time>
      </trkpt>
      <trkpt lat="41.083961" lon="-6.764836">
        <ele>231.6</ele>
        <time>1970-01-01T02:52:15.000Z</time>
      </trkpt>
      <trkpt lat="41.083969" lon="-6.764807">
        <ele>231.9</ele>
        <time>1970-01-01T02:52:16.000Z</time>
      </trkpt>
      <trkpt lat="41.083978" lon="-6.764779">
        <ele>232.3</ele>
        <time>1970-01-01T02:52:17.000Z</time>
      </trkpt>
      <trkpt lat="41.083985" lon="-6.764749">
        <ele>232.6</ele>
        <time>1970-01-01T02:52:18.000Z</time>
      </trkpt>
      <trkpt lat="41.083992" lon="-6.76472">
        <ele>232.9</ele>
        <time>1970-01-01T02:52:19.000Z</time>
      </trkpt>
      <trkpt lat="41.083998" lon="-6.764693">
        <ele>233.2</ele>
        <time>1970-01-01T02:52:20.000Z</time>
      </trkpt>
      <trkpt lat="41.084005" lon="-6.764666">
        <ele>233.5</ele>
        <time>1970-01-01T02:52:21.000Z</time>
      </trkpt>
      <trkpt lat="41.084011" lon="-6.764639">
        <ele>233.8</ele>
        <time>1970-01-01T02:52:22.000Z</time>
      </trkpt>
      <trkpt lat="41.084017" lon="-6.764611">
        <ele>234.1</ele>
        <time>1970-01-01T02:52:23.000Z</time>
      </trkpt>
      <trkpt lat="41.084021" lon="-6.764583">
        <ele>234.4</ele>
        <time>1970-01-01T02:52:24.000Z</time>
      </trkpt>
      <trkpt lat="41.084027" lon="-6.764554">
        <ele>234.7</ele>
        <time>1970-01-01T02:52:25.000Z</time>
      </trkpt>
      <trkpt lat="41.084034" lon="-6.764524">
        <ele>235</ele>
        <time>1970-01-01T02:52:26.000Z</time>
      </trkpt>
      <trkpt lat="41.084042" lon="-6.764495">
        <ele>235.3</ele>
        <time>1970-01-01T02:52:27.000Z</time>
      </trkpt>
      <trkpt lat="41.08405" lon="-6.764465">
        <ele>235.6</ele>
        <time>1970-01-01T02:52:28.000Z</time>
      </trkpt>
      <trkpt lat="41.084058" lon="-6.764435">
        <ele>236</ele>
        <time>1970-01-01T02:52:29.000Z</time>
      </trkpt>
      <trkpt lat="41.084065" lon="-6.764406">
        <ele>236.3</ele>
        <time>1970-01-01T02:52:30.000Z</time>
      </trkpt>
      <trkpt lat="41.084072" lon="-6.764378">
        <ele>236.6</ele>
        <time>1970-01-01T02:52:31.000Z</time>
      </trkpt>
      <trkpt lat="41.08408" lon="-6.764349">
        <ele>236.9</ele>
        <time>1970-01-01T02:52:32.000Z</time>
      </trkpt>
      <trkpt lat="41.084089" lon="-6.76432">
        <ele>237.2</ele>
        <time>1970-01-01T02:52:33.000Z</time>
      </trkpt>
      <trkpt lat="41.084098" lon="-6.764291">
        <ele>237.6</ele>
        <time>1970-01-01T02:52:34.000Z</time>
      </trkpt>
      <trkpt lat="41.084105" lon="-6.764262">
        <ele>237.9</ele>
        <time>1970-01-01T02:52:35.000Z</time>
      </trkpt>
      <trkpt lat="41.08411" lon="-6.764232">
        <ele>238.2</ele>
        <time>1970-01-01T02:52:36.000Z</time>
      </trkpt>
      <trkpt lat="41.084116" lon="-6.764202">
        <ele>238.5</ele>
        <time>1970-01-01T02:52:37.000Z</time>
      </trkpt>
      <trkpt lat="41.084121" lon="-6.764171">
        <ele>238.9</ele>
        <time>1970-01-01T02:52:38.000Z</time>
      </trkpt>
      <trkpt lat="41.084127" lon="-6.76414">
        <ele>239.2</ele>
        <time>1970-01-01T02:52:39.000Z</time>
      </trkpt>
      <trkpt lat="41.084133" lon="-6.764107">
        <ele>239.6</ele>
        <time>1970-01-01T02:52:40.000Z</time>
      </trkpt>
      <trkpt lat="41.084139" lon="-6.764074">
        <ele>240</ele>
        <time>1970-01-01T02:52:41.000Z</time>
      </trkpt>
      <trkpt lat="41.084146" lon="-6.764042">
        <ele>240.4</ele>
        <time>1970-01-01T02:52:42.000Z</time>
      </trkpt>
      <trkpt lat="41.084153" lon="-6.76401">
        <ele>240.8</ele>
        <time>1970-01-01T02:52:43.000Z</time>
      </trkpt>
      <trkpt lat="41.08416" lon="-6.763978">
        <ele>241.2</ele>
        <time>1970-01-01T02:52:44.000Z</time>
      </trkpt>
      <trkpt lat="41.084167" lon="-6.763946">
        <ele>241.6</ele>
        <time>1970-01-01T02:52:45.000Z</time>
      </trkpt>
      <trkpt lat="41.084174" lon="-6.763914">
        <ele>242</ele>
        <time>1970-01-01T02:52:46.000Z</time>
      </trkpt>
      <trkpt lat="41.08418" lon="-6.763883">
        <ele>242.4</ele>
        <time>1970-01-01T02:52:47.000Z</time>
      </trkpt>
      <trkpt lat="41.084184" lon="-6.763851">
        <ele>242.8</ele>
        <time>1970-01-01T02:52:48.000Z</time>
      </trkpt>
      <trkpt lat="41.084186" lon="-6.763818">
        <ele>243.2</ele>
        <time>1970-01-01T02:52:49.000Z</time>
      </trkpt>
      <trkpt lat="41.084187" lon="-6.763784">
        <ele>243.6</ele>
        <time>1970-01-01T02:52:50.000Z</time>
      </trkpt>
      <trkpt lat="41.084187" lon="-6.763748">
        <ele>244</ele>
        <time>1970-01-01T02:52:51.000Z</time>
      </trkpt>
      <trkpt lat="41.084186" lon="-6.763713">
        <ele>244.4</ele>
        <time>1970-01-01T02:52:52.000Z</time>
      </trkpt>
      <trkpt lat="41.084184" lon="-6.763677">
        <ele>244.7</ele>
        <time>1970-01-01T02:52:53.000Z</time>
      </trkpt>
      <trkpt lat="41.084183" lon="-6.763643">
        <ele>245.1</ele>
        <time>1970-01-01T02:52:54.000Z</time>
      </trkpt>
      <trkpt lat="41.084181" lon="-6.763607">
        <ele>245.3</ele>
        <time>1970-01-01T02:52:55.000Z</time>
      </trkpt>
      <trkpt lat="41.084178" lon="-6.763572">
        <ele>245.5</ele>
        <time>1970-01-01T02:52:56.000Z</time>
      </trkpt>
      <trkpt lat="41.084172" lon="-6.763535">
        <ele>245.5</ele>
        <time>1970-01-01T02:52:57.000Z</time>
      </trkpt>
      <trkpt lat="41.084166" lon="-6.763501">
        <ele>245.3</ele>
        <time>1970-01-01T02:52:58.000Z</time>
      </trkpt>
      <trkpt lat="41.084159" lon="-6.763468">
        <ele>245</ele>
        <time>1970-01-01T02:52:59.000Z</time>
      </trkpt>
      <trkpt lat="41.084151" lon="-6.763435">
        <ele>244.4</ele>
        <time>1970-01-01T02:53:00.000Z</time>
      </trkpt>
      <trkpt lat="41.084143" lon="-6.763403">
        <ele>243.7</ele>
        <time>1970-01-01T02:53:01.000Z</time>
      </trkpt>
      <trkpt lat="41.084134" lon="-6.763372">
        <ele>242.8</ele>
        <time>1970-01-01T02:53:02.000Z</time>
      </trkpt>
      <trkpt lat="41.084125" lon="-6.763341">
        <ele>239.8</ele>
        <time>1970-01-01T02:53:03.000Z</time>
      </trkpt>
      <trkpt lat="41.084115" lon="-6.763311">
        <ele>239.9</ele>
        <time>1970-01-01T02:53:04.000Z</time>
      </trkpt>
      <trkpt lat="41.084105" lon="-6.763281">
        <ele>240</ele>
        <time>1970-01-01T02:53:05.000Z</time>
      </trkpt>
      <trkpt lat="41.084095" lon="-6.763251">
        <ele>240</ele>
        <time>1970-01-01T02:53:06.000Z</time>
      </trkpt>
      <trkpt lat="41.084085" lon="-6.763221">
        <ele>240.1</ele>
        <time>1970-01-01T02:53:07.000Z</time>
      </trkpt>
      <trkpt lat="41.084074" lon="-6.763191">
        <ele>240.2</ele>
        <time>1970-01-01T02:53:08.000Z</time>
      </trkpt>
      <trkpt lat="41.084064" lon="-6.763161">
        <ele>240.4</ele>
        <time>1970-01-01T02:53:09.000Z</time>
      </trkpt>
      <trkpt lat="41.084054" lon="-6.76313">
        <ele>240.5</ele>
        <time>1970-01-01T02:53:10.000Z</time>
      </trkpt>
      <trkpt lat="41.084045" lon="-6.763099">
        <ele>240.7</ele>
        <time>1970-01-01T02:53:11.000Z</time>
      </trkpt>
      <trkpt lat="41.084035" lon="-6.763068">
        <ele>240.8</ele>
        <time>1970-01-01T02:53:12.000Z</time>
      </trkpt>
      <trkpt lat="41.084023" lon="-6.763038">
        <ele>241</ele>
        <time>1970-01-01T02:53:13.000Z</time>
      </trkpt>
      <trkpt lat="41.084011" lon="-6.763008">
        <ele>241.2</ele>
        <time>1970-01-01T02:53:14.000Z</time>
      </trkpt>
      <trkpt lat="41.083999" lon="-6.762977">
        <ele>241.5</ele>
        <time>1970-01-01T02:53:15.000Z</time>
      </trkpt>
      <trkpt lat="41.083986" lon="-6.762947">
        <ele>241.7</ele>
        <time>1970-01-01T02:53:16.000Z</time>
      </trkpt>
      <trkpt lat="41.083975" lon="-6.762915">
        <ele>241.9</ele>
        <time>1970-01-01T02:53:17.000Z</time>
      </trkpt>
      <trkpt lat="41.083963" lon="-6.762883">
        <ele>242.2</ele>
        <time>1970-01-01T02:53:18.000Z</time>
      </trkpt>
      <trkpt lat="41.083952" lon="-6.76285">
        <ele>242.4</ele>
        <time>1970-01-01T02:53:19.000Z</time>
      </trkpt>
      <trkpt lat="41.083941" lon="-6.762819">
        <ele>242.6</ele>
        <time>1970-01-01T02:53:20.000Z</time>
      </trkpt>
      <trkpt lat="41.083932" lon="-6.762786">
        <ele>242.8</ele>
        <time>1970-01-01T02:53:21.000Z</time>
      </trkpt>
      <trkpt lat="41.083923" lon="-6.762753">
        <ele>243</ele>
        <time>1970-01-01T02:53:22.000Z</time>
      </trkpt>
      <trkpt lat="41.083918" lon="-6.762719">
        <ele>243.3</ele>
        <time>1970-01-01T02:53:23.000Z</time>
      </trkpt>
      <trkpt lat="41.083917" lon="-6.762684">
        <ele>243.5</ele>
        <time>1970-01-01T02:53:24.000Z</time>
      </trkpt>
      <trkpt lat="41.083921" lon="-6.762651">
        <ele>243.7</ele>
        <time>1970-01-01T02:53:25.000Z</time>
      </trkpt>
      <trkpt lat="41.083929" lon="-6.762617">
        <ele>244</ele>
        <time>1970-01-01T02:53:26.000Z</time>
      </trkpt>
      <trkpt lat="41.08394" lon="-6.762585">
        <ele>244.2</ele>
        <time>1970-01-01T02:53:27.000Z</time>
      </trkpt>
      <trkpt lat="41.083954" lon="-6.762555">
        <ele>244.4</ele>
        <time>1970-01-01T02:53:28.000Z</time>
      </trkpt>
      <trkpt lat="41.083971" lon="-6.762528">
        <ele>244.6</ele>
        <time>1970-01-01T02:53:29.000Z</time>
      </trkpt>
      <trkpt lat="41.083991" lon="-6.762502">
        <ele>244.7</ele>
        <time>1970-01-01T02:53:30.000Z</time>
      </trkpt>
      <trkpt lat="41.084011" lon="-6.76248">
        <ele>244.8</ele>
        <time>1970-01-01T02:53:31.000Z</time>
      </trkpt>
      <trkpt lat="41.084033" lon="-6.762461">
        <ele>244.9</ele>
        <time>1970-01-01T02:53:32.000Z</time>
      </trkpt>
      <trkpt lat="41.084055" lon="-6.762443">
        <ele>245</ele>
        <time>1970-01-01T02:53:33.000Z</time>
      </trkpt>
      <trkpt lat="41.084077" lon="-6.762424">
        <ele>245.1</ele>
        <time>1970-01-01T02:53:34.000Z</time>
      </trkpt>
      <trkpt lat="41.084099" lon="-6.762403">
        <ele>245.3</ele>
        <time>1970-01-01T02:53:35.000Z</time>
      </trkpt>
      <trkpt lat="41.084121" lon="-6.762383">
        <ele>245.4</ele>
        <time>1970-01-01T02:53:36.000Z</time>
      </trkpt>
      <trkpt lat="41.084142" lon="-6.762363">
        <ele>245.5</ele>
        <time>1970-01-01T02:53:37.000Z</time>
      </trkpt>
      <trkpt lat="41.084163" lon="-6.762344">
        <ele>245.7</ele>
        <time>1970-01-01T02:53:38.000Z</time>
      </trkpt>
      <trkpt lat="41.084184" lon="-6.762326">
        <ele>245.8</ele>
        <time>1970-01-01T02:53:39.000Z</time>
      </trkpt>
      <trkpt lat="41.084205" lon="-6.762308">
        <ele>246</ele>
        <time>1970-01-01T02:53:40.000Z</time>
      </trkpt>
      <trkpt lat="41.084226" lon="-6.762289">
        <ele>246.1</ele>
        <time>1970-01-01T02:53:41.000Z</time>
      </trkpt>
      <trkpt lat="41.084246" lon="-6.762268">
        <ele>246.3</ele>
        <time>1970-01-01T02:53:42.000Z</time>
      </trkpt>
      <trkpt lat="41.084265" lon="-6.762245">
        <ele>246.4</ele>
        <time>1970-01-01T02:53:43.000Z</time>
      </trkpt>
      <trkpt lat="41.084283" lon="-6.762222">
        <ele>246.6</ele>
        <time>1970-01-01T02:53:44.000Z</time>
      </trkpt>
      <trkpt lat="41.084302" lon="-6.7622">
        <ele>246.8</ele>
        <time>1970-01-01T02:53:45.000Z</time>
      </trkpt>
      <trkpt lat="41.08432" lon="-6.762178">
        <ele>247</ele>
        <time>1970-01-01T02:53:46.000Z</time>
      </trkpt>
      <trkpt lat="41.084338" lon="-6.762157">
        <ele>247.1</ele>
        <time>1970-01-01T02:53:47.000Z</time>
      </trkpt>
      <trkpt lat="41.084355" lon="-6.762135">
        <ele>247.3</ele>
        <time>1970-01-01T02:53:48.000Z</time>
      </trkpt>
      <trkpt lat="41.084372" lon="-6.762112">
        <ele>247.5</ele>
        <time>1970-01-01T02:53:49.000Z</time>
      </trkpt>
      <trkpt lat="41.08439" lon="-6.76209">
        <ele>247.6</ele>
        <time>1970-01-01T02:53:50.000Z</time>
      </trkpt>
      <trkpt lat="41.084408" lon="-6.762066">
        <ele>247.8</ele>
        <time>1970-01-01T02:53:51.000Z</time>
      </trkpt>
      <trkpt lat="41.084426" lon="-6.762044">
        <ele>247.9</ele>
        <time>1970-01-01T02:53:52.000Z</time>
      </trkpt>
      <trkpt lat="41.084444" lon="-6.762022">
        <ele>248.1</ele>
        <time>1970-01-01T02:53:53.000Z</time>
      </trkpt>
      <trkpt lat="41.084462" lon="-6.762002">
        <ele>248.2</ele>
        <time>1970-01-01T02:53:54.000Z</time>
      </trkpt>
      <trkpt lat="41.084481" lon="-6.76198">
        <ele>248.4</ele>
        <time>1970-01-01T02:53:55.000Z</time>
      </trkpt>
      <trkpt lat="41.0845" lon="-6.761958">
        <ele>248.5</ele>
        <time>1970-01-01T02:53:56.000Z</time>
      </trkpt>
      <trkpt lat="41.084519" lon="-6.761936">
        <ele>248.7</ele>
        <time>1970-01-01T02:53:57.000Z</time>
      </trkpt>
      <trkpt lat="41.084539" lon="-6.761914">
        <ele>248.9</ele>
        <time>1970-01-01T02:53:58.000Z</time>
      </trkpt>
      <trkpt lat="41.084558" lon="-6.761891">
        <ele>249.1</ele>
        <time>1970-01-01T02:53:59.000Z</time>
      </trkpt>
      <trkpt lat="41.084577" lon="-6.761867">
        <ele>249.3</ele>
        <time>1970-01-01T02:54:00.000Z</time>
      </trkpt>
      <trkpt lat="41.084596" lon="-6.761843">
        <ele>249.5</ele>
        <time>1970-01-01T02:54:01.000Z</time>
      </trkpt>
      <trkpt lat="41.084616" lon="-6.761819">
        <ele>249.7</ele>
        <time>1970-01-01T02:54:02.000Z</time>
      </trkpt>
      <trkpt lat="41.084637" lon="-6.761794">
        <ele>249.9</ele>
        <time>1970-01-01T02:54:03.000Z</time>
      </trkpt>
      <trkpt lat="41.084658" lon="-6.761769">
        <ele>250.1</ele>
        <time>1970-01-01T02:54:04.000Z</time>
      </trkpt>
      <trkpt lat="41.084679" lon="-6.761745">
        <ele>250.3</ele>
        <time>1970-01-01T02:54:05.000Z</time>
      </trkpt>
      <trkpt lat="41.0847" lon="-6.761722">
        <ele>250.5</ele>
        <time>1970-01-01T02:54:06.000Z</time>
      </trkpt>
      <trkpt lat="41.084723" lon="-6.761701">
        <ele>250.7</ele>
        <time>1970-01-01T02:54:07.000Z</time>
      </trkpt>
      <trkpt lat="41.084746" lon="-6.761682">
        <ele>250.8</ele>
        <time>1970-01-01T02:54:08.000Z</time>
      </trkpt>
      <trkpt lat="41.084771" lon="-6.761666">
        <ele>251</ele>
        <time>1970-01-01T02:54:09.000Z</time>
      </trkpt>
      <trkpt lat="41.084798" lon="-6.761653">
        <ele>251.2</ele>
        <time>1970-01-01T02:54:10.000Z</time>
      </trkpt>
      <trkpt lat="41.084825" lon="-6.761646">
        <ele>251.3</ele>
        <time>1970-01-01T02:54:11.000Z</time>
      </trkpt>
      <trkpt lat="41.084853" lon="-6.761644">
        <ele>251.4</ele>
        <time>1970-01-01T02:54:12.000Z</time>
      </trkpt>
      <trkpt lat="41.084878" lon="-6.761652">
        <ele>251.5</ele>
        <time>1970-01-01T02:54:13.000Z</time>
      </trkpt>
      <trkpt lat="41.0849" lon="-6.761667">
        <ele>251.6</ele>
        <time>1970-01-01T02:54:14.000Z</time>
      </trkpt>
      <trkpt lat="41.084922" lon="-6.761688">
        <ele>251.7</ele>
        <time>1970-01-01T02:54:15.000Z</time>
      </trkpt>
      <trkpt lat="41.084946" lon="-6.76171">
        <ele>251.9</ele>
        <time>1970-01-01T02:54:16.000Z</time>
      </trkpt>
      <trkpt lat="41.08497" lon="-6.761733">
        <ele>252</ele>
        <time>1970-01-01T02:54:17.000Z</time>
      </trkpt>
      <trkpt lat="41.084993" lon="-6.761757">
        <ele>252.2</ele>
        <time>1970-01-01T02:54:18.000Z</time>
      </trkpt>
      <trkpt lat="41.085015" lon="-6.761782">
        <ele>252.3</ele>
        <time>1970-01-01T02:54:19.000Z</time>
      </trkpt>
      <trkpt lat="41.085037" lon="-6.761808">
        <ele>252.5</ele>
        <time>1970-01-01T02:54:20.000Z</time>
      </trkpt>
      <trkpt lat="41.085058" lon="-6.761835">
        <ele>252.6</ele>
        <time>1970-01-01T02:54:21.000Z</time>
      </trkpt>
      <trkpt lat="41.08508" lon="-6.761863">
        <ele>252.7</ele>
        <time>1970-01-01T02:54:22.000Z</time>
      </trkpt>
      <trkpt lat="41.085101" lon="-6.76189">
        <ele>252.8</ele>
        <time>1970-01-01T02:54:23.000Z</time>
      </trkpt>
      <trkpt lat="41.085122" lon="-6.761917">
        <ele>252.9</ele>
        <time>1970-01-01T02:54:24.000Z</time>
      </trkpt>
      <trkpt lat="41.085143" lon="-6.761943">
        <ele>253</ele>
        <time>1970-01-01T02:54:25.000Z</time>
      </trkpt>
      <trkpt lat="41.085165" lon="-6.761968">
        <ele>253.1</ele>
        <time>1970-01-01T02:54:26.000Z</time>
      </trkpt>
      <trkpt lat="41.085187" lon="-6.76199">
        <ele>253.2</ele>
        <time>1970-01-01T02:54:27.000Z</time>
      </trkpt>
      <trkpt lat="41.085209" lon="-6.762012">
        <ele>253.3</ele>
        <time>1970-01-01T02:54:28.000Z</time>
      </trkpt>
      <trkpt lat="41.085231" lon="-6.762031">
        <ele>253.4</ele>
        <time>1970-01-01T02:54:29.000Z</time>
      </trkpt>
      <trkpt lat="41.085253" lon="-6.76205">
        <ele>253.5</ele>
        <time>1970-01-01T02:54:30.000Z</time>
      </trkpt>
      <trkpt lat="41.085276" lon="-6.762066">
        <ele>253.7</ele>
        <time>1970-01-01T02:54:31.000Z</time>
      </trkpt>
      <trkpt lat="41.085299" lon="-6.762081">
        <ele>253.8</ele>
        <time>1970-01-01T02:54:32.000Z</time>
      </trkpt>
      <trkpt lat="41.085323" lon="-6.762092">
        <ele>253.9</ele>
        <time>1970-01-01T02:54:33.000Z</time>
      </trkpt>
      <trkpt lat="41.085349" lon="-6.7621">
        <ele>254</ele>
        <time>1970-01-01T02:54:34.000Z</time>
      </trkpt>
      <trkpt lat="41.085375" lon="-6.762105">
        <ele>254.2</ele>
        <time>1970-01-01T02:54:35.000Z</time>
      </trkpt>
      <trkpt lat="41.085401" lon="-6.762106">
        <ele>254.3</ele>
        <time>1970-01-01T02:54:36.000Z</time>
      </trkpt>
      <trkpt lat="41.085427" lon="-6.762104">
        <ele>254.5</ele>
        <time>1970-01-01T02:54:37.000Z</time>
      </trkpt>
      <trkpt lat="41.085455" lon="-6.762099">
        <ele>254.6</ele>
        <time>1970-01-01T02:54:38.000Z</time>
      </trkpt>
      <trkpt lat="41.085484" lon="-6.762092">
        <ele>254.7</ele>
        <time>1970-01-01T02:54:39.000Z</time>
      </trkpt>
      <trkpt lat="41.085512" lon="-6.762084">
        <ele>256</ele>
        <time>1970-01-01T02:54:40.000Z</time>
      </trkpt>
      <trkpt lat="41.08554" lon="-6.762076">
        <ele>257.2</ele>
        <time>1970-01-01T02:54:41.000Z</time>
      </trkpt>
      <trkpt lat="41.085568" lon="-6.762068">
        <ele>258.3</ele>
        <time>1970-01-01T02:54:42.000Z</time>
      </trkpt>
      <trkpt lat="41.085596" lon="-6.762058">
        <ele>259.2</ele>
        <time>1970-01-01T02:54:43.000Z</time>
      </trkpt>
      <trkpt lat="41.085624" lon="-6.762048">
        <ele>260</ele>
        <time>1970-01-01T02:54:44.000Z</time>
      </trkpt>
      <trkpt lat="41.085653" lon="-6.762038">
        <ele>260.6</ele>
        <time>1970-01-01T02:54:45.000Z</time>
      </trkpt>
      <trkpt lat="41.08568" lon="-6.762028">
        <ele>261.1</ele>
        <time>1970-01-01T02:54:46.000Z</time>
      </trkpt>
      <trkpt lat="41.085708" lon="-6.762019">
        <ele>261.6</ele>
        <time>1970-01-01T02:54:47.000Z</time>
      </trkpt>
      <trkpt lat="41.085736" lon="-6.762009">
        <ele>261.9</ele>
        <time>1970-01-01T02:54:48.000Z</time>
      </trkpt>
      <trkpt lat="41.085764" lon="-6.762">
        <ele>262.2</ele>
        <time>1970-01-01T02:54:49.000Z</time>
      </trkpt>
      <trkpt lat="41.085793" lon="-6.761991">
        <ele>262.5</ele>
        <time>1970-01-01T02:54:50.000Z</time>
      </trkpt>
      <trkpt lat="41.085821" lon="-6.76198">
        <ele>262.7</ele>
        <time>1970-01-01T02:54:51.000Z</time>
      </trkpt>
      <trkpt lat="41.08585" lon="-6.761969">
        <ele>262.9</ele>
        <time>1970-01-01T02:54:52.000Z</time>
      </trkpt>
      <trkpt lat="41.085879" lon="-6.76196">
        <ele>263.2</ele>
        <time>1970-01-01T02:54:53.000Z</time>
      </trkpt>
      <trkpt lat="41.085909" lon="-6.761951">
        <ele>263.4</ele>
        <time>1970-01-01T02:54:54.000Z</time>
      </trkpt>
      <trkpt lat="41.085938" lon="-6.761942">
        <ele>263.7</ele>
        <time>1970-01-01T02:54:55.000Z</time>
      </trkpt>
      <trkpt lat="41.085968" lon="-6.761932">
        <ele>263.9</ele>
        <time>1970-01-01T02:54:56.000Z</time>
      </trkpt>
      <trkpt lat="41.085998" lon="-6.761922">
        <ele>264.1</ele>
        <time>1970-01-01T02:54:57.000Z</time>
      </trkpt>
      <trkpt lat="41.086028" lon="-6.761913">
        <ele>264.4</ele>
        <time>1970-01-01T02:54:58.000Z</time>
      </trkpt>
      <trkpt lat="41.086059" lon="-6.761904">
        <ele>264.6</ele>
        <time>1970-01-01T02:54:59.000Z</time>
      </trkpt>
      <trkpt lat="41.08609" lon="-6.761894">
        <ele>264.9</ele>
        <time>1970-01-01T02:55:00.000Z</time>
      </trkpt>
      <trkpt lat="41.086121" lon="-6.761886">
        <ele>265.1</ele>
        <time>1970-01-01T02:55:01.000Z</time>
      </trkpt>
      <trkpt lat="41.08615" lon="-6.761877">
        <ele>265.3</ele>
        <time>1970-01-01T02:55:02.000Z</time>
      </trkpt>
      <trkpt lat="41.08618" lon="-6.761869">
        <ele>265.4</ele>
        <time>1970-01-01T02:55:03.000Z</time>
      </trkpt>
      <trkpt lat="41.086209" lon="-6.761859">
        <ele>265.5</ele>
        <time>1970-01-01T02:55:04.000Z</time>
      </trkpt>
      <trkpt lat="41.086238" lon="-6.761849">
        <ele>265.6</ele>
        <time>1970-01-01T02:55:05.000Z</time>
      </trkpt>
      <trkpt lat="41.086267" lon="-6.761838">
        <ele>265.7</ele>
        <time>1970-01-01T02:55:06.000Z</time>
      </trkpt>
      <trkpt lat="41.086296" lon="-6.761827">
        <ele>265.8</ele>
        <time>1970-01-01T02:55:07.000Z</time>
      </trkpt>
      <trkpt lat="41.086325" lon="-6.761816">
        <ele>265.9</ele>
        <time>1970-01-01T02:55:08.000Z</time>
      </trkpt>
      <trkpt lat="41.086354" lon="-6.761806">
        <ele>266</ele>
        <time>1970-01-01T02:55:09.000Z</time>
      </trkpt>
      <trkpt lat="41.086383" lon="-6.761796">
        <ele>266.2</ele>
        <time>1970-01-01T02:55:10.000Z</time>
      </trkpt>
      <trkpt lat="41.086412" lon="-6.761786">
        <ele>266.3</ele>
        <time>1970-01-01T02:55:11.000Z</time>
      </trkpt>
      <trkpt lat="41.08644" lon="-6.761773">
        <ele>266.4</ele>
        <time>1970-01-01T02:55:12.000Z</time>
      </trkpt>
      <trkpt lat="41.086468" lon="-6.76176">
        <ele>266.5</ele>
        <time>1970-01-01T02:55:13.000Z</time>
      </trkpt>
      <trkpt lat="41.086495" lon="-6.761748">
        <ele>266.7</ele>
        <time>1970-01-01T02:55:14.000Z</time>
      </trkpt>
      <trkpt lat="41.086523" lon="-6.761738">
        <ele>266.8</ele>
        <time>1970-01-01T02:55:15.000Z</time>
      </trkpt>
      <trkpt lat="41.086552" lon="-6.761732">
        <ele>266.9</ele>
        <time>1970-01-01T02:55:16.000Z</time>
      </trkpt>
      <trkpt lat="41.086582" lon="-6.761727">
        <ele>267.1</ele>
        <time>1970-01-01T02:55:17.000Z</time>
      </trkpt>
      <trkpt lat="41.086612" lon="-6.761725">
        <ele>267.2</ele>
        <time>1970-01-01T02:55:18.000Z</time>
      </trkpt>
      <trkpt lat="41.086643" lon="-6.761723">
        <ele>267.4</ele>
        <time>1970-01-01T02:55:19.000Z</time>
      </trkpt>
      <trkpt lat="41.086673" lon="-6.761723">
        <ele>267.5</ele>
        <time>1970-01-01T02:55:20.000Z</time>
      </trkpt>
      <trkpt lat="41.086703" lon="-6.761726">
        <ele>267.7</ele>
        <time>1970-01-01T02:55:21.000Z</time>
      </trkpt>
      <trkpt lat="41.086732" lon="-6.761733">
        <ele>267.8</ele>
        <time>1970-01-01T02:55:22.000Z</time>
      </trkpt>
      <trkpt lat="41.08676" lon="-6.761743">
        <ele>268</ele>
        <time>1970-01-01T02:55:23.000Z</time>
      </trkpt>
      <trkpt lat="41.086789" lon="-6.761756">
        <ele>268.1</ele>
        <time>1970-01-01T02:55:24.000Z</time>
      </trkpt>
      <trkpt lat="41.086818" lon="-6.761771">
        <ele>268.2</ele>
        <time>1970-01-01T02:55:25.000Z</time>
      </trkpt>
      <trkpt lat="41.086846" lon="-6.761787">
        <ele>268.4</ele>
        <time>1970-01-01T02:55:26.000Z</time>
      </trkpt>
      <trkpt lat="41.086875" lon="-6.761802">
        <ele>268.5</ele>
        <time>1970-01-01T02:55:27.000Z</time>
      </trkpt>
      <trkpt lat="41.086903" lon="-6.761817">
        <ele>268.7</ele>
        <time>1970-01-01T02:55:28.000Z</time>
      </trkpt>
      <trkpt lat="41.086931" lon="-6.761832">
        <ele>268.8</ele>
        <time>1970-01-01T02:55:29.000Z</time>
      </trkpt>
      <trkpt lat="41.086959" lon="-6.761847">
        <ele>269</ele>
        <time>1970-01-01T02:55:30.000Z</time>
      </trkpt>
      <trkpt lat="41.086986" lon="-6.761864">
        <ele>269.1</ele>
        <time>1970-01-01T02:55:31.000Z</time>
      </trkpt>
      <trkpt lat="41.087014" lon="-6.76188">
        <ele>269.3</ele>
        <time>1970-01-01T02:55:32.000Z</time>
      </trkpt>
      <trkpt lat="41.087043" lon="-6.761899">
        <ele>269.5</ele>
        <time>1970-01-01T02:55:33.000Z</time>
      </trkpt>
      <trkpt lat="41.087073" lon="-6.761918">
        <ele>269.7</ele>
        <time>1970-01-01T02:55:34.000Z</time>
      </trkpt>
      <trkpt lat="41.087101" lon="-6.761939">
        <ele>269.9</ele>
        <time>1970-01-01T02:55:35.000Z</time>
      </trkpt>
      <trkpt lat="41.087129" lon="-6.761959">
        <ele>270.1</ele>
        <time>1970-01-01T02:55:36.000Z</time>
      </trkpt>
      <trkpt lat="41.087156" lon="-6.761981">
        <ele>270.3</ele>
        <time>1970-01-01T02:55:37.000Z</time>
      </trkpt>
      <trkpt lat="41.087183" lon="-6.762003">
        <ele>270.5</ele>
        <time>1970-01-01T02:55:38.000Z</time>
      </trkpt>
      <trkpt lat="41.087209" lon="-6.762026">
        <ele>270.6</ele>
        <time>1970-01-01T02:55:39.000Z</time>
      </trkpt>
      <trkpt lat="41.087235" lon="-6.76205">
        <ele>270.7</ele>
        <time>1970-01-01T02:55:40.000Z</time>
      </trkpt>
      <trkpt lat="41.08726" lon="-6.762075">
        <ele>270.8</ele>
        <time>1970-01-01T02:55:41.000Z</time>
      </trkpt>
      <trkpt lat="41.087286" lon="-6.7621">
        <ele>270.9</ele>
        <time>1970-01-01T02:55:42.000Z</time>
      </trkpt>
      <trkpt lat="41.087311" lon="-6.762127">
        <ele>271</ele>
        <time>1970-01-01T02:55:43.000Z</time>
      </trkpt>
      <trkpt lat="41.087335" lon="-6.762155">
        <ele>271.1</ele>
        <time>1970-01-01T02:55:44.000Z</time>
      </trkpt>
      <trkpt lat="41.087359" lon="-6.762184">
        <ele>271.2</ele>
        <time>1970-01-01T02:55:45.000Z</time>
      </trkpt>
      <trkpt lat="41.087383" lon="-6.762213">
        <ele>271.3</ele>
        <time>1970-01-01T02:55:46.000Z</time>
      </trkpt>
      <trkpt lat="41.087406" lon="-6.762243">
        <ele>271.4</ele>
        <time>1970-01-01T02:55:47.000Z</time>
      </trkpt>
      <trkpt lat="41.087428" lon="-6.762272">
        <ele>271.5</ele>
        <time>1970-01-01T02:55:48.000Z</time>
      </trkpt>
      <trkpt lat="41.087449" lon="-6.762301">
        <ele>271.5</ele>
        <time>1970-01-01T02:55:49.000Z</time>
      </trkpt>
      <trkpt lat="41.08747" lon="-6.76233">
        <ele>271.6</ele>
        <time>1970-01-01T02:55:50.000Z</time>
      </trkpt>
      <trkpt lat="41.087492" lon="-6.762359">
        <ele>271.6</ele>
        <time>1970-01-01T02:55:51.000Z</time>
      </trkpt>
      <trkpt lat="41.087513" lon="-6.762389">
        <ele>271.7</ele>
        <time>1970-01-01T02:55:52.000Z</time>
      </trkpt>
      <trkpt lat="41.087535" lon="-6.762417">
        <ele>271.8</ele>
        <time>1970-01-01T02:55:53.000Z</time>
      </trkpt>
      <trkpt lat="41.087557" lon="-6.762444">
        <ele>271.9</ele>
        <time>1970-01-01T02:55:54.000Z</time>
      </trkpt>
      <trkpt lat="41.087579" lon="-6.762471">
        <ele>272</ele>
        <time>1970-01-01T02:55:55.000Z</time>
      </trkpt>
      <trkpt lat="41.087601" lon="-6.762499">
        <ele>272.1</ele>
        <time>1970-01-01T02:55:56.000Z</time>
      </trkpt>
      <trkpt lat="41.087622" lon="-6.762529">
        <ele>272.2</ele>
        <time>1970-01-01T02:55:57.000Z</time>
      </trkpt>
      <trkpt lat="41.087644" lon="-6.762559">
        <ele>272.3</ele>
        <time>1970-01-01T02:55:58.000Z</time>
      </trkpt>
      <trkpt lat="41.087665" lon="-6.762591">
        <ele>272.4</ele>
        <time>1970-01-01T02:55:59.000Z</time>
      </trkpt>
      <trkpt lat="41.087686" lon="-6.762621">
        <ele>272.5</ele>
        <time>1970-01-01T02:56:00.000Z</time>
      </trkpt>
      <trkpt lat="41.087706" lon="-6.762652">
        <ele>272.7</ele>
        <time>1970-01-01T02:56:01.000Z</time>
      </trkpt>
      <trkpt lat="41.087728" lon="-6.762683">
        <ele>272.8</ele>
        <time>1970-01-01T02:56:02.000Z</time>
      </trkpt>
      <trkpt lat="41.08775" lon="-6.762713">
        <ele>273</ele>
        <time>1970-01-01T02:56:03.000Z</time>
      </trkpt>
      <trkpt lat="41.087773" lon="-6.762743">
        <ele>273.1</ele>
        <time>1970-01-01T02:56:04.000Z</time>
      </trkpt>
      <trkpt lat="41.087796" lon="-6.762773">
        <ele>273.3</ele>
        <time>1970-01-01T02:56:05.000Z</time>
      </trkpt>
      <trkpt lat="41.087819" lon="-6.762802">
        <ele>273.4</ele>
        <time>1970-01-01T02:56:06.000Z</time>
      </trkpt>
      <trkpt lat="41.087841" lon="-6.762831">
        <ele>273.7</ele>
        <time>1970-01-01T02:56:07.000Z</time>
      </trkpt>
      <trkpt lat="41.087864" lon="-6.76286">
        <ele>273.3</ele>
        <time>1970-01-01T02:56:08.000Z</time>
      </trkpt>
      <trkpt lat="41.087887" lon="-6.762889">
        <ele>272.8</ele>
        <time>1970-01-01T02:56:09.000Z</time>
      </trkpt>
      <trkpt lat="41.087909" lon="-6.762918">
        <ele>272.4</ele>
        <time>1970-01-01T02:56:10.000Z</time>
      </trkpt>
      <trkpt lat="41.08793" lon="-6.762947">
        <ele>272</ele>
        <time>1970-01-01T02:56:11.000Z</time>
      </trkpt>
      <trkpt lat="41.087953" lon="-6.762975">
        <ele>271.6</ele>
        <time>1970-01-01T02:56:12.000Z</time>
      </trkpt>
      <trkpt lat="41.087975" lon="-6.763002">
        <ele>271.2</ele>
        <time>1970-01-01T02:56:13.000Z</time>
      </trkpt>
      <trkpt lat="41.087998" lon="-6.763028">
        <ele>270.8</ele>
        <time>1970-01-01T02:56:14.000Z</time>
      </trkpt>
      <trkpt lat="41.088021" lon="-6.763055">
        <ele>270.4</ele>
        <time>1970-01-01T02:56:15.000Z</time>
      </trkpt>
      <trkpt lat="41.088044" lon="-6.763082">
        <ele>270.1</ele>
        <time>1970-01-01T02:56:16.000Z</time>
      </trkpt>
      <trkpt lat="41.088068" lon="-6.763109">
        <ele>269.7</ele>
        <time>1970-01-01T02:56:17.000Z</time>
      </trkpt>
      <trkpt lat="41.088093" lon="-6.763134">
        <ele>269.3</ele>
        <time>1970-01-01T02:56:18.000Z</time>
      </trkpt>
      <trkpt lat="41.088117" lon="-6.763157">
        <ele>268.9</ele>
        <time>1970-01-01T02:56:19.000Z</time>
      </trkpt>
      <trkpt lat="41.08814" lon="-6.763181">
        <ele>268.6</ele>
        <time>1970-01-01T02:56:20.000Z</time>
      </trkpt>
      <trkpt lat="41.088164" lon="-6.763204">
        <ele>268.2</ele>
        <time>1970-01-01T02:56:21.000Z</time>
      </trkpt>
      <trkpt lat="41.088188" lon="-6.763226">
        <ele>267.9</ele>
        <time>1970-01-01T02:56:22.000Z</time>
      </trkpt>
      <trkpt lat="41.088212" lon="-6.763247">
        <ele>267.6</ele>
        <time>1970-01-01T02:56:23.000Z</time>
      </trkpt>
      <trkpt lat="41.088238" lon="-6.763267">
        <ele>267.3</ele>
        <time>1970-01-01T02:56:24.000Z</time>
      </trkpt>
      <trkpt lat="41.088265" lon="-6.763287">
        <ele>267</ele>
        <time>1970-01-01T02:56:25.000Z</time>
      </trkpt>
      <trkpt lat="41.088292" lon="-6.763303">
        <ele>267</ele>
        <time>1970-01-01T02:56:26.000Z</time>
      </trkpt>
      <trkpt lat="41.088321" lon="-6.763318">
        <ele>268</ele>
        <time>1970-01-01T02:56:27.000Z</time>
      </trkpt>
      <trkpt lat="41.088349" lon="-6.763326">
        <ele>268.9</ele>
        <time>1970-01-01T02:56:28.000Z</time>
      </trkpt>
      <trkpt lat="41.088378" lon="-6.76333">
        <ele>269.7</ele>
        <time>1970-01-01T02:56:29.000Z</time>
      </trkpt>
      <trkpt lat="41.088408" lon="-6.763328">
        <ele>270.2</ele>
        <time>1970-01-01T02:56:30.000Z</time>
      </trkpt>
      <trkpt lat="41.08844" lon="-6.763323">
        <ele>270.6</ele>
        <time>1970-01-01T02:56:31.000Z</time>
      </trkpt>
      <trkpt lat="41.088472" lon="-6.763312">
        <ele>270.9</ele>
        <time>1970-01-01T02:56:32.000Z</time>
      </trkpt>
      <trkpt lat="41.0885" lon="-6.763296">
        <ele>270.9</ele>
        <time>1970-01-01T02:56:33.000Z</time>
      </trkpt>
      <trkpt lat="41.088526" lon="-6.763274">
        <ele>270.8</ele>
        <time>1970-01-01T02:56:34.000Z</time>
      </trkpt>
      <trkpt lat="41.088552" lon="-6.763246">
        <ele>270.7</ele>
        <time>1970-01-01T02:56:35.000Z</time>
      </trkpt>
      <trkpt lat="41.088577" lon="-6.763211">
        <ele>270.5</ele>
        <time>1970-01-01T02:56:36.000Z</time>
      </trkpt>
      <trkpt lat="41.0886" lon="-6.763169">
        <ele>270.2</ele>
        <time>1970-01-01T02:56:37.000Z</time>
      </trkpt>
      <trkpt lat="41.08862" lon="-6.763121">
        <ele>269.8</ele>
        <time>1970-01-01T02:56:38.000Z</time>
      </trkpt>
      <trkpt lat="41.088641" lon="-6.763068">
        <ele>269.4</ele>
        <time>1970-01-01T02:56:39.000Z</time>
      </trkpt>
      <trkpt lat="41.088662" lon="-6.763013">
        <ele>268.9</ele>
        <time>1970-01-01T02:56:40.000Z</time>
      </trkpt>
      <trkpt lat="41.088683" lon="-6.762953">
        <ele>268.2</ele>
        <time>1970-01-01T02:56:41.000Z</time>
      </trkpt>
      <trkpt lat="41.088704" lon="-6.762889">
        <ele>267.4</ele>
        <time>1970-01-01T02:56:42.000Z</time>
      </trkpt>
      <trkpt lat="41.088726" lon="-6.762824">
        <ele>266.7</ele>
        <time>1970-01-01T02:56:43.000Z</time>
      </trkpt>
      <trkpt lat="41.088749" lon="-6.76276">
        <ele>266.1</ele>
        <time>1970-01-01T02:56:44.000Z</time>
      </trkpt>
      <trkpt lat="41.088776" lon="-6.762698">
        <ele>265.6</ele>
        <time>1970-01-01T02:56:45.000Z</time>
      </trkpt>
      <trkpt lat="41.088807" lon="-6.762636">
        <ele>265.2</ele>
        <time>1970-01-01T02:56:46.000Z</time>
      </trkpt>
      <trkpt lat="41.08884" lon="-6.762576">
        <ele>264.7</ele>
        <time>1970-01-01T02:56:47.000Z</time>
      </trkpt>
      <trkpt lat="41.08887" lon="-6.762518">
        <ele>264.2</ele>
        <time>1970-01-01T02:56:48.000Z</time>
      </trkpt>
      <trkpt lat="41.088896" lon="-6.762458">
        <ele>263.7</ele>
        <time>1970-01-01T02:56:49.000Z</time>
      </trkpt>
      <trkpt lat="41.08892" lon="-6.762389">
        <ele>263.2</ele>
        <time>1970-01-01T02:56:50.000Z</time>
      </trkpt>
      <trkpt lat="41.088946" lon="-6.762311">
        <ele>262.5</ele>
        <time>1970-01-01T02:56:51.000Z</time>
      </trkpt>
      <trkpt lat="41.08898" lon="-6.762236">
        <ele>261.7</ele>
        <time>1970-01-01T02:56:52.000Z</time>
      </trkpt>
      <trkpt lat="41.089023" lon="-6.762171">
        <ele>261</ele>
        <time>1970-01-01T02:56:53.000Z</time>
      </trkpt>
      <trkpt lat="41.089075" lon="-6.762118">
        <ele>260.4</ele>
        <time>1970-01-01T02:56:54.000Z</time>
      </trkpt>
      <trkpt lat="41.089131" lon="-6.762068">
        <ele>259.8</ele>
        <time>1970-01-01T02:56:55.000Z</time>
      </trkpt>
      <trkpt lat="41.089186" lon="-6.762016">
        <ele>259.4</ele>
        <time>1970-01-01T02:56:56.000Z</time>
      </trkpt>
      <trkpt lat="41.089237" lon="-6.761962">
        <ele>259</ele>
        <time>1970-01-01T02:56:57.000Z</time>
      </trkpt>
      <trkpt lat="41.089284" lon="-6.761901">
        <ele>258.6</ele>
        <time>1970-01-01T02:56:58.000Z</time>
      </trkpt>
      <trkpt lat="41.089318" lon="-6.761837">
        <ele>258.3</ele>
        <time>1970-01-01T02:56:59.000Z</time>
      </trkpt>
      <trkpt lat="41.089338" lon="-6.761766">
        <ele>258.2</ele>
        <time>1970-01-01T02:57:00.000Z</time>
      </trkpt>
      <trkpt lat="41.08935" lon="-6.761691">
        <ele>258</ele>
        <time>1970-01-01T02:57:01.000Z</time>
      </trkpt>
      <trkpt lat="41.089367" lon="-6.761614">
        <ele>257.9</ele>
        <time>1970-01-01T02:57:02.000Z</time>
      </trkpt>
      <trkpt lat="41.089391" lon="-6.761541">
        <ele>257.8</ele>
        <time>1970-01-01T02:57:03.000Z</time>
      </trkpt>
      <trkpt lat="41.089417" lon="-6.761471">
        <ele>257.9</ele>
        <time>1970-01-01T02:57:04.000Z</time>
      </trkpt>
      <trkpt lat="41.08944" lon="-6.761402">
        <ele>258</ele>
        <time>1970-01-01T02:57:05.000Z</time>
      </trkpt>
      <trkpt lat="41.089461" lon="-6.761333">
        <ele>258.1</ele>
        <time>1970-01-01T02:57:06.000Z</time>
      </trkpt>
      <trkpt lat="41.089478" lon="-6.761265">
        <ele>258.3</ele>
        <time>1970-01-01T02:57:07.000Z</time>
      </trkpt>
      <trkpt lat="41.089493" lon="-6.761201">
        <ele>258.6</ele>
        <time>1970-01-01T02:57:08.000Z</time>
      </trkpt>
      <trkpt lat="41.089508" lon="-6.761136">
        <ele>258.9</ele>
        <time>1970-01-01T02:57:09.000Z</time>
      </trkpt>
      <trkpt lat="41.089524" lon="-6.761071">
        <ele>259.1</ele>
        <time>1970-01-01T02:57:10.000Z</time>
      </trkpt>
      <trkpt lat="41.08954" lon="-6.761005">
        <ele>259.2</ele>
        <time>1970-01-01T02:57:11.000Z</time>
      </trkpt>
      <trkpt lat="41.089556" lon="-6.760941">
        <ele>259.3</ele>
        <time>1970-01-01T02:57:12.000Z</time>
      </trkpt>
      <trkpt lat="41.08957" lon="-6.760876">
        <ele>259.5</ele>
        <time>1970-01-01T02:57:13.000Z</time>
      </trkpt>
      <trkpt lat="41.089584" lon="-6.760813">
        <ele>259.7</ele>
        <time>1970-01-01T02:57:14.000Z</time>
      </trkpt>
      <trkpt lat="41.089595" lon="-6.760751">
        <ele>259.9</ele>
        <time>1970-01-01T02:57:15.000Z</time>
      </trkpt>
      <trkpt lat="41.089606" lon="-6.760691">
        <ele>260.1</ele>
        <time>1970-01-01T02:57:16.000Z</time>
      </trkpt>
      <trkpt lat="41.089614" lon="-6.76063">
        <ele>260.3</ele>
        <time>1970-01-01T02:57:17.000Z</time>
      </trkpt>
      <trkpt lat="41.089621" lon="-6.760569">
        <ele>260.5</ele>
        <time>1970-01-01T02:57:18.000Z</time>
      </trkpt>
      <trkpt lat="41.089627" lon="-6.760508">
        <ele>260.8</ele>
        <time>1970-01-01T02:57:19.000Z</time>
      </trkpt>
      <trkpt lat="41.089633" lon="-6.760447">
        <ele>261</ele>
        <time>1970-01-01T02:57:20.000Z</time>
      </trkpt>
      <trkpt lat="41.089637" lon="-6.760389">
        <ele>261.1</ele>
        <time>1970-01-01T02:57:21.000Z</time>
      </trkpt>
      <trkpt lat="41.089638" lon="-6.760331">
        <ele>261.2</ele>
        <time>1970-01-01T02:57:22.000Z</time>
      </trkpt>
      <trkpt lat="41.089636" lon="-6.760273">
        <ele>261.3</ele>
        <time>1970-01-01T02:57:23.000Z</time>
      </trkpt>
      <trkpt lat="41.089635" lon="-6.760214">
        <ele>261.5</ele>
        <time>1970-01-01T02:57:24.000Z</time>
      </trkpt>
      <trkpt lat="41.089631" lon="-6.760156">
        <ele>261.6</ele>
        <time>1970-01-01T02:57:25.000Z</time>
      </trkpt>
      <trkpt lat="41.089626" lon="-6.7601">
        <ele>261.7</ele>
        <time>1970-01-01T02:57:26.000Z</time>
      </trkpt>
      <trkpt lat="41.089619" lon="-6.760046">
        <ele>261.8</ele>
        <time>1970-01-01T02:57:27.000Z</time>
      </trkpt>
      <trkpt lat="41.089613" lon="-6.759992">
        <ele>261.8</ele>
        <time>1970-01-01T02:57:28.000Z</time>
      </trkpt>
      <trkpt lat="41.089611" lon="-6.759937">
        <ele>261.7</ele>
        <time>1970-01-01T02:57:29.000Z</time>
      </trkpt>
      <trkpt lat="41.089616" lon="-6.759884">
        <ele>261.6</ele>
        <time>1970-01-01T02:57:30.000Z</time>
      </trkpt>
      <trkpt lat="41.08963" lon="-6.759835">
        <ele>261.4</ele>
        <time>1970-01-01T02:57:31.000Z</time>
      </trkpt>
      <trkpt lat="41.089653" lon="-6.759792">
        <ele>261.2</ele>
        <time>1970-01-01T02:57:32.000Z</time>
      </trkpt>
      <trkpt lat="41.089682" lon="-6.759756">
        <ele>261</ele>
        <time>1970-01-01T02:57:33.000Z</time>
      </trkpt>
      <trkpt lat="41.08972" lon="-6.759722">
        <ele>260.8</ele>
        <time>1970-01-01T02:57:34.000Z</time>
      </trkpt>
      <trkpt lat="41.089765" lon="-6.75969">
        <ele>260.5</ele>
        <time>1970-01-01T02:57:35.000Z</time>
      </trkpt>
      <trkpt lat="41.089819" lon="-6.759655">
        <ele>260.1</ele>
        <time>1970-01-01T02:57:36.000Z</time>
      </trkpt>
      <trkpt lat="41.089878" lon="-6.759614">
        <ele>259.7</ele>
        <time>1970-01-01T02:57:37.000Z</time>
      </trkpt>
      <trkpt lat="41.089949" lon="-6.759559">
        <ele>258.9</ele>
        <time>1970-01-01T02:57:38.000Z</time>
      </trkpt>
      <trkpt lat="41.090023" lon="-6.759497">
        <ele>257.8</ele>
        <time>1970-01-01T02:57:39.000Z</time>
      </trkpt>
      <trkpt lat="41.090095" lon="-6.759433">
        <ele>256.5</ele>
        <time>1970-01-01T02:57:40.000Z</time>
      </trkpt>
      <trkpt lat="41.090158" lon="-6.759371">
        <ele>255.5</ele>
        <time>1970-01-01T02:57:41.000Z</time>
      </trkpt>
      <trkpt lat="41.090214" lon="-6.759306">
        <ele>254.9</ele>
        <time>1970-01-01T02:57:42.000Z</time>
      </trkpt>
      <trkpt lat="41.090273" lon="-6.759238">
        <ele>254.2</ele>
        <time>1970-01-01T02:57:43.000Z</time>
      </trkpt>
      <trkpt lat="41.090339" lon="-6.759171">
        <ele>253.6</ele>
        <time>1970-01-01T02:57:44.000Z</time>
      </trkpt>
      <trkpt lat="41.090416" lon="-6.75911">
        <ele>252.7</ele>
        <time>1970-01-01T02:57:45.000Z</time>
      </trkpt>
      <trkpt lat="41.090501" lon="-6.759057">
        <ele>251.6</ele>
        <time>1970-01-01T02:57:46.000Z</time>
      </trkpt>
      <trkpt lat="41.09059" lon="-6.75901">
        <ele>250.9</ele>
        <time>1970-01-01T02:57:47.000Z</time>
      </trkpt>
      <trkpt lat="41.090679" lon="-6.758965">
        <ele>250.5</ele>
        <time>1970-01-01T02:57:48.000Z</time>
      </trkpt>
      <trkpt lat="41.090768" lon="-6.758921">
        <ele>250.1</ele>
        <time>1970-01-01T02:57:49.000Z</time>
      </trkpt>
      <trkpt lat="41.090858" lon="-6.758875">
        <ele>249.4</ele>
        <time>1970-01-01T02:57:50.000Z</time>
      </trkpt>
      <trkpt lat="41.090947" lon="-6.758828">
        <ele>248.7</ele>
        <time>1970-01-01T02:57:51.000Z</time>
      </trkpt>
      <trkpt lat="41.091034" lon="-6.758782">
        <ele>248</ele>
        <time>1970-01-01T02:57:52.000Z</time>
      </trkpt>
      <trkpt lat="41.091119" lon="-6.758735">
        <ele>247.3</ele>
        <time>1970-01-01T02:57:53.000Z</time>
      </trkpt>
      <trkpt lat="41.091202" lon="-6.758688">
        <ele>246.4</ele>
        <time>1970-01-01T02:57:54.000Z</time>
      </trkpt>
      <trkpt lat="41.091284" lon="-6.758638">
        <ele>245.4</ele>
        <time>1970-01-01T02:57:55.000Z</time>
      </trkpt>
      <trkpt lat="41.091367" lon="-6.758585">
        <ele>244.2</ele>
        <time>1970-01-01T02:57:56.000Z</time>
      </trkpt>
      <trkpt lat="41.09145" lon="-6.758525">
        <ele>243</ele>
        <time>1970-01-01T02:57:57.000Z</time>
      </trkpt>
      <trkpt lat="41.091532" lon="-6.758457">
        <ele>242</ele>
        <time>1970-01-01T02:57:58.000Z</time>
      </trkpt>
      <trkpt lat="41.091614" lon="-6.758378">
        <ele>240.9</ele>
        <time>1970-01-01T02:57:59.000Z</time>
      </trkpt>
      <trkpt lat="41.091694" lon="-6.758291">
        <ele>239.5</ele>
        <time>1970-01-01T02:58:00.000Z</time>
      </trkpt>
      <trkpt lat="41.091774" lon="-6.758197">
        <ele>238</ele>
        <time>1970-01-01T02:58:01.000Z</time>
      </trkpt>
      <trkpt lat="41.091853" lon="-6.7581">
        <ele>236.5</ele>
        <time>1970-01-01T02:58:02.000Z</time>
      </trkpt>
      <trkpt lat="41.091933" lon="-6.757996">
        <ele>235.4</ele>
        <time>1970-01-01T02:58:03.000Z</time>
      </trkpt>
      <trkpt lat="41.092014" lon="-6.757884">
        <ele>234.5</ele>
        <time>1970-01-01T02:58:04.000Z</time>
      </trkpt>
      <trkpt lat="41.092097" lon="-6.757764">
        <ele>233.9</ele>
        <time>1970-01-01T02:58:05.000Z</time>
      </trkpt>
      <trkpt lat="41.09218" lon="-6.75764">
        <ele>232.5</ele>
        <time>1970-01-01T02:58:06.000Z</time>
      </trkpt>
      <trkpt lat="41.092262" lon="-6.757516">
        <ele>231.4</ele>
        <time>1970-01-01T02:58:07.000Z</time>
      </trkpt>
      <trkpt lat="41.092343" lon="-6.757392">
        <ele>231.1</ele>
        <time>1970-01-01T02:58:08.000Z</time>
      </trkpt>
      <trkpt lat="41.092422" lon="-6.757273">
        <ele>231.1</ele>
        <time>1970-01-01T02:58:09.000Z</time>
      </trkpt>
      <trkpt lat="41.092504" lon="-6.757163">
        <ele>231.2</ele>
        <time>1970-01-01T02:58:10.000Z</time>
      </trkpt>
      <trkpt lat="41.092588" lon="-6.757067">
        <ele>231.4</ele>
        <time>1970-01-01T02:58:11.000Z</time>
      </trkpt>
      <trkpt lat="41.092673" lon="-6.756986">
        <ele>231.7</ele>
        <time>1970-01-01T02:58:12.000Z</time>
      </trkpt>
      <trkpt lat="41.092755" lon="-6.756917">
        <ele>231.9</ele>
        <time>1970-01-01T02:58:13.000Z</time>
      </trkpt>
      <trkpt lat="41.092836" lon="-6.756856">
        <ele>232.1</ele>
        <time>1970-01-01T02:58:14.000Z</time>
      </trkpt>
      <trkpt lat="41.092916" lon="-6.756798">
        <ele>232.1</ele>
        <time>1970-01-01T02:58:15.000Z</time>
      </trkpt>
      <trkpt lat="41.092994" lon="-6.756739">
        <ele>232.2</ele>
        <time>1970-01-01T02:58:16.000Z</time>
      </trkpt>
      <trkpt lat="41.093059" lon="-6.756673">
        <ele>232.6</ele>
        <time>1970-01-01T02:58:17.000Z</time>
      </trkpt>
      <trkpt lat="41.093111" lon="-6.756595">
        <ele>232.8</ele>
        <time>1970-01-01T02:58:18.000Z</time>
      </trkpt>
      <trkpt lat="41.093149" lon="-6.756506">
        <ele>232.8</ele>
        <time>1970-01-01T02:58:19.000Z</time>
      </trkpt>
      <trkpt lat="41.09318" lon="-6.75641">
        <ele>232.6</ele>
        <time>1970-01-01T02:58:20.000Z</time>
      </trkpt>
      <trkpt lat="41.093208" lon="-6.756312">
        <ele>232.5</ele>
        <time>1970-01-01T02:58:21.000Z</time>
      </trkpt>
      <trkpt lat="41.093233" lon="-6.75621">
        <ele>232.4</ele>
        <time>1970-01-01T02:58:22.000Z</time>
      </trkpt>
      <trkpt lat="41.093258" lon="-6.756105">
        <ele>232.2</ele>
        <time>1970-01-01T02:58:23.000Z</time>
      </trkpt>
      <trkpt lat="41.093282" lon="-6.755999">
        <ele>231.8</ele>
        <time>1970-01-01T02:58:24.000Z</time>
      </trkpt>
      <trkpt lat="41.093307" lon="-6.755889">
        <ele>231.5</ele>
        <time>1970-01-01T02:58:25.000Z</time>
      </trkpt>
      <trkpt lat="41.093333" lon="-6.755776">
        <ele>231.2</ele>
        <time>1970-01-01T02:58:26.000Z</time>
      </trkpt>
      <trkpt lat="41.09336" lon="-6.755661">
        <ele>230.7</ele>
        <time>1970-01-01T02:58:27.000Z</time>
      </trkpt>
      <trkpt lat="41.093385" lon="-6.755545">
        <ele>229.9</ele>
        <time>1970-01-01T02:58:28.000Z</time>
      </trkpt>
      <trkpt lat="41.09341" lon="-6.755428">
        <ele>229.3</ele>
        <time>1970-01-01T02:58:29.000Z</time>
      </trkpt>
      <trkpt lat="41.093432" lon="-6.755307">
        <ele>228.6</ele>
        <time>1970-01-01T02:58:30.000Z</time>
      </trkpt>
      <trkpt lat="41.093453" lon="-6.75518">
        <ele>228.1</ele>
        <time>1970-01-01T02:58:31.000Z</time>
      </trkpt>
      <trkpt lat="41.093468" lon="-6.75505">
        <ele>227.7</ele>
        <time>1970-01-01T02:58:32.000Z</time>
      </trkpt>
      <trkpt lat="41.093477" lon="-6.754927">
        <ele>227.1</ele>
        <time>1970-01-01T02:58:33.000Z</time>
      </trkpt>
      <trkpt lat="41.093479" lon="-6.754813">
        <ele>226.5</ele>
        <time>1970-01-01T02:58:34.000Z</time>
      </trkpt>
      <trkpt lat="41.093473" lon="-6.754708">
        <ele>225.8</ele>
        <time>1970-01-01T02:58:35.000Z</time>
      </trkpt>
      <trkpt lat="41.093463" lon="-6.754605">
        <ele>225.2</ele>
        <time>1970-01-01T02:58:36.000Z</time>
      </trkpt>
      <trkpt lat="41.093449" lon="-6.754507">
        <ele>224.6</ele>
        <time>1970-01-01T02:58:37.000Z</time>
      </trkpt>
      <trkpt lat="41.093433" lon="-6.754413">
        <ele>224</ele>
        <time>1970-01-01T02:58:38.000Z</time>
      </trkpt>
      <trkpt lat="41.093418" lon="-6.754323">
        <ele>223.5</ele>
        <time>1970-01-01T02:58:39.000Z</time>
      </trkpt>
      <trkpt lat="41.093404" lon="-6.754236">
        <ele>223.2</ele>
        <time>1970-01-01T02:58:40.000Z</time>
      </trkpt>
      <trkpt lat="41.093396" lon="-6.754153">
        <ele>222.9</ele>
        <time>1970-01-01T02:58:41.000Z</time>
      </trkpt>
      <trkpt lat="41.093396" lon="-6.754071">
        <ele>222.7</ele>
        <time>1970-01-01T02:58:42.000Z</time>
      </trkpt>
      <trkpt lat="41.093409" lon="-6.753999">
        <ele>222.8</ele>
        <time>1970-01-01T02:58:43.000Z</time>
      </trkpt>
      <trkpt lat="41.093435" lon="-6.753939">
        <ele>222.9</ele>
        <time>1970-01-01T02:58:44.000Z</time>
      </trkpt>
      <trkpt lat="41.093468" lon="-6.753897">
        <ele>222.7</ele>
        <time>1970-01-01T02:58:45.000Z</time>
      </trkpt>
      <trkpt lat="41.093502" lon="-6.753869">
        <ele>222</ele>
        <time>1970-01-01T02:58:46.000Z</time>
      </trkpt>
      <trkpt lat="41.093532" lon="-6.753852">
        <ele>221.5</ele>
        <time>1970-01-01T02:58:47.000Z</time>
      </trkpt>
      <trkpt lat="41.09356" lon="-6.753844">
        <ele>221.1</ele>
        <time>1970-01-01T02:58:48.000Z</time>
      </trkpt>
      <trkpt lat="41.093586" lon="-6.75384">
        <ele>220.8</ele>
        <time>1970-01-01T02:58:49.000Z</time>
      </trkpt>
      <trkpt lat="41.093609" lon="-6.753834">
        <ele>220.6</ele>
        <time>1970-01-01T02:58:50.000Z</time>
      </trkpt>
      <trkpt lat="41.093629" lon="-6.753827">
        <ele>220.5</ele>
        <time>1970-01-01T02:58:51.000Z</time>
      </trkpt>
      <trkpt lat="41.093645" lon="-6.753822">
        <ele>220.4</ele>
        <time>1970-01-01T02:58:52.000Z</time>
      </trkpt>
      <trkpt lat="41.09366" lon="-6.75382">
        <ele>220.3</ele>
        <time>1970-01-01T02:58:53.000Z</time>
      </trkpt>
      <trkpt lat="41.093673" lon="-6.753819">
        <ele>220.2</ele>
        <time>1970-01-01T02:58:54.000Z</time>
      </trkpt>
      <trkpt lat="41.093685" lon="-6.753816">
        <ele>220.2</ele>
        <time>1970-01-01T02:58:55.000Z</time>
      </trkpt>
      <trkpt lat="41.093696" lon="-6.753812">
        <ele>220.2</ele>
        <time>1970-01-01T02:58:56.000Z</time>
      </trkpt>
      <trkpt lat="41.093704" lon="-6.753809">
        <ele>220.1</ele>
        <time>1970-01-01T02:58:57.000Z</time>
      </trkpt>
      <trkpt lat="41.09371" lon="-6.753805">
        <ele>220.1</ele>
        <time>1970-01-01T02:58:58.000Z</time>
      </trkpt>
      <trkpt lat="41.093712" lon="-6.753803">
        <ele>220.1</ele>
        <time>1970-01-01T02:58:59.000Z</time>
      </trkpt>
      <trkpt lat="41.093713" lon="-6.753801">
        <ele>220.1</ele>
        <time>1970-01-01T02:59:00.000Z</time>
      </trkpt>
      <trkpt lat="41.093713" lon="-6.753801">
        <ele>220.1</ele>
        <time>1970-01-01T02:59:01.000Z</time>
      </trkpt>
      <trkpt lat="41.093713" lon="-6.7538">
        <ele>220.1</ele>
        <time>1970-01-01T02:59:02.000Z</time>
      </trkpt>
      <trkpt lat="41.093716" lon="-6.753799">
        <ele>220.1</ele>
        <time>1970-01-01T02:59:03.000Z</time>
      </trkpt>
      <trkpt lat="41.093719" lon="-6.753797">
        <ele>220.1</ele>
        <time>1970-01-01T02:59:04.000Z</time>
      </trkpt>
      <trkpt lat="41.093723" lon="-6.753795">
        <ele>220.1</ele>
        <time>1970-01-01T02:59:05.000Z</time>
      </trkpt>
      <trkpt lat="41.093732" lon="-6.753834">
        <ele>220.1</ele>
        <time>1970-01-01T02:59:06.000Z</time>
      </trkpt>
      <trkpt lat="41.093719" lon="-6.753841">
        <ele>220.1</ele>
        <time>1970-01-01T02:59:07.000Z</time>
      </trkpt>
      <trkpt lat="41.093709" lon="-6.753846">
        <ele>220.1</ele>
        <time>1970-01-01T03:00:08.000Z</time>
      </trkpt>
      <trkpt lat="41.093703" lon="-6.753849">
        <ele>220.1</ele>
        <time>1970-01-01T03:00:09.000Z</time>
      </trkpt>
      <trkpt lat="41.093702" lon="-6.753848">
        <ele>220.1</ele>
        <time>1970-01-01T03:00:10.000Z</time>
      </trkpt>
      <trkpt lat="41.093703" lon="-6.753846">
        <ele>220.1</ele>
        <time>1970-01-01T03:00:11.000Z</time>
      </trkpt>
      <trkpt lat="41.093704" lon="-6.753844">
        <ele>220.1</ele>
        <time>1970-01-01T03:00:12.000Z</time>
      </trkpt>
      <trkpt lat="41.093705" lon="-6.753843">
        <ele>220.1</ele>
        <time>1970-01-01T03:00:13.000Z</time>
      </trkpt>
      <trkpt lat="41.093706" lon="-6.753842">
        <ele>220.1</ele>
        <time>1970-01-01T03:00:14.000Z</time>
      </trkpt>
      <trkpt lat="41.093706" lon="-6.753842">
        <ele>220.1</ele>
        <time>1970-01-01T03:00:15.000Z</time>
      </trkpt>
      <trkpt lat="41.093706" lon="-6.753842">
        <ele>220.1</ele>
        <time>1970-01-01T03:00:16.000Z</time>
      </trkpt>
      <trkpt lat="41.093685" lon="-6.753801">
        <ele>220.1</ele>
        <time>1970-01-01T03:00:17.000Z</time>
      </trkpt>
      <trkpt lat="41.093688" lon="-6.753792">
        <ele>220.1</ele>
        <time>1970-01-01T03:00:18.000Z</time>
      </trkpt>
      <trkpt lat="41.093694" lon="-6.753789">
        <ele>220.1</ele>
        <time>1970-01-01T03:00:55.000Z</time>
      </trkpt>
      <trkpt lat="41.0937" lon="-6.753789">
        <ele>220.1</ele>
        <time>1970-01-01T03:00:56.000Z</time>
      </trkpt>
      <trkpt lat="41.093708" lon="-6.75379">
        <ele>220.2</ele>
        <time>1970-01-01T03:00:57.000Z</time>
      </trkpt>
      <trkpt lat="41.093714" lon="-6.75379">
        <ele>220.2</ele>
        <time>1970-01-01T03:00:58.000Z</time>
      </trkpt>
      <trkpt lat="41.093718" lon="-6.75379">
        <ele>220.2</ele>
        <time>1970-01-01T03:00:59.000Z</time>
      </trkpt>
      <trkpt lat="41.093718" lon="-6.753789">
        <ele>220.2</ele>
        <time>1970-01-01T03:01:00.000Z</time>
      </trkpt>
      <trkpt lat="41.093718" lon="-6.753787">
        <ele>220.2</ele>
        <time>1970-01-01T03:01:01.000Z</time>
      </trkpt>
      <trkpt lat="41.093718" lon="-6.753786">
        <ele>220.2</ele>
        <time>1970-01-01T03:01:02.000Z</time>
      </trkpt>
      <trkpt lat="41.093717" lon="-6.753785">
        <ele>220.2</ele>
        <time>1970-01-01T03:01:03.000Z</time>
      </trkpt>
      <trkpt lat="41.093717" lon="-6.753785">
        <ele>220.2</ele>
        <time>1970-01-01T03:01:04.000Z</time>
      </trkpt>
      <trkpt lat="41.093717" lon="-6.753783">
        <ele>220.2</ele>
        <time>1970-01-01T03:01:05.000Z</time>
      </trkpt>
      <trkpt lat="41.093739" lon="-6.753774">
        <ele>220.3</ele>
        <time>1970-01-01T03:01:06.000Z</time>
      </trkpt>
      <trkpt lat="41.093741" lon="-6.753774">
        <ele>220.3</ele>
        <time>1970-01-01T03:01:07.000Z</time>
      </trkpt>
      <trkpt lat="41.093744" lon="-6.753773">
        <ele>220.3</ele>
        <time>1970-01-01T03:03:53.000Z</time>
      </trkpt>
      <trkpt lat="41.093747" lon="-6.753773">
        <ele>220.3</ele>
        <time>1970-01-01T03:03:54.000Z</time>
      </trkpt>
      <trkpt lat="41.093748" lon="-6.753773">
        <ele>220.3</ele>
        <time>1970-01-01T03:03:55.000Z</time>
      </trkpt>
      <trkpt lat="41.093749" lon="-6.753773">
        <ele>220.3</ele>
        <time>1970-01-01T03:03:56.000Z</time>
      </trkpt>
      <trkpt lat="41.093783" lon="-6.753792">
        <ele>220.4</ele>
        <time>1970-01-01T03:03:57.000Z</time>
      </trkpt>
      <trkpt lat="41.093792" lon="-6.753793">
        <ele>220.5</ele>
        <time>1970-01-01T03:03:58.000Z</time>
      </trkpt>
      <trkpt lat="41.093802" lon="-6.753792">
        <ele>220.5</ele>
        <time>1970-01-01T03:05:45.000Z</time>
      </trkpt>
      <trkpt lat="41.093812" lon="-6.753793">
        <ele>220.5</ele>
        <time>1970-01-01T03:05:46.000Z</time>
      </trkpt>
      <trkpt lat="41.093825" lon="-6.753796">
        <ele>220.6</ele>
        <time>1970-01-01T03:05:47.000Z</time>
      </trkpt>
      <trkpt lat="41.093842" lon="-6.753799">
        <ele>220.6</ele>
        <time>1970-01-01T03:05:48.000Z</time>
      </trkpt>
      <trkpt lat="41.093862" lon="-6.753804">
        <ele>220.7</ele>
        <time>1970-01-01T03:05:49.000Z</time>
      </trkpt>
      <trkpt lat="41.093886" lon="-6.753809">
        <ele>220.7</ele>
        <time>1970-01-01T03:05:50.000Z</time>
      </trkpt>
      <trkpt lat="41.09391" lon="-6.753814">
        <ele>220.8</ele>
        <time>1970-01-01T03:05:51.000Z</time>
      </trkpt>
      <trkpt lat="41.093936" lon="-6.753821">
        <ele>220.9</ele>
        <time>1970-01-01T03:05:52.000Z</time>
      </trkpt>
      <trkpt lat="41.093962" lon="-6.753829">
        <ele>221</ele>
        <time>1970-01-01T03:05:53.000Z</time>
      </trkpt>
      <trkpt lat="41.093989" lon="-6.753839">
        <ele>221.1</ele>
        <time>1970-01-01T03:05:54.000Z</time>
      </trkpt>
      <trkpt lat="41.094015" lon="-6.753849">
        <ele>221.2</ele>
        <time>1970-01-01T03:05:55.000Z</time>
      </trkpt>
      <trkpt lat="41.094042" lon="-6.75386">
        <ele>221.3</ele>
        <time>1970-01-01T03:05:56.000Z</time>
      </trkpt>
      <trkpt lat="41.09407" lon="-6.753873">
        <ele>221.4</ele>
        <time>1970-01-01T03:05:57.000Z</time>
      </trkpt>
      <trkpt lat="41.094098" lon="-6.753887">
        <ele>221.6</ele>
        <time>1970-01-01T03:05:58.000Z</time>
      </trkpt>
      <trkpt lat="41.094127" lon="-6.753902">
        <ele>221.7</ele>
        <time>1970-01-01T03:05:59.000Z</time>
      </trkpt>
      <trkpt lat="41.094155" lon="-6.753917">
        <ele>221.9</ele>
        <time>1970-01-01T03:06:00.000Z</time>
      </trkpt>
      <trkpt lat="41.094181" lon="-6.753933">
        <ele>222.1</ele>
        <time>1970-01-01T03:06:01.000Z</time>
      </trkpt>
      <trkpt lat="41.094207" lon="-6.753951">
        <ele>222.3</ele>
        <time>1970-01-01T03:06:02.000Z</time>
      </trkpt>
      <trkpt lat="41.094232" lon="-6.753969">
        <ele>222.5</ele>
        <time>1970-01-01T03:06:03.000Z</time>
      </trkpt>
      <trkpt lat="41.094257" lon="-6.753987">
        <ele>222.7</ele>
        <time>1970-01-01T03:06:04.000Z</time>
      </trkpt>
      <trkpt lat="41.094281" lon="-6.754005">
        <ele>222.9</ele>
        <time>1970-01-01T03:06:05.000Z</time>
      </trkpt>
      <trkpt lat="41.094304" lon="-6.754023">
        <ele>223.1</ele>
        <time>1970-01-01T03:06:06.000Z</time>
      </trkpt>
      <trkpt lat="41.094326" lon="-6.754041">
        <ele>223.3</ele>
        <time>1970-01-01T03:06:07.000Z</time>
      </trkpt>
      <trkpt lat="41.094347" lon="-6.754058">
        <ele>223.5</ele>
        <time>1970-01-01T03:06:08.000Z</time>
      </trkpt>
      <trkpt lat="41.094368" lon="-6.754075">
        <ele>223.7</ele>
        <time>1970-01-01T03:06:09.000Z</time>
      </trkpt>
      <trkpt lat="41.094388" lon="-6.754093">
        <ele>223.9</ele>
        <time>1970-01-01T03:06:10.000Z</time>
      </trkpt>
      <trkpt lat="41.094408" lon="-6.75411">
        <ele>224.1</ele>
        <time>1970-01-01T03:06:11.000Z</time>
      </trkpt>
      <trkpt lat="41.094429" lon="-6.754127">
        <ele>224.4</ele>
        <time>1970-01-01T03:06:12.000Z</time>
      </trkpt>
      <trkpt lat="41.09445" lon="-6.754142">
        <ele>224.6</ele>
        <time>1970-01-01T03:06:13.000Z</time>
      </trkpt>
      <trkpt lat="41.09447" lon="-6.754159">
        <ele>224.8</ele>
        <time>1970-01-01T03:06:14.000Z</time>
      </trkpt>
      <trkpt lat="41.09449" lon="-6.754176">
        <ele>225</ele>
        <time>1970-01-01T03:06:15.000Z</time>
      </trkpt>
      <trkpt lat="41.09451" lon="-6.754192">
        <ele>225.2</ele>
        <time>1970-01-01T03:06:16.000Z</time>
      </trkpt>
      <trkpt lat="41.09453" lon="-6.754208">
        <ele>225.4</ele>
        <time>1970-01-01T03:06:17.000Z</time>
      </trkpt>
      <trkpt lat="41.094551" lon="-6.754225">
        <ele>225.6</ele>
        <time>1970-01-01T03:06:18.000Z</time>
      </trkpt>
      <trkpt lat="41.094572" lon="-6.754243">
        <ele>225.8</ele>
        <time>1970-01-01T03:06:19.000Z</time>
      </trkpt>
      <trkpt lat="41.094593" lon="-6.754261">
        <ele>226</ele>
        <time>1970-01-01T03:06:20.000Z</time>
      </trkpt>
      <trkpt lat="41.094614" lon="-6.754279">
        <ele>226.2</ele>
        <time>1970-01-01T03:06:21.000Z</time>
      </trkpt>
      <trkpt lat="41.094635" lon="-6.754295">
        <ele>226.4</ele>
        <time>1970-01-01T03:06:22.000Z</time>
      </trkpt>
      <trkpt lat="41.094656" lon="-6.754309">
        <ele>226.6</ele>
        <time>1970-01-01T03:06:23.000Z</time>
      </trkpt>
      <trkpt lat="41.094678" lon="-6.754324">
        <ele>226.8</ele>
        <time>1970-01-01T03:06:24.000Z</time>
      </trkpt>
      <trkpt lat="41.094698" lon="-6.754339">
        <ele>227</ele>
        <time>1970-01-01T03:06:25.000Z</time>
      </trkpt>
      <trkpt lat="41.094719" lon="-6.754354">
        <ele>227.1</ele>
        <time>1970-01-01T03:06:26.000Z</time>
      </trkpt>
      <trkpt lat="41.094741" lon="-6.754369">
        <ele>227.3</ele>
        <time>1970-01-01T03:06:27.000Z</time>
      </trkpt>
      <trkpt lat="41.094763" lon="-6.754383">
        <ele>227.5</ele>
        <time>1970-01-01T03:06:28.000Z</time>
      </trkpt>
      <trkpt lat="41.094785" lon="-6.754397">
        <ele>227.7</ele>
        <time>1970-01-01T03:06:29.000Z</time>
      </trkpt>
      <trkpt lat="41.094807" lon="-6.754412">
        <ele>227.9</ele>
        <time>1970-01-01T03:06:30.000Z</time>
      </trkpt>
      <trkpt lat="41.094829" lon="-6.754425">
        <ele>228.1</ele>
        <time>1970-01-01T03:06:31.000Z</time>
      </trkpt>
      <trkpt lat="41.094851" lon="-6.754438">
        <ele>228.3</ele>
        <time>1970-01-01T03:06:32.000Z</time>
      </trkpt>
      <trkpt lat="41.094873" lon="-6.754451">
        <ele>228.6</ele>
        <time>1970-01-01T03:06:33.000Z</time>
      </trkpt>
      <trkpt lat="41.094896" lon="-6.754463">
        <ele>228.8</ele>
        <time>1970-01-01T03:06:34.000Z</time>
      </trkpt>
      <trkpt lat="41.094919" lon="-6.754472">
        <ele>229</ele>
        <time>1970-01-01T03:06:35.000Z</time>
      </trkpt>
      <trkpt lat="41.094943" lon="-6.754481">
        <ele>229.3</ele>
        <time>1970-01-01T03:06:36.000Z</time>
      </trkpt>
      <trkpt lat="41.094966" lon="-6.754489">
        <ele>229.5</ele>
        <time>1970-01-01T03:06:37.000Z</time>
      </trkpt>
      <trkpt lat="41.09499" lon="-6.754499">
        <ele>229.7</ele>
        <time>1970-01-01T03:06:38.000Z</time>
      </trkpt>
      <trkpt lat="41.095014" lon="-6.754506">
        <ele>229.9</ele>
        <time>1970-01-01T03:06:39.000Z</time>
      </trkpt>
      <trkpt lat="41.095038" lon="-6.754513">
        <ele>230.1</ele>
        <time>1970-01-01T03:06:40.000Z</time>
      </trkpt>
      <trkpt lat="41.095063" lon="-6.754518">
        <ele>230.2</ele>
        <time>1970-01-01T03:06:41.000Z</time>
      </trkpt>
      <trkpt lat="41.095088" lon="-6.754525">
        <ele>230.4</ele>
        <time>1970-01-01T03:06:42.000Z</time>
      </trkpt>
      <trkpt lat="41.095114" lon="-6.754531">
        <ele>230.5</ele>
        <time>1970-01-01T03:06:43.000Z</time>
      </trkpt>
      <trkpt lat="41.095139" lon="-6.754536">
        <ele>230.6</ele>
        <time>1970-01-01T03:06:44.000Z</time>
      </trkpt>
      <trkpt lat="41.095164" lon="-6.75454">
        <ele>230.7</ele>
        <time>1970-01-01T03:06:45.000Z</time>
      </trkpt>
      <trkpt lat="41.09519" lon="-6.754543">
        <ele>230.9</ele>
        <time>1970-01-01T03:06:46.000Z</time>
      </trkpt>
      <trkpt lat="41.095217" lon="-6.754546">
        <ele>231</ele>
        <time>1970-01-01T03:06:47.000Z</time>
      </trkpt>
      <trkpt lat="41.095243" lon="-6.75455">
        <ele>231.2</ele>
        <time>1970-01-01T03:06:48.000Z</time>
      </trkpt>
      <trkpt lat="41.095269" lon="-6.754554">
        <ele>231.3</ele>
        <time>1970-01-01T03:06:49.000Z</time>
      </trkpt>
      <trkpt lat="41.095295" lon="-6.75456">
        <ele>231.5</ele>
        <time>1970-01-01T03:06:50.000Z</time>
      </trkpt>
      <trkpt lat="41.095321" lon="-6.754567">
        <ele>231.6</ele>
        <time>1970-01-01T03:06:51.000Z</time>
      </trkpt>
      <trkpt lat="41.095346" lon="-6.754574">
        <ele>231.8</ele>
        <time>1970-01-01T03:06:52.000Z</time>
      </trkpt>
      <trkpt lat="41.095372" lon="-6.754582">
        <ele>232</ele>
        <time>1970-01-01T03:06:53.000Z</time>
      </trkpt>
      <trkpt lat="41.095397" lon="-6.754592">
        <ele>232.1</ele>
        <time>1970-01-01T03:06:54.000Z</time>
      </trkpt>
      <trkpt lat="41.095422" lon="-6.754603">
        <ele>232.2</ele>
        <time>1970-01-01T03:06:55.000Z</time>
      </trkpt>
      <trkpt lat="41.095447" lon="-6.754615">
        <ele>232.4</ele>
        <time>1970-01-01T03:06:56.000Z</time>
      </trkpt>
      <trkpt lat="41.095471" lon="-6.754627">
        <ele>232.5</ele>
        <time>1970-01-01T03:06:57.000Z</time>
      </trkpt>
      <trkpt lat="41.095496" lon="-6.754639">
        <ele>232.6</ele>
        <time>1970-01-01T03:06:58.000Z</time>
      </trkpt>
      <trkpt lat="41.095521" lon="-6.754653">
        <ele>232.7</ele>
        <time>1970-01-01T03:06:59.000Z</time>
      </trkpt>
      <trkpt lat="41.095546" lon="-6.754666">
        <ele>232.9</ele>
        <time>1970-01-01T03:07:00.000Z</time>
      </trkpt>
      <trkpt lat="41.095571" lon="-6.754678">
        <ele>233</ele>
        <time>1970-01-01T03:07:01.000Z</time>
      </trkpt>
      <trkpt lat="41.095596" lon="-6.75469">
        <ele>233.1</ele>
        <time>1970-01-01T03:07:02.000Z</time>
      </trkpt>
      <trkpt lat="41.095622" lon="-6.754704">
        <ele>233.2</ele>
        <time>1970-01-01T03:07:03.000Z</time>
      </trkpt>
      <trkpt lat="41.09565" lon="-6.754718">
        <ele>233.3</ele>
        <time>1970-01-01T03:07:04.000Z</time>
      </trkpt>
      <trkpt lat="41.095678" lon="-6.754733">
        <ele>233.3</ele>
        <time>1970-01-01T03:07:05.000Z</time>
      </trkpt>
      <trkpt lat="41.095706" lon="-6.754748">
        <ele>233.4</ele>
        <time>1970-01-01T03:07:06.000Z</time>
      </trkpt>
      <trkpt lat="41.095733" lon="-6.754763">
        <ele>233.4</ele>
        <time>1970-01-01T03:07:07.000Z</time>
      </trkpt>
      <trkpt lat="41.095761" lon="-6.754777">
        <ele>233.5</ele>
        <time>1970-01-01T03:07:08.000Z</time>
      </trkpt>
      <trkpt lat="41.095789" lon="-6.754789">
        <ele>233.5</ele>
        <time>1970-01-01T03:07:09.000Z</time>
      </trkpt>
      <trkpt lat="41.095817" lon="-6.754801">
        <ele>233.6</ele>
        <time>1970-01-01T03:07:10.000Z</time>
      </trkpt>
      <trkpt lat="41.095846" lon="-6.754812">
        <ele>233.6</ele>
        <time>1970-01-01T03:07:11.000Z</time>
      </trkpt>
      <trkpt lat="41.095876" lon="-6.754824">
        <ele>233.7</ele>
        <time>1970-01-01T03:07:12.000Z</time>
      </trkpt>
      <trkpt lat="41.095905" lon="-6.754838">
        <ele>233.7</ele>
        <time>1970-01-01T03:07:13.000Z</time>
      </trkpt>
      <trkpt lat="41.095936" lon="-6.75485">
        <ele>233.8</ele>
        <time>1970-01-01T03:07:14.000Z</time>
      </trkpt>
      <trkpt lat="41.095967" lon="-6.754863">
        <ele>233.7</ele>
        <time>1970-01-01T03:07:15.000Z</time>
      </trkpt>
      <trkpt lat="41.095998" lon="-6.754876">
        <ele>233.6</ele>
        <time>1970-01-01T03:07:16.000Z</time>
      </trkpt>
      <trkpt lat="41.096028" lon="-6.754888">
        <ele>233.4</ele>
        <time>1970-01-01T03:07:17.000Z</time>
      </trkpt>
      <trkpt lat="41.096057" lon="-6.754897">
        <ele>233.2</ele>
        <time>1970-01-01T03:07:18.000Z</time>
      </trkpt>
      <trkpt lat="41.096087" lon="-6.754905">
        <ele>232.9</ele>
        <time>1970-01-01T03:07:19.000Z</time>
      </trkpt>
      <trkpt lat="41.096117" lon="-6.754911">
        <ele>232.5</ele>
        <time>1970-01-01T03:07:20.000Z</time>
      </trkpt>
      <trkpt lat="41.096147" lon="-6.754912">
        <ele>232.6</ele>
        <time>1970-01-01T03:07:21.000Z</time>
      </trkpt>
      <trkpt lat="41.096176" lon="-6.754906">
        <ele>233.1</ele>
        <time>1970-01-01T03:07:22.000Z</time>
      </trkpt>
      <trkpt lat="41.096202" lon="-6.754895">
        <ele>233.6</ele>
        <time>1970-01-01T03:07:23.000Z</time>
      </trkpt>
      <trkpt lat="41.096229" lon="-6.75488">
        <ele>234.1</ele>
        <time>1970-01-01T03:07:24.000Z</time>
      </trkpt>
      <trkpt lat="41.096253" lon="-6.754862">
        <ele>234.6</ele>
        <time>1970-01-01T03:07:25.000Z</time>
      </trkpt>
      <trkpt lat="41.096277" lon="-6.754842">
        <ele>235</ele>
        <time>1970-01-01T03:07:26.000Z</time>
      </trkpt>
      <trkpt lat="41.0963" lon="-6.75482">
        <ele>235.4</ele>
        <time>1970-01-01T03:07:27.000Z</time>
      </trkpt>
      <trkpt lat="41.096323" lon="-6.754797">
        <ele>235.8</ele>
        <time>1970-01-01T03:07:28.000Z</time>
      </trkpt>
      <trkpt lat="41.096346" lon="-6.754774">
        <ele>236.1</ele>
        <time>1970-01-01T03:07:29.000Z</time>
      </trkpt>
      <trkpt lat="41.096367" lon="-6.754751">
        <ele>236.5</ele>
        <time>1970-01-01T03:07:30.000Z</time>
      </trkpt>
      <trkpt lat="41.096389" lon="-6.754728">
        <ele>236.8</ele>
        <time>1970-01-01T03:07:31.000Z</time>
      </trkpt>
      <trkpt lat="41.096409" lon="-6.754706">
        <ele>237.2</ele>
        <time>1970-01-01T03:07:32.000Z</time>
      </trkpt>
      <trkpt lat="41.096429" lon="-6.754685">
        <ele>237.5</ele>
        <time>1970-01-01T03:07:33.000Z</time>
      </trkpt>
      <trkpt lat="41.096448" lon="-6.754665">
        <ele>237.9</ele>
        <time>1970-01-01T03:07:34.000Z</time>
      </trkpt>
      <trkpt lat="41.096467" lon="-6.754647">
        <ele>238.2</ele>
        <time>1970-01-01T03:07:35.000Z</time>
      </trkpt>
      <trkpt lat="41.096486" lon="-6.754629">
        <ele>238.6</ele>
        <time>1970-01-01T03:07:36.000Z</time>
      </trkpt>
      <trkpt lat="41.096505" lon="-6.754611">
        <ele>238.9</ele>
        <time>1970-01-01T03:07:37.000Z</time>
      </trkpt>
      <trkpt lat="41.096523" lon="-6.754591">
        <ele>239.3</ele>
        <time>1970-01-01T03:07:38.000Z</time>
      </trkpt>
      <trkpt lat="41.09654" lon="-6.754572">
        <ele>239.6</ele>
        <time>1970-01-01T03:07:39.000Z</time>
      </trkpt>
      <trkpt lat="41.096556" lon="-6.754551">
        <ele>240</ele>
        <time>1970-01-01T03:07:40.000Z</time>
      </trkpt>
      <trkpt lat="41.096572" lon="-6.754531">
        <ele>240.3</ele>
        <time>1970-01-01T03:07:41.000Z</time>
      </trkpt>
      <trkpt lat="41.096586" lon="-6.754509">
        <ele>240.6</ele>
        <time>1970-01-01T03:07:42.000Z</time>
      </trkpt>
      <trkpt lat="41.096601" lon="-6.754486">
        <ele>241</ele>
        <time>1970-01-01T03:07:43.000Z</time>
      </trkpt>
      <trkpt lat="41.096614" lon="-6.754461">
        <ele>241.3</ele>
        <time>1970-01-01T03:07:44.000Z</time>
      </trkpt>
      <trkpt lat="41.096627" lon="-6.754434">
        <ele>241.6</ele>
        <time>1970-01-01T03:07:45.000Z</time>
      </trkpt>
      <trkpt lat="41.096638" lon="-6.754405">
        <ele>242</ele>
        <time>1970-01-01T03:07:46.000Z</time>
      </trkpt>
      <trkpt lat="41.096646" lon="-6.754374">
        <ele>242.4</ele>
        <time>1970-01-01T03:07:47.000Z</time>
      </trkpt>
      <trkpt lat="41.096655" lon="-6.754343">
        <ele>242.8</ele>
        <time>1970-01-01T03:07:48.000Z</time>
      </trkpt>
      <trkpt lat="41.096662" lon="-6.754312">
        <ele>243.2</ele>
        <time>1970-01-01T03:07:49.000Z</time>
      </trkpt>
      <trkpt lat="41.096669" lon="-6.754281">
        <ele>243.5</ele>
        <time>1970-01-01T03:07:50.000Z</time>
      </trkpt>
      <trkpt lat="41.096675" lon="-6.75425">
        <ele>243.9</ele>
        <time>1970-01-01T03:07:51.000Z</time>
      </trkpt>
      <trkpt lat="41.096681" lon="-6.754219">
        <ele>244.3</ele>
        <time>1970-01-01T03:07:52.000Z</time>
      </trkpt>
      <trkpt lat="41.096687" lon="-6.754187">
        <ele>244.7</ele>
        <time>1970-01-01T03:07:53.000Z</time>
      </trkpt>
      <trkpt lat="41.096694" lon="-6.754158">
        <ele>245.1</ele>
        <time>1970-01-01T03:07:54.000Z</time>
      </trkpt>
      <trkpt lat="41.096702" lon="-6.754128">
        <ele>245.4</ele>
        <time>1970-01-01T03:07:55.000Z</time>
      </trkpt>
      <trkpt lat="41.09671" lon="-6.754099">
        <ele>245.8</ele>
        <time>1970-01-01T03:07:56.000Z</time>
      </trkpt>
      <trkpt lat="41.096717" lon="-6.754068">
        <ele>246.2</ele>
        <time>1970-01-01T03:07:57.000Z</time>
      </trkpt>
      <trkpt lat="41.096723" lon="-6.754038">
        <ele>246.6</ele>
        <time>1970-01-01T03:07:58.000Z</time>
      </trkpt>
      <trkpt lat="41.09673" lon="-6.754007">
        <ele>246.9</ele>
        <time>1970-01-01T03:07:59.000Z</time>
      </trkpt>
      <trkpt lat="41.096738" lon="-6.753977">
        <ele>247.3</ele>
        <time>1970-01-01T03:08:00.000Z</time>
      </trkpt>
      <trkpt lat="41.096745" lon="-6.753948">
        <ele>247.7</ele>
        <time>1970-01-01T03:08:01.000Z</time>
      </trkpt>
      <trkpt lat="41.096754" lon="-6.753919">
        <ele>248</ele>
        <time>1970-01-01T03:08:02.000Z</time>
      </trkpt>
      <trkpt lat="41.096764" lon="-6.753892">
        <ele>248.4</ele>
        <time>1970-01-01T03:08:03.000Z</time>
      </trkpt>
      <trkpt lat="41.096774" lon="-6.753866">
        <ele>248.7</ele>
        <time>1970-01-01T03:08:04.000Z</time>
      </trkpt>
      <trkpt lat="41.096783" lon="-6.753842">
        <ele>249</ele>
        <time>1970-01-01T03:08:05.000Z</time>
      </trkpt>
      <trkpt lat="41.096791" lon="-6.753818">
        <ele>249.3</ele>
        <time>1970-01-01T03:08:06.000Z</time>
      </trkpt>
      <trkpt lat="41.0968" lon="-6.753794">
        <ele>249.6</ele>
        <time>1970-01-01T03:08:07.000Z</time>
      </trkpt>
      <trkpt lat="41.096808" lon="-6.753769">
        <ele>249.9</ele>
        <time>1970-01-01T03:08:08.000Z</time>
      </trkpt>
      <trkpt lat="41.096819" lon="-6.753745">
        <ele>250.1</ele>
        <time>1970-01-01T03:08:09.000Z</time>
      </trkpt>
      <trkpt lat="41.09683" lon="-6.753722">
        <ele>250.4</ele>
        <time>1970-01-01T03:08:10.000Z</time>
      </trkpt>
      <trkpt lat="41.096841" lon="-6.7537">
        <ele>250.6</ele>
        <time>1970-01-01T03:08:11.000Z</time>
      </trkpt>
      <trkpt lat="41.096852" lon="-6.753679">
        <ele>250.9</ele>
        <time>1970-01-01T03:08:12.000Z</time>
      </trkpt>
      <trkpt lat="41.096863" lon="-6.753659">
        <ele>251.1</ele>
        <time>1970-01-01T03:08:13.000Z</time>
      </trkpt>
      <trkpt lat="41.096873" lon="-6.753638">
        <ele>251.3</ele>
        <time>1970-01-01T03:08:14.000Z</time>
      </trkpt>
      <trkpt lat="41.096884" lon="-6.753617">
        <ele>251.5</ele>
        <time>1970-01-01T03:08:15.000Z</time>
      </trkpt>
      <trkpt lat="41.096896" lon="-6.753596">
        <ele>251.8</ele>
        <time>1970-01-01T03:08:16.000Z</time>
      </trkpt>
      <trkpt lat="41.09691" lon="-6.753577">
        <ele>252.1</ele>
        <time>1970-01-01T03:08:17.000Z</time>
      </trkpt>
      <trkpt lat="41.096925" lon="-6.753559">
        <ele>252.4</ele>
        <time>1970-01-01T03:08:18.000Z</time>
      </trkpt>
      <trkpt lat="41.096939" lon="-6.753542">
        <ele>252.7</ele>
        <time>1970-01-01T03:08:19.000Z</time>
      </trkpt>
      <trkpt lat="41.096954" lon="-6.753525">
        <ele>252.9</ele>
        <time>1970-01-01T03:08:20.000Z</time>
      </trkpt>
      <trkpt lat="41.096967" lon="-6.753509">
        <ele>253.2</ele>
        <time>1970-01-01T03:08:21.000Z</time>
      </trkpt>
      <trkpt lat="41.096976" lon="-6.753492">
        <ele>253.4</ele>
        <time>1970-01-01T03:08:22.000Z</time>
      </trkpt>
      <trkpt lat="41.096978" lon="-6.753476">
        <ele>253.6</ele>
        <time>1970-01-01T03:08:23.000Z</time>
      </trkpt>
      <trkpt lat="41.096977" lon="-6.75346">
        <ele>254.8</ele>
        <time>1970-01-01T03:08:24.000Z</time>
      </trkpt>
      <trkpt lat="41.096974" lon="-6.753445">
        <ele>254.8</ele>
        <time>1970-01-01T03:08:25.000Z</time>
      </trkpt>
      <trkpt lat="41.096969" lon="-6.753433">
        <ele>254.8</ele>
        <time>1970-01-01T03:08:26.000Z</time>
      </trkpt>
      <trkpt lat="41.096959" lon="-6.753425">
        <ele>254.9</ele>
        <time>1970-01-01T03:08:27.000Z</time>
      </trkpt>
      <trkpt lat="41.096945" lon="-6.753421">
        <ele>254.9</ele>
        <time>1970-01-01T03:08:28.000Z</time>
      </trkpt>
      <trkpt lat="41.096929" lon="-6.753423">
        <ele>255</ele>
        <time>1970-01-01T03:08:29.000Z</time>
      </trkpt>
      <trkpt lat="41.096916" lon="-6.753431">
        <ele>255</ele>
        <time>1970-01-01T03:08:30.000Z</time>
      </trkpt>
      <trkpt lat="41.096903" lon="-6.753443">
        <ele>255.1</ele>
        <time>1970-01-01T03:08:31.000Z</time>
      </trkpt>
      <trkpt lat="41.09689" lon="-6.753455">
        <ele>255.1</ele>
        <time>1970-01-01T03:08:32.000Z</time>
      </trkpt>
      <trkpt lat="41.096875" lon="-6.753465">
        <ele>255.2</ele>
        <time>1970-01-01T03:08:33.000Z</time>
      </trkpt>
      <trkpt lat="41.09686" lon="-6.753475">
        <ele>255.3</ele>
        <time>1970-01-01T03:08:34.000Z</time>
      </trkpt>
      <trkpt lat="41.096844" lon="-6.753484">
        <ele>255.3</ele>
        <time>1970-01-01T03:08:35.000Z</time>
      </trkpt>
      <trkpt lat="41.096829" lon="-6.753491">
        <ele>255.4</ele>
        <time>1970-01-01T03:08:36.000Z</time>
      </trkpt>
      <trkpt lat="41.096814" lon="-6.753497">
        <ele>255.4</ele>
        <time>1970-01-01T03:08:37.000Z</time>
      </trkpt>
      <trkpt lat="41.0968" lon="-6.753501">
        <ele>255.6</ele>
        <time>1970-01-01T03:08:38.000Z</time>
      </trkpt>
      <trkpt lat="41.096785" lon="-6.753504">
        <ele>255.8</ele>
        <time>1970-01-01T03:08:39.000Z</time>
      </trkpt>
      <trkpt lat="41.096771" lon="-6.753505">
        <ele>255.9</ele>
        <time>1970-01-01T03:08:40.000Z</time>
      </trkpt>
      <trkpt lat="41.096756" lon="-6.753504">
        <ele>256.1</ele>
        <time>1970-01-01T03:08:41.000Z</time>
      </trkpt>
      <trkpt lat="41.09674" lon="-6.753504">
        <ele>256.2</ele>
        <time>1970-01-01T03:08:42.000Z</time>
      </trkpt>
      <trkpt lat="41.096724" lon="-6.753504">
        <ele>256.4</ele>
        <time>1970-01-01T03:08:43.000Z</time>
      </trkpt>
      <trkpt lat="41.09671" lon="-6.753506">
        <ele>256.6</ele>
        <time>1970-01-01T03:08:44.000Z</time>
      </trkpt>
      <trkpt lat="41.096696" lon="-6.753506">
        <ele>256.7</ele>
        <time>1970-01-01T03:08:45.000Z</time>
      </trkpt>
      <trkpt lat="41.096681" lon="-6.753504">
        <ele>256.9</ele>
        <time>1970-01-01T03:08:46.000Z</time>
      </trkpt>
      <trkpt lat="41.096666" lon="-6.7535">
        <ele>257</ele>
        <time>1970-01-01T03:08:47.000Z</time>
      </trkpt>
      <trkpt lat="41.096651" lon="-6.7535">
        <ele>257.2</ele>
        <time>1970-01-01T03:08:48.000Z</time>
      </trkpt>
      <trkpt lat="41.096635" lon="-6.753499">
        <ele>257.4</ele>
        <time>1970-01-01T03:08:49.000Z</time>
      </trkpt>
      <trkpt lat="41.096619" lon="-6.753498">
        <ele>257.5</ele>
        <time>1970-01-01T03:08:50.000Z</time>
      </trkpt>
      <trkpt lat="41.096603" lon="-6.753496">
        <ele>257.7</ele>
        <time>1970-01-01T03:08:51.000Z</time>
      </trkpt>
      <trkpt lat="41.096586" lon="-6.753494">
        <ele>257.9</ele>
        <time>1970-01-01T03:08:52.000Z</time>
      </trkpt>
      <trkpt lat="41.096569" lon="-6.753492">
        <ele>258.1</ele>
        <time>1970-01-01T03:08:53.000Z</time>
      </trkpt>
      <trkpt lat="41.096552" lon="-6.75349">
        <ele>258.2</ele>
        <time>1970-01-01T03:08:54.000Z</time>
      </trkpt>
      <trkpt lat="41.096535" lon="-6.753487">
        <ele>258.4</ele>
        <time>1970-01-01T03:08:55.000Z</time>
      </trkpt>
      <trkpt lat="41.096517" lon="-6.753485">
        <ele>258.6</ele>
        <time>1970-01-01T03:08:56.000Z</time>
      </trkpt>
      <trkpt lat="41.096499" lon="-6.753484">
        <ele>258.8</ele>
        <time>1970-01-01T03:08:57.000Z</time>
      </trkpt>
      <trkpt lat="41.096482" lon="-6.753483">
        <ele>259</ele>
        <time>1970-01-01T03:08:58.000Z</time>
      </trkpt>
      <trkpt lat="41.096466" lon="-6.753484">
        <ele>259.2</ele>
        <time>1970-01-01T03:08:59.000Z</time>
      </trkpt>
      <trkpt lat="41.096449" lon="-6.753485">
        <ele>259.3</ele>
        <time>1970-01-01T03:09:00.000Z</time>
      </trkpt>
      <trkpt lat="41.096431" lon="-6.753485">
        <ele>259.5</ele>
        <time>1970-01-01T03:09:01.000Z</time>
      </trkpt>
      <trkpt lat="41.096413" lon="-6.753485">
        <ele>259.7</ele>
        <time>1970-01-01T03:09:02.000Z</time>
      </trkpt>
      <trkpt lat="41.096394" lon="-6.753484">
        <ele>259.9</ele>
        <time>1970-01-01T03:09:03.000Z</time>
      </trkpt>
      <trkpt lat="41.096376" lon="-6.753481">
        <ele>260.1</ele>
        <time>1970-01-01T03:09:04.000Z</time>
      </trkpt>
      <trkpt lat="41.096357" lon="-6.753478">
        <ele>260.3</ele>
        <time>1970-01-01T03:09:05.000Z</time>
      </trkpt>
      <trkpt lat="41.096339" lon="-6.753472">
        <ele>260.5</ele>
        <time>1970-01-01T03:09:06.000Z</time>
      </trkpt>
      <trkpt lat="41.09632" lon="-6.753467">
        <ele>260.7</ele>
        <time>1970-01-01T03:09:07.000Z</time>
      </trkpt>
      <trkpt lat="41.096302" lon="-6.753461">
        <ele>260.9</ele>
        <time>1970-01-01T03:09:08.000Z</time>
      </trkpt>
      <trkpt lat="41.096284" lon="-6.753457">
        <ele>261.1</ele>
        <time>1970-01-01T03:09:09.000Z</time>
      </trkpt>
      <trkpt lat="41.096267" lon="-6.753452">
        <ele>261.3</ele>
        <time>1970-01-01T03:09:10.000Z</time>
      </trkpt>
      <trkpt lat="41.096251" lon="-6.753443">
        <ele>261.5</ele>
        <time>1970-01-01T03:09:11.000Z</time>
      </trkpt>
      <trkpt lat="41.096234" lon="-6.753433">
        <ele>261.7</ele>
        <time>1970-01-01T03:09:12.000Z</time>
      </trkpt>
      <trkpt lat="41.096217" lon="-6.753423">
        <ele>262</ele>
        <time>1970-01-01T03:09:13.000Z</time>
      </trkpt>
      <trkpt lat="41.096201" lon="-6.753413">
        <ele>262</ele>
        <time>1970-01-01T03:09:14.000Z</time>
      </trkpt>
      <trkpt lat="41.096184" lon="-6.753403">
        <ele>262.1</ele>
        <time>1970-01-01T03:09:15.000Z</time>
      </trkpt>
      <trkpt lat="41.096168" lon="-6.753394">
        <ele>262.2</ele>
        <time>1970-01-01T03:09:16.000Z</time>
      </trkpt>
      <trkpt lat="41.096152" lon="-6.753385">
        <ele>262.3</ele>
        <time>1970-01-01T03:09:17.000Z</time>
      </trkpt>
      <trkpt lat="41.096136" lon="-6.753376">
        <ele>262.3</ele>
        <time>1970-01-01T03:09:18.000Z</time>
      </trkpt>
      <trkpt lat="41.09612" lon="-6.753367">
        <ele>262.4</ele>
        <time>1970-01-01T03:09:19.000Z</time>
      </trkpt>
      <trkpt lat="41.096103" lon="-6.753359">
        <ele>262.5</ele>
        <time>1970-01-01T03:09:20.000Z</time>
      </trkpt>
      <trkpt lat="41.096086" lon="-6.753351">
        <ele>262.6</ele>
        <time>1970-01-01T03:09:21.000Z</time>
      </trkpt>
      <trkpt lat="41.096068" lon="-6.753343">
        <ele>262.6</ele>
        <time>1970-01-01T03:09:22.000Z</time>
      </trkpt>
      <trkpt lat="41.096051" lon="-6.753335">
        <ele>262.7</ele>
        <time>1970-01-01T03:09:23.000Z</time>
      </trkpt>
      <trkpt lat="41.096035" lon="-6.753328">
        <ele>262.8</ele>
        <time>1970-01-01T03:09:24.000Z</time>
      </trkpt>
      <trkpt lat="41.096019" lon="-6.753321">
        <ele>262.8</ele>
        <time>1970-01-01T03:09:25.000Z</time>
      </trkpt>
      <trkpt lat="41.096003" lon="-6.753313">
        <ele>262.9</ele>
        <time>1970-01-01T03:09:26.000Z</time>
      </trkpt>
      <trkpt lat="41.095987" lon="-6.753306">
        <ele>263</ele>
        <time>1970-01-01T03:09:27.000Z</time>
      </trkpt>
      <trkpt lat="41.09597" lon="-6.753299">
        <ele>263.1</ele>
        <time>1970-01-01T03:09:28.000Z</time>
      </trkpt>
      <trkpt lat="41.095953" lon="-6.753292">
        <ele>263.1</ele>
        <time>1970-01-01T03:09:29.000Z</time>
      </trkpt>
      <trkpt lat="41.095935" lon="-6.753285">
        <ele>263.2</ele>
        <time>1970-01-01T03:09:30.000Z</time>
      </trkpt>
      <trkpt lat="41.095918" lon="-6.753279">
        <ele>263.3</ele>
        <time>1970-01-01T03:09:31.000Z</time>
      </trkpt>
      <trkpt lat="41.095901" lon="-6.753274">
        <ele>263.4</ele>
        <time>1970-01-01T03:09:32.000Z</time>
      </trkpt>
      <trkpt lat="41.095884" lon="-6.753269">
        <ele>263.4</ele>
        <time>1970-01-01T03:09:33.000Z</time>
      </trkpt>
      <trkpt lat="41.095867" lon="-6.753263">
        <ele>263.5</ele>
        <time>1970-01-01T03:09:34.000Z</time>
      </trkpt>
      <trkpt lat="41.095851" lon="-6.753255">
        <ele>263.6</ele>
        <time>1970-01-01T03:09:35.000Z</time>
      </trkpt>
      <trkpt lat="41.095835" lon="-6.753248">
        <ele>263.6</ele>
        <time>1970-01-01T03:09:36.000Z</time>
      </trkpt>
      <trkpt lat="41.095818" lon="-6.75324">
        <ele>263.7</ele>
        <time>1970-01-01T03:09:37.000Z</time>
      </trkpt>
      <trkpt lat="41.0958" lon="-6.753233">
        <ele>263.8</ele>
        <time>1970-01-01T03:09:38.000Z</time>
      </trkpt>
      <trkpt lat="41.095781" lon="-6.753226">
        <ele>263.9</ele>
        <time>1970-01-01T03:09:39.000Z</time>
      </trkpt>
      <trkpt lat="41.095763" lon="-6.753217">
        <ele>263.9</ele>
        <time>1970-01-01T03:09:40.000Z</time>
      </trkpt>
      <trkpt lat="41.095744" lon="-6.753207">
        <ele>264</ele>
        <time>1970-01-01T03:09:41.000Z</time>
      </trkpt>
      <trkpt lat="41.095725" lon="-6.753197">
        <ele>264.1</ele>
        <time>1970-01-01T03:09:42.000Z</time>
      </trkpt>
      <trkpt lat="41.095705" lon="-6.753186">
        <ele>264.2</ele>
        <time>1970-01-01T03:09:43.000Z</time>
      </trkpt>
      <trkpt lat="41.095685" lon="-6.753176">
        <ele>264.3</ele>
        <time>1970-01-01T03:09:44.000Z</time>
      </trkpt>
      <trkpt lat="41.095665" lon="-6.753165">
        <ele>264.4</ele>
        <time>1970-01-01T03:09:45.000Z</time>
      </trkpt>
      <trkpt lat="41.095647" lon="-6.753154">
        <ele>264.5</ele>
        <time>1970-01-01T03:09:46.000Z</time>
      </trkpt>
      <trkpt lat="41.09563" lon="-6.753143">
        <ele>264.5</ele>
        <time>1970-01-01T03:09:47.000Z</time>
      </trkpt>
      <trkpt lat="41.095612" lon="-6.75313">
        <ele>264.6</ele>
        <time>1970-01-01T03:09:48.000Z</time>
      </trkpt>
      <trkpt lat="41.095594" lon="-6.753113">
        <ele>264.7</ele>
        <time>1970-01-01T03:09:49.000Z</time>
      </trkpt>
      <trkpt lat="41.095576" lon="-6.753092">
        <ele>264.8</ele>
        <time>1970-01-01T03:09:50.000Z</time>
      </trkpt>
      <trkpt lat="41.095557" lon="-6.753068">
        <ele>264.9</ele>
        <time>1970-01-01T03:09:51.000Z</time>
      </trkpt>
      <trkpt lat="41.09554" lon="-6.753042">
        <ele>265</ele>
        <time>1970-01-01T03:09:52.000Z</time>
      </trkpt>
      <trkpt lat="41.095525" lon="-6.753017">
        <ele>265.1</ele>
        <time>1970-01-01T03:09:53.000Z</time>
      </trkpt>
      <trkpt lat="41.095513" lon="-6.75299">
        <ele>265.2</ele>
        <time>1970-01-01T03:09:54.000Z</time>
      </trkpt>
      <trkpt lat="41.095503" lon="-6.752963">
        <ele>265.3</ele>
        <time>1970-01-01T03:09:55.000Z</time>
      </trkpt>
      <trkpt lat="41.095494" lon="-6.752936">
        <ele>265.4</ele>
        <time>1970-01-01T03:09:56.000Z</time>
      </trkpt>
      <trkpt lat="41.095486" lon="-6.752909">
        <ele>265.5</ele>
        <time>1970-01-01T03:09:57.000Z</time>
      </trkpt>
      <trkpt lat="41.095479" lon="-6.752883">
        <ele>265.6</ele>
        <time>1970-01-01T03:09:58.000Z</time>
      </trkpt>
      <trkpt lat="41.095472" lon="-6.752856">
        <ele>265.7</ele>
        <time>1970-01-01T03:09:59.000Z</time>
      </trkpt>
      <trkpt lat="41.095464" lon="-6.752829">
        <ele>265.8</ele>
        <time>1970-01-01T03:10:00.000Z</time>
      </trkpt>
      <trkpt lat="41.095456" lon="-6.752801">
        <ele>265.9</ele>
        <time>1970-01-01T03:10:01.000Z</time>
      </trkpt>
      <trkpt lat="41.095448" lon="-6.752773">
        <ele>266</ele>
        <time>1970-01-01T03:10:02.000Z</time>
      </trkpt>
      <trkpt lat="41.095439" lon="-6.752745">
        <ele>266</ele>
        <time>1970-01-01T03:10:03.000Z</time>
      </trkpt>
      <trkpt lat="41.095429" lon="-6.752718">
        <ele>266.1</ele>
        <time>1970-01-01T03:10:04.000Z</time>
      </trkpt>
      <trkpt lat="41.095419" lon="-6.75269">
        <ele>266.2</ele>
        <time>1970-01-01T03:10:05.000Z</time>
      </trkpt>
      <trkpt lat="41.095408" lon="-6.752663">
        <ele>266.3</ele>
        <time>1970-01-01T03:10:06.000Z</time>
      </trkpt>
      <trkpt lat="41.095394" lon="-6.752636">
        <ele>266.4</ele>
        <time>1970-01-01T03:10:07.000Z</time>
      </trkpt>
      <trkpt lat="41.095378" lon="-6.752609">
        <ele>266.5</ele>
        <time>1970-01-01T03:10:08.000Z</time>
      </trkpt>
      <trkpt lat="41.09536" lon="-6.752584">
        <ele>266.7</ele>
        <time>1970-01-01T03:10:09.000Z</time>
      </trkpt>
      <trkpt lat="41.09534" lon="-6.752557">
        <ele>266.8</ele>
        <time>1970-01-01T03:10:10.000Z</time>
      </trkpt>
      <trkpt lat="41.095318" lon="-6.752529">
        <ele>266.9</ele>
        <time>1970-01-01T03:10:11.000Z</time>
      </trkpt>
      <trkpt lat="41.095294" lon="-6.752499">
        <ele>267</ele>
        <time>1970-01-01T03:10:12.000Z</time>
      </trkpt>
      <trkpt lat="41.095269" lon="-6.752468">
        <ele>267.2</ele>
        <time>1970-01-01T03:10:13.000Z</time>
      </trkpt>
      <trkpt lat="41.095241" lon="-6.752437">
        <ele>267.3</ele>
        <time>1970-01-01T03:10:14.000Z</time>
      </trkpt>
      <trkpt lat="41.095213" lon="-6.752404">
        <ele>267.5</ele>
        <time>1970-01-01T03:10:15.000Z</time>
      </trkpt>
      <trkpt lat="41.095184" lon="-6.752372">
        <ele>267.6</ele>
        <time>1970-01-01T03:10:16.000Z</time>
      </trkpt>
      <trkpt lat="41.095155" lon="-6.752339">
        <ele>267.8</ele>
        <time>1970-01-01T03:10:17.000Z</time>
      </trkpt>
      <trkpt lat="41.095125" lon="-6.752306">
        <ele>267.9</ele>
        <time>1970-01-01T03:10:18.000Z</time>
      </trkpt>
      <trkpt lat="41.095096" lon="-6.752274">
        <ele>268.1</ele>
        <time>1970-01-01T03:10:19.000Z</time>
      </trkpt>
      <trkpt lat="41.095067" lon="-6.752242">
        <ele>268.3</ele>
        <time>1970-01-01T03:10:20.000Z</time>
      </trkpt>
      <trkpt lat="41.095038" lon="-6.75221">
        <ele>268.4</ele>
        <time>1970-01-01T03:10:21.000Z</time>
      </trkpt>
      <trkpt lat="41.095009" lon="-6.752178">
        <ele>268.6</ele>
        <time>1970-01-01T03:10:22.000Z</time>
      </trkpt>
      <trkpt lat="41.094981" lon="-6.752146">
        <ele>268.7</ele>
        <time>1970-01-01T03:10:23.000Z</time>
      </trkpt>
      <trkpt lat="41.094953" lon="-6.752116">
        <ele>268.9</ele>
        <time>1970-01-01T03:10:24.000Z</time>
      </trkpt>
      <trkpt lat="41.094924" lon="-6.752087">
        <ele>269</ele>
        <time>1970-01-01T03:10:25.000Z</time>
      </trkpt>
      <trkpt lat="41.094893" lon="-6.752059">
        <ele>269.2</ele>
        <time>1970-01-01T03:10:26.000Z</time>
      </trkpt>
      <trkpt lat="41.094863" lon="-6.75203">
        <ele>269.3</ele>
        <time>1970-01-01T03:10:27.000Z</time>
      </trkpt>
      <trkpt lat="41.094833" lon="-6.752">
        <ele>269.5</ele>
        <time>1970-01-01T03:10:28.000Z</time>
      </trkpt>
      <trkpt lat="41.094805" lon="-6.75197">
        <ele>269.6</ele>
        <time>1970-01-01T03:10:29.000Z</time>
      </trkpt>
      <trkpt lat="41.094778" lon="-6.75194">
        <ele>269.8</ele>
        <time>1970-01-01T03:10:30.000Z</time>
      </trkpt>
      <trkpt lat="41.094752" lon="-6.75191">
        <ele>269.9</ele>
        <time>1970-01-01T03:10:31.000Z</time>
      </trkpt>
      <trkpt lat="41.094728" lon="-6.75188">
        <ele>270.1</ele>
        <time>1970-01-01T03:10:32.000Z</time>
      </trkpt>
      <trkpt lat="41.094706" lon="-6.751849">
        <ele>270.2</ele>
        <time>1970-01-01T03:10:33.000Z</time>
      </trkpt>
      <trkpt lat="41.094685" lon="-6.751817">
        <ele>270.3</ele>
        <time>1970-01-01T03:10:34.000Z</time>
      </trkpt>
      <trkpt lat="41.094665" lon="-6.751785">
        <ele>270.4</ele>
        <time>1970-01-01T03:10:35.000Z</time>
      </trkpt>
      <trkpt lat="41.094646" lon="-6.751752">
        <ele>270.6</ele>
        <time>1970-01-01T03:10:36.000Z</time>
      </trkpt>
      <trkpt lat="41.094628" lon="-6.751721">
        <ele>270.7</ele>
        <time>1970-01-01T03:10:37.000Z</time>
      </trkpt>
      <trkpt lat="41.094612" lon="-6.751689">
        <ele>270.8</ele>
        <time>1970-01-01T03:10:38.000Z</time>
      </trkpt>
      <trkpt lat="41.094595" lon="-6.751655">
        <ele>270.9</ele>
        <time>1970-01-01T03:10:39.000Z</time>
      </trkpt>
      <trkpt lat="41.094579" lon="-6.751619">
        <ele>271.1</ele>
        <time>1970-01-01T03:10:40.000Z</time>
      </trkpt>
      <trkpt lat="41.094561" lon="-6.751584">
        <ele>271.2</ele>
        <time>1970-01-01T03:10:41.000Z</time>
      </trkpt>
      <trkpt lat="41.094544" lon="-6.75155">
        <ele>271.3</ele>
        <time>1970-01-01T03:10:42.000Z</time>
      </trkpt>
      <trkpt lat="41.094528" lon="-6.751516">
        <ele>271.5</ele>
        <time>1970-01-01T03:10:43.000Z</time>
      </trkpt>
      <trkpt lat="41.094511" lon="-6.751482">
        <ele>271.6</ele>
        <time>1970-01-01T03:10:44.000Z</time>
      </trkpt>
      <trkpt lat="41.094496" lon="-6.751446">
        <ele>271.7</ele>
        <time>1970-01-01T03:10:45.000Z</time>
      </trkpt>
      <trkpt lat="41.094482" lon="-6.751411">
        <ele>271.8</ele>
        <time>1970-01-01T03:10:46.000Z</time>
      </trkpt>
      <trkpt lat="41.094469" lon="-6.751378">
        <ele>272</ele>
        <time>1970-01-01T03:10:47.000Z</time>
      </trkpt>
      <trkpt lat="41.094455" lon="-6.751345">
        <ele>272.1</ele>
        <time>1970-01-01T03:10:48.000Z</time>
      </trkpt>
      <trkpt lat="41.094443" lon="-6.751313">
        <ele>272.2</ele>
        <time>1970-01-01T03:10:49.000Z</time>
      </trkpt>
      <trkpt lat="41.094431" lon="-6.751282">
        <ele>272.3</ele>
        <time>1970-01-01T03:10:50.000Z</time>
      </trkpt>
      <trkpt lat="41.094421" lon="-6.751252">
        <ele>272.4</ele>
        <time>1970-01-01T03:10:51.000Z</time>
      </trkpt>
      <trkpt lat="41.094411" lon="-6.751223">
        <ele>272.5</ele>
        <time>1970-01-01T03:10:52.000Z</time>
      </trkpt>
      <trkpt lat="41.094402" lon="-6.751194">
        <ele>272.6</ele>
        <time>1970-01-01T03:10:53.000Z</time>
      </trkpt>
      <trkpt lat="41.094393" lon="-6.751166">
        <ele>272.7</ele>
        <time>1970-01-01T03:10:54.000Z</time>
      </trkpt>
      <trkpt lat="41.094384" lon="-6.751139">
        <ele>272.8</ele>
        <time>1970-01-01T03:10:55.000Z</time>
      </trkpt>
      <trkpt lat="41.094378" lon="-6.751112">
        <ele>272.9</ele>
        <time>1970-01-01T03:10:56.000Z</time>
      </trkpt>
      <trkpt lat="41.094375" lon="-6.751084">
        <ele>272.9</ele>
        <time>1970-01-01T03:10:57.000Z</time>
      </trkpt>
      <trkpt lat="41.094373" lon="-6.751056">
        <ele>273</ele>
        <time>1970-01-01T03:10:58.000Z</time>
      </trkpt>
      <trkpt lat="41.094371" lon="-6.751028">
        <ele>273.1</ele>
        <time>1970-01-01T03:10:59.000Z</time>
      </trkpt>
      <trkpt lat="41.09437" lon="-6.751001">
        <ele>273.2</ele>
        <time>1970-01-01T03:11:00.000Z</time>
      </trkpt>
      <trkpt lat="41.094371" lon="-6.750974">
        <ele>273.3</ele>
        <time>1970-01-01T03:11:01.000Z</time>
      </trkpt>
      <trkpt lat="41.094373" lon="-6.750947">
        <ele>273.4</ele>
        <time>1970-01-01T03:11:02.000Z</time>
      </trkpt>
      <trkpt lat="41.094377" lon="-6.750922">
        <ele>273.5</ele>
        <time>1970-01-01T03:11:03.000Z</time>
      </trkpt>
      <trkpt lat="41.09438" lon="-6.750896">
        <ele>273.5</ele>
        <time>1970-01-01T03:11:04.000Z</time>
      </trkpt>
      <trkpt lat="41.094384" lon="-6.750869">
        <ele>273.6</ele>
        <time>1970-01-01T03:11:05.000Z</time>
      </trkpt>
      <trkpt lat="41.094388" lon="-6.750843">
        <ele>273.7</ele>
        <time>1970-01-01T03:11:06.000Z</time>
      </trkpt>
      <trkpt lat="41.09439" lon="-6.750816">
        <ele>273.8</ele>
        <time>1970-01-01T03:11:07.000Z</time>
      </trkpt>
      <trkpt lat="41.09439" lon="-6.75079">
        <ele>273.9</ele>
        <time>1970-01-01T03:11:08.000Z</time>
      </trkpt>
      <trkpt lat="41.094388" lon="-6.750764">
        <ele>273.9</ele>
        <time>1970-01-01T03:11:09.000Z</time>
      </trkpt>
      <trkpt lat="41.094385" lon="-6.750739">
        <ele>274</ele>
        <time>1970-01-01T03:11:10.000Z</time>
      </trkpt>
      <trkpt lat="41.09438" lon="-6.750714">
        <ele>274.1</ele>
        <time>1970-01-01T03:11:11.000Z</time>
      </trkpt>
      <trkpt lat="41.094372" lon="-6.750688">
        <ele>274.2</ele>
        <time>1970-01-01T03:11:12.000Z</time>
      </trkpt>
      <trkpt lat="41.094363" lon="-6.750663">
        <ele>274.3</ele>
        <time>1970-01-01T03:11:13.000Z</time>
      </trkpt>
      <trkpt lat="41.094352" lon="-6.75064">
        <ele>274.4</ele>
        <time>1970-01-01T03:11:14.000Z</time>
      </trkpt>
      <trkpt lat="41.094336" lon="-6.75062">
        <ele>274.5</ele>
        <time>1970-01-01T03:11:15.000Z</time>
      </trkpt>
      <trkpt lat="41.094316" lon="-6.750602">
        <ele>274.6</ele>
        <time>1970-01-01T03:11:16.000Z</time>
      </trkpt>
      <trkpt lat="41.094295" lon="-6.750587">
        <ele>274.7</ele>
        <time>1970-01-01T03:11:17.000Z</time>
      </trkpt>
      <trkpt lat="41.094274" lon="-6.750574">
        <ele>274.8</ele>
        <time>1970-01-01T03:11:18.000Z</time>
      </trkpt>
      <trkpt lat="41.094251" lon="-6.750566">
        <ele>274.8</ele>
        <time>1970-01-01T03:11:19.000Z</time>
      </trkpt>
      <trkpt lat="41.094227" lon="-6.750562">
        <ele>274.9</ele>
        <time>1970-01-01T03:11:20.000Z</time>
      </trkpt>
      <trkpt lat="41.094203" lon="-6.750562">
        <ele>275</ele>
        <time>1970-01-01T03:11:21.000Z</time>
      </trkpt>
      <trkpt lat="41.094177" lon="-6.750565">
        <ele>275.2</ele>
        <time>1970-01-01T03:11:22.000Z</time>
      </trkpt>
      <trkpt lat="41.09415" lon="-6.750568">
        <ele>275.3</ele>
        <time>1970-01-01T03:11:23.000Z</time>
      </trkpt>
      <trkpt lat="41.094123" lon="-6.75057">
        <ele>275.4</ele>
        <time>1970-01-01T03:11:24.000Z</time>
      </trkpt>
      <trkpt lat="41.094097" lon="-6.750571">
        <ele>275.5</ele>
        <time>1970-01-01T03:11:25.000Z</time>
      </trkpt>
      <trkpt lat="41.094071" lon="-6.75057">
        <ele>275.6</ele>
        <time>1970-01-01T03:11:26.000Z</time>
      </trkpt>
      <trkpt lat="41.094044" lon="-6.750567">
        <ele>275.7</ele>
        <time>1970-01-01T03:11:27.000Z</time>
      </trkpt>
      <trkpt lat="41.094018" lon="-6.75056">
        <ele>275.8</ele>
        <time>1970-01-01T03:11:28.000Z</time>
      </trkpt>
      <trkpt lat="41.093993" lon="-6.750552">
        <ele>275.9</ele>
        <time>1970-01-01T03:11:29.000Z</time>
      </trkpt>
      <trkpt lat="41.093968" lon="-6.750542">
        <ele>276</ele>
        <time>1970-01-01T03:11:30.000Z</time>
      </trkpt>
      <trkpt lat="41.093943" lon="-6.750529">
        <ele>276.1</ele>
        <time>1970-01-01T03:11:31.000Z</time>
      </trkpt>
      <trkpt lat="41.093918" lon="-6.750514">
        <ele>276.3</ele>
        <time>1970-01-01T03:11:32.000Z</time>
      </trkpt>
      <trkpt lat="41.093894" lon="-6.750499">
        <ele>276.4</ele>
        <time>1970-01-01T03:11:33.000Z</time>
      </trkpt>
      <trkpt lat="41.09387" lon="-6.750484">
        <ele>276.5</ele>
        <time>1970-01-01T03:11:34.000Z</time>
      </trkpt>
      <trkpt lat="41.093847" lon="-6.750471">
        <ele>276.6</ele>
        <time>1970-01-01T03:11:35.000Z</time>
      </trkpt>
      <trkpt lat="41.093823" lon="-6.750458">
        <ele>276.7</ele>
        <time>1970-01-01T03:11:36.000Z</time>
      </trkpt>
      <trkpt lat="41.093798" lon="-6.750444">
        <ele>276.8</ele>
        <time>1970-01-01T03:11:37.000Z</time>
      </trkpt>
      <trkpt lat="41.093772" lon="-6.750431">
        <ele>276.9</ele>
        <time>1970-01-01T03:11:38.000Z</time>
      </trkpt>
      <trkpt lat="41.093746" lon="-6.750418">
        <ele>277</ele>
        <time>1970-01-01T03:11:39.000Z</time>
      </trkpt>
      <trkpt lat="41.093721" lon="-6.750403">
        <ele>277.1</ele>
        <time>1970-01-01T03:11:40.000Z</time>
      </trkpt>
      <trkpt lat="41.093695" lon="-6.750385">
        <ele>277.3</ele>
        <time>1970-01-01T03:11:41.000Z</time>
      </trkpt>
      <trkpt lat="41.093671" lon="-6.750365">
        <ele>277.4</ele>
        <time>1970-01-01T03:11:42.000Z</time>
      </trkpt>
      <trkpt lat="41.093647" lon="-6.750343">
        <ele>277.5</ele>
        <time>1970-01-01T03:11:43.000Z</time>
      </trkpt>
      <trkpt lat="41.093625" lon="-6.750319">
        <ele>277.6</ele>
        <time>1970-01-01T03:11:44.000Z</time>
      </trkpt>
      <trkpt lat="41.093604" lon="-6.750295">
        <ele>277.7</ele>
        <time>1970-01-01T03:11:45.000Z</time>
      </trkpt>
      <trkpt lat="41.093585" lon="-6.75027">
        <ele>277.8</ele>
        <time>1970-01-01T03:11:46.000Z</time>
      </trkpt>
      <trkpt lat="41.093566" lon="-6.750245">
        <ele>277.9</ele>
        <time>1970-01-01T03:11:47.000Z</time>
      </trkpt>
      <trkpt lat="41.093548" lon="-6.750218">
        <ele>278.1</ele>
        <time>1970-01-01T03:11:48.000Z</time>
      </trkpt>
      <trkpt lat="41.093532" lon="-6.75019">
        <ele>278.2</ele>
        <time>1970-01-01T03:11:49.000Z</time>
      </trkpt>
      <trkpt lat="41.093516" lon="-6.75016">
        <ele>278.3</ele>
        <time>1970-01-01T03:11:50.000Z</time>
      </trkpt>
      <trkpt lat="41.0935" lon="-6.75013">
        <ele>278.4</ele>
        <time>1970-01-01T03:11:51.000Z</time>
      </trkpt>
      <trkpt lat="41.093484" lon="-6.750101">
        <ele>278.5</ele>
        <time>1970-01-01T03:11:52.000Z</time>
      </trkpt>
      <trkpt lat="41.093469" lon="-6.750072">
        <ele>278.6</ele>
        <time>1970-01-01T03:11:53.000Z</time>
      </trkpt>
      <trkpt lat="41.093453" lon="-6.750045">
        <ele>278.7</ele>
        <time>1970-01-01T03:11:54.000Z</time>
      </trkpt>
      <trkpt lat="41.093436" lon="-6.750019">
        <ele>278.8</ele>
        <time>1970-01-01T03:11:55.000Z</time>
      </trkpt>
      <trkpt lat="41.09342" lon="-6.749993">
        <ele>278.9</ele>
        <time>1970-01-01T03:11:56.000Z</time>
      </trkpt>
      <trkpt lat="41.093403" lon="-6.749967">
        <ele>279</ele>
        <time>1970-01-01T03:11:57.000Z</time>
      </trkpt>
      <trkpt lat="41.093387" lon="-6.749941">
        <ele>279.1</ele>
        <time>1970-01-01T03:11:58.000Z</time>
      </trkpt>
      <trkpt lat="41.093371" lon="-6.749915">
        <ele>279.2</ele>
        <time>1970-01-01T03:11:59.000Z</time>
      </trkpt>
      <trkpt lat="41.093354" lon="-6.74989">
        <ele>279.4</ele>
        <time>1970-01-01T03:12:00.000Z</time>
      </trkpt>
      <trkpt lat="41.093337" lon="-6.749865">
        <ele>279.5</ele>
        <time>1970-01-01T03:12:01.000Z</time>
      </trkpt>
      <trkpt lat="41.093318" lon="-6.749844">
        <ele>279.6</ele>
        <time>1970-01-01T03:12:02.000Z</time>
      </trkpt>
      <trkpt lat="41.093298" lon="-6.749826">
        <ele>279.7</ele>
        <time>1970-01-01T03:12:03.000Z</time>
      </trkpt>
      <trkpt lat="41.093278" lon="-6.74981">
        <ele>279.8</ele>
        <time>1970-01-01T03:12:04.000Z</time>
      </trkpt>
      <trkpt lat="41.093257" lon="-6.749796">
        <ele>279.8</ele>
        <time>1970-01-01T03:12:05.000Z</time>
      </trkpt>
      <trkpt lat="41.093234" lon="-6.749786">
        <ele>279.9</ele>
        <time>1970-01-01T03:12:06.000Z</time>
      </trkpt>
      <trkpt lat="41.09321" lon="-6.749785">
        <ele>280</ele>
        <time>1970-01-01T03:12:07.000Z</time>
      </trkpt>
      <trkpt lat="41.093187" lon="-6.749792">
        <ele>280.1</ele>
        <time>1970-01-01T03:12:08.000Z</time>
      </trkpt>
      <trkpt lat="41.093165" lon="-6.749804">
        <ele>280.2</ele>
        <time>1970-01-01T03:12:09.000Z</time>
      </trkpt>
      <trkpt lat="41.093147" lon="-6.749818">
        <ele>280.3</ele>
        <time>1970-01-01T03:12:10.000Z</time>
      </trkpt>
      <trkpt lat="41.09313" lon="-6.749833">
        <ele>280.4</ele>
        <time>1970-01-01T03:12:11.000Z</time>
      </trkpt>
      <trkpt lat="41.093115" lon="-6.74985">
        <ele>280.5</ele>
        <time>1970-01-01T03:12:12.000Z</time>
      </trkpt>
      <trkpt lat="41.093101" lon="-6.749867">
        <ele>280.6</ele>
        <time>1970-01-01T03:12:13.000Z</time>
      </trkpt>
      <trkpt lat="41.093087" lon="-6.749883">
        <ele>280.6</ele>
        <time>1970-01-01T03:12:14.000Z</time>
      </trkpt>
      <trkpt lat="41.093073" lon="-6.749899">
        <ele>280.7</ele>
        <time>1970-01-01T03:12:15.000Z</time>
      </trkpt>
      <trkpt lat="41.093059" lon="-6.749915">
        <ele>280.8</ele>
        <time>1970-01-01T03:12:16.000Z</time>
      </trkpt>
      <trkpt lat="41.093045" lon="-6.74993">
        <ele>280.9</ele>
        <time>1970-01-01T03:12:17.000Z</time>
      </trkpt>
      <trkpt lat="41.093032" lon="-6.749945">
        <ele>280.9</ele>
        <time>1970-01-01T03:12:18.000Z</time>
      </trkpt>
      <trkpt lat="41.093018" lon="-6.74996">
        <ele>281</ele>
        <time>1970-01-01T03:12:19.000Z</time>
      </trkpt>
      <trkpt lat="41.093004" lon="-6.749974">
        <ele>281.1</ele>
        <time>1970-01-01T03:12:20.000Z</time>
      </trkpt>
      <trkpt lat="41.09299" lon="-6.749988">
        <ele>281.2</ele>
        <time>1970-01-01T03:12:21.000Z</time>
      </trkpt>
      <trkpt lat="41.092974" lon="-6.749999">
        <ele>281.2</ele>
        <time>1970-01-01T03:12:22.000Z</time>
      </trkpt>
      <trkpt lat="41.092959" lon="-6.750011">
        <ele>281.3</ele>
        <time>1970-01-01T03:12:23.000Z</time>
      </trkpt>
      <trkpt lat="41.092945" lon="-6.75002">
        <ele>281.4</ele>
        <time>1970-01-01T03:12:24.000Z</time>
      </trkpt>
      <trkpt lat="41.092931" lon="-6.750028">
        <ele>281.4</ele>
        <time>1970-01-01T03:12:25.000Z</time>
      </trkpt>
      <trkpt lat="41.092915" lon="-6.750035">
        <ele>281.5</ele>
        <time>1970-01-01T03:12:26.000Z</time>
      </trkpt>
      <trkpt lat="41.092899" lon="-6.750041">
        <ele>281.6</ele>
        <time>1970-01-01T03:12:27.000Z</time>
      </trkpt>
      <trkpt lat="41.092882" lon="-6.750047">
        <ele>281.6</ele>
        <time>1970-01-01T03:12:28.000Z</time>
      </trkpt>
      <trkpt lat="41.092865" lon="-6.750049">
        <ele>281.7</ele>
        <time>1970-01-01T03:12:29.000Z</time>
      </trkpt>
      <trkpt lat="41.092847" lon="-6.750051">
        <ele>281.8</ele>
        <time>1970-01-01T03:12:30.000Z</time>
      </trkpt>
      <trkpt lat="41.092828" lon="-6.750051">
        <ele>281.9</ele>
        <time>1970-01-01T03:12:31.000Z</time>
      </trkpt>
      <trkpt lat="41.09281" lon="-6.75005">
        <ele>281.9</ele>
        <time>1970-01-01T03:12:32.000Z</time>
      </trkpt>
      <trkpt lat="41.092791" lon="-6.750047">
        <ele>282</ele>
        <time>1970-01-01T03:12:33.000Z</time>
      </trkpt>
      <trkpt lat="41.092771" lon="-6.750043">
        <ele>282.1</ele>
        <time>1970-01-01T03:12:34.000Z</time>
      </trkpt>
      <trkpt lat="41.092751" lon="-6.75004">
        <ele>282.2</ele>
        <time>1970-01-01T03:12:35.000Z</time>
      </trkpt>
      <trkpt lat="41.092732" lon="-6.750038">
        <ele>282.3</ele>
        <time>1970-01-01T03:12:36.000Z</time>
      </trkpt>
      <trkpt lat="41.092712" lon="-6.750036">
        <ele>282.4</ele>
        <time>1970-01-01T03:12:37.000Z</time>
      </trkpt>
      <trkpt lat="41.092691" lon="-6.750035">
        <ele>282.4</ele>
        <time>1970-01-01T03:12:38.000Z</time>
      </trkpt>
      <trkpt lat="41.092671" lon="-6.750034">
        <ele>282.5</ele>
        <time>1970-01-01T03:12:39.000Z</time>
      </trkpt>
      <trkpt lat="41.09265" lon="-6.750033">
        <ele>282.6</ele>
        <time>1970-01-01T03:12:40.000Z</time>
      </trkpt>
      <trkpt lat="41.092628" lon="-6.750032">
        <ele>282.7</ele>
        <time>1970-01-01T03:12:41.000Z</time>
      </trkpt>
      <trkpt lat="41.092606" lon="-6.750031">
        <ele>282.8</ele>
        <time>1970-01-01T03:12:42.000Z</time>
      </trkpt>
      <trkpt lat="41.092584" lon="-6.75003">
        <ele>282.9</ele>
        <time>1970-01-01T03:12:43.000Z</time>
      </trkpt>
      <trkpt lat="41.092564" lon="-6.750028">
        <ele>283</ele>
        <time>1970-01-01T03:12:44.000Z</time>
      </trkpt>
      <trkpt lat="41.092542" lon="-6.750028">
        <ele>283.1</ele>
        <time>1970-01-01T03:12:45.000Z</time>
      </trkpt>
      <trkpt lat="41.09252" lon="-6.750028">
        <ele>283.1</ele>
        <time>1970-01-01T03:12:46.000Z</time>
      </trkpt>
      <trkpt lat="41.092497" lon="-6.750028">
        <ele>283.2</ele>
        <time>1970-01-01T03:12:47.000Z</time>
      </trkpt>
      <trkpt lat="41.092475" lon="-6.750026">
        <ele>283.3</ele>
        <time>1970-01-01T03:12:48.000Z</time>
      </trkpt>
      <trkpt lat="41.092453" lon="-6.750021">
        <ele>283.4</ele>
        <time>1970-01-01T03:12:49.000Z</time>
      </trkpt>
      <trkpt lat="41.092433" lon="-6.750014">
        <ele>283.5</ele>
        <time>1970-01-01T03:12:50.000Z</time>
      </trkpt>
      <trkpt lat="41.092413" lon="-6.750004">
        <ele>283.6</ele>
        <time>1970-01-01T03:12:51.000Z</time>
      </trkpt>
      <trkpt lat="41.092392" lon="-6.749994">
        <ele>283.7</ele>
        <time>1970-01-01T03:12:52.000Z</time>
      </trkpt>
      <trkpt lat="41.092373" lon="-6.749982">
        <ele>283.8</ele>
        <time>1970-01-01T03:12:53.000Z</time>
      </trkpt>
      <trkpt lat="41.092353" lon="-6.74997">
        <ele>283.9</ele>
        <time>1970-01-01T03:12:54.000Z</time>
      </trkpt>
      <trkpt lat="41.092335" lon="-6.749957">
        <ele>283.9</ele>
        <time>1970-01-01T03:12:55.000Z</time>
      </trkpt>
      <trkpt lat="41.092315" lon="-6.749943">
        <ele>284</ele>
        <time>1970-01-01T03:12:56.000Z</time>
      </trkpt>
      <trkpt lat="41.092296" lon="-6.749927">
        <ele>284.1</ele>
        <time>1970-01-01T03:12:57.000Z</time>
      </trkpt>
      <trkpt lat="41.092275" lon="-6.749909">
        <ele>284.2</ele>
        <time>1970-01-01T03:12:58.000Z</time>
      </trkpt>
      <trkpt lat="41.092255" lon="-6.749891">
        <ele>284.3</ele>
        <time>1970-01-01T03:12:59.000Z</time>
      </trkpt>
      <trkpt lat="41.092233" lon="-6.749876">
        <ele>284.4</ele>
        <time>1970-01-01T03:13:00.000Z</time>
      </trkpt>
      <trkpt lat="41.09221" lon="-6.749862">
        <ele>284.5</ele>
        <time>1970-01-01T03:13:01.000Z</time>
      </trkpt>
      <trkpt lat="41.092185" lon="-6.74985">
        <ele>284.7</ele>
        <time>1970-01-01T03:13:02.000Z</time>
      </trkpt>
      <trkpt lat="41.09216" lon="-6.74984">
        <ele>284.8</ele>
        <time>1970-01-01T03:13:03.000Z</time>
      </trkpt>
      <trkpt lat="41.092135" lon="-6.749832">
        <ele>284.9</ele>
        <time>1970-01-01T03:13:04.000Z</time>
      </trkpt>
      <trkpt lat="41.092112" lon="-6.749827">
        <ele>285</ele>
        <time>1970-01-01T03:13:05.000Z</time>
      </trkpt>
      <trkpt lat="41.092089" lon="-6.749824">
        <ele>285.1</ele>
        <time>1970-01-01T03:13:06.000Z</time>
      </trkpt>
      <trkpt lat="41.092065" lon="-6.749823">
        <ele>285.2</ele>
        <time>1970-01-01T03:13:07.000Z</time>
      </trkpt>
      <trkpt lat="41.09204" lon="-6.749821">
        <ele>285.3</ele>
        <time>1970-01-01T03:13:08.000Z</time>
      </trkpt>
      <trkpt lat="41.092015" lon="-6.749819">
        <ele>285.4</ele>
        <time>1970-01-01T03:13:09.000Z</time>
      </trkpt>
      <trkpt lat="41.09199" lon="-6.749818">
        <ele>285.5</ele>
        <time>1970-01-01T03:13:10.000Z</time>
      </trkpt>
      <trkpt lat="41.091965" lon="-6.749817">
        <ele>285.6</ele>
        <time>1970-01-01T03:13:11.000Z</time>
      </trkpt>
      <trkpt lat="41.09194" lon="-6.749813">
        <ele>285.7</ele>
        <time>1970-01-01T03:13:12.000Z</time>
      </trkpt>
      <trkpt lat="41.091916" lon="-6.749808">
        <ele>285.8</ele>
        <time>1970-01-01T03:13:13.000Z</time>
      </trkpt>
      <trkpt lat="41.09189" lon="-6.749802">
        <ele>285.9</ele>
        <time>1970-01-01T03:13:14.000Z</time>
      </trkpt>
      <trkpt lat="41.091864" lon="-6.749798">
        <ele>286</ele>
        <time>1970-01-01T03:13:15.000Z</time>
      </trkpt>
      <trkpt lat="41.091837" lon="-6.749797">
        <ele>286.1</ele>
        <time>1970-01-01T03:13:16.000Z</time>
      </trkpt>
      <trkpt lat="41.091809" lon="-6.749798">
        <ele>286.2</ele>
        <time>1970-01-01T03:13:17.000Z</time>
      </trkpt>
      <trkpt lat="41.091779" lon="-6.749801">
        <ele>286.3</ele>
        <time>1970-01-01T03:13:18.000Z</time>
      </trkpt>
      <trkpt lat="41.091746" lon="-6.749808">
        <ele>286.5</ele>
        <time>1970-01-01T03:13:19.000Z</time>
      </trkpt>
      <trkpt lat="41.091708" lon="-6.749814">
        <ele>286.6</ele>
        <time>1970-01-01T03:13:20.000Z</time>
      </trkpt>
      <trkpt lat="41.091667" lon="-6.749813">
        <ele>286.8</ele>
        <time>1970-01-01T03:13:21.000Z</time>
      </trkpt>
      <trkpt lat="41.091627" lon="-6.749801">
        <ele>287</ele>
        <time>1970-01-01T03:13:22.000Z</time>
      </trkpt>
      <trkpt lat="41.091593" lon="-6.749778">
        <ele>287.1</ele>
        <time>1970-01-01T03:13:23.000Z</time>
      </trkpt>
      <trkpt lat="41.091566" lon="-6.74975">
        <ele>287.3</ele>
        <time>1970-01-01T03:13:24.000Z</time>
      </trkpt>
      <trkpt lat="41.091544" lon="-6.749721">
        <ele>288.6</ele>
        <time>1970-01-01T03:13:25.000Z</time>
      </trkpt>
      <trkpt lat="41.091528" lon="-6.749696">
        <ele>288.6</ele>
        <time>1970-01-01T03:13:26.000Z</time>
      </trkpt>
      <trkpt lat="41.091514" lon="-6.749671">
        <ele>289.9</ele>
        <time>1970-01-01T03:13:27.000Z</time>
      </trkpt>
      <trkpt lat="41.091502" lon="-6.749646">
        <ele>289.9</ele>
        <time>1970-01-01T03:13:28.000Z</time>
      </trkpt>
      <trkpt lat="41.091489" lon="-6.749621">
        <ele>291.1</ele>
        <time>1970-01-01T03:13:29.000Z</time>
      </trkpt>
      <trkpt lat="41.091476" lon="-6.749598">
        <ele>291</ele>
        <time>1970-01-01T03:13:30.000Z</time>
      </trkpt>
      <trkpt lat="41.091463" lon="-6.749574">
        <ele>292.2</ele>
        <time>1970-01-01T03:13:31.000Z</time>
      </trkpt>
      <trkpt lat="41.091451" lon="-6.749549">
        <ele>293.4</ele>
        <time>1970-01-01T03:13:32.000Z</time>
      </trkpt>
      <trkpt lat="41.091438" lon="-6.749524">
        <ele>293.4</ele>
        <time>1970-01-01T03:13:33.000Z</time>
      </trkpt>
      <trkpt lat="41.091424" lon="-6.7495">
        <ele>294.5</ele>
        <time>1970-01-01T03:13:34.000Z</time>
      </trkpt>
      <trkpt lat="41.09141" lon="-6.749478">
        <ele>294.5</ele>
        <time>1970-01-01T03:13:35.000Z</time>
      </trkpt>
      <trkpt lat="41.091395" lon="-6.749458">
        <ele>295.6</ele>
        <time>1970-01-01T03:13:36.000Z</time>
      </trkpt>
      <trkpt lat="41.09138" lon="-6.749437">
        <ele>295.7</ele>
        <time>1970-01-01T03:13:37.000Z</time>
      </trkpt>
      <trkpt lat="41.091364" lon="-6.749417">
        <ele>296.9</ele>
        <time>1970-01-01T03:13:38.000Z</time>
      </trkpt>
      <trkpt lat="41.091348" lon="-6.749397">
        <ele>297</ele>
        <time>1970-01-01T03:13:39.000Z</time>
      </trkpt>
      <trkpt lat="41.091332" lon="-6.749377">
        <ele>298.2</ele>
        <time>1970-01-01T03:13:40.000Z</time>
      </trkpt>
      <trkpt lat="41.091316" lon="-6.749357">
        <ele>298.3</ele>
        <time>1970-01-01T03:13:41.000Z</time>
      </trkpt>
      <trkpt lat="41.091301" lon="-6.749337">
        <ele>299.5</ele>
        <time>1970-01-01T03:13:42.000Z</time>
      </trkpt>
      <trkpt lat="41.091283" lon="-6.749318">
        <ele>299.6</ele>
        <time>1970-01-01T03:13:43.000Z</time>
      </trkpt>
      <trkpt lat="41.091264" lon="-6.749303">
        <ele>299.6</ele>
        <time>1970-01-01T03:13:44.000Z</time>
      </trkpt>
      <trkpt lat="41.091242" lon="-6.749292">
        <ele>300.9</ele>
        <time>1970-01-01T03:13:45.000Z</time>
      </trkpt>
      <trkpt lat="41.09122" lon="-6.749286">
        <ele>301.2</ele>
        <time>1970-01-01T03:13:46.000Z</time>
      </trkpt>
      <trkpt lat="41.091199" lon="-6.749283">
        <ele>301.2</ele>
        <time>1970-01-01T03:13:47.000Z</time>
      </trkpt>
      <trkpt lat="41.091178" lon="-6.749284">
        <ele>301.4</ele>
        <time>1970-01-01T03:13:48.000Z</time>
      </trkpt>
      <trkpt lat="41.09116" lon="-6.749289">
        <ele>301.4</ele>
        <time>1970-01-01T03:13:49.000Z</time>
      </trkpt>
      <trkpt lat="41.091143" lon="-6.749299">
        <ele>300.8</ele>
        <time>1970-01-01T03:13:50.000Z</time>
      </trkpt>
      <trkpt lat="41.091128" lon="-6.749313">
        <ele>300.8</ele>
        <time>1970-01-01T03:13:51.000Z</time>
      </trkpt>
      <trkpt lat="41.091112" lon="-6.74933">
        <ele>301.3</ele>
        <time>1970-01-01T03:13:52.000Z</time>
      </trkpt>
      <trkpt lat="41.091096" lon="-6.74935">
        <ele>300.3</ele>
        <time>1970-01-01T03:13:53.000Z</time>
      </trkpt>
      <trkpt lat="41.091081" lon="-6.74937">
        <ele>300.8</ele>
        <time>1970-01-01T03:13:54.000Z</time>
      </trkpt>
      <trkpt lat="41.091067" lon="-6.749392">
        <ele>299.9</ele>
        <time>1970-01-01T03:13:55.000Z</time>
      </trkpt>
      <trkpt lat="41.091055" lon="-6.749415">
        <ele>300.4</ele>
        <time>1970-01-01T03:13:56.000Z</time>
      </trkpt>
      <trkpt lat="41.091043" lon="-6.749439">
        <ele>299.5</ele>
        <time>1970-01-01T03:13:57.000Z</time>
      </trkpt>
      <trkpt lat="41.091032" lon="-6.749463">
        <ele>299.5</ele>
        <time>1970-01-01T03:13:58.000Z</time>
      </trkpt>
      <trkpt lat="41.091022" lon="-6.749488">
        <ele>299.2</ele>
        <time>1970-01-01T03:13:59.000Z</time>
      </trkpt>
      <trkpt lat="41.091014" lon="-6.749513">
        <ele>298.3</ele>
        <time>1970-01-01T03:14:00.000Z</time>
      </trkpt>
      <trkpt lat="41.091007" lon="-6.749538">
        <ele>298.3</ele>
        <time>1970-01-01T03:14:01.000Z</time>
      </trkpt>
      <trkpt lat="41.091001" lon="-6.749563">
        <ele>297.4</ele>
        <time>1970-01-01T03:14:02.000Z</time>
      </trkpt>
      <trkpt lat="41.090995" lon="-6.749588">
        <ele>298.1</ele>
        <time>1970-01-01T03:14:03.000Z</time>
      </trkpt>
      <trkpt lat="41.090989" lon="-6.749613">
        <ele>297.1</ele>
        <time>1970-01-01T03:14:04.000Z</time>
      </trkpt>
      <trkpt lat="41.090982" lon="-6.749636">
        <ele>297.2</ele>
        <time>1970-01-01T03:14:05.000Z</time>
      </trkpt>
      <trkpt lat="41.090974" lon="-6.749658">
        <ele>296.2</ele>
        <time>1970-01-01T03:14:06.000Z</time>
      </trkpt>
      <trkpt lat="41.090966" lon="-6.749676">
        <ele>296.2</ele>
        <time>1970-01-01T03:14:07.000Z</time>
      </trkpt>
      <trkpt lat="41.090957" lon="-6.749692">
        <ele>296</ele>
        <time>1970-01-01T03:14:08.000Z</time>
      </trkpt>
      <trkpt lat="41.090948" lon="-6.749707">
        <ele>296</ele>
        <time>1970-01-01T03:14:09.000Z</time>
      </trkpt>
      <trkpt lat="41.090937" lon="-6.749721">
        <ele>296</ele>
        <time>1970-01-01T03:14:10.000Z</time>
      </trkpt>
      <trkpt lat="41.090926" lon="-6.749727">
        <ele>295.9</ele>
        <time>1970-01-01T03:14:11.000Z</time>
      </trkpt>
      <trkpt lat="41.090915" lon="-6.749727">
        <ele>295.9</ele>
        <time>1970-01-01T03:14:12.000Z</time>
      </trkpt>
      <trkpt lat="41.090904" lon="-6.749722">
        <ele>297</ele>
        <time>1970-01-01T03:14:13.000Z</time>
      </trkpt>
      <trkpt lat="41.090893" lon="-6.749712">
        <ele>298</ele>
        <time>1970-01-01T03:14:14.000Z</time>
      </trkpt>
      <trkpt lat="41.090886" lon="-6.749699">
        <ele>298</ele>
        <time>1970-01-01T03:14:15.000Z</time>
      </trkpt>
      <trkpt lat="41.090885" lon="-6.749683">
        <ele>298</ele>
        <time>1970-01-01T03:14:16.000Z</time>
      </trkpt>
      <trkpt lat="41.090887" lon="-6.749666">
        <ele>299.1</ele>
        <time>1970-01-01T03:14:17.000Z</time>
      </trkpt>
      <trkpt lat="41.090891" lon="-6.749645">
        <ele>299.1</ele>
        <time>1970-01-01T03:14:18.000Z</time>
      </trkpt>
      <trkpt lat="41.090896" lon="-6.749622">
        <ele>300.1</ele>
        <time>1970-01-01T03:14:19.000Z</time>
      </trkpt>
      <trkpt lat="41.090899" lon="-6.749601">
        <ele>299.2</ele>
        <time>1970-01-01T03:14:20.000Z</time>
      </trkpt>
      <trkpt lat="41.090903" lon="-6.749579">
        <ele>300.2</ele>
        <time>1970-01-01T03:14:21.000Z</time>
      </trkpt>
      <trkpt lat="41.090906" lon="-6.749556">
        <ele>300.3</ele>
        <time>1970-01-01T03:14:22.000Z</time>
      </trkpt>
      <trkpt lat="41.090909" lon="-6.749531">
        <ele>301.2</ele>
        <time>1970-01-01T03:14:23.000Z</time>
      </trkpt>
      <trkpt lat="41.090911" lon="-6.749506">
        <ele>302.2</ele>
        <time>1970-01-01T03:14:24.000Z</time>
      </trkpt>
      <trkpt lat="41.090913" lon="-6.749482">
        <ele>302.3</ele>
        <time>1970-01-01T03:14:25.000Z</time>
      </trkpt>
      <trkpt lat="41.090915" lon="-6.749458">
        <ele>303.2</ele>
        <time>1970-01-01T03:14:26.000Z</time>
      </trkpt>
      <trkpt lat="41.090914" lon="-6.749434">
        <ele>303.2</ele>
        <time>1970-01-01T03:14:27.000Z</time>
      </trkpt>
      <trkpt lat="41.090914" lon="-6.749411">
        <ele>304.2</ele>
        <time>1970-01-01T03:14:28.000Z</time>
      </trkpt>
      <trkpt lat="41.090913" lon="-6.749388">
        <ele>304.2</ele>
        <time>1970-01-01T03:14:29.000Z</time>
      </trkpt>
      <trkpt lat="41.090913" lon="-6.749366">
        <ele>305.1</ele>
        <time>1970-01-01T03:14:30.000Z</time>
      </trkpt>
      <trkpt lat="41.090912" lon="-6.749345">
        <ele>305.2</ele>
        <time>1970-01-01T03:14:31.000Z</time>
      </trkpt>
      <trkpt lat="41.090912" lon="-6.749324">
        <ele>306.2</ele>
        <time>1970-01-01T03:14:32.000Z</time>
      </trkpt>
      <trkpt lat="41.090912" lon="-6.749304">
        <ele>306.2</ele>
        <time>1970-01-01T03:14:33.000Z</time>
      </trkpt>
      <trkpt lat="41.090912" lon="-6.749282">
        <ele>307.2</ele>
        <time>1970-01-01T03:14:34.000Z</time>
      </trkpt>
      <trkpt lat="41.090913" lon="-6.749259">
        <ele>307.2</ele>
        <time>1970-01-01T03:14:35.000Z</time>
      </trkpt>
      <trkpt lat="41.090914" lon="-6.749235">
        <ele>308.2</ele>
        <time>1970-01-01T03:14:36.000Z</time>
      </trkpt>
      <trkpt lat="41.090916" lon="-6.749212">
        <ele>308.3</ele>
        <time>1970-01-01T03:14:37.000Z</time>
      </trkpt>
      <trkpt lat="41.090918" lon="-6.749189">
        <ele>309.2</ele>
        <time>1970-01-01T03:14:38.000Z</time>
      </trkpt>
      <trkpt lat="41.090921" lon="-6.749166">
        <ele>310.1</ele>
        <time>1970-01-01T03:14:39.000Z</time>
      </trkpt>
      <trkpt lat="41.090922" lon="-6.749142">
        <ele>310.1</ele>
        <time>1970-01-01T03:14:40.000Z</time>
      </trkpt>
      <trkpt lat="41.090922" lon="-6.749117">
        <ele>311</ele>
        <time>1970-01-01T03:14:41.000Z</time>
      </trkpt>
      <trkpt lat="41.09092" lon="-6.749093">
        <ele>311.1</ele>
        <time>1970-01-01T03:14:42.000Z</time>
      </trkpt>
      <trkpt lat="41.090919" lon="-6.74907">
        <ele>311.8</ele>
        <time>1970-01-01T03:14:43.000Z</time>
      </trkpt>
      <trkpt lat="41.090918" lon="-6.749047">
        <ele>311.8</ele>
        <time>1970-01-01T03:14:44.000Z</time>
      </trkpt>
      <trkpt lat="41.090917" lon="-6.749024">
        <ele>312.6</ele>
        <time>1970-01-01T03:14:45.000Z</time>
      </trkpt>
      <trkpt lat="41.090916" lon="-6.749001">
        <ele>312.7</ele>
        <time>1970-01-01T03:14:46.000Z</time>
      </trkpt>
      <trkpt lat="41.090915" lon="-6.748978">
        <ele>313.4</ele>
        <time>1970-01-01T03:14:47.000Z</time>
      </trkpt>
      <trkpt lat="41.090914" lon="-6.748955">
        <ele>313.4</ele>
        <time>1970-01-01T03:14:48.000Z</time>
      </trkpt>
      <trkpt lat="41.090916" lon="-6.748932">
        <ele>314.1</ele>
        <time>1970-01-01T03:14:49.000Z</time>
      </trkpt>
      <trkpt lat="41.090915" lon="-6.748909">
        <ele>314.9</ele>
        <time>1970-01-01T03:14:50.000Z</time>
      </trkpt>
      <trkpt lat="41.090913" lon="-6.748886">
        <ele>314.9</ele>
        <time>1970-01-01T03:14:51.000Z</time>
      </trkpt>
      <trkpt lat="41.090909" lon="-6.748861">
        <ele>315.7</ele>
        <time>1970-01-01T03:14:52.000Z</time>
      </trkpt>
      <trkpt lat="41.090906" lon="-6.748836">
        <ele>315.7</ele>
        <time>1970-01-01T03:14:53.000Z</time>
      </trkpt>
      <trkpt lat="41.090903" lon="-6.748811">
        <ele>316.4</ele>
        <time>1970-01-01T03:14:54.000Z</time>
      </trkpt>
      <trkpt lat="41.0909" lon="-6.748787">
        <ele>316.5</ele>
        <time>1970-01-01T03:14:55.000Z</time>
      </trkpt>
      <trkpt lat="41.090898" lon="-6.748764">
        <ele>317.6</ele>
        <time>1970-01-01T03:14:56.000Z</time>
      </trkpt>
      <trkpt lat="41.090895" lon="-6.748741">
        <ele>317.6</ele>
        <time>1970-01-01T03:14:57.000Z</time>
      </trkpt>
      <trkpt lat="41.090892" lon="-6.748718">
        <ele>318.3</ele>
        <time>1970-01-01T03:14:58.000Z</time>
      </trkpt>
      <trkpt lat="41.090888" lon="-6.748693">
        <ele>318.9</ele>
        <time>1970-01-01T03:14:59.000Z</time>
      </trkpt>
      <trkpt lat="41.090886" lon="-6.748668">
        <ele>318.9</ele>
        <time>1970-01-01T03:15:00.000Z</time>
      </trkpt>
      <trkpt lat="41.090886" lon="-6.748645">
        <ele>319.6</ele>
        <time>1970-01-01T03:15:01.000Z</time>
      </trkpt>
      <trkpt lat="41.090888" lon="-6.748622">
        <ele>319.6</ele>
        <time>1970-01-01T03:15:02.000Z</time>
      </trkpt>
      <trkpt lat="41.090889" lon="-6.7486">
        <ele>320.2</ele>
        <time>1970-01-01T03:15:03.000Z</time>
      </trkpt>
      <trkpt lat="41.090889" lon="-6.748578">
        <ele>320.2</ele>
        <time>1970-01-01T03:15:04.000Z</time>
      </trkpt>
      <trkpt lat="41.090887" lon="-6.748558">
        <ele>320.9</ele>
        <time>1970-01-01T03:15:05.000Z</time>
      </trkpt>
      <trkpt lat="41.090885" lon="-6.748539">
        <ele>320.9</ele>
        <time>1970-01-01T03:15:06.000Z</time>
      </trkpt>
      <trkpt lat="41.090883" lon="-6.748518">
        <ele>321.5</ele>
        <time>1970-01-01T03:15:07.000Z</time>
      </trkpt>
      <trkpt lat="41.090882" lon="-6.748496">
        <ele>321.6</ele>
        <time>1970-01-01T03:15:08.000Z</time>
      </trkpt>
      <trkpt lat="41.09088" lon="-6.748474">
        <ele>322.2</ele>
        <time>1970-01-01T03:15:09.000Z</time>
      </trkpt>
      <trkpt lat="41.090876" lon="-6.748453">
        <ele>322.3</ele>
        <time>1970-01-01T03:15:10.000Z</time>
      </trkpt>
      <trkpt lat="41.090871" lon="-6.748433">
        <ele>323</ele>
        <time>1970-01-01T03:15:11.000Z</time>
      </trkpt>
      <trkpt lat="41.090862" lon="-6.748416">
        <ele>323.2</ele>
        <time>1970-01-01T03:15:12.000Z</time>
      </trkpt>
      <trkpt lat="41.090851" lon="-6.748404">
        <ele>323.3</ele>
        <time>1970-01-01T03:15:13.000Z</time>
      </trkpt>
      <trkpt lat="41.090839" lon="-6.7484">
        <ele>323.3</ele>
        <time>1970-01-01T03:15:14.000Z</time>
      </trkpt>
      <trkpt lat="41.090828" lon="-6.748403">
        <ele>323.6</ele>
        <time>1970-01-01T03:15:15.000Z</time>
      </trkpt>
      <trkpt lat="41.090822" lon="-6.748413">
        <ele>323.6</ele>
        <time>1970-01-01T03:15:16.000Z</time>
      </trkpt>
      <trkpt lat="41.090818" lon="-6.748428">
        <ele>323.7</ele>
        <time>1970-01-01T03:15:17.000Z</time>
      </trkpt>
      <trkpt lat="41.090816" lon="-6.748449">
        <ele>323.1</ele>
        <time>1970-01-01T03:15:18.000Z</time>
      </trkpt>
      <trkpt lat="41.090812" lon="-6.748473">
        <ele>323.1</ele>
        <time>1970-01-01T03:15:19.000Z</time>
      </trkpt>
      <trkpt lat="41.090809" lon="-6.7485">
        <ele>322.5</ele>
        <time>1970-01-01T03:15:20.000Z</time>
      </trkpt>
      <trkpt lat="41.090808" lon="-6.748526">
        <ele>322</ele>
        <time>1970-01-01T03:15:21.000Z</time>
      </trkpt>
      <trkpt lat="41.090806" lon="-6.748552">
        <ele>322.1</ele>
        <time>1970-01-01T03:15:22.000Z</time>
      </trkpt>
      <trkpt lat="41.090803" lon="-6.748576">
        <ele>321.5</ele>
        <time>1970-01-01T03:15:23.000Z</time>
      </trkpt>
      <trkpt lat="41.090798" lon="-6.748598">
        <ele>322</ele>
        <time>1970-01-01T03:15:24.000Z</time>
      </trkpt>
      <trkpt lat="41.090791" lon="-6.748621">
        <ele>321.5</ele>
        <time>1970-01-01T03:15:25.000Z</time>
      </trkpt>
      <trkpt lat="41.090782" lon="-6.748644">
        <ele>321.6</ele>
        <time>1970-01-01T03:15:26.000Z</time>
      </trkpt>
      <trkpt lat="41.090773" lon="-6.748665">
        <ele>321.1</ele>
        <time>1970-01-01T03:15:27.000Z</time>
      </trkpt>
      <trkpt lat="41.090764" lon="-6.748686">
        <ele>321.7</ele>
        <time>1970-01-01T03:15:28.000Z</time>
      </trkpt>
      <trkpt lat="41.090754" lon="-6.748705">
        <ele>321.2</ele>
        <time>1970-01-01T03:15:29.000Z</time>
      </trkpt>
      <trkpt lat="41.090743" lon="-6.748726">
        <ele>321.2</ele>
        <time>1970-01-01T03:15:30.000Z</time>
      </trkpt>
      <trkpt lat="41.090732" lon="-6.748749">
        <ele>321.5</ele>
        <time>1970-01-01T03:15:31.000Z</time>
      </trkpt>
      <trkpt lat="41.090722" lon="-6.748772">
        <ele>321.5</ele>
        <time>1970-01-01T03:15:32.000Z</time>
      </trkpt>
      <trkpt lat="41.090714" lon="-6.748796">
        <ele>321</ele>
        <time>1970-01-01T03:15:33.000Z</time>
      </trkpt>
      <trkpt lat="41.090707" lon="-6.748822">
        <ele>321.1</ele>
        <time>1970-01-01T03:15:34.000Z</time>
      </trkpt>
      <trkpt lat="41.090701" lon="-6.748847">
        <ele>321.4</ele>
        <time>1970-01-01T03:15:35.000Z</time>
      </trkpt>
      <trkpt lat="41.090694" lon="-6.748872">
        <ele>321</ele>
        <time>1970-01-01T03:15:36.000Z</time>
      </trkpt>
      <trkpt lat="41.090685" lon="-6.748894">
        <ele>321</ele>
        <time>1970-01-01T03:15:37.000Z</time>
      </trkpt>
      <trkpt lat="41.090673" lon="-6.748911">
        <ele>320.6</ele>
        <time>1970-01-01T03:15:38.000Z</time>
      </trkpt>
      <trkpt lat="41.090659" lon="-6.748919">
        <ele>321.6</ele>
        <time>1970-01-01T03:15:39.000Z</time>
      </trkpt>
      <trkpt lat="41.090646" lon="-6.748919">
        <ele>321.7</ele>
        <time>1970-01-01T03:15:40.000Z</time>
      </trkpt>
      <trkpt lat="41.090635" lon="-6.748909">
        <ele>323.2</ele>
        <time>1970-01-01T03:15:41.000Z</time>
      </trkpt>
      <trkpt lat="41.090628" lon="-6.748895">
        <ele>323.2</ele>
        <time>1970-01-01T03:15:42.000Z</time>
      </trkpt>
      <trkpt lat="41.090625" lon="-6.748878">
        <ele>323.2</ele>
        <time>1970-01-01T03:15:43.000Z</time>
      </trkpt>
      <trkpt lat="41.090625" lon="-6.748859">
        <ele>323.6</ele>
        <time>1970-01-01T03:15:44.000Z</time>
      </trkpt>
      <trkpt lat="41.090629" lon="-6.748835">
        <ele>323.7</ele>
        <time>1970-01-01T03:15:45.000Z</time>
      </trkpt>
      <trkpt lat="41.090632" lon="-6.748811">
        <ele>324.1</ele>
        <time>1970-01-01T03:15:46.000Z</time>
      </trkpt>
      <trkpt lat="41.090635" lon="-6.748786">
        <ele>324.1</ele>
        <time>1970-01-01T03:15:47.000Z</time>
      </trkpt>
      <trkpt lat="41.090635" lon="-6.748765">
        <ele>324.6</ele>
        <time>1970-01-01T03:15:48.000Z</time>
      </trkpt>
      <trkpt lat="41.090634" lon="-6.748743">
        <ele>324.6</ele>
        <time>1970-01-01T03:15:49.000Z</time>
      </trkpt>
      <trkpt lat="41.090632" lon="-6.748723">
        <ele>325</ele>
        <time>1970-01-01T03:15:50.000Z</time>
      </trkpt>
      <trkpt lat="41.090631" lon="-6.748701">
        <ele>325</ele>
        <time>1970-01-01T03:15:51.000Z</time>
      </trkpt>
      <trkpt lat="41.09063" lon="-6.74868">
        <ele>325.4</ele>
        <time>1970-01-01T03:15:52.000Z</time>
      </trkpt>
      <trkpt lat="41.090628" lon="-6.748658">
        <ele>325.5</ele>
        <time>1970-01-01T03:15:53.000Z</time>
      </trkpt>
      <trkpt lat="41.090625" lon="-6.748638">
        <ele>325.9</ele>
        <time>1970-01-01T03:15:54.000Z</time>
      </trkpt>
      <trkpt lat="41.09062" lon="-6.748619">
        <ele>325.9</ele>
        <time>1970-01-01T03:15:55.000Z</time>
      </trkpt>
      <trkpt lat="41.090614" lon="-6.7486">
        <ele>326.3</ele>
        <time>1970-01-01T03:15:56.000Z</time>
      </trkpt>
      <trkpt lat="41.090609" lon="-6.74858">
        <ele>326.4</ele>
        <time>1970-01-01T03:15:57.000Z</time>
      </trkpt>
      <trkpt lat="41.090604" lon="-6.74856">
        <ele>327.8</ele>
        <time>1970-01-01T03:15:58.000Z</time>
      </trkpt>
      <trkpt lat="41.0906" lon="-6.748539">
        <ele>327.8</ele>
        <time>1970-01-01T03:15:59.000Z</time>
      </trkpt>
      <trkpt lat="41.090595" lon="-6.748519">
        <ele>328.2</ele>
        <time>1970-01-01T03:16:00.000Z</time>
      </trkpt>
      <trkpt lat="41.09059" lon="-6.748499">
        <ele>328.3</ele>
        <time>1970-01-01T03:16:01.000Z</time>
      </trkpt>
      <trkpt lat="41.090586" lon="-6.74848">
        <ele>328.8</ele>
        <time>1970-01-01T03:16:02.000Z</time>
      </trkpt>
      <trkpt lat="41.090582" lon="-6.74846">
        <ele>328.8</ele>
        <time>1970-01-01T03:16:03.000Z</time>
      </trkpt>
      <trkpt lat="41.090578" lon="-6.74844">
        <ele>328.8</ele>
        <time>1970-01-01T03:16:04.000Z</time>
      </trkpt>
      <trkpt lat="41.090574" lon="-6.748422">
        <ele>330.3</ele>
        <time>1970-01-01T03:16:05.000Z</time>
      </trkpt>
      <trkpt lat="41.090568" lon="-6.748403">
        <ele>330.4</ele>
        <time>1970-01-01T03:16:06.000Z</time>
      </trkpt>
      <trkpt lat="41.090564" lon="-6.748384">
        <ele>330.9</ele>
        <time>1970-01-01T03:16:07.000Z</time>
      </trkpt>
      <trkpt lat="41.09056" lon="-6.748363">
        <ele>330.9</ele>
        <time>1970-01-01T03:16:08.000Z</time>
      </trkpt>
      <trkpt lat="41.090556" lon="-6.748343">
        <ele>331.5</ele>
        <time>1970-01-01T03:16:09.000Z</time>
      </trkpt>
      <trkpt lat="41.090553" lon="-6.748321">
        <ele>331.5</ele>
        <time>1970-01-01T03:16:10.000Z</time>
      </trkpt>
      <trkpt lat="41.090548" lon="-6.7483">
        <ele>332.1</ele>
        <time>1970-01-01T03:16:11.000Z</time>
      </trkpt>
      <trkpt lat="41.090542" lon="-6.748279">
        <ele>333.2</ele>
        <time>1970-01-01T03:16:12.000Z</time>
      </trkpt>
      <trkpt lat="41.090534" lon="-6.748258">
        <ele>333.7</ele>
        <time>1970-01-01T03:16:13.000Z</time>
      </trkpt>
      <trkpt lat="41.090528" lon="-6.748237">
        <ele>333.7</ele>
        <time>1970-01-01T03:16:14.000Z</time>
      </trkpt>
      <trkpt lat="41.090523" lon="-6.748216">
        <ele>334.3</ele>
        <time>1970-01-01T03:16:15.000Z</time>
      </trkpt>
      <trkpt lat="41.090519" lon="-6.748195">
        <ele>334.3</ele>
        <time>1970-01-01T03:16:16.000Z</time>
      </trkpt>
      <trkpt lat="41.090514" lon="-6.748175">
        <ele>334.8</ele>
        <time>1970-01-01T03:16:17.000Z</time>
      </trkpt>
      <trkpt lat="41.090509" lon="-6.748153">
        <ele>335.9</ele>
        <time>1970-01-01T03:16:18.000Z</time>
      </trkpt>
      <trkpt lat="41.090505" lon="-6.748133">
        <ele>336.5</ele>
        <time>1970-01-01T03:16:19.000Z</time>
      </trkpt>
      <trkpt lat="41.090501" lon="-6.748112">
        <ele>336.5</ele>
        <time>1970-01-01T03:16:20.000Z</time>
      </trkpt>
      <trkpt lat="41.090495" lon="-6.748092">
        <ele>337.1</ele>
        <time>1970-01-01T03:16:21.000Z</time>
      </trkpt>
      <trkpt lat="41.090488" lon="-6.748072">
        <ele>337.1</ele>
        <time>1970-01-01T03:16:22.000Z</time>
      </trkpt>
      <trkpt lat="41.090479" lon="-6.748053">
        <ele>337.1</ele>
        <time>1970-01-01T03:16:23.000Z</time>
      </trkpt>
      <trkpt lat="41.090469" lon="-6.748032">
        <ele>338.8</ele>
        <time>1970-01-01T03:16:24.000Z</time>
      </trkpt>
      <trkpt lat="41.090461" lon="-6.74801">
        <ele>338.8</ele>
        <time>1970-01-01T03:16:25.000Z</time>
      </trkpt>
      <trkpt lat="41.090454" lon="-6.747988">
        <ele>339.4</ele>
        <time>1970-01-01T03:16:26.000Z</time>
      </trkpt>
      <trkpt lat="41.090448" lon="-6.747967">
        <ele>339.5</ele>
        <time>1970-01-01T03:16:27.000Z</time>
      </trkpt>
      <trkpt lat="41.090441" lon="-6.747945">
        <ele>341.2</ele>
        <time>1970-01-01T03:16:28.000Z</time>
      </trkpt>
      <trkpt lat="41.090434" lon="-6.747922">
        <ele>341.8</ele>
        <time>1970-01-01T03:16:29.000Z</time>
      </trkpt>
      <trkpt lat="41.090427" lon="-6.7479">
        <ele>341.8</ele>
        <time>1970-01-01T03:16:30.000Z</time>
      </trkpt>
      <trkpt lat="41.090419" lon="-6.747878">
        <ele>342.4</ele>
        <time>1970-01-01T03:16:31.000Z</time>
      </trkpt>
      <trkpt lat="41.09041" lon="-6.747857">
        <ele>343.5</ele>
        <time>1970-01-01T03:16:32.000Z</time>
      </trkpt>
      <trkpt lat="41.090401" lon="-6.747836">
        <ele>344.1</ele>
        <time>1970-01-01T03:16:33.000Z</time>
      </trkpt>
      <trkpt lat="41.090393" lon="-6.747815">
        <ele>344.2</ele>
        <time>1970-01-01T03:16:34.000Z</time>
      </trkpt>
      <trkpt lat="41.090386" lon="-6.747793">
        <ele>344.8</ele>
        <time>1970-01-01T03:16:35.000Z</time>
      </trkpt>
      <trkpt lat="41.090379" lon="-6.747772">
        <ele>345.9</ele>
        <time>1970-01-01T03:16:36.000Z</time>
      </trkpt>
      <trkpt lat="41.090374" lon="-6.747751">
        <ele>346.5</ele>
        <time>1970-01-01T03:16:37.000Z</time>
      </trkpt>
      <trkpt lat="41.09037" lon="-6.74773">
        <ele>346.5</ele>
        <time>1970-01-01T03:16:38.000Z</time>
      </trkpt>
      <trkpt lat="41.090366" lon="-6.747709">
        <ele>346.5</ele>
        <time>1970-01-01T03:16:39.000Z</time>
      </trkpt>
      <trkpt lat="41.090361" lon="-6.747689">
        <ele>347.1</ele>
        <time>1970-01-01T03:16:40.000Z</time>
      </trkpt>
      <trkpt lat="41.090354" lon="-6.74767">
        <ele>347.1</ele>
        <time>1970-01-01T03:16:41.000Z</time>
      </trkpt>
      <trkpt lat="41.090349" lon="-6.74765">
        <ele>348.8</ele>
        <time>1970-01-01T03:16:42.000Z</time>
      </trkpt>
      <trkpt lat="41.090345" lon="-6.74763">
        <ele>348.8</ele>
        <time>1970-01-01T03:16:43.000Z</time>
      </trkpt>
      <trkpt lat="41.090341" lon="-6.74761">
        <ele>349.4</ele>
        <time>1970-01-01T03:16:44.000Z</time>
      </trkpt>
      <trkpt lat="41.090336" lon="-6.747591">
        <ele>349.5</ele>
        <time>1970-01-01T03:16:45.000Z</time>
      </trkpt>
      <trkpt lat="41.090329" lon="-6.747574">
        <ele>350.1</ele>
        <time>1970-01-01T03:16:46.000Z</time>
      </trkpt>
      <trkpt lat="41.090322" lon="-6.747558">
        <ele>350.1</ele>
        <time>1970-01-01T03:16:47.000Z</time>
      </trkpt>
      <trkpt lat="41.090313" lon="-6.747543">
        <ele>351.2</ele>
        <time>1970-01-01T03:16:48.000Z</time>
      </trkpt>
      <trkpt lat="41.090304" lon="-6.747532">
        <ele>351.8</ele>
        <time>1970-01-01T03:16:49.000Z</time>
      </trkpt>
      <trkpt lat="41.090292" lon="-6.747527">
        <ele>351.9</ele>
        <time>1970-01-01T03:16:50.000Z</time>
      </trkpt>
      <trkpt lat="41.090282" lon="-6.747529">
        <ele>353</ele>
        <time>1970-01-01T03:16:51.000Z</time>
      </trkpt>
      <trkpt lat="41.090274" lon="-6.747539">
        <ele>352.5</ele>
        <time>1970-01-01T03:16:52.000Z</time>
      </trkpt>
      <trkpt lat="41.09027" lon="-6.747557">
        <ele>352.6</ele>
        <time>1970-01-01T03:16:53.000Z</time>
      </trkpt>
      <trkpt lat="41.09027" lon="-6.747579">
        <ele>352.6</ele>
        <time>1970-01-01T03:16:54.000Z</time>
      </trkpt>
      <trkpt lat="41.090273" lon="-6.747604">
        <ele>352.1</ele>
        <time>1970-01-01T03:16:55.000Z</time>
      </trkpt>
      <trkpt lat="41.090278" lon="-6.747629">
        <ele>351.6</ele>
        <time>1970-01-01T03:16:56.000Z</time>
      </trkpt>
      <trkpt lat="41.090282" lon="-6.747653">
        <ele>351.6</ele>
        <time>1970-01-01T03:16:57.000Z</time>
      </trkpt>
      <trkpt lat="41.090284" lon="-6.747677">
        <ele>351.2</ele>
        <time>1970-01-01T03:16:58.000Z</time>
      </trkpt>
      <trkpt lat="41.090284" lon="-6.747701">
        <ele>351.2</ele>
        <time>1970-01-01T03:16:59.000Z</time>
      </trkpt>
      <trkpt lat="41.090282" lon="-6.747725">
        <ele>350.7</ele>
        <time>1970-01-01T03:17:00.000Z</time>
      </trkpt>
      <trkpt lat="41.090281" lon="-6.747747">
        <ele>350.8</ele>
        <time>1970-01-01T03:17:01.000Z</time>
      </trkpt>
      <trkpt lat="41.09028" lon="-6.747769">
        <ele>350.3</ele>
        <time>1970-01-01T03:17:02.000Z</time>
      </trkpt>
      <trkpt lat="41.09028" lon="-6.747792">
        <ele>350.3</ele>
        <time>1970-01-01T03:17:03.000Z</time>
      </trkpt>
      <trkpt lat="41.09028" lon="-6.747815">
        <ele>349.9</ele>
        <time>1970-01-01T03:17:04.000Z</time>
      </trkpt>
      <trkpt lat="41.090278" lon="-6.747838">
        <ele>349.4</ele>
        <time>1970-01-01T03:17:05.000Z</time>
      </trkpt>
      <trkpt lat="41.090276" lon="-6.747863">
        <ele>349.4</ele>
        <time>1970-01-01T03:17:06.000Z</time>
      </trkpt>
      <trkpt lat="41.090273" lon="-6.747889">
        <ele>348.9</ele>
        <time>1970-01-01T03:17:07.000Z</time>
      </trkpt>
      <trkpt lat="41.090269" lon="-6.747915">
        <ele>349</ele>
        <time>1970-01-01T03:17:08.000Z</time>
      </trkpt>
      <trkpt lat="41.090266" lon="-6.747942">
        <ele>348.5</ele>
        <time>1970-01-01T03:17:09.000Z</time>
      </trkpt>
      <trkpt lat="41.090262" lon="-6.747969">
        <ele>348</ele>
        <time>1970-01-01T03:17:10.000Z</time>
      </trkpt>
      <trkpt lat="41.090258" lon="-6.747995">
        <ele>348</ele>
        <time>1970-01-01T03:17:11.000Z</time>
      </trkpt>
      <trkpt lat="41.090253" lon="-6.748021">
        <ele>347.5</ele>
        <time>1970-01-01T03:17:12.000Z</time>
      </trkpt>
      <trkpt lat="41.09025" lon="-6.748049">
        <ele>348.9</ele>
        <time>1970-01-01T03:17:13.000Z</time>
      </trkpt>
      <trkpt lat="41.090246" lon="-6.748079">
        <ele>348.4</ele>
        <time>1970-01-01T03:17:14.000Z</time>
      </trkpt>
      <trkpt lat="41.090244" lon="-6.748107">
        <ele>348</ele>
        <time>1970-01-01T03:17:15.000Z</time>
      </trkpt>
      <trkpt lat="41.090241" lon="-6.748134">
        <ele>348</ele>
        <time>1970-01-01T03:17:16.000Z</time>
      </trkpt>
      <trkpt lat="41.090238" lon="-6.74816">
        <ele>347.7</ele>
        <time>1970-01-01T03:17:17.000Z</time>
      </trkpt>
      <trkpt lat="41.090234" lon="-6.748187">
        <ele>347.3</ele>
        <time>1970-01-01T03:17:18.000Z</time>
      </trkpt>
      <trkpt lat="41.090229" lon="-6.748217">
        <ele>347.3</ele>
        <time>1970-01-01T03:17:19.000Z</time>
      </trkpt>
      <trkpt lat="41.090223" lon="-6.748246">
        <ele>347</ele>
        <time>1970-01-01T03:17:20.000Z</time>
      </trkpt>
      <trkpt lat="41.090216" lon="-6.748276">
        <ele>348.1</ele>
        <time>1970-01-01T03:17:21.000Z</time>
      </trkpt>
      <trkpt lat="41.090209" lon="-6.748304">
        <ele>348.2</ele>
        <time>1970-01-01T03:17:22.000Z</time>
      </trkpt>
      <trkpt lat="41.090201" lon="-6.748332">
        <ele>347.9</ele>
        <time>1970-01-01T03:17:23.000Z</time>
      </trkpt>
      <trkpt lat="41.090192" lon="-6.748362">
        <ele>347.6</ele>
        <time>1970-01-01T03:17:24.000Z</time>
      </trkpt>
      <trkpt lat="41.090182" lon="-6.748393">
        <ele>349.1</ele>
        <time>1970-01-01T03:17:25.000Z</time>
      </trkpt>
      <trkpt lat="41.090172" lon="-6.748423">
        <ele>348.8</ele>
        <time>1970-01-01T03:17:26.000Z</time>
      </trkpt>
      <trkpt lat="41.090162" lon="-6.748451">
        <ele>348.5</ele>
        <time>1970-01-01T03:17:27.000Z</time>
      </trkpt>
      <trkpt lat="41.090151" lon="-6.748477">
        <ele>350.1</ele>
        <time>1970-01-01T03:17:28.000Z</time>
      </trkpt>
      <trkpt lat="41.09014" lon="-6.748504">
        <ele>349.8</ele>
        <time>1970-01-01T03:17:29.000Z</time>
      </trkpt>
      <trkpt lat="41.090128" lon="-6.748531">
        <ele>349.5</ele>
        <time>1970-01-01T03:17:30.000Z</time>
      </trkpt>
      <trkpt lat="41.090117" lon="-6.748559">
        <ele>351</ele>
        <time>1970-01-01T03:17:31.000Z</time>
      </trkpt>
      <trkpt lat="41.090105" lon="-6.748588">
        <ele>350.7</ele>
        <time>1970-01-01T03:17:32.000Z</time>
      </trkpt>
      <trkpt lat="41.090091" lon="-6.748618">
        <ele>350.4</ele>
        <time>1970-01-01T03:17:33.000Z</time>
      </trkpt>
      <trkpt lat="41.090076" lon="-6.748647">
        <ele>351.9</ele>
        <time>1970-01-01T03:17:34.000Z</time>
      </trkpt>
      <trkpt lat="41.090061" lon="-6.748674">
        <ele>351.6</ele>
        <time>1970-01-01T03:17:35.000Z</time>
      </trkpt>
      <trkpt lat="41.090048" lon="-6.7487">
        <ele>352.7</ele>
        <time>1970-01-01T03:17:36.000Z</time>
      </trkpt>
      <trkpt lat="41.090035" lon="-6.748727">
        <ele>352.8</ele>
        <time>1970-01-01T03:17:37.000Z</time>
      </trkpt>
      <trkpt lat="41.090022" lon="-6.748753">
        <ele>353.9</ele>
        <time>1970-01-01T03:17:38.000Z</time>
      </trkpt>
      <trkpt lat="41.090007" lon="-6.74878">
        <ele>354</ele>
        <time>1970-01-01T03:17:39.000Z</time>
      </trkpt>
      <trkpt lat="41.089992" lon="-6.748808">
        <ele>355.1</ele>
        <time>1970-01-01T03:17:40.000Z</time>
      </trkpt>
      <trkpt lat="41.089975" lon="-6.748837">
        <ele>354.7</ele>
        <time>1970-01-01T03:17:41.000Z</time>
      </trkpt>
      <trkpt lat="41.089956" lon="-6.748864">
        <ele>356.3</ele>
        <time>1970-01-01T03:17:42.000Z</time>
      </trkpt>
      <trkpt lat="41.089936" lon="-6.748889">
        <ele>355.9</ele>
        <time>1970-01-01T03:17:43.000Z</time>
      </trkpt>
      <trkpt lat="41.089916" lon="-6.748912">
        <ele>356.9</ele>
        <time>1970-01-01T03:17:44.000Z</time>
      </trkpt>
      <trkpt lat="41.089895" lon="-6.748934">
        <ele>358.3</ele>
        <time>1970-01-01T03:17:45.000Z</time>
      </trkpt>
      <trkpt lat="41.089873" lon="-6.748953">
        <ele>357.9</ele>
        <time>1970-01-01T03:17:46.000Z</time>
      </trkpt>
      <trkpt lat="41.089849" lon="-6.74897">
        <ele>359.1</ele>
        <time>1970-01-01T03:17:47.000Z</time>
      </trkpt>
      <trkpt lat="41.089825" lon="-6.748984">
        <ele>360.2</ele>
        <time>1970-01-01T03:17:48.000Z</time>
      </trkpt>
      <trkpt lat="41.0898" lon="-6.748996">
        <ele>359.8</ele>
        <time>1970-01-01T03:17:49.000Z</time>
      </trkpt>
      <trkpt lat="41.089776" lon="-6.749004">
        <ele>360.9</ele>
        <time>1970-01-01T03:17:50.000Z</time>
      </trkpt>
      <trkpt lat="41.089752" lon="-6.749009">
        <ele>361.9</ele>
        <time>1970-01-01T03:17:51.000Z</time>
      </trkpt>
      <trkpt lat="41.089729" lon="-6.749012">
        <ele>363.1</ele>
        <time>1970-01-01T03:17:52.000Z</time>
      </trkpt>
      <trkpt lat="41.089706" lon="-6.749014">
        <ele>363.1</ele>
        <time>1970-01-01T03:17:53.000Z</time>
      </trkpt>
      <trkpt lat="41.089685" lon="-6.749012">
        <ele>364.2</ele>
        <time>1970-01-01T03:17:54.000Z</time>
      </trkpt>
      <trkpt lat="41.089665" lon="-6.749008">
        <ele>365.2</ele>
        <time>1970-01-01T03:17:55.000Z</time>
      </trkpt>
      <trkpt lat="41.089645" lon="-6.749001">
        <ele>365.2</ele>
        <time>1970-01-01T03:17:56.000Z</time>
      </trkpt>
      <trkpt lat="41.089624" lon="-6.748994">
        <ele>366.9</ele>
        <time>1970-01-01T03:17:57.000Z</time>
      </trkpt>
      <trkpt lat="41.089604" lon="-6.748987">
        <ele>367.7</ele>
        <time>1970-01-01T03:17:58.000Z</time>
      </trkpt>
      <trkpt lat="41.089584" lon="-6.748981">
        <ele>367.7</ele>
        <time>1970-01-01T03:17:59.000Z</time>
      </trkpt>
      <trkpt lat="41.089564" lon="-6.748974">
        <ele>368.5</ele>
        <time>1970-01-01T03:18:00.000Z</time>
      </trkpt>
      <trkpt lat="41.089546" lon="-6.748966">
        <ele>368.5</ele>
        <time>1970-01-01T03:18:01.000Z</time>
      </trkpt>
      <trkpt lat="41.089528" lon="-6.748959">
        <ele>369.3</ele>
        <time>1970-01-01T03:18:02.000Z</time>
      </trkpt>
      <trkpt lat="41.08951" lon="-6.748952">
        <ele>370.1</ele>
        <time>1970-01-01T03:18:03.000Z</time>
      </trkpt>
      <trkpt lat="41.089492" lon="-6.748944">
        <ele>370.9</ele>
        <time>1970-01-01T03:18:04.000Z</time>
      </trkpt>
      <trkpt lat="41.089474" lon="-6.748933">
        <ele>371.7</ele>
        <time>1970-01-01T03:18:05.000Z</time>
      </trkpt>
      <trkpt lat="41.089457" lon="-6.748923">
        <ele>371.8</ele>
        <time>1970-01-01T03:18:06.000Z</time>
      </trkpt>
      <trkpt lat="41.089438" lon="-6.748915">
        <ele>372.6</ele>
        <time>1970-01-01T03:18:07.000Z</time>
      </trkpt>
      <trkpt lat="41.089419" lon="-6.748908">
        <ele>373.6</ele>
        <time>1970-01-01T03:18:08.000Z</time>
      </trkpt>
      <trkpt lat="41.089401" lon="-6.7489">
        <ele>374.4</ele>
        <time>1970-01-01T03:18:09.000Z</time>
      </trkpt>
      <trkpt lat="41.089382" lon="-6.748891">
        <ele>374.4</ele>
        <time>1970-01-01T03:18:10.000Z</time>
      </trkpt>
      <trkpt lat="41.089364" lon="-6.748881">
        <ele>375.2</ele>
        <time>1970-01-01T03:18:11.000Z</time>
      </trkpt>
      <trkpt lat="41.089346" lon="-6.748871">
        <ele>375.9</ele>
        <time>1970-01-01T03:18:12.000Z</time>
      </trkpt>
      <trkpt lat="41.089329" lon="-6.74886">
        <ele>376.9</ele>
        <time>1970-01-01T03:18:13.000Z</time>
      </trkpt>
      <trkpt lat="41.089312" lon="-6.74885">
        <ele>377.6</ele>
        <time>1970-01-01T03:18:14.000Z</time>
      </trkpt>
      <trkpt lat="41.089295" lon="-6.748842">
        <ele>377.6</ele>
        <time>1970-01-01T03:18:15.000Z</time>
      </trkpt>
      <trkpt lat="41.089278" lon="-6.748834">
        <ele>378.2</ele>
        <time>1970-01-01T03:18:16.000Z</time>
      </trkpt>
      <trkpt lat="41.08926" lon="-6.748827">
        <ele>378.2</ele>
        <time>1970-01-01T03:18:17.000Z</time>
      </trkpt>
      <trkpt lat="41.089243" lon="-6.748818">
        <ele>379.9</ele>
        <time>1970-01-01T03:18:18.000Z</time>
      </trkpt>
      <trkpt lat="41.089226" lon="-6.748808">
        <ele>379.9</ele>
        <time>1970-01-01T03:18:19.000Z</time>
      </trkpt>
      <trkpt lat="41.089209" lon="-6.748797">
        <ele>380.5</ele>
        <time>1970-01-01T03:18:20.000Z</time>
      </trkpt>
      <trkpt lat="41.089192" lon="-6.748785">
        <ele>380.5</ele>
        <time>1970-01-01T03:18:21.000Z</time>
      </trkpt>
      <trkpt lat="41.089175" lon="-6.748774">
        <ele>382.2</ele>
        <time>1970-01-01T03:18:22.000Z</time>
      </trkpt>
      <trkpt lat="41.089156" lon="-6.748762">
        <ele>382.2</ele>
        <time>1970-01-01T03:18:23.000Z</time>
      </trkpt>
      <trkpt lat="41.089138" lon="-6.748751">
        <ele>382.8</ele>
        <time>1970-01-01T03:18:24.000Z</time>
      </trkpt>
      <trkpt lat="41.08912" lon="-6.748739">
        <ele>383.2</ele>
        <time>1970-01-01T03:18:25.000Z</time>
      </trkpt>
      <trkpt lat="41.089102" lon="-6.748726">
        <ele>384.4</ele>
        <time>1970-01-01T03:18:26.000Z</time>
      </trkpt>
      <trkpt lat="41.089085" lon="-6.748713">
        <ele>384.8</ele>
        <time>1970-01-01T03:18:27.000Z</time>
      </trkpt>
      <trkpt lat="41.089067" lon="-6.7487">
        <ele>384.8</ele>
        <time>1970-01-01T03:18:28.000Z</time>
      </trkpt>
      <trkpt lat="41.089049" lon="-6.748688">
        <ele>386.3</ele>
        <time>1970-01-01T03:18:29.000Z</time>
      </trkpt>
      <trkpt lat="41.08903" lon="-6.748675">
        <ele>386.3</ele>
        <time>1970-01-01T03:18:30.000Z</time>
      </trkpt>
      <trkpt lat="41.089012" lon="-6.748663">
        <ele>386.7</ele>
        <time>1970-01-01T03:18:31.000Z</time>
      </trkpt>
      <trkpt lat="41.088994" lon="-6.748649">
        <ele>387.8</ele>
        <time>1970-01-01T03:18:32.000Z</time>
      </trkpt>
      <trkpt lat="41.088976" lon="-6.748635">
        <ele>388.2</ele>
        <time>1970-01-01T03:18:33.000Z</time>
      </trkpt>
      <trkpt lat="41.088959" lon="-6.74862">
        <ele>388.2</ele>
        <time>1970-01-01T03:18:34.000Z</time>
      </trkpt>
      <trkpt lat="41.088943" lon="-6.748604">
        <ele>389.6</ele>
        <time>1970-01-01T03:18:35.000Z</time>
      </trkpt>
      <trkpt lat="41.088927" lon="-6.748588">
        <ele>389.7</ele>
        <time>1970-01-01T03:18:36.000Z</time>
      </trkpt>
      <trkpt lat="41.088911" lon="-6.748573">
        <ele>390</ele>
        <time>1970-01-01T03:18:37.000Z</time>
      </trkpt>
      <trkpt lat="41.088894" lon="-6.748558">
        <ele>391.2</ele>
        <time>1970-01-01T03:18:38.000Z</time>
      </trkpt>
      <trkpt lat="41.088877" lon="-6.748542">
        <ele>391.5</ele>
        <time>1970-01-01T03:18:39.000Z</time>
      </trkpt>
      <trkpt lat="41.088861" lon="-6.748526">
        <ele>391.7</ele>
        <time>1970-01-01T03:18:40.000Z</time>
      </trkpt>
      <trkpt lat="41.088845" lon="-6.748508">
        <ele>392.9</ele>
        <time>1970-01-01T03:18:41.000Z</time>
      </trkpt>
      <trkpt lat="41.088828" lon="-6.748492">
        <ele>393</ele>
        <time>1970-01-01T03:18:42.000Z</time>
      </trkpt>
      <trkpt lat="41.08881" lon="-6.748475">
        <ele>394.3</ele>
        <time>1970-01-01T03:18:43.000Z</time>
      </trkpt>
      <trkpt lat="41.088793" lon="-6.748458">
        <ele>394.3</ele>
        <time>1970-01-01T03:18:44.000Z</time>
      </trkpt>
      <trkpt lat="41.088776" lon="-6.748441">
        <ele>394.4</ele>
        <time>1970-01-01T03:18:45.000Z</time>
      </trkpt>
      <trkpt lat="41.088759" lon="-6.748423">
        <ele>395.6</ele>
        <time>1970-01-01T03:18:46.000Z</time>
      </trkpt>
      <trkpt lat="41.088741" lon="-6.748404">
        <ele>395.6</ele>
        <time>1970-01-01T03:18:47.000Z</time>
      </trkpt>
      <trkpt lat="41.088723" lon="-6.748385">
        <ele>396.8</ele>
        <time>1970-01-01T03:18:48.000Z</time>
      </trkpt>
      <trkpt lat="41.088706" lon="-6.748366">
        <ele>396.8</ele>
        <time>1970-01-01T03:18:49.000Z</time>
      </trkpt>
      <trkpt lat="41.088689" lon="-6.748347">
        <ele>397.8</ele>
        <time>1970-01-01T03:18:50.000Z</time>
      </trkpt>
      <trkpt lat="41.088673" lon="-6.748327">
        <ele>397.9</ele>
        <time>1970-01-01T03:18:51.000Z</time>
      </trkpt>
      <trkpt lat="41.088656" lon="-6.748306">
        <ele>398.8</ele>
        <time>1970-01-01T03:18:52.000Z</time>
      </trkpt>
      <trkpt lat="41.08864" lon="-6.748286">
        <ele>398.8</ele>
        <time>1970-01-01T03:18:53.000Z</time>
      </trkpt>
      <trkpt lat="41.088623" lon="-6.748268">
        <ele>398.4</ele>
        <time>1970-01-01T03:18:54.000Z</time>
      </trkpt>
      <trkpt lat="41.088607" lon="-6.748252">
        <ele>399.6</ele>
        <time>1970-01-01T03:18:55.000Z</time>
      </trkpt>
      <trkpt lat="41.088592" lon="-6.748237">
        <ele>399.2</ele>
        <time>1970-01-01T03:18:56.000Z</time>
      </trkpt>
      <trkpt lat="41.088579" lon="-6.748221">
        <ele>400.3</ele>
        <time>1970-01-01T03:18:57.000Z</time>
      </trkpt>
      <trkpt lat="41.088565" lon="-6.748206">
        <ele>399.7</ele>
        <time>1970-01-01T03:18:58.000Z</time>
      </trkpt>
      <trkpt lat="41.088552" lon="-6.74819">
        <ele>399.8</ele>
        <time>1970-01-01T03:18:59.000Z</time>
      </trkpt>
      <trkpt lat="41.088538" lon="-6.748174">
        <ele>400.9</ele>
        <time>1970-01-01T03:19:00.000Z</time>
      </trkpt>
      <trkpt lat="41.088525" lon="-6.748156">
        <ele>400.3</ele>
        <time>1970-01-01T03:19:01.000Z</time>
      </trkpt>
      <trkpt lat="41.088512" lon="-6.748138">
        <ele>400.3</ele>
        <time>1970-01-01T03:19:02.000Z</time>
      </trkpt>
      <trkpt lat="41.088499" lon="-6.74812">
        <ele>400.8</ele>
        <time>1970-01-01T03:19:03.000Z</time>
      </trkpt>
      <trkpt lat="41.088486" lon="-6.748102">
        <ele>400.9</ele>
        <time>1970-01-01T03:19:04.000Z</time>
      </trkpt>
      <trkpt lat="41.08847" lon="-6.748084">
        <ele>401.4</ele>
        <time>1970-01-01T03:19:05.000Z</time>
      </trkpt>
      <trkpt lat="41.088453" lon="-6.748065">
        <ele>401.4</ele>
        <time>1970-01-01T03:19:06.000Z</time>
      </trkpt>
      <trkpt lat="41.088435" lon="-6.748046">
        <ele>402.1</ele>
        <time>1970-01-01T03:19:07.000Z</time>
      </trkpt>
      <trkpt lat="41.088418" lon="-6.748027">
        <ele>402.1</ele>
        <time>1970-01-01T03:19:08.000Z</time>
      </trkpt>
      <trkpt lat="41.088401" lon="-6.748008">
        <ele>402.9</ele>
        <time>1970-01-01T03:19:09.000Z</time>
      </trkpt>
      <trkpt lat="41.088385" lon="-6.747989">
        <ele>402.9</ele>
        <time>1970-01-01T03:19:10.000Z</time>
      </trkpt>
      <trkpt lat="41.08837" lon="-6.747969">
        <ele>402.3</ele>
        <time>1970-01-01T03:19:11.000Z</time>
      </trkpt>
      <trkpt lat="41.088355" lon="-6.747948">
        <ele>403.7</ele>
        <time>1970-01-01T03:19:12.000Z</time>
      </trkpt>
      <trkpt lat="41.088338" lon="-6.747924">
        <ele>403</ele>
        <time>1970-01-01T03:19:13.000Z</time>
      </trkpt>
      <trkpt lat="41.088319" lon="-6.7479">
        <ele>404.4</ele>
        <time>1970-01-01T03:19:14.000Z</time>
      </trkpt>
      <trkpt lat="41.088299" lon="-6.747876">
        <ele>405.1</ele>
        <time>1970-01-01T03:19:15.000Z</time>
      </trkpt>
      <trkpt lat="41.08828" lon="-6.747851">
        <ele>405.1</ele>
        <time>1970-01-01T03:19:16.000Z</time>
      </trkpt>
      <trkpt lat="41.088262" lon="-6.747828">
        <ele>405.7</ele>
        <time>1970-01-01T03:19:17.000Z</time>
      </trkpt>
      <trkpt lat="41.088245" lon="-6.747807">
        <ele>405</ele>
        <time>1970-01-01T03:19:18.000Z</time>
      </trkpt>
      <trkpt lat="41.088225" lon="-6.747788">
        <ele>406.3</ele>
        <time>1970-01-01T03:19:19.000Z</time>
      </trkpt>
      <trkpt lat="41.088205" lon="-6.747769">
        <ele>405.6</ele>
        <time>1970-01-01T03:19:20.000Z</time>
      </trkpt>
      <trkpt lat="41.088185" lon="-6.747747">
        <ele>406.9</ele>
        <time>1970-01-01T03:19:21.000Z</time>
      </trkpt>
      <trkpt lat="41.088166" lon="-6.747723">
        <ele>406.1</ele>
        <time>1970-01-01T03:19:22.000Z</time>
      </trkpt>
      <trkpt lat="41.088148" lon="-6.747701">
        <ele>406.6</ele>
        <time>1970-01-01T03:19:23.000Z</time>
      </trkpt>
      <trkpt lat="41.088129" lon="-6.747678">
        <ele>406.7</ele>
        <time>1970-01-01T03:19:24.000Z</time>
      </trkpt>
      <trkpt lat="41.08811" lon="-6.747656">
        <ele>407.2</ele>
        <time>1970-01-01T03:19:25.000Z</time>
      </trkpt>
      <trkpt lat="41.08809" lon="-6.747633">
        <ele>407.2</ele>
        <time>1970-01-01T03:19:26.000Z</time>
      </trkpt>
      <trkpt lat="41.08807" lon="-6.747611">
        <ele>407.9</ele>
        <time>1970-01-01T03:19:27.000Z</time>
      </trkpt>
      <trkpt lat="41.088048" lon="-6.747591">
        <ele>407.2</ele>
        <time>1970-01-01T03:19:28.000Z</time>
      </trkpt>
      <trkpt lat="41.088026" lon="-6.747574">
        <ele>408.6</ele>
        <time>1970-01-01T03:19:29.000Z</time>
      </trkpt>
      <trkpt lat="41.088005" lon="-6.747559">
        <ele>408</ele>
        <time>1970-01-01T03:19:30.000Z</time>
      </trkpt>
      <trkpt lat="41.087985" lon="-6.747546">
        <ele>407.4</ele>
        <time>1970-01-01T03:19:31.000Z</time>
      </trkpt>
      <trkpt lat="41.087966" lon="-6.747535">
        <ele>409</ele>
        <time>1970-01-01T03:19:32.000Z</time>
      </trkpt>
      <trkpt lat="41.087946" lon="-6.747528">
        <ele>408.4</ele>
        <time>1970-01-01T03:19:33.000Z</time>
      </trkpt>
      <trkpt lat="41.087926" lon="-6.747522">
        <ele>408.5</ele>
        <time>1970-01-01T03:19:34.000Z</time>
      </trkpt>
      <trkpt lat="41.087905" lon="-6.747518">
        <ele>407.9</ele>
        <time>1970-01-01T03:19:35.000Z</time>
      </trkpt>
      <trkpt lat="41.087884" lon="-6.747511">
        <ele>407.3</ele>
        <time>1970-01-01T03:19:36.000Z</time>
      </trkpt>
      <trkpt lat="41.087864" lon="-6.747504">
        <ele>407.4</ele>
        <time>1970-01-01T03:19:37.000Z</time>
      </trkpt>
      <trkpt lat="41.087844" lon="-6.747496">
        <ele>406.8</ele>
        <time>1970-01-01T03:19:38.000Z</time>
      </trkpt>
      <trkpt lat="41.087824" lon="-6.747489">
        <ele>408</ele>
        <time>1970-01-01T03:19:39.000Z</time>
      </trkpt>
      <trkpt lat="41.087804" lon="-6.747484">
        <ele>408</ele>
        <time>1970-01-01T03:19:40.000Z</time>
      </trkpt>
      <trkpt lat="41.087783" lon="-6.747478">
        <ele>407.5</ele>
        <time>1970-01-01T03:19:41.000Z</time>
      </trkpt>
      <trkpt lat="41.087763" lon="-6.74747">
        <ele>407.5</ele>
        <time>1970-01-01T03:19:42.000Z</time>
      </trkpt>
      <trkpt lat="41.087744" lon="-6.747462">
        <ele>407</ele>
        <time>1970-01-01T03:19:43.000Z</time>
      </trkpt>
      <trkpt lat="41.087725" lon="-6.747457">
        <ele>406.5</ele>
        <time>1970-01-01T03:19:44.000Z</time>
      </trkpt>
      <trkpt lat="41.087706" lon="-6.747452">
        <ele>406.5</ele>
        <time>1970-01-01T03:19:45.000Z</time>
      </trkpt>
      <trkpt lat="41.087685" lon="-6.747446">
        <ele>407.9</ele>
        <time>1970-01-01T03:19:46.000Z</time>
      </trkpt>
      <trkpt lat="41.087664" lon="-6.74744">
        <ele>407.5</ele>
        <time>1970-01-01T03:19:47.000Z</time>
      </trkpt>
      <trkpt lat="41.087644" lon="-6.747435">
        <ele>407.6</ele>
        <time>1970-01-01T03:19:48.000Z</time>
      </trkpt>
      <trkpt lat="41.087623" lon="-6.747429">
        <ele>407.2</ele>
        <time>1970-01-01T03:19:49.000Z</time>
      </trkpt>
      <trkpt lat="41.087601" lon="-6.747424">
        <ele>407.2</ele>
        <time>1970-01-01T03:19:50.000Z</time>
      </trkpt>
      <trkpt lat="41.08758" lon="-6.747417">
        <ele>407.1</ele>
        <time>1970-01-01T03:19:51.000Z</time>
      </trkpt>
      <trkpt lat="41.08756" lon="-6.747411">
        <ele>407</ele>
        <time>1970-01-01T03:19:52.000Z</time>
      </trkpt>
      <trkpt lat="41.087541" lon="-6.747407">
        <ele>408.6</ele>
        <time>1970-01-01T03:19:53.000Z</time>
      </trkpt>
      <trkpt lat="41.087521" lon="-6.747403">
        <ele>408.6</ele>
        <time>1970-01-01T03:19:54.000Z</time>
      </trkpt>
      <trkpt lat="41.087501" lon="-6.7474">
        <ele>408.5</ele>
        <time>1970-01-01T03:19:55.000Z</time>
      </trkpt>
      <trkpt lat="41.08748" lon="-6.747394">
        <ele>408.6</ele>
        <time>1970-01-01T03:19:56.000Z</time>
      </trkpt>
      <trkpt lat="41.087459" lon="-6.747388">
        <ele>408.6</ele>
        <time>1970-01-01T03:19:57.000Z</time>
      </trkpt>
      <trkpt lat="41.087438" lon="-6.747382">
        <ele>408.6</ele>
        <time>1970-01-01T03:19:58.000Z</time>
      </trkpt>
      <trkpt lat="41.087418" lon="-6.747376">
        <ele>408.7</ele>
        <time>1970-01-01T03:19:59.000Z</time>
      </trkpt>
      <trkpt lat="41.087398" lon="-6.747372">
        <ele>408.8</ele>
        <time>1970-01-01T03:20:00.000Z</time>
      </trkpt>
      <trkpt lat="41.087379" lon="-6.747367">
        <ele>408.8</ele>
        <time>1970-01-01T03:20:01.000Z</time>
      </trkpt>
      <trkpt lat="41.087359" lon="-6.747362">
        <ele>410.4</ele>
        <time>1970-01-01T03:20:02.000Z</time>
      </trkpt>
      <trkpt lat="41.087339" lon="-6.747357">
        <ele>410.5</ele>
        <time>1970-01-01T03:20:03.000Z</time>
      </trkpt>
      <trkpt lat="41.087319" lon="-6.747352">
        <ele>410.6</ele>
        <time>1970-01-01T03:20:04.000Z</time>
      </trkpt>
      <trkpt lat="41.087299" lon="-6.747347">
        <ele>410.6</ele>
        <time>1970-01-01T03:20:05.000Z</time>
      </trkpt>
      <trkpt lat="41.08728" lon="-6.747342">
        <ele>410.7</ele>
        <time>1970-01-01T03:20:06.000Z</time>
      </trkpt>
      <trkpt lat="41.08726" lon="-6.747334">
        <ele>410.7</ele>
        <time>1970-01-01T03:20:07.000Z</time>
      </trkpt>
      <trkpt lat="41.08724" lon="-6.747327">
        <ele>410.7</ele>
        <time>1970-01-01T03:20:08.000Z</time>
      </trkpt>
      <trkpt lat="41.087219" lon="-6.747321">
        <ele>412.2</ele>
        <time>1970-01-01T03:20:09.000Z</time>
      </trkpt>
      <trkpt lat="41.087199" lon="-6.747313">
        <ele>412.2</ele>
        <time>1970-01-01T03:20:10.000Z</time>
      </trkpt>
      <trkpt lat="41.087179" lon="-6.747303">
        <ele>412.3</ele>
        <time>1970-01-01T03:20:11.000Z</time>
      </trkpt>
      <trkpt lat="41.087161" lon="-6.74729">
        <ele>412.3</ele>
        <time>1970-01-01T03:20:12.000Z</time>
      </trkpt>
      <trkpt lat="41.087142" lon="-6.747278">
        <ele>413.8</ele>
        <time>1970-01-01T03:20:13.000Z</time>
      </trkpt>
      <trkpt lat="41.087125" lon="-6.747265">
        <ele>413.8</ele>
        <time>1970-01-01T03:20:14.000Z</time>
      </trkpt>
      <trkpt lat="41.087109" lon="-6.747251">
        <ele>413.9</ele>
        <time>1970-01-01T03:20:15.000Z</time>
      </trkpt>
      <trkpt lat="41.087093" lon="-6.747236">
        <ele>415.2</ele>
        <time>1970-01-01T03:20:16.000Z</time>
      </trkpt>
      <trkpt lat="41.087079" lon="-6.747223">
        <ele>415.3</ele>
        <time>1970-01-01T03:20:17.000Z</time>
      </trkpt>
      <trkpt lat="41.087065" lon="-6.747209">
        <ele>415.3</ele>
        <time>1970-01-01T03:20:18.000Z</time>
      </trkpt>
      <trkpt lat="41.087052" lon="-6.747196">
        <ele>415.3</ele>
        <time>1970-01-01T03:20:19.000Z</time>
      </trkpt>
      <trkpt lat="41.087038" lon="-6.747182">
        <ele>416.6</ele>
        <time>1970-01-01T03:20:20.000Z</time>
      </trkpt>
      <trkpt lat="41.087024" lon="-6.747168">
        <ele>416.7</ele>
        <time>1970-01-01T03:20:21.000Z</time>
      </trkpt>
      <trkpt lat="41.087011" lon="-6.747153">
        <ele>416.6</ele>
        <time>1970-01-01T03:20:22.000Z</time>
      </trkpt>
      <trkpt lat="41.086998" lon="-6.747137">
        <ele>417.9</ele>
        <time>1970-01-01T03:20:23.000Z</time>
      </trkpt>
      <trkpt lat="41.086985" lon="-6.747121">
        <ele>417.8</ele>
        <time>1970-01-01T03:20:24.000Z</time>
      </trkpt>
      <trkpt lat="41.086972" lon="-6.747105">
        <ele>419.1</ele>
        <time>1970-01-01T03:20:25.000Z</time>
      </trkpt>
      <trkpt lat="41.086959" lon="-6.747088">
        <ele>419.2</ele>
        <time>1970-01-01T03:20:26.000Z</time>
      </trkpt>
      <trkpt lat="41.086947" lon="-6.747071">
        <ele>419</ele>
        <time>1970-01-01T03:20:27.000Z</time>
      </trkpt>
      <trkpt lat="41.086935" lon="-6.747052">
        <ele>420.3</ele>
        <time>1970-01-01T03:20:28.000Z</time>
      </trkpt>
      <trkpt lat="41.086925" lon="-6.747033">
        <ele>420.4</ele>
        <time>1970-01-01T03:20:29.000Z</time>
      </trkpt>
      <trkpt lat="41.086914" lon="-6.747014">
        <ele>421.5</ele>
        <time>1970-01-01T03:20:30.000Z</time>
      </trkpt>
      <trkpt lat="41.086901" lon="-6.746995">
        <ele>421.5</ele>
        <time>1970-01-01T03:20:31.000Z</time>
      </trkpt>
      <trkpt lat="41.086887" lon="-6.746977">
        <ele>422.5</ele>
        <time>1970-01-01T03:20:32.000Z</time>
      </trkpt>
      <trkpt lat="41.086873" lon="-6.746959">
        <ele>422.6</ele>
        <time>1970-01-01T03:20:33.000Z</time>
      </trkpt>
      <trkpt lat="41.086859" lon="-6.74694">
        <ele>422.6</ele>
        <time>1970-01-01T03:20:34.000Z</time>
      </trkpt>
      <trkpt lat="41.086844" lon="-6.746922">
        <ele>423.5</ele>
        <time>1970-01-01T03:20:35.000Z</time>
      </trkpt>
      <trkpt lat="41.08683" lon="-6.746903">
        <ele>423.6</ele>
        <time>1970-01-01T03:20:36.000Z</time>
      </trkpt>
      <trkpt lat="41.086817" lon="-6.746885">
        <ele>424.3</ele>
        <time>1970-01-01T03:20:37.000Z</time>
      </trkpt>
      <trkpt lat="41.086805" lon="-6.746866">
        <ele>424.4</ele>
        <time>1970-01-01T03:20:38.000Z</time>
      </trkpt>
      <trkpt lat="41.086793" lon="-6.746849">
        <ele>425.5</ele>
        <time>1970-01-01T03:20:39.000Z</time>
      </trkpt>
      <trkpt lat="41.086781" lon="-6.746832">
        <ele>425</ele>
        <time>1970-01-01T03:20:40.000Z</time>
      </trkpt>
      <trkpt lat="41.086768" lon="-6.746814">
        <ele>425.1</ele>
        <time>1970-01-01T03:20:41.000Z</time>
      </trkpt>
      <trkpt lat="41.086755" lon="-6.746797">
        <ele>425.5</ele>
        <time>1970-01-01T03:20:42.000Z</time>
      </trkpt>
      <trkpt lat="41.086741" lon="-6.74678">
        <ele>425.6</ele>
        <time>1970-01-01T03:20:43.000Z</time>
      </trkpt>
      <trkpt lat="41.086726" lon="-6.746763">
        <ele>425.9</ele>
        <time>1970-01-01T03:20:44.000Z</time>
      </trkpt>
      <trkpt lat="41.086712" lon="-6.746745">
        <ele>426</ele>
        <time>1970-01-01T03:20:45.000Z</time>
      </trkpt>
      <trkpt lat="41.086699" lon="-6.746728">
        <ele>426</ele>
        <time>1970-01-01T03:20:46.000Z</time>
      </trkpt>
      <trkpt lat="41.086686" lon="-6.74671">
        <ele>426.4</ele>
        <time>1970-01-01T03:20:47.000Z</time>
      </trkpt>
      <trkpt lat="41.086673" lon="-6.746692">
        <ele>426.4</ele>
        <time>1970-01-01T03:20:48.000Z</time>
      </trkpt>
      <trkpt lat="41.08666" lon="-6.746674">
        <ele>426.8</ele>
        <time>1970-01-01T03:20:49.000Z</time>
      </trkpt>
      <trkpt lat="41.086647" lon="-6.746657">
        <ele>426.8</ele>
        <time>1970-01-01T03:20:50.000Z</time>
      </trkpt>
      <trkpt lat="41.086634" lon="-6.74664">
        <ele>426.8</ele>
        <time>1970-01-01T03:20:51.000Z</time>
      </trkpt>
      <trkpt lat="41.086623" lon="-6.746624">
        <ele>427.2</ele>
        <time>1970-01-01T03:20:52.000Z</time>
      </trkpt>
      <trkpt lat="41.086611" lon="-6.746607">
        <ele>427.2</ele>
        <time>1970-01-01T03:20:53.000Z</time>
      </trkpt>
      <trkpt lat="41.086598" lon="-6.74659">
        <ele>428.4</ele>
        <time>1970-01-01T03:20:54.000Z</time>
      </trkpt>
      <trkpt lat="41.086584" lon="-6.746571">
        <ele>427.7</ele>
        <time>1970-01-01T03:20:55.000Z</time>
      </trkpt>
      <trkpt lat="41.08657" lon="-6.746551">
        <ele>427.7</ele>
        <time>1970-01-01T03:20:56.000Z</time>
      </trkpt>
      <trkpt lat="41.086556" lon="-6.746531">
        <ele>428.2</ele>
        <time>1970-01-01T03:20:57.000Z</time>
      </trkpt>
      <trkpt lat="41.086542" lon="-6.746511">
        <ele>428.2</ele>
        <time>1970-01-01T03:20:58.000Z</time>
      </trkpt>
      <trkpt lat="41.086528" lon="-6.74649">
        <ele>428.7</ele>
        <time>1970-01-01T03:20:59.000Z</time>
      </trkpt>
      <trkpt lat="41.086515" lon="-6.746468">
        <ele>428.7</ele>
        <time>1970-01-01T03:21:00.000Z</time>
      </trkpt>
      <trkpt lat="41.086502" lon="-6.746446">
        <ele>429.8</ele>
        <time>1970-01-01T03:21:01.000Z</time>
      </trkpt>
      <trkpt lat="41.086489" lon="-6.746424">
        <ele>429.2</ele>
        <time>1970-01-01T03:21:02.000Z</time>
      </trkpt>
      <trkpt lat="41.086477" lon="-6.746403">
        <ele>430.3</ele>
        <time>1970-01-01T03:21:03.000Z</time>
      </trkpt>
      <trkpt lat="41.086466" lon="-6.746382">
        <ele>429.7</ele>
        <time>1970-01-01T03:21:04.000Z</time>
      </trkpt>
      <trkpt lat="41.086456" lon="-6.74636">
        <ele>430.9</ele>
        <time>1970-01-01T03:21:05.000Z</time>
      </trkpt>
      <trkpt lat="41.086445" lon="-6.746339">
        <ele>430.9</ele>
        <time>1970-01-01T03:21:06.000Z</time>
      </trkpt>
      <trkpt lat="41.086433" lon="-6.746318">
        <ele>431.5</ele>
        <time>1970-01-01T03:21:07.000Z</time>
      </trkpt>
      <trkpt lat="41.08642" lon="-6.746299">
        <ele>431.5</ele>
        <time>1970-01-01T03:21:08.000Z</time>
      </trkpt>
      <trkpt lat="41.086408" lon="-6.74628">
        <ele>432.8</ele>
        <time>1970-01-01T03:21:09.000Z</time>
      </trkpt>
      <trkpt lat="41.086396" lon="-6.746261">
        <ele>432.1</ele>
        <time>1970-01-01T03:21:10.000Z</time>
      </trkpt>
      <trkpt lat="41.086384" lon="-6.746242">
        <ele>433.4</ele>
        <time>1970-01-01T03:21:11.000Z</time>
      </trkpt>
      <trkpt lat="41.086373" lon="-6.746222">
        <ele>433.5</ele>
        <time>1970-01-01T03:21:12.000Z</time>
      </trkpt>
      <trkpt lat="41.08636" lon="-6.746202">
        <ele>434.2</ele>
        <time>1970-01-01T03:21:13.000Z</time>
      </trkpt>
      <trkpt lat="41.086349" lon="-6.746183">
        <ele>434.2</ele>
        <time>1970-01-01T03:21:14.000Z</time>
      </trkpt>
      <trkpt lat="41.086337" lon="-6.746166">
        <ele>433.6</ele>
        <time>1970-01-01T03:21:15.000Z</time>
      </trkpt>
      <trkpt lat="41.086325" lon="-6.746148">
        <ele>435</ele>
        <time>1970-01-01T03:21:16.000Z</time>
      </trkpt>
      <trkpt lat="41.086311" lon="-6.746131">
        <ele>435</ele>
        <time>1970-01-01T03:21:17.000Z</time>
      </trkpt>
      <trkpt lat="41.086298" lon="-6.746114">
        <ele>435.8</ele>
        <time>1970-01-01T03:21:18.000Z</time>
      </trkpt>
      <trkpt lat="41.086286" lon="-6.746095">
        <ele>435.8</ele>
        <time>1970-01-01T03:21:19.000Z</time>
      </trkpt>
      <trkpt lat="41.086275" lon="-6.746078">
        <ele>435.9</ele>
        <time>1970-01-01T03:21:20.000Z</time>
      </trkpt>
      <trkpt lat="41.086265" lon="-6.746058">
        <ele>436.6</ele>
        <time>1970-01-01T03:21:21.000Z</time>
      </trkpt>
      <trkpt lat="41.086254" lon="-6.746039">
        <ele>436.7</ele>
        <time>1970-01-01T03:21:22.000Z</time>
      </trkpt>
      <trkpt lat="41.086244" lon="-6.746019">
        <ele>438.1</ele>
        <time>1970-01-01T03:21:23.000Z</time>
      </trkpt>
      <trkpt lat="41.086232" lon="-6.746">
        <ele>437.4</ele>
        <time>1970-01-01T03:21:24.000Z</time>
      </trkpt>
      <trkpt lat="41.086221" lon="-6.745983">
        <ele>438.8</ele>
        <time>1970-01-01T03:21:25.000Z</time>
      </trkpt>
      <trkpt lat="41.08621" lon="-6.745964">
        <ele>438.8</ele>
        <time>1970-01-01T03:21:26.000Z</time>
      </trkpt>
      <trkpt lat="41.0862" lon="-6.745946">
        <ele>439.5</ele>
        <time>1970-01-01T03:21:27.000Z</time>
      </trkpt>
      <trkpt lat="41.08619" lon="-6.74593">
        <ele>439.5</ele>
        <time>1970-01-01T03:21:28.000Z</time>
      </trkpt>
      <trkpt lat="41.086178" lon="-6.745918">
        <ele>439.6</ele>
        <time>1970-01-01T03:21:29.000Z</time>
      </trkpt>
      <trkpt lat="41.086166" lon="-6.745906">
        <ele>438.9</ele>
        <time>1970-01-01T03:21:30.000Z</time>
      </trkpt>
      <trkpt lat="41.086154" lon="-6.745892">
        <ele>440.3</ele>
        <time>1970-01-01T03:21:31.000Z</time>
      </trkpt>
      <trkpt lat="41.086143" lon="-6.745874">
        <ele>439.6</ele>
        <time>1970-01-01T03:21:32.000Z</time>
      </trkpt>
      <trkpt lat="41.086132" lon="-6.745857">
        <ele>441</ele>
        <time>1970-01-01T03:21:33.000Z</time>
      </trkpt>
      <trkpt lat="41.086121" lon="-6.74584">
        <ele>441</ele>
        <time>1970-01-01T03:21:34.000Z</time>
      </trkpt>
      <trkpt lat="41.08611" lon="-6.745824">
        <ele>440.3</ele>
        <time>1970-01-01T03:21:35.000Z</time>
      </trkpt>
      <trkpt lat="41.086098" lon="-6.745808">
        <ele>441.8</ele>
        <time>1970-01-01T03:21:36.000Z</time>
      </trkpt>
      <trkpt lat="41.086087" lon="-6.74579">
        <ele>441.9</ele>
        <time>1970-01-01T03:21:37.000Z</time>
      </trkpt>
      <trkpt lat="41.086075" lon="-6.745773">
        <ele>442.7</ele>
        <time>1970-01-01T03:21:38.000Z</time>
      </trkpt>
      <trkpt lat="41.086063" lon="-6.745755">
        <ele>442.8</ele>
        <time>1970-01-01T03:21:39.000Z</time>
      </trkpt>
      <trkpt lat="41.08605" lon="-6.745741">
        <ele>442.8</ele>
        <time>1970-01-01T03:21:40.000Z</time>
      </trkpt>
      <trkpt lat="41.086038" lon="-6.745724">
        <ele>443.8</ele>
        <time>1970-01-01T03:21:41.000Z</time>
      </trkpt>
      <trkpt lat="41.086027" lon="-6.745706">
        <ele>443.8</ele>
        <time>1970-01-01T03:21:42.000Z</time>
      </trkpt>
      <trkpt lat="41.086015" lon="-6.745687">
        <ele>445.4</ele>
        <time>1970-01-01T03:21:43.000Z</time>
      </trkpt>
      <trkpt lat="41.086002" lon="-6.745668">
        <ele>444.8</ele>
        <time>1970-01-01T03:21:44.000Z</time>
      </trkpt>
      <trkpt lat="41.085988" lon="-6.74565">
        <ele>444.9</ele>
        <time>1970-01-01T03:21:45.000Z</time>
      </trkpt>
      <trkpt lat="41.085974" lon="-6.745629">
        <ele>446</ele>
        <time>1970-01-01T03:21:46.000Z</time>
      </trkpt>
      <trkpt lat="41.085961" lon="-6.745609">
        <ele>446</ele>
        <time>1970-01-01T03:21:47.000Z</time>
      </trkpt>
      <trkpt lat="41.085949" lon="-6.745588">
        <ele>448</ele>
        <time>1970-01-01T03:21:48.000Z</time>
      </trkpt>
      <trkpt lat="41.085935" lon="-6.745567">
        <ele>448.1</ele>
        <time>1970-01-01T03:21:49.000Z</time>
      </trkpt>
      <trkpt lat="41.08592" lon="-6.745546">
        <ele>449.7</ele>
        <time>1970-01-01T03:21:50.000Z</time>
      </trkpt>
      <trkpt lat="41.085903" lon="-6.745529">
        <ele>449.1</ele>
        <time>1970-01-01T03:21:51.000Z</time>
      </trkpt>
      <trkpt lat="41.085885" lon="-6.745513">
        <ele>450.1</ele>
        <time>1970-01-01T03:21:52.000Z</time>
      </trkpt>
      <trkpt lat="41.085866" lon="-6.745499">
        <ele>450.2</ele>
        <time>1970-01-01T03:21:53.000Z</time>
      </trkpt>
      <trkpt lat="41.085847" lon="-6.745484">
        <ele>449.7</ele>
        <time>1970-01-01T03:21:54.000Z</time>
      </trkpt>
      <trkpt lat="41.085829" lon="-6.745469">
        <ele>451.2</ele>
        <time>1970-01-01T03:21:55.000Z</time>
      </trkpt>
      <trkpt lat="41.08581" lon="-6.745455">
        <ele>450.7</ele>
        <time>1970-01-01T03:21:56.000Z</time>
      </trkpt>
      <trkpt lat="41.085789" lon="-6.745445">
        <ele>450.7</ele>
        <time>1970-01-01T03:21:57.000Z</time>
      </trkpt>
      <trkpt lat="41.085766" lon="-6.745439">
        <ele>450.3</ele>
        <time>1970-01-01T03:21:58.000Z</time>
      </trkpt>
      <trkpt lat="41.085741" lon="-6.745439">
        <ele>449.9</ele>
        <time>1970-01-01T03:21:59.000Z</time>
      </trkpt>
      <trkpt lat="41.085716" lon="-6.745444">
        <ele>449.6</ele>
        <time>1970-01-01T03:22:00.000Z</time>
      </trkpt>
      <trkpt lat="41.085692" lon="-6.745452">
        <ele>449.6</ele>
        <time>1970-01-01T03:22:01.000Z</time>
      </trkpt>
      <trkpt lat="41.085692" lon="-6.745452">
        <ele>449.6</ele>
        <time>1970-01-01T03:22:02.000Z</time>
      </trkpt>
      <trkpt lat="41.085665" lon="-6.745463">
        <ele>449.3</ele>
        <time>1970-01-01T03:22:03.000Z</time>
      </trkpt>
      <trkpt lat="41.085638" lon="-6.745474">
        <ele>449</ele>
        <time>1970-01-01T03:22:04.000Z</time>
      </trkpt>
      <trkpt lat="41.08561" lon="-6.745486">
        <ele>447.3</ele>
        <time>1970-01-01T03:22:05.000Z</time>
      </trkpt>
      <trkpt lat="41.085585" lon="-6.745496">
        <ele>447</ele>
        <time>1970-01-01T03:22:06.000Z</time>
      </trkpt>
      <trkpt lat="41.085559" lon="-6.745507">
        <ele>446.8</ele>
        <time>1970-01-01T03:22:07.000Z</time>
      </trkpt>
      <trkpt lat="41.085534" lon="-6.74552">
        <ele>445.3</ele>
        <time>1970-01-01T03:22:08.000Z</time>
      </trkpt>
      <trkpt lat="41.085509" lon="-6.745534">
        <ele>445.2</ele>
        <time>1970-01-01T03:22:09.000Z</time>
      </trkpt>
      <trkpt lat="41.085484" lon="-6.74555">
        <ele>445.1</ele>
        <time>1970-01-01T03:22:10.000Z</time>
      </trkpt>
      <trkpt lat="41.085458" lon="-6.745563">
        <ele>443.4</ele>
        <time>1970-01-01T03:22:11.000Z</time>
      </trkpt>
      <trkpt lat="41.085431" lon="-6.745574">
        <ele>443.4</ele>
        <time>1970-01-01T03:22:12.000Z</time>
      </trkpt>
      <trkpt lat="41.085403" lon="-6.745583">
        <ele>443.5</ele>
        <time>1970-01-01T03:22:13.000Z</time>
      </trkpt>
      <trkpt lat="41.085375" lon="-6.74559">
        <ele>443.5</ele>
        <time>1970-01-01T03:22:14.000Z</time>
      </trkpt>
      <trkpt lat="41.085346" lon="-6.745596">
        <ele>443.6</ele>
        <time>1970-01-01T03:22:15.000Z</time>
      </trkpt>
      <trkpt lat="41.085316" lon="-6.745599">
        <ele>443.8</ele>
        <time>1970-01-01T03:22:16.000Z</time>
      </trkpt>
      <trkpt lat="41.085285" lon="-6.7456">
        <ele>444</ele>
        <time>1970-01-01T03:22:17.000Z</time>
      </trkpt>
      <trkpt lat="41.085254" lon="-6.745601">
        <ele>444.2</ele>
        <time>1970-01-01T03:22:18.000Z</time>
      </trkpt>
      <trkpt lat="41.085223" lon="-6.745602">
        <ele>444.5</ele>
        <time>1970-01-01T03:22:19.000Z</time>
      </trkpt>
      <trkpt lat="41.085192" lon="-6.745602">
        <ele>444.8</ele>
        <time>1970-01-01T03:22:20.000Z</time>
      </trkpt>
      <trkpt lat="41.085161" lon="-6.7456">
        <ele>445.2</ele>
        <time>1970-01-01T03:22:21.000Z</time>
      </trkpt>
      <trkpt lat="41.08513" lon="-6.745597">
        <ele>445.6</ele>
        <time>1970-01-01T03:22:22.000Z</time>
      </trkpt>
      <trkpt lat="41.0851" lon="-6.745593">
        <ele>446</ele>
        <time>1970-01-01T03:22:23.000Z</time>
      </trkpt>
      <trkpt lat="41.085069" lon="-6.745589">
        <ele>446.5</ele>
        <time>1970-01-01T03:22:24.000Z</time>
      </trkpt>
      <trkpt lat="41.085039" lon="-6.745585">
        <ele>447</ele>
        <time>1970-01-01T03:22:25.000Z</time>
      </trkpt>
      <trkpt lat="41.085009" lon="-6.745582">
        <ele>447.5</ele>
        <time>1970-01-01T03:22:26.000Z</time>
      </trkpt>
      <trkpt lat="41.084979" lon="-6.745578">
        <ele>448</ele>
        <time>1970-01-01T03:22:27.000Z</time>
      </trkpt>
      <trkpt lat="41.084951" lon="-6.745573">
        <ele>448</ele>
        <time>1970-01-01T03:22:28.000Z</time>
      </trkpt>
      <trkpt lat="41.084923" lon="-6.745567">
        <ele>448.5</ele>
        <time>1970-01-01T03:22:29.000Z</time>
      </trkpt>
      <trkpt lat="41.084896" lon="-6.74556">
        <ele>450.6</ele>
        <time>1970-01-01T03:22:30.000Z</time>
      </trkpt>
      <trkpt lat="41.084869" lon="-6.745551">
        <ele>451.1</ele>
        <time>1970-01-01T03:22:31.000Z</time>
      </trkpt>
      <trkpt lat="41.084843" lon="-6.745541">
        <ele>451.6</ele>
        <time>1970-01-01T03:22:32.000Z</time>
      </trkpt>
      <trkpt lat="41.084816" lon="-6.745531">
        <ele>452.2</ele>
        <time>1970-01-01T03:22:33.000Z</time>
      </trkpt>
      <trkpt lat="41.084789" lon="-6.745521">
        <ele>452.2</ele>
        <time>1970-01-01T03:22:34.000Z</time>
      </trkpt>
      <trkpt lat="41.084761" lon="-6.745511">
        <ele>454.2</ele>
        <time>1970-01-01T03:22:35.000Z</time>
      </trkpt>
      <trkpt lat="41.084731" lon="-6.745501">
        <ele>454.8</ele>
        <time>1970-01-01T03:22:36.000Z</time>
      </trkpt>
      <trkpt lat="41.0847" lon="-6.745493">
        <ele>455.4</ele>
        <time>1970-01-01T03:22:37.000Z</time>
      </trkpt>
      <trkpt lat="41.084669" lon="-6.745488">
        <ele>456</ele>
        <time>1970-01-01T03:22:38.000Z</time>
      </trkpt>
      <trkpt lat="41.084637" lon="-6.745485">
        <ele>456.6</ele>
        <time>1970-01-01T03:22:39.000Z</time>
      </trkpt>
      <trkpt lat="41.084605" lon="-6.745487">
        <ele>457.3</ele>
        <time>1970-01-01T03:22:40.000Z</time>
      </trkpt>
      <trkpt lat="41.084573" lon="-6.745492">
        <ele>457.9</ele>
        <time>1970-01-01T03:22:41.000Z</time>
      </trkpt>
      <trkpt lat="41.084544" lon="-6.745502">
        <ele>458.6</ele>
        <time>1970-01-01T03:22:42.000Z</time>
      </trkpt>
      <trkpt lat="41.084518" lon="-6.745516">
        <ele>459.3</ele>
        <time>1970-01-01T03:22:43.000Z</time>
      </trkpt>
      <trkpt lat="41.084497" lon="-6.745535">
        <ele>457.9</ele>
        <time>1970-01-01T03:22:44.000Z</time>
      </trkpt>
      <trkpt lat="41.084477" lon="-6.745557">
        <ele>458.7</ele>
        <time>1970-01-01T03:22:45.000Z</time>
      </trkpt>
      <trkpt lat="41.084459" lon="-6.745583">
        <ele>458</ele>
        <time>1970-01-01T03:22:46.000Z</time>
      </trkpt>
      <trkpt lat="41.084443" lon="-6.74561">
        <ele>455.7</ele>
        <time>1970-01-01T03:22:47.000Z</time>
      </trkpt>
      <trkpt lat="41.084428" lon="-6.745639">
        <ele>456.5</ele>
        <time>1970-01-01T03:22:48.000Z</time>
      </trkpt>
      <trkpt lat="41.084413" lon="-6.745667">
        <ele>455.1</ele>
        <time>1970-01-01T03:22:49.000Z</time>
      </trkpt>
      <trkpt lat="41.084396" lon="-6.745695">
        <ele>454.5</ele>
        <time>1970-01-01T03:22:50.000Z</time>
      </trkpt>
      <trkpt lat="41.084376" lon="-6.745722">
        <ele>454.5</ele>
        <time>1970-01-01T03:22:51.000Z</time>
      </trkpt>
      <trkpt lat="41.084357" lon="-6.745747">
        <ele>454</ele>
        <time>1970-01-01T03:22:52.000Z</time>
      </trkpt>
      <trkpt lat="41.084336" lon="-6.745768">
        <ele>454</ele>
        <time>1970-01-01T03:22:53.000Z</time>
      </trkpt>
      <trkpt lat="41.084315" lon="-6.745785">
        <ele>453.5</ele>
        <time>1970-01-01T03:22:54.000Z</time>
      </trkpt>
      <trkpt lat="41.084293" lon="-6.745802">
        <ele>454.4</ele>
        <time>1970-01-01T03:22:55.000Z</time>
      </trkpt>
      <trkpt lat="41.084271" lon="-6.745818">
        <ele>454.4</ele>
        <time>1970-01-01T03:22:56.000Z</time>
      </trkpt>
      <trkpt lat="41.084248" lon="-6.745835">
        <ele>454</ele>
        <time>1970-01-01T03:22:57.000Z</time>
      </trkpt>
      <trkpt lat="41.084225" lon="-6.745851">
        <ele>454.9</ele>
        <time>1970-01-01T03:22:58.000Z</time>
      </trkpt>
      <trkpt lat="41.084202" lon="-6.745865">
        <ele>454.7</ele>
        <time>1970-01-01T03:22:59.000Z</time>
      </trkpt>
      <trkpt lat="41.084179" lon="-6.745876">
        <ele>454.7</ele>
        <time>1970-01-01T03:23:00.000Z</time>
      </trkpt>
      <trkpt lat="41.084156" lon="-6.745886">
        <ele>455.7</ele>
        <time>1970-01-01T03:23:01.000Z</time>
      </trkpt>
      <trkpt lat="41.084135" lon="-6.745894">
        <ele>456.8</ele>
        <time>1970-01-01T03:23:02.000Z</time>
      </trkpt>
      <trkpt lat="41.084115" lon="-6.745903">
        <ele>456.8</ele>
        <time>1970-01-01T03:23:03.000Z</time>
      </trkpt>
      <trkpt lat="41.084095" lon="-6.745909">
        <ele>456.7</ele>
        <time>1970-01-01T03:23:04.000Z</time>
      </trkpt>
      <trkpt lat="41.084075" lon="-6.745913">
        <ele>456.8</ele>
        <time>1970-01-01T03:23:05.000Z</time>
      </trkpt>
      <trkpt lat="41.084054" lon="-6.745914">
        <ele>457.8</ele>
        <time>1970-01-01T03:23:06.000Z</time>
      </trkpt>
      <trkpt lat="41.084032" lon="-6.745915">
        <ele>458.7</ele>
        <time>1970-01-01T03:23:07.000Z</time>
      </trkpt>
      <trkpt lat="41.084009" lon="-6.745915">
        <ele>459.6</ele>
        <time>1970-01-01T03:23:08.000Z</time>
      </trkpt>
      <trkpt lat="41.083987" lon="-6.745915">
        <ele>459.7</ele>
        <time>1970-01-01T03:23:09.000Z</time>
      </trkpt>
      <trkpt lat="41.083964" lon="-6.745911">
        <ele>460.6</ele>
        <time>1970-01-01T03:23:10.000Z</time>
      </trkpt>
      <trkpt lat="41.08394" lon="-6.745903">
        <ele>462.6</ele>
        <time>1970-01-01T03:23:11.000Z</time>
      </trkpt>
      <trkpt lat="41.083914" lon="-6.745894">
        <ele>462.6</ele>
        <time>1970-01-01T03:23:12.000Z</time>
      </trkpt>
      <trkpt lat="41.083887" lon="-6.745884">
        <ele>463.5</ele>
        <time>1970-01-01T03:23:13.000Z</time>
      </trkpt>
      <trkpt lat="41.083861" lon="-6.745875">
        <ele>464.4</ele>
        <time>1970-01-01T03:23:14.000Z</time>
      </trkpt>
      <trkpt lat="41.083835" lon="-6.745866">
        <ele>465.2</ele>
        <time>1970-01-01T03:23:15.000Z</time>
      </trkpt>
      <trkpt lat="41.083812" lon="-6.745855">
        <ele>467</ele>
        <time>1970-01-01T03:23:16.000Z</time>
      </trkpt>
      <trkpt lat="41.083792" lon="-6.74584">
        <ele>467</ele>
        <time>1970-01-01T03:23:17.000Z</time>
      </trkpt>
      <trkpt lat="41.083776" lon="-6.745825">
        <ele>467.7</ele>
        <time>1970-01-01T03:23:18.000Z</time>
      </trkpt>
      <trkpt lat="41.083763" lon="-6.745811">
        <ele>468.8</ele>
        <time>1970-01-01T03:23:19.000Z</time>
      </trkpt>
      <trkpt lat="41.083751" lon="-6.7458">
        <ele>468.8</ele>
        <time>1970-01-01T03:23:20.000Z</time>
      </trkpt>
      <trkpt lat="41.083738" lon="-6.745788">
        <ele>469.3</ele>
        <time>1970-01-01T03:23:21.000Z</time>
      </trkpt>
      <trkpt lat="41.083724" lon="-6.745773">
        <ele>470.4</ele>
        <time>1970-01-01T03:23:22.000Z</time>
      </trkpt>
      <trkpt lat="41.083709" lon="-6.745756">
        <ele>470.9</ele>
        <time>1970-01-01T03:23:23.000Z</time>
      </trkpt>
      <trkpt lat="41.083697" lon="-6.745737">
        <ele>471</ele>
        <time>1970-01-01T03:23:24.000Z</time>
      </trkpt>
      <trkpt lat="41.083687" lon="-6.745717">
        <ele>472.1</ele>
        <time>1970-01-01T03:23:25.000Z</time>
      </trkpt>
      <trkpt lat="41.08368" lon="-6.745696">
        <ele>472.6</ele>
        <time>1970-01-01T03:23:26.000Z</time>
      </trkpt>
      <trkpt lat="41.083677" lon="-6.745676">
        <ele>473.7</ele>
        <time>1970-01-01T03:23:27.000Z</time>
      </trkpt>
      <trkpt lat="41.083679" lon="-6.745658">
        <ele>473.7</ele>
        <time>1970-01-01T03:23:28.000Z</time>
      </trkpt>
      <trkpt lat="41.083685" lon="-6.745643">
        <ele>474.8</ele>
        <time>1970-01-01T03:23:29.000Z</time>
      </trkpt>
      <trkpt lat="41.083696" lon="-6.745628">
        <ele>474.4</ele>
        <time>1970-01-01T03:23:30.000Z</time>
      </trkpt>
      <trkpt lat="41.083707" lon="-6.745614">
        <ele>474.4</ele>
        <time>1970-01-01T03:23:31.000Z</time>
      </trkpt>
      <trkpt lat="41.083718" lon="-6.7456">
        <ele>476.2</ele>
        <time>1970-01-01T03:23:32.000Z</time>
      </trkpt>
      <trkpt lat="41.083728" lon="-6.745586">
        <ele>475.8</ele>
        <time>1970-01-01T03:23:33.000Z</time>
      </trkpt>
      <trkpt lat="41.083738" lon="-6.745572">
        <ele>475.8</ele>
        <time>1970-01-01T03:23:34.000Z</time>
      </trkpt>
      <trkpt lat="41.08375" lon="-6.745561">
        <ele>476.9</ele>
        <time>1970-01-01T03:23:35.000Z</time>
      </trkpt>
      <trkpt lat="41.083763" lon="-6.745551">
        <ele>476.5</ele>
        <time>1970-01-01T03:23:36.000Z</time>
      </trkpt>
      <trkpt lat="41.083777" lon="-6.745541">
        <ele>476.5</ele>
        <time>1970-01-01T03:23:37.000Z</time>
      </trkpt>
      <trkpt lat="41.083789" lon="-6.745529">
        <ele>476</ele>
        <time>1970-01-01T03:23:38.000Z</time>
      </trkpt>
      <trkpt lat="41.083798" lon="-6.745515">
        <ele>477.1</ele>
        <time>1970-01-01T03:23:39.000Z</time>
      </trkpt>
      <trkpt lat="41.083808" lon="-6.7455">
        <ele>477.1</ele>
        <time>1970-01-01T03:23:40.000Z</time>
      </trkpt>
      <trkpt lat="41.083819" lon="-6.745487">
        <ele>476.6</ele>
        <time>1970-01-01T03:23:41.000Z</time>
      </trkpt>
      <trkpt lat="41.083832" lon="-6.745478">
        <ele>476.7</ele>
        <time>1970-01-01T03:23:42.000Z</time>
      </trkpt>
      <trkpt lat="41.083847" lon="-6.745471">
        <ele>477.7</ele>
        <time>1970-01-01T03:23:43.000Z</time>
      </trkpt>
      <trkpt lat="41.083862" lon="-6.745463">
        <ele>477.2</ele>
        <time>1970-01-01T03:23:44.000Z</time>
      </trkpt>
      <trkpt lat="41.083877" lon="-6.745455">
        <ele>477.2</ele>
        <time>1970-01-01T03:23:45.000Z</time>
      </trkpt>
      <trkpt lat="41.08389" lon="-6.745444">
        <ele>476.7</ele>
        <time>1970-01-01T03:23:46.000Z</time>
      </trkpt>
      <trkpt lat="41.083904" lon="-6.745434">
        <ele>476.7</ele>
        <time>1970-01-01T03:23:47.000Z</time>
      </trkpt>
      <trkpt lat="41.083916" lon="-6.745423">
        <ele>477.3</ele>
        <time>1970-01-01T03:23:48.000Z</time>
      </trkpt>
      <trkpt lat="41.083926" lon="-6.745407">
        <ele>477.3</ele>
        <time>1970-01-01T03:23:49.000Z</time>
      </trkpt>
      <trkpt lat="41.083933" lon="-6.745387">
        <ele>478.5</ele>
        <time>1970-01-01T03:23:50.000Z</time>
      </trkpt>
      <trkpt lat="41.083939" lon="-6.745366">
        <ele>478.6</ele>
        <time>1970-01-01T03:23:51.000Z</time>
      </trkpt>
      <trkpt lat="41.083945" lon="-6.745347">
        <ele>479.3</ele>
        <time>1970-01-01T03:23:52.000Z</time>
      </trkpt>
      <trkpt lat="41.083954" lon="-6.745332">
        <ele>479.3</ele>
        <time>1970-01-01T03:23:53.000Z</time>
      </trkpt>
      <trkpt lat="41.083966" lon="-6.74532">
        <ele>479.4</ele>
        <time>1970-01-01T03:23:54.000Z</time>
      </trkpt>
      <trkpt lat="41.08398" lon="-6.745313">
        <ele>478.9</ele>
        <time>1970-01-01T03:23:55.000Z</time>
      </trkpt>
      <trkpt lat="41.083994" lon="-6.745305">
        <ele>480.3</ele>
        <time>1970-01-01T03:23:56.000Z</time>
      </trkpt>
      <trkpt lat="41.084011" lon="-6.745297">
        <ele>479.8</ele>
        <time>1970-01-01T03:23:57.000Z</time>
      </trkpt>
      <trkpt lat="41.084026" lon="-6.745287">
        <ele>479.8</ele>
        <time>1970-01-01T03:23:58.000Z</time>
      </trkpt>
      <trkpt lat="41.084041" lon="-6.745276">
        <ele>479.8</ele>
        <time>1970-01-01T03:23:59.000Z</time>
      </trkpt>
      <trkpt lat="41.084055" lon="-6.745262">
        <ele>480.7</ele>
        <time>1970-01-01T03:24:00.000Z</time>
      </trkpt>
      <trkpt lat="41.084066" lon="-6.745247">
        <ele>480.7</ele>
        <time>1970-01-01T03:24:01.000Z</time>
      </trkpt>
      <trkpt lat="41.084076" lon="-6.745228">
        <ele>480.1</ele>
        <time>1970-01-01T03:24:02.000Z</time>
      </trkpt>
      <trkpt lat="41.084085" lon="-6.745209">
        <ele>481.5</ele>
        <time>1970-01-01T03:24:03.000Z</time>
      </trkpt>
      <trkpt lat="41.084094" lon="-6.745188">
        <ele>481.6</ele>
        <time>1970-01-01T03:24:04.000Z</time>
      </trkpt>
      <trkpt lat="41.084102" lon="-6.745168">
        <ele>482.9</ele>
        <time>1970-01-01T03:24:05.000Z</time>
      </trkpt>
      <trkpt lat="41.084109" lon="-6.745147">
        <ele>482.3</ele>
        <time>1970-01-01T03:24:06.000Z</time>
      </trkpt>
      <trkpt lat="41.084118" lon="-6.745126">
        <ele>483.6</ele>
        <time>1970-01-01T03:24:07.000Z</time>
      </trkpt>
      <trkpt lat="41.084128" lon="-6.745105">
        <ele>483.6</ele>
        <time>1970-01-01T03:24:08.000Z</time>
      </trkpt>
      <trkpt lat="41.08414" lon="-6.745086">
        <ele>484.3</ele>
        <time>1970-01-01T03:24:09.000Z</time>
      </trkpt>
      <trkpt lat="41.084152" lon="-6.745069">
        <ele>484.3</ele>
        <time>1970-01-01T03:24:10.000Z</time>
      </trkpt>
      <trkpt lat="41.084164" lon="-6.745054">
        <ele>484.3</ele>
        <time>1970-01-01T03:24:11.000Z</time>
      </trkpt>
      <trkpt lat="41.084176" lon="-6.745038">
        <ele>484.9</ele>
        <time>1970-01-01T03:24:12.000Z</time>
      </trkpt>
      <trkpt lat="41.084189" lon="-6.745021">
        <ele>485</ele>
        <time>1970-01-01T03:24:13.000Z</time>
      </trkpt>
      <trkpt lat="41.084203" lon="-6.745004">
        <ele>486.3</ele>
        <time>1970-01-01T03:24:14.000Z</time>
      </trkpt>
      <trkpt lat="41.084218" lon="-6.744987">
        <ele>485.7</ele>
        <time>1970-01-01T03:24:15.000Z</time>
      </trkpt>
      <trkpt lat="41.084233" lon="-6.744971">
        <ele>485.7</ele>
        <time>1970-01-01T03:24:16.000Z</time>
      </trkpt>
      <trkpt lat="41.084248" lon="-6.744956">
        <ele>486.5</ele>
        <time>1970-01-01T03:24:17.000Z</time>
      </trkpt>
      <trkpt lat="41.084263" lon="-6.744942">
        <ele>486.5</ele>
        <time>1970-01-01T03:24:18.000Z</time>
      </trkpt>
      <trkpt lat="41.084277" lon="-6.744927">
        <ele>486</ele>
        <time>1970-01-01T03:24:19.000Z</time>
      </trkpt>
      <trkpt lat="41.084291" lon="-6.744912">
        <ele>487.4</ele>
        <time>1970-01-01T03:24:20.000Z</time>
      </trkpt>
      <trkpt lat="41.084307" lon="-6.744896">
        <ele>486.9</ele>
        <time>1970-01-01T03:24:21.000Z</time>
      </trkpt>
      <trkpt lat="41.084324" lon="-6.744882">
        <ele>486.9</ele>
        <time>1970-01-01T03:24:22.000Z</time>
      </trkpt>
      <trkpt lat="41.084343" lon="-6.744868">
        <ele>487.9</ele>
        <time>1970-01-01T03:24:23.000Z</time>
      </trkpt>
      <trkpt lat="41.084363" lon="-6.744854">
        <ele>487.9</ele>
        <time>1970-01-01T03:24:24.000Z</time>
      </trkpt>
      <trkpt lat="41.084383" lon="-6.744839">
        <ele>487.4</ele>
        <time>1970-01-01T03:24:25.000Z</time>
      </trkpt>
      <trkpt lat="41.084403" lon="-6.744825">
        <ele>488.5</ele>
        <time>1970-01-01T03:24:26.000Z</time>
      </trkpt>
      <trkpt lat="41.084421" lon="-6.744809">
        <ele>488.5</ele>
        <time>1970-01-01T03:24:27.000Z</time>
      </trkpt>
      <trkpt lat="41.08444" lon="-6.744792">
        <ele>488</ele>
        <time>1970-01-01T03:24:28.000Z</time>
      </trkpt>
      <trkpt lat="41.084459" lon="-6.744776">
        <ele>489.7</ele>
        <time>1970-01-01T03:24:29.000Z</time>
      </trkpt>
      <trkpt lat="41.084481" lon="-6.744763">
        <ele>489.2</ele>
        <time>1970-01-01T03:24:30.000Z</time>
      </trkpt>
      <trkpt lat="41.084502" lon="-6.74475">
        <ele>488.8</ele>
        <time>1970-01-01T03:24:31.000Z</time>
      </trkpt>
      <trkpt lat="41.084522" lon="-6.744737">
        <ele>490.4</ele>
        <time>1970-01-01T03:24:32.000Z</time>
      </trkpt>
      <trkpt lat="41.084541" lon="-6.744725">
        <ele>490</ele>
        <time>1970-01-01T03:24:33.000Z</time>
      </trkpt>
      <trkpt lat="41.084561" lon="-6.744714">
        <ele>489.6</ele>
        <time>1970-01-01T03:24:34.000Z</time>
      </trkpt>
      <trkpt lat="41.084581" lon="-6.744704">
        <ele>491.2</ele>
        <time>1970-01-01T03:24:35.000Z</time>
      </trkpt>
      <trkpt lat="41.084602" lon="-6.744695">
        <ele>490.7</ele>
        <time>1970-01-01T03:24:36.000Z</time>
      </trkpt>
      <trkpt lat="41.084624" lon="-6.744686">
        <ele>490.2</ele>
        <time>1970-01-01T03:24:37.000Z</time>
      </trkpt>
      <trkpt lat="41.084646" lon="-6.744677">
        <ele>490.3</ele>
        <time>1970-01-01T03:24:38.000Z</time>
      </trkpt>
      <trkpt lat="41.084668" lon="-6.744669">
        <ele>489.7</ele>
        <time>1970-01-01T03:24:39.000Z</time>
      </trkpt>
      <trkpt lat="41.084688" lon="-6.744662">
        <ele>489.8</ele>
        <time>1970-01-01T03:24:40.000Z</time>
      </trkpt>
      <trkpt lat="41.084709" lon="-6.744656">
        <ele>490.8</ele>
        <time>1970-01-01T03:24:41.000Z</time>
      </trkpt>
      <trkpt lat="41.08473" lon="-6.74465">
        <ele>490.3</ele>
        <time>1970-01-01T03:24:42.000Z</time>
      </trkpt>
      <trkpt lat="41.084751" lon="-6.744643">
        <ele>490.3</ele>
        <time>1970-01-01T03:24:43.000Z</time>
      </trkpt>
      <trkpt lat="41.084771" lon="-6.744637">
        <ele>489.8</ele>
        <time>1970-01-01T03:24:44.000Z</time>
      </trkpt>
      <trkpt lat="41.084793" lon="-6.74463">
        <ele>489.3</ele>
        <time>1970-01-01T03:24:45.000Z</time>
      </trkpt>
      <trkpt lat="41.084814" lon="-6.744621">
        <ele>489.3</ele>
        <time>1970-01-01T03:24:46.000Z</time>
      </trkpt>
      <trkpt lat="41.084835" lon="-6.744612">
        <ele>490.3</ele>
        <time>1970-01-01T03:24:47.000Z</time>
      </trkpt>
      <trkpt lat="41.084856" lon="-6.744603">
        <ele>489.9</ele>
        <time>1970-01-01T03:24:48.000Z</time>
      </trkpt>
      <trkpt lat="41.084877" lon="-6.744592">
        <ele>489.9</ele>
        <time>1970-01-01T03:24:49.000Z</time>
      </trkpt>
      <trkpt lat="41.084897" lon="-6.744582">
        <ele>489.5</ele>
        <time>1970-01-01T03:24:50.000Z</time>
      </trkpt>
      <trkpt lat="41.084917" lon="-6.74457">
        <ele>490.6</ele>
        <time>1970-01-01T03:24:51.000Z</time>
      </trkpt>
      <trkpt lat="41.084937" lon="-6.744556">
        <ele>490.7</ele>
        <time>1970-01-01T03:24:52.000Z</time>
      </trkpt>
      <trkpt lat="41.084956" lon="-6.744541">
        <ele>490.3</ele>
        <time>1970-01-01T03:24:53.000Z</time>
      </trkpt>
      <trkpt lat="41.084976" lon="-6.744526">
        <ele>491.9</ele>
        <time>1970-01-01T03:24:54.000Z</time>
      </trkpt>
      <trkpt lat="41.084995" lon="-6.74451">
        <ele>491.5</ele>
        <time>1970-01-01T03:24:55.000Z</time>
      </trkpt>
      <trkpt lat="41.085013" lon="-6.744495">
        <ele>491.1</ele>
        <time>1970-01-01T03:24:56.000Z</time>
      </trkpt>
      <trkpt lat="41.08503" lon="-6.74448">
        <ele>492.8</ele>
        <time>1970-01-01T03:24:57.000Z</time>
      </trkpt>
      <trkpt lat="41.085048" lon="-6.744464">
        <ele>492.4</ele>
        <time>1970-01-01T03:24:58.000Z</time>
      </trkpt>
      <trkpt lat="41.085065" lon="-6.744445">
        <ele>494.1</ele>
        <time>1970-01-01T03:24:59.000Z</time>
      </trkpt>
      <trkpt lat="41.085082" lon="-6.744427">
        <ele>493.7</ele>
        <time>1970-01-01T03:25:00.000Z</time>
      </trkpt>
      <trkpt lat="41.0851" lon="-6.744408">
        <ele>493.8</ele>
        <time>1970-01-01T03:25:01.000Z</time>
      </trkpt>
      <trkpt lat="41.085118" lon="-6.744389">
        <ele>495.1</ele>
        <time>1970-01-01T03:25:02.000Z</time>
      </trkpt>
      <trkpt lat="41.085138" lon="-6.74437">
        <ele>495.2</ele>
        <time>1970-01-01T03:25:03.000Z</time>
      </trkpt>
      <trkpt lat="41.085157" lon="-6.744351">
        <ele>496.6</ele>
        <time>1970-01-01T03:25:04.000Z</time>
      </trkpt>
      <trkpt lat="41.085178" lon="-6.744333">
        <ele>496.4</ele>
        <time>1970-01-01T03:25:05.000Z</time>
      </trkpt>
      <trkpt lat="41.085199" lon="-6.744315">
        <ele>498.1</ele>
        <time>1970-01-01T03:25:06.000Z</time>
      </trkpt>
      <trkpt lat="41.08522" lon="-6.744297">
        <ele>497.9</ele>
        <time>1970-01-01T03:25:07.000Z</time>
      </trkpt>
      <trkpt lat="41.08524" lon="-6.744279">
        <ele>497.8</ele>
        <time>1970-01-01T03:25:08.000Z</time>
      </trkpt>
      <trkpt lat="41.085261" lon="-6.744262">
        <ele>499.5</ele>
        <time>1970-01-01T03:25:09.000Z</time>
      </trkpt>
      <trkpt lat="41.085283" lon="-6.744244">
        <ele>499.4</ele>
        <time>1970-01-01T03:25:10.000Z</time>
      </trkpt>
      <trkpt lat="41.085305" lon="-6.744226">
        <ele>500.8</ele>
        <time>1970-01-01T03:25:11.000Z</time>
      </trkpt>
      <trkpt lat="41.085328" lon="-6.744207">
        <ele>500.9</ele>
        <time>1970-01-01T03:25:12.000Z</time>
      </trkpt>
      <trkpt lat="41.085352" lon="-6.744187">
        <ele>502.3</ele>
        <time>1970-01-01T03:25:13.000Z</time>
      </trkpt>
      <trkpt lat="41.085376" lon="-6.744166">
        <ele>502.1</ele>
        <time>1970-01-01T03:25:14.000Z</time>
      </trkpt>
      <trkpt lat="41.085399" lon="-6.744145">
        <ele>503.6</ele>
        <time>1970-01-01T03:25:15.000Z</time>
      </trkpt>
      <trkpt lat="41.085422" lon="-6.744126">
        <ele>503.5</ele>
        <time>1970-01-01T03:25:16.000Z</time>
      </trkpt>
      <trkpt lat="41.085445" lon="-6.744107">
        <ele>503.3</ele>
        <time>1970-01-01T03:25:17.000Z</time>
      </trkpt>
      <trkpt lat="41.085468" lon="-6.744089">
        <ele>504.6</ele>
        <time>1970-01-01T03:25:18.000Z</time>
      </trkpt>
      <trkpt lat="41.085491" lon="-6.744068">
        <ele>504.6</ele>
        <time>1970-01-01T03:25:19.000Z</time>
      </trkpt>
      <trkpt lat="41.085514" lon="-6.744046">
        <ele>505.9</ele>
        <time>1970-01-01T03:25:20.000Z</time>
      </trkpt>
      <trkpt lat="41.085537" lon="-6.744024">
        <ele>505.7</ele>
        <time>1970-01-01T03:25:21.000Z</time>
      </trkpt>
      <trkpt lat="41.085558" lon="-6.744003">
        <ele>507.1</ele>
        <time>1970-01-01T03:25:22.000Z</time>
      </trkpt>
      <trkpt lat="41.08558" lon="-6.743982">
        <ele>507</ele>
        <time>1970-01-01T03:25:23.000Z</time>
      </trkpt>
      <trkpt lat="41.085601" lon="-6.743961">
        <ele>508.3</ele>
        <time>1970-01-01T03:25:24.000Z</time>
      </trkpt>
      <trkpt lat="41.085623" lon="-6.74394">
        <ele>508.3</ele>
        <time>1970-01-01T03:25:25.000Z</time>
      </trkpt>
      <trkpt lat="41.085646" lon="-6.74392">
        <ele>509.7</ele>
        <time>1970-01-01T03:25:26.000Z</time>
      </trkpt>
      <trkpt lat="41.085669" lon="-6.7439">
        <ele>509.6</ele>
        <time>1970-01-01T03:25:27.000Z</time>
      </trkpt>
      <trkpt lat="41.085691" lon="-6.743882">
        <ele>511.1</ele>
        <time>1970-01-01T03:25:28.000Z</time>
      </trkpt>
      <trkpt lat="41.085714" lon="-6.743864">
        <ele>511</ele>
        <time>1970-01-01T03:25:29.000Z</time>
      </trkpt>
      <trkpt lat="41.085736" lon="-6.743845">
        <ele>512.3</ele>
        <time>1970-01-01T03:25:30.000Z</time>
      </trkpt>
      <trkpt lat="41.08576" lon="-6.743825">
        <ele>512.2</ele>
        <time>1970-01-01T03:25:31.000Z</time>
      </trkpt>
      <trkpt lat="41.085784" lon="-6.743804">
        <ele>512.2</ele>
        <time>1970-01-01T03:25:32.000Z</time>
      </trkpt>
      <trkpt lat="41.085807" lon="-6.743784">
        <ele>513.2</ele>
        <time>1970-01-01T03:25:33.000Z</time>
      </trkpt>
      <trkpt lat="41.085832" lon="-6.743765">
        <ele>513</ele>
        <time>1970-01-01T03:25:34.000Z</time>
      </trkpt>
      <trkpt lat="41.085858" lon="-6.743748">
        <ele>513.8</ele>
        <time>1970-01-01T03:25:35.000Z</time>
      </trkpt>
      <trkpt lat="41.085885" lon="-6.743731">
        <ele>513.9</ele>
        <time>1970-01-01T03:25:36.000Z</time>
      </trkpt>
      <trkpt lat="41.08591" lon="-6.743712">
        <ele>514.6</ele>
        <time>1970-01-01T03:25:37.000Z</time>
      </trkpt>
      <trkpt lat="41.085934" lon="-6.743692">
        <ele>514.3</ele>
        <time>1970-01-01T03:25:38.000Z</time>
      </trkpt>
      <trkpt lat="41.085958" lon="-6.743673">
        <ele>515</ele>
        <time>1970-01-01T03:25:39.000Z</time>
      </trkpt>
      <trkpt lat="41.085981" lon="-6.743653">
        <ele>515</ele>
        <time>1970-01-01T03:25:40.000Z</time>
      </trkpt>
      <trkpt lat="41.086004" lon="-6.743633">
        <ele>514.8</ele>
        <time>1970-01-01T03:25:41.000Z</time>
      </trkpt>
      <trkpt lat="41.086027" lon="-6.743613">
        <ele>515.3</ele>
        <time>1970-01-01T03:25:42.000Z</time>
      </trkpt>
      <trkpt lat="41.086051" lon="-6.743595">
        <ele>515</ele>
        <time>1970-01-01T03:25:43.000Z</time>
      </trkpt>
      <trkpt lat="41.086076" lon="-6.743577">
        <ele>515.8</ele>
        <time>1970-01-01T03:25:44.000Z</time>
      </trkpt>
      <trkpt lat="41.0861" lon="-6.743559">
        <ele>515.4</ele>
        <time>1970-01-01T03:25:45.000Z</time>
      </trkpt>
      <trkpt lat="41.086124" lon="-6.74354">
        <ele>515.7</ele>
        <time>1970-01-01T03:25:46.000Z</time>
      </trkpt>
      <trkpt lat="41.086148" lon="-6.743521">
        <ele>515.3</ele>
        <time>1970-01-01T03:25:47.000Z</time>
      </trkpt>
      <trkpt lat="41.08617" lon="-6.7435">
        <ele>516</ele>
        <time>1970-01-01T03:25:48.000Z</time>
      </trkpt>
      <trkpt lat="41.086193" lon="-6.743479">
        <ele>515.5</ele>
        <time>1970-01-01T03:25:49.000Z</time>
      </trkpt>
      <trkpt lat="41.086214" lon="-6.743457">
        <ele>515.7</ele>
        <time>1970-01-01T03:25:50.000Z</time>
      </trkpt>
      <trkpt lat="41.086233" lon="-6.743435">
        <ele>515.7</ele>
        <time>1970-01-01T03:25:51.000Z</time>
      </trkpt>
      <trkpt lat="41.086251" lon="-6.743411">
        <ele>515.7</ele>
        <time>1970-01-01T03:25:52.000Z</time>
      </trkpt>
      <trkpt lat="41.086267" lon="-6.743387">
        <ele>515.7</ele>
        <time>1970-01-01T03:25:53.000Z</time>
      </trkpt>
      <trkpt lat="41.086283" lon="-6.743362">
        <ele>515.6</ele>
        <time>1970-01-01T03:25:54.000Z</time>
      </trkpt>
      <trkpt lat="41.086298" lon="-6.743335">
        <ele>515.7</ele>
        <time>1970-01-01T03:25:55.000Z</time>
      </trkpt>
      <trkpt lat="41.086311" lon="-6.743305">
        <ele>516.1</ele>
        <time>1970-01-01T03:25:56.000Z</time>
      </trkpt>
      <trkpt lat="41.086323" lon="-6.743274">
        <ele>516.6</ele>
        <time>1970-01-01T03:25:57.000Z</time>
      </trkpt>
      <trkpt lat="41.086333" lon="-6.743243">
        <ele>517.1</ele>
        <time>1970-01-01T03:25:58.000Z</time>
      </trkpt>
      <trkpt lat="41.086339" lon="-6.743212">
        <ele>517.5</ele>
        <time>1970-01-01T03:25:59.000Z</time>
      </trkpt>
      <trkpt lat="41.08634" lon="-6.743182">
        <ele>517.9</ele>
        <time>1970-01-01T03:26:00.000Z</time>
      </trkpt>
      <trkpt lat="41.086341" lon="-6.743152">
        <ele>518.3</ele>
        <time>1970-01-01T03:26:01.000Z</time>
      </trkpt>
      <trkpt lat="41.086341" lon="-6.743123">
        <ele>518.7</ele>
        <time>1970-01-01T03:26:02.000Z</time>
      </trkpt>
      <trkpt lat="41.08634" lon="-6.743096">
        <ele>519.1</ele>
        <time>1970-01-01T03:26:03.000Z</time>
      </trkpt>
      <trkpt lat="41.086338" lon="-6.743068">
        <ele>519.4</ele>
        <time>1970-01-01T03:26:04.000Z</time>
      </trkpt>
      <trkpt lat="41.086336" lon="-6.74304">
        <ele>519.8</ele>
        <time>1970-01-01T03:26:05.000Z</time>
      </trkpt>
      <trkpt lat="41.086334" lon="-6.743013">
        <ele>520.2</ele>
        <time>1970-01-01T03:26:06.000Z</time>
      </trkpt>
      <trkpt lat="41.086333" lon="-6.742987">
        <ele>520.5</ele>
        <time>1970-01-01T03:26:07.000Z</time>
      </trkpt>
      <trkpt lat="41.086335" lon="-6.742962">
        <ele>520.9</ele>
        <time>1970-01-01T03:26:08.000Z</time>
      </trkpt>
      <trkpt lat="41.086337" lon="-6.742936">
        <ele>521.2</ele>
        <time>1970-01-01T03:26:09.000Z</time>
      </trkpt>
      <trkpt lat="41.086337" lon="-6.742911">
        <ele>521.6</ele>
        <time>1970-01-01T03:26:10.000Z</time>
      </trkpt>
      <trkpt lat="41.086335" lon="-6.742887">
        <ele>521.9</ele>
        <time>1970-01-01T03:26:11.000Z</time>
      </trkpt>
      <trkpt lat="41.086332" lon="-6.742864">
        <ele>522.2</ele>
        <time>1970-01-01T03:26:12.000Z</time>
      </trkpt>
      <trkpt lat="41.086329" lon="-6.742839">
        <ele>522.5</ele>
        <time>1970-01-01T03:26:13.000Z</time>
      </trkpt>
      <trkpt lat="41.086326" lon="-6.742814">
        <ele>522.9</ele>
        <time>1970-01-01T03:26:14.000Z</time>
      </trkpt>
      <trkpt lat="41.086323" lon="-6.742788">
        <ele>523.2</ele>
        <time>1970-01-01T03:26:15.000Z</time>
      </trkpt>
      <trkpt lat="41.08632" lon="-6.742762">
        <ele>523.6</ele>
        <time>1970-01-01T03:26:16.000Z</time>
      </trkpt>
      <trkpt lat="41.086318" lon="-6.742736">
        <ele>523.9</ele>
        <time>1970-01-01T03:26:17.000Z</time>
      </trkpt>
      <trkpt lat="41.086316" lon="-6.742708">
        <ele>524.3</ele>
        <time>1970-01-01T03:26:18.000Z</time>
      </trkpt>
      <trkpt lat="41.086315" lon="-6.74268">
        <ele>524.7</ele>
        <time>1970-01-01T03:26:19.000Z</time>
      </trkpt>
      <trkpt lat="41.086314" lon="-6.742652">
        <ele>525.1</ele>
        <time>1970-01-01T03:26:20.000Z</time>
      </trkpt>
      <trkpt lat="41.086312" lon="-6.742623">
        <ele>525.5</ele>
        <time>1970-01-01T03:26:21.000Z</time>
      </trkpt>
      <trkpt lat="41.086311" lon="-6.742596">
        <ele>525.8</ele>
        <time>1970-01-01T03:26:22.000Z</time>
      </trkpt>
      <trkpt lat="41.08631" lon="-6.742568">
        <ele>526.2</ele>
        <time>1970-01-01T03:26:23.000Z</time>
      </trkpt>
      <trkpt lat="41.086309" lon="-6.742541">
        <ele>526.6</ele>
        <time>1970-01-01T03:26:24.000Z</time>
      </trkpt>
      <trkpt lat="41.086308" lon="-6.742512">
        <ele>527</ele>
        <time>1970-01-01T03:26:25.000Z</time>
      </trkpt>
      <trkpt lat="41.086307" lon="-6.742483">
        <ele>527.3</ele>
        <time>1970-01-01T03:26:26.000Z</time>
      </trkpt>
      <trkpt lat="41.086307" lon="-6.742454">
        <ele>527.7</ele>
        <time>1970-01-01T03:26:27.000Z</time>
      </trkpt>
      <trkpt lat="41.086308" lon="-6.742425">
        <ele>528.1</ele>
        <time>1970-01-01T03:26:28.000Z</time>
      </trkpt>
      <trkpt lat="41.086308" lon="-6.742397">
        <ele>528.5</ele>
        <time>1970-01-01T03:26:29.000Z</time>
      </trkpt>
      <trkpt lat="41.086309" lon="-6.742368">
        <ele>528.9</ele>
        <time>1970-01-01T03:26:30.000Z</time>
      </trkpt>
      <trkpt lat="41.086309" lon="-6.742342">
        <ele>529.2</ele>
        <time>1970-01-01T03:26:31.000Z</time>
      </trkpt>
      <trkpt lat="41.086308" lon="-6.742315">
        <ele>529.6</ele>
        <time>1970-01-01T03:26:32.000Z</time>
      </trkpt>
      <trkpt lat="41.086306" lon="-6.742291">
        <ele>529.9</ele>
        <time>1970-01-01T03:26:33.000Z</time>
      </trkpt>
      <trkpt lat="41.086303" lon="-6.742267">
        <ele>530.3</ele>
        <time>1970-01-01T03:26:34.000Z</time>
      </trkpt>
      <trkpt lat="41.086301" lon="-6.742243">
        <ele>530.6</ele>
        <time>1970-01-01T03:26:35.000Z</time>
      </trkpt>
      <trkpt lat="41.086299" lon="-6.742217">
        <ele>530.9</ele>
        <time>1970-01-01T03:26:36.000Z</time>
      </trkpt>
      <trkpt lat="41.086299" lon="-6.74219">
        <ele>531.3</ele>
        <time>1970-01-01T03:26:37.000Z</time>
      </trkpt>
      <trkpt lat="41.086298" lon="-6.742162">
        <ele>531.7</ele>
        <time>1970-01-01T03:26:38.000Z</time>
      </trkpt>
      <trkpt lat="41.086299" lon="-6.742134">
        <ele>532.1</ele>
        <time>1970-01-01T03:26:39.000Z</time>
      </trkpt>
      <trkpt lat="41.0863" lon="-6.742106">
        <ele>532.4</ele>
        <time>1970-01-01T03:26:40.000Z</time>
      </trkpt>
      <trkpt lat="41.0863" lon="-6.742077">
        <ele>532.8</ele>
        <time>1970-01-01T03:26:41.000Z</time>
      </trkpt>
      <trkpt lat="41.086301" lon="-6.742049">
        <ele>533.2</ele>
        <time>1970-01-01T03:26:42.000Z</time>
      </trkpt>
      <trkpt lat="41.086301" lon="-6.742022">
        <ele>533.6</ele>
        <time>1970-01-01T03:26:43.000Z</time>
      </trkpt>
      <trkpt lat="41.086301" lon="-6.741995">
        <ele>533.9</ele>
        <time>1970-01-01T03:26:44.000Z</time>
      </trkpt>
      <trkpt lat="41.086302" lon="-6.741969">
        <ele>534.3</ele>
        <time>1970-01-01T03:26:45.000Z</time>
      </trkpt>
      <trkpt lat="41.086302" lon="-6.741944">
        <ele>534.6</ele>
        <time>1970-01-01T03:26:46.000Z</time>
      </trkpt>
      <trkpt lat="41.086304" lon="-6.741919">
        <ele>535</ele>
        <time>1970-01-01T03:26:47.000Z</time>
      </trkpt>
      <trkpt lat="41.086307" lon="-6.741895">
        <ele>535.3</ele>
        <time>1970-01-01T03:26:48.000Z</time>
      </trkpt>
      <trkpt lat="41.08631" lon="-6.741871">
        <ele>535.6</ele>
        <time>1970-01-01T03:26:49.000Z</time>
      </trkpt>
      <trkpt lat="41.086313" lon="-6.741847">
        <ele>535.9</ele>
        <time>1970-01-01T03:26:50.000Z</time>
      </trkpt>
      <trkpt lat="41.086317" lon="-6.741824">
        <ele>536.3</ele>
        <time>1970-01-01T03:26:51.000Z</time>
      </trkpt>
      <trkpt lat="41.086322" lon="-6.741801">
        <ele>536.6</ele>
        <time>1970-01-01T03:26:52.000Z</time>
      </trkpt>
      <trkpt lat="41.086326" lon="-6.741779">
        <ele>536.9</ele>
        <time>1970-01-01T03:26:53.000Z</time>
      </trkpt>
      <trkpt lat="41.086331" lon="-6.741756">
        <ele>537.2</ele>
        <time>1970-01-01T03:26:54.000Z</time>
      </trkpt>
      <trkpt lat="41.086336" lon="-6.741734">
        <ele>537.5</ele>
        <time>1970-01-01T03:26:55.000Z</time>
      </trkpt>
      <trkpt lat="41.08634" lon="-6.741712">
        <ele>537.8</ele>
        <time>1970-01-01T03:26:56.000Z</time>
      </trkpt>
      <trkpt lat="41.086343" lon="-6.74169">
        <ele>538.1</ele>
        <time>1970-01-01T03:26:57.000Z</time>
      </trkpt>
      <trkpt lat="41.086347" lon="-6.741668">
        <ele>538.4</ele>
        <time>1970-01-01T03:26:58.000Z</time>
      </trkpt>
      <trkpt lat="41.086351" lon="-6.741647">
        <ele>538.7</ele>
        <time>1970-01-01T03:26:59.000Z</time>
      </trkpt>
      <trkpt lat="41.086357" lon="-6.741625">
        <ele>539</ele>
        <time>1970-01-01T03:27:00.000Z</time>
      </trkpt>
      <trkpt lat="41.086361" lon="-6.741604">
        <ele>539.3</ele>
        <time>1970-01-01T03:27:01.000Z</time>
      </trkpt>
      <trkpt lat="41.086366" lon="-6.741581">
        <ele>539.6</ele>
        <time>1970-01-01T03:27:02.000Z</time>
      </trkpt>
      <trkpt lat="41.08637" lon="-6.741558">
        <ele>540</ele>
        <time>1970-01-01T03:27:03.000Z</time>
      </trkpt>
      <trkpt lat="41.086375" lon="-6.741535">
        <ele>540.3</ele>
        <time>1970-01-01T03:27:04.000Z</time>
      </trkpt>
      <trkpt lat="41.08638" lon="-6.741513">
        <ele>540.6</ele>
        <time>1970-01-01T03:27:05.000Z</time>
      </trkpt>
      <trkpt lat="41.086385" lon="-6.741492">
        <ele>540.9</ele>
        <time>1970-01-01T03:27:06.000Z</time>
      </trkpt>
      <trkpt lat="41.08639" lon="-6.74147">
        <ele>541.2</ele>
        <time>1970-01-01T03:27:07.000Z</time>
      </trkpt>
      <trkpt lat="41.086394" lon="-6.741448">
        <ele>541.5</ele>
        <time>1970-01-01T03:27:08.000Z</time>
      </trkpt>
      <trkpt lat="41.086398" lon="-6.741426">
        <ele>541.8</ele>
        <time>1970-01-01T03:27:09.000Z</time>
      </trkpt>
      <trkpt lat="41.086402" lon="-6.741404">
        <ele>542.1</ele>
        <time>1970-01-01T03:27:10.000Z</time>
      </trkpt>
      <trkpt lat="41.086406" lon="-6.741382">
        <ele>542.4</ele>
        <time>1970-01-01T03:27:11.000Z</time>
      </trkpt>
      <trkpt lat="41.08641" lon="-6.74136">
        <ele>542.7</ele>
        <time>1970-01-01T03:27:12.000Z</time>
      </trkpt>
      <trkpt lat="41.086413" lon="-6.741339">
        <ele>543</ele>
        <time>1970-01-01T03:27:13.000Z</time>
      </trkpt>
      <trkpt lat="41.086418" lon="-6.741318">
        <ele>543.3</ele>
        <time>1970-01-01T03:27:14.000Z</time>
      </trkpt>
      <trkpt lat="41.086421" lon="-6.741298">
        <ele>543.6</ele>
        <time>1970-01-01T03:27:15.000Z</time>
      </trkpt>
      <trkpt lat="41.086423" lon="-6.741278">
        <ele>543.9</ele>
        <time>1970-01-01T03:27:16.000Z</time>
      </trkpt>
      <trkpt lat="41.086426" lon="-6.741257">
        <ele>544.1</ele>
        <time>1970-01-01T03:27:17.000Z</time>
      </trkpt>
      <trkpt lat="41.086429" lon="-6.741236">
        <ele>544.4</ele>
        <time>1970-01-01T03:27:18.000Z</time>
      </trkpt>
      <trkpt lat="41.086431" lon="-6.741214">
        <ele>544.7</ele>
        <time>1970-01-01T03:27:19.000Z</time>
      </trkpt>
      <trkpt lat="41.086433" lon="-6.741192">
        <ele>545</ele>
        <time>1970-01-01T03:27:20.000Z</time>
      </trkpt>
      <trkpt lat="41.086435" lon="-6.74117">
        <ele>545.3</ele>
        <time>1970-01-01T03:27:21.000Z</time>
      </trkpt>
      <trkpt lat="41.086438" lon="-6.74115">
        <ele>545.6</ele>
        <time>1970-01-01T03:27:22.000Z</time>
      </trkpt>
      <trkpt lat="41.086443" lon="-6.74113">
        <ele>545.9</ele>
        <time>1970-01-01T03:27:23.000Z</time>
      </trkpt>
      <trkpt lat="41.086448" lon="-6.741108">
        <ele>546.2</ele>
        <time>1970-01-01T03:27:24.000Z</time>
      </trkpt>
      <trkpt lat="41.086453" lon="-6.741088">
        <ele>546.5</ele>
        <time>1970-01-01T03:27:25.000Z</time>
      </trkpt>
      <trkpt lat="41.086458" lon="-6.741067">
        <ele>546.8</ele>
        <time>1970-01-01T03:27:26.000Z</time>
      </trkpt>
      <trkpt lat="41.086463" lon="-6.741046">
        <ele>547.1</ele>
        <time>1970-01-01T03:27:27.000Z</time>
      </trkpt>
      <trkpt lat="41.086468" lon="-6.741024">
        <ele>547.4</ele>
        <time>1970-01-01T03:27:28.000Z</time>
      </trkpt>
      <trkpt lat="41.086473" lon="-6.741002">
        <ele>547.5</ele>
        <time>1970-01-01T03:27:29.000Z</time>
      </trkpt>
      <trkpt lat="41.086477" lon="-6.740978">
        <ele>547.6</ele>
        <time>1970-01-01T03:27:30.000Z</time>
      </trkpt>
      <trkpt lat="41.086481" lon="-6.740956">
        <ele>547.7</ele>
        <time>1970-01-01T03:27:31.000Z</time>
      </trkpt>
      <trkpt lat="41.086485" lon="-6.740934">
        <ele>547.9</ele>
        <time>1970-01-01T03:27:32.000Z</time>
      </trkpt>
      <trkpt lat="41.086489" lon="-6.740913">
        <ele>548</ele>
        <time>1970-01-01T03:27:33.000Z</time>
      </trkpt>
      <trkpt lat="41.086492" lon="-6.740891">
        <ele>548.1</ele>
        <time>1970-01-01T03:27:34.000Z</time>
      </trkpt>
      <trkpt lat="41.086495" lon="-6.74087">
        <ele>548.2</ele>
        <time>1970-01-01T03:27:35.000Z</time>
      </trkpt>
      <trkpt lat="41.086498" lon="-6.74085">
        <ele>548.3</ele>
        <time>1970-01-01T03:27:36.000Z</time>
      </trkpt>
      <trkpt lat="41.086502" lon="-6.740829">
        <ele>548.4</ele>
        <time>1970-01-01T03:27:37.000Z</time>
      </trkpt>
      <trkpt lat="41.086507" lon="-6.740808">
        <ele>548.5</ele>
        <time>1970-01-01T03:27:38.000Z</time>
      </trkpt>
      <trkpt lat="41.086513" lon="-6.740786">
        <ele>548.6</ele>
        <time>1970-01-01T03:27:39.000Z</time>
      </trkpt>
      <trkpt lat="41.08652" lon="-6.740766">
        <ele>548.7</ele>
        <time>1970-01-01T03:27:40.000Z</time>
      </trkpt>
      <trkpt lat="41.086527" lon="-6.740746">
        <ele>548.8</ele>
        <time>1970-01-01T03:27:41.000Z</time>
      </trkpt>
      <trkpt lat="41.086534" lon="-6.740726">
        <ele>548.9</ele>
        <time>1970-01-01T03:27:42.000Z</time>
      </trkpt>
      <trkpt lat="41.086542" lon="-6.740706">
        <ele>549</ele>
        <time>1970-01-01T03:27:43.000Z</time>
      </trkpt>
      <trkpt lat="41.086552" lon="-6.740687">
        <ele>549.1</ele>
        <time>1970-01-01T03:27:44.000Z</time>
      </trkpt>
      <trkpt lat="41.086562" lon="-6.740672">
        <ele>549.2</ele>
        <time>1970-01-01T03:27:45.000Z</time>
      </trkpt>
      <trkpt lat="41.086573" lon="-6.740658">
        <ele>549.3</ele>
        <time>1970-01-01T03:27:46.000Z</time>
      </trkpt>
      <trkpt lat="41.086584" lon="-6.740644">
        <ele>549.4</ele>
        <time>1970-01-01T03:27:47.000Z</time>
      </trkpt>
      <trkpt lat="41.086595" lon="-6.74063">
        <ele>549.5</ele>
        <time>1970-01-01T03:27:48.000Z</time>
      </trkpt>
      <trkpt lat="41.086608" lon="-6.740616">
        <ele>549.6</ele>
        <time>1970-01-01T03:27:49.000Z</time>
      </trkpt>
      <trkpt lat="41.086622" lon="-6.740601">
        <ele>549.8</ele>
        <time>1970-01-01T03:27:50.000Z</time>
      </trkpt>
      <trkpt lat="41.086636" lon="-6.740585">
        <ele>549.9</ele>
        <time>1970-01-01T03:27:51.000Z</time>
      </trkpt>
      <trkpt lat="41.086651" lon="-6.74057">
        <ele>550</ele>
        <time>1970-01-01T03:27:52.000Z</time>
      </trkpt>
      <trkpt lat="41.086666" lon="-6.740556">
        <ele>550.1</ele>
        <time>1970-01-01T03:27:53.000Z</time>
      </trkpt>
      <trkpt lat="41.086682" lon="-6.740543">
        <ele>550.2</ele>
        <time>1970-01-01T03:27:54.000Z</time>
      </trkpt>
      <trkpt lat="41.086697" lon="-6.74053">
        <ele>550.4</ele>
        <time>1970-01-01T03:27:55.000Z</time>
      </trkpt>
      <trkpt lat="41.086711" lon="-6.740518">
        <ele>550.5</ele>
        <time>1970-01-01T03:27:56.000Z</time>
      </trkpt>
      <trkpt lat="41.086724" lon="-6.740507">
        <ele>550.6</ele>
        <time>1970-01-01T03:27:57.000Z</time>
      </trkpt>
      <trkpt lat="41.086739" lon="-6.740496">
        <ele>550.7</ele>
        <time>1970-01-01T03:27:58.000Z</time>
      </trkpt>
      <trkpt lat="41.086755" lon="-6.740484">
        <ele>550.8</ele>
        <time>1970-01-01T03:27:59.000Z</time>
      </trkpt>
      <trkpt lat="41.086772" lon="-6.740472">
        <ele>550.9</ele>
        <time>1970-01-01T03:28:00.000Z</time>
      </trkpt>
      <trkpt lat="41.08679" lon="-6.74046">
        <ele>551.1</ele>
        <time>1970-01-01T03:28:01.000Z</time>
      </trkpt>
      <trkpt lat="41.086808" lon="-6.740448">
        <ele>551.2</ele>
        <time>1970-01-01T03:28:02.000Z</time>
      </trkpt>
      <trkpt lat="41.086826" lon="-6.740433">
        <ele>551.3</ele>
        <time>1970-01-01T03:28:03.000Z</time>
      </trkpt>
      <trkpt lat="41.086845" lon="-6.740419">
        <ele>551.5</ele>
        <time>1970-01-01T03:28:04.000Z</time>
      </trkpt>
      <trkpt lat="41.086866" lon="-6.740404">
        <ele>551.6</ele>
        <time>1970-01-01T03:28:05.000Z</time>
      </trkpt>
      <trkpt lat="41.086888" lon="-6.74039">
        <ele>551.8</ele>
        <time>1970-01-01T03:28:06.000Z</time>
      </trkpt>
      <trkpt lat="41.086911" lon="-6.740374">
        <ele>552</ele>
        <time>1970-01-01T03:28:07.000Z</time>
      </trkpt>
      <trkpt lat="41.086933" lon="-6.740358">
        <ele>552.1</ele>
        <time>1970-01-01T03:28:08.000Z</time>
      </trkpt>
      <trkpt lat="41.086955" lon="-6.740343">
        <ele>552.3</ele>
        <time>1970-01-01T03:28:09.000Z</time>
      </trkpt>
      <trkpt lat="41.086977" lon="-6.740328">
        <ele>552.4</ele>
        <time>1970-01-01T03:28:10.000Z</time>
      </trkpt>
      <trkpt lat="41.086999" lon="-6.740314">
        <ele>552.6</ele>
        <time>1970-01-01T03:28:11.000Z</time>
      </trkpt>
      <trkpt lat="41.087022" lon="-6.740301">
        <ele>552.8</ele>
        <time>1970-01-01T03:28:12.000Z</time>
      </trkpt>
      <trkpt lat="41.087045" lon="-6.740288">
        <ele>552.9</ele>
        <time>1970-01-01T03:28:13.000Z</time>
      </trkpt>
      <trkpt lat="41.087068" lon="-6.740276">
        <ele>553.1</ele>
        <time>1970-01-01T03:28:14.000Z</time>
      </trkpt>
      <trkpt lat="41.08709" lon="-6.740264">
        <ele>553.2</ele>
        <time>1970-01-01T03:28:15.000Z</time>
      </trkpt>
      <trkpt lat="41.087112" lon="-6.740254">
        <ele>553.4</ele>
        <time>1970-01-01T03:28:16.000Z</time>
      </trkpt>
      <trkpt lat="41.087133" lon="-6.740243">
        <ele>553.5</ele>
        <time>1970-01-01T03:28:17.000Z</time>
      </trkpt>
      <trkpt lat="41.087153" lon="-6.740234">
        <ele>553.7</ele>
        <time>1970-01-01T03:28:18.000Z</time>
      </trkpt>
      <trkpt lat="41.087174" lon="-6.740226">
        <ele>553.8</ele>
        <time>1970-01-01T03:28:19.000Z</time>
      </trkpt>
      <trkpt lat="41.087194" lon="-6.740217">
        <ele>553.9</ele>
        <time>1970-01-01T03:28:20.000Z</time>
      </trkpt>
      <trkpt lat="41.087214" lon="-6.740207">
        <ele>554.1</ele>
        <time>1970-01-01T03:28:21.000Z</time>
      </trkpt>
      <trkpt lat="41.087234" lon="-6.740195">
        <ele>554.2</ele>
        <time>1970-01-01T03:28:22.000Z</time>
      </trkpt>
      <trkpt lat="41.087253" lon="-6.740181">
        <ele>554.4</ele>
        <time>1970-01-01T03:28:23.000Z</time>
      </trkpt>
      <trkpt lat="41.087272" lon="-6.740168">
        <ele>554.5</ele>
        <time>1970-01-01T03:28:24.000Z</time>
      </trkpt>
      <trkpt lat="41.08729" lon="-6.740156">
        <ele>554.6</ele>
        <time>1970-01-01T03:28:25.000Z</time>
      </trkpt>
      <trkpt lat="41.08731" lon="-6.740144">
        <ele>554.8</ele>
        <time>1970-01-01T03:28:26.000Z</time>
      </trkpt>
      <trkpt lat="41.08733" lon="-6.740132">
        <ele>554.9</ele>
        <time>1970-01-01T03:28:27.000Z</time>
      </trkpt>
      <trkpt lat="41.087351" lon="-6.740119">
        <ele>555.1</ele>
        <time>1970-01-01T03:28:28.000Z</time>
      </trkpt>
      <trkpt lat="41.087372" lon="-6.740106">
        <ele>555.2</ele>
        <time>1970-01-01T03:28:29.000Z</time>
      </trkpt>
      <trkpt lat="41.087392" lon="-6.740091">
        <ele>555.4</ele>
        <time>1970-01-01T03:28:30.000Z</time>
      </trkpt>
      <trkpt lat="41.087412" lon="-6.740077">
        <ele>555.5</ele>
        <time>1970-01-01T03:28:31.000Z</time>
      </trkpt>
      <trkpt lat="41.087432" lon="-6.740061">
        <ele>555.7</ele>
        <time>1970-01-01T03:28:32.000Z</time>
      </trkpt>
      <trkpt lat="41.087452" lon="-6.740044">
        <ele>555.8</ele>
        <time>1970-01-01T03:28:33.000Z</time>
      </trkpt>
      <trkpt lat="41.087473" lon="-6.740026">
        <ele>556</ele>
        <time>1970-01-01T03:28:34.000Z</time>
      </trkpt>
      <trkpt lat="41.087491" lon="-6.740008">
        <ele>556.1</ele>
        <time>1970-01-01T03:28:35.000Z</time>
      </trkpt>
      <trkpt lat="41.087508" lon="-6.739988">
        <ele>556.3</ele>
        <time>1970-01-01T03:28:36.000Z</time>
      </trkpt>
      <trkpt lat="41.087523" lon="-6.739968">
        <ele>556.4</ele>
        <time>1970-01-01T03:28:37.000Z</time>
      </trkpt>
      <trkpt lat="41.087539" lon="-6.739947">
        <ele>556.6</ele>
        <time>1970-01-01T03:28:38.000Z</time>
      </trkpt>
      <trkpt lat="41.087554" lon="-6.739927">
        <ele>556.7</ele>
        <time>1970-01-01T03:28:39.000Z</time>
      </trkpt>
      <trkpt lat="41.087568" lon="-6.739905">
        <ele>556.8</ele>
        <time>1970-01-01T03:28:40.000Z</time>
      </trkpt>
      <trkpt lat="41.087581" lon="-6.739882">
        <ele>557</ele>
        <time>1970-01-01T03:28:41.000Z</time>
      </trkpt>
      <trkpt lat="41.087592" lon="-6.739857">
        <ele>557.1</ele>
        <time>1970-01-01T03:28:42.000Z</time>
      </trkpt>
      <trkpt lat="41.087603" lon="-6.739832">
        <ele>557.3</ele>
        <time>1970-01-01T03:28:43.000Z</time>
      </trkpt>
      <trkpt lat="41.087611" lon="-6.739807">
        <ele>557.4</ele>
        <time>1970-01-01T03:28:44.000Z</time>
      </trkpt>
      <trkpt lat="41.087618" lon="-6.739781">
        <ele>557.5</ele>
        <time>1970-01-01T03:28:45.000Z</time>
      </trkpt>
      <trkpt lat="41.087624" lon="-6.739755">
        <ele>557.7</ele>
        <time>1970-01-01T03:28:46.000Z</time>
      </trkpt>
      <trkpt lat="41.087631" lon="-6.739729">
        <ele>557.8</ele>
        <time>1970-01-01T03:28:47.000Z</time>
      </trkpt>
      <trkpt lat="41.087638" lon="-6.739702">
        <ele>557.9</ele>
        <time>1970-01-01T03:28:48.000Z</time>
      </trkpt>
      <trkpt lat="41.087645" lon="-6.739675">
        <ele>558.1</ele>
        <time>1970-01-01T03:28:49.000Z</time>
      </trkpt>
      <trkpt lat="41.087652" lon="-6.739649">
        <ele>558.2</ele>
        <time>1970-01-01T03:28:50.000Z</time>
      </trkpt>
      <trkpt lat="41.087658" lon="-6.739623">
        <ele>558.4</ele>
        <time>1970-01-01T03:28:51.000Z</time>
      </trkpt>
      <trkpt lat="41.087664" lon="-6.739599">
        <ele>558.5</ele>
        <time>1970-01-01T03:28:52.000Z</time>
      </trkpt>
      <trkpt lat="41.087669" lon="-6.739574">
        <ele>558.6</ele>
        <time>1970-01-01T03:28:53.000Z</time>
      </trkpt>
      <trkpt lat="41.087676" lon="-6.739549">
        <ele>558.7</ele>
        <time>1970-01-01T03:28:54.000Z</time>
      </trkpt>
      <trkpt lat="41.087682" lon="-6.739524">
        <ele>558.9</ele>
        <time>1970-01-01T03:28:55.000Z</time>
      </trkpt>
      <trkpt lat="41.087689" lon="-6.739499">
        <ele>559</ele>
        <time>1970-01-01T03:28:56.000Z</time>
      </trkpt>
      <trkpt lat="41.087694" lon="-6.739473">
        <ele>559.1</ele>
        <time>1970-01-01T03:28:57.000Z</time>
      </trkpt>
      <trkpt lat="41.087699" lon="-6.739447">
        <ele>559.3</ele>
        <time>1970-01-01T03:28:58.000Z</time>
      </trkpt>
      <trkpt lat="41.087703" lon="-6.739421">
        <ele>559.4</ele>
        <time>1970-01-01T03:28:59.000Z</time>
      </trkpt>
      <trkpt lat="41.087707" lon="-6.739394">
        <ele>559.5</ele>
        <time>1970-01-01T03:29:00.000Z</time>
      </trkpt>
      <trkpt lat="41.08771" lon="-6.739365">
        <ele>559.7</ele>
        <time>1970-01-01T03:29:01.000Z</time>
      </trkpt>
      <trkpt lat="41.087713" lon="-6.739337">
        <ele>559.8</ele>
        <time>1970-01-01T03:29:02.000Z</time>
      </trkpt>
      <trkpt lat="41.087715" lon="-6.739308">
        <ele>559.9</ele>
        <time>1970-01-01T03:29:03.000Z</time>
      </trkpt>
      <trkpt lat="41.087718" lon="-6.739279">
        <ele>560.1</ele>
        <time>1970-01-01T03:29:04.000Z</time>
      </trkpt>
      <trkpt lat="41.087721" lon="-6.73925">
        <ele>560.2</ele>
        <time>1970-01-01T03:29:05.000Z</time>
      </trkpt>
      <trkpt lat="41.087725" lon="-6.739222">
        <ele>560.4</ele>
        <time>1970-01-01T03:29:06.000Z</time>
      </trkpt>
      <trkpt lat="41.087728" lon="-6.739193">
        <ele>560.5</ele>
        <time>1970-01-01T03:29:07.000Z</time>
      </trkpt>
      <trkpt lat="41.087731" lon="-6.739164">
        <ele>560.7</ele>
        <time>1970-01-01T03:29:08.000Z</time>
      </trkpt>
      <trkpt lat="41.087733" lon="-6.739134">
        <ele>560.8</ele>
        <time>1970-01-01T03:29:09.000Z</time>
      </trkpt>
      <trkpt lat="41.087734" lon="-6.739105">
        <ele>560.9</ele>
        <time>1970-01-01T03:29:10.000Z</time>
      </trkpt>
      <trkpt lat="41.087734" lon="-6.739077">
        <ele>561.1</ele>
        <time>1970-01-01T03:29:11.000Z</time>
      </trkpt>
      <trkpt lat="41.087733" lon="-6.739049">
        <ele>561.2</ele>
        <time>1970-01-01T03:29:12.000Z</time>
      </trkpt>
      <trkpt lat="41.087733" lon="-6.73902">
        <ele>561.4</ele>
        <time>1970-01-01T03:29:13.000Z</time>
      </trkpt>
      <trkpt lat="41.087732" lon="-6.738993">
        <ele>561.5</ele>
        <time>1970-01-01T03:29:14.000Z</time>
      </trkpt>
      <trkpt lat="41.087731" lon="-6.738964">
        <ele>561.6</ele>
        <time>1970-01-01T03:29:15.000Z</time>
      </trkpt>
      <trkpt lat="41.08773" lon="-6.738936">
        <ele>561.8</ele>
        <time>1970-01-01T03:29:16.000Z</time>
      </trkpt>
      <trkpt lat="41.087727" lon="-6.738908">
        <ele>561.9</ele>
        <time>1970-01-01T03:29:17.000Z</time>
      </trkpt>
      <trkpt lat="41.087723" lon="-6.73888">
        <ele>562</ele>
        <time>1970-01-01T03:29:18.000Z</time>
      </trkpt>
      <trkpt lat="41.08772" lon="-6.738853">
        <ele>562.2</ele>
        <time>1970-01-01T03:29:19.000Z</time>
      </trkpt>
      <trkpt lat="41.087716" lon="-6.738825">
        <ele>562.3</ele>
        <time>1970-01-01T03:29:20.000Z</time>
      </trkpt>
      <trkpt lat="41.087714" lon="-6.738796">
        <ele>562.5</ele>
        <time>1970-01-01T03:29:21.000Z</time>
      </trkpt>
      <trkpt lat="41.087712" lon="-6.738766">
        <ele>562.6</ele>
        <time>1970-01-01T03:29:22.000Z</time>
      </trkpt>
      <trkpt lat="41.08771" lon="-6.738736">
        <ele>562.8</ele>
        <time>1970-01-01T03:29:23.000Z</time>
      </trkpt>
      <trkpt lat="41.087707" lon="-6.738705">
        <ele>562.9</ele>
        <time>1970-01-01T03:29:24.000Z</time>
      </trkpt>
      <trkpt lat="41.087705" lon="-6.738674">
        <ele>563.1</ele>
        <time>1970-01-01T03:29:25.000Z</time>
      </trkpt>
      <trkpt lat="41.087703" lon="-6.738643">
        <ele>563.2</ele>
        <time>1970-01-01T03:29:26.000Z</time>
      </trkpt>
      <trkpt lat="41.087701" lon="-6.738612">
        <ele>563.4</ele>
        <time>1970-01-01T03:29:27.000Z</time>
      </trkpt>
      <trkpt lat="41.087698" lon="-6.738582">
        <ele>563.5</ele>
        <time>1970-01-01T03:29:28.000Z</time>
      </trkpt>
      <trkpt lat="41.087696" lon="-6.738551">
        <ele>563.7</ele>
        <time>1970-01-01T03:29:29.000Z</time>
      </trkpt>
      <trkpt lat="41.087693" lon="-6.738521">
        <ele>563.8</ele>
        <time>1970-01-01T03:29:30.000Z</time>
      </trkpt>
      <trkpt lat="41.087691" lon="-6.738491">
        <ele>564</ele>
        <time>1970-01-01T03:29:31.000Z</time>
      </trkpt>
      <trkpt lat="41.08769" lon="-6.738463">
        <ele>564.1</ele>
        <time>1970-01-01T03:29:32.000Z</time>
      </trkpt>
      <trkpt lat="41.087689" lon="-6.738435">
        <ele>564.2</ele>
        <time>1970-01-01T03:29:33.000Z</time>
      </trkpt>
      <trkpt lat="41.087687" lon="-6.738407">
        <ele>564.4</ele>
        <time>1970-01-01T03:29:34.000Z</time>
      </trkpt>
      <trkpt lat="41.087685" lon="-6.73838">
        <ele>564.5</ele>
        <time>1970-01-01T03:29:35.000Z</time>
      </trkpt>
      <trkpt lat="41.087681" lon="-6.738352">
        <ele>564.6</ele>
        <time>1970-01-01T03:29:36.000Z</time>
      </trkpt>
      <trkpt lat="41.087675" lon="-6.738325">
        <ele>564.8</ele>
        <time>1970-01-01T03:29:37.000Z</time>
      </trkpt>
      <trkpt lat="41.087668" lon="-6.738297">
        <ele>564.9</ele>
        <time>1970-01-01T03:29:38.000Z</time>
      </trkpt>
      <trkpt lat="41.08766" lon="-6.738268">
        <ele>565.1</ele>
        <time>1970-01-01T03:29:39.000Z</time>
      </trkpt>
      <trkpt lat="41.087651" lon="-6.738239">
        <ele>565.2</ele>
        <time>1970-01-01T03:29:40.000Z</time>
      </trkpt>
      <trkpt lat="41.087641" lon="-6.73821">
        <ele>565.4</ele>
        <time>1970-01-01T03:29:41.000Z</time>
      </trkpt>
      <trkpt lat="41.087631" lon="-6.738181">
        <ele>565.5</ele>
        <time>1970-01-01T03:29:42.000Z</time>
      </trkpt>
      <trkpt lat="41.087621" lon="-6.738149">
        <ele>565.7</ele>
        <time>1970-01-01T03:29:43.000Z</time>
      </trkpt>
      <trkpt lat="41.087613" lon="-6.738117">
        <ele>565.9</ele>
        <time>1970-01-01T03:29:44.000Z</time>
      </trkpt>
      <trkpt lat="41.087609" lon="-6.738084">
        <ele>566</ele>
        <time>1970-01-01T03:29:45.000Z</time>
      </trkpt>
      <trkpt lat="41.087609" lon="-6.738051">
        <ele>566.2</ele>
        <time>1970-01-01T03:29:46.000Z</time>
      </trkpt>
      <trkpt lat="41.087612" lon="-6.738018">
        <ele>566.4</ele>
        <time>1970-01-01T03:29:47.000Z</time>
      </trkpt>
      <trkpt lat="41.087618" lon="-6.737988">
        <ele>566.5</ele>
        <time>1970-01-01T03:29:48.000Z</time>
      </trkpt>
      <trkpt lat="41.087624" lon="-6.737955">
        <ele>566.7</ele>
        <time>1970-01-01T03:29:49.000Z</time>
      </trkpt>
      <trkpt lat="41.087632" lon="-6.737923">
        <ele>566.9</ele>
        <time>1970-01-01T03:29:50.000Z</time>
      </trkpt>
      <trkpt lat="41.087638" lon="-6.737889">
        <ele>567</ele>
        <time>1970-01-01T03:29:51.000Z</time>
      </trkpt>
      <trkpt lat="41.087646" lon="-6.737854">
        <ele>567.2</ele>
        <time>1970-01-01T03:29:52.000Z</time>
      </trkpt>
      <trkpt lat="41.087655" lon="-6.737817">
        <ele>567.4</ele>
        <time>1970-01-01T03:29:53.000Z</time>
      </trkpt>
      <trkpt lat="41.087666" lon="-6.737778">
        <ele>567.6</ele>
        <time>1970-01-01T03:29:54.000Z</time>
      </trkpt>
      <trkpt lat="41.087678" lon="-6.737741">
        <ele>567.8</ele>
        <time>1970-01-01T03:29:55.000Z</time>
      </trkpt>
      <trkpt lat="41.08769" lon="-6.737705">
        <ele>568</ele>
        <time>1970-01-01T03:29:56.000Z</time>
      </trkpt>
      <trkpt lat="41.0877" lon="-6.737671">
        <ele>568.2</ele>
        <time>1970-01-01T03:29:57.000Z</time>
      </trkpt>
      <trkpt lat="41.087712" lon="-6.737639">
        <ele>568.3</ele>
        <time>1970-01-01T03:29:58.000Z</time>
      </trkpt>
      <trkpt lat="41.087726" lon="-6.737608">
        <ele>568.5</ele>
        <time>1970-01-01T03:29:59.000Z</time>
      </trkpt>
      <trkpt lat="41.087742" lon="-6.737576">
        <ele>568.7</ele>
        <time>1970-01-01T03:30:00.000Z</time>
      </trkpt>
      <trkpt lat="41.087758" lon="-6.737543">
        <ele>568.9</ele>
        <time>1970-01-01T03:30:01.000Z</time>
      </trkpt>
      <trkpt lat="41.087777" lon="-6.737508">
        <ele>569.1</ele>
        <time>1970-01-01T03:30:02.000Z</time>
      </trkpt>
      <trkpt lat="41.087796" lon="-6.737472">
        <ele>569.3</ele>
        <time>1970-01-01T03:30:03.000Z</time>
      </trkpt>
      <trkpt lat="41.087816" lon="-6.737436">
        <ele>569.5</ele>
        <time>1970-01-01T03:30:04.000Z</time>
      </trkpt>
      <trkpt lat="41.087836" lon="-6.737402">
        <ele>569.8</ele>
        <time>1970-01-01T03:30:05.000Z</time>
      </trkpt>
      <trkpt lat="41.087854" lon="-6.737369">
        <ele>570</ele>
        <time>1970-01-01T03:30:06.000Z</time>
      </trkpt>
      <trkpt lat="41.087873" lon="-6.737337">
        <ele>570.2</ele>
        <time>1970-01-01T03:30:07.000Z</time>
      </trkpt>
      <trkpt lat="41.087892" lon="-6.737306">
        <ele>570.3</ele>
        <time>1970-01-01T03:30:08.000Z</time>
      </trkpt>
      <trkpt lat="41.087914" lon="-6.737276">
        <ele>570.6</ele>
        <time>1970-01-01T03:30:09.000Z</time>
      </trkpt>
      <trkpt lat="41.087936" lon="-6.737246">
        <ele>570.8</ele>
        <time>1970-01-01T03:30:10.000Z</time>
      </trkpt>
      <trkpt lat="41.08796" lon="-6.737214">
        <ele>571</ele>
        <time>1970-01-01T03:30:11.000Z</time>
      </trkpt>
      <trkpt lat="41.087982" lon="-6.737184">
        <ele>571.2</ele>
        <time>1970-01-01T03:30:12.000Z</time>
      </trkpt>
      <trkpt lat="41.088004" lon="-6.737154">
        <ele>571.4</ele>
        <time>1970-01-01T03:30:13.000Z</time>
      </trkpt>
      <trkpt lat="41.088027" lon="-6.737126">
        <ele>571.6</ele>
        <time>1970-01-01T03:30:14.000Z</time>
      </trkpt>
      <trkpt lat="41.088049" lon="-6.7371">
        <ele>571.8</ele>
        <time>1970-01-01T03:30:15.000Z</time>
      </trkpt>
      <trkpt lat="41.088073" lon="-6.737074">
        <ele>572</ele>
        <time>1970-01-01T03:30:16.000Z</time>
      </trkpt>
      <trkpt lat="41.088096" lon="-6.737047">
        <ele>572.2</ele>
        <time>1970-01-01T03:30:17.000Z</time>
      </trkpt>
      <trkpt lat="41.08812" lon="-6.737015">
        <ele>572.4</ele>
        <time>1970-01-01T03:30:18.000Z</time>
      </trkpt>
      <trkpt lat="41.088149" lon="-6.736978">
        <ele>572.7</ele>
        <time>1970-01-01T03:30:19.000Z</time>
      </trkpt>
      <trkpt lat="41.08818" lon="-6.736941">
        <ele>572.9</ele>
        <time>1970-01-01T03:30:20.000Z</time>
      </trkpt>
      <trkpt lat="41.088213" lon="-6.736907">
        <ele>573.2</ele>
        <time>1970-01-01T03:30:21.000Z</time>
      </trkpt>
      <trkpt lat="41.088243" lon="-6.736878">
        <ele>573.4</ele>
        <time>1970-01-01T03:30:22.000Z</time>
      </trkpt>
      <trkpt lat="41.088275" lon="-6.736844">
        <ele>573.7</ele>
        <time>1970-01-01T03:30:23.000Z</time>
      </trkpt>
      <trkpt lat="41.088308" lon="-6.736806">
        <ele>574</ele>
        <time>1970-01-01T03:30:24.000Z</time>
      </trkpt>
      <trkpt lat="41.088345" lon="-6.736765">
        <ele>574.3</ele>
        <time>1970-01-01T03:30:25.000Z</time>
      </trkpt>
      <trkpt lat="41.088382" lon="-6.736727">
        <ele>574.6</ele>
        <time>1970-01-01T03:30:26.000Z</time>
      </trkpt>
      <trkpt lat="41.088417" lon="-6.736687">
        <ele>574.9</ele>
        <time>1970-01-01T03:30:27.000Z</time>
      </trkpt>
      <trkpt lat="41.088451" lon="-6.736649">
        <ele>575.2</ele>
        <time>1970-01-01T03:30:28.000Z</time>
      </trkpt>
      <trkpt lat="41.088483" lon="-6.736611">
        <ele>575.5</ele>
        <time>1970-01-01T03:30:29.000Z</time>
      </trkpt>
      <trkpt lat="41.088513" lon="-6.736576">
        <ele>575.7</ele>
        <time>1970-01-01T03:30:30.000Z</time>
      </trkpt>
      <trkpt lat="41.088544" lon="-6.736539">
        <ele>576</ele>
        <time>1970-01-01T03:30:31.000Z</time>
      </trkpt>
      <trkpt lat="41.088575" lon="-6.736499">
        <ele>576.3</ele>
        <time>1970-01-01T03:30:32.000Z</time>
      </trkpt>
      <trkpt lat="41.088605" lon="-6.736458">
        <ele>576.6</ele>
        <time>1970-01-01T03:30:33.000Z</time>
      </trkpt>
      <trkpt lat="41.088635" lon="-6.736416">
        <ele>576.9</ele>
        <time>1970-01-01T03:30:34.000Z</time>
      </trkpt>
      <trkpt lat="41.088665" lon="-6.736377">
        <ele>577.1</ele>
        <time>1970-01-01T03:30:35.000Z</time>
      </trkpt>
      <trkpt lat="41.088694" lon="-6.736337">
        <ele>577.4</ele>
        <time>1970-01-01T03:30:36.000Z</time>
      </trkpt>
      <trkpt lat="41.088721" lon="-6.736294">
        <ele>577.7</ele>
        <time>1970-01-01T03:30:37.000Z</time>
      </trkpt>
      <trkpt lat="41.088748" lon="-6.736252">
        <ele>577.9</ele>
        <time>1970-01-01T03:30:38.000Z</time>
      </trkpt>
      <trkpt lat="41.088775" lon="-6.736208">
        <ele>578.2</ele>
        <time>1970-01-01T03:30:39.000Z</time>
      </trkpt>
      <trkpt lat="41.088804" lon="-6.736168">
        <ele>578.5</ele>
        <time>1970-01-01T03:30:40.000Z</time>
      </trkpt>
      <trkpt lat="41.08883" lon="-6.736129">
        <ele>578.7</ele>
        <time>1970-01-01T03:30:41.000Z</time>
      </trkpt>
      <trkpt lat="41.088855" lon="-6.736091">
        <ele>579</ele>
        <time>1970-01-01T03:30:42.000Z</time>
      </trkpt>
      <trkpt lat="41.088878" lon="-6.736055">
        <ele>579.2</ele>
        <time>1970-01-01T03:30:43.000Z</time>
      </trkpt>
      <trkpt lat="41.088901" lon="-6.736019">
        <ele>579.5</ele>
        <time>1970-01-01T03:30:44.000Z</time>
      </trkpt>
      <trkpt lat="41.088925" lon="-6.735986">
        <ele>579.7</ele>
        <time>1970-01-01T03:30:45.000Z</time>
      </trkpt>
      <trkpt lat="41.088949" lon="-6.735955">
        <ele>579.9</ele>
        <time>1970-01-01T03:30:46.000Z</time>
      </trkpt>
      <trkpt lat="41.088972" lon="-6.735927">
        <ele>580.1</ele>
        <time>1970-01-01T03:30:47.000Z</time>
      </trkpt>
      <trkpt lat="41.088993" lon="-6.735898">
        <ele>580.3</ele>
        <time>1970-01-01T03:30:48.000Z</time>
      </trkpt>
      <trkpt lat="41.089013" lon="-6.735866">
        <ele>580.5</ele>
        <time>1970-01-01T03:30:49.000Z</time>
      </trkpt>
      <trkpt lat="41.089033" lon="-6.735833">
        <ele>580.7</ele>
        <time>1970-01-01T03:30:50.000Z</time>
      </trkpt>
      <trkpt lat="41.089054" lon="-6.735802">
        <ele>580.9</ele>
        <time>1970-01-01T03:30:51.000Z</time>
      </trkpt>
      <trkpt lat="41.089077" lon="-6.735775">
        <ele>581.1</ele>
        <time>1970-01-01T03:30:52.000Z</time>
      </trkpt>
      <trkpt lat="41.089101" lon="-6.73575">
        <ele>581.3</ele>
        <time>1970-01-01T03:30:53.000Z</time>
      </trkpt>
      <trkpt lat="41.089128" lon="-6.735724">
        <ele>581.5</ele>
        <time>1970-01-01T03:30:54.000Z</time>
      </trkpt>
      <trkpt lat="41.089154" lon="-6.735695">
        <ele>581.7</ele>
        <time>1970-01-01T03:30:55.000Z</time>
      </trkpt>
      <trkpt lat="41.089184" lon="-6.735666">
        <ele>582</ele>
        <time>1970-01-01T03:30:56.000Z</time>
      </trkpt>
      <trkpt lat="41.089212" lon="-6.735637">
        <ele>582.2</ele>
        <time>1970-01-01T03:30:57.000Z</time>
      </trkpt>
      <trkpt lat="41.08924" lon="-6.73561">
        <ele>582.4</ele>
        <time>1970-01-01T03:30:58.000Z</time>
      </trkpt>
      <trkpt lat="41.089266" lon="-6.735582">
        <ele>582.7</ele>
        <time>1970-01-01T03:30:59.000Z</time>
      </trkpt>
      <trkpt lat="41.08929" lon="-6.735548">
        <ele>582.9</ele>
        <time>1970-01-01T03:31:00.000Z</time>
      </trkpt>
      <trkpt lat="41.089318" lon="-6.7355">
        <ele>583.2</ele>
        <time>1970-01-01T03:31:01.000Z</time>
      </trkpt>
      <trkpt lat="41.089346" lon="-6.735443">
        <ele>583.5</ele>
        <time>1970-01-01T03:31:02.000Z</time>
      </trkpt>
      <trkpt lat="41.089376" lon="-6.73538">
        <ele>583.9</ele>
        <time>1970-01-01T03:31:03.000Z</time>
      </trkpt>
      <trkpt lat="41.089401" lon="-6.73532">
        <ele>584.2</ele>
        <time>1970-01-01T03:31:04.000Z</time>
      </trkpt>
      <trkpt lat="41.089425" lon="-6.735263">
        <ele>584.5</ele>
        <time>1970-01-01T03:31:05.000Z</time>
      </trkpt>
      <trkpt lat="41.089448" lon="-6.735206">
        <ele>584.8</ele>
        <time>1970-01-01T03:31:06.000Z</time>
      </trkpt>
      <trkpt lat="41.089469" lon="-6.735151">
        <ele>585.2</ele>
        <time>1970-01-01T03:31:07.000Z</time>
      </trkpt>
      <trkpt lat="41.089489" lon="-6.735096">
        <ele>585.4</ele>
        <time>1970-01-01T03:31:08.000Z</time>
      </trkpt>
      <trkpt lat="41.089507" lon="-6.735043">
        <ele>585.7</ele>
        <time>1970-01-01T03:31:09.000Z</time>
      </trkpt>
      <trkpt lat="41.089524" lon="-6.734993">
        <ele>586</ele>
        <time>1970-01-01T03:31:10.000Z</time>
      </trkpt>
      <trkpt lat="41.089539" lon="-6.734947">
        <ele>586.2</ele>
        <time>1970-01-01T03:31:11.000Z</time>
      </trkpt>
      <trkpt lat="41.089554" lon="-6.734904">
        <ele>586.5</ele>
        <time>1970-01-01T03:31:12.000Z</time>
      </trkpt>
      <trkpt lat="41.089569" lon="-6.734861">
        <ele>586.7</ele>
        <time>1970-01-01T03:31:13.000Z</time>
      </trkpt>
      <trkpt lat="41.089583" lon="-6.734817">
        <ele>586.9</ele>
        <time>1970-01-01T03:31:14.000Z</time>
      </trkpt>
      <trkpt lat="41.089598" lon="-6.734772">
        <ele>587.2</ele>
        <time>1970-01-01T03:31:15.000Z</time>
      </trkpt>
      <trkpt lat="41.089614" lon="-6.734728">
        <ele>587.4</ele>
        <time>1970-01-01T03:31:16.000Z</time>
      </trkpt>
      <trkpt lat="41.089628" lon="-6.734685">
        <ele>587.7</ele>
        <time>1970-01-01T03:31:17.000Z</time>
      </trkpt>
      <trkpt lat="41.08964" lon="-6.734642">
        <ele>587.9</ele>
        <time>1970-01-01T03:31:18.000Z</time>
      </trkpt>
      <trkpt lat="41.08965" lon="-6.734599">
        <ele>588.1</ele>
        <time>1970-01-01T03:31:19.000Z</time>
      </trkpt>
      <trkpt lat="41.08966" lon="-6.734553">
        <ele>588.3</ele>
        <time>1970-01-01T03:31:20.000Z</time>
      </trkpt>
      <trkpt lat="41.089672" lon="-6.734507">
        <ele>588.6</ele>
        <time>1970-01-01T03:31:21.000Z</time>
      </trkpt>
      <trkpt lat="41.089686" lon="-6.734462">
        <ele>588.8</ele>
        <time>1970-01-01T03:31:22.000Z</time>
      </trkpt>
      <trkpt lat="41.089701" lon="-6.734422">
        <ele>589</ele>
        <time>1970-01-01T03:31:23.000Z</time>
      </trkpt>
      <trkpt lat="41.089714" lon="-6.734386">
        <ele>589.2</ele>
        <time>1970-01-01T03:31:24.000Z</time>
      </trkpt>
      <trkpt lat="41.089722" lon="-6.734354">
        <ele>589.4</ele>
        <time>1970-01-01T03:31:25.000Z</time>
      </trkpt>
      <trkpt lat="41.089725" lon="-6.734327">
        <ele>589.5</ele>
        <time>1970-01-01T03:31:26.000Z</time>
      </trkpt>
      <trkpt lat="41.089726" lon="-6.734305">
        <ele>589.6</ele>
        <time>1970-01-01T03:31:27.000Z</time>
      </trkpt>
      <trkpt lat="41.089728" lon="-6.734285">
        <ele>589.7</ele>
        <time>1970-01-01T03:31:28.000Z</time>
      </trkpt>
      <trkpt lat="41.089733" lon="-6.734264">
        <ele>589.9</ele>
        <time>1970-01-01T03:31:29.000Z</time>
      </trkpt>
      <trkpt lat="41.089737" lon="-6.734244">
        <ele>589.9</ele>
        <time>1970-01-01T03:31:30.000Z</time>
      </trkpt>
      <trkpt lat="41.08974" lon="-6.734225">
        <ele>589.9</ele>
        <time>1970-01-01T03:31:31.000Z</time>
      </trkpt>
      <trkpt lat="41.089739" lon="-6.734208">
        <ele>589.9</ele>
        <time>1970-01-01T03:31:32.000Z</time>
      </trkpt>
      <trkpt lat="41.089739" lon="-6.73419">
        <ele>589.8</ele>
        <time>1970-01-01T03:31:33.000Z</time>
      </trkpt>
      <trkpt lat="41.089739" lon="-6.73417">
        <ele>589.8</ele>
        <time>1970-01-01T03:31:34.000Z</time>
      </trkpt>
      <trkpt lat="41.089742" lon="-6.73415">
        <ele>589.8</ele>
        <time>1970-01-01T03:31:35.000Z</time>
      </trkpt>
      <trkpt lat="41.089746" lon="-6.73413">
        <ele>589.8</ele>
        <time>1970-01-01T03:31:36.000Z</time>
      </trkpt>
      <trkpt lat="41.089749" lon="-6.734112">
        <ele>589.8</ele>
        <time>1970-01-01T03:31:37.000Z</time>
      </trkpt>
      <trkpt lat="41.089749" lon="-6.734097">
        <ele>589.8</ele>
        <time>1970-01-01T03:31:38.000Z</time>
      </trkpt>
      <trkpt lat="41.089749" lon="-6.734083">
        <ele>589.7</ele>
        <time>1970-01-01T03:31:39.000Z</time>
      </trkpt>
      <trkpt lat="41.089747" lon="-6.734073">
        <ele>589.7</ele>
        <time>1970-01-01T03:31:40.000Z</time>
      </trkpt>
      <trkpt lat="41.089748" lon="-6.734067">
        <ele>589.7</ele>
        <time>1970-01-01T03:31:41.000Z</time>
      </trkpt>
      <trkpt lat="41.089749" lon="-6.734063">
        <ele>589.7</ele>
        <time>1970-01-01T03:31:42.000Z</time>
      </trkpt>
      <trkpt lat="41.089749" lon="-6.734061">
        <ele>589.7</ele>
        <time>1970-01-01T03:31:43.000Z</time>
      </trkpt>
      <trkpt lat="41.089747" lon="-6.734059">
        <ele>589.7</ele>
        <time>1970-01-01T03:31:44.000Z</time>
      </trkpt>
      <trkpt lat="41.089745" lon="-6.734057">
        <ele>589.7</ele>
        <time>1970-01-01T03:31:45.000Z</time>
      </trkpt>
      <trkpt lat="41.089743" lon="-6.734054">
        <ele>589.7</ele>
        <time>1970-01-01T03:31:46.000Z</time>
      </trkpt>
      <trkpt lat="41.089743" lon="-6.734053">
        <ele>589.7</ele>
        <time>1970-01-01T03:31:47.000Z</time>
      </trkpt>
      <trkpt lat="41.089743" lon="-6.734052">
        <ele>589.7</ele>
        <time>1970-01-01T03:31:48.000Z</time>
      </trkpt>
      <trkpt lat="41.089708" lon="-6.734059">
        <ele>589.7</ele>
        <time>1970-01-01T03:31:49.000Z</time>
      </trkpt>
      <trkpt lat="41.089703" lon="-6.734068">
        <ele>589.7</ele>
        <time>1970-01-01T03:31:50.000Z</time>
      </trkpt>
      <trkpt lat="41.089699" lon="-6.734079">
        <ele>589.6</ele>
        <time>1970-01-01T03:32:02.000Z</time>
      </trkpt>
      <trkpt lat="41.089696" lon="-6.734089">
        <ele>589.6</ele>
        <time>1970-01-01T03:32:03.000Z</time>
      </trkpt>
      <trkpt lat="41.089692" lon="-6.734099">
        <ele>589.6</ele>
        <time>1970-01-01T03:32:04.000Z</time>
      </trkpt>
      <trkpt lat="41.089689" lon="-6.734107">
        <ele>589.6</ele>
        <time>1970-01-01T03:32:05.000Z</time>
      </trkpt>
      <trkpt lat="41.089686" lon="-6.734116">
        <ele>589.6</ele>
        <time>1970-01-01T03:32:06.000Z</time>
      </trkpt>
      <trkpt lat="41.089684" lon="-6.734122">
        <ele>589.6</ele>
        <time>1970-01-01T03:32:07.000Z</time>
      </trkpt>
      <trkpt lat="41.089683" lon="-6.734127">
        <ele>589.6</ele>
        <time>1970-01-01T03:32:08.000Z</time>
      </trkpt>
      <trkpt lat="41.089682" lon="-6.734129">
        <ele>589.6</ele>
        <time>1970-01-01T03:32:09.000Z</time>
      </trkpt>
      <trkpt lat="41.089683" lon="-6.734131">
        <ele>589.6</ele>
        <time>1970-01-01T03:32:10.000Z</time>
      </trkpt>
      <trkpt lat="41.089683" lon="-6.734131">
        <ele>589.6</ele>
        <time>1970-01-01T03:32:11.000Z</time>
      </trkpt>
      <trkpt lat="41.089684" lon="-6.734131">
        <ele>589.6</ele>
        <time>1970-01-01T03:32:12.000Z</time>
      </trkpt>
      <trkpt lat="41.089685" lon="-6.73413">
        <ele>589.6</ele>
        <time>1970-01-01T03:32:13.000Z</time>
      </trkpt>
      <trkpt lat="41.089686" lon="-6.734131">
        <ele>589.6</ele>
        <time>1970-01-01T03:32:14.000Z</time>
      </trkpt>
      <trkpt lat="41.089687" lon="-6.734132">
        <ele>589.6</ele>
        <time>1970-01-01T03:32:15.000Z</time>
      </trkpt>
      <trkpt lat="41.089689" lon="-6.734184">
        <ele>589.7</ele>
        <time>1970-01-01T03:32:16.000Z</time>
      </trkpt>
      <trkpt lat="41.089686" lon="-6.734192">
        <ele>589.7</ele>
        <time>1970-01-01T03:32:17.000Z</time>
      </trkpt>
      <trkpt lat="41.089682" lon="-6.734199">
        <ele>589.7</ele>
        <time>1970-01-01T03:39:03.000Z</time>
      </trkpt>
      <trkpt lat="41.089676" lon="-6.734204">
        <ele>589.7</ele>
        <time>1970-01-01T03:39:04.000Z</time>
      </trkpt>
      <trkpt lat="41.089669" lon="-6.734204">
        <ele>590.1</ele>
        <time>1970-01-01T03:39:05.000Z</time>
      </trkpt>
      <trkpt lat="41.08966" lon="-6.734202">
        <ele>590.1</ele>
        <time>1970-01-01T03:39:06.000Z</time>
      </trkpt>
      <trkpt lat="41.089649" lon="-6.7342">
        <ele>590.1</ele>
        <time>1970-01-01T03:39:07.000Z</time>
      </trkpt>
      <trkpt lat="41.089638" lon="-6.734197">
        <ele>590.1</ele>
        <time>1970-01-01T03:39:08.000Z</time>
      </trkpt>
      <trkpt lat="41.089625" lon="-6.734194">
        <ele>590.6</ele>
        <time>1970-01-01T03:39:09.000Z</time>
      </trkpt>
      <trkpt lat="41.089609" lon="-6.73419">
        <ele>590.6</ele>
        <time>1970-01-01T03:39:10.000Z</time>
      </trkpt>
      <trkpt lat="41.089593" lon="-6.734187">
        <ele>591</ele>
        <time>1970-01-01T03:39:11.000Z</time>
      </trkpt>
      <trkpt lat="41.089577" lon="-6.734183">
        <ele>591</ele>
        <time>1970-01-01T03:39:12.000Z</time>
      </trkpt>
      <trkpt lat="41.089561" lon="-6.734178">
        <ele>591.5</ele>
        <time>1970-01-01T03:39:13.000Z</time>
      </trkpt>
      <trkpt lat="41.089544" lon="-6.734172">
        <ele>591.5</ele>
        <time>1970-01-01T03:39:14.000Z</time>
      </trkpt>
      <trkpt lat="41.089527" lon="-6.734165">
        <ele>592</ele>
        <time>1970-01-01T03:39:15.000Z</time>
      </trkpt>
      <trkpt lat="41.089508" lon="-6.73416">
        <ele>592.6</ele>
        <time>1970-01-01T03:39:16.000Z</time>
      </trkpt>
      <trkpt lat="41.089487" lon="-6.734158">
        <ele>592.6</ele>
        <time>1970-01-01T03:39:17.000Z</time>
      </trkpt>
      <trkpt lat="41.089466" lon="-6.734158">
        <ele>593.2</ele>
        <time>1970-01-01T03:39:18.000Z</time>
      </trkpt>
      <trkpt lat="41.089445" lon="-6.734158">
        <ele>593.2</ele>
        <time>1970-01-01T03:39:19.000Z</time>
      </trkpt>
      <trkpt lat="41.089427" lon="-6.734155">
        <ele>594</ele>
        <time>1970-01-01T03:39:20.000Z</time>
      </trkpt>
      <trkpt lat="41.089409" lon="-6.734152">
        <ele>594.7</ele>
        <time>1970-01-01T03:39:21.000Z</time>
      </trkpt>
      <trkpt lat="41.089392" lon="-6.734151">
        <ele>594.7</ele>
        <time>1970-01-01T03:39:22.000Z</time>
      </trkpt>
      <trkpt lat="41.089374" lon="-6.734151">
        <ele>595.4</ele>
        <time>1970-01-01T03:39:23.000Z</time>
      </trkpt>
      <trkpt lat="41.089356" lon="-6.734152">
        <ele>595.4</ele>
        <time>1970-01-01T03:39:24.000Z</time>
      </trkpt>
      <trkpt lat="41.089337" lon="-6.734152">
        <ele>596</ele>
        <time>1970-01-01T03:39:25.000Z</time>
      </trkpt>
      <trkpt lat="41.089317" lon="-6.734148">
        <ele>596</ele>
        <time>1970-01-01T03:39:26.000Z</time>
      </trkpt>
      <trkpt lat="41.089297" lon="-6.734142">
        <ele>596.6</ele>
        <time>1970-01-01T03:39:27.000Z</time>
      </trkpt>
      <trkpt lat="41.089277" lon="-6.734138">
        <ele>597.2</ele>
        <time>1970-01-01T03:39:28.000Z</time>
      </trkpt>
      <trkpt lat="41.089256" lon="-6.734139">
        <ele>597.2</ele>
        <time>1970-01-01T03:39:29.000Z</time>
      </trkpt>
      <trkpt lat="41.089235" lon="-6.734141">
        <ele>597.8</ele>
        <time>1970-01-01T03:39:30.000Z</time>
      </trkpt>
      <trkpt lat="41.089215" lon="-6.734144">
        <ele>598.5</ele>
        <time>1970-01-01T03:39:31.000Z</time>
      </trkpt>
      <trkpt lat="41.089194" lon="-6.734147">
        <ele>598.5</ele>
        <time>1970-01-01T03:39:32.000Z</time>
      </trkpt>
      <trkpt lat="41.089174" lon="-6.734152">
        <ele>599.2</ele>
        <time>1970-01-01T03:39:33.000Z</time>
      </trkpt>
      <trkpt lat="41.089155" lon="-6.734155">
        <ele>599.2</ele>
        <time>1970-01-01T03:39:34.000Z</time>
      </trkpt>
      <trkpt lat="41.089136" lon="-6.734157">
        <ele>599.9</ele>
        <time>1970-01-01T03:39:35.000Z</time>
      </trkpt>
      <trkpt lat="41.089117" lon="-6.734161">
        <ele>600.5</ele>
        <time>1970-01-01T03:39:36.000Z</time>
      </trkpt>
      <trkpt lat="41.089098" lon="-6.734166">
        <ele>600.5</ele>
        <time>1970-01-01T03:39:37.000Z</time>
      </trkpt>
      <trkpt lat="41.089081" lon="-6.734168">
        <ele>601</ele>
        <time>1970-01-01T03:39:38.000Z</time>
      </trkpt>
      <trkpt lat="41.089063" lon="-6.734169">
        <ele>601</ele>
        <time>1970-01-01T03:39:39.000Z</time>
      </trkpt>
      <trkpt lat="41.089045" lon="-6.734169">
        <ele>601.6</ele>
        <time>1970-01-01T03:39:40.000Z</time>
      </trkpt>
      <trkpt lat="41.089026" lon="-6.734171">
        <ele>601.6</ele>
        <time>1970-01-01T03:39:41.000Z</time>
      </trkpt>
      <trkpt lat="41.089008" lon="-6.734173">
        <ele>602.1</ele>
        <time>1970-01-01T03:39:42.000Z</time>
      </trkpt>
      <trkpt lat="41.08899" lon="-6.734175">
        <ele>602.6</ele>
        <time>1970-01-01T03:39:43.000Z</time>
      </trkpt>
      <trkpt lat="41.088972" lon="-6.734179">
        <ele>602.6</ele>
        <time>1970-01-01T03:39:44.000Z</time>
      </trkpt>
      <trkpt lat="41.088956" lon="-6.734182">
        <ele>603.2</ele>
        <time>1970-01-01T03:39:45.000Z</time>
      </trkpt>
      <trkpt lat="41.088939" lon="-6.734185">
        <ele>603.2</ele>
        <time>1970-01-01T03:39:46.000Z</time>
      </trkpt>
      <trkpt lat="41.088921" lon="-6.734187">
        <ele>603.7</ele>
        <time>1970-01-01T03:39:47.000Z</time>
      </trkpt>
      <trkpt lat="41.088904" lon="-6.73419">
        <ele>603.8</ele>
        <time>1970-01-01T03:39:48.000Z</time>
      </trkpt>
      <trkpt lat="41.088886" lon="-6.734192">
        <ele>604.4</ele>
        <time>1970-01-01T03:39:49.000Z</time>
      </trkpt>
      <trkpt lat="41.088868" lon="-6.734194">
        <ele>604.4</ele>
        <time>1970-01-01T03:39:50.000Z</time>
      </trkpt>
      <trkpt lat="41.088849" lon="-6.734196">
        <ele>605</ele>
        <time>1970-01-01T03:39:51.000Z</time>
      </trkpt>
      <trkpt lat="41.08883" lon="-6.734199">
        <ele>605</ele>
        <time>1970-01-01T03:39:52.000Z</time>
      </trkpt>
      <trkpt lat="41.088812" lon="-6.734203">
        <ele>605.5</ele>
        <time>1970-01-01T03:39:53.000Z</time>
      </trkpt>
      <trkpt lat="41.088794" lon="-6.734208">
        <ele>606</ele>
        <time>1970-01-01T03:39:54.000Z</time>
      </trkpt>
      <trkpt lat="41.088776" lon="-6.734211">
        <ele>606</ele>
        <time>1970-01-01T03:39:55.000Z</time>
      </trkpt>
      <trkpt lat="41.088758" lon="-6.734215">
        <ele>606.5</ele>
        <time>1970-01-01T03:39:56.000Z</time>
      </trkpt>
      <trkpt lat="41.08874" lon="-6.734217">
        <ele>606.5</ele>
        <time>1970-01-01T03:39:57.000Z</time>
      </trkpt>
      <trkpt lat="41.088722" lon="-6.734219">
        <ele>607.1</ele>
        <time>1970-01-01T03:39:58.000Z</time>
      </trkpt>
      <trkpt lat="41.088705" lon="-6.734221">
        <ele>607.1</ele>
        <time>1970-01-01T03:39:59.000Z</time>
      </trkpt>
      <trkpt lat="41.088688" lon="-6.734223">
        <ele>607.6</ele>
        <time>1970-01-01T03:40:00.000Z</time>
      </trkpt>
      <trkpt lat="41.088672" lon="-6.734228">
        <ele>607.6</ele>
        <time>1970-01-01T03:40:01.000Z</time>
      </trkpt>
      <trkpt lat="41.088655" lon="-6.734233">
        <ele>608.3</ele>
        <time>1970-01-01T03:40:02.000Z</time>
      </trkpt>
      <trkpt lat="41.088638" lon="-6.734238">
        <ele>608.3</ele>
        <time>1970-01-01T03:40:03.000Z</time>
      </trkpt>
      <trkpt lat="41.088621" lon="-6.734242">
        <ele>608.9</ele>
        <time>1970-01-01T03:40:04.000Z</time>
      </trkpt>
      <trkpt lat="41.088603" lon="-6.734243">
        <ele>608.9</ele>
        <time>1970-01-01T03:40:05.000Z</time>
      </trkpt>
      <trkpt lat="41.088586" lon="-6.734241">
        <ele>609.5</ele>
        <time>1970-01-01T03:40:06.000Z</time>
      </trkpt>
      <trkpt lat="41.088568" lon="-6.734238">
        <ele>610.2</ele>
        <time>1970-01-01T03:40:07.000Z</time>
      </trkpt>
      <trkpt lat="41.08855" lon="-6.734235">
        <ele>610.2</ele>
        <time>1970-01-01T03:40:08.000Z</time>
      </trkpt>
      <trkpt lat="41.088532" lon="-6.734231">
        <ele>610.7</ele>
        <time>1970-01-01T03:40:09.000Z</time>
      </trkpt>
      <trkpt lat="41.088513" lon="-6.734229">
        <ele>610.7</ele>
        <time>1970-01-01T03:40:10.000Z</time>
      </trkpt>
      <trkpt lat="41.088494" lon="-6.734227">
        <ele>611.3</ele>
        <time>1970-01-01T03:40:11.000Z</time>
      </trkpt>
      <trkpt lat="41.088476" lon="-6.734225">
        <ele>611.3</ele>
        <time>1970-01-01T03:40:12.000Z</time>
      </trkpt>
      <trkpt lat="41.088457" lon="-6.734224">
        <ele>611.9</ele>
        <time>1970-01-01T03:40:13.000Z</time>
      </trkpt>
      <trkpt lat="41.08844" lon="-6.734223">
        <ele>612.5</ele>
        <time>1970-01-01T03:40:14.000Z</time>
      </trkpt>
      <trkpt lat="41.088422" lon="-6.734223">
        <ele>612.5</ele>
        <time>1970-01-01T03:40:15.000Z</time>
      </trkpt>
      <trkpt lat="41.088402" lon="-6.734222">
        <ele>613.1</ele>
        <time>1970-01-01T03:40:16.000Z</time>
      </trkpt>
      <trkpt lat="41.088382" lon="-6.734221">
        <ele>613.1</ele>
        <time>1970-01-01T03:40:17.000Z</time>
      </trkpt>
      <trkpt lat="41.088363" lon="-6.73422">
        <ele>613.7</ele>
        <time>1970-01-01T03:40:18.000Z</time>
      </trkpt>
      <trkpt lat="41.088345" lon="-6.734218">
        <ele>613.7</ele>
        <time>1970-01-01T03:40:19.000Z</time>
      </trkpt>
      <trkpt lat="41.088326" lon="-6.734216">
        <ele>614.3</ele>
        <time>1970-01-01T03:40:20.000Z</time>
      </trkpt>
      <trkpt lat="41.088307" lon="-6.734214">
        <ele>614.9</ele>
        <time>1970-01-01T03:40:21.000Z</time>
      </trkpt>
      <trkpt lat="41.088288" lon="-6.734212">
        <ele>614.9</ele>
        <time>1970-01-01T03:40:22.000Z</time>
      </trkpt>
      <trkpt lat="41.088269" lon="-6.734211">
        <ele>615.5</ele>
        <time>1970-01-01T03:40:23.000Z</time>
      </trkpt>
      <trkpt lat="41.08825" lon="-6.73421">
        <ele>615.5</ele>
        <time>1970-01-01T03:40:24.000Z</time>
      </trkpt>
      <trkpt lat="41.088231" lon="-6.734207">
        <ele>616.1</ele>
        <time>1970-01-01T03:40:25.000Z</time>
      </trkpt>
      <trkpt lat="41.088214" lon="-6.734205">
        <ele>616.7</ele>
        <time>1970-01-01T03:40:26.000Z</time>
      </trkpt>
      <trkpt lat="41.088195" lon="-6.734202">
        <ele>616.7</ele>
        <time>1970-01-01T03:40:27.000Z</time>
      </trkpt>
      <trkpt lat="41.088177" lon="-6.734202">
        <ele>617.2</ele>
        <time>1970-01-01T03:40:28.000Z</time>
      </trkpt>
      <trkpt lat="41.088159" lon="-6.7342">
        <ele>617.2</ele>
        <time>1970-01-01T03:40:29.000Z</time>
      </trkpt>
      <trkpt lat="41.088142" lon="-6.734196">
        <ele>617.7</ele>
        <time>1970-01-01T03:40:30.000Z</time>
      </trkpt>
      <trkpt lat="41.088124" lon="-6.73419">
        <ele>617.7</ele>
        <time>1970-01-01T03:40:31.000Z</time>
      </trkpt>
      <trkpt lat="41.088107" lon="-6.734185">
        <ele>618</ele>
        <time>1970-01-01T03:40:32.000Z</time>
      </trkpt>
      <trkpt lat="41.088089" lon="-6.73418">
        <ele>618</ele>
        <time>1970-01-01T03:40:33.000Z</time>
      </trkpt>
      <trkpt lat="41.08807" lon="-6.734178">
        <ele>618.5</ele>
        <time>1970-01-01T03:40:34.000Z</time>
      </trkpt>
      <trkpt lat="41.088052" lon="-6.734177">
        <ele>619.1</ele>
        <time>1970-01-01T03:40:35.000Z</time>
      </trkpt>
      <trkpt lat="41.088033" lon="-6.734175">
        <ele>619.1</ele>
        <time>1970-01-01T03:40:36.000Z</time>
      </trkpt>
      <trkpt lat="41.088015" lon="-6.734173">
        <ele>619.6</ele>
        <time>1970-01-01T03:40:37.000Z</time>
      </trkpt>
      <trkpt lat="41.087996" lon="-6.734172">
        <ele>619.6</ele>
        <time>1970-01-01T03:40:38.000Z</time>
      </trkpt>
      <trkpt lat="41.087978" lon="-6.73417">
        <ele>620.1</ele>
        <time>1970-01-01T03:40:39.000Z</time>
      </trkpt>
      <trkpt lat="41.08796" lon="-6.734168">
        <ele>620.1</ele>
        <time>1970-01-01T03:40:40.000Z</time>
      </trkpt>
      <trkpt lat="41.087942" lon="-6.734165">
        <ele>620.6</ele>
        <time>1970-01-01T03:40:41.000Z</time>
      </trkpt>
      <trkpt lat="41.087924" lon="-6.734162">
        <ele>620.6</ele>
        <time>1970-01-01T03:40:42.000Z</time>
      </trkpt>
      <trkpt lat="41.087906" lon="-6.734158">
        <ele>621</ele>
        <time>1970-01-01T03:40:43.000Z</time>
      </trkpt>
      <trkpt lat="41.087887" lon="-6.734152">
        <ele>621.4</ele>
        <time>1970-01-01T03:40:44.000Z</time>
      </trkpt>
      <trkpt lat="41.087867" lon="-6.734146">
        <ele>621.3</ele>
        <time>1970-01-01T03:40:45.000Z</time>
      </trkpt>
      <trkpt lat="41.087848" lon="-6.734139">
        <ele>621.7</ele>
        <time>1970-01-01T03:40:46.000Z</time>
      </trkpt>
      <trkpt lat="41.087828" lon="-6.734133">
        <ele>621.7</ele>
        <time>1970-01-01T03:40:47.000Z</time>
      </trkpt>
      <trkpt lat="41.08781" lon="-6.734125">
        <ele>622.1</ele>
        <time>1970-01-01T03:40:48.000Z</time>
      </trkpt>
      <trkpt lat="41.087791" lon="-6.734117">
        <ele>622.6</ele>
        <time>1970-01-01T03:40:49.000Z</time>
      </trkpt>
      <trkpt lat="41.087772" lon="-6.734108">
        <ele>622.6</ele>
        <time>1970-01-01T03:40:50.000Z</time>
      </trkpt>
      <trkpt lat="41.087754" lon="-6.734099">
        <ele>623</ele>
        <time>1970-01-01T03:40:51.000Z</time>
      </trkpt>
      <trkpt lat="41.087736" lon="-6.734091">
        <ele>623</ele>
        <time>1970-01-01T03:40:52.000Z</time>
      </trkpt>
      <trkpt lat="41.087718" lon="-6.734083">
        <ele>623.5</ele>
        <time>1970-01-01T03:40:53.000Z</time>
      </trkpt>
      <trkpt lat="41.087701" lon="-6.734074">
        <ele>623.5</ele>
        <time>1970-01-01T03:40:54.000Z</time>
      </trkpt>
      <trkpt lat="41.087683" lon="-6.734065">
        <ele>624</ele>
        <time>1970-01-01T03:40:55.000Z</time>
      </trkpt>
      <trkpt lat="41.087666" lon="-6.734056">
        <ele>623.8</ele>
        <time>1970-01-01T03:40:56.000Z</time>
      </trkpt>
      <trkpt lat="41.087648" lon="-6.734047">
        <ele>624.3</ele>
        <time>1970-01-01T03:40:57.000Z</time>
      </trkpt>
      <trkpt lat="41.08763" lon="-6.734038">
        <ele>625</ele>
        <time>1970-01-01T03:40:58.000Z</time>
      </trkpt>
      <trkpt lat="41.087612" lon="-6.73403">
        <ele>625</ele>
        <time>1970-01-01T03:40:59.000Z</time>
      </trkpt>
      <trkpt lat="41.087593" lon="-6.734023">
        <ele>625.6</ele>
        <time>1970-01-01T03:41:00.000Z</time>
      </trkpt>
      <trkpt lat="41.087575" lon="-6.734017">
        <ele>625.4</ele>
        <time>1970-01-01T03:41:01.000Z</time>
      </trkpt>
      <trkpt lat="41.087556" lon="-6.73401">
        <ele>625.9</ele>
        <time>1970-01-01T03:41:02.000Z</time>
      </trkpt>
      <trkpt lat="41.087537" lon="-6.734004">
        <ele>625.9</ele>
        <time>1970-01-01T03:41:03.000Z</time>
      </trkpt>
      <trkpt lat="41.087518" lon="-6.733998">
        <ele>626.6</ele>
        <time>1970-01-01T03:41:04.000Z</time>
      </trkpt>
      <trkpt lat="41.0875" lon="-6.733992">
        <ele>627.2</ele>
        <time>1970-01-01T03:41:05.000Z</time>
      </trkpt>
      <trkpt lat="41.087482" lon="-6.733986">
        <ele>627.2</ele>
        <time>1970-01-01T03:41:06.000Z</time>
      </trkpt>
      <trkpt lat="41.087464" lon="-6.73398">
        <ele>627.9</ele>
        <time>1970-01-01T03:41:07.000Z</time>
      </trkpt>
      <trkpt lat="41.087447" lon="-6.733975">
        <ele>627.6</ele>
        <time>1970-01-01T03:41:08.000Z</time>
      </trkpt>
      <trkpt lat="41.08743" lon="-6.733969">
        <ele>628.3</ele>
        <time>1970-01-01T03:41:09.000Z</time>
      </trkpt>
      <trkpt lat="41.087413" lon="-6.733964">
        <ele>628.3</ele>
        <time>1970-01-01T03:41:10.000Z</time>
      </trkpt>
      <trkpt lat="41.087395" lon="-6.733959">
        <ele>628.9</ele>
        <time>1970-01-01T03:41:11.000Z</time>
      </trkpt>
      <trkpt lat="41.087377" lon="-6.733952">
        <ele>628.9</ele>
        <time>1970-01-01T03:41:12.000Z</time>
      </trkpt>
      <trkpt lat="41.08736" lon="-6.733946">
        <ele>629.5</ele>
        <time>1970-01-01T03:41:13.000Z</time>
      </trkpt>
      <trkpt lat="41.087342" lon="-6.73394">
        <ele>629.5</ele>
        <time>1970-01-01T03:41:14.000Z</time>
      </trkpt>
      <trkpt lat="41.087323" lon="-6.733935">
        <ele>630.2</ele>
        <time>1970-01-01T03:41:15.000Z</time>
      </trkpt>
      <trkpt lat="41.087303" lon="-6.73393">
        <ele>630.7</ele>
        <time>1970-01-01T03:41:16.000Z</time>
      </trkpt>
      <trkpt lat="41.087283" lon="-6.733926">
        <ele>630.7</ele>
        <time>1970-01-01T03:41:17.000Z</time>
      </trkpt>
      <trkpt lat="41.087263" lon="-6.733921">
        <ele>631.4</ele>
        <time>1970-01-01T03:41:18.000Z</time>
      </trkpt>
      <trkpt lat="41.087244" lon="-6.733917">
        <ele>631.4</ele>
        <time>1970-01-01T03:41:19.000Z</time>
      </trkpt>
      <trkpt lat="41.087224" lon="-6.733911">
        <ele>632.1</ele>
        <time>1970-01-01T03:41:20.000Z</time>
      </trkpt>
      <trkpt lat="41.087202" lon="-6.733905">
        <ele>632.8</ele>
        <time>1970-01-01T03:41:21.000Z</time>
      </trkpt>
      <trkpt lat="41.087181" lon="-6.733897">
        <ele>632.8</ele>
        <time>1970-01-01T03:41:22.000Z</time>
      </trkpt>
      <trkpt lat="41.087159" lon="-6.733889">
        <ele>633.3</ele>
        <time>1970-01-01T03:41:23.000Z</time>
      </trkpt>
      <trkpt lat="41.087139" lon="-6.73388">
        <ele>633.9</ele>
        <time>1970-01-01T03:41:24.000Z</time>
      </trkpt>
      <trkpt lat="41.087118" lon="-6.733869">
        <ele>633.9</ele>
        <time>1970-01-01T03:41:25.000Z</time>
      </trkpt>
      <trkpt lat="41.087097" lon="-6.733856">
        <ele>634.4</ele>
        <time>1970-01-01T03:41:26.000Z</time>
      </trkpt>
      <trkpt lat="41.087077" lon="-6.733844">
        <ele>634.7</ele>
        <time>1970-01-01T03:41:27.000Z</time>
      </trkpt>
      <trkpt lat="41.087057" lon="-6.733832">
        <ele>634.7</ele>
        <time>1970-01-01T03:41:28.000Z</time>
      </trkpt>
      <trkpt lat="41.087041" lon="-6.733823">
        <ele>635.2</ele>
        <time>1970-01-01T03:41:29.000Z</time>
      </trkpt>
      <trkpt lat="41.087026" lon="-6.733816">
        <ele>635.2</ele>
        <time>1970-01-01T03:41:30.000Z</time>
      </trkpt>
      <trkpt lat="41.087014" lon="-6.733808">
        <ele>635.6</ele>
        <time>1970-01-01T03:41:31.000Z</time>
      </trkpt>
      <trkpt lat="41.087002" lon="-6.733798">
        <ele>635.4</ele>
        <time>1970-01-01T03:41:32.000Z</time>
      </trkpt>
      <trkpt lat="41.086989" lon="-6.733784">
        <ele>635.4</ele>
        <time>1970-01-01T03:41:33.000Z</time>
      </trkpt>
      <trkpt lat="41.086976" lon="-6.733769">
        <ele>635.7</ele>
        <time>1970-01-01T03:41:34.000Z</time>
      </trkpt>
      <trkpt lat="41.086962" lon="-6.733755">
        <ele>635.4</ele>
        <time>1970-01-01T03:41:35.000Z</time>
      </trkpt>
      <trkpt lat="41.086947" lon="-6.733744">
        <ele>635.7</ele>
        <time>1970-01-01T03:41:36.000Z</time>
      </trkpt>
      <trkpt lat="41.086934" lon="-6.733733">
        <ele>635.7</ele>
        <time>1970-01-01T03:41:37.000Z</time>
      </trkpt>
      <trkpt lat="41.086919" lon="-6.733722">
        <ele>635.8</ele>
        <time>1970-01-01T03:41:38.000Z</time>
      </trkpt>
      <trkpt lat="41.086905" lon="-6.733706">
        <ele>635.5</ele>
        <time>1970-01-01T03:41:39.000Z</time>
      </trkpt>
      <trkpt lat="41.086889" lon="-6.733687">
        <ele>635.5</ele>
        <time>1970-01-01T03:41:40.000Z</time>
      </trkpt>
      <trkpt lat="41.086872" lon="-6.733666">
        <ele>635.2</ele>
        <time>1970-01-01T03:41:41.000Z</time>
      </trkpt>
      <trkpt lat="41.086854" lon="-6.733644">
        <ele>635.2</ele>
        <time>1970-01-01T03:41:42.000Z</time>
      </trkpt>
      <trkpt lat="41.086833" lon="-6.733619">
        <ele>634.7</ele>
        <time>1970-01-01T03:41:43.000Z</time>
      </trkpt>
      <trkpt lat="41.086812" lon="-6.733593">
        <ele>634.8</ele>
        <time>1970-01-01T03:41:44.000Z</time>
      </trkpt>
      <trkpt lat="41.086791" lon="-6.733565">
        <ele>634.3</ele>
        <time>1970-01-01T03:41:45.000Z</time>
      </trkpt>
      <trkpt lat="41.08677" lon="-6.733536">
        <ele>633.7</ele>
        <time>1970-01-01T03:41:46.000Z</time>
      </trkpt>
      <trkpt lat="41.086746" lon="-6.733506">
        <ele>633.8</ele>
        <time>1970-01-01T03:41:47.000Z</time>
      </trkpt>
      <trkpt lat="41.086721" lon="-6.733472">
        <ele>633.3</ele>
        <time>1970-01-01T03:41:48.000Z</time>
      </trkpt>
      <trkpt lat="41.086694" lon="-6.733436">
        <ele>632.8</ele>
        <time>1970-01-01T03:41:49.000Z</time>
      </trkpt>
      <trkpt lat="41.086667" lon="-6.733395">
        <ele>632.2</ele>
        <time>1970-01-01T03:41:50.000Z</time>
      </trkpt>
      <trkpt lat="41.086638" lon="-6.733353">
        <ele>631.8</ele>
        <time>1970-01-01T03:41:51.000Z</time>
      </trkpt>
      <trkpt lat="41.086607" lon="-6.733309">
        <ele>631.4</ele>
        <time>1970-01-01T03:41:52.000Z</time>
      </trkpt>
      <trkpt lat="41.08657" lon="-6.733263">
        <ele>631</ele>
        <time>1970-01-01T03:41:53.000Z</time>
      </trkpt>
      <trkpt lat="41.086527" lon="-6.733211">
        <ele>630.8</ele>
        <time>1970-01-01T03:41:54.000Z</time>
      </trkpt>
      <trkpt lat="41.086478" lon="-6.733152">
        <ele>629.9</ele>
        <time>1970-01-01T03:41:55.000Z</time>
      </trkpt>
      <trkpt lat="41.086426" lon="-6.733087">
        <ele>629.7</ele>
        <time>1970-01-01T03:41:56.000Z</time>
      </trkpt>
      <trkpt lat="41.086374" lon="-6.733019">
        <ele>628.7</ele>
        <time>1970-01-01T03:41:57.000Z</time>
      </trkpt>
      <trkpt lat="41.086321" lon="-6.732943">
        <ele>627.7</ele>
        <time>1970-01-01T03:41:58.000Z</time>
      </trkpt>
      <trkpt lat="41.086264" lon="-6.73286">
        <ele>627.2</ele>
        <time>1970-01-01T03:41:59.000Z</time>
      </trkpt>
      <trkpt lat="41.086204" lon="-6.732767">
        <ele>625.4</ele>
        <time>1970-01-01T03:42:00.000Z</time>
      </trkpt>
      <trkpt lat="41.086145" lon="-6.73267">
        <ele>624</ele>
        <time>1970-01-01T03:42:01.000Z</time>
      </trkpt>
      <trkpt lat="41.086087" lon="-6.732571">
        <ele>622.5</ele>
        <time>1970-01-01T03:42:02.000Z</time>
      </trkpt>
      <trkpt lat="41.08603" lon="-6.732479">
        <ele>620.9</ele>
        <time>1970-01-01T03:42:03.000Z</time>
      </trkpt>
      <trkpt lat="41.085971" lon="-6.732397">
        <ele>619.4</ele>
        <time>1970-01-01T03:42:04.000Z</time>
      </trkpt>
      <trkpt lat="41.085908" lon="-6.732333">
        <ele>618</ele>
        <time>1970-01-01T03:42:05.000Z</time>
      </trkpt>
      <trkpt lat="41.085841" lon="-6.732284">
        <ele>617.1</ele>
        <time>1970-01-01T03:42:06.000Z</time>
      </trkpt>
      <trkpt lat="41.085775" lon="-6.73224">
        <ele>616.2</ele>
        <time>1970-01-01T03:42:07.000Z</time>
      </trkpt>
      <trkpt lat="41.08572" lon="-6.732184">
        <ele>615.3</ele>
        <time>1970-01-01T03:42:08.000Z</time>
      </trkpt>
      <trkpt lat="41.08568" lon="-6.73211">
        <ele>614</ele>
        <time>1970-01-01T03:42:09.000Z</time>
      </trkpt>
      <trkpt lat="41.085656" lon="-6.73202">
        <ele>612.8</ele>
        <time>1970-01-01T03:42:10.000Z</time>
      </trkpt>
      <trkpt lat="41.085639" lon="-6.731919">
        <ele>611.9</ele>
        <time>1970-01-01T03:42:11.000Z</time>
      </trkpt>
      <trkpt lat="41.085622" lon="-6.731808">
        <ele>610.4</ele>
        <time>1970-01-01T03:42:12.000Z</time>
      </trkpt>
      <trkpt lat="41.085602" lon="-6.73169">
        <ele>609.1</ele>
        <time>1970-01-01T03:42:13.000Z</time>
      </trkpt>
      <trkpt lat="41.085581" lon="-6.731566">
        <ele>608</ele>
        <time>1970-01-01T03:42:14.000Z</time>
      </trkpt>
      <trkpt lat="41.085558" lon="-6.731438">
        <ele>607</ele>
        <time>1970-01-01T03:42:15.000Z</time>
      </trkpt>
      <trkpt lat="41.085536" lon="-6.731306">
        <ele>606</ele>
        <time>1970-01-01T03:42:16.000Z</time>
      </trkpt>
      <trkpt lat="41.085513" lon="-6.731171">
        <ele>605.3</ele>
        <time>1970-01-01T03:42:17.000Z</time>
      </trkpt>
      <trkpt lat="41.085492" lon="-6.731037">
        <ele>604.6</ele>
        <time>1970-01-01T03:42:18.000Z</time>
      </trkpt>
      <trkpt lat="41.085472" lon="-6.730909">
        <ele>603.8</ele>
        <time>1970-01-01T03:42:19.000Z</time>
      </trkpt>
      <trkpt lat="41.085449" lon="-6.730791">
        <ele>603.1</ele>
        <time>1970-01-01T03:42:20.000Z</time>
      </trkpt>
      <trkpt lat="41.085422" lon="-6.730682">
        <ele>602.8</ele>
        <time>1970-01-01T03:42:21.000Z</time>
      </trkpt>
      <trkpt lat="41.085389" lon="-6.730578">
        <ele>602.3</ele>
        <time>1970-01-01T03:42:22.000Z</time>
      </trkpt>
      <trkpt lat="41.08536" lon="-6.730476">
        <ele>602.1</ele>
        <time>1970-01-01T03:42:23.000Z</time>
      </trkpt>
      <trkpt lat="41.085344" lon="-6.730376">
        <ele>601.9</ele>
        <time>1970-01-01T03:42:24.000Z</time>
      </trkpt>
      <trkpt lat="41.085343" lon="-6.730278">
        <ele>601.7</ele>
        <time>1970-01-01T03:42:25.000Z</time>
      </trkpt>
      <trkpt lat="41.085354" lon="-6.730183">
        <ele>601.6</ele>
        <time>1970-01-01T03:42:26.000Z</time>
      </trkpt>
      <trkpt lat="41.08537" lon="-6.73009">
        <ele>601.5</ele>
        <time>1970-01-01T03:42:27.000Z</time>
      </trkpt>
      <trkpt lat="41.085386" lon="-6.729999">
        <ele>601.4</ele>
        <time>1970-01-01T03:42:28.000Z</time>
      </trkpt>
      <trkpt lat="41.085399" lon="-6.729915">
        <ele>601.3</ele>
        <time>1970-01-01T03:42:29.000Z</time>
      </trkpt>
      <trkpt lat="41.08541" lon="-6.729841">
        <ele>601.2</ele>
        <time>1970-01-01T03:42:30.000Z</time>
      </trkpt>
      <trkpt lat="41.085416" lon="-6.729781">
        <ele>601.2</ele>
        <time>1970-01-01T03:42:31.000Z</time>
      </trkpt>
      <trkpt lat="41.085422" lon="-6.729732">
        <ele>601.1</ele>
        <time>1970-01-01T03:42:32.000Z</time>
      </trkpt>
      <trkpt lat="41.085426" lon="-6.729691">
        <ele>601.1</ele>
        <time>1970-01-01T03:42:33.000Z</time>
      </trkpt>
      <trkpt lat="41.085428" lon="-6.729656">
        <ele>601.1</ele>
        <time>1970-01-01T03:42:34.000Z</time>
      </trkpt>
      <trkpt lat="41.085427" lon="-6.729628">
        <ele>601.1</ele>
        <time>1970-01-01T03:42:35.000Z</time>
      </trkpt>
      <trkpt lat="41.085426" lon="-6.729606">
        <ele>601.1</ele>
        <time>1970-01-01T03:42:36.000Z</time>
      </trkpt>
      <trkpt lat="41.085427" lon="-6.729587">
        <ele>601</ele>
        <time>1970-01-01T03:42:37.000Z</time>
      </trkpt>
      <trkpt lat="41.085426" lon="-6.729569">
        <ele>600.9</ele>
        <time>1970-01-01T03:42:38.000Z</time>
      </trkpt>
      <trkpt lat="41.085424" lon="-6.729551">
        <ele>600.9</ele>
        <time>1970-01-01T03:42:39.000Z</time>
      </trkpt>
      <trkpt lat="41.085421" lon="-6.729537">
        <ele>600.8</ele>
        <time>1970-01-01T03:42:40.000Z</time>
      </trkpt>
      <trkpt lat="41.085418" lon="-6.729528">
        <ele>600.8</ele>
        <time>1970-01-01T03:42:41.000Z</time>
      </trkpt>
      <trkpt lat="41.085417" lon="-6.729524">
        <ele>600.8</ele>
        <time>1970-01-01T03:42:42.000Z</time>
      </trkpt>
      <trkpt lat="41.085417" lon="-6.729522">
        <ele>600.8</ele>
        <time>1970-01-01T03:42:43.000Z</time>
      </trkpt>
      <trkpt lat="41.085416" lon="-6.729521">
        <ele>600.7</ele>
        <time>1970-01-01T03:42:44.000Z</time>
      </trkpt>
      <trkpt lat="41.085416" lon="-6.72952">
        <ele>600.7</ele>
        <time>1970-01-01T03:42:45.000Z</time>
      </trkpt>
      <trkpt lat="41.085416" lon="-6.729519">
        <ele>600.7</ele>
        <time>1970-01-01T03:42:46.000Z</time>
      </trkpt>
      <trkpt lat="41.085417" lon="-6.729518">
        <ele>600.7</ele>
        <time>1970-01-01T03:42:47.000Z</time>
      </trkpt>
      <trkpt lat="41.085417" lon="-6.729518">
        <ele>600.7</ele>
        <time>1970-01-01T03:42:48.000Z</time>
      </trkpt>
      <trkpt lat="41.085456" lon="-6.72946">
        <ele>600.4</ele>
        <time>1970-01-01T03:42:49.000Z</time>
      </trkpt>
      <trkpt lat="41.08547" lon="-6.729451">
        <ele>600.4</ele>
        <time>1970-01-01T03:42:50.000Z</time>
      </trkpt>
      <trkpt lat="41.085484" lon="-6.729439">
        <ele>600.3</ele>
        <time>1970-01-01T03:44:20.000Z</time>
      </trkpt>
      <trkpt lat="41.085497" lon="-6.729426">
        <ele>600.2</ele>
        <time>1970-01-01T03:44:21.000Z</time>
      </trkpt>
      <trkpt lat="41.085511" lon="-6.729412">
        <ele>600.1</ele>
        <time>1970-01-01T03:44:22.000Z</time>
      </trkpt>
      <trkpt lat="41.085527" lon="-6.729395">
        <ele>600</ele>
        <time>1970-01-01T03:44:23.000Z</time>
      </trkpt>
      <trkpt lat="41.085545" lon="-6.729378">
        <ele>599.9</ele>
        <time>1970-01-01T03:44:24.000Z</time>
      </trkpt>
      <trkpt lat="41.085563" lon="-6.729358">
        <ele>599.8</ele>
        <time>1970-01-01T03:44:25.000Z</time>
      </trkpt>
      <trkpt lat="41.085582" lon="-6.729336">
        <ele>599.7</ele>
        <time>1970-01-01T03:44:26.000Z</time>
      </trkpt>
      <trkpt lat="41.085602" lon="-6.729313">
        <ele>599.5</ele>
        <time>1970-01-01T03:44:27.000Z</time>
      </trkpt>
      <trkpt lat="41.085624" lon="-6.729289">
        <ele>599.4</ele>
        <time>1970-01-01T03:44:28.000Z</time>
      </trkpt>
      <trkpt lat="41.085648" lon="-6.729265">
        <ele>599.3</ele>
        <time>1970-01-01T03:44:29.000Z</time>
      </trkpt>
      <trkpt lat="41.085672" lon="-6.729242">
        <ele>599.1</ele>
        <time>1970-01-01T03:44:30.000Z</time>
      </trkpt>
      <trkpt lat="41.085697" lon="-6.729219">
        <ele>599</ele>
        <time>1970-01-01T03:44:31.000Z</time>
      </trkpt>
      <trkpt lat="41.085723" lon="-6.729191">
        <ele>598.8</ele>
        <time>1970-01-01T03:44:32.000Z</time>
      </trkpt>
      <trkpt lat="41.085751" lon="-6.729158">
        <ele>598.6</ele>
        <time>1970-01-01T03:44:33.000Z</time>
      </trkpt>
      <trkpt lat="41.085781" lon="-6.729122">
        <ele>598.4</ele>
        <time>1970-01-01T03:44:34.000Z</time>
      </trkpt>
      <trkpt lat="41.085813" lon="-6.729085">
        <ele>598.2</ele>
        <time>1970-01-01T03:44:35.000Z</time>
      </trkpt>
      <trkpt lat="41.085846" lon="-6.729046">
        <ele>598</ele>
        <time>1970-01-01T03:44:36.000Z</time>
      </trkpt>
      <trkpt lat="41.08588" lon="-6.729006">
        <ele>597.8</ele>
        <time>1970-01-01T03:44:37.000Z</time>
      </trkpt>
      <trkpt lat="41.085916" lon="-6.728965">
        <ele>597.5</ele>
        <time>1970-01-01T03:44:38.000Z</time>
      </trkpt>
      <trkpt lat="41.085952" lon="-6.728922">
        <ele>597.3</ele>
        <time>1970-01-01T03:44:39.000Z</time>
      </trkpt>
      <trkpt lat="41.085988" lon="-6.728878">
        <ele>597</ele>
        <time>1970-01-01T03:44:40.000Z</time>
      </trkpt>
      <trkpt lat="41.086024" lon="-6.728831">
        <ele>596.8</ele>
        <time>1970-01-01T03:44:41.000Z</time>
      </trkpt>
      <trkpt lat="41.08606" lon="-6.728785">
        <ele>596.6</ele>
        <time>1970-01-01T03:44:42.000Z</time>
      </trkpt>
      <trkpt lat="41.086098" lon="-6.728738">
        <ele>596.3</ele>
        <time>1970-01-01T03:44:43.000Z</time>
      </trkpt>
      <trkpt lat="41.086136" lon="-6.72869">
        <ele>596</ele>
        <time>1970-01-01T03:44:44.000Z</time>
      </trkpt>
      <trkpt lat="41.086175" lon="-6.728638">
        <ele>595.8</ele>
        <time>1970-01-01T03:44:45.000Z</time>
      </trkpt>
      <trkpt lat="41.086214" lon="-6.728586">
        <ele>595.5</ele>
        <time>1970-01-01T03:44:46.000Z</time>
      </trkpt>
      <trkpt lat="41.086252" lon="-6.728533">
        <ele>595.2</ele>
        <time>1970-01-01T03:44:47.000Z</time>
      </trkpt>
      <trkpt lat="41.086291" lon="-6.72848">
        <ele>595</ele>
        <time>1970-01-01T03:44:48.000Z</time>
      </trkpt>
      <trkpt lat="41.086327" lon="-6.728427">
        <ele>594.7</ele>
        <time>1970-01-01T03:44:49.000Z</time>
      </trkpt>
      <trkpt lat="41.086362" lon="-6.728373">
        <ele>594.4</ele>
        <time>1970-01-01T03:44:50.000Z</time>
      </trkpt>
      <trkpt lat="41.086396" lon="-6.72832">
        <ele>594.2</ele>
        <time>1970-01-01T03:44:51.000Z</time>
      </trkpt>
      <trkpt lat="41.086431" lon="-6.728267">
        <ele>593.9</ele>
        <time>1970-01-01T03:44:52.000Z</time>
      </trkpt>
      <trkpt lat="41.086467" lon="-6.728212">
        <ele>593.6</ele>
        <time>1970-01-01T03:44:53.000Z</time>
      </trkpt>
      <trkpt lat="41.086505" lon="-6.728157">
        <ele>593.4</ele>
        <time>1970-01-01T03:44:54.000Z</time>
      </trkpt>
      <trkpt lat="41.086542" lon="-6.728101">
        <ele>593.1</ele>
        <time>1970-01-01T03:44:55.000Z</time>
      </trkpt>
      <trkpt lat="41.086581" lon="-6.728044">
        <ele>592.8</ele>
        <time>1970-01-01T03:44:56.000Z</time>
      </trkpt>
      <trkpt lat="41.086621" lon="-6.727988">
        <ele>592.5</ele>
        <time>1970-01-01T03:44:57.000Z</time>
      </trkpt>
      <trkpt lat="41.086662" lon="-6.727933">
        <ele>592.2</ele>
        <time>1970-01-01T03:44:58.000Z</time>
      </trkpt>
      <trkpt lat="41.086706" lon="-6.727879">
        <ele>591.9</ele>
        <time>1970-01-01T03:44:59.000Z</time>
      </trkpt>
      <trkpt lat="41.086751" lon="-6.727827">
        <ele>591.6</ele>
        <time>1970-01-01T03:45:00.000Z</time>
      </trkpt>
      <trkpt lat="41.086799" lon="-6.727778">
        <ele>591.3</ele>
        <time>1970-01-01T03:45:01.000Z</time>
      </trkpt>
      <trkpt lat="41.08685" lon="-6.727728">
        <ele>591</ele>
        <time>1970-01-01T03:45:02.000Z</time>
      </trkpt>
      <trkpt lat="41.086901" lon="-6.727678">
        <ele>590.7</ele>
        <time>1970-01-01T03:45:03.000Z</time>
      </trkpt>
      <trkpt lat="41.086952" lon="-6.727627">
        <ele>590.4</ele>
        <time>1970-01-01T03:45:04.000Z</time>
      </trkpt>
      <trkpt lat="41.087002" lon="-6.727577">
        <ele>590.1</ele>
        <time>1970-01-01T03:45:05.000Z</time>
      </trkpt>
      <trkpt lat="41.087053" lon="-6.727525">
        <ele>589.8</ele>
        <time>1970-01-01T03:45:06.000Z</time>
      </trkpt>
      <trkpt lat="41.087108" lon="-6.727472">
        <ele>589.4</ele>
        <time>1970-01-01T03:45:07.000Z</time>
      </trkpt>
      <trkpt lat="41.087164" lon="-6.727417">
        <ele>589.1</ele>
        <time>1970-01-01T03:45:08.000Z</time>
      </trkpt>
      <trkpt lat="41.087222" lon="-6.72736">
        <ele>588.7</ele>
        <time>1970-01-01T03:45:09.000Z</time>
      </trkpt>
      <trkpt lat="41.087281" lon="-6.727302">
        <ele>588.4</ele>
        <time>1970-01-01T03:45:10.000Z</time>
      </trkpt>
      <trkpt lat="41.087342" lon="-6.72724">
        <ele>588</ele>
        <time>1970-01-01T03:45:11.000Z</time>
      </trkpt>
      <trkpt lat="41.087404" lon="-6.727176">
        <ele>587.6</ele>
        <time>1970-01-01T03:45:12.000Z</time>
      </trkpt>
      <trkpt lat="41.087466" lon="-6.727111">
        <ele>587.2</ele>
        <time>1970-01-01T03:45:13.000Z</time>
      </trkpt>
      <trkpt lat="41.087526" lon="-6.727042">
        <ele>586.8</ele>
        <time>1970-01-01T03:45:14.000Z</time>
      </trkpt>
      <trkpt lat="41.087586" lon="-6.726972">
        <ele>586.4</ele>
        <time>1970-01-01T03:45:15.000Z</time>
      </trkpt>
      <trkpt lat="41.087645" lon="-6.7269">
        <ele>586.1</ele>
        <time>1970-01-01T03:45:16.000Z</time>
      </trkpt>
      <trkpt lat="41.087703" lon="-6.726827">
        <ele>585.7</ele>
        <time>1970-01-01T03:45:17.000Z</time>
      </trkpt>
      <trkpt lat="41.087759" lon="-6.726757">
        <ele>585.3</ele>
        <time>1970-01-01T03:45:18.000Z</time>
      </trkpt>
      <trkpt lat="41.087811" lon="-6.726687">
        <ele>584.9</ele>
        <time>1970-01-01T03:45:19.000Z</time>
      </trkpt>
      <trkpt lat="41.087857" lon="-6.726623">
        <ele>584.6</ele>
        <time>1970-01-01T03:45:20.000Z</time>
      </trkpt>
      <trkpt lat="41.087897" lon="-6.726564">
        <ele>584.3</ele>
        <time>1970-01-01T03:45:21.000Z</time>
      </trkpt>
      <trkpt lat="41.08793" lon="-6.726514">
        <ele>584</ele>
        <time>1970-01-01T03:45:22.000Z</time>
      </trkpt>
      <trkpt lat="41.087956" lon="-6.726471">
        <ele>583.8</ele>
        <time>1970-01-01T03:45:23.000Z</time>
      </trkpt>
      <trkpt lat="41.087974" lon="-6.726439">
        <ele>583.7</ele>
        <time>1970-01-01T03:45:24.000Z</time>
      </trkpt>
      <trkpt lat="41.087987" lon="-6.726414">
        <ele>583.6</ele>
        <time>1970-01-01T03:45:25.000Z</time>
      </trkpt>
      <trkpt lat="41.087995" lon="-6.726393">
        <ele>583.5</ele>
        <time>1970-01-01T03:45:26.000Z</time>
      </trkpt>
      <trkpt lat="41.088002" lon="-6.726371">
        <ele>583.4</ele>
        <time>1970-01-01T03:45:27.000Z</time>
      </trkpt>
      <trkpt lat="41.088008" lon="-6.726348">
        <ele>583.3</ele>
        <time>1970-01-01T03:45:28.000Z</time>
      </trkpt>
      <trkpt lat="41.088014" lon="-6.726325">
        <ele>583.2</ele>
        <time>1970-01-01T03:45:29.000Z</time>
      </trkpt>
      <trkpt lat="41.088021" lon="-6.726306">
        <ele>583.1</ele>
        <time>1970-01-01T03:45:30.000Z</time>
      </trkpt>
      <trkpt lat="41.088028" lon="-6.726287">
        <ele>583.1</ele>
        <time>1970-01-01T03:45:31.000Z</time>
      </trkpt>
      <trkpt lat="41.088036" lon="-6.726266">
        <ele>583</ele>
        <time>1970-01-01T03:45:32.000Z</time>
      </trkpt>
      <trkpt lat="41.088045" lon="-6.72624">
        <ele>582.9</ele>
        <time>1970-01-01T03:45:33.000Z</time>
      </trkpt>
      <trkpt lat="41.088057" lon="-6.726209">
        <ele>582.7</ele>
        <time>1970-01-01T03:45:34.000Z</time>
      </trkpt>
      <trkpt lat="41.088072" lon="-6.726177">
        <ele>582.6</ele>
        <time>1970-01-01T03:45:35.000Z</time>
      </trkpt>
      <trkpt lat="41.088089" lon="-6.726143">
        <ele>582.5</ele>
        <time>1970-01-01T03:45:36.000Z</time>
      </trkpt>
      <trkpt lat="41.088106" lon="-6.72611">
        <ele>582.3</ele>
        <time>1970-01-01T03:45:37.000Z</time>
      </trkpt>
      <trkpt lat="41.088124" lon="-6.726075">
        <ele>582.2</ele>
        <time>1970-01-01T03:45:38.000Z</time>
      </trkpt>
      <trkpt lat="41.088143" lon="-6.726038">
        <ele>582</ele>
        <time>1970-01-01T03:45:39.000Z</time>
      </trkpt>
      <trkpt lat="41.088164" lon="-6.725999">
        <ele>581.8</ele>
        <time>1970-01-01T03:45:40.000Z</time>
      </trkpt>
      <trkpt lat="41.088183" lon="-6.725957">
        <ele>581.6</ele>
        <time>1970-01-01T03:45:41.000Z</time>
      </trkpt>
      <trkpt lat="41.088198" lon="-6.725914">
        <ele>581.5</ele>
        <time>1970-01-01T03:45:42.000Z</time>
      </trkpt>
      <trkpt lat="41.088206" lon="-6.725876">
        <ele>581.3</ele>
        <time>1970-01-01T03:45:43.000Z</time>
      </trkpt>
      <trkpt lat="41.088213" lon="-6.725843">
        <ele>581.2</ele>
        <time>1970-01-01T03:45:44.000Z</time>
      </trkpt>
      <trkpt lat="41.088214" lon="-6.725813">
        <ele>581.1</ele>
        <time>1970-01-01T03:45:45.000Z</time>
      </trkpt>
      <trkpt lat="41.088214" lon="-6.725784">
        <ele>581</ele>
        <time>1970-01-01T03:45:46.000Z</time>
      </trkpt>
      <trkpt lat="41.088213" lon="-6.725756">
        <ele>580.9</ele>
        <time>1970-01-01T03:45:47.000Z</time>
      </trkpt>
      <trkpt lat="41.088212" lon="-6.725729">
        <ele>580.8</ele>
        <time>1970-01-01T03:45:48.000Z</time>
      </trkpt>
      <trkpt lat="41.088213" lon="-6.725702">
        <ele>580.7</ele>
        <time>1970-01-01T03:45:49.000Z</time>
      </trkpt>
      <trkpt lat="41.088211" lon="-6.725676">
        <ele>580.6</ele>
        <time>1970-01-01T03:45:50.000Z</time>
      </trkpt>
      <trkpt lat="41.08821" lon="-6.72565">
        <ele>580.5</ele>
        <time>1970-01-01T03:45:51.000Z</time>
      </trkpt>
      <trkpt lat="41.088211" lon="-6.725625">
        <ele>580.4</ele>
        <time>1970-01-01T03:45:52.000Z</time>
      </trkpt>
      <trkpt lat="41.088214" lon="-6.725599">
        <ele>580.3</ele>
        <time>1970-01-01T03:45:53.000Z</time>
      </trkpt>
      <trkpt lat="41.088217" lon="-6.725575">
        <ele>580.2</ele>
        <time>1970-01-01T03:45:54.000Z</time>
      </trkpt>
      <trkpt lat="41.08822" lon="-6.725552">
        <ele>580.1</ele>
        <time>1970-01-01T03:45:55.000Z</time>
      </trkpt>
      <trkpt lat="41.088221" lon="-6.725534">
        <ele>580</ele>
        <time>1970-01-01T03:45:56.000Z</time>
      </trkpt>
      <trkpt lat="41.088221" lon="-6.725516">
        <ele>580</ele>
        <time>1970-01-01T03:45:57.000Z</time>
      </trkpt>
      <trkpt lat="41.088222" lon="-6.725498">
        <ele>579.9</ele>
        <time>1970-01-01T03:45:58.000Z</time>
      </trkpt>
      <trkpt lat="41.088225" lon="-6.725478">
        <ele>579.8</ele>
        <time>1970-01-01T03:45:59.000Z</time>
      </trkpt>
      <trkpt lat="41.08823" lon="-6.725454">
        <ele>579.7</ele>
        <time>1970-01-01T03:46:00.000Z</time>
      </trkpt>
      <trkpt lat="41.088235" lon="-6.725421">
        <ele>579.6</ele>
        <time>1970-01-01T03:46:01.000Z</time>
      </trkpt>
      <trkpt lat="41.088242" lon="-6.725382">
        <ele>579.5</ele>
        <time>1970-01-01T03:46:02.000Z</time>
      </trkpt>
      <trkpt lat="41.08825" lon="-6.725338">
        <ele>579.3</ele>
        <time>1970-01-01T03:46:03.000Z</time>
      </trkpt>
      <trkpt lat="41.08826" lon="-6.725298">
        <ele>579.1</ele>
        <time>1970-01-01T03:46:04.000Z</time>
      </trkpt>
      <trkpt lat="41.088272" lon="-6.72526">
        <ele>579</ele>
        <time>1970-01-01T03:46:05.000Z</time>
      </trkpt>
      <trkpt lat="41.088283" lon="-6.725224">
        <ele>578.8</ele>
        <time>1970-01-01T03:46:06.000Z</time>
      </trkpt>
      <trkpt lat="41.088294" lon="-6.725187">
        <ele>578.7</ele>
        <time>1970-01-01T03:46:07.000Z</time>
      </trkpt>
      <trkpt lat="41.088305" lon="-6.725152">
        <ele>578.5</ele>
        <time>1970-01-01T03:46:08.000Z</time>
      </trkpt>
      <trkpt lat="41.088315" lon="-6.725117">
        <ele>578.4</ele>
        <time>1970-01-01T03:46:09.000Z</time>
      </trkpt>
      <trkpt lat="41.088325" lon="-6.725086">
        <ele>578.3</ele>
        <time>1970-01-01T03:46:10.000Z</time>
      </trkpt>
      <trkpt lat="41.088336" lon="-6.725054">
        <ele>578.2</ele>
        <time>1970-01-01T03:46:11.000Z</time>
      </trkpt>
      <trkpt lat="41.088348" lon="-6.725023">
        <ele>578</ele>
        <time>1970-01-01T03:46:12.000Z</time>
      </trkpt>
      <trkpt lat="41.088359" lon="-6.724992">
        <ele>577.9</ele>
        <time>1970-01-01T03:46:13.000Z</time>
      </trkpt>
      <trkpt lat="41.08837" lon="-6.724962">
        <ele>577.8</ele>
        <time>1970-01-01T03:46:14.000Z</time>
      </trkpt>
      <trkpt lat="41.088381" lon="-6.724932">
        <ele>577.6</ele>
        <time>1970-01-01T03:46:15.000Z</time>
      </trkpt>
      <trkpt lat="41.088391" lon="-6.724903">
        <ele>577.5</ele>
        <time>1970-01-01T03:46:16.000Z</time>
      </trkpt>
      <trkpt lat="41.088401" lon="-6.724879">
        <ele>577.4</ele>
        <time>1970-01-01T03:46:17.000Z</time>
      </trkpt>
      <trkpt lat="41.088409" lon="-6.724858">
        <ele>577.3</ele>
        <time>1970-01-01T03:46:18.000Z</time>
      </trkpt>
      <trkpt lat="41.088416" lon="-6.724842">
        <ele>577.3</ele>
        <time>1970-01-01T03:46:19.000Z</time>
      </trkpt>
      <trkpt lat="41.088423" lon="-6.724827">
        <ele>577.2</ele>
        <time>1970-01-01T03:46:20.000Z</time>
      </trkpt>
      <trkpt lat="41.088427" lon="-6.724816">
        <ele>577.2</ele>
        <time>1970-01-01T03:46:21.000Z</time>
      </trkpt>
      <trkpt lat="41.08843" lon="-6.724811">
        <ele>577.1</ele>
        <time>1970-01-01T03:46:22.000Z</time>
      </trkpt>
      <trkpt lat="41.088432" lon="-6.724807">
        <ele>577.1</ele>
        <time>1970-01-01T03:46:23.000Z</time>
      </trkpt>
      <trkpt lat="41.088435" lon="-6.724803">
        <ele>577.1</ele>
        <time>1970-01-01T03:46:24.000Z</time>
      </trkpt>
      <trkpt lat="41.088439" lon="-6.724796">
        <ele>577.1</ele>
        <time>1970-01-01T03:46:25.000Z</time>
      </trkpt>
      <trkpt lat="41.088444" lon="-6.724787">
        <ele>577</ele>
        <time>1970-01-01T03:46:26.000Z</time>
      </trkpt>
      <trkpt lat="41.088448" lon="-6.724776">
        <ele>577</ele>
        <time>1970-01-01T03:46:27.000Z</time>
      </trkpt>
      <trkpt lat="41.088452" lon="-6.724768">
        <ele>576.9</ele>
        <time>1970-01-01T03:46:28.000Z</time>
      </trkpt>
      <trkpt lat="41.088456" lon="-6.72476">
        <ele>576.9</ele>
        <time>1970-01-01T03:46:29.000Z</time>
      </trkpt>
      <trkpt lat="41.08846" lon="-6.724749">
        <ele>576.9</ele>
        <time>1970-01-01T03:46:30.000Z</time>
      </trkpt>
      <trkpt lat="41.088466" lon="-6.724735">
        <ele>576.8</ele>
        <time>1970-01-01T03:46:31.000Z</time>
      </trkpt>
      <trkpt lat="41.088473" lon="-6.724718">
        <ele>576.7</ele>
        <time>1970-01-01T03:46:32.000Z</time>
      </trkpt>
      <trkpt lat="41.088479" lon="-6.724701">
        <ele>576.7</ele>
        <time>1970-01-01T03:46:33.000Z</time>
      </trkpt>
      <trkpt lat="41.088486" lon="-6.724684">
        <ele>576.6</ele>
        <time>1970-01-01T03:46:34.000Z</time>
      </trkpt>
      <trkpt lat="41.088492" lon="-6.724668">
        <ele>576.5</ele>
        <time>1970-01-01T03:46:35.000Z</time>
      </trkpt>
      <trkpt lat="41.088497" lon="-6.724654">
        <ele>576.5</ele>
        <time>1970-01-01T03:46:36.000Z</time>
      </trkpt>
      <trkpt lat="41.088504" lon="-6.724638">
        <ele>576.4</ele>
        <time>1970-01-01T03:46:37.000Z</time>
      </trkpt>
      <trkpt lat="41.088512" lon="-6.724618">
        <ele>576.3</ele>
        <time>1970-01-01T03:46:38.000Z</time>
      </trkpt>
      <trkpt lat="41.088523" lon="-6.724594">
        <ele>576.2</ele>
        <time>1970-01-01T03:46:39.000Z</time>
      </trkpt>
      <trkpt lat="41.088534" lon="-6.72457">
        <ele>576.1</ele>
        <time>1970-01-01T03:46:40.000Z</time>
      </trkpt>
      <trkpt lat="41.088542" lon="-6.724548">
        <ele>576</ele>
        <time>1970-01-01T03:46:41.000Z</time>
      </trkpt>
      <trkpt lat="41.088548" lon="-6.724529">
        <ele>575.9</ele>
        <time>1970-01-01T03:46:42.000Z</time>
      </trkpt>
      <trkpt lat="41.088553" lon="-6.724515">
        <ele>575.9</ele>
        <time>1970-01-01T03:46:43.000Z</time>
      </trkpt>
      <trkpt lat="41.088557" lon="-6.724505">
        <ele>575.8</ele>
        <time>1970-01-01T03:46:44.000Z</time>
      </trkpt>
      <trkpt lat="41.088559" lon="-6.724499">
        <ele>575.8</ele>
        <time>1970-01-01T03:46:45.000Z</time>
      </trkpt>
      <trkpt lat="41.088559" lon="-6.724497">
        <ele>575.8</ele>
        <time>1970-01-01T03:46:46.000Z</time>
      </trkpt>
      <trkpt lat="41.08856" lon="-6.724495">
        <ele>575.8</ele>
        <time>1970-01-01T03:46:47.000Z</time>
      </trkpt>
      <trkpt lat="41.088559" lon="-6.724496">
        <ele>575.8</ele>
        <time>1970-01-01T03:46:48.000Z</time>
      </trkpt>
      <trkpt lat="41.088558" lon="-6.724497">
        <ele>575.8</ele>
        <time>1970-01-01T03:46:49.000Z</time>
      </trkpt>
      <trkpt lat="41.088557" lon="-6.724498">
        <ele>575.8</ele>
        <time>1970-01-01T03:46:50.000Z</time>
      </trkpt>
      <trkpt lat="41.088557" lon="-6.724499">
        <ele>575.8</ele>
        <time>1970-01-01T03:46:51.000Z</time>
      </trkpt>
      <trkpt lat="41.088558" lon="-6.724499">
        <ele>575.8</ele>
        <time>1970-01-01T03:46:52.000Z</time>
      </trkpt>
      <trkpt lat="41.088564" lon="-6.724448">
        <ele>575.6</ele>
        <time>1970-01-01T03:46:53.000Z</time>
      </trkpt>
      <trkpt lat="41.088565" lon="-6.724445">
        <ele>575.6</ele>
        <time>1970-01-01T03:46:54.000Z</time>
      </trkpt>
      <trkpt lat="41.088567" lon="-6.72444">
        <ele>575.5</ele>
        <time>1970-01-01T03:47:29.000Z</time>
      </trkpt>
      <trkpt lat="41.08857" lon="-6.724433">
        <ele>575.5</ele>
        <time>1970-01-01T03:47:30.000Z</time>
      </trkpt>
      <trkpt lat="41.088574" lon="-6.724425">
        <ele>575.5</ele>
        <time>1970-01-01T03:47:31.000Z</time>
      </trkpt>
      <trkpt lat="41.088578" lon="-6.724417">
        <ele>575.4</ele>
        <time>1970-01-01T03:47:32.000Z</time>
      </trkpt>
      <trkpt lat="41.088584" lon="-6.724408">
        <ele>575.4</ele>
        <time>1970-01-01T03:47:33.000Z</time>
      </trkpt>
      <trkpt lat="41.08859" lon="-6.724399">
        <ele>575.4</ele>
        <time>1970-01-01T03:47:34.000Z</time>
      </trkpt>
      <trkpt lat="41.088599" lon="-6.72439">
        <ele>574.8</ele>
        <time>1970-01-01T03:47:35.000Z</time>
      </trkpt>
      <trkpt lat="41.088608" lon="-6.724382">
        <ele>574.6</ele>
        <time>1970-01-01T03:47:36.000Z</time>
      </trkpt>
      <trkpt lat="41.088615" lon="-6.724375">
        <ele>574.5</ele>
        <time>1970-01-01T03:47:37.000Z</time>
      </trkpt>
      <trkpt lat="41.08862" lon="-6.724369">
        <ele>574.5</ele>
        <time>1970-01-01T03:47:38.000Z</time>
      </trkpt>
      <trkpt lat="41.088626" lon="-6.724363">
        <ele>574.4</ele>
        <time>1970-01-01T03:47:39.000Z</time>
      </trkpt>
      <trkpt lat="41.088635" lon="-6.724358">
        <ele>574.3</ele>
        <time>1970-01-01T03:47:40.000Z</time>
      </trkpt>
      <trkpt lat="41.088646" lon="-6.724351">
        <ele>574.1</ele>
        <time>1970-01-01T03:47:41.000Z</time>
      </trkpt>
      <trkpt lat="41.088662" lon="-6.72434">
        <ele>573.9</ele>
        <time>1970-01-01T03:47:42.000Z</time>
      </trkpt>
      <trkpt lat="41.08868" lon="-6.724327">
        <ele>573.7</ele>
        <time>1970-01-01T03:47:43.000Z</time>
      </trkpt>
      <trkpt lat="41.0887" lon="-6.724312">
        <ele>573.4</ele>
        <time>1970-01-01T03:47:44.000Z</time>
      </trkpt>
      <trkpt lat="41.088716" lon="-6.724297">
        <ele>573.2</ele>
        <time>1970-01-01T03:47:45.000Z</time>
      </trkpt>
      <trkpt lat="41.088731" lon="-6.724281">
        <ele>573</ele>
        <time>1970-01-01T03:47:46.000Z</time>
      </trkpt>
      <trkpt lat="41.088743" lon="-6.724269">
        <ele>572.8</ele>
        <time>1970-01-01T03:47:47.000Z</time>
      </trkpt>
      <trkpt lat="41.088754" lon="-6.724258">
        <ele>572.6</ele>
        <time>1970-01-01T03:47:48.000Z</time>
      </trkpt>
      <trkpt lat="41.088762" lon="-6.72425">
        <ele>572.3</ele>
        <time>1970-01-01T03:47:49.000Z</time>
      </trkpt>
      <trkpt lat="41.088766" lon="-6.724244">
        <ele>572.2</ele>
        <time>1970-01-01T03:47:50.000Z</time>
      </trkpt>
      <trkpt lat="41.088765" lon="-6.724242">
        <ele>572.2</ele>
        <time>1970-01-01T03:47:51.000Z</time>
      </trkpt>
      <trkpt lat="41.088763" lon="-6.724242">
        <ele>572.2</ele>
        <time>1970-01-01T03:47:52.000Z</time>
      </trkpt>
      <trkpt lat="41.088762" lon="-6.724241">
        <ele>572.2</ele>
        <time>1970-01-01T03:47:53.000Z</time>
      </trkpt>
      <trkpt lat="41.088762" lon="-6.72424">
        <ele>572.1</ele>
        <time>1970-01-01T03:47:54.000Z</time>
      </trkpt>
      <trkpt lat="41.088763" lon="-6.724239">
        <ele>572.1</ele>
        <time>1970-01-01T03:47:55.000Z</time>
      </trkpt>
      <trkpt lat="41.088764" lon="-6.724239">
        <ele>572.1</ele>
        <time>1970-01-01T03:47:56.000Z</time>
      </trkpt>
      <trkpt lat="41.088764" lon="-6.724239">
        <ele>572.1</ele>
        <time>1970-01-01T03:47:57.000Z</time>
      </trkpt>
      <trkpt lat="41.088793" lon="-6.724195">
        <ele>571.6</ele>
        <time>1970-01-01T03:47:58.000Z</time>
      </trkpt>
      <trkpt lat="41.088798" lon="-6.724187">
        <ele>571.5</ele>
        <time>1970-01-01T03:47:59.000Z</time>
      </trkpt>
      <trkpt lat="41.088804" lon="-6.724179">
        <ele>571.4</ele>
        <time>1970-01-01T03:48:14.000Z</time>
      </trkpt>
      <trkpt lat="41.088811" lon="-6.724169">
        <ele>571.3</ele>
        <time>1970-01-01T03:48:15.000Z</time>
      </trkpt>
      <trkpt lat="41.088818" lon="-6.724158">
        <ele>571.2</ele>
        <time>1970-01-01T03:48:16.000Z</time>
      </trkpt>
      <trkpt lat="41.088825" lon="-6.724147">
        <ele>571.1</ele>
        <time>1970-01-01T03:48:17.000Z</time>
      </trkpt>
      <trkpt lat="41.088832" lon="-6.724135">
        <ele>571</ele>
        <time>1970-01-01T03:48:18.000Z</time>
      </trkpt>
      <trkpt lat="41.08884" lon="-6.724122">
        <ele>570.8</ele>
        <time>1970-01-01T03:48:19.000Z</time>
      </trkpt>
      <trkpt lat="41.088849" lon="-6.724108">
        <ele>570.7</ele>
        <time>1970-01-01T03:48:20.000Z</time>
      </trkpt>
      <trkpt lat="41.088859" lon="-6.724093">
        <ele>570.5</ele>
        <time>1970-01-01T03:48:21.000Z</time>
      </trkpt>
      <trkpt lat="41.088871" lon="-6.724071">
        <ele>570.3</ele>
        <time>1970-01-01T03:48:22.000Z</time>
      </trkpt>
      <trkpt lat="41.088885" lon="-6.724047">
        <ele>570</ele>
        <time>1970-01-01T03:48:23.000Z</time>
      </trkpt>
      <trkpt lat="41.088899" lon="-6.724024">
        <ele>569.8</ele>
        <time>1970-01-01T03:48:24.000Z</time>
      </trkpt>
      <trkpt lat="41.088912" lon="-6.724003">
        <ele>569.5</ele>
        <time>1970-01-01T03:48:25.000Z</time>
      </trkpt>
      <trkpt lat="41.088923" lon="-6.723983">
        <ele>569.3</ele>
        <time>1970-01-01T03:48:26.000Z</time>
      </trkpt>
      <trkpt lat="41.088933" lon="-6.723963">
        <ele>569.1</ele>
        <time>1970-01-01T03:48:27.000Z</time>
      </trkpt>
      <trkpt lat="41.088943" lon="-6.723943">
        <ele>568.9</ele>
        <time>1970-01-01T03:48:28.000Z</time>
      </trkpt>
      <trkpt lat="41.088954" lon="-6.72392">
        <ele>568.7</ele>
        <time>1970-01-01T03:48:29.000Z</time>
      </trkpt>
      <trkpt lat="41.088966" lon="-6.723897">
        <ele>568.5</ele>
        <time>1970-01-01T03:48:30.000Z</time>
      </trkpt>
      <trkpt lat="41.088977" lon="-6.723877">
        <ele>568.2</ele>
        <time>1970-01-01T03:48:31.000Z</time>
      </trkpt>
      <trkpt lat="41.088987" lon="-6.723861">
        <ele>568.1</ele>
        <time>1970-01-01T03:48:32.000Z</time>
      </trkpt>
      <trkpt lat="41.088995" lon="-6.723847">
        <ele>567.9</ele>
        <time>1970-01-01T03:48:33.000Z</time>
      </trkpt>
      <trkpt lat="41.089001" lon="-6.723835">
        <ele>567.8</ele>
        <time>1970-01-01T03:48:34.000Z</time>
      </trkpt>
      <trkpt lat="41.089008" lon="-6.723822">
        <ele>567.7</ele>
        <time>1970-01-01T03:48:35.000Z</time>
      </trkpt>
      <trkpt lat="41.089016" lon="-6.723809">
        <ele>567.5</ele>
        <time>1970-01-01T03:48:36.000Z</time>
      </trkpt>
      <trkpt lat="41.089023" lon="-6.723795">
        <ele>567.4</ele>
        <time>1970-01-01T03:48:37.000Z</time>
      </trkpt>
      <trkpt lat="41.089029" lon="-6.723783">
        <ele>567.3</ele>
        <time>1970-01-01T03:48:38.000Z</time>
      </trkpt>
      <trkpt lat="41.089034" lon="-6.723773">
        <ele>567.2</ele>
        <time>1970-01-01T03:48:39.000Z</time>
      </trkpt>
      <trkpt lat="41.089038" lon="-6.723766">
        <ele>567.1</ele>
        <time>1970-01-01T03:48:40.000Z</time>
      </trkpt>
      <trkpt lat="41.089043" lon="-6.723758">
        <ele>567</ele>
        <time>1970-01-01T03:48:41.000Z</time>
      </trkpt>
      <trkpt lat="41.089049" lon="-6.723751">
        <ele>566.9</ele>
        <time>1970-01-01T03:48:42.000Z</time>
      </trkpt>
      <trkpt lat="41.089056" lon="-6.723742">
        <ele>566.8</ele>
        <time>1970-01-01T03:48:43.000Z</time>
      </trkpt>
      <trkpt lat="41.089064" lon="-6.723731">
        <ele>566.7</ele>
        <time>1970-01-01T03:48:44.000Z</time>
      </trkpt>
      <trkpt lat="41.089072" lon="-6.723717">
        <ele>566.5</ele>
        <time>1970-01-01T03:48:45.000Z</time>
      </trkpt>
      <trkpt lat="41.08908" lon="-6.723704">
        <ele>566.4</ele>
        <time>1970-01-01T03:48:46.000Z</time>
      </trkpt>
      <trkpt lat="41.089086" lon="-6.723692">
        <ele>566.3</ele>
        <time>1970-01-01T03:48:47.000Z</time>
      </trkpt>
      <trkpt lat="41.089091" lon="-6.723685">
        <ele>566.2</ele>
        <time>1970-01-01T03:48:48.000Z</time>
      </trkpt>
      <trkpt lat="41.089093" lon="-6.72368">
        <ele>566.1</ele>
        <time>1970-01-01T03:48:49.000Z</time>
      </trkpt>
      <trkpt lat="41.089093" lon="-6.723679">
        <ele>566.1</ele>
        <time>1970-01-01T03:48:50.000Z</time>
      </trkpt>
      <trkpt lat="41.089093" lon="-6.723677">
        <ele>566.1</ele>
        <time>1970-01-01T03:48:51.000Z</time>
      </trkpt>
      <trkpt lat="41.089092" lon="-6.723677">
        <ele>566.1</ele>
        <time>1970-01-01T03:48:52.000Z</time>
      </trkpt>
      <trkpt lat="41.089092" lon="-6.723676">
        <ele>566.1</ele>
        <time>1970-01-01T03:48:53.000Z</time>
      </trkpt>
      <trkpt lat="41.089092" lon="-6.723676">
        <ele>566.1</ele>
        <time>1970-01-01T03:48:54.000Z</time>
      </trkpt>
      <trkpt lat="41.089092" lon="-6.723675">
        <ele>566.1</ele>
        <time>1970-01-01T03:48:55.000Z</time>
      </trkpt>
      <trkpt lat="41.089093" lon="-6.723674">
        <ele>566.1</ele>
        <time>1970-01-01T03:48:56.000Z</time>
      </trkpt>
      <trkpt lat="41.089102" lon="-6.723619">
        <ele>565.6</ele>
        <time>1970-01-01T03:48:57.000Z</time>
      </trkpt>
      <trkpt lat="41.089108" lon="-6.723605">
        <ele>565.5</ele>
        <time>1970-01-01T03:48:58.000Z</time>
      </trkpt>
      <trkpt lat="41.089114" lon="-6.723589">
        <ele>565.3</ele>
        <time>1970-01-01T03:49:27.000Z</time>
      </trkpt>
      <trkpt lat="41.089122" lon="-6.723574">
        <ele>565.2</ele>
        <time>1970-01-01T03:49:28.000Z</time>
      </trkpt>
      <trkpt lat="41.08913" lon="-6.723557">
        <ele>565</ele>
        <time>1970-01-01T03:49:29.000Z</time>
      </trkpt>
      <trkpt lat="41.089138" lon="-6.723539">
        <ele>564.8</ele>
        <time>1970-01-01T03:49:30.000Z</time>
      </trkpt>
      <trkpt lat="41.089145" lon="-6.723518">
        <ele>564.6</ele>
        <time>1970-01-01T03:49:31.000Z</time>
      </trkpt>
      <trkpt lat="41.089156" lon="-6.723494">
        <ele>564.4</ele>
        <time>1970-01-01T03:49:32.000Z</time>
      </trkpt>
      <trkpt lat="41.089167" lon="-6.723469">
        <ele>564.1</ele>
        <time>1970-01-01T03:49:33.000Z</time>
      </trkpt>
      <trkpt lat="41.08918" lon="-6.723444">
        <ele>563.9</ele>
        <time>1970-01-01T03:49:34.000Z</time>
      </trkpt>
      <trkpt lat="41.089189" lon="-6.723421">
        <ele>563.7</ele>
        <time>1970-01-01T03:49:35.000Z</time>
      </trkpt>
      <trkpt lat="41.089197" lon="-6.723399">
        <ele>563.5</ele>
        <time>1970-01-01T03:49:36.000Z</time>
      </trkpt>
      <trkpt lat="41.089203" lon="-6.723378">
        <ele>563.3</ele>
        <time>1970-01-01T03:49:37.000Z</time>
      </trkpt>
      <trkpt lat="41.089212" lon="-6.723356">
        <ele>563.1</ele>
        <time>1970-01-01T03:49:38.000Z</time>
      </trkpt>
      <trkpt lat="41.089221" lon="-6.723333">
        <ele>562.8</ele>
        <time>1970-01-01T03:49:39.000Z</time>
      </trkpt>
      <trkpt lat="41.08923" lon="-6.723308">
        <ele>562.6</ele>
        <time>1970-01-01T03:49:40.000Z</time>
      </trkpt>
      <trkpt lat="41.089236" lon="-6.723284">
        <ele>562.4</ele>
        <time>1970-01-01T03:49:41.000Z</time>
      </trkpt>
      <trkpt lat="41.089242" lon="-6.72326">
        <ele>562.2</ele>
        <time>1970-01-01T03:49:42.000Z</time>
      </trkpt>
      <trkpt lat="41.089249" lon="-6.723236">
        <ele>562</ele>
        <time>1970-01-01T03:49:43.000Z</time>
      </trkpt>
      <trkpt lat="41.089257" lon="-6.723213">
        <ele>561.8</ele>
        <time>1970-01-01T03:49:44.000Z</time>
      </trkpt>
      <trkpt lat="41.089265" lon="-6.723189">
        <ele>561.5</ele>
        <time>1970-01-01T03:49:45.000Z</time>
      </trkpt>
      <trkpt lat="41.089275" lon="-6.723165">
        <ele>561.3</ele>
        <time>1970-01-01T03:49:46.000Z</time>
      </trkpt>
      <trkpt lat="41.089284" lon="-6.723143">
        <ele>561.1</ele>
        <time>1970-01-01T03:49:47.000Z</time>
      </trkpt>
      <trkpt lat="41.089294" lon="-6.723122">
        <ele>560.9</ele>
        <time>1970-01-01T03:49:48.000Z</time>
      </trkpt>
      <trkpt lat="41.089304" lon="-6.723101">
        <ele>560.7</ele>
        <time>1970-01-01T03:49:49.000Z</time>
      </trkpt>
      <trkpt lat="41.089313" lon="-6.72308">
        <ele>560.5</ele>
        <time>1970-01-01T03:49:50.000Z</time>
      </trkpt>
      <trkpt lat="41.089325" lon="-6.723058">
        <ele>560.2</ele>
        <time>1970-01-01T03:49:51.000Z</time>
      </trkpt>
      <trkpt lat="41.089337" lon="-6.723034">
        <ele>560</ele>
        <time>1970-01-01T03:49:52.000Z</time>
      </trkpt>
      <trkpt lat="41.08935" lon="-6.723012">
        <ele>559.8</ele>
        <time>1970-01-01T03:49:53.000Z</time>
      </trkpt>
      <trkpt lat="41.089361" lon="-6.722991">
        <ele>559.5</ele>
        <time>1970-01-01T03:49:54.000Z</time>
      </trkpt>
      <trkpt lat="41.089371" lon="-6.72297">
        <ele>559.3</ele>
        <time>1970-01-01T03:49:55.000Z</time>
      </trkpt>
      <trkpt lat="41.08938" lon="-6.722949">
        <ele>559.1</ele>
        <time>1970-01-01T03:49:56.000Z</time>
      </trkpt>
      <trkpt lat="41.08939" lon="-6.722928">
        <ele>558.9</ele>
        <time>1970-01-01T03:49:57.000Z</time>
      </trkpt>
      <trkpt lat="41.089401" lon="-6.722907">
        <ele>558.7</ele>
        <time>1970-01-01T03:49:58.000Z</time>
      </trkpt>
      <trkpt lat="41.089411" lon="-6.722886">
        <ele>558.5</ele>
        <time>1970-01-01T03:49:59.000Z</time>
      </trkpt>
      <trkpt lat="41.089423" lon="-6.722865">
        <ele>558.3</ele>
        <time>1970-01-01T03:50:00.000Z</time>
      </trkpt>
      <trkpt lat="41.089436" lon="-6.72284">
        <ele>558</ele>
        <time>1970-01-01T03:50:01.000Z</time>
      </trkpt>
      <trkpt lat="41.089449" lon="-6.722813">
        <ele>557.8</ele>
        <time>1970-01-01T03:50:02.000Z</time>
      </trkpt>
      <trkpt lat="41.089462" lon="-6.722784">
        <ele>557.5</ele>
        <time>1970-01-01T03:50:03.000Z</time>
      </trkpt>
      <trkpt lat="41.089475" lon="-6.722754">
        <ele>557.2</ele>
        <time>1970-01-01T03:50:04.000Z</time>
      </trkpt>
      <trkpt lat="41.08949" lon="-6.722724">
        <ele>556.9</ele>
        <time>1970-01-01T03:50:05.000Z</time>
      </trkpt>
      <trkpt lat="41.089504" lon="-6.722693">
        <ele>556.6</ele>
        <time>1970-01-01T03:50:06.000Z</time>
      </trkpt>
      <trkpt lat="41.089519" lon="-6.722663">
        <ele>556.3</ele>
        <time>1970-01-01T03:50:07.000Z</time>
      </trkpt>
      <trkpt lat="41.089534" lon="-6.722632">
        <ele>556</ele>
        <time>1970-01-01T03:50:08.000Z</time>
      </trkpt>
      <trkpt lat="41.089548" lon="-6.7226">
        <ele>555.6</ele>
        <time>1970-01-01T03:50:09.000Z</time>
      </trkpt>
      <trkpt lat="41.089562" lon="-6.722567">
        <ele>555.3</ele>
        <time>1970-01-01T03:50:10.000Z</time>
      </trkpt>
      <trkpt lat="41.089579" lon="-6.722533">
        <ele>555</ele>
        <time>1970-01-01T03:50:11.000Z</time>
      </trkpt>
      <trkpt lat="41.089598" lon="-6.722499">
        <ele>554.6</ele>
        <time>1970-01-01T03:50:12.000Z</time>
      </trkpt>
      <trkpt lat="41.089617" lon="-6.722464">
        <ele>554.3</ele>
        <time>1970-01-01T03:50:13.000Z</time>
      </trkpt>
      <trkpt lat="41.089634" lon="-6.72243">
        <ele>553.9</ele>
        <time>1970-01-01T03:50:14.000Z</time>
      </trkpt>
      <trkpt lat="41.089652" lon="-6.722396">
        <ele>553.6</ele>
        <time>1970-01-01T03:50:15.000Z</time>
      </trkpt>
      <trkpt lat="41.089671" lon="-6.722362">
        <ele>553.2</ele>
        <time>1970-01-01T03:50:16.000Z</time>
      </trkpt>
      <trkpt lat="41.08969" lon="-6.722328">
        <ele>552.9</ele>
        <time>1970-01-01T03:50:17.000Z</time>
      </trkpt>
      <trkpt lat="41.08971" lon="-6.722294">
        <ele>552.5</ele>
        <time>1970-01-01T03:50:18.000Z</time>
      </trkpt>
      <trkpt lat="41.089729" lon="-6.722261">
        <ele>552.1</ele>
        <time>1970-01-01T03:50:19.000Z</time>
      </trkpt>
      <trkpt lat="41.089748" lon="-6.722228">
        <ele>551.8</ele>
        <time>1970-01-01T03:50:20.000Z</time>
      </trkpt>
      <trkpt lat="41.089765" lon="-6.722195">
        <ele>551.5</ele>
        <time>1970-01-01T03:50:21.000Z</time>
      </trkpt>
      <trkpt lat="41.089781" lon="-6.722162">
        <ele>551.1</ele>
        <time>1970-01-01T03:50:22.000Z</time>
      </trkpt>
      <trkpt lat="41.089795" lon="-6.72213">
        <ele>550.8</ele>
        <time>1970-01-01T03:50:23.000Z</time>
      </trkpt>
      <trkpt lat="41.089806" lon="-6.722102">
        <ele>550.6</ele>
        <time>1970-01-01T03:50:24.000Z</time>
      </trkpt>
      <trkpt lat="41.089817" lon="-6.722075">
        <ele>550.3</ele>
        <time>1970-01-01T03:50:25.000Z</time>
      </trkpt>
      <trkpt lat="41.089828" lon="-6.72205">
        <ele>550</ele>
        <time>1970-01-01T03:50:26.000Z</time>
      </trkpt>
      <trkpt lat="41.089843" lon="-6.722022">
        <ele>549.8</ele>
        <time>1970-01-01T03:50:27.000Z</time>
      </trkpt>
      <trkpt lat="41.089857" lon="-6.721992">
        <ele>549.5</ele>
        <time>1970-01-01T03:50:28.000Z</time>
      </trkpt>
      <trkpt lat="41.08987" lon="-6.72196">
        <ele>549.2</ele>
        <time>1970-01-01T03:50:29.000Z</time>
      </trkpt>
      <trkpt lat="41.089884" lon="-6.721927">
        <ele>548.8</ele>
        <time>1970-01-01T03:50:30.000Z</time>
      </trkpt>
      <trkpt lat="41.089899" lon="-6.721894">
        <ele>548.5</ele>
        <time>1970-01-01T03:50:31.000Z</time>
      </trkpt>
      <trkpt lat="41.089912" lon="-6.721862">
        <ele>548.2</ele>
        <time>1970-01-01T03:50:32.000Z</time>
      </trkpt>
      <trkpt lat="41.089923" lon="-6.72183">
        <ele>547.9</ele>
        <time>1970-01-01T03:50:33.000Z</time>
      </trkpt>
      <trkpt lat="41.089933" lon="-6.721799">
        <ele>547.6</ele>
        <time>1970-01-01T03:50:34.000Z</time>
      </trkpt>
      <trkpt lat="41.089943" lon="-6.721768">
        <ele>547.3</ele>
        <time>1970-01-01T03:50:35.000Z</time>
      </trkpt>
      <trkpt lat="41.089953" lon="-6.721739">
        <ele>547.1</ele>
        <time>1970-01-01T03:50:36.000Z</time>
      </trkpt>
      <trkpt lat="41.089962" lon="-6.721712">
        <ele>546.8</ele>
        <time>1970-01-01T03:50:37.000Z</time>
      </trkpt>
      <trkpt lat="41.08997" lon="-6.721688">
        <ele>546.6</ele>
        <time>1970-01-01T03:50:38.000Z</time>
      </trkpt>
      <trkpt lat="41.089975" lon="-6.721667">
        <ele>546.4</ele>
        <time>1970-01-01T03:50:39.000Z</time>
      </trkpt>
      <trkpt lat="41.089981" lon="-6.721647">
        <ele>546.2</ele>
        <time>1970-01-01T03:50:40.000Z</time>
      </trkpt>
      <trkpt lat="41.08999" lon="-6.721628">
        <ele>546</ele>
        <time>1970-01-01T03:50:41.000Z</time>
      </trkpt>
      <trkpt lat="41.090001" lon="-6.721608">
        <ele>545.8</ele>
        <time>1970-01-01T03:50:42.000Z</time>
      </trkpt>
      <trkpt lat="41.090014" lon="-6.721585">
        <ele>545.6</ele>
        <time>1970-01-01T03:50:43.000Z</time>
      </trkpt>
      <trkpt lat="41.090027" lon="-6.721562">
        <ele>545.4</ele>
        <time>1970-01-01T03:50:44.000Z</time>
      </trkpt>
      <trkpt lat="41.090039" lon="-6.721541">
        <ele>545.1</ele>
        <time>1970-01-01T03:50:45.000Z</time>
      </trkpt>
      <trkpt lat="41.09005" lon="-6.721524">
        <ele>544.9</ele>
        <time>1970-01-01T03:50:46.000Z</time>
      </trkpt>
      <trkpt lat="41.090062" lon="-6.72151">
        <ele>544.8</ele>
        <time>1970-01-01T03:50:47.000Z</time>
      </trkpt>
      <trkpt lat="41.090074" lon="-6.721496">
        <ele>544.6</ele>
        <time>1970-01-01T03:50:48.000Z</time>
      </trkpt>
      <trkpt lat="41.090084" lon="-6.721483">
        <ele>544.4</ele>
        <time>1970-01-01T03:50:49.000Z</time>
      </trkpt>
      <trkpt lat="41.090094" lon="-6.721472">
        <ele>544.5</ele>
        <time>1970-01-01T03:50:50.000Z</time>
      </trkpt>
      <trkpt lat="41.090103" lon="-6.721461">
        <ele>544.8</ele>
        <time>1970-01-01T03:50:51.000Z</time>
      </trkpt>
      <trkpt lat="41.090113" lon="-6.721452">
        <ele>545</ele>
        <time>1970-01-01T03:50:52.000Z</time>
      </trkpt>
      <trkpt lat="41.09012" lon="-6.721442">
        <ele>545.1</ele>
        <time>1970-01-01T03:50:53.000Z</time>
      </trkpt>
      <trkpt lat="41.09012" lon="-6.721437">
        <ele>545.2</ele>
        <time>1970-01-01T03:50:54.000Z</time>
      </trkpt>
      <trkpt lat="41.090115" lon="-6.721434">
        <ele>545.3</ele>
        <time>1970-01-01T03:50:55.000Z</time>
      </trkpt>
      <trkpt lat="41.090105" lon="-6.721436">
        <ele>545.5</ele>
        <time>1970-01-01T03:50:56.000Z</time>
      </trkpt>
      <trkpt lat="41.090096" lon="-6.721436">
        <ele>545.6</ele>
        <time>1970-01-01T03:50:57.000Z</time>
      </trkpt>
      <trkpt lat="41.090086" lon="-6.721439">
        <ele>545.8</ele>
        <time>1970-01-01T03:50:58.000Z</time>
      </trkpt>
      <trkpt lat="41.090076" lon="-6.721443">
        <ele>546</ele>
        <time>1970-01-01T03:50:59.000Z</time>
      </trkpt>
      <trkpt lat="41.090064" lon="-6.721453">
        <ele>546.2</ele>
        <time>1970-01-01T03:51:00.000Z</time>
      </trkpt>
      <trkpt lat="41.090051" lon="-6.721466">
        <ele>546.5</ele>
        <time>1970-01-01T03:51:01.000Z</time>
      </trkpt>
      <trkpt lat="41.090036" lon="-6.721481">
        <ele>546.8</ele>
        <time>1970-01-01T03:51:02.000Z</time>
      </trkpt>
      <trkpt lat="41.090022" lon="-6.721495">
        <ele>547.1</ele>
        <time>1970-01-01T03:51:03.000Z</time>
      </trkpt>
      <trkpt lat="41.090009" lon="-6.721505">
        <ele>547.4</ele>
        <time>1970-01-01T03:51:04.000Z</time>
      </trkpt>
      <trkpt lat="41.089996" lon="-6.72151">
        <ele>547.6</ele>
        <time>1970-01-01T03:51:05.000Z</time>
      </trkpt>
      <trkpt lat="41.089981" lon="-6.721511">
        <ele>547.8</ele>
        <time>1970-01-01T03:51:06.000Z</time>
      </trkpt>
      <trkpt lat="41.089965" lon="-6.721514">
        <ele>548.1</ele>
        <time>1970-01-01T03:51:07.000Z</time>
      </trkpt>
      <trkpt lat="41.089948" lon="-6.721516">
        <ele>548.3</ele>
        <time>1970-01-01T03:51:08.000Z</time>
      </trkpt>
      <trkpt lat="41.089929" lon="-6.721518">
        <ele>548.6</ele>
        <time>1970-01-01T03:51:09.000Z</time>
      </trkpt>
      <trkpt lat="41.089909" lon="-6.721519">
        <ele>548.9</ele>
        <time>1970-01-01T03:51:10.000Z</time>
      </trkpt>
      <trkpt lat="41.08989" lon="-6.721518">
        <ele>549.1</ele>
        <time>1970-01-01T03:51:11.000Z</time>
      </trkpt>
      <trkpt lat="41.089873" lon="-6.721512">
        <ele>549.6</ele>
        <time>1970-01-01T03:51:12.000Z</time>
      </trkpt>
      <trkpt lat="41.089861" lon="-6.721501">
        <ele>549.6</ele>
        <time>1970-01-01T03:51:13.000Z</time>
      </trkpt>
      <trkpt lat="41.08985" lon="-6.721488">
        <ele>549.6</ele>
        <time>1970-01-01T03:51:14.000Z</time>
      </trkpt>
      <trkpt lat="41.089842" lon="-6.721476">
        <ele>549.6</ele>
        <time>1970-01-01T03:51:15.000Z</time>
      </trkpt>
      <trkpt lat="41.089835" lon="-6.721465">
        <ele>549.7</ele>
        <time>1970-01-01T03:51:16.000Z</time>
      </trkpt>
      <trkpt lat="41.08983" lon="-6.721453">
        <ele>549.7</ele>
        <time>1970-01-01T03:51:17.000Z</time>
      </trkpt>
      <trkpt lat="41.089826" lon="-6.72144">
        <ele>549.7</ele>
        <time>1970-01-01T03:51:18.000Z</time>
      </trkpt>
      <trkpt lat="41.089822" lon="-6.721426">
        <ele>549.7</ele>
        <time>1970-01-01T03:51:19.000Z</time>
      </trkpt>
      <trkpt lat="41.089819" lon="-6.721412">
        <ele>549.8</ele>
        <time>1970-01-01T03:51:20.000Z</time>
      </trkpt>
      <trkpt lat="41.089817" lon="-6.721396">
        <ele>549.8</ele>
        <time>1970-01-01T03:51:21.000Z</time>
      </trkpt>
      <trkpt lat="41.089816" lon="-6.721377">
        <ele>549.9</ele>
        <time>1970-01-01T03:51:22.000Z</time>
      </trkpt>
      <trkpt lat="41.089815" lon="-6.721358">
        <ele>549.9</ele>
        <time>1970-01-01T03:51:23.000Z</time>
      </trkpt>
      <trkpt lat="41.089814" lon="-6.721339">
        <ele>550</ele>
        <time>1970-01-01T03:51:24.000Z</time>
      </trkpt>
      <trkpt lat="41.089814" lon="-6.721319">
        <ele>550</ele>
        <time>1970-01-01T03:51:25.000Z</time>
      </trkpt>
      <trkpt lat="41.089813" lon="-6.721298">
        <ele>550.1</ele>
        <time>1970-01-01T03:51:26.000Z</time>
      </trkpt>
      <trkpt lat="41.089812" lon="-6.721277">
        <ele>550.2</ele>
        <time>1970-01-01T03:51:27.000Z</time>
      </trkpt>
      <trkpt lat="41.089814" lon="-6.721252">
        <ele>550.3</ele>
        <time>1970-01-01T03:51:28.000Z</time>
      </trkpt>
      <trkpt lat="41.089817" lon="-6.721226">
        <ele>550.3</ele>
        <time>1970-01-01T03:51:29.000Z</time>
      </trkpt>
      <trkpt lat="41.089822" lon="-6.721197">
        <ele>550.4</ele>
        <time>1970-01-01T03:51:30.000Z</time>
      </trkpt>
      <trkpt lat="41.089827" lon="-6.721169">
        <ele>550.5</ele>
        <time>1970-01-01T03:51:31.000Z</time>
      </trkpt>
      <trkpt lat="41.089834" lon="-6.721141">
        <ele>550.6</ele>
        <time>1970-01-01T03:51:32.000Z</time>
      </trkpt>
      <trkpt lat="41.08984" lon="-6.721114">
        <ele>550.7</ele>
        <time>1970-01-01T03:51:33.000Z</time>
      </trkpt>
      <trkpt lat="41.089844" lon="-6.721086">
        <ele>550.8</ele>
        <time>1970-01-01T03:51:34.000Z</time>
      </trkpt>
      <trkpt lat="41.089844" lon="-6.721058">
        <ele>550.9</ele>
        <time>1970-01-01T03:51:35.000Z</time>
      </trkpt>
      <trkpt lat="41.089841" lon="-6.72103">
        <ele>551</ele>
        <time>1970-01-01T03:51:36.000Z</time>
      </trkpt>
      <trkpt lat="41.089836" lon="-6.721003">
        <ele>551</ele>
        <time>1970-01-01T03:51:37.000Z</time>
      </trkpt>
      <trkpt lat="41.089833" lon="-6.720976">
        <ele>551.1</ele>
        <time>1970-01-01T03:51:38.000Z</time>
      </trkpt>
      <trkpt lat="41.089831" lon="-6.72095">
        <ele>551.2</ele>
        <time>1970-01-01T03:51:39.000Z</time>
      </trkpt>
      <trkpt lat="41.089828" lon="-6.720922">
        <ele>551.3</ele>
        <time>1970-01-01T03:51:40.000Z</time>
      </trkpt>
      <trkpt lat="41.089824" lon="-6.720893">
        <ele>551.4</ele>
        <time>1970-01-01T03:51:41.000Z</time>
      </trkpt>
      <trkpt lat="41.089821" lon="-6.72086">
        <ele>551.5</ele>
        <time>1970-01-01T03:51:42.000Z</time>
      </trkpt>
      <trkpt lat="41.089823" lon="-6.720823">
        <ele>551.6</ele>
        <time>1970-01-01T03:51:43.000Z</time>
      </trkpt>
      <trkpt lat="41.089832" lon="-6.720783">
        <ele>551.7</ele>
        <time>1970-01-01T03:51:44.000Z</time>
      </trkpt>
      <trkpt lat="41.08985" lon="-6.720746">
        <ele>551.9</ele>
        <time>1970-01-01T03:51:45.000Z</time>
      </trkpt>
      <trkpt lat="41.089873" lon="-6.720714">
        <ele>552</ele>
        <time>1970-01-01T03:51:46.000Z</time>
      </trkpt>
      <trkpt lat="41.089896" lon="-6.72069">
        <ele>552.1</ele>
        <time>1970-01-01T03:51:47.000Z</time>
      </trkpt>
      <trkpt lat="41.089916" lon="-6.72067">
        <ele>552.2</ele>
        <time>1970-01-01T03:51:48.000Z</time>
      </trkpt>
      <trkpt lat="41.089933" lon="-6.720656">
        <ele>552.3</ele>
        <time>1970-01-01T03:51:49.000Z</time>
      </trkpt>
      <trkpt lat="41.089948" lon="-6.720644">
        <ele>552.4</ele>
        <time>1970-01-01T03:51:50.000Z</time>
      </trkpt>
      <trkpt lat="41.089966" lon="-6.720632">
        <ele>552.5</ele>
        <time>1970-01-01T03:51:51.000Z</time>
      </trkpt>
      <trkpt lat="41.089983" lon="-6.720622">
        <ele>552.5</ele>
        <time>1970-01-01T03:51:52.000Z</time>
      </trkpt>
      <trkpt lat="41.090001" lon="-6.720615">
        <ele>552.6</ele>
        <time>1970-01-01T03:51:53.000Z</time>
      </trkpt>
      <trkpt lat="41.090017" lon="-6.72061">
        <ele>552.7</ele>
        <time>1970-01-01T03:51:54.000Z</time>
      </trkpt>
      <trkpt lat="41.090034" lon="-6.720604">
        <ele>552.8</ele>
        <time>1970-01-01T03:51:55.000Z</time>
      </trkpt>
      <trkpt lat="41.090051" lon="-6.720598">
        <ele>552.8</ele>
        <time>1970-01-01T03:51:56.000Z</time>
      </trkpt>
      <trkpt lat="41.090068" lon="-6.720591">
        <ele>552.9</ele>
        <time>1970-01-01T03:51:57.000Z</time>
      </trkpt>
      <trkpt lat="41.090083" lon="-6.720582">
        <ele>553</ele>
        <time>1970-01-01T03:51:58.000Z</time>
      </trkpt>
      <trkpt lat="41.090098" lon="-6.720572">
        <ele>553</ele>
        <time>1970-01-01T03:51:59.000Z</time>
      </trkpt>
      <trkpt lat="41.090111" lon="-6.720563">
        <ele>553.1</ele>
        <time>1970-01-01T03:52:00.000Z</time>
      </trkpt>
      <trkpt lat="41.090122" lon="-6.720554">
        <ele>553.2</ele>
        <time>1970-01-01T03:52:01.000Z</time>
      </trkpt>
      <trkpt lat="41.090132" lon="-6.720547">
        <ele>553.2</ele>
        <time>1970-01-01T03:52:02.000Z</time>
      </trkpt>
      <trkpt lat="41.090141" lon="-6.720541">
        <ele>553.2</ele>
        <time>1970-01-01T03:52:03.000Z</time>
      </trkpt>
      <trkpt lat="41.090151" lon="-6.720534">
        <ele>553.3</ele>
        <time>1970-01-01T03:52:04.000Z</time>
      </trkpt>
      <trkpt lat="41.090161" lon="-6.720528">
        <ele>553.3</ele>
        <time>1970-01-01T03:52:05.000Z</time>
      </trkpt>
      <trkpt lat="41.090171" lon="-6.720521">
        <ele>553.4</ele>
        <time>1970-01-01T03:52:06.000Z</time>
      </trkpt>
      <trkpt lat="41.090182" lon="-6.720513">
        <ele>553.4</ele>
        <time>1970-01-01T03:52:07.000Z</time>
      </trkpt>
      <trkpt lat="41.090192" lon="-6.720505">
        <ele>553.5</ele>
        <time>1970-01-01T03:52:08.000Z</time>
      </trkpt>
      <trkpt lat="41.090202" lon="-6.720497">
        <ele>553.5</ele>
        <time>1970-01-01T03:52:09.000Z</time>
      </trkpt>
      <trkpt lat="41.090212" lon="-6.72049">
        <ele>553.6</ele>
        <time>1970-01-01T03:52:10.000Z</time>
      </trkpt>
      <trkpt lat="41.090222" lon="-6.720482">
        <ele>553.6</ele>
        <time>1970-01-01T03:52:11.000Z</time>
      </trkpt>
      <trkpt lat="41.090232" lon="-6.720473">
        <ele>553.7</ele>
        <time>1970-01-01T03:52:12.000Z</time>
      </trkpt>
      <trkpt lat="41.090243" lon="-6.720463">
        <ele>553.7</ele>
        <time>1970-01-01T03:52:13.000Z</time>
      </trkpt>
      <trkpt lat="41.090254" lon="-6.720453">
        <ele>553.8</ele>
        <time>1970-01-01T03:52:14.000Z</time>
      </trkpt>
      <trkpt lat="41.090265" lon="-6.720444">
        <ele>553.8</ele>
        <time>1970-01-01T03:52:15.000Z</time>
      </trkpt>
      <trkpt lat="41.090275" lon="-6.720435">
        <ele>553.9</ele>
        <time>1970-01-01T03:52:16.000Z</time>
      </trkpt>
      <trkpt lat="41.090285" lon="-6.720426">
        <ele>553.9</ele>
        <time>1970-01-01T03:52:17.000Z</time>
      </trkpt>
      <trkpt lat="41.090295" lon="-6.720418">
        <ele>554</ele>
        <time>1970-01-01T03:52:18.000Z</time>
      </trkpt>
      <trkpt lat="41.090306" lon="-6.72041">
        <ele>554</ele>
        <time>1970-01-01T03:52:19.000Z</time>
      </trkpt>
      <trkpt lat="41.090318" lon="-6.720403">
        <ele>554.1</ele>
        <time>1970-01-01T03:52:20.000Z</time>
      </trkpt>
      <trkpt lat="41.09033" lon="-6.720398">
        <ele>554.1</ele>
        <time>1970-01-01T03:52:21.000Z</time>
      </trkpt>
      <trkpt lat="41.090343" lon="-6.720392">
        <ele>554.2</ele>
        <time>1970-01-01T03:52:22.000Z</time>
      </trkpt>
      <trkpt lat="41.090355" lon="-6.720385">
        <ele>554.2</ele>
        <time>1970-01-01T03:52:23.000Z</time>
      </trkpt>
      <trkpt lat="41.090368" lon="-6.720377">
        <ele>554.3</ele>
        <time>1970-01-01T03:52:24.000Z</time>
      </trkpt>
      <trkpt lat="41.090381" lon="-6.72037">
        <ele>554.4</ele>
        <time>1970-01-01T03:52:25.000Z</time>
      </trkpt>
      <trkpt lat="41.090395" lon="-6.720364">
        <ele>554.4</ele>
        <time>1970-01-01T03:52:26.000Z</time>
      </trkpt>
      <trkpt lat="41.090409" lon="-6.72036">
        <ele>554.5</ele>
        <time>1970-01-01T03:52:27.000Z</time>
      </trkpt>
      <trkpt lat="41.09042" lon="-6.720352">
        <ele>554.5</ele>
        <time>1970-01-01T03:52:28.000Z</time>
      </trkpt>
      <trkpt lat="41.090431" lon="-6.720342">
        <ele>554.6</ele>
        <time>1970-01-01T03:52:29.000Z</time>
      </trkpt>
      <trkpt lat="41.09044" lon="-6.720331">
        <ele>554.6</ele>
        <time>1970-01-01T03:52:30.000Z</time>
      </trkpt>
      <trkpt lat="41.090449" lon="-6.720322">
        <ele>554.7</ele>
        <time>1970-01-01T03:52:31.000Z</time>
      </trkpt>
      <trkpt lat="41.090458" lon="-6.720316">
        <ele>554.7</ele>
        <time>1970-01-01T03:52:32.000Z</time>
      </trkpt>
      <trkpt lat="41.090469" lon="-6.72031">
        <ele>554.8</ele>
        <time>1970-01-01T03:52:33.000Z</time>
      </trkpt>
      <trkpt lat="41.09048" lon="-6.720305">
        <ele>554.8</ele>
        <time>1970-01-01T03:52:34.000Z</time>
      </trkpt>
      <trkpt lat="41.090493" lon="-6.720299">
        <ele>554.9</ele>
        <time>1970-01-01T03:52:35.000Z</time>
      </trkpt>
      <trkpt lat="41.090507" lon="-6.720292">
        <ele>554.9</ele>
        <time>1970-01-01T03:52:36.000Z</time>
      </trkpt>
      <trkpt lat="41.090521" lon="-6.720285">
        <ele>555</ele>
        <time>1970-01-01T03:52:37.000Z</time>
      </trkpt>
      <trkpt lat="41.090535" lon="-6.720277">
        <ele>555.1</ele>
        <time>1970-01-01T03:52:38.000Z</time>
      </trkpt>
      <trkpt lat="41.09055" lon="-6.720271">
        <ele>555.1</ele>
        <time>1970-01-01T03:52:39.000Z</time>
      </trkpt>
      <trkpt lat="41.090565" lon="-6.720264">
        <ele>555.2</ele>
        <time>1970-01-01T03:52:40.000Z</time>
      </trkpt>
      <trkpt lat="41.090581" lon="-6.720256">
        <ele>555.3</ele>
        <time>1970-01-01T03:52:41.000Z</time>
      </trkpt>
      <trkpt lat="41.090598" lon="-6.720247">
        <ele>555.3</ele>
        <time>1970-01-01T03:52:42.000Z</time>
      </trkpt>
      <trkpt lat="41.090615" lon="-6.720236">
        <ele>555.4</ele>
        <time>1970-01-01T03:52:43.000Z</time>
      </trkpt>
      <trkpt lat="41.090631" lon="-6.720225">
        <ele>555.5</ele>
        <time>1970-01-01T03:52:44.000Z</time>
      </trkpt>
      <trkpt lat="41.090647" lon="-6.720212">
        <ele>555.6</ele>
        <time>1970-01-01T03:52:45.000Z</time>
      </trkpt>
      <trkpt lat="41.090661" lon="-6.7202">
        <ele>555.6</ele>
        <time>1970-01-01T03:52:46.000Z</time>
      </trkpt>
      <trkpt lat="41.090674" lon="-6.720189">
        <ele>555.7</ele>
        <time>1970-01-01T03:52:47.000Z</time>
      </trkpt>
      <trkpt lat="41.090686" lon="-6.720179">
        <ele>555.8</ele>
        <time>1970-01-01T03:52:48.000Z</time>
      </trkpt>
      <trkpt lat="41.090697" lon="-6.72017">
        <ele>555.8</ele>
        <time>1970-01-01T03:52:49.000Z</time>
      </trkpt>
      <trkpt lat="41.090709" lon="-6.720162">
        <ele>555.9</ele>
        <time>1970-01-01T03:52:50.000Z</time>
      </trkpt>
      <trkpt lat="41.090721" lon="-6.720154">
        <ele>555.9</ele>
        <time>1970-01-01T03:52:51.000Z</time>
      </trkpt>
      <trkpt lat="41.090734" lon="-6.720148">
        <ele>556</ele>
        <time>1970-01-01T03:52:52.000Z</time>
      </trkpt>
      <trkpt lat="41.090746" lon="-6.720141">
        <ele>556</ele>
        <time>1970-01-01T03:52:53.000Z</time>
      </trkpt>
      <trkpt lat="41.090757" lon="-6.720133">
        <ele>556.1</ele>
        <time>1970-01-01T03:52:54.000Z</time>
      </trkpt>
      <trkpt lat="41.090769" lon="-6.720124">
        <ele>556.1</ele>
        <time>1970-01-01T03:52:55.000Z</time>
      </trkpt>
      <trkpt lat="41.090782" lon="-6.720114">
        <ele>556.2</ele>
        <time>1970-01-01T03:52:56.000Z</time>
      </trkpt>
      <trkpt lat="41.090795" lon="-6.720104">
        <ele>556.3</ele>
        <time>1970-01-01T03:52:57.000Z</time>
      </trkpt>
      <trkpt lat="41.090807" lon="-6.720096">
        <ele>556.3</ele>
        <time>1970-01-01T03:52:58.000Z</time>
      </trkpt>
      <trkpt lat="41.090816" lon="-6.720086">
        <ele>556.4</ele>
        <time>1970-01-01T03:52:59.000Z</time>
      </trkpt>
      <trkpt lat="41.090828" lon="-6.720074">
        <ele>556.4</ele>
        <time>1970-01-01T03:53:00.000Z</time>
      </trkpt>
      <trkpt lat="41.09084" lon="-6.72006">
        <ele>556.5</ele>
        <time>1970-01-01T03:53:01.000Z</time>
      </trkpt>
      <trkpt lat="41.090853" lon="-6.720047">
        <ele>556.6</ele>
        <time>1970-01-01T03:53:02.000Z</time>
      </trkpt>
      <trkpt lat="41.090864" lon="-6.720035">
        <ele>556.6</ele>
        <time>1970-01-01T03:53:03.000Z</time>
      </trkpt>
      <trkpt lat="41.090875" lon="-6.720023">
        <ele>556.7</ele>
        <time>1970-01-01T03:53:04.000Z</time>
      </trkpt>
      <trkpt lat="41.090886" lon="-6.720011">
        <ele>556.7</ele>
        <time>1970-01-01T03:53:05.000Z</time>
      </trkpt>
      <trkpt lat="41.090898" lon="-6.719998">
        <ele>556.8</ele>
        <time>1970-01-01T03:53:06.000Z</time>
      </trkpt>
      <trkpt lat="41.090911" lon="-6.719985">
        <ele>556.9</ele>
        <time>1970-01-01T03:53:07.000Z</time>
      </trkpt>
      <trkpt lat="41.090924" lon="-6.719973">
        <ele>556.9</ele>
        <time>1970-01-01T03:53:08.000Z</time>
      </trkpt>
      <trkpt lat="41.090936" lon="-6.719963">
        <ele>557</ele>
        <time>1970-01-01T03:53:09.000Z</time>
      </trkpt>
      <trkpt lat="41.090948" lon="-6.719953">
        <ele>557</ele>
        <time>1970-01-01T03:53:10.000Z</time>
      </trkpt>
      <trkpt lat="41.090959" lon="-6.719944">
        <ele>557.1</ele>
        <time>1970-01-01T03:53:11.000Z</time>
      </trkpt>
      <trkpt lat="41.090968" lon="-6.719934">
        <ele>557.1</ele>
        <time>1970-01-01T03:53:12.000Z</time>
      </trkpt>
      <trkpt lat="41.090979" lon="-6.71992">
        <ele>557.2</ele>
        <time>1970-01-01T03:53:13.000Z</time>
      </trkpt>
      <trkpt lat="41.09099" lon="-6.719905">
        <ele>557.3</ele>
        <time>1970-01-01T03:53:14.000Z</time>
      </trkpt>
      <trkpt lat="41.091001" lon="-6.71989">
        <ele>557.3</ele>
        <time>1970-01-01T03:53:15.000Z</time>
      </trkpt>
      <trkpt lat="41.091012" lon="-6.719875">
        <ele>557.4</ele>
        <time>1970-01-01T03:53:16.000Z</time>
      </trkpt>
      <trkpt lat="41.091022" lon="-6.719862">
        <ele>557.5</ele>
        <time>1970-01-01T03:53:17.000Z</time>
      </trkpt>
      <trkpt lat="41.09103" lon="-6.71985">
        <ele>557.5</ele>
        <time>1970-01-01T03:53:18.000Z</time>
      </trkpt>
      <trkpt lat="41.09104" lon="-6.719838">
        <ele>557.6</ele>
        <time>1970-01-01T03:53:19.000Z</time>
      </trkpt>
      <trkpt lat="41.09105" lon="-6.719823">
        <ele>557.6</ele>
        <time>1970-01-01T03:53:20.000Z</time>
      </trkpt>
      <trkpt lat="41.091062" lon="-6.719808">
        <ele>557.7</ele>
        <time>1970-01-01T03:53:21.000Z</time>
      </trkpt>
      <trkpt lat="41.091074" lon="-6.719792">
        <ele>557.8</ele>
        <time>1970-01-01T03:53:22.000Z</time>
      </trkpt>
      <trkpt lat="41.091084" lon="-6.719777">
        <ele>557.8</ele>
        <time>1970-01-01T03:53:23.000Z</time>
      </trkpt>
      <trkpt lat="41.091093" lon="-6.719764">
        <ele>557.9</ele>
        <time>1970-01-01T03:53:24.000Z</time>
      </trkpt>
      <trkpt lat="41.091101" lon="-6.71975">
        <ele>557.9</ele>
        <time>1970-01-01T03:53:25.000Z</time>
      </trkpt>
      <trkpt lat="41.09111" lon="-6.719737">
        <ele>558</ele>
        <time>1970-01-01T03:53:26.000Z</time>
      </trkpt>
      <trkpt lat="41.091119" lon="-6.719723">
        <ele>558</ele>
        <time>1970-01-01T03:53:27.000Z</time>
      </trkpt>
      <trkpt lat="41.09113" lon="-6.719708">
        <ele>558.1</ele>
        <time>1970-01-01T03:53:28.000Z</time>
      </trkpt>
      <trkpt lat="41.091143" lon="-6.719692">
        <ele>558.2</ele>
        <time>1970-01-01T03:53:29.000Z</time>
      </trkpt>
      <trkpt lat="41.091158" lon="-6.719676">
        <ele>558.3</ele>
        <time>1970-01-01T03:53:30.000Z</time>
      </trkpt>
      <trkpt lat="41.091174" lon="-6.719661">
        <ele>558.3</ele>
        <time>1970-01-01T03:53:31.000Z</time>
      </trkpt>
      <trkpt lat="41.091191" lon="-6.719645">
        <ele>558.4</ele>
        <time>1970-01-01T03:53:32.000Z</time>
      </trkpt>
      <trkpt lat="41.09121" lon="-6.719631">
        <ele>558.5</ele>
        <time>1970-01-01T03:53:33.000Z</time>
      </trkpt>
      <trkpt lat="41.09123" lon="-6.719619">
        <ele>558.6</ele>
        <time>1970-01-01T03:53:34.000Z</time>
      </trkpt>
      <trkpt lat="41.091248" lon="-6.719609">
        <ele>558.7</ele>
        <time>1970-01-01T03:53:35.000Z</time>
      </trkpt>
      <trkpt lat="41.091262" lon="-6.719598">
        <ele>558.8</ele>
        <time>1970-01-01T03:53:36.000Z</time>
      </trkpt>
      <trkpt lat="41.091275" lon="-6.719583">
        <ele>558.8</ele>
        <time>1970-01-01T03:53:37.000Z</time>
      </trkpt>
      <trkpt lat="41.091289" lon="-6.719568">
        <ele>558.9</ele>
        <time>1970-01-01T03:53:38.000Z</time>
      </trkpt>
      <trkpt lat="41.091304" lon="-6.719553">
        <ele>559</ele>
        <time>1970-01-01T03:53:39.000Z</time>
      </trkpt>
      <trkpt lat="41.091318" lon="-6.719538">
        <ele>559</ele>
        <time>1970-01-01T03:53:40.000Z</time>
      </trkpt>
      <trkpt lat="41.09133" lon="-6.719522">
        <ele>559.1</ele>
        <time>1970-01-01T03:53:41.000Z</time>
      </trkpt>
      <trkpt lat="41.091339" lon="-6.719505">
        <ele>559.2</ele>
        <time>1970-01-01T03:53:42.000Z</time>
      </trkpt>
      <trkpt lat="41.091349" lon="-6.719488">
        <ele>559.3</ele>
        <time>1970-01-01T03:53:43.000Z</time>
      </trkpt>
      <trkpt lat="41.091361" lon="-6.719469">
        <ele>559.3</ele>
        <time>1970-01-01T03:53:44.000Z</time>
      </trkpt>
      <trkpt lat="41.091371" lon="-6.719449">
        <ele>559.4</ele>
        <time>1970-01-01T03:53:45.000Z</time>
      </trkpt>
      <trkpt lat="41.091381" lon="-6.719429">
        <ele>559.5</ele>
        <time>1970-01-01T03:53:46.000Z</time>
      </trkpt>
      <trkpt lat="41.091391" lon="-6.719408">
        <ele>559.6</ele>
        <time>1970-01-01T03:53:47.000Z</time>
      </trkpt>
      <trkpt lat="41.091403" lon="-6.719386">
        <ele>559.6</ele>
        <time>1970-01-01T03:53:48.000Z</time>
      </trkpt>
      <trkpt lat="41.091414" lon="-6.719363">
        <ele>559.7</ele>
        <time>1970-01-01T03:53:49.000Z</time>
      </trkpt>
      <trkpt lat="41.091427" lon="-6.71934">
        <ele>559.8</ele>
        <time>1970-01-01T03:53:50.000Z</time>
      </trkpt>
      <trkpt lat="41.091439" lon="-6.719316">
        <ele>559.9</ele>
        <time>1970-01-01T03:53:51.000Z</time>
      </trkpt>
      <trkpt lat="41.091448" lon="-6.71929">
        <ele>560</ele>
        <time>1970-01-01T03:53:52.000Z</time>
      </trkpt>
      <trkpt lat="41.091455" lon="-6.719262">
        <ele>560.1</ele>
        <time>1970-01-01T03:53:53.000Z</time>
      </trkpt>
      <trkpt lat="41.091461" lon="-6.719237">
        <ele>560.2</ele>
        <time>1970-01-01T03:53:54.000Z</time>
      </trkpt>
      <trkpt lat="41.09147" lon="-6.719215">
        <ele>560.2</ele>
        <time>1970-01-01T03:53:55.000Z</time>
      </trkpt>
      <trkpt lat="41.09148" lon="-6.719195">
        <ele>560.3</ele>
        <time>1970-01-01T03:53:56.000Z</time>
      </trkpt>
      <trkpt lat="41.09149" lon="-6.719176">
        <ele>560.4</ele>
        <time>1970-01-01T03:53:57.000Z</time>
      </trkpt>
      <trkpt lat="41.0915" lon="-6.71916">
        <ele>560.4</ele>
        <time>1970-01-01T03:53:58.000Z</time>
      </trkpt>
      <trkpt lat="41.091509" lon="-6.719145">
        <ele>560.5</ele>
        <time>1970-01-01T03:53:59.000Z</time>
      </trkpt>
      <trkpt lat="41.091519" lon="-6.71913">
        <ele>560.6</ele>
        <time>1970-01-01T03:54:00.000Z</time>
      </trkpt>
      <trkpt lat="41.09153" lon="-6.719114">
        <ele>560.6</ele>
        <time>1970-01-01T03:54:01.000Z</time>
      </trkpt>
      <trkpt lat="41.091542" lon="-6.719099">
        <ele>560.7</ele>
        <time>1970-01-01T03:54:02.000Z</time>
      </trkpt>
      <trkpt lat="41.091555" lon="-6.719081">
        <ele>560.8</ele>
        <time>1970-01-01T03:54:03.000Z</time>
      </trkpt>
      <trkpt lat="41.091565" lon="-6.719061">
        <ele>560.9</ele>
        <time>1970-01-01T03:54:04.000Z</time>
      </trkpt>
      <trkpt lat="41.091576" lon="-6.719039">
        <ele>560.9</ele>
        <time>1970-01-01T03:54:05.000Z</time>
      </trkpt>
      <trkpt lat="41.091585" lon="-6.719018">
        <ele>561</ele>
        <time>1970-01-01T03:54:06.000Z</time>
      </trkpt>
      <trkpt lat="41.091596" lon="-6.718998">
        <ele>561.1</ele>
        <time>1970-01-01T03:54:07.000Z</time>
      </trkpt>
      <trkpt lat="41.091606" lon="-6.718978">
        <ele>561.2</ele>
        <time>1970-01-01T03:54:08.000Z</time>
      </trkpt>
      <trkpt lat="41.091614" lon="-6.718958">
        <ele>561.2</ele>
        <time>1970-01-01T03:54:09.000Z</time>
      </trkpt>
      <trkpt lat="41.09162" lon="-6.718939">
        <ele>561.3</ele>
        <time>1970-01-01T03:54:10.000Z</time>
      </trkpt>
      <trkpt lat="41.091626" lon="-6.718922">
        <ele>561.4</ele>
        <time>1970-01-01T03:54:11.000Z</time>
      </trkpt>
      <trkpt lat="41.091633" lon="-6.718905">
        <ele>561.4</ele>
        <time>1970-01-01T03:54:12.000Z</time>
      </trkpt>
      <trkpt lat="41.09164" lon="-6.718888">
        <ele>561.5</ele>
        <time>1970-01-01T03:54:13.000Z</time>
      </trkpt>
      <trkpt lat="41.091648" lon="-6.718871">
        <ele>561.5</ele>
        <time>1970-01-01T03:54:14.000Z</time>
      </trkpt>
      <trkpt lat="41.091656" lon="-6.718856">
        <ele>561.6</ele>
        <time>1970-01-01T03:54:15.000Z</time>
      </trkpt>
      <trkpt lat="41.091663" lon="-6.718842">
        <ele>561.6</ele>
        <time>1970-01-01T03:54:16.000Z</time>
      </trkpt>
      <trkpt lat="41.091667" lon="-6.71883">
        <ele>561.7</ele>
        <time>1970-01-01T03:54:17.000Z</time>
      </trkpt>
      <trkpt lat="41.09167" lon="-6.71882">
        <ele>561.7</ele>
        <time>1970-01-01T03:54:18.000Z</time>
      </trkpt>
      <trkpt lat="41.09167" lon="-6.718814">
        <ele>561.7</ele>
        <time>1970-01-01T03:54:19.000Z</time>
      </trkpt>
      <trkpt lat="41.091671" lon="-6.718811">
        <ele>561.7</ele>
        <time>1970-01-01T03:54:20.000Z</time>
      </trkpt>
      <trkpt lat="41.091671" lon="-6.718811">
        <ele>561.7</ele>
        <time>1970-01-01T03:54:21.000Z</time>
      </trkpt>
      <trkpt lat="41.091673" lon="-6.718809">
        <ele>561.8</ele>
        <time>1970-01-01T03:54:22.000Z</time>
      </trkpt>
      <trkpt lat="41.091675" lon="-6.718807">
        <ele>561.8</ele>
        <time>1970-01-01T03:54:23.000Z</time>
      </trkpt>
      <trkpt lat="41.091678" lon="-6.718803">
        <ele>561.8</ele>
        <time>1970-01-01T03:54:24.000Z</time>
      </trkpt>
      <trkpt lat="41.091681" lon="-6.718798">
        <ele>561.8</ele>
        <time>1970-01-01T03:54:25.000Z</time>
      </trkpt>
      <trkpt lat="41.091682" lon="-6.718793">
        <ele>561.8</ele>
        <time>1970-01-01T03:54:26.000Z</time>
      </trkpt>
      <trkpt lat="41.091683" lon="-6.718785">
        <ele>561.8</ele>
        <time>1970-01-01T03:54:27.000Z</time>
      </trkpt>
      <trkpt lat="41.091686" lon="-6.718774">
        <ele>561.9</ele>
        <time>1970-01-01T03:54:28.000Z</time>
      </trkpt>
      <trkpt lat="41.091691" lon="-6.718762">
        <ele>561.9</ele>
        <time>1970-01-01T03:54:29.000Z</time>
      </trkpt>
      <trkpt lat="41.091697" lon="-6.71875">
        <ele>562</ele>
        <time>1970-01-01T03:54:30.000Z</time>
      </trkpt>
      <trkpt lat="41.091705" lon="-6.71874">
        <ele>562</ele>
        <time>1970-01-01T03:54:31.000Z</time>
      </trkpt>
      <trkpt lat="41.091711" lon="-6.718732">
        <ele>562</ele>
        <time>1970-01-01T03:54:32.000Z</time>
      </trkpt>
      <trkpt lat="41.091718" lon="-6.718723">
        <ele>562.1</ele>
        <time>1970-01-01T03:54:33.000Z</time>
      </trkpt>
      <trkpt lat="41.091724" lon="-6.718716">
        <ele>562.1</ele>
        <time>1970-01-01T03:54:34.000Z</time>
      </trkpt>
      <trkpt lat="41.091731" lon="-6.718708">
        <ele>562.2</ele>
        <time>1970-01-01T03:54:35.000Z</time>
      </trkpt>
      <trkpt lat="41.091737" lon="-6.718701">
        <ele>562.2</ele>
        <time>1970-01-01T03:54:36.000Z</time>
      </trkpt>
      <trkpt lat="41.091742" lon="-6.718692">
        <ele>562.2</ele>
        <time>1970-01-01T03:54:37.000Z</time>
      </trkpt>
      <trkpt lat="41.091746" lon="-6.718684">
        <ele>562.3</ele>
        <time>1970-01-01T03:54:38.000Z</time>
      </trkpt>
      <trkpt lat="41.091751" lon="-6.718675">
        <ele>562.3</ele>
        <time>1970-01-01T03:54:39.000Z</time>
      </trkpt>
      <trkpt lat="41.091756" lon="-6.718666">
        <ele>562.3</ele>
        <time>1970-01-01T03:54:40.000Z</time>
      </trkpt>
      <trkpt lat="41.091762" lon="-6.718657">
        <ele>562.4</ele>
        <time>1970-01-01T03:54:41.000Z</time>
      </trkpt>
      <trkpt lat="41.091766" lon="-6.718646">
        <ele>562.4</ele>
        <time>1970-01-01T03:54:42.000Z</time>
      </trkpt>
      <trkpt lat="41.091771" lon="-6.718636">
        <ele>562.4</ele>
        <time>1970-01-01T03:54:43.000Z</time>
      </trkpt>
      <trkpt lat="41.091775" lon="-6.718627">
        <ele>562.5</ele>
        <time>1970-01-01T03:54:44.000Z</time>
      </trkpt>
      <trkpt lat="41.09178" lon="-6.718616">
        <ele>562.5</ele>
        <time>1970-01-01T03:54:45.000Z</time>
      </trkpt>
      <trkpt lat="41.091785" lon="-6.718606">
        <ele>562.5</ele>
        <time>1970-01-01T03:54:46.000Z</time>
      </trkpt>
      <trkpt lat="41.09179" lon="-6.718595">
        <ele>562.6</ele>
        <time>1970-01-01T03:54:47.000Z</time>
      </trkpt>
      <trkpt lat="41.091796" lon="-6.718583">
        <ele>562.6</ele>
        <time>1970-01-01T03:54:48.000Z</time>
      </trkpt>
      <trkpt lat="41.091802" lon="-6.718572">
        <ele>562.7</ele>
        <time>1970-01-01T03:54:49.000Z</time>
      </trkpt>
      <trkpt lat="41.091808" lon="-6.718562">
        <ele>562.7</ele>
        <time>1970-01-01T03:54:50.000Z</time>
      </trkpt>
      <trkpt lat="41.091814" lon="-6.718551">
        <ele>562.8</ele>
        <time>1970-01-01T03:54:51.000Z</time>
      </trkpt>
      <trkpt lat="41.091819" lon="-6.718541">
        <ele>562.8</ele>
        <time>1970-01-01T03:54:52.000Z</time>
      </trkpt>
      <trkpt lat="41.091824" lon="-6.71853">
        <ele>562.8</ele>
        <time>1970-01-01T03:54:53.000Z</time>
      </trkpt>
      <trkpt lat="41.091828" lon="-6.718522">
        <ele>562.9</ele>
        <time>1970-01-01T03:54:54.000Z</time>
      </trkpt>
      <trkpt lat="41.091831" lon="-6.718514">
        <ele>562.9</ele>
        <time>1970-01-01T03:54:55.000Z</time>
      </trkpt>
      <trkpt lat="41.091835" lon="-6.718503">
        <ele>562.9</ele>
        <time>1970-01-01T03:54:56.000Z</time>
      </trkpt>
      <trkpt lat="41.09184" lon="-6.718491">
        <ele>563</ele>
        <time>1970-01-01T03:54:57.000Z</time>
      </trkpt>
      <trkpt lat="41.091845" lon="-6.718481">
        <ele>563</ele>
        <time>1970-01-01T03:54:58.000Z</time>
      </trkpt>
      <trkpt lat="41.09185" lon="-6.718473">
        <ele>563</ele>
        <time>1970-01-01T03:54:59.000Z</time>
      </trkpt>
      <trkpt lat="41.091854" lon="-6.718468">
        <ele>563.1</ele>
        <time>1970-01-01T03:55:00.000Z</time>
      </trkpt>
      <trkpt lat="41.091857" lon="-6.718464">
        <ele>563.1</ele>
        <time>1970-01-01T03:55:01.000Z</time>
      </trkpt>
      <trkpt lat="41.091859" lon="-6.718462">
        <ele>563.1</ele>
        <time>1970-01-01T03:55:02.000Z</time>
      </trkpt>
      <trkpt lat="41.09186" lon="-6.71846">
        <ele>563.1</ele>
        <time>1970-01-01T03:55:03.000Z</time>
      </trkpt>
      <trkpt lat="41.091861" lon="-6.718458">
        <ele>563.1</ele>
        <time>1970-01-01T03:55:04.000Z</time>
      </trkpt>
      <trkpt lat="41.091862" lon="-6.718455">
        <ele>563.1</ele>
        <time>1970-01-01T03:55:05.000Z</time>
      </trkpt>
      <trkpt lat="41.091862" lon="-6.718453">
        <ele>563.1</ele>
        <time>1970-01-01T03:55:06.000Z</time>
      </trkpt>
      <trkpt lat="41.091861" lon="-6.718451">
        <ele>563.1</ele>
        <time>1970-01-01T03:55:07.000Z</time>
      </trkpt>
      <trkpt lat="41.091889" lon="-6.718392">
        <ele>563.3</ele>
        <time>1970-01-01T03:55:08.000Z</time>
      </trkpt>
      <trkpt lat="41.091896" lon="-6.718382">
        <ele>563.4</ele>
        <time>1970-01-01T03:55:09.000Z</time>
      </trkpt>
      <trkpt lat="41.091902" lon="-6.718369">
        <ele>563.4</ele>
        <time>1970-01-01T03:55:17.000Z</time>
      </trkpt>
      <trkpt lat="41.091907" lon="-6.718355">
        <ele>563.5</ele>
        <time>1970-01-01T03:55:18.000Z</time>
      </trkpt>
      <trkpt lat="41.091911" lon="-6.718339">
        <ele>563.5</ele>
        <time>1970-01-01T03:55:19.000Z</time>
      </trkpt>
      <trkpt lat="41.091916" lon="-6.718325">
        <ele>563.6</ele>
        <time>1970-01-01T03:55:20.000Z</time>
      </trkpt>
      <trkpt lat="41.091921" lon="-6.71831">
        <ele>563.6</ele>
        <time>1970-01-01T03:55:21.000Z</time>
      </trkpt>
      <trkpt lat="41.091926" lon="-6.718295">
        <ele>563.7</ele>
        <time>1970-01-01T03:55:22.000Z</time>
      </trkpt>
      <trkpt lat="41.091929" lon="-6.718283">
        <ele>563.7</ele>
        <time>1970-01-01T03:55:23.000Z</time>
      </trkpt>
      <trkpt lat="41.09193" lon="-6.718276">
        <ele>563.7</ele>
        <time>1970-01-01T03:55:24.000Z</time>
      </trkpt>
      <trkpt lat="41.09193" lon="-6.718273">
        <ele>563.7</ele>
        <time>1970-01-01T03:55:25.000Z</time>
      </trkpt>
      <trkpt lat="41.09193" lon="-6.718269">
        <ele>563.8</ele>
        <time>1970-01-01T03:55:26.000Z</time>
      </trkpt>
      <trkpt lat="41.091929" lon="-6.718265">
        <ele>563.8</ele>
        <time>1970-01-01T03:55:27.000Z</time>
      </trkpt>
      <trkpt lat="41.091929" lon="-6.718262">
        <ele>563.8</ele>
        <time>1970-01-01T03:55:28.000Z</time>
      </trkpt>
      <trkpt lat="41.091929" lon="-6.718258">
        <ele>563.8</ele>
        <time>1970-01-01T03:55:29.000Z</time>
      </trkpt>
      <trkpt lat="41.09193" lon="-6.718252">
        <ele>563.8</ele>
        <time>1970-01-01T03:55:30.000Z</time>
      </trkpt>
      <trkpt lat="41.091932" lon="-6.718246">
        <ele>563.8</ele>
        <time>1970-01-01T03:55:31.000Z</time>
      </trkpt>
      <trkpt lat="41.091934" lon="-6.718242">
        <ele>563.8</ele>
        <time>1970-01-01T03:55:32.000Z</time>
      </trkpt>
      <trkpt lat="41.091937" lon="-6.718236">
        <ele>563.9</ele>
        <time>1970-01-01T03:55:33.000Z</time>
      </trkpt>
      <trkpt lat="41.091941" lon="-6.718227">
        <ele>563.9</ele>
        <time>1970-01-01T03:55:34.000Z</time>
      </trkpt>
      <trkpt lat="41.091945" lon="-6.718213">
        <ele>563.9</ele>
        <time>1970-01-01T03:55:35.000Z</time>
      </trkpt>
      <trkpt lat="41.091948" lon="-6.7182">
        <ele>564</ele>
        <time>1970-01-01T03:55:36.000Z</time>
      </trkpt>
      <trkpt lat="41.09195" lon="-6.718191">
        <ele>564</ele>
        <time>1970-01-01T03:55:37.000Z</time>
      </trkpt>
      <trkpt lat="41.09195" lon="-6.718185">
        <ele>564</ele>
        <time>1970-01-01T03:55:38.000Z</time>
      </trkpt>
      <trkpt lat="41.091952" lon="-6.718183">
        <ele>564</ele>
        <time>1970-01-01T03:55:39.000Z</time>
      </trkpt>
      <trkpt lat="41.091954" lon="-6.71818">
        <ele>564.1</ele>
        <time>1970-01-01T03:55:40.000Z</time>
      </trkpt>
      <trkpt lat="41.091957" lon="-6.718174">
        <ele>564.1</ele>
        <time>1970-01-01T03:55:41.000Z</time>
      </trkpt>
      <trkpt lat="41.091959" lon="-6.718166">
        <ele>564.1</ele>
        <time>1970-01-01T03:55:42.000Z</time>
      </trkpt>
      <trkpt lat="41.091962" lon="-6.718156">
        <ele>564.1</ele>
        <time>1970-01-01T03:55:43.000Z</time>
      </trkpt>
      <trkpt lat="41.091965" lon="-6.718146">
        <ele>564.2</ele>
        <time>1970-01-01T03:55:44.000Z</time>
      </trkpt>
      <trkpt lat="41.091969" lon="-6.718136">
        <ele>564.2</ele>
        <time>1970-01-01T03:55:45.000Z</time>
      </trkpt>
      <trkpt lat="41.091971" lon="-6.718125">
        <ele>564.2</ele>
        <time>1970-01-01T03:55:46.000Z</time>
      </trkpt>
      <trkpt lat="41.091974" lon="-6.718113">
        <ele>564.3</ele>
        <time>1970-01-01T03:55:47.000Z</time>
      </trkpt>
      <trkpt lat="41.091976" lon="-6.718099">
        <ele>564.3</ele>
        <time>1970-01-01T03:55:48.000Z</time>
      </trkpt>
      <trkpt lat="41.09198" lon="-6.718084">
        <ele>564.4</ele>
        <time>1970-01-01T03:55:49.000Z</time>
      </trkpt>
      <trkpt lat="41.091986" lon="-6.718074">
        <ele>564.4</ele>
        <time>1970-01-01T03:55:50.000Z</time>
      </trkpt>
      <trkpt lat="41.091991" lon="-6.718069">
        <ele>564.4</ele>
        <time>1970-01-01T03:55:51.000Z</time>
      </trkpt>
      <trkpt lat="41.091995" lon="-6.718068">
        <ele>564.5</ele>
        <time>1970-01-01T03:55:52.000Z</time>
      </trkpt>
      <trkpt lat="41.091996" lon="-6.718067">
        <ele>564.5</ele>
        <time>1970-01-01T03:55:53.000Z</time>
      </trkpt>
      <trkpt lat="41.091998" lon="-6.718065">
        <ele>564.5</ele>
        <time>1970-01-01T03:55:54.000Z</time>
      </trkpt>
      <trkpt lat="41.092001" lon="-6.718061">
        <ele>564.5</ele>
        <time>1970-01-01T03:55:55.000Z</time>
      </trkpt>
      <trkpt lat="41.092005" lon="-6.718056">
        <ele>564.5</ele>
        <time>1970-01-01T03:55:56.000Z</time>
      </trkpt>
      <trkpt lat="41.092012" lon="-6.718048">
        <ele>564.6</ele>
        <time>1970-01-01T03:55:57.000Z</time>
      </trkpt>
      <trkpt lat="41.092021" lon="-6.718036">
        <ele>564.6</ele>
        <time>1970-01-01T03:55:58.000Z</time>
      </trkpt>
      <trkpt lat="41.092031" lon="-6.71802">
        <ele>564.7</ele>
        <time>1970-01-01T03:55:59.000Z</time>
      </trkpt>
      <trkpt lat="41.092039" lon="-6.718003">
        <ele>564.7</ele>
        <time>1970-01-01T03:56:00.000Z</time>
      </trkpt>
      <trkpt lat="41.092047" lon="-6.717985">
        <ele>564.8</ele>
        <time>1970-01-01T03:56:01.000Z</time>
      </trkpt>
      <trkpt lat="41.092055" lon="-6.71797">
        <ele>564.9</ele>
        <time>1970-01-01T03:56:02.000Z</time>
      </trkpt>
      <trkpt lat="41.092065" lon="-6.717956">
        <ele>564.9</ele>
        <time>1970-01-01T03:56:03.000Z</time>
      </trkpt>
      <trkpt lat="41.092077" lon="-6.717942">
        <ele>565</ele>
        <time>1970-01-01T03:56:04.000Z</time>
      </trkpt>
      <trkpt lat="41.092087" lon="-6.717928">
        <ele>565</ele>
        <time>1970-01-01T03:56:05.000Z</time>
      </trkpt>
      <trkpt lat="41.092098" lon="-6.71791">
        <ele>565.1</ele>
        <time>1970-01-01T03:56:06.000Z</time>
      </trkpt>
      <trkpt lat="41.09211" lon="-6.717889">
        <ele>565.2</ele>
        <time>1970-01-01T03:56:07.000Z</time>
      </trkpt>
      <trkpt lat="41.092123" lon="-6.717866">
        <ele>565.3</ele>
        <time>1970-01-01T03:56:08.000Z</time>
      </trkpt>
      <trkpt lat="41.092136" lon="-6.717842">
        <ele>565.4</ele>
        <time>1970-01-01T03:56:09.000Z</time>
      </trkpt>
      <trkpt lat="41.092149" lon="-6.717817">
        <ele>565.5</ele>
        <time>1970-01-01T03:56:10.000Z</time>
      </trkpt>
      <trkpt lat="41.09216" lon="-6.717792">
        <ele>565.6</ele>
        <time>1970-01-01T03:56:11.000Z</time>
      </trkpt>
      <trkpt lat="41.09217" lon="-6.717769">
        <ele>565.6</ele>
        <time>1970-01-01T03:56:12.000Z</time>
      </trkpt>
      <trkpt lat="41.092179" lon="-6.717747">
        <ele>565.7</ele>
        <time>1970-01-01T03:56:13.000Z</time>
      </trkpt>
      <trkpt lat="41.092188" lon="-6.717726">
        <ele>565.8</ele>
        <time>1970-01-01T03:56:14.000Z</time>
      </trkpt>
      <trkpt lat="41.092198" lon="-6.717705">
        <ele>565.9</ele>
        <time>1970-01-01T03:56:15.000Z</time>
      </trkpt>
      <trkpt lat="41.092207" lon="-6.717684">
        <ele>565.9</ele>
        <time>1970-01-01T03:56:16.000Z</time>
      </trkpt>
      <trkpt lat="41.092215" lon="-6.71766">
        <ele>566</ele>
        <time>1970-01-01T03:56:17.000Z</time>
      </trkpt>
      <trkpt lat="41.092222" lon="-6.717636">
        <ele>566.1</ele>
        <time>1970-01-01T03:56:18.000Z</time>
      </trkpt>
      <trkpt lat="41.092231" lon="-6.717612">
        <ele>566.2</ele>
        <time>1970-01-01T03:56:19.000Z</time>
      </trkpt>
      <trkpt lat="41.09224" lon="-6.717589">
        <ele>566.3</ele>
        <time>1970-01-01T03:56:20.000Z</time>
      </trkpt>
      <trkpt lat="41.092252" lon="-6.717568">
        <ele>566.3</ele>
        <time>1970-01-01T03:56:21.000Z</time>
      </trkpt>
      <trkpt lat="41.092264" lon="-6.717546">
        <ele>566.4</ele>
        <time>1970-01-01T03:56:22.000Z</time>
      </trkpt>
      <trkpt lat="41.092275" lon="-6.717525">
        <ele>566.5</ele>
        <time>1970-01-01T03:56:23.000Z</time>
      </trkpt>
      <trkpt lat="41.092287" lon="-6.717502">
        <ele>566.6</ele>
        <time>1970-01-01T03:56:24.000Z</time>
      </trkpt>
      <trkpt lat="41.092299" lon="-6.717481">
        <ele>566.7</ele>
        <time>1970-01-01T03:56:25.000Z</time>
      </trkpt>
      <trkpt lat="41.092312" lon="-6.717461">
        <ele>566.8</ele>
        <time>1970-01-01T03:56:26.000Z</time>
      </trkpt>
      <trkpt lat="41.092327" lon="-6.717442">
        <ele>566.8</ele>
        <time>1970-01-01T03:56:27.000Z</time>
      </trkpt>
      <trkpt lat="41.092343" lon="-6.717423">
        <ele>566.9</ele>
        <time>1970-01-01T03:56:28.000Z</time>
      </trkpt>
      <trkpt lat="41.09236" lon="-6.717407">
        <ele>567</ele>
        <time>1970-01-01T03:56:29.000Z</time>
      </trkpt>
      <trkpt lat="41.092379" lon="-6.717394">
        <ele>567.1</ele>
        <time>1970-01-01T03:56:30.000Z</time>
      </trkpt>
      <trkpt lat="41.092399" lon="-6.717384">
        <ele>567.2</ele>
        <time>1970-01-01T03:56:31.000Z</time>
      </trkpt>
      <trkpt lat="41.092421" lon="-6.717375">
        <ele>567.3</ele>
        <time>1970-01-01T03:56:32.000Z</time>
      </trkpt>
      <trkpt lat="41.092444" lon="-6.717368">
        <ele>567.4</ele>
        <time>1970-01-01T03:56:33.000Z</time>
      </trkpt>
      <trkpt lat="41.092466" lon="-6.717361">
        <ele>567.5</ele>
        <time>1970-01-01T03:56:34.000Z</time>
      </trkpt>
      <trkpt lat="41.092488" lon="-6.717352">
        <ele>567.6</ele>
        <time>1970-01-01T03:56:35.000Z</time>
      </trkpt>
      <trkpt lat="41.092507" lon="-6.717342">
        <ele>567.7</ele>
        <time>1970-01-01T03:56:36.000Z</time>
      </trkpt>
      <trkpt lat="41.092523" lon="-6.717331">
        <ele>567.7</ele>
        <time>1970-01-01T03:56:37.000Z</time>
      </trkpt>
      <trkpt lat="41.092536" lon="-6.717322">
        <ele>567.8</ele>
        <time>1970-01-01T03:56:38.000Z</time>
      </trkpt>
      <trkpt lat="41.09255" lon="-6.717313">
        <ele>567.8</ele>
        <time>1970-01-01T03:56:39.000Z</time>
      </trkpt>
      <trkpt lat="41.092567" lon="-6.717304">
        <ele>567.7</ele>
        <time>1970-01-01T03:56:40.000Z</time>
      </trkpt>
      <trkpt lat="41.092585" lon="-6.717295">
        <ele>567.7</ele>
        <time>1970-01-01T03:56:41.000Z</time>
      </trkpt>
      <trkpt lat="41.092605" lon="-6.717284">
        <ele>567.6</ele>
        <time>1970-01-01T03:56:42.000Z</time>
      </trkpt>
      <trkpt lat="41.092631" lon="-6.71727">
        <ele>567.5</ele>
        <time>1970-01-01T03:56:43.000Z</time>
      </trkpt>
      <trkpt lat="41.092661" lon="-6.717254">
        <ele>567.4</ele>
        <time>1970-01-01T03:56:44.000Z</time>
      </trkpt>
      <trkpt lat="41.092694" lon="-6.717238">
        <ele>567.2</ele>
        <time>1970-01-01T03:56:45.000Z</time>
      </trkpt>
      <trkpt lat="41.092728" lon="-6.71722">
        <ele>567</ele>
        <time>1970-01-01T03:56:46.000Z</time>
      </trkpt>
      <trkpt lat="41.092762" lon="-6.717198">
        <ele>566.7</ele>
        <time>1970-01-01T03:56:47.000Z</time>
      </trkpt>
      <trkpt lat="41.092795" lon="-6.717174">
        <ele>566.5</ele>
        <time>1970-01-01T03:56:48.000Z</time>
      </trkpt>
      <trkpt lat="41.092823" lon="-6.717151">
        <ele>566.3</ele>
        <time>1970-01-01T03:56:49.000Z</time>
      </trkpt>
      <trkpt lat="41.092849" lon="-6.717129">
        <ele>566.1</ele>
        <time>1970-01-01T03:56:50.000Z</time>
      </trkpt>
      <trkpt lat="41.092873" lon="-6.71711">
        <ele>565.9</ele>
        <time>1970-01-01T03:56:51.000Z</time>
      </trkpt>
      <trkpt lat="41.092896" lon="-6.717097">
        <ele>565.8</ele>
        <time>1970-01-01T03:56:52.000Z</time>
      </trkpt>
      <trkpt lat="41.092919" lon="-6.717089">
        <ele>565.7</ele>
        <time>1970-01-01T03:56:53.000Z</time>
      </trkpt>
      <trkpt lat="41.092943" lon="-6.717087">
        <ele>565.6</ele>
        <time>1970-01-01T03:56:54.000Z</time>
      </trkpt>
      <trkpt lat="41.092965" lon="-6.717094">
        <ele>565.5</ele>
        <time>1970-01-01T03:56:55.000Z</time>
      </trkpt>
      <trkpt lat="41.092986" lon="-6.717111">
        <ele>565.5</ele>
        <time>1970-01-01T03:56:56.000Z</time>
      </trkpt>
      <trkpt lat="41.093009" lon="-6.717125">
        <ele>565.5</ele>
        <time>1970-01-01T03:56:57.000Z</time>
      </trkpt>
      <trkpt lat="41.093035" lon="-6.717132">
        <ele>565.5</ele>
        <time>1970-01-01T03:56:58.000Z</time>
      </trkpt>
      <trkpt lat="41.093066" lon="-6.717126">
        <ele>565.6</ele>
        <time>1970-01-01T03:56:59.000Z</time>
      </trkpt>
      <trkpt lat="41.093099" lon="-6.717112">
        <ele>565.6</ele>
        <time>1970-01-01T03:57:00.000Z</time>
      </trkpt>
      <trkpt lat="41.093139" lon="-6.717095">
        <ele>565.8</ele>
        <time>1970-01-01T03:57:01.000Z</time>
      </trkpt>
      <trkpt lat="41.09318" lon="-6.717084">
        <ele>566</ele>
        <time>1970-01-01T03:57:02.000Z</time>
      </trkpt>
      <trkpt lat="41.093221" lon="-6.717078">
        <ele>566.2</ele>
        <time>1970-01-01T03:57:03.000Z</time>
      </trkpt>
      <trkpt lat="41.093261" lon="-6.717078">
        <ele>566.2</ele>
        <time>1970-01-01T03:57:04.000Z</time>
      </trkpt>
      <trkpt lat="41.093302" lon="-6.717084">
        <ele>566.1</ele>
        <time>1970-01-01T03:57:05.000Z</time>
      </trkpt>
      <trkpt lat="41.093342" lon="-6.717096">
        <ele>565.9</ele>
        <time>1970-01-01T03:57:06.000Z</time>
      </trkpt>
      <trkpt lat="41.093381" lon="-6.717111">
        <ele>565.8</ele>
        <time>1970-01-01T03:57:07.000Z</time>
      </trkpt>
      <trkpt lat="41.093419" lon="-6.717125">
        <ele>565.6</ele>
        <time>1970-01-01T03:57:08.000Z</time>
      </trkpt>
      <trkpt lat="41.093456" lon="-6.71714">
        <ele>565.5</ele>
        <time>1970-01-01T03:57:09.000Z</time>
      </trkpt>
      <trkpt lat="41.093491" lon="-6.717158">
        <ele>565.3</ele>
        <time>1970-01-01T03:57:10.000Z</time>
      </trkpt>
      <trkpt lat="41.093524" lon="-6.717176">
        <ele>565.2</ele>
        <time>1970-01-01T03:57:11.000Z</time>
      </trkpt>
      <trkpt lat="41.093556" lon="-6.717195">
        <ele>565.1</ele>
        <time>1970-01-01T03:57:12.000Z</time>
      </trkpt>
      <trkpt lat="41.09359" lon="-6.717211">
        <ele>564.9</ele>
        <time>1970-01-01T03:57:13.000Z</time>
      </trkpt>
      <trkpt lat="41.093622" lon="-6.717225">
        <ele>564.8</ele>
        <time>1970-01-01T03:57:14.000Z</time>
      </trkpt>
      <trkpt lat="41.093656" lon="-6.717235">
        <ele>564.7</ele>
        <time>1970-01-01T03:57:15.000Z</time>
      </trkpt>
      <trkpt lat="41.093689" lon="-6.717242">
        <ele>564.6</ele>
        <time>1970-01-01T03:57:16.000Z</time>
      </trkpt>
      <trkpt lat="41.093724" lon="-6.717246">
        <ele>564.6</ele>
        <time>1970-01-01T03:57:17.000Z</time>
      </trkpt>
      <trkpt lat="41.093761" lon="-6.717249">
        <ele>564.5</ele>
        <time>1970-01-01T03:57:18.000Z</time>
      </trkpt>
      <trkpt lat="41.093798" lon="-6.717253">
        <ele>564.4</ele>
        <time>1970-01-01T03:57:19.000Z</time>
      </trkpt>
      <trkpt lat="41.093836" lon="-6.717258">
        <ele>564.4</ele>
        <time>1970-01-01T03:57:20.000Z</time>
      </trkpt>
      <trkpt lat="41.093872" lon="-6.717266">
        <ele>564.3</ele>
        <time>1970-01-01T03:57:21.000Z</time>
      </trkpt>
      <trkpt lat="41.093907" lon="-6.717274">
        <ele>564.3</ele>
        <time>1970-01-01T03:57:22.000Z</time>
      </trkpt>
      <trkpt lat="41.093942" lon="-6.71728">
        <ele>564.2</ele>
        <time>1970-01-01T03:57:23.000Z</time>
      </trkpt>
      <trkpt lat="41.093979" lon="-6.717284">
        <ele>564.1</ele>
        <time>1970-01-01T03:57:24.000Z</time>
      </trkpt>
      <trkpt lat="41.094014" lon="-6.71729">
        <ele>564.1</ele>
        <time>1970-01-01T03:57:25.000Z</time>
      </trkpt>
      <trkpt lat="41.09405" lon="-6.717297">
        <ele>564</ele>
        <time>1970-01-01T03:57:26.000Z</time>
      </trkpt>
      <trkpt lat="41.094085" lon="-6.717306">
        <ele>564</ele>
        <time>1970-01-01T03:57:27.000Z</time>
      </trkpt>
      <trkpt lat="41.094119" lon="-6.717315">
        <ele>563.9</ele>
        <time>1970-01-01T03:57:28.000Z</time>
      </trkpt>
      <trkpt lat="41.094152" lon="-6.717322">
        <ele>563.9</ele>
        <time>1970-01-01T03:57:29.000Z</time>
      </trkpt>
      <trkpt lat="41.094187" lon="-6.717328">
        <ele>563.8</ele>
        <time>1970-01-01T03:57:30.000Z</time>
      </trkpt>
      <trkpt lat="41.094222" lon="-6.717335">
        <ele>563.8</ele>
        <time>1970-01-01T03:57:31.000Z</time>
      </trkpt>
      <trkpt lat="41.094258" lon="-6.717343">
        <ele>563.7</ele>
        <time>1970-01-01T03:57:32.000Z</time>
      </trkpt>
      <trkpt lat="41.094292" lon="-6.717352">
        <ele>563.6</ele>
        <time>1970-01-01T03:57:33.000Z</time>
      </trkpt>
      <trkpt lat="41.094326" lon="-6.71736">
        <ele>563.6</ele>
        <time>1970-01-01T03:57:34.000Z</time>
      </trkpt>
      <trkpt lat="41.094361" lon="-6.717367">
        <ele>563.4</ele>
        <time>1970-01-01T03:57:35.000Z</time>
      </trkpt>
      <trkpt lat="41.094395" lon="-6.717373">
        <ele>563.3</ele>
        <time>1970-01-01T03:57:36.000Z</time>
      </trkpt>
      <trkpt lat="41.094431" lon="-6.717376">
        <ele>563.2</ele>
        <time>1970-01-01T03:57:37.000Z</time>
      </trkpt>
      <trkpt lat="41.094466" lon="-6.717376">
        <ele>563</ele>
        <time>1970-01-01T03:57:38.000Z</time>
      </trkpt>
      <trkpt lat="41.094504" lon="-6.717375">
        <ele>562.9</ele>
        <time>1970-01-01T03:57:39.000Z</time>
      </trkpt>
      <trkpt lat="41.094541" lon="-6.717375">
        <ele>562.7</ele>
        <time>1970-01-01T03:57:40.000Z</time>
      </trkpt>
      <trkpt lat="41.094578" lon="-6.717377">
        <ele>562.6</ele>
        <time>1970-01-01T03:57:41.000Z</time>
      </trkpt>
      <trkpt lat="41.094616" lon="-6.717379">
        <ele>562.4</ele>
        <time>1970-01-01T03:57:42.000Z</time>
      </trkpt>
      <trkpt lat="41.094654" lon="-6.717383">
        <ele>562.3</ele>
        <time>1970-01-01T03:57:43.000Z</time>
      </trkpt>
      <trkpt lat="41.094693" lon="-6.717386">
        <ele>562.2</ele>
        <time>1970-01-01T03:57:44.000Z</time>
      </trkpt>
      <trkpt lat="41.094732" lon="-6.717391">
        <ele>562.1</ele>
        <time>1970-01-01T03:57:45.000Z</time>
      </trkpt>
      <trkpt lat="41.094773" lon="-6.717396">
        <ele>561.9</ele>
        <time>1970-01-01T03:57:46.000Z</time>
      </trkpt>
      <trkpt lat="41.094816" lon="-6.717404">
        <ele>561.7</ele>
        <time>1970-01-01T03:57:47.000Z</time>
      </trkpt>
      <trkpt lat="41.09486" lon="-6.717416">
        <ele>561.5</ele>
        <time>1970-01-01T03:57:48.000Z</time>
      </trkpt>
      <trkpt lat="41.094903" lon="-6.717433">
        <ele>561.3</ele>
        <time>1970-01-01T03:57:49.000Z</time>
      </trkpt>
      <trkpt lat="41.094944" lon="-6.717454">
        <ele>561</ele>
        <time>1970-01-01T03:57:50.000Z</time>
      </trkpt>
      <trkpt lat="41.094985" lon="-6.717478">
        <ele>560.8</ele>
        <time>1970-01-01T03:57:51.000Z</time>
      </trkpt>
      <trkpt lat="41.095025" lon="-6.717503">
        <ele>560.5</ele>
        <time>1970-01-01T03:57:52.000Z</time>
      </trkpt>
      <trkpt lat="41.095065" lon="-6.717531">
        <ele>560.2</ele>
        <time>1970-01-01T03:57:53.000Z</time>
      </trkpt>
      <trkpt lat="41.095106" lon="-6.717561">
        <ele>559.9</ele>
        <time>1970-01-01T03:57:54.000Z</time>
      </trkpt>
      <trkpt lat="41.095147" lon="-6.717593">
        <ele>559.6</ele>
        <time>1970-01-01T03:57:55.000Z</time>
      </trkpt>
      <trkpt lat="41.095189" lon="-6.717628">
        <ele>559.3</ele>
        <time>1970-01-01T03:57:56.000Z</time>
      </trkpt>
      <trkpt lat="41.095232" lon="-6.717664">
        <ele>559.1</ele>
        <time>1970-01-01T03:57:57.000Z</time>
      </trkpt>
      <trkpt lat="41.095275" lon="-6.717704">
        <ele>558.8</ele>
        <time>1970-01-01T03:57:58.000Z</time>
      </trkpt>
      <trkpt lat="41.095319" lon="-6.717743">
        <ele>558.6</ele>
        <time>1970-01-01T03:57:59.000Z</time>
      </trkpt>
      <trkpt lat="41.095364" lon="-6.717783">
        <ele>558.4</ele>
        <time>1970-01-01T03:58:00.000Z</time>
      </trkpt>
      <trkpt lat="41.09541" lon="-6.717823">
        <ele>558.1</ele>
        <time>1970-01-01T03:58:01.000Z</time>
      </trkpt>
      <trkpt lat="41.095458" lon="-6.717862">
        <ele>557.9</ele>
        <time>1970-01-01T03:58:02.000Z</time>
      </trkpt>
      <trkpt lat="41.095507" lon="-6.7179">
        <ele>557.8</ele>
        <time>1970-01-01T03:58:03.000Z</time>
      </trkpt>
      <trkpt lat="41.095557" lon="-6.717937">
        <ele>557.7</ele>
        <time>1970-01-01T03:58:04.000Z</time>
      </trkpt>
      <trkpt lat="41.095608" lon="-6.71797">
        <ele>557.6</ele>
        <time>1970-01-01T03:58:05.000Z</time>
      </trkpt>
      <trkpt lat="41.09566" lon="-6.718">
        <ele>557.6</ele>
        <time>1970-01-01T03:58:06.000Z</time>
      </trkpt>
      <trkpt lat="41.095711" lon="-6.718028">
        <ele>557.7</ele>
        <time>1970-01-01T03:58:07.000Z</time>
      </trkpt>
      <trkpt lat="41.095761" lon="-6.718056">
        <ele>557.7</ele>
        <time>1970-01-01T03:58:08.000Z</time>
      </trkpt>
      <trkpt lat="41.095807" lon="-6.71809">
        <ele>557.8</ele>
        <time>1970-01-01T03:58:09.000Z</time>
      </trkpt>
      <trkpt lat="41.095841" lon="-6.718134">
        <ele>557.8</ele>
        <time>1970-01-01T03:58:10.000Z</time>
      </trkpt>
      <trkpt lat="41.095859" lon="-6.718183">
        <ele>557.8</ele>
        <time>1970-01-01T03:58:11.000Z</time>
      </trkpt>
      <trkpt lat="41.095867" lon="-6.718235">
        <ele>557.8</ele>
        <time>1970-01-01T03:58:12.000Z</time>
      </trkpt>
      <trkpt lat="41.095874" lon="-6.718287">
        <ele>557.8</ele>
        <time>1970-01-01T03:58:13.000Z</time>
      </trkpt>
      <trkpt lat="41.095882" lon="-6.718339">
        <ele>557.7</ele>
        <time>1970-01-01T03:58:14.000Z</time>
      </trkpt>
      <trkpt lat="41.09589" lon="-6.71839">
        <ele>557.7</ele>
        <time>1970-01-01T03:58:15.000Z</time>
      </trkpt>
      <trkpt lat="41.095897" lon="-6.718442">
        <ele>557.6</ele>
        <time>1970-01-01T03:58:16.000Z</time>
      </trkpt>
      <trkpt lat="41.095907" lon="-6.718494">
        <ele>557.6</ele>
        <time>1970-01-01T03:58:17.000Z</time>
      </trkpt>
      <trkpt lat="41.09592" lon="-6.718546">
        <ele>557.5</ele>
        <time>1970-01-01T03:58:18.000Z</time>
      </trkpt>
      <trkpt lat="41.095937" lon="-6.718595">
        <ele>557.4</ele>
        <time>1970-01-01T03:58:19.000Z</time>
      </trkpt>
      <trkpt lat="41.095957" lon="-6.71864">
        <ele>557.3</ele>
        <time>1970-01-01T03:58:20.000Z</time>
      </trkpt>
      <trkpt lat="41.095981" lon="-6.718675">
        <ele>557.2</ele>
        <time>1970-01-01T03:58:21.000Z</time>
      </trkpt>
      <trkpt lat="41.096012" lon="-6.718699">
        <ele>557</ele>
        <time>1970-01-01T03:58:22.000Z</time>
      </trkpt>
      <trkpt lat="41.096048" lon="-6.718714">
        <ele>557.1</ele>
        <time>1970-01-01T03:58:23.000Z</time>
      </trkpt>
      <trkpt lat="41.096086" lon="-6.718724">
        <ele>557.1</ele>
        <time>1970-01-01T03:58:24.000Z</time>
      </trkpt>
      <trkpt lat="41.096125" lon="-6.718728">
        <ele>557.2</ele>
        <time>1970-01-01T03:58:25.000Z</time>
      </trkpt>
      <trkpt lat="41.096165" lon="-6.718729">
        <ele>557.3</ele>
        <time>1970-01-01T03:58:26.000Z</time>
      </trkpt>
      <trkpt lat="41.096206" lon="-6.718727">
        <ele>557.4</ele>
        <time>1970-01-01T03:58:27.000Z</time>
      </trkpt>
      <trkpt lat="41.096247" lon="-6.718723">
        <ele>557.5</ele>
        <time>1970-01-01T03:58:28.000Z</time>
      </trkpt>
      <trkpt lat="41.096287" lon="-6.718716">
        <ele>557.6</ele>
        <time>1970-01-01T03:58:29.000Z</time>
      </trkpt>
      <trkpt lat="41.096326" lon="-6.718707">
        <ele>557.7</ele>
        <time>1970-01-01T03:58:30.000Z</time>
      </trkpt>
      <trkpt lat="41.096365" lon="-6.718697">
        <ele>557.8</ele>
        <time>1970-01-01T03:58:31.000Z</time>
      </trkpt>
      <trkpt lat="41.096402" lon="-6.718685">
        <ele>557.9</ele>
        <time>1970-01-01T03:58:32.000Z</time>
      </trkpt>
      <trkpt lat="41.09644" lon="-6.718671">
        <ele>558</ele>
        <time>1970-01-01T03:58:33.000Z</time>
      </trkpt>
      <trkpt lat="41.096478" lon="-6.718655">
        <ele>558.2</ele>
        <time>1970-01-01T03:58:34.000Z</time>
      </trkpt>
      <trkpt lat="41.096515" lon="-6.718634">
        <ele>558.3</ele>
        <time>1970-01-01T03:58:35.000Z</time>
      </trkpt>
      <trkpt lat="41.096553" lon="-6.718611">
        <ele>558.5</ele>
        <time>1970-01-01T03:58:36.000Z</time>
      </trkpt>
      <trkpt lat="41.09659" lon="-6.718587">
        <ele>558.6</ele>
        <time>1970-01-01T03:58:37.000Z</time>
      </trkpt>
      <trkpt lat="41.096629" lon="-6.718563">
        <ele>558.8</ele>
        <time>1970-01-01T03:58:38.000Z</time>
      </trkpt>
      <trkpt lat="41.096668" lon="-6.71854">
        <ele>558.9</ele>
        <time>1970-01-01T03:58:39.000Z</time>
      </trkpt>
      <trkpt lat="41.096708" lon="-6.718519">
        <ele>559</ele>
        <time>1970-01-01T03:58:40.000Z</time>
      </trkpt>
      <trkpt lat="41.09675" lon="-6.7185">
        <ele>559.2</ele>
        <time>1970-01-01T03:58:41.000Z</time>
      </trkpt>
      <trkpt lat="41.096793" lon="-6.718482">
        <ele>559.3</ele>
        <time>1970-01-01T03:58:42.000Z</time>
      </trkpt>
      <trkpt lat="41.096836" lon="-6.718466">
        <ele>559.6</ele>
        <time>1970-01-01T03:58:43.000Z</time>
      </trkpt>
      <trkpt lat="41.096882" lon="-6.718454">
        <ele>559.9</ele>
        <time>1970-01-01T03:58:44.000Z</time>
      </trkpt>
      <trkpt lat="41.096928" lon="-6.718448">
        <ele>560.2</ele>
        <time>1970-01-01T03:58:45.000Z</time>
      </trkpt>
      <trkpt lat="41.096975" lon="-6.71845">
        <ele>560.6</ele>
        <time>1970-01-01T03:58:46.000Z</time>
      </trkpt>
      <trkpt lat="41.097021" lon="-6.718459">
        <ele>560.9</ele>
        <time>1970-01-01T03:58:47.000Z</time>
      </trkpt>
      <trkpt lat="41.097065" lon="-6.718469">
        <ele>561.2</ele>
        <time>1970-01-01T03:58:48.000Z</time>
      </trkpt>
      <trkpt lat="41.097109" lon="-6.718481">
        <ele>561.5</ele>
        <time>1970-01-01T03:58:49.000Z</time>
      </trkpt>
      <trkpt lat="41.097152" lon="-6.718495">
        <ele>561.7</ele>
        <time>1970-01-01T03:58:50.000Z</time>
      </trkpt>
      <trkpt lat="41.097195" lon="-6.718512">
        <ele>561.9</ele>
        <time>1970-01-01T03:58:51.000Z</time>
      </trkpt>
      <trkpt lat="41.097237" lon="-6.718529">
        <ele>562.2</ele>
        <time>1970-01-01T03:58:52.000Z</time>
      </trkpt>
      <trkpt lat="41.097278" lon="-6.718548">
        <ele>562.4</ele>
        <time>1970-01-01T03:58:53.000Z</time>
      </trkpt>
      <trkpt lat="41.097318" lon="-6.718571">
        <ele>562.6</ele>
        <time>1970-01-01T03:58:54.000Z</time>
      </trkpt>
      <trkpt lat="41.097358" lon="-6.718595">
        <ele>562.8</ele>
        <time>1970-01-01T03:58:55.000Z</time>
      </trkpt>
      <trkpt lat="41.097397" lon="-6.718617">
        <ele>563</ele>
        <time>1970-01-01T03:58:56.000Z</time>
      </trkpt>
      <trkpt lat="41.097436" lon="-6.718636">
        <ele>563.2</ele>
        <time>1970-01-01T03:58:57.000Z</time>
      </trkpt>
      <trkpt lat="41.097477" lon="-6.71865">
        <ele>563.4</ele>
        <time>1970-01-01T03:58:58.000Z</time>
      </trkpt>
      <trkpt lat="41.097519" lon="-6.718662">
        <ele>563.6</ele>
        <time>1970-01-01T03:58:59.000Z</time>
      </trkpt>
      <trkpt lat="41.097561" lon="-6.71867">
        <ele>563.8</ele>
        <time>1970-01-01T03:59:00.000Z</time>
      </trkpt>
      <trkpt lat="41.097604" lon="-6.718675">
        <ele>564</ele>
        <time>1970-01-01T03:59:01.000Z</time>
      </trkpt>
      <trkpt lat="41.097646" lon="-6.718679">
        <ele>564.2</ele>
        <time>1970-01-01T03:59:02.000Z</time>
      </trkpt>
      <trkpt lat="41.097689" lon="-6.718686">
        <ele>564.4</ele>
        <time>1970-01-01T03:59:03.000Z</time>
      </trkpt>
      <trkpt lat="41.097731" lon="-6.718696">
        <ele>564.7</ele>
        <time>1970-01-01T03:59:04.000Z</time>
      </trkpt>
      <trkpt lat="41.097772" lon="-6.718707">
        <ele>564.8</ele>
        <time>1970-01-01T03:59:05.000Z</time>
      </trkpt>
      <trkpt lat="41.097813" lon="-6.718719">
        <ele>564.9</ele>
        <time>1970-01-01T03:59:06.000Z</time>
      </trkpt>
      <trkpt lat="41.097856" lon="-6.718729">
        <ele>564.9</ele>
        <time>1970-01-01T03:59:07.000Z</time>
      </trkpt>
      <trkpt lat="41.097899" lon="-6.718735">
        <ele>565</ele>
        <time>1970-01-01T03:59:08.000Z</time>
      </trkpt>
      <trkpt lat="41.097944" lon="-6.718736">
        <ele>565.1</ele>
        <time>1970-01-01T03:59:09.000Z</time>
      </trkpt>
      <trkpt lat="41.097987" lon="-6.718731">
        <ele>565.3</ele>
        <time>1970-01-01T03:59:10.000Z</time>
      </trkpt>
      <trkpt lat="41.09803" lon="-6.718724">
        <ele>565.4</ele>
        <time>1970-01-01T03:59:11.000Z</time>
      </trkpt>
      <trkpt lat="41.098071" lon="-6.718715">
        <ele>565.6</ele>
        <time>1970-01-01T03:59:12.000Z</time>
      </trkpt>
      <trkpt lat="41.098111" lon="-6.718704">
        <ele>565.8</ele>
        <time>1970-01-01T03:59:13.000Z</time>
      </trkpt>
      <trkpt lat="41.098148" lon="-6.718691">
        <ele>566</ele>
        <time>1970-01-01T03:59:14.000Z</time>
      </trkpt>
      <trkpt lat="41.098182" lon="-6.71868">
        <ele>566.2</ele>
        <time>1970-01-01T03:59:15.000Z</time>
      </trkpt>
      <trkpt lat="41.098214" lon="-6.718669">
        <ele>566.4</ele>
        <time>1970-01-01T03:59:16.000Z</time>
      </trkpt>
      <trkpt lat="41.098245" lon="-6.718659">
        <ele>566.6</ele>
        <time>1970-01-01T03:59:17.000Z</time>
      </trkpt>
      <trkpt lat="41.098275" lon="-6.718648">
        <ele>566.8</ele>
        <time>1970-01-01T03:59:18.000Z</time>
      </trkpt>
      <trkpt lat="41.098304" lon="-6.718635">
        <ele>566.9</ele>
        <time>1970-01-01T03:59:19.000Z</time>
      </trkpt>
      <trkpt lat="41.098333" lon="-6.718622">
        <ele>567</ele>
        <time>1970-01-01T03:59:20.000Z</time>
      </trkpt>
      <trkpt lat="41.098363" lon="-6.71861">
        <ele>567.1</ele>
        <time>1970-01-01T03:59:21.000Z</time>
      </trkpt>
      <trkpt lat="41.098392" lon="-6.7186">
        <ele>567.2</ele>
        <time>1970-01-01T03:59:22.000Z</time>
      </trkpt>
      <trkpt lat="41.09842" lon="-6.71859">
        <ele>567.2</ele>
        <time>1970-01-01T03:59:23.000Z</time>
      </trkpt>
      <trkpt lat="41.098449" lon="-6.718582">
        <ele>567.1</ele>
        <time>1970-01-01T03:59:24.000Z</time>
      </trkpt>
      <trkpt lat="41.098478" lon="-6.718575">
        <ele>567</ele>
        <time>1970-01-01T03:59:25.000Z</time>
      </trkpt>
      <trkpt lat="41.098506" lon="-6.718569">
        <ele>566.9</ele>
        <time>1970-01-01T03:59:26.000Z</time>
      </trkpt>
      <trkpt lat="41.098534" lon="-6.718563">
        <ele>566.8</ele>
        <time>1970-01-01T03:59:27.000Z</time>
      </trkpt>
      <trkpt lat="41.098562" lon="-6.718556">
        <ele>566.8</ele>
        <time>1970-01-01T03:59:28.000Z</time>
      </trkpt>
      <trkpt lat="41.09859" lon="-6.718548">
        <ele>566.8</ele>
        <time>1970-01-01T03:59:29.000Z</time>
      </trkpt>
      <trkpt lat="41.098618" lon="-6.718542">
        <ele>566.8</ele>
        <time>1970-01-01T03:59:30.000Z</time>
      </trkpt>
      <trkpt lat="41.098647" lon="-6.718537">
        <ele>566.8</ele>
        <time>1970-01-01T03:59:31.000Z</time>
      </trkpt>
      <trkpt lat="41.098677" lon="-6.718532">
        <ele>566.9</ele>
        <time>1970-01-01T03:59:32.000Z</time>
      </trkpt>
      <trkpt lat="41.098706" lon="-6.718526">
        <ele>567</ele>
        <time>1970-01-01T03:59:33.000Z</time>
      </trkpt>
      <trkpt lat="41.098735" lon="-6.71852">
        <ele>567</ele>
        <time>1970-01-01T03:59:34.000Z</time>
      </trkpt>
      <trkpt lat="41.098763" lon="-6.718514">
        <ele>567.1</ele>
        <time>1970-01-01T03:59:35.000Z</time>
      </trkpt>
      <trkpt lat="41.098791" lon="-6.718509">
        <ele>567.2</ele>
        <time>1970-01-01T03:59:36.000Z</time>
      </trkpt>
      <trkpt lat="41.098819" lon="-6.718503">
        <ele>567.3</ele>
        <time>1970-01-01T03:59:37.000Z</time>
      </trkpt>
      <trkpt lat="41.098847" lon="-6.718496">
        <ele>567.4</ele>
        <time>1970-01-01T03:59:38.000Z</time>
      </trkpt>
      <trkpt lat="41.098875" lon="-6.718488">
        <ele>567.5</ele>
        <time>1970-01-01T03:59:39.000Z</time>
      </trkpt>
      <trkpt lat="41.098905" lon="-6.71848">
        <ele>567.6</ele>
        <time>1970-01-01T03:59:40.000Z</time>
      </trkpt>
      <trkpt lat="41.098935" lon="-6.718471">
        <ele>567.7</ele>
        <time>1970-01-01T03:59:41.000Z</time>
      </trkpt>
      <trkpt lat="41.098966" lon="-6.718461">
        <ele>567.8</ele>
        <time>1970-01-01T03:59:42.000Z</time>
      </trkpt>
      <trkpt lat="41.098997" lon="-6.71845">
        <ele>568.7</ele>
        <time>1970-01-01T03:59:43.000Z</time>
      </trkpt>
      <trkpt lat="41.099028" lon="-6.71844">
        <ele>569.2</ele>
        <time>1970-01-01T03:59:44.000Z</time>
      </trkpt>
      <trkpt lat="41.099058" lon="-6.718429">
        <ele>569.7</ele>
        <time>1970-01-01T03:59:45.000Z</time>
      </trkpt>
      <trkpt lat="41.099089" lon="-6.718417">
        <ele>570</ele>
        <time>1970-01-01T03:59:46.000Z</time>
      </trkpt>
      <trkpt lat="41.09912" lon="-6.718404">
        <ele>570.3</ele>
        <time>1970-01-01T03:59:47.000Z</time>
      </trkpt>
      <trkpt lat="41.099151" lon="-6.718392">
        <ele>570.5</ele>
        <time>1970-01-01T03:59:48.000Z</time>
      </trkpt>
      <trkpt lat="41.099183" lon="-6.71838">
        <ele>570.6</ele>
        <time>1970-01-01T03:59:49.000Z</time>
      </trkpt>
      <trkpt lat="41.099214" lon="-6.718368">
        <ele>570.7</ele>
        <time>1970-01-01T03:59:50.000Z</time>
      </trkpt>
      <trkpt lat="41.099247" lon="-6.718357">
        <ele>570.7</ele>
        <time>1970-01-01T03:59:51.000Z</time>
      </trkpt>
      <trkpt lat="41.09928" lon="-6.718346">
        <ele>570.8</ele>
        <time>1970-01-01T03:59:52.000Z</time>
      </trkpt>
      <trkpt lat="41.099315" lon="-6.718336">
        <ele>570.9</ele>
        <time>1970-01-01T03:59:53.000Z</time>
      </trkpt>
      <trkpt lat="41.099349" lon="-6.718326">
        <ele>571</ele>
        <time>1970-01-01T03:59:54.000Z</time>
      </trkpt>
      <trkpt lat="41.099382" lon="-6.718315">
        <ele>571.2</ele>
        <time>1970-01-01T03:59:55.000Z</time>
      </trkpt>
      <trkpt lat="41.099415" lon="-6.718304">
        <ele>571.3</ele>
        <time>1970-01-01T03:59:56.000Z</time>
      </trkpt>
      <trkpt lat="41.099448" lon="-6.718293">
        <ele>571.5</ele>
        <time>1970-01-01T03:59:57.000Z</time>
      </trkpt>
      <trkpt lat="41.099482" lon="-6.718283">
        <ele>571.7</ele>
        <time>1970-01-01T03:59:58.000Z</time>
      </trkpt>
      <trkpt lat="41.099516" lon="-6.718274">
        <ele>571.8</ele>
        <time>1970-01-01T03:59:59.000Z</time>
      </trkpt>
      <trkpt lat="41.099549" lon="-6.718266">
        <ele>572</ele>
        <time>1970-01-01T04:00:00.000Z</time>
      </trkpt>
      <trkpt lat="41.099583" lon="-6.718258">
        <ele>572.1</ele>
        <time>1970-01-01T04:00:01.000Z</time>
      </trkpt>
      <trkpt lat="41.099617" lon="-6.718251">
        <ele>572.2</ele>
        <time>1970-01-01T04:00:02.000Z</time>
      </trkpt>
      <trkpt lat="41.09965" lon="-6.718242">
        <ele>572.4</ele>
        <time>1970-01-01T04:00:03.000Z</time>
      </trkpt>
      <trkpt lat="41.099683" lon="-6.718232">
        <ele>572.5</ele>
        <time>1970-01-01T04:00:04.000Z</time>
      </trkpt>
      <trkpt lat="41.099716" lon="-6.71822">
        <ele>572.7</ele>
        <time>1970-01-01T04:00:05.000Z</time>
      </trkpt>
      <trkpt lat="41.099748" lon="-6.718206">
        <ele>572.8</ele>
        <time>1970-01-01T04:00:06.000Z</time>
      </trkpt>
      <trkpt lat="41.099781" lon="-6.718192">
        <ele>573</ele>
        <time>1970-01-01T04:00:07.000Z</time>
      </trkpt>
      <trkpt lat="41.099813" lon="-6.718177">
        <ele>573.1</ele>
        <time>1970-01-01T04:00:08.000Z</time>
      </trkpt>
      <trkpt lat="41.099845" lon="-6.718164">
        <ele>573.2</ele>
        <time>1970-01-01T04:00:09.000Z</time>
      </trkpt>
      <trkpt lat="41.099877" lon="-6.718154">
        <ele>573.3</ele>
        <time>1970-01-01T04:00:10.000Z</time>
      </trkpt>
      <trkpt lat="41.099909" lon="-6.718146">
        <ele>573.4</ele>
        <time>1970-01-01T04:00:11.000Z</time>
      </trkpt>
      <trkpt lat="41.099941" lon="-6.718136">
        <ele>573.5</ele>
        <time>1970-01-01T04:00:12.000Z</time>
      </trkpt>
      <trkpt lat="41.099972" lon="-6.718125">
        <ele>573.6</ele>
        <time>1970-01-01T04:00:13.000Z</time>
      </trkpt>
      <trkpt lat="41.100005" lon="-6.718116">
        <ele>573.7</ele>
        <time>1970-01-01T04:00:14.000Z</time>
      </trkpt>
      <trkpt lat="41.100039" lon="-6.718109">
        <ele>573.9</ele>
        <time>1970-01-01T04:00:15.000Z</time>
      </trkpt>
      <trkpt lat="41.100074" lon="-6.718106">
        <ele>574</ele>
        <time>1970-01-01T04:00:16.000Z</time>
      </trkpt>
      <trkpt lat="41.100108" lon="-6.718103">
        <ele>574.2</ele>
        <time>1970-01-01T04:00:17.000Z</time>
      </trkpt>
      <trkpt lat="41.100143" lon="-6.718103">
        <ele>574.4</ele>
        <time>1970-01-01T04:00:18.000Z</time>
      </trkpt>
      <trkpt lat="41.100178" lon="-6.718105">
        <ele>574.5</ele>
        <time>1970-01-01T04:00:19.000Z</time>
      </trkpt>
      <trkpt lat="41.100214" lon="-6.718109">
        <ele>574.7</ele>
        <time>1970-01-01T04:00:20.000Z</time>
      </trkpt>
      <trkpt lat="41.10025" lon="-6.718115">
        <ele>574.8</ele>
        <time>1970-01-01T04:00:21.000Z</time>
      </trkpt>
      <trkpt lat="41.100286" lon="-6.718123">
        <ele>574.8</ele>
        <time>1970-01-01T04:00:22.000Z</time>
      </trkpt>
      <trkpt lat="41.100323" lon="-6.718133">
        <ele>574.9</ele>
        <time>1970-01-01T04:00:23.000Z</time>
      </trkpt>
      <trkpt lat="41.100361" lon="-6.718145">
        <ele>574.9</ele>
        <time>1970-01-01T04:00:24.000Z</time>
      </trkpt>
      <trkpt lat="41.100398" lon="-6.718158">
        <ele>575</ele>
        <time>1970-01-01T04:00:25.000Z</time>
      </trkpt>
      <trkpt lat="41.100434" lon="-6.718174">
        <ele>575</ele>
        <time>1970-01-01T04:00:26.000Z</time>
      </trkpt>
      <trkpt lat="41.100468" lon="-6.718193">
        <ele>575</ele>
        <time>1970-01-01T04:00:27.000Z</time>
      </trkpt>
      <trkpt lat="41.100501" lon="-6.718217">
        <ele>575.1</ele>
        <time>1970-01-01T04:00:28.000Z</time>
      </trkpt>
      <trkpt lat="41.100533" lon="-6.718245">
        <ele>575.1</ele>
        <time>1970-01-01T04:00:29.000Z</time>
      </trkpt>
      <trkpt lat="41.100563" lon="-6.718276">
        <ele>575.1</ele>
        <time>1970-01-01T04:00:30.000Z</time>
      </trkpt>
      <trkpt lat="41.100594" lon="-6.718308">
        <ele>575.1</ele>
        <time>1970-01-01T04:00:31.000Z</time>
      </trkpt>
      <trkpt lat="41.100625" lon="-6.71834">
        <ele>575.1</ele>
        <time>1970-01-01T04:00:32.000Z</time>
      </trkpt>
      <trkpt lat="41.100659" lon="-6.718372">
        <ele>575</ele>
        <time>1970-01-01T04:00:33.000Z</time>
      </trkpt>
      <trkpt lat="41.100694" lon="-6.718402">
        <ele>575</ele>
        <time>1970-01-01T04:00:34.000Z</time>
      </trkpt>
      <trkpt lat="41.100732" lon="-6.718429">
        <ele>574.9</ele>
        <time>1970-01-01T04:00:35.000Z</time>
      </trkpt>
      <trkpt lat="41.100769" lon="-6.718455">
        <ele>574.9</ele>
        <time>1970-01-01T04:00:36.000Z</time>
      </trkpt>
      <trkpt lat="41.100806" lon="-6.71848">
        <ele>574.9</ele>
        <time>1970-01-01T04:00:37.000Z</time>
      </trkpt>
      <trkpt lat="41.100843" lon="-6.718505">
        <ele>575</ele>
        <time>1970-01-01T04:00:38.000Z</time>
      </trkpt>
      <trkpt lat="41.100879" lon="-6.718527">
        <ele>575.1</ele>
        <time>1970-01-01T04:00:39.000Z</time>
      </trkpt>
      <trkpt lat="41.100915" lon="-6.718549">
        <ele>575.3</ele>
        <time>1970-01-01T04:00:40.000Z</time>
      </trkpt>
      <trkpt lat="41.10095" lon="-6.718571">
        <ele>575.4</ele>
        <time>1970-01-01T04:00:41.000Z</time>
      </trkpt>
      <trkpt lat="41.100985" lon="-6.718594">
        <ele>575.4</ele>
        <time>1970-01-01T04:00:42.000Z</time>
      </trkpt>
      <trkpt lat="41.101021" lon="-6.718618">
        <ele>575.4</ele>
        <time>1970-01-01T04:00:43.000Z</time>
      </trkpt>
      <trkpt lat="41.101059" lon="-6.718641">
        <ele>575.4</ele>
        <time>1970-01-01T04:00:44.000Z</time>
      </trkpt>
      <trkpt lat="41.101096" lon="-6.718664">
        <ele>575.4</ele>
        <time>1970-01-01T04:00:45.000Z</time>
      </trkpt>
      <trkpt lat="41.101134" lon="-6.718686">
        <ele>575.4</ele>
        <time>1970-01-01T04:00:46.000Z</time>
      </trkpt>
      <trkpt lat="41.101172" lon="-6.718707">
        <ele>575.4</ele>
        <time>1970-01-01T04:00:47.000Z</time>
      </trkpt>
      <trkpt lat="41.101211" lon="-6.718724">
        <ele>575.5</ele>
        <time>1970-01-01T04:00:48.000Z</time>
      </trkpt>
      <trkpt lat="41.101252" lon="-6.718737">
        <ele>575.7</ele>
        <time>1970-01-01T04:00:49.000Z</time>
      </trkpt>
      <trkpt lat="41.101292" lon="-6.718748">
        <ele>575.8</ele>
        <time>1970-01-01T04:00:50.000Z</time>
      </trkpt>
      <trkpt lat="41.101333" lon="-6.718759">
        <ele>575.9</ele>
        <time>1970-01-01T04:00:51.000Z</time>
      </trkpt>
      <trkpt lat="41.101373" lon="-6.718768">
        <ele>576</ele>
        <time>1970-01-01T04:00:52.000Z</time>
      </trkpt>
      <trkpt lat="41.101413" lon="-6.718775">
        <ele>576.1</ele>
        <time>1970-01-01T04:00:53.000Z</time>
      </trkpt>
      <trkpt lat="41.101452" lon="-6.718783">
        <ele>576.1</ele>
        <time>1970-01-01T04:00:54.000Z</time>
      </trkpt>
      <trkpt lat="41.101491" lon="-6.718792">
        <ele>576.2</ele>
        <time>1970-01-01T04:00:55.000Z</time>
      </trkpt>
      <trkpt lat="41.101529" lon="-6.7188">
        <ele>576.2</ele>
        <time>1970-01-01T04:00:56.000Z</time>
      </trkpt>
      <trkpt lat="41.101568" lon="-6.718807">
        <ele>576.3</ele>
        <time>1970-01-01T04:00:57.000Z</time>
      </trkpt>
      <trkpt lat="41.101606" lon="-6.718813">
        <ele>576.3</ele>
        <time>1970-01-01T04:00:58.000Z</time>
      </trkpt>
      <trkpt lat="41.101645" lon="-6.718819">
        <ele>576.4</ele>
        <time>1970-01-01T04:00:59.000Z</time>
      </trkpt>
      <trkpt lat="41.101683" lon="-6.718825">
        <ele>576.4</ele>
        <time>1970-01-01T04:01:00.000Z</time>
      </trkpt>
      <trkpt lat="41.101721" lon="-6.71883">
        <ele>576.5</ele>
        <time>1970-01-01T04:01:01.000Z</time>
      </trkpt>
      <trkpt lat="41.101758" lon="-6.718836">
        <ele>576.6</ele>
        <time>1970-01-01T04:01:02.000Z</time>
      </trkpt>
      <trkpt lat="41.101795" lon="-6.718842">
        <ele>576.7</ele>
        <time>1970-01-01T04:01:03.000Z</time>
      </trkpt>
      <trkpt lat="41.101833" lon="-6.718848">
        <ele>576.8</ele>
        <time>1970-01-01T04:01:04.000Z</time>
      </trkpt>
      <trkpt lat="41.101871" lon="-6.718852">
        <ele>576.9</ele>
        <time>1970-01-01T04:01:05.000Z</time>
      </trkpt>
      <trkpt lat="41.10191" lon="-6.718857">
        <ele>577</ele>
        <time>1970-01-01T04:01:06.000Z</time>
      </trkpt>
      <trkpt lat="41.101948" lon="-6.718866">
        <ele>577</ele>
        <time>1970-01-01T04:01:07.000Z</time>
      </trkpt>
      <trkpt lat="41.101986" lon="-6.718881">
        <ele>577</ele>
        <time>1970-01-01T04:01:08.000Z</time>
      </trkpt>
      <trkpt lat="41.102021" lon="-6.718905">
        <ele>576.9</ele>
        <time>1970-01-01T04:01:09.000Z</time>
      </trkpt>
      <trkpt lat="41.102055" lon="-6.718934">
        <ele>576.6</ele>
        <time>1970-01-01T04:01:10.000Z</time>
      </trkpt>
      <trkpt lat="41.102088" lon="-6.718966">
        <ele>576.6</ele>
        <time>1970-01-01T04:01:11.000Z</time>
      </trkpt>
      <trkpt lat="41.102125" lon="-6.718996">
        <ele>576.6</ele>
        <time>1970-01-01T04:01:12.000Z</time>
      </trkpt>
      <trkpt lat="41.102166" lon="-6.71902">
        <ele>576.6</ele>
        <time>1970-01-01T04:01:13.000Z</time>
      </trkpt>
      <trkpt lat="41.102209" lon="-6.719038">
        <ele>576.6</ele>
        <time>1970-01-01T04:01:14.000Z</time>
      </trkpt>
      <trkpt lat="41.102253" lon="-6.71905">
        <ele>576.7</ele>
        <time>1970-01-01T04:01:15.000Z</time>
      </trkpt>
      <trkpt lat="41.102298" lon="-6.719056">
        <ele>576.8</ele>
        <time>1970-01-01T04:01:16.000Z</time>
      </trkpt>
      <trkpt lat="41.102344" lon="-6.719058">
        <ele>576.9</ele>
        <time>1970-01-01T04:01:17.000Z</time>
      </trkpt>
      <trkpt lat="41.102392" lon="-6.719057">
        <ele>577.1</ele>
        <time>1970-01-01T04:01:18.000Z</time>
      </trkpt>
      <trkpt lat="41.102441" lon="-6.719056">
        <ele>577.2</ele>
        <time>1970-01-01T04:01:19.000Z</time>
      </trkpt>
      <trkpt lat="41.102489" lon="-6.719053">
        <ele>577.4</ele>
        <time>1970-01-01T04:01:20.000Z</time>
      </trkpt>
      <trkpt lat="41.102536" lon="-6.71905">
        <ele>577.6</ele>
        <time>1970-01-01T04:01:21.000Z</time>
      </trkpt>
      <trkpt lat="41.102584" lon="-6.719047">
        <ele>577.7</ele>
        <time>1970-01-01T04:01:22.000Z</time>
      </trkpt>
      <trkpt lat="41.102634" lon="-6.719048">
        <ele>577.9</ele>
        <time>1970-01-01T04:01:23.000Z</time>
      </trkpt>
      <trkpt lat="41.102684" lon="-6.719052">
        <ele>578.1</ele>
        <time>1970-01-01T04:01:24.000Z</time>
      </trkpt>
      <trkpt lat="41.102733" lon="-6.71906">
        <ele>578.3</ele>
        <time>1970-01-01T04:01:25.000Z</time>
      </trkpt>
      <trkpt lat="41.10278" lon="-6.719073">
        <ele>578.5</ele>
        <time>1970-01-01T04:01:26.000Z</time>
      </trkpt>
      <trkpt lat="41.102826" lon="-6.71909">
        <ele>578.7</ele>
        <time>1970-01-01T04:01:27.000Z</time>
      </trkpt>
      <trkpt lat="41.102872" lon="-6.719111">
        <ele>578.8</ele>
        <time>1970-01-01T04:01:28.000Z</time>
      </trkpt>
      <trkpt lat="41.102916" lon="-6.719135">
        <ele>579</ele>
        <time>1970-01-01T04:01:29.000Z</time>
      </trkpt>
      <trkpt lat="41.102961" lon="-6.719161">
        <ele>579.2</ele>
        <time>1970-01-01T04:01:30.000Z</time>
      </trkpt>
      <trkpt lat="41.103004" lon="-6.719188">
        <ele>579.4</ele>
        <time>1970-01-01T04:01:31.000Z</time>
      </trkpt>
      <trkpt lat="41.103045" lon="-6.719218">
        <ele>579.7</ele>
        <time>1970-01-01T04:01:32.000Z</time>
      </trkpt>
      <trkpt lat="41.103083" lon="-6.719251">
        <ele>579.9</ele>
        <time>1970-01-01T04:01:33.000Z</time>
      </trkpt>
      <trkpt lat="41.103121" lon="-6.719286">
        <ele>580.3</ele>
        <time>1970-01-01T04:01:34.000Z</time>
      </trkpt>
      <trkpt lat="41.103157" lon="-6.719322">
        <ele>580.6</ele>
        <time>1970-01-01T04:01:35.000Z</time>
      </trkpt>
      <trkpt lat="41.10319" lon="-6.719359">
        <ele>580.8</ele>
        <time>1970-01-01T04:01:36.000Z</time>
      </trkpt>
      <trkpt lat="41.10322" lon="-6.719398">
        <ele>581.1</ele>
        <time>1970-01-01T04:01:37.000Z</time>
      </trkpt>
      <trkpt lat="41.103249" lon="-6.719437">
        <ele>581.3</ele>
        <time>1970-01-01T04:01:38.000Z</time>
      </trkpt>
      <trkpt lat="41.103278" lon="-6.719475">
        <ele>581.6</ele>
        <time>1970-01-01T04:01:39.000Z</time>
      </trkpt>
      <trkpt lat="41.103309" lon="-6.719512">
        <ele>581.8</ele>
        <time>1970-01-01T04:01:40.000Z</time>
      </trkpt>
      <trkpt lat="41.103342" lon="-6.719546">
        <ele>582</ele>
        <time>1970-01-01T04:01:41.000Z</time>
      </trkpt>
      <trkpt lat="41.103375" lon="-6.71958">
        <ele>582.2</ele>
        <time>1970-01-01T04:01:42.000Z</time>
      </trkpt>
      <trkpt lat="41.103407" lon="-6.719612">
        <ele>582.3</ele>
        <time>1970-01-01T04:01:43.000Z</time>
      </trkpt>
      <trkpt lat="41.103438" lon="-6.719642">
        <ele>582.5</ele>
        <time>1970-01-01T04:01:44.000Z</time>
      </trkpt>
      <trkpt lat="41.103468" lon="-6.71967">
        <ele>582.6</ele>
        <time>1970-01-01T04:01:45.000Z</time>
      </trkpt>
      <trkpt lat="41.103497" lon="-6.719697">
        <ele>582.8</ele>
        <time>1970-01-01T04:01:46.000Z</time>
      </trkpt>
      <trkpt lat="41.103527" lon="-6.719723">
        <ele>582.9</ele>
        <time>1970-01-01T04:01:47.000Z</time>
      </trkpt>
      <trkpt lat="41.103557" lon="-6.719748">
        <ele>583.1</ele>
        <time>1970-01-01T04:01:48.000Z</time>
      </trkpt>
      <trkpt lat="41.103587" lon="-6.719772">
        <ele>583.2</ele>
        <time>1970-01-01T04:01:49.000Z</time>
      </trkpt>
      <trkpt lat="41.103618" lon="-6.719796">
        <ele>583.4</ele>
        <time>1970-01-01T04:01:50.000Z</time>
      </trkpt>
      <trkpt lat="41.103649" lon="-6.719818">
        <ele>583.5</ele>
        <time>1970-01-01T04:01:51.000Z</time>
      </trkpt>
      <trkpt lat="41.10368" lon="-6.719839">
        <ele>583.7</ele>
        <time>1970-01-01T04:01:52.000Z</time>
      </trkpt>
      <trkpt lat="41.103711" lon="-6.719861">
        <ele>583.9</ele>
        <time>1970-01-01T04:01:53.000Z</time>
      </trkpt>
      <trkpt lat="41.103743" lon="-6.719883">
        <ele>584</ele>
        <time>1970-01-01T04:01:54.000Z</time>
      </trkpt>
      <trkpt lat="41.103776" lon="-6.719903">
        <ele>584.2</ele>
        <time>1970-01-01T04:01:55.000Z</time>
      </trkpt>
      <trkpt lat="41.10381" lon="-6.71992">
        <ele>584.4</ele>
        <time>1970-01-01T04:01:56.000Z</time>
      </trkpt>
      <trkpt lat="41.103843" lon="-6.719937">
        <ele>584.5</ele>
        <time>1970-01-01T04:01:57.000Z</time>
      </trkpt>
      <trkpt lat="41.103877" lon="-6.719953">
        <ele>584.7</ele>
        <time>1970-01-01T04:01:58.000Z</time>
      </trkpt>
      <trkpt lat="41.10391" lon="-6.71997">
        <ele>584.8</ele>
        <time>1970-01-01T04:01:59.000Z</time>
      </trkpt>
      <trkpt lat="41.103944" lon="-6.719989">
        <ele>585</ele>
        <time>1970-01-01T04:02:00.000Z</time>
      </trkpt>
      <trkpt lat="41.103977" lon="-6.720009">
        <ele>585.2</ele>
        <time>1970-01-01T04:02:01.000Z</time>
      </trkpt>
      <trkpt lat="41.10401" lon="-6.72003">
        <ele>585.4</ele>
        <time>1970-01-01T04:02:02.000Z</time>
      </trkpt>
      <trkpt lat="41.104041" lon="-6.720054">
        <ele>586</ele>
        <time>1970-01-01T04:02:03.000Z</time>
      </trkpt>
      <trkpt lat="41.104071" lon="-6.720081">
        <ele>585.9</ele>
        <time>1970-01-01T04:02:04.000Z</time>
      </trkpt>
      <trkpt lat="41.104099" lon="-6.72011">
        <ele>585.8</ele>
        <time>1970-01-01T04:02:05.000Z</time>
      </trkpt>
      <trkpt lat="41.104126" lon="-6.720141">
        <ele>585.8</ele>
        <time>1970-01-01T04:02:06.000Z</time>
      </trkpt>
      <trkpt lat="41.104154" lon="-6.720174">
        <ele>585.7</ele>
        <time>1970-01-01T04:02:07.000Z</time>
      </trkpt>
      <trkpt lat="41.104183" lon="-6.720209">
        <ele>585.6</ele>
        <time>1970-01-01T04:02:08.000Z</time>
      </trkpt>
      <trkpt lat="41.104213" lon="-6.720245">
        <ele>585.5</ele>
        <time>1970-01-01T04:02:09.000Z</time>
      </trkpt>
      <trkpt lat="41.104241" lon="-6.720283">
        <ele>585.4</ele>
        <time>1970-01-01T04:02:10.000Z</time>
      </trkpt>
      <trkpt lat="41.10427" lon="-6.720323">
        <ele>585.2</ele>
        <time>1970-01-01T04:02:11.000Z</time>
      </trkpt>
      <trkpt lat="41.104299" lon="-6.720366">
        <ele>585.1</ele>
        <time>1970-01-01T04:02:12.000Z</time>
      </trkpt>
      <trkpt lat="41.10433" lon="-6.720411">
        <ele>584.9</ele>
        <time>1970-01-01T04:02:13.000Z</time>
      </trkpt>
      <trkpt lat="41.104362" lon="-6.720459">
        <ele>584.8</ele>
        <time>1970-01-01T04:02:14.000Z</time>
      </trkpt>
      <trkpt lat="41.104397" lon="-6.720509">
        <ele>584.4</ele>
        <time>1970-01-01T04:02:15.000Z</time>
      </trkpt>
      <trkpt lat="41.104436" lon="-6.720561">
        <ele>584.2</ele>
        <time>1970-01-01T04:02:16.000Z</time>
      </trkpt>
      <trkpt lat="41.104478" lon="-6.720616">
        <ele>583.9</ele>
        <time>1970-01-01T04:02:17.000Z</time>
      </trkpt>
      <trkpt lat="41.10452" lon="-6.720676">
        <ele>583.6</ele>
        <time>1970-01-01T04:02:18.000Z</time>
      </trkpt>
      <trkpt lat="41.104563" lon="-6.720741">
        <ele>583.5</ele>
        <time>1970-01-01T04:02:19.000Z</time>
      </trkpt>
      <trkpt lat="41.104608" lon="-6.720812">
        <ele>583.3</ele>
        <time>1970-01-01T04:02:20.000Z</time>
      </trkpt>
      <trkpt lat="41.104654" lon="-6.720887">
        <ele>583.2</ele>
        <time>1970-01-01T04:02:21.000Z</time>
      </trkpt>
      <trkpt lat="41.104702" lon="-6.720966">
        <ele>583</ele>
        <time>1970-01-01T04:02:22.000Z</time>
      </trkpt>
      <trkpt lat="41.104751" lon="-6.721048">
        <ele>582.7</ele>
        <time>1970-01-01T04:02:23.000Z</time>
      </trkpt>
      <trkpt lat="41.104799" lon="-6.72113">
        <ele>582.5</ele>
        <time>1970-01-01T04:02:24.000Z</time>
      </trkpt>
      <trkpt lat="41.104847" lon="-6.721211">
        <ele>582.2</ele>
        <time>1970-01-01T04:02:25.000Z</time>
      </trkpt>
      <trkpt lat="41.104892" lon="-6.721288">
        <ele>582</ele>
        <time>1970-01-01T04:02:26.000Z</time>
      </trkpt>
      <trkpt lat="41.104934" lon="-6.721364">
        <ele>581.9</ele>
        <time>1970-01-01T04:02:27.000Z</time>
      </trkpt>
      <trkpt lat="41.104974" lon="-6.721437">
        <ele>581.8</ele>
        <time>1970-01-01T04:02:28.000Z</time>
      </trkpt>
      <trkpt lat="41.105011" lon="-6.721508">
        <ele>581.8</ele>
        <time>1970-01-01T04:02:29.000Z</time>
      </trkpt>
      <trkpt lat="41.105045" lon="-6.721574">
        <ele>581.7</ele>
        <time>1970-01-01T04:02:30.000Z</time>
      </trkpt>
      <trkpt lat="41.105077" lon="-6.721635">
        <ele>581.5</ele>
        <time>1970-01-01T04:02:31.000Z</time>
      </trkpt>
      <trkpt lat="41.105108" lon="-6.721691">
        <ele>581.4</ele>
        <time>1970-01-01T04:02:32.000Z</time>
      </trkpt>
      <trkpt lat="41.105139" lon="-6.721745">
        <ele>581.3</ele>
        <time>1970-01-01T04:02:33.000Z</time>
      </trkpt>
      <trkpt lat="41.10517" lon="-6.721798">
        <ele>581.2</ele>
        <time>1970-01-01T04:02:34.000Z</time>
      </trkpt>
      <trkpt lat="41.1052" lon="-6.721848">
        <ele>581.1</ele>
        <time>1970-01-01T04:02:35.000Z</time>
      </trkpt>
      <trkpt lat="41.105231" lon="-6.721898">
        <ele>581</ele>
        <time>1970-01-01T04:02:36.000Z</time>
      </trkpt>
      <trkpt lat="41.105261" lon="-6.721949">
        <ele>581.2</ele>
        <time>1970-01-01T04:02:37.000Z</time>
      </trkpt>
      <trkpt lat="41.105291" lon="-6.722">
        <ele>581.4</ele>
        <time>1970-01-01T04:02:38.000Z</time>
      </trkpt>
      <trkpt lat="41.105317" lon="-6.722052">
        <ele>581.5</ele>
        <time>1970-01-01T04:02:39.000Z</time>
      </trkpt>
      <trkpt lat="41.105344" lon="-6.722102">
        <ele>581.7</ele>
        <time>1970-01-01T04:02:40.000Z</time>
      </trkpt>
      <trkpt lat="41.105371" lon="-6.722153">
        <ele>581.8</ele>
        <time>1970-01-01T04:02:41.000Z</time>
      </trkpt>
      <trkpt lat="41.105398" lon="-6.722201">
        <ele>581.9</ele>
        <time>1970-01-01T04:02:42.000Z</time>
      </trkpt>
      <trkpt lat="41.105426" lon="-6.722248">
        <ele>581.9</ele>
        <time>1970-01-01T04:02:43.000Z</time>
      </trkpt>
      <trkpt lat="41.105456" lon="-6.722289">
        <ele>582</ele>
        <time>1970-01-01T04:02:44.000Z</time>
      </trkpt>
      <trkpt lat="41.10549" lon="-6.72232">
        <ele>581.6</ele>
        <time>1970-01-01T04:02:45.000Z</time>
      </trkpt>
      <trkpt lat="41.105528" lon="-6.72234">
        <ele>581.2</ele>
        <time>1970-01-01T04:02:46.000Z</time>
      </trkpt>
      <trkpt lat="41.105565" lon="-6.72235">
        <ele>580.8</ele>
        <time>1970-01-01T04:02:47.000Z</time>
      </trkpt>
      <trkpt lat="41.1056" lon="-6.722358">
        <ele>580.7</ele>
        <time>1970-01-01T04:02:48.000Z</time>
      </trkpt>
      <trkpt lat="41.105631" lon="-6.722368">
        <ele>580.8</ele>
        <time>1970-01-01T04:02:49.000Z</time>
      </trkpt>
      <trkpt lat="41.105655" lon="-6.722385">
        <ele>580.8</ele>
        <time>1970-01-01T04:02:50.000Z</time>
      </trkpt>
      <trkpt lat="41.105674" lon="-6.722404">
        <ele>580.9</ele>
        <time>1970-01-01T04:02:51.000Z</time>
      </trkpt>
      <trkpt lat="41.105687" lon="-6.722426">
        <ele>580.9</ele>
        <time>1970-01-01T04:02:52.000Z</time>
      </trkpt>
      <trkpt lat="41.105699" lon="-6.722446">
        <ele>580.9</ele>
        <time>1970-01-01T04:02:53.000Z</time>
      </trkpt>
      <trkpt lat="41.105708" lon="-6.722466">
        <ele>581</ele>
        <time>1970-01-01T04:02:54.000Z</time>
      </trkpt>
      <trkpt lat="41.105717" lon="-6.722486">
        <ele>581</ele>
        <time>1970-01-01T04:02:55.000Z</time>
      </trkpt>
      <trkpt lat="41.10572" lon="-6.722502">
        <ele>581</ele>
        <time>1970-01-01T04:02:56.000Z</time>
      </trkpt>
      <trkpt lat="41.105719" lon="-6.722514">
        <ele>581</ele>
        <time>1970-01-01T04:02:57.000Z</time>
      </trkpt>
      <trkpt lat="41.105718" lon="-6.72252">
        <ele>581.1</ele>
        <time>1970-01-01T04:02:58.000Z</time>
      </trkpt>
      <trkpt lat="41.10572" lon="-6.722523">
        <ele>581.1</ele>
        <time>1970-01-01T04:02:59.000Z</time>
      </trkpt>
      <trkpt lat="41.105724" lon="-6.722524">
        <ele>581.1</ele>
        <time>1970-01-01T04:03:00.000Z</time>
      </trkpt>
      <trkpt lat="41.105727" lon="-6.722524">
        <ele>581.1</ele>
        <time>1970-01-01T04:03:01.000Z</time>
      </trkpt>
      <trkpt lat="41.105729" lon="-6.722525">
        <ele>581.1</ele>
        <time>1970-01-01T04:03:02.000Z</time>
      </trkpt>
      <trkpt lat="41.10573" lon="-6.722526">
        <ele>581.1</ele>
        <time>1970-01-01T04:03:03.000Z</time>
      </trkpt>
      <trkpt lat="41.105732" lon="-6.722526">
        <ele>581.1</ele>
        <time>1970-01-01T04:03:04.000Z</time>
      </trkpt>
      <trkpt lat="41.105734" lon="-6.722526">
        <ele>581.1</ele>
        <time>1970-01-01T04:03:05.000Z</time>
      </trkpt>
      <trkpt lat="41.105735" lon="-6.722526">
        <ele>581.1</ele>
        <time>1970-01-01T04:03:06.000Z</time>
      </trkpt>
      <trkpt lat="41.105734" lon="-6.722526">
        <ele>581.1</ele>
        <time>1970-01-01T04:03:07.000Z</time>
      </trkpt>
      <trkpt lat="41.105733" lon="-6.722527">
        <ele>581.1</ele>
        <time>1970-01-01T04:03:08.000Z</time>
      </trkpt>
    </trkseg>
  </trk>
</gpx>
